<?xml version="1.0" encoding="UTF-8" standalone="no" ?>
<gpx xmlns="http://www.topografix.com/GPX/1/1" xmlns:xsi="http://www.w3.org/2001/XMLSchema-instance" xsi:schemaLocation="http://www.topografix.com/GPX/1/1 http://www.topografix.com/GPX/1/1/gpx.xsd" version="1.1" creator="VisuGPX - https://www.visugpx.com">
  <metadata>
    <name>RODEZ_AGNAC_AMPIAC_2011-05-18</name>
    <desc><![CDATA[RODEZ_AGNAC_AMPIAC_2011-05-18]]></desc>
  </metadata>
  <trk>
    <name><![CDATA[RODEZ_AGNAC_AMPIAC_2011-05-18]]></name>
    <trkseg>
      <trkpt lat="44.35694" lon="2.55671">
        <ele>574.5</ele>
        <time>2011-05-18T16:04:08Z</time>
      </trkpt>
      <trkpt lat="44.35691" lon="2.5567">
        <ele>574.4</ele>
        <time>2011-05-18T16:04:09Z</time>
      </trkpt>
      <trkpt lat="44.35689" lon="2.5567">
        <ele>574.3</ele>
        <time>2011-05-18T16:04:10Z</time>
      </trkpt>
      <trkpt lat="44.35686" lon="2.55669">
        <ele>574.1</ele>
        <time>2011-05-18T16:04:11Z</time>
      </trkpt>
      <trkpt lat="44.35684" lon="2.55668">
        <ele>574</ele>
        <time>2011-05-18T16:04:12Z</time>
      </trkpt>
      <trkpt lat="44.35681" lon="2.55667">
        <ele>573.9</ele>
        <time>2011-05-18T16:04:13Z</time>
      </trkpt>
      <trkpt lat="44.35679" lon="2.55667">
        <ele>573.7</ele>
        <time>2011-05-18T16:04:14Z</time>
      </trkpt>
      <trkpt lat="44.35676" lon="2.55666">
        <ele>573.7</ele>
        <time>2011-05-18T16:04:15Z</time>
      </trkpt>
      <trkpt lat="44.35674" lon="2.55665">
        <ele>573.6</ele>
        <time>2011-05-18T16:04:16Z</time>
      </trkpt>
      <trkpt lat="44.35672" lon="2.55664">
        <ele>573.6</ele>
        <time>2011-05-18T16:04:17Z</time>
      </trkpt>
      <trkpt lat="44.35669" lon="2.55664">
        <ele>573.7</ele>
        <time>2011-05-18T16:04:18Z</time>
      </trkpt>
      <trkpt lat="44.35667" lon="2.55663">
        <ele>573.5</ele>
        <time>2011-05-18T16:04:19Z</time>
      </trkpt>
      <trkpt lat="44.35665" lon="2.55662">
        <ele>573.7</ele>
        <time>2011-05-18T16:04:20Z</time>
      </trkpt>
      <trkpt lat="44.35661" lon="2.55659">
        <ele>574</ele>
        <time>2011-05-18T16:04:22Z</time>
      </trkpt>
      <trkpt lat="44.35658" lon="2.55658">
        <ele>574.1</ele>
        <time>2011-05-18T16:04:23Z</time>
      </trkpt>
      <trkpt lat="44.35656" lon="2.55657">
        <ele>574.3</ele>
        <time>2011-05-18T16:04:24Z</time>
      </trkpt>
      <trkpt lat="44.35652" lon="2.55655">
        <ele>574.6</ele>
        <time>2011-05-18T16:04:26Z</time>
      </trkpt>
      <trkpt lat="44.3565" lon="2.55653">
        <ele>574.7</ele>
        <time>2011-05-18T16:04:27Z</time>
      </trkpt>
      <trkpt lat="44.35647" lon="2.55653">
        <ele>574.7</ele>
        <time>2011-05-18T16:04:28Z</time>
      </trkpt>
      <trkpt lat="44.35645" lon="2.55652">
        <ele>574.8</ele>
        <time>2011-05-18T16:04:29Z</time>
      </trkpt>
      <trkpt lat="44.35643" lon="2.55651">
        <ele>574.8</ele>
        <time>2011-05-18T16:04:30Z</time>
      </trkpt>
      <trkpt lat="44.3564" lon="2.5565">
        <ele>574.9</ele>
        <time>2011-05-18T16:04:31Z</time>
      </trkpt>
      <trkpt lat="44.35638" lon="2.55648">
        <ele>575.2</ele>
        <time>2011-05-18T16:04:32Z</time>
      </trkpt>
      <trkpt lat="44.35636" lon="2.55647">
        <ele>575.3</ele>
        <time>2011-05-18T16:04:33Z</time>
      </trkpt>
      <trkpt lat="44.35633" lon="2.55645">
        <ele>575.4</ele>
        <time>2011-05-18T16:04:34Z</time>
      </trkpt>
      <trkpt lat="44.35631" lon="2.55644">
        <ele>575.5</ele>
        <time>2011-05-18T16:04:35Z</time>
      </trkpt>
      <trkpt lat="44.35628" lon="2.55642">
        <ele>575.6</ele>
        <time>2011-05-18T16:04:36Z</time>
      </trkpt>
      <trkpt lat="44.35626" lon="2.5564">
        <ele>575.8</ele>
        <time>2011-05-18T16:04:37Z</time>
      </trkpt>
      <trkpt lat="44.35623" lon="2.55638">
        <ele>575.9</ele>
        <time>2011-05-18T16:04:38Z</time>
      </trkpt>
      <trkpt lat="44.35621" lon="2.55636">
        <ele>576.1</ele>
        <time>2011-05-18T16:04:39Z</time>
      </trkpt>
      <trkpt lat="44.35618" lon="2.55634">
        <ele>576.2</ele>
        <time>2011-05-18T16:04:40Z</time>
      </trkpt>
      <trkpt lat="44.35615" lon="2.55632">
        <ele>576.3</ele>
        <time>2011-05-18T16:04:41Z</time>
      </trkpt>
      <trkpt lat="44.35611" lon="2.55629">
        <ele>576.6</ele>
        <time>2011-05-18T16:04:42Z</time>
      </trkpt>
      <trkpt lat="44.35607" lon="2.55626">
        <ele>576.7</ele>
        <time>2011-05-18T16:04:43Z</time>
      </trkpt>
      <trkpt lat="44.35604" lon="2.55622">
        <ele>576.8</ele>
        <time>2011-05-18T16:04:44Z</time>
      </trkpt>
      <trkpt lat="44.35599" lon="2.55619">
        <ele>577</ele>
        <time>2011-05-18T16:04:45Z</time>
      </trkpt>
      <trkpt lat="44.35595" lon="2.55616">
        <ele>577.1</ele>
        <time>2011-05-18T16:04:46Z</time>
      </trkpt>
      <trkpt lat="44.35591" lon="2.55612">
        <ele>577.2</ele>
        <time>2011-05-18T16:04:47Z</time>
      </trkpt>
      <trkpt lat="44.35587" lon="2.55609">
        <ele>577.4</ele>
        <time>2011-05-18T16:04:48Z</time>
      </trkpt>
      <trkpt lat="44.35583" lon="2.55605">
        <ele>577.5</ele>
        <time>2011-05-18T16:04:49Z</time>
      </trkpt>
      <trkpt lat="44.35579" lon="2.55602">
        <ele>577.1</ele>
        <time>2011-05-18T16:04:50Z</time>
      </trkpt>
      <trkpt lat="44.35575" lon="2.55597">
        <ele>576.9</ele>
        <time>2011-05-18T16:04:51Z</time>
      </trkpt>
      <trkpt lat="44.35571" lon="2.55593">
        <ele>576.6</ele>
        <time>2011-05-18T16:04:52Z</time>
      </trkpt>
      <trkpt lat="44.35566" lon="2.55588">
        <ele>576.3</ele>
        <time>2011-05-18T16:04:53Z</time>
      </trkpt>
      <trkpt lat="44.35561" lon="2.55587">
        <ele>575.6</ele>
        <time>2011-05-18T16:04:54Z</time>
      </trkpt>
      <trkpt lat="44.35554" lon="2.55587">
        <ele>574.7</ele>
        <time>2011-05-18T16:04:55Z</time>
      </trkpt>
      <trkpt lat="44.35549" lon="2.55584">
        <ele>574</ele>
        <time>2011-05-18T16:04:56Z</time>
      </trkpt>
      <trkpt lat="44.35544" lon="2.55578">
        <ele>572.6</ele>
        <time>2011-05-18T16:04:57Z</time>
      </trkpt>
      <trkpt lat="44.3554" lon="2.5557">
        <ele>571.2</ele>
        <time>2011-05-18T16:04:58Z</time>
      </trkpt>
      <trkpt lat="44.35535" lon="2.55563">
        <ele>569.7</ele>
        <time>2011-05-18T16:04:59Z</time>
      </trkpt>
      <trkpt lat="44.35529" lon="2.55558">
        <ele>568.2</ele>
        <time>2011-05-18T16:05:00Z</time>
      </trkpt>
      <trkpt lat="44.35523" lon="2.55552">
        <ele>566.6</ele>
        <time>2011-05-18T16:05:01Z</time>
      </trkpt>
      <trkpt lat="44.35515" lon="2.55547">
        <ele>564.9</ele>
        <time>2011-05-18T16:05:02Z</time>
      </trkpt>
      <trkpt lat="44.35508" lon="2.55542">
        <ele>563.2</ele>
        <time>2011-05-18T16:05:03Z</time>
      </trkpt>
      <trkpt lat="44.355" lon="2.55538">
        <ele>561.4</ele>
        <time>2011-05-18T16:05:04Z</time>
      </trkpt>
      <trkpt lat="44.35492" lon="2.55534">
        <ele>560.5</ele>
        <time>2011-05-18T16:05:05Z</time>
      </trkpt>
      <trkpt lat="44.35484" lon="2.55531">
        <ele>559.6</ele>
        <time>2011-05-18T16:05:06Z</time>
      </trkpt>
      <trkpt lat="44.35475" lon="2.5553">
        <ele>558.8</ele>
        <time>2011-05-18T16:05:07Z</time>
      </trkpt>
      <trkpt lat="44.35466" lon="2.5553">
        <ele>558</ele>
        <time>2011-05-18T16:05:08Z</time>
      </trkpt>
      <trkpt lat="44.35457" lon="2.55531">
        <ele>557.5</ele>
        <time>2011-05-18T16:05:09Z</time>
      </trkpt>
      <trkpt lat="44.35448" lon="2.55532">
        <ele>557.1</ele>
        <time>2011-05-18T16:05:10Z</time>
      </trkpt>
      <trkpt lat="44.35438" lon="2.55535">
        <ele>556.7</ele>
        <time>2011-05-18T16:05:11Z</time>
      </trkpt>
      <trkpt lat="44.35428" lon="2.55538">
        <ele>556.6</ele>
        <time>2011-05-18T16:05:12Z</time>
      </trkpt>
      <trkpt lat="44.35417" lon="2.55541">
        <ele>556.3</ele>
        <time>2011-05-18T16:05:13Z</time>
      </trkpt>
      <trkpt lat="44.35407" lon="2.55543">
        <ele>555.7</ele>
        <time>2011-05-18T16:05:14Z</time>
      </trkpt>
      <trkpt lat="44.35397" lon="2.55545">
        <ele>554.8</ele>
        <time>2011-05-18T16:05:15Z</time>
      </trkpt>
      <trkpt lat="44.35388" lon="2.55546">
        <ele>554</ele>
        <time>2011-05-18T16:05:16Z</time>
      </trkpt>
      <trkpt lat="44.35379" lon="2.55545">
        <ele>552.8</ele>
        <time>2011-05-18T16:05:17Z</time>
      </trkpt>
      <trkpt lat="44.3537" lon="2.55545">
        <ele>551.8</ele>
        <time>2011-05-18T16:05:18Z</time>
      </trkpt>
      <trkpt lat="44.35361" lon="2.55546">
        <ele>551</ele>
        <time>2011-05-18T16:05:19Z</time>
      </trkpt>
      <trkpt lat="44.35352" lon="2.55547">
        <ele>550</ele>
        <time>2011-05-18T16:05:20Z</time>
      </trkpt>
      <trkpt lat="44.35344" lon="2.55545">
        <ele>549</ele>
        <time>2011-05-18T16:05:21Z</time>
      </trkpt>
      <trkpt lat="44.35336" lon="2.55543">
        <ele>548</ele>
        <time>2011-05-18T16:05:22Z</time>
      </trkpt>
      <trkpt lat="44.35328" lon="2.55541">
        <ele>546.2</ele>
        <time>2011-05-18T16:05:23Z</time>
      </trkpt>
      <trkpt lat="44.3532" lon="2.55538">
        <ele>544.2</ele>
        <time>2011-05-18T16:05:24Z</time>
      </trkpt>
      <trkpt lat="44.35315" lon="2.55533">
        <ele>542.8</ele>
        <time>2011-05-18T16:05:25Z</time>
      </trkpt>
      <trkpt lat="44.35311" lon="2.55527">
        <ele>541.5</ele>
        <time>2011-05-18T16:05:26Z</time>
      </trkpt>
      <trkpt lat="44.35308" lon="2.5552">
        <ele>540.2</ele>
        <time>2011-05-18T16:05:27Z</time>
      </trkpt>
      <trkpt lat="44.35305" lon="2.55512">
        <ele>539.2</ele>
        <time>2011-05-18T16:05:28Z</time>
      </trkpt>
      <trkpt lat="44.35304" lon="2.55504">
        <ele>538.4</ele>
        <time>2011-05-18T16:05:29Z</time>
      </trkpt>
      <trkpt lat="44.35303" lon="2.55495">
        <ele>537.3</ele>
        <time>2011-05-18T16:05:30Z</time>
      </trkpt>
      <trkpt lat="44.35304" lon="2.55487">
        <ele>536.4</ele>
        <time>2011-05-18T16:05:31Z</time>
      </trkpt>
      <trkpt lat="44.35305" lon="2.5548">
        <ele>535.5</ele>
        <time>2011-05-18T16:05:32Z</time>
      </trkpt>
      <trkpt lat="44.35307" lon="2.55473">
        <ele>534.8</ele>
        <time>2011-05-18T16:05:33Z</time>
      </trkpt>
      <trkpt lat="44.3531" lon="2.55467">
        <ele>534.2</ele>
        <time>2011-05-18T16:05:34Z</time>
      </trkpt>
      <trkpt lat="44.35314" lon="2.55461">
        <ele>533.9</ele>
        <time>2011-05-18T16:05:35Z</time>
      </trkpt>
      <trkpt lat="44.35318" lon="2.55456">
        <ele>533.4</ele>
        <time>2011-05-18T16:05:36Z</time>
      </trkpt>
      <trkpt lat="44.35322" lon="2.5545">
        <ele>533</ele>
        <time>2011-05-18T16:05:37Z</time>
      </trkpt>
      <trkpt lat="44.35327" lon="2.55444">
        <ele>532.5</ele>
        <time>2011-05-18T16:05:38Z</time>
      </trkpt>
      <trkpt lat="44.35331" lon="2.55437">
        <ele>532.1</ele>
        <time>2011-05-18T16:05:39Z</time>
      </trkpt>
      <trkpt lat="44.35335" lon="2.55434">
        <ele>531.8</ele>
        <time>2011-05-18T16:05:40Z</time>
      </trkpt>
      <trkpt lat="44.35338" lon="2.55432">
        <ele>531.7</ele>
        <time>2011-05-18T16:05:41Z</time>
      </trkpt>
      <trkpt lat="44.35342" lon="2.55431">
        <ele>532</ele>
        <time>2011-05-18T16:05:43Z</time>
      </trkpt>
      <trkpt lat="44.35344" lon="2.55429">
        <ele>531.8</ele>
        <time>2011-05-18T16:05:44Z</time>
      </trkpt>
      <trkpt lat="44.35346" lon="2.55426">
        <ele>531.7</ele>
        <time>2011-05-18T16:05:45Z</time>
      </trkpt>
      <trkpt lat="44.35349" lon="2.55422">
        <ele>531.3</ele>
        <time>2011-05-18T16:05:46Z</time>
      </trkpt>
      <trkpt lat="44.35351" lon="2.55418">
        <ele>530.9</ele>
        <time>2011-05-18T16:05:47Z</time>
      </trkpt>
      <trkpt lat="44.35353" lon="2.55413">
        <ele>530.5</ele>
        <time>2011-05-18T16:05:48Z</time>
      </trkpt>
      <trkpt lat="44.35355" lon="2.55408">
        <ele>530.1</ele>
        <time>2011-05-18T16:05:49Z</time>
      </trkpt>
      <trkpt lat="44.35356" lon="2.55404">
        <ele>529.8</ele>
        <time>2011-05-18T16:05:50Z</time>
      </trkpt>
      <trkpt lat="44.35356" lon="2.55399">
        <ele>529.4</ele>
        <time>2011-05-18T16:05:51Z</time>
      </trkpt>
      <trkpt lat="44.35356" lon="2.55395">
        <ele>529</ele>
        <time>2011-05-18T16:05:52Z</time>
      </trkpt>
      <trkpt lat="44.35355" lon="2.5539">
        <ele>528.4</ele>
        <time>2011-05-18T16:05:54Z</time>
      </trkpt>
      <trkpt lat="44.35354" lon="2.55386">
        <ele>527.9</ele>
        <time>2011-05-18T16:06:00Z</time>
      </trkpt>
      <trkpt lat="44.35355" lon="2.55384">
        <ele>527.7</ele>
        <time>2011-05-18T16:06:01Z</time>
      </trkpt>
      <trkpt lat="44.35358" lon="2.55377">
        <ele>527.3</ele>
        <time>2011-05-18T16:06:04Z</time>
      </trkpt>
      <trkpt lat="44.3536" lon="2.55373">
        <ele>527.2</ele>
        <time>2011-05-18T16:06:06Z</time>
      </trkpt>
      <trkpt lat="44.35361" lon="2.55369">
        <ele>526.9</ele>
        <time>2011-05-18T16:06:07Z</time>
      </trkpt>
      <trkpt lat="44.35363" lon="2.55363">
        <ele>526.5</ele>
        <time>2011-05-18T16:06:08Z</time>
      </trkpt>
      <trkpt lat="44.35366" lon="2.55359">
        <ele>526.3</ele>
        <time>2011-05-18T16:06:09Z</time>
      </trkpt>
      <trkpt lat="44.3537" lon="2.55355">
        <ele>526.2</ele>
        <time>2011-05-18T16:06:10Z</time>
      </trkpt>
      <trkpt lat="44.35374" lon="2.55351">
        <ele>526.1</ele>
        <time>2011-05-18T16:06:11Z</time>
      </trkpt>
      <trkpt lat="44.35378" lon="2.55348">
        <ele>526.2</ele>
        <time>2011-05-18T16:06:12Z</time>
      </trkpt>
      <trkpt lat="44.35382" lon="2.55344">
        <ele>526.2</ele>
        <time>2011-05-18T16:06:13Z</time>
      </trkpt>
      <trkpt lat="44.35386" lon="2.5534">
        <ele>526.1</ele>
        <time>2011-05-18T16:06:14Z</time>
      </trkpt>
      <trkpt lat="44.3539" lon="2.55336">
        <ele>526</ele>
        <time>2011-05-18T16:06:15Z</time>
      </trkpt>
      <trkpt lat="44.35394" lon="2.55333">
        <ele>526</ele>
        <time>2011-05-18T16:06:16Z</time>
      </trkpt>
      <trkpt lat="44.35398" lon="2.5533">
        <ele>526</ele>
        <time>2011-05-18T16:06:17Z</time>
      </trkpt>
      <trkpt lat="44.35402" lon="2.55326">
        <ele>525.8</ele>
        <time>2011-05-18T16:06:18Z</time>
      </trkpt>
      <trkpt lat="44.35407" lon="2.55323">
        <ele>525.8</ele>
        <time>2011-05-18T16:06:19Z</time>
      </trkpt>
      <trkpt lat="44.35411" lon="2.5532">
        <ele>525.7</ele>
        <time>2011-05-18T16:06:20Z</time>
      </trkpt>
      <trkpt lat="44.35415" lon="2.55316">
        <ele>525.6</ele>
        <time>2011-05-18T16:06:21Z</time>
      </trkpt>
      <trkpt lat="44.35419" lon="2.55313">
        <ele>525.7</ele>
        <time>2011-05-18T16:06:22Z</time>
      </trkpt>
      <trkpt lat="44.35423" lon="2.55309">
        <ele>525.9</ele>
        <time>2011-05-18T16:06:23Z</time>
      </trkpt>
      <trkpt lat="44.35427" lon="2.55306">
        <ele>526.3</ele>
        <time>2011-05-18T16:06:24Z</time>
      </trkpt>
      <trkpt lat="44.35431" lon="2.55302">
        <ele>526.6</ele>
        <time>2011-05-18T16:06:25Z</time>
      </trkpt>
      <trkpt lat="44.35435" lon="2.55299">
        <ele>526.8</ele>
        <time>2011-05-18T16:06:26Z</time>
      </trkpt>
      <trkpt lat="44.35439" lon="2.55296">
        <ele>527.2</ele>
        <time>2011-05-18T16:06:27Z</time>
      </trkpt>
      <trkpt lat="44.35443" lon="2.55292">
        <ele>527.5</ele>
        <time>2011-05-18T16:06:28Z</time>
      </trkpt>
      <trkpt lat="44.35448" lon="2.55289">
        <ele>527.7</ele>
        <time>2011-05-18T16:06:29Z</time>
      </trkpt>
      <trkpt lat="44.35452" lon="2.55285">
        <ele>527.9</ele>
        <time>2011-05-18T16:06:30Z</time>
      </trkpt>
      <trkpt lat="44.35457" lon="2.5528">
        <ele>528.3</ele>
        <time>2011-05-18T16:06:31Z</time>
      </trkpt>
      <trkpt lat="44.35463" lon="2.55276">
        <ele>528.7</ele>
        <time>2011-05-18T16:06:32Z</time>
      </trkpt>
      <trkpt lat="44.35468" lon="2.55272">
        <ele>528.9</ele>
        <time>2011-05-18T16:06:33Z</time>
      </trkpt>
      <trkpt lat="44.35474" lon="2.55268">
        <ele>529.3</ele>
        <time>2011-05-18T16:06:34Z</time>
      </trkpt>
      <trkpt lat="44.3548" lon="2.55264">
        <ele>529.6</ele>
        <time>2011-05-18T16:06:35Z</time>
      </trkpt>
      <trkpt lat="44.35485" lon="2.5526">
        <ele>530</ele>
        <time>2011-05-18T16:06:36Z</time>
      </trkpt>
      <trkpt lat="44.35491" lon="2.55256">
        <ele>530.4</ele>
        <time>2011-05-18T16:06:37Z</time>
      </trkpt>
      <trkpt lat="44.35497" lon="2.55252">
        <ele>530.8</ele>
        <time>2011-05-18T16:06:38Z</time>
      </trkpt>
      <trkpt lat="44.35503" lon="2.55248">
        <ele>531.5</ele>
        <time>2011-05-18T16:06:39Z</time>
      </trkpt>
      <trkpt lat="44.35509" lon="2.55244">
        <ele>532.6</ele>
        <time>2011-05-18T16:06:40Z</time>
      </trkpt>
      <trkpt lat="44.35515" lon="2.55239">
        <ele>533.2</ele>
        <time>2011-05-18T16:06:41Z</time>
      </trkpt>
      <trkpt lat="44.3552" lon="2.55234">
        <ele>533.6</ele>
        <time>2011-05-18T16:06:42Z</time>
      </trkpt>
      <trkpt lat="44.35524" lon="2.55229">
        <ele>534</ele>
        <time>2011-05-18T16:06:43Z</time>
      </trkpt>
      <trkpt lat="44.35529" lon="2.55224">
        <ele>534.5</ele>
        <time>2011-05-18T16:06:44Z</time>
      </trkpt>
      <trkpt lat="44.35534" lon="2.5522">
        <ele>535</ele>
        <time>2011-05-18T16:06:45Z</time>
      </trkpt>
      <trkpt lat="44.35539" lon="2.55217">
        <ele>535.9</ele>
        <time>2011-05-18T16:06:46Z</time>
      </trkpt>
      <trkpt lat="44.35543" lon="2.55215">
        <ele>536.5</ele>
        <time>2011-05-18T16:06:47Z</time>
      </trkpt>
      <trkpt lat="44.35546" lon="2.55211">
        <ele>536.5</ele>
        <time>2011-05-18T16:06:48Z</time>
      </trkpt>
      <trkpt lat="44.35548" lon="2.55208">
        <ele>536.4</ele>
        <time>2011-05-18T16:06:49Z</time>
      </trkpt>
      <trkpt lat="44.35552" lon="2.55206">
        <ele>536.7</ele>
        <time>2011-05-18T16:06:50Z</time>
      </trkpt>
      <trkpt lat="44.35555" lon="2.55203">
        <ele>537.2</ele>
        <time>2011-05-18T16:06:51Z</time>
      </trkpt>
      <trkpt lat="44.35559" lon="2.552">
        <ele>537.7</ele>
        <time>2011-05-18T16:06:52Z</time>
      </trkpt>
      <trkpt lat="44.35564" lon="2.55196">
        <ele>538</ele>
        <time>2011-05-18T16:06:53Z</time>
      </trkpt>
      <trkpt lat="44.35568" lon="2.55193">
        <ele>538.3</ele>
        <time>2011-05-18T16:06:54Z</time>
      </trkpt>
      <trkpt lat="44.35572" lon="2.55188">
        <ele>538.6</ele>
        <time>2011-05-18T16:06:55Z</time>
      </trkpt>
      <trkpt lat="44.35577" lon="2.55183">
        <ele>538.7</ele>
        <time>2011-05-18T16:06:56Z</time>
      </trkpt>
      <trkpt lat="44.35582" lon="2.55179">
        <ele>539</ele>
        <time>2011-05-18T16:06:57Z</time>
      </trkpt>
      <trkpt lat="44.35586" lon="2.55175">
        <ele>539.2</ele>
        <time>2011-05-18T16:06:58Z</time>
      </trkpt>
      <trkpt lat="44.35591" lon="2.5517">
        <ele>539.4</ele>
        <time>2011-05-18T16:06:59Z</time>
      </trkpt>
      <trkpt lat="44.35595" lon="2.55165">
        <ele>539.5</ele>
        <time>2011-05-18T16:07:00Z</time>
      </trkpt>
      <trkpt lat="44.356" lon="2.55159">
        <ele>539.9</ele>
        <time>2011-05-18T16:07:01Z</time>
      </trkpt>
      <trkpt lat="44.35604" lon="2.55154">
        <ele>540.1</ele>
        <time>2011-05-18T16:07:02Z</time>
      </trkpt>
      <trkpt lat="44.35609" lon="2.55149">
        <ele>540.5</ele>
        <time>2011-05-18T16:07:03Z</time>
      </trkpt>
      <trkpt lat="44.35613" lon="2.55143">
        <ele>540.8</ele>
        <time>2011-05-18T16:07:04Z</time>
      </trkpt>
      <trkpt lat="44.35617" lon="2.55138">
        <ele>540.9</ele>
        <time>2011-05-18T16:07:05Z</time>
      </trkpt>
      <trkpt lat="44.3562" lon="2.55132">
        <ele>541.2</ele>
        <time>2011-05-18T16:07:06Z</time>
      </trkpt>
      <trkpt lat="44.35624" lon="2.55127">
        <ele>541.4</ele>
        <time>2011-05-18T16:07:07Z</time>
      </trkpt>
      <trkpt lat="44.35627" lon="2.55121">
        <ele>541.6</ele>
        <time>2011-05-18T16:07:08Z</time>
      </trkpt>
      <trkpt lat="44.35631" lon="2.55116">
        <ele>541.7</ele>
        <time>2011-05-18T16:07:09Z</time>
      </trkpt>
      <trkpt lat="44.35634" lon="2.5511">
        <ele>542.1</ele>
        <time>2011-05-18T16:07:10Z</time>
      </trkpt>
      <trkpt lat="44.35638" lon="2.55103">
        <ele>542.3</ele>
        <time>2011-05-18T16:07:11Z</time>
      </trkpt>
      <trkpt lat="44.35642" lon="2.55097">
        <ele>542.6</ele>
        <time>2011-05-18T16:07:12Z</time>
      </trkpt>
      <trkpt lat="44.35645" lon="2.55091">
        <ele>543</ele>
        <time>2011-05-18T16:07:13Z</time>
      </trkpt>
      <trkpt lat="44.35649" lon="2.55084">
        <ele>543.3</ele>
        <time>2011-05-18T16:07:14Z</time>
      </trkpt>
      <trkpt lat="44.35653" lon="2.55077">
        <ele>543.5</ele>
        <time>2011-05-18T16:07:15Z</time>
      </trkpt>
      <trkpt lat="44.35656" lon="2.5507">
        <ele>543.5</ele>
        <time>2011-05-18T16:07:16Z</time>
      </trkpt>
      <trkpt lat="44.3566" lon="2.55064">
        <ele>543.7</ele>
        <time>2011-05-18T16:07:17Z</time>
      </trkpt>
      <trkpt lat="44.35664" lon="2.55057">
        <ele>543.5</ele>
        <time>2011-05-18T16:07:18Z</time>
      </trkpt>
      <trkpt lat="44.35668" lon="2.5505">
        <ele>543.7</ele>
        <time>2011-05-18T16:07:19Z</time>
      </trkpt>
      <trkpt lat="44.35671" lon="2.55044">
        <ele>543.9</ele>
        <time>2011-05-18T16:07:20Z</time>
      </trkpt>
      <trkpt lat="44.35675" lon="2.55037">
        <ele>544.1</ele>
        <time>2011-05-18T16:07:21Z</time>
      </trkpt>
      <trkpt lat="44.35678" lon="2.55031">
        <ele>544.4</ele>
        <time>2011-05-18T16:07:22Z</time>
      </trkpt>
      <trkpt lat="44.35682" lon="2.55024">
        <ele>544.7</ele>
        <time>2011-05-18T16:07:23Z</time>
      </trkpt>
      <trkpt lat="44.35685" lon="2.55017">
        <ele>544.9</ele>
        <time>2011-05-18T16:07:24Z</time>
      </trkpt>
      <trkpt lat="44.35689" lon="2.5501">
        <ele>545.1</ele>
        <time>2011-05-18T16:07:25Z</time>
      </trkpt>
      <trkpt lat="44.35692" lon="2.55003">
        <ele>545.4</ele>
        <time>2011-05-18T16:07:26Z</time>
      </trkpt>
      <trkpt lat="44.35695" lon="2.54996">
        <ele>545.7</ele>
        <time>2011-05-18T16:07:27Z</time>
      </trkpt>
      <trkpt lat="44.35698" lon="2.54989">
        <ele>546</ele>
        <time>2011-05-18T16:07:28Z</time>
      </trkpt>
      <trkpt lat="44.35702" lon="2.54982">
        <ele>546.5</ele>
        <time>2011-05-18T16:07:29Z</time>
      </trkpt>
      <trkpt lat="44.35705" lon="2.54975">
        <ele>546.7</ele>
        <time>2011-05-18T16:07:30Z</time>
      </trkpt>
      <trkpt lat="44.35708" lon="2.54968">
        <ele>547.1</ele>
        <time>2011-05-18T16:07:31Z</time>
      </trkpt>
      <trkpt lat="44.35711" lon="2.54961">
        <ele>547.2</ele>
        <time>2011-05-18T16:07:32Z</time>
      </trkpt>
      <trkpt lat="44.35714" lon="2.54954">
        <ele>547.6</ele>
        <time>2011-05-18T16:07:33Z</time>
      </trkpt>
      <trkpt lat="44.35717" lon="2.54946">
        <ele>547.6</ele>
        <time>2011-05-18T16:07:34Z</time>
      </trkpt>
      <trkpt lat="44.3572" lon="2.54939">
        <ele>547.9</ele>
        <time>2011-05-18T16:07:35Z</time>
      </trkpt>
      <trkpt lat="44.35723" lon="2.54932">
        <ele>547.8</ele>
        <time>2011-05-18T16:07:36Z</time>
      </trkpt>
      <trkpt lat="44.35725" lon="2.54925">
        <ele>547.9</ele>
        <time>2011-05-18T16:07:37Z</time>
      </trkpt>
      <trkpt lat="44.35728" lon="2.54918">
        <ele>548.1</ele>
        <time>2011-05-18T16:07:38Z</time>
      </trkpt>
      <trkpt lat="44.3573" lon="2.54911">
        <ele>547.9</ele>
        <time>2011-05-18T16:07:39Z</time>
      </trkpt>
      <trkpt lat="44.35733" lon="2.54905">
        <ele>547.6</ele>
        <time>2011-05-18T16:07:40Z</time>
      </trkpt>
      <trkpt lat="44.35736" lon="2.54899">
        <ele>547.5</ele>
        <time>2011-05-18T16:07:41Z</time>
      </trkpt>
      <trkpt lat="44.35738" lon="2.54893">
        <ele>547.1</ele>
        <time>2011-05-18T16:07:42Z</time>
      </trkpt>
      <trkpt lat="44.3574" lon="2.54886">
        <ele>546.7</ele>
        <time>2011-05-18T16:07:43Z</time>
      </trkpt>
      <trkpt lat="44.35742" lon="2.54879">
        <ele>546.3</ele>
        <time>2011-05-18T16:07:44Z</time>
      </trkpt>
      <trkpt lat="44.35744" lon="2.54872">
        <ele>545.4</ele>
        <time>2011-05-18T16:07:45Z</time>
      </trkpt>
      <trkpt lat="44.35747" lon="2.54864">
        <ele>544.7</ele>
        <time>2011-05-18T16:07:46Z</time>
      </trkpt>
      <trkpt lat="44.35749" lon="2.54857">
        <ele>544.2</ele>
        <time>2011-05-18T16:07:47Z</time>
      </trkpt>
      <trkpt lat="44.35751" lon="2.5485">
        <ele>543.4</ele>
        <time>2011-05-18T16:07:48Z</time>
      </trkpt>
      <trkpt lat="44.35754" lon="2.54843">
        <ele>542.9</ele>
        <time>2011-05-18T16:07:49Z</time>
      </trkpt>
      <trkpt lat="44.35756" lon="2.54837">
        <ele>542.6</ele>
        <time>2011-05-18T16:07:50Z</time>
      </trkpt>
      <trkpt lat="44.35759" lon="2.54832">
        <ele>542.1</ele>
        <time>2011-05-18T16:07:51Z</time>
      </trkpt>
      <trkpt lat="44.35761" lon="2.54826">
        <ele>541.7</ele>
        <time>2011-05-18T16:07:52Z</time>
      </trkpt>
      <trkpt lat="44.35763" lon="2.54821">
        <ele>541.3</ele>
        <time>2011-05-18T16:07:53Z</time>
      </trkpt>
      <trkpt lat="44.35766" lon="2.54816">
        <ele>541</ele>
        <time>2011-05-18T16:07:54Z</time>
      </trkpt>
      <trkpt lat="44.35768" lon="2.54812">
        <ele>540.9</ele>
        <time>2011-05-18T16:07:55Z</time>
      </trkpt>
      <trkpt lat="44.3577" lon="2.54807">
        <ele>540.6</ele>
        <time>2011-05-18T16:07:56Z</time>
      </trkpt>
      <trkpt lat="44.35773" lon="2.54802">
        <ele>540.5</ele>
        <time>2011-05-18T16:07:57Z</time>
      </trkpt>
      <trkpt lat="44.35775" lon="2.54797">
        <ele>540.2</ele>
        <time>2011-05-18T16:07:58Z</time>
      </trkpt>
      <trkpt lat="44.35778" lon="2.54792">
        <ele>539.8</ele>
        <time>2011-05-18T16:07:59Z</time>
      </trkpt>
      <trkpt lat="44.3578" lon="2.54788">
        <ele>539.4</ele>
        <time>2011-05-18T16:08:00Z</time>
      </trkpt>
      <trkpt lat="44.35782" lon="2.54783">
        <ele>539.3</ele>
        <time>2011-05-18T16:08:01Z</time>
      </trkpt>
      <trkpt lat="44.35785" lon="2.54778">
        <ele>539</ele>
        <time>2011-05-18T16:08:02Z</time>
      </trkpt>
      <trkpt lat="44.35787" lon="2.54772">
        <ele>538.7</ele>
        <time>2011-05-18T16:08:03Z</time>
      </trkpt>
      <trkpt lat="44.3579" lon="2.54767">
        <ele>538.1</ele>
        <time>2011-05-18T16:08:04Z</time>
      </trkpt>
      <trkpt lat="44.35792" lon="2.54761">
        <ele>537.8</ele>
        <time>2011-05-18T16:08:05Z</time>
      </trkpt>
      <trkpt lat="44.35795" lon="2.54756">
        <ele>537.5</ele>
        <time>2011-05-18T16:08:06Z</time>
      </trkpt>
      <trkpt lat="44.35798" lon="2.5475">
        <ele>537.3</ele>
        <time>2011-05-18T16:08:07Z</time>
      </trkpt>
      <trkpt lat="44.358" lon="2.54744">
        <ele>537.6</ele>
        <time>2011-05-18T16:08:08Z</time>
      </trkpt>
      <trkpt lat="44.35803" lon="2.54738">
        <ele>537.9</ele>
        <time>2011-05-18T16:08:09Z</time>
      </trkpt>
      <trkpt lat="44.35806" lon="2.54733">
        <ele>538.2</ele>
        <time>2011-05-18T16:08:10Z</time>
      </trkpt>
      <trkpt lat="44.35809" lon="2.54727">
        <ele>538.6</ele>
        <time>2011-05-18T16:08:11Z</time>
      </trkpt>
      <trkpt lat="44.35811" lon="2.54721">
        <ele>538.8</ele>
        <time>2011-05-18T16:08:12Z</time>
      </trkpt>
      <trkpt lat="44.35814" lon="2.54716">
        <ele>539.3</ele>
        <time>2011-05-18T16:08:13Z</time>
      </trkpt>
      <trkpt lat="44.35817" lon="2.5471">
        <ele>539.6</ele>
        <time>2011-05-18T16:08:14Z</time>
      </trkpt>
      <trkpt lat="44.35819" lon="2.54704">
        <ele>540</ele>
        <time>2011-05-18T16:08:15Z</time>
      </trkpt>
      <trkpt lat="44.35822" lon="2.54698">
        <ele>540.1</ele>
        <time>2011-05-18T16:08:16Z</time>
      </trkpt>
      <trkpt lat="44.35824" lon="2.54692">
        <ele>540.3</ele>
        <time>2011-05-18T16:08:17Z</time>
      </trkpt>
      <trkpt lat="44.35827" lon="2.54687">
        <ele>540.7</ele>
        <time>2011-05-18T16:08:18Z</time>
      </trkpt>
      <trkpt lat="44.35829" lon="2.54681">
        <ele>540.9</ele>
        <time>2011-05-18T16:08:19Z</time>
      </trkpt>
      <trkpt lat="44.35832" lon="2.54675">
        <ele>541.2</ele>
        <time>2011-05-18T16:08:20Z</time>
      </trkpt>
      <trkpt lat="44.35834" lon="2.54669">
        <ele>541.5</ele>
        <time>2011-05-18T16:08:21Z</time>
      </trkpt>
      <trkpt lat="44.35837" lon="2.54664">
        <ele>541.8</ele>
        <time>2011-05-18T16:08:22Z</time>
      </trkpt>
      <trkpt lat="44.35839" lon="2.54658">
        <ele>542.2</ele>
        <time>2011-05-18T16:08:23Z</time>
      </trkpt>
      <trkpt lat="44.35841" lon="2.54652">
        <ele>542.8</ele>
        <time>2011-05-18T16:08:24Z</time>
      </trkpt>
      <trkpt lat="44.35844" lon="2.54645">
        <ele>543.3</ele>
        <time>2011-05-18T16:08:25Z</time>
      </trkpt>
      <trkpt lat="44.35846" lon="2.54639">
        <ele>543.9</ele>
        <time>2011-05-18T16:08:26Z</time>
      </trkpt>
      <trkpt lat="44.35848" lon="2.54632">
        <ele>544.4</ele>
        <time>2011-05-18T16:08:27Z</time>
      </trkpt>
      <trkpt lat="44.3585" lon="2.54625">
        <ele>545</ele>
        <time>2011-05-18T16:08:28Z</time>
      </trkpt>
      <trkpt lat="44.35851" lon="2.54618">
        <ele>545.5</ele>
        <time>2011-05-18T16:08:29Z</time>
      </trkpt>
      <trkpt lat="44.35853" lon="2.54612">
        <ele>546</ele>
        <time>2011-05-18T16:08:30Z</time>
      </trkpt>
      <trkpt lat="44.35855" lon="2.54605">
        <ele>546.7</ele>
        <time>2011-05-18T16:08:31Z</time>
      </trkpt>
      <trkpt lat="44.35856" lon="2.54598">
        <ele>547.2</ele>
        <time>2011-05-18T16:08:32Z</time>
      </trkpt>
      <trkpt lat="44.35858" lon="2.54592">
        <ele>547.7</ele>
        <time>2011-05-18T16:08:33Z</time>
      </trkpt>
      <trkpt lat="44.35859" lon="2.54585">
        <ele>548.4</ele>
        <time>2011-05-18T16:08:34Z</time>
      </trkpt>
      <trkpt lat="44.35861" lon="2.54578">
        <ele>548.7</ele>
        <time>2011-05-18T16:08:35Z</time>
      </trkpt>
      <trkpt lat="44.35862" lon="2.54571">
        <ele>549</ele>
        <time>2011-05-18T16:08:36Z</time>
      </trkpt>
      <trkpt lat="44.35863" lon="2.54563">
        <ele>549.3</ele>
        <time>2011-05-18T16:08:37Z</time>
      </trkpt>
      <trkpt lat="44.35864" lon="2.54556">
        <ele>549.4</ele>
        <time>2011-05-18T16:08:38Z</time>
      </trkpt>
      <trkpt lat="44.35864" lon="2.54548">
        <ele>549.5</ele>
        <time>2011-05-18T16:08:39Z</time>
      </trkpt>
      <trkpt lat="44.35865" lon="2.5454">
        <ele>549.8</ele>
        <time>2011-05-18T16:08:40Z</time>
      </trkpt>
      <trkpt lat="44.35866" lon="2.54532">
        <ele>549.8</ele>
        <time>2011-05-18T16:08:41Z</time>
      </trkpt>
      <trkpt lat="44.35866" lon="2.54525">
        <ele>549.9</ele>
        <time>2011-05-18T16:08:42Z</time>
      </trkpt>
      <trkpt lat="44.35866" lon="2.54517">
        <ele>549.7</ele>
        <time>2011-05-18T16:08:43Z</time>
      </trkpt>
      <trkpt lat="44.35866" lon="2.5451">
        <ele>549.6</ele>
        <time>2011-05-18T16:08:44Z</time>
      </trkpt>
      <trkpt lat="44.35866" lon="2.54502">
        <ele>549.5</ele>
        <time>2011-05-18T16:08:45Z</time>
      </trkpt>
      <trkpt lat="44.35866" lon="2.54495">
        <ele>549.4</ele>
        <time>2011-05-18T16:08:46Z</time>
      </trkpt>
      <trkpt lat="44.35865" lon="2.54488">
        <ele>549.6</ele>
        <time>2011-05-18T16:08:47Z</time>
      </trkpt>
      <trkpt lat="44.35865" lon="2.5448">
        <ele>549.8</ele>
        <time>2011-05-18T16:08:48Z</time>
      </trkpt>
      <trkpt lat="44.35864" lon="2.54473">
        <ele>549.8</ele>
        <time>2011-05-18T16:08:49Z</time>
      </trkpt>
      <trkpt lat="44.35864" lon="2.54466">
        <ele>549.9</ele>
        <time>2011-05-18T16:08:50Z</time>
      </trkpt>
      <trkpt lat="44.35863" lon="2.5446">
        <ele>549.9</ele>
        <time>2011-05-18T16:08:51Z</time>
      </trkpt>
      <trkpt lat="44.35862" lon="2.54453">
        <ele>549.8</ele>
        <time>2011-05-18T16:08:52Z</time>
      </trkpt>
      <trkpt lat="44.35862" lon="2.54446">
        <ele>550.1</ele>
        <time>2011-05-18T16:08:53Z</time>
      </trkpt>
      <trkpt lat="44.35863" lon="2.54439">
        <ele>550.6</ele>
        <time>2011-05-18T16:08:54Z</time>
      </trkpt>
      <trkpt lat="44.35863" lon="2.54431">
        <ele>551</ele>
        <time>2011-05-18T16:08:55Z</time>
      </trkpt>
      <trkpt lat="44.35862" lon="2.54422">
        <ele>551.1</ele>
        <time>2011-05-18T16:08:56Z</time>
      </trkpt>
      <trkpt lat="44.35861" lon="2.54414">
        <ele>551.1</ele>
        <time>2011-05-18T16:08:57Z</time>
      </trkpt>
      <trkpt lat="44.35859" lon="2.54406">
        <ele>551</ele>
        <time>2011-05-18T16:08:58Z</time>
      </trkpt>
      <trkpt lat="44.35858" lon="2.54399">
        <ele>550.9</ele>
        <time>2011-05-18T16:08:59Z</time>
      </trkpt>
      <trkpt lat="44.35856" lon="2.54391">
        <ele>550.8</ele>
        <time>2011-05-18T16:09:00Z</time>
      </trkpt>
      <trkpt lat="44.35854" lon="2.54383">
        <ele>550.8</ele>
        <time>2011-05-18T16:09:01Z</time>
      </trkpt>
      <trkpt lat="44.35853" lon="2.54376">
        <ele>550.8</ele>
        <time>2011-05-18T16:09:02Z</time>
      </trkpt>
      <trkpt lat="44.35851" lon="2.54368">
        <ele>550.9</ele>
        <time>2011-05-18T16:09:03Z</time>
      </trkpt>
      <trkpt lat="44.3585" lon="2.5436">
        <ele>551</ele>
        <time>2011-05-18T16:09:04Z</time>
      </trkpt>
      <trkpt lat="44.35848" lon="2.54352">
        <ele>551.1</ele>
        <time>2011-05-18T16:09:05Z</time>
      </trkpt>
      <trkpt lat="44.35846" lon="2.54344">
        <ele>551.1</ele>
        <time>2011-05-18T16:09:06Z</time>
      </trkpt>
      <trkpt lat="44.35844" lon="2.54336">
        <ele>551.1</ele>
        <time>2011-05-18T16:09:07Z</time>
      </trkpt>
      <trkpt lat="44.35842" lon="2.54328">
        <ele>550.9</ele>
        <time>2011-05-18T16:09:08Z</time>
      </trkpt>
      <trkpt lat="44.3584" lon="2.54321">
        <ele>550.5</ele>
        <time>2011-05-18T16:09:09Z</time>
      </trkpt>
      <trkpt lat="44.35838" lon="2.54313">
        <ele>550.2</ele>
        <time>2011-05-18T16:09:10Z</time>
      </trkpt>
      <trkpt lat="44.35836" lon="2.54305">
        <ele>549.8</ele>
        <time>2011-05-18T16:09:11Z</time>
      </trkpt>
      <trkpt lat="44.35834" lon="2.54297">
        <ele>549.5</ele>
        <time>2011-05-18T16:09:12Z</time>
      </trkpt>
      <trkpt lat="44.35831" lon="2.54289">
        <ele>548.9</ele>
        <time>2011-05-18T16:09:13Z</time>
      </trkpt>
      <trkpt lat="44.35829" lon="2.54281">
        <ele>548.3</ele>
        <time>2011-05-18T16:09:14Z</time>
      </trkpt>
      <trkpt lat="44.35826" lon="2.54274">
        <ele>547.4</ele>
        <time>2011-05-18T16:09:15Z</time>
      </trkpt>
      <trkpt lat="44.35823" lon="2.54267">
        <ele>546.2</ele>
        <time>2011-05-18T16:09:16Z</time>
      </trkpt>
      <trkpt lat="44.3582" lon="2.5426">
        <ele>545.4</ele>
        <time>2011-05-18T16:09:17Z</time>
      </trkpt>
      <trkpt lat="44.35819" lon="2.54252">
        <ele>544.9</ele>
        <time>2011-05-18T16:09:18Z</time>
      </trkpt>
      <trkpt lat="44.35817" lon="2.54245">
        <ele>543.9</ele>
        <time>2011-05-18T16:09:19Z</time>
      </trkpt>
      <trkpt lat="44.35815" lon="2.54238">
        <ele>542.8</ele>
        <time>2011-05-18T16:09:20Z</time>
      </trkpt>
      <trkpt lat="44.35813" lon="2.54232">
        <ele>541.6</ele>
        <time>2011-05-18T16:09:21Z</time>
      </trkpt>
      <trkpt lat="44.3581" lon="2.54225">
        <ele>540.6</ele>
        <time>2011-05-18T16:09:22Z</time>
      </trkpt>
      <trkpt lat="44.35809" lon="2.54218">
        <ele>539.6</ele>
        <time>2011-05-18T16:09:23Z</time>
      </trkpt>
      <trkpt lat="44.35807" lon="2.54211">
        <ele>538.6</ele>
        <time>2011-05-18T16:09:24Z</time>
      </trkpt>
      <trkpt lat="44.35805" lon="2.54205">
        <ele>537.8</ele>
        <time>2011-05-18T16:09:25Z</time>
      </trkpt>
      <trkpt lat="44.35803" lon="2.54198">
        <ele>537</ele>
        <time>2011-05-18T16:09:26Z</time>
      </trkpt>
      <trkpt lat="44.35802" lon="2.54192">
        <ele>536.2</ele>
        <time>2011-05-18T16:09:27Z</time>
      </trkpt>
      <trkpt lat="44.358" lon="2.54185">
        <ele>535.6</ele>
        <time>2011-05-18T16:09:28Z</time>
      </trkpt>
      <trkpt lat="44.358" lon="2.54179">
        <ele>535.1</ele>
        <time>2011-05-18T16:09:29Z</time>
      </trkpt>
      <trkpt lat="44.35799" lon="2.54172">
        <ele>534.7</ele>
        <time>2011-05-18T16:09:30Z</time>
      </trkpt>
      <trkpt lat="44.35799" lon="2.54166">
        <ele>534.4</ele>
        <time>2011-05-18T16:09:31Z</time>
      </trkpt>
      <trkpt lat="44.35799" lon="2.54159">
        <ele>533.9</ele>
        <time>2011-05-18T16:09:32Z</time>
      </trkpt>
      <trkpt lat="44.35799" lon="2.54151">
        <ele>533.2</ele>
        <time>2011-05-18T16:09:33Z</time>
      </trkpt>
      <trkpt lat="44.35798" lon="2.54143">
        <ele>532.6</ele>
        <time>2011-05-18T16:09:34Z</time>
      </trkpt>
      <trkpt lat="44.35796" lon="2.54136">
        <ele>531.8</ele>
        <time>2011-05-18T16:09:35Z</time>
      </trkpt>
      <trkpt lat="44.35794" lon="2.54129">
        <ele>531</ele>
        <time>2011-05-18T16:09:36Z</time>
      </trkpt>
      <trkpt lat="44.35791" lon="2.54123">
        <ele>530.3</ele>
        <time>2011-05-18T16:09:37Z</time>
      </trkpt>
      <trkpt lat="44.35788" lon="2.54117">
        <ele>529.7</ele>
        <time>2011-05-18T16:09:38Z</time>
      </trkpt>
      <trkpt lat="44.35786" lon="2.54112">
        <ele>529.2</ele>
        <time>2011-05-18T16:09:39Z</time>
      </trkpt>
      <trkpt lat="44.35783" lon="2.54107">
        <ele>528.8</ele>
        <time>2011-05-18T16:09:40Z</time>
      </trkpt>
      <trkpt lat="44.3578" lon="2.54102">
        <ele>528.4</ele>
        <time>2011-05-18T16:09:41Z</time>
      </trkpt>
      <trkpt lat="44.35777" lon="2.54098">
        <ele>528.1</ele>
        <time>2011-05-18T16:09:42Z</time>
      </trkpt>
      <trkpt lat="44.35775" lon="2.54093">
        <ele>527.9</ele>
        <time>2011-05-18T16:09:43Z</time>
      </trkpt>
      <trkpt lat="44.35772" lon="2.54089">
        <ele>527.8</ele>
        <time>2011-05-18T16:09:44Z</time>
      </trkpt>
      <trkpt lat="44.35769" lon="2.54084">
        <ele>527.7</ele>
        <time>2011-05-18T16:09:45Z</time>
      </trkpt>
      <trkpt lat="44.35766" lon="2.5408">
        <ele>528.4</ele>
        <time>2011-05-18T16:09:46Z</time>
      </trkpt>
      <trkpt lat="44.35763" lon="2.54075">
        <ele>529.5</ele>
        <time>2011-05-18T16:09:47Z</time>
      </trkpt>
      <trkpt lat="44.3576" lon="2.54071">
        <ele>530.3</ele>
        <time>2011-05-18T16:09:48Z</time>
      </trkpt>
      <trkpt lat="44.35758" lon="2.54066">
        <ele>531.4</ele>
        <time>2011-05-18T16:09:49Z</time>
      </trkpt>
      <trkpt lat="44.35756" lon="2.54062">
        <ele>532.3</ele>
        <time>2011-05-18T16:09:50Z</time>
      </trkpt>
      <trkpt lat="44.35753" lon="2.54057">
        <ele>533.2</ele>
        <time>2011-05-18T16:09:51Z</time>
      </trkpt>
      <trkpt lat="44.35751" lon="2.54053">
        <ele>534.5</ele>
        <time>2011-05-18T16:09:52Z</time>
      </trkpt>
      <trkpt lat="44.35748" lon="2.54048">
        <ele>535.2</ele>
        <time>2011-05-18T16:09:53Z</time>
      </trkpt>
      <trkpt lat="44.35746" lon="2.54044">
        <ele>536.1</ele>
        <time>2011-05-18T16:09:54Z</time>
      </trkpt>
      <trkpt lat="44.35743" lon="2.5404">
        <ele>536.6</ele>
        <time>2011-05-18T16:09:55Z</time>
      </trkpt>
      <trkpt lat="44.3574" lon="2.54035">
        <ele>537.2</ele>
        <time>2011-05-18T16:09:56Z</time>
      </trkpt>
      <trkpt lat="44.35738" lon="2.54031">
        <ele>537.7</ele>
        <time>2011-05-18T16:09:57Z</time>
      </trkpt>
      <trkpt lat="44.35735" lon="2.54027">
        <ele>538.6</ele>
        <time>2011-05-18T16:09:58Z</time>
      </trkpt>
      <trkpt lat="44.35732" lon="2.54023">
        <ele>539</ele>
        <time>2011-05-18T16:09:59Z</time>
      </trkpt>
      <trkpt lat="44.3573" lon="2.54019">
        <ele>539.5</ele>
        <time>2011-05-18T16:10:00Z</time>
      </trkpt>
      <trkpt lat="44.35728" lon="2.54014">
        <ele>540.3</ele>
        <time>2011-05-18T16:10:01Z</time>
      </trkpt>
      <trkpt lat="44.35725" lon="2.5401">
        <ele>540.8</ele>
        <time>2011-05-18T16:10:02Z</time>
      </trkpt>
      <trkpt lat="44.35722" lon="2.54005">
        <ele>541.5</ele>
        <time>2011-05-18T16:10:03Z</time>
      </trkpt>
      <trkpt lat="44.35719" lon="2.54001">
        <ele>541.9</ele>
        <time>2011-05-18T16:10:04Z</time>
      </trkpt>
      <trkpt lat="44.35716" lon="2.53996">
        <ele>542</ele>
        <time>2011-05-18T16:10:05Z</time>
      </trkpt>
      <trkpt lat="44.35714" lon="2.53992">
        <ele>542.3</ele>
        <time>2011-05-18T16:10:06Z</time>
      </trkpt>
      <trkpt lat="44.35711" lon="2.53987">
        <ele>542.5</ele>
        <time>2011-05-18T16:10:07Z</time>
      </trkpt>
      <trkpt lat="44.35708" lon="2.53982">
        <ele>542.9</ele>
        <time>2011-05-18T16:10:08Z</time>
      </trkpt>
      <trkpt lat="44.35705" lon="2.53977">
        <ele>543.3</ele>
        <time>2011-05-18T16:10:09Z</time>
      </trkpt>
      <trkpt lat="44.35703" lon="2.53972">
        <ele>543.7</ele>
        <time>2011-05-18T16:10:10Z</time>
      </trkpt>
      <trkpt lat="44.357" lon="2.53968">
        <ele>543.9</ele>
        <time>2011-05-18T16:10:11Z</time>
      </trkpt>
      <trkpt lat="44.35697" lon="2.53963">
        <ele>544.3</ele>
        <time>2011-05-18T16:10:12Z</time>
      </trkpt>
      <trkpt lat="44.35695" lon="2.53957">
        <ele>544.7</ele>
        <time>2011-05-18T16:10:13Z</time>
      </trkpt>
      <trkpt lat="44.35693" lon="2.53952">
        <ele>545.3</ele>
        <time>2011-05-18T16:10:14Z</time>
      </trkpt>
      <trkpt lat="44.3569" lon="2.53947">
        <ele>545.7</ele>
        <time>2011-05-18T16:10:15Z</time>
      </trkpt>
      <trkpt lat="44.35687" lon="2.53941">
        <ele>546.1</ele>
        <time>2011-05-18T16:10:16Z</time>
      </trkpt>
      <trkpt lat="44.35684" lon="2.53936">
        <ele>546.7</ele>
        <time>2011-05-18T16:10:17Z</time>
      </trkpt>
      <trkpt lat="44.35681" lon="2.5393">
        <ele>547.1</ele>
        <time>2011-05-18T16:10:18Z</time>
      </trkpt>
      <trkpt lat="44.35678" lon="2.53925">
        <ele>547.4</ele>
        <time>2011-05-18T16:10:19Z</time>
      </trkpt>
      <trkpt lat="44.35674" lon="2.5392">
        <ele>547.7</ele>
        <time>2011-05-18T16:10:20Z</time>
      </trkpt>
      <trkpt lat="44.3567" lon="2.53915">
        <ele>547.8</ele>
        <time>2011-05-18T16:10:21Z</time>
      </trkpt>
      <trkpt lat="44.35667" lon="2.53911">
        <ele>548.3</ele>
        <time>2011-05-18T16:10:22Z</time>
      </trkpt>
      <trkpt lat="44.35664" lon="2.53906">
        <ele>548.3</ele>
        <time>2011-05-18T16:10:23Z</time>
      </trkpt>
      <trkpt lat="44.3566" lon="2.53902">
        <ele>548</ele>
        <time>2011-05-18T16:10:24Z</time>
      </trkpt>
      <trkpt lat="44.35656" lon="2.53899">
        <ele>547.4</ele>
        <time>2011-05-18T16:10:25Z</time>
      </trkpt>
      <trkpt lat="44.35653" lon="2.53895">
        <ele>547.1</ele>
        <time>2011-05-18T16:10:26Z</time>
      </trkpt>
      <trkpt lat="44.35649" lon="2.53891">
        <ele>546.7</ele>
        <time>2011-05-18T16:10:27Z</time>
      </trkpt>
      <trkpt lat="44.35645" lon="2.53887">
        <ele>546.3</ele>
        <time>2011-05-18T16:10:28Z</time>
      </trkpt>
      <trkpt lat="44.3564" lon="2.53883">
        <ele>545.7</ele>
        <time>2011-05-18T16:10:29Z</time>
      </trkpt>
      <trkpt lat="44.35636" lon="2.53879">
        <ele>545.1</ele>
        <time>2011-05-18T16:10:30Z</time>
      </trkpt>
      <trkpt lat="44.35632" lon="2.53875">
        <ele>544.6</ele>
        <time>2011-05-18T16:10:31Z</time>
      </trkpt>
      <trkpt lat="44.35627" lon="2.53871">
        <ele>544.1</ele>
        <time>2011-05-18T16:10:32Z</time>
      </trkpt>
      <trkpt lat="44.35623" lon="2.53867">
        <ele>543.5</ele>
        <time>2011-05-18T16:10:33Z</time>
      </trkpt>
      <trkpt lat="44.35618" lon="2.53864">
        <ele>542.8</ele>
        <time>2011-05-18T16:10:34Z</time>
      </trkpt>
      <trkpt lat="44.35614" lon="2.5386">
        <ele>542.3</ele>
        <time>2011-05-18T16:10:35Z</time>
      </trkpt>
      <trkpt lat="44.35609" lon="2.53855">
        <ele>541.7</ele>
        <time>2011-05-18T16:10:36Z</time>
      </trkpt>
      <trkpt lat="44.35606" lon="2.53851">
        <ele>541.5</ele>
        <time>2011-05-18T16:10:37Z</time>
      </trkpt>
      <trkpt lat="44.35601" lon="2.53847">
        <ele>540.9</ele>
        <time>2011-05-18T16:10:38Z</time>
      </trkpt>
      <trkpt lat="44.35597" lon="2.53843">
        <ele>540.4</ele>
        <time>2011-05-18T16:10:39Z</time>
      </trkpt>
      <trkpt lat="44.35593" lon="2.53839">
        <ele>539.8</ele>
        <time>2011-05-18T16:10:40Z</time>
      </trkpt>
      <trkpt lat="44.35588" lon="2.53834">
        <ele>539.5</ele>
        <time>2011-05-18T16:10:41Z</time>
      </trkpt>
      <trkpt lat="44.35584" lon="2.5383">
        <ele>539.1</ele>
        <time>2011-05-18T16:10:42Z</time>
      </trkpt>
      <trkpt lat="44.3558" lon="2.53826">
        <ele>539.2</ele>
        <time>2011-05-18T16:10:43Z</time>
      </trkpt>
      <trkpt lat="44.35575" lon="2.53822">
        <ele>539.1</ele>
        <time>2011-05-18T16:10:44Z</time>
      </trkpt>
      <trkpt lat="44.35571" lon="2.53818">
        <ele>539.2</ele>
        <time>2011-05-18T16:10:45Z</time>
      </trkpt>
      <trkpt lat="44.35566" lon="2.53814">
        <ele>539.3</ele>
        <time>2011-05-18T16:10:46Z</time>
      </trkpt>
      <trkpt lat="44.35562" lon="2.5381">
        <ele>539.4</ele>
        <time>2011-05-18T16:10:47Z</time>
      </trkpt>
      <trkpt lat="44.35557" lon="2.53807">
        <ele>539.5</ele>
        <time>2011-05-18T16:10:48Z</time>
      </trkpt>
      <trkpt lat="44.35553" lon="2.53803">
        <ele>539.4</ele>
        <time>2011-05-18T16:10:49Z</time>
      </trkpt>
      <trkpt lat="44.35548" lon="2.538">
        <ele>539.6</ele>
        <time>2011-05-18T16:10:50Z</time>
      </trkpt>
      <trkpt lat="44.35543" lon="2.53797">
        <ele>539.4</ele>
        <time>2011-05-18T16:10:51Z</time>
      </trkpt>
      <trkpt lat="44.35538" lon="2.53795">
        <ele>539.2</ele>
        <time>2011-05-18T16:10:52Z</time>
      </trkpt>
      <trkpt lat="44.35532" lon="2.53792">
        <ele>539.1</ele>
        <time>2011-05-18T16:10:53Z</time>
      </trkpt>
      <trkpt lat="44.35527" lon="2.53789">
        <ele>539.1</ele>
        <time>2011-05-18T16:10:54Z</time>
      </trkpt>
      <trkpt lat="44.35523" lon="2.53787">
        <ele>539.1</ele>
        <time>2011-05-18T16:10:55Z</time>
      </trkpt>
      <trkpt lat="44.35518" lon="2.53786">
        <ele>538.8</ele>
        <time>2011-05-18T16:10:56Z</time>
      </trkpt>
      <trkpt lat="44.35513" lon="2.53784">
        <ele>538.4</ele>
        <time>2011-05-18T16:10:57Z</time>
      </trkpt>
      <trkpt lat="44.35509" lon="2.53783">
        <ele>538.1</ele>
        <time>2011-05-18T16:10:58Z</time>
      </trkpt>
      <trkpt lat="44.35504" lon="2.53782">
        <ele>537.8</ele>
        <time>2011-05-18T16:10:59Z</time>
      </trkpt>
      <trkpt lat="44.355" lon="2.53781">
        <ele>537.6</ele>
        <time>2011-05-18T16:11:00Z</time>
      </trkpt>
      <trkpt lat="44.35495" lon="2.5378">
        <ele>537.7</ele>
        <time>2011-05-18T16:11:01Z</time>
      </trkpt>
      <trkpt lat="44.35491" lon="2.53779">
        <ele>537.3</ele>
        <time>2011-05-18T16:11:02Z</time>
      </trkpt>
      <trkpt lat="44.35486" lon="2.53779">
        <ele>536.9</ele>
        <time>2011-05-18T16:11:03Z</time>
      </trkpt>
      <trkpt lat="44.35481" lon="2.53778">
        <ele>537</ele>
        <time>2011-05-18T16:11:04Z</time>
      </trkpt>
      <trkpt lat="44.35477" lon="2.53778">
        <ele>536.6</ele>
        <time>2011-05-18T16:11:05Z</time>
      </trkpt>
      <trkpt lat="44.35472" lon="2.53778">
        <ele>536.3</ele>
        <time>2011-05-18T16:11:06Z</time>
      </trkpt>
      <trkpt lat="44.35468" lon="2.53778">
        <ele>535.9</ele>
        <time>2011-05-18T16:11:07Z</time>
      </trkpt>
      <trkpt lat="44.35464" lon="2.53778">
        <ele>535.6</ele>
        <time>2011-05-18T16:11:08Z</time>
      </trkpt>
      <trkpt lat="44.35459" lon="2.5378">
        <ele>534.8</ele>
        <time>2011-05-18T16:11:09Z</time>
      </trkpt>
      <trkpt lat="44.35455" lon="2.53781">
        <ele>534.1</ele>
        <time>2011-05-18T16:11:10Z</time>
      </trkpt>
      <trkpt lat="44.35451" lon="2.53782">
        <ele>533.4</ele>
        <time>2011-05-18T16:11:11Z</time>
      </trkpt>
      <trkpt lat="44.35447" lon="2.53784">
        <ele>532.3</ele>
        <time>2011-05-18T16:11:12Z</time>
      </trkpt>
      <trkpt lat="44.35443" lon="2.53786">
        <ele>531.6</ele>
        <time>2011-05-18T16:11:13Z</time>
      </trkpt>
      <trkpt lat="44.35439" lon="2.53788">
        <ele>530.6</ele>
        <time>2011-05-18T16:11:14Z</time>
      </trkpt>
      <trkpt lat="44.35435" lon="2.53791">
        <ele>529.6</ele>
        <time>2011-05-18T16:11:15Z</time>
      </trkpt>
      <trkpt lat="44.35431" lon="2.53793">
        <ele>528.6</ele>
        <time>2011-05-18T16:11:16Z</time>
      </trkpt>
      <trkpt lat="44.35427" lon="2.53796">
        <ele>527.6</ele>
        <time>2011-05-18T16:11:17Z</time>
      </trkpt>
      <trkpt lat="44.35422" lon="2.53798">
        <ele>526.6</ele>
        <time>2011-05-18T16:11:18Z</time>
      </trkpt>
      <trkpt lat="44.35418" lon="2.53801">
        <ele>525.7</ele>
        <time>2011-05-18T16:11:19Z</time>
      </trkpt>
      <trkpt lat="44.35414" lon="2.53803">
        <ele>525</ele>
        <time>2011-05-18T16:11:20Z</time>
      </trkpt>
      <trkpt lat="44.35409" lon="2.53806">
        <ele>524.4</ele>
        <time>2011-05-18T16:11:21Z</time>
      </trkpt>
      <trkpt lat="44.35405" lon="2.53809">
        <ele>523.8</ele>
        <time>2011-05-18T16:11:22Z</time>
      </trkpt>
      <trkpt lat="44.35401" lon="2.53811">
        <ele>523.2</ele>
        <time>2011-05-18T16:11:23Z</time>
      </trkpt>
      <trkpt lat="44.35396" lon="2.53814">
        <ele>522.6</ele>
        <time>2011-05-18T16:11:24Z</time>
      </trkpt>
      <trkpt lat="44.35392" lon="2.53817">
        <ele>521.9</ele>
        <time>2011-05-18T16:11:25Z</time>
      </trkpt>
      <trkpt lat="44.35388" lon="2.53819">
        <ele>521.3</ele>
        <time>2011-05-18T16:11:26Z</time>
      </trkpt>
      <trkpt lat="44.35384" lon="2.53822">
        <ele>520.7</ele>
        <time>2011-05-18T16:11:27Z</time>
      </trkpt>
      <trkpt lat="44.35379" lon="2.53824">
        <ele>520</ele>
        <time>2011-05-18T16:11:28Z</time>
      </trkpt>
      <trkpt lat="44.35375" lon="2.53828">
        <ele>519.3</ele>
        <time>2011-05-18T16:11:29Z</time>
      </trkpt>
      <trkpt lat="44.35371" lon="2.53831">
        <ele>518.3</ele>
        <time>2011-05-18T16:11:30Z</time>
      </trkpt>
      <trkpt lat="44.35366" lon="2.53833">
        <ele>517.6</ele>
        <time>2011-05-18T16:11:31Z</time>
      </trkpt>
      <trkpt lat="44.35362" lon="2.53836">
        <ele>517.5</ele>
        <time>2011-05-18T16:11:32Z</time>
      </trkpt>
      <trkpt lat="44.35357" lon="2.53839">
        <ele>517.3</ele>
        <time>2011-05-18T16:11:33Z</time>
      </trkpt>
      <trkpt lat="44.35353" lon="2.53842">
        <ele>517.2</ele>
        <time>2011-05-18T16:11:34Z</time>
      </trkpt>
      <trkpt lat="44.35349" lon="2.53845">
        <ele>516.9</ele>
        <time>2011-05-18T16:11:35Z</time>
      </trkpt>
      <trkpt lat="44.35344" lon="2.53848">
        <ele>516.8</ele>
        <time>2011-05-18T16:11:36Z</time>
      </trkpt>
      <trkpt lat="44.3534" lon="2.53851">
        <ele>516.6</ele>
        <time>2011-05-18T16:11:37Z</time>
      </trkpt>
      <trkpt lat="44.35335" lon="2.53854">
        <ele>516.2</ele>
        <time>2011-05-18T16:11:38Z</time>
      </trkpt>
      <trkpt lat="44.35331" lon="2.53857">
        <ele>516.3</ele>
        <time>2011-05-18T16:11:39Z</time>
      </trkpt>
      <trkpt lat="44.35326" lon="2.5386">
        <ele>516.4</ele>
        <time>2011-05-18T16:11:40Z</time>
      </trkpt>
      <trkpt lat="44.35322" lon="2.53862">
        <ele>516.6</ele>
        <time>2011-05-18T16:11:41Z</time>
      </trkpt>
      <trkpt lat="44.35318" lon="2.53865">
        <ele>516.7</ele>
        <time>2011-05-18T16:11:42Z</time>
      </trkpt>
      <trkpt lat="44.35314" lon="2.53868">
        <ele>516.7</ele>
        <time>2011-05-18T16:11:43Z</time>
      </trkpt>
      <trkpt lat="44.35309" lon="2.53871">
        <ele>516.6</ele>
        <time>2011-05-18T16:11:44Z</time>
      </trkpt>
      <trkpt lat="44.35305" lon="2.53875">
        <ele>516.6</ele>
        <time>2011-05-18T16:11:45Z</time>
      </trkpt>
      <trkpt lat="44.353" lon="2.53879">
        <ele>516.3</ele>
        <time>2011-05-18T16:11:46Z</time>
      </trkpt>
      <trkpt lat="44.35296" lon="2.53882">
        <ele>516</ele>
        <time>2011-05-18T16:11:47Z</time>
      </trkpt>
      <trkpt lat="44.35292" lon="2.53886">
        <ele>515.7</ele>
        <time>2011-05-18T16:11:48Z</time>
      </trkpt>
      <trkpt lat="44.35289" lon="2.5389">
        <ele>515.2</ele>
        <time>2011-05-18T16:11:49Z</time>
      </trkpt>
      <trkpt lat="44.35285" lon="2.53894">
        <ele>514.8</ele>
        <time>2011-05-18T16:11:50Z</time>
      </trkpt>
      <trkpt lat="44.35281" lon="2.53898">
        <ele>514</ele>
        <time>2011-05-18T16:11:51Z</time>
      </trkpt>
      <trkpt lat="44.35278" lon="2.53903">
        <ele>513.5</ele>
        <time>2011-05-18T16:11:52Z</time>
      </trkpt>
      <trkpt lat="44.35274" lon="2.53907">
        <ele>512.9</ele>
        <time>2011-05-18T16:11:53Z</time>
      </trkpt>
      <trkpt lat="44.35271" lon="2.53912">
        <ele>512</ele>
        <time>2011-05-18T16:11:54Z</time>
      </trkpt>
      <trkpt lat="44.35267" lon="2.53917">
        <ele>511</ele>
        <time>2011-05-18T16:11:55Z</time>
      </trkpt>
      <trkpt lat="44.35264" lon="2.53922">
        <ele>510.9</ele>
        <time>2011-05-18T16:11:56Z</time>
      </trkpt>
      <trkpt lat="44.3526" lon="2.53928">
        <ele>510.7</ele>
        <time>2011-05-18T16:11:57Z</time>
      </trkpt>
      <trkpt lat="44.35257" lon="2.53933">
        <ele>510.5</ele>
        <time>2011-05-18T16:11:58Z</time>
      </trkpt>
      <trkpt lat="44.35253" lon="2.53938">
        <ele>510.3</ele>
        <time>2011-05-18T16:11:59Z</time>
      </trkpt>
      <trkpt lat="44.3525" lon="2.53944">
        <ele>510.1</ele>
        <time>2011-05-18T16:12:00Z</time>
      </trkpt>
      <trkpt lat="44.35247" lon="2.53949">
        <ele>510.6</ele>
        <time>2011-05-18T16:12:01Z</time>
      </trkpt>
      <trkpt lat="44.35244" lon="2.53954">
        <ele>511</ele>
        <time>2011-05-18T16:12:02Z</time>
      </trkpt>
      <trkpt lat="44.3524" lon="2.53959">
        <ele>511.4</ele>
        <time>2011-05-18T16:12:03Z</time>
      </trkpt>
      <trkpt lat="44.35237" lon="2.53964">
        <ele>511.6</ele>
        <time>2011-05-18T16:12:04Z</time>
      </trkpt>
      <trkpt lat="44.35234" lon="2.5397">
        <ele>511.8</ele>
        <time>2011-05-18T16:12:05Z</time>
      </trkpt>
      <trkpt lat="44.35231" lon="2.53975">
        <ele>511.9</ele>
        <time>2011-05-18T16:12:06Z</time>
      </trkpt>
      <trkpt lat="44.35228" lon="2.53981">
        <ele>511.8</ele>
        <time>2011-05-18T16:12:07Z</time>
      </trkpt>
      <trkpt lat="44.35225" lon="2.53986">
        <ele>511.8</ele>
        <time>2011-05-18T16:12:08Z</time>
      </trkpt>
      <trkpt lat="44.35221" lon="2.53991">
        <ele>511.7</ele>
        <time>2011-05-18T16:12:09Z</time>
      </trkpt>
      <trkpt lat="44.35218" lon="2.53996">
        <ele>511.6</ele>
        <time>2011-05-18T16:12:10Z</time>
      </trkpt>
      <trkpt lat="44.35215" lon="2.54">
        <ele>511.4</ele>
        <time>2011-05-18T16:12:11Z</time>
      </trkpt>
      <trkpt lat="44.35211" lon="2.54005">
        <ele>511.8</ele>
        <time>2011-05-18T16:12:12Z</time>
      </trkpt>
      <trkpt lat="44.35208" lon="2.5401">
        <ele>512</ele>
        <time>2011-05-18T16:12:13Z</time>
      </trkpt>
      <trkpt lat="44.35205" lon="2.54015">
        <ele>512.3</ele>
        <time>2011-05-18T16:12:14Z</time>
      </trkpt>
      <trkpt lat="44.35201" lon="2.54018">
        <ele>512.6</ele>
        <time>2011-05-18T16:12:15Z</time>
      </trkpt>
      <trkpt lat="44.35197" lon="2.54022">
        <ele>512.9</ele>
        <time>2011-05-18T16:12:16Z</time>
      </trkpt>
      <trkpt lat="44.35193" lon="2.54026">
        <ele>513.1</ele>
        <time>2011-05-18T16:12:17Z</time>
      </trkpt>
      <trkpt lat="44.3519" lon="2.5403">
        <ele>513.3</ele>
        <time>2011-05-18T16:12:18Z</time>
      </trkpt>
      <trkpt lat="44.35186" lon="2.54034">
        <ele>513.5</ele>
        <time>2011-05-18T16:12:19Z</time>
      </trkpt>
      <trkpt lat="44.35182" lon="2.54038">
        <ele>513.7</ele>
        <time>2011-05-18T16:12:20Z</time>
      </trkpt>
      <trkpt lat="44.35179" lon="2.54042">
        <ele>513.8</ele>
        <time>2011-05-18T16:12:21Z</time>
      </trkpt>
      <trkpt lat="44.35175" lon="2.54045">
        <ele>513.9</ele>
        <time>2011-05-18T16:12:22Z</time>
      </trkpt>
      <trkpt lat="44.35171" lon="2.54049">
        <ele>514</ele>
        <time>2011-05-18T16:12:23Z</time>
      </trkpt>
      <trkpt lat="44.35167" lon="2.54052">
        <ele>514.1</ele>
        <time>2011-05-18T16:12:24Z</time>
      </trkpt>
      <trkpt lat="44.35163" lon="2.54054">
        <ele>514.6</ele>
        <time>2011-05-18T16:12:25Z</time>
      </trkpt>
      <trkpt lat="44.35159" lon="2.54057">
        <ele>515.2</ele>
        <time>2011-05-18T16:12:26Z</time>
      </trkpt>
      <trkpt lat="44.35156" lon="2.54059">
        <ele>515.7</ele>
        <time>2011-05-18T16:12:27Z</time>
      </trkpt>
      <trkpt lat="44.35152" lon="2.54062">
        <ele>516.1</ele>
        <time>2011-05-18T16:12:28Z</time>
      </trkpt>
      <trkpt lat="44.35148" lon="2.54065">
        <ele>516.6</ele>
        <time>2011-05-18T16:12:29Z</time>
      </trkpt>
      <trkpt lat="44.35144" lon="2.54068">
        <ele>517</ele>
        <time>2011-05-18T16:12:30Z</time>
      </trkpt>
      <trkpt lat="44.35139" lon="2.54071">
        <ele>517.2</ele>
        <time>2011-05-18T16:12:31Z</time>
      </trkpt>
      <trkpt lat="44.35136" lon="2.54074">
        <ele>517.3</ele>
        <time>2011-05-18T16:12:32Z</time>
      </trkpt>
      <trkpt lat="44.35132" lon="2.54078">
        <ele>517.5</ele>
        <time>2011-05-18T16:12:33Z</time>
      </trkpt>
      <trkpt lat="44.35128" lon="2.54082">
        <ele>517.5</ele>
        <time>2011-05-18T16:12:34Z</time>
      </trkpt>
      <trkpt lat="44.35124" lon="2.54085">
        <ele>517.5</ele>
        <time>2011-05-18T16:12:35Z</time>
      </trkpt>
      <trkpt lat="44.3512" lon="2.54088">
        <ele>517.7</ele>
        <time>2011-05-18T16:12:36Z</time>
      </trkpt>
      <trkpt lat="44.35116" lon="2.54091">
        <ele>517.7</ele>
        <time>2011-05-18T16:12:37Z</time>
      </trkpt>
      <trkpt lat="44.35113" lon="2.54095">
        <ele>517.8</ele>
        <time>2011-05-18T16:12:38Z</time>
      </trkpt>
      <trkpt lat="44.35109" lon="2.54098">
        <ele>517.7</ele>
        <time>2011-05-18T16:12:39Z</time>
      </trkpt>
      <trkpt lat="44.35105" lon="2.54101">
        <ele>517.7</ele>
        <time>2011-05-18T16:12:40Z</time>
      </trkpt>
      <trkpt lat="44.35102" lon="2.54104">
        <ele>517.5</ele>
        <time>2011-05-18T16:12:41Z</time>
      </trkpt>
      <trkpt lat="44.35099" lon="2.54107">
        <ele>517.4</ele>
        <time>2011-05-18T16:12:42Z</time>
      </trkpt>
      <trkpt lat="44.35095" lon="2.5411">
        <ele>517.3</ele>
        <time>2011-05-18T16:12:43Z</time>
      </trkpt>
      <trkpt lat="44.35091" lon="2.54113">
        <ele>517.1</ele>
        <time>2011-05-18T16:12:44Z</time>
      </trkpt>
      <trkpt lat="44.35087" lon="2.54116">
        <ele>516.8</ele>
        <time>2011-05-18T16:12:45Z</time>
      </trkpt>
      <trkpt lat="44.35083" lon="2.54118">
        <ele>516.5</ele>
        <time>2011-05-18T16:12:46Z</time>
      </trkpt>
      <trkpt lat="44.35079" lon="2.54121">
        <ele>517.1</ele>
        <time>2011-05-18T16:12:47Z</time>
      </trkpt>
      <trkpt lat="44.35075" lon="2.54124">
        <ele>517.3</ele>
        <time>2011-05-18T16:12:48Z</time>
      </trkpt>
      <trkpt lat="44.35072" lon="2.54127">
        <ele>517.6</ele>
        <time>2011-05-18T16:12:49Z</time>
      </trkpt>
      <trkpt lat="44.35068" lon="2.5413">
        <ele>517.9</ele>
        <time>2011-05-18T16:12:50Z</time>
      </trkpt>
      <trkpt lat="44.35063" lon="2.54133">
        <ele>517.9</ele>
        <time>2011-05-18T16:12:51Z</time>
      </trkpt>
      <trkpt lat="44.35059" lon="2.54136">
        <ele>518.2</ele>
        <time>2011-05-18T16:12:52Z</time>
      </trkpt>
      <trkpt lat="44.35055" lon="2.54139">
        <ele>518.3</ele>
        <time>2011-05-18T16:12:53Z</time>
      </trkpt>
      <trkpt lat="44.3505" lon="2.54142">
        <ele>518.6</ele>
        <time>2011-05-18T16:12:54Z</time>
      </trkpt>
      <trkpt lat="44.35045" lon="2.54145">
        <ele>518.4</ele>
        <time>2011-05-18T16:12:55Z</time>
      </trkpt>
      <trkpt lat="44.3504" lon="2.54148">
        <ele>518.5</ele>
        <time>2011-05-18T16:12:56Z</time>
      </trkpt>
      <trkpt lat="44.35035" lon="2.54151">
        <ele>518.2</ele>
        <time>2011-05-18T16:12:57Z</time>
      </trkpt>
      <trkpt lat="44.35031" lon="2.54154">
        <ele>518.2</ele>
        <time>2011-05-18T16:12:58Z</time>
      </trkpt>
      <trkpt lat="44.35026" lon="2.54156">
        <ele>518.1</ele>
        <time>2011-05-18T16:12:59Z</time>
      </trkpt>
      <trkpt lat="44.35021" lon="2.54159">
        <ele>518</ele>
        <time>2011-05-18T16:13:00Z</time>
      </trkpt>
      <trkpt lat="44.35017" lon="2.54162">
        <ele>517.7</ele>
        <time>2011-05-18T16:13:01Z</time>
      </trkpt>
      <trkpt lat="44.35013" lon="2.54165">
        <ele>517.4</ele>
        <time>2011-05-18T16:13:02Z</time>
      </trkpt>
      <trkpt lat="44.35009" lon="2.54167">
        <ele>517.1</ele>
        <time>2011-05-18T16:13:03Z</time>
      </trkpt>
      <trkpt lat="44.35005" lon="2.5417">
        <ele>517.2</ele>
        <time>2011-05-18T16:13:04Z</time>
      </trkpt>
      <trkpt lat="44.35001" lon="2.54172">
        <ele>517.3</ele>
        <time>2011-05-18T16:13:05Z</time>
      </trkpt>
      <trkpt lat="44.34998" lon="2.54174">
        <ele>517.6</ele>
        <time>2011-05-18T16:13:06Z</time>
      </trkpt>
      <trkpt lat="44.34994" lon="2.54175">
        <ele>517.9</ele>
        <time>2011-05-18T16:13:07Z</time>
      </trkpt>
      <trkpt lat="44.34991" lon="2.54177">
        <ele>518.1</ele>
        <time>2011-05-18T16:13:08Z</time>
      </trkpt>
      <trkpt lat="44.34988" lon="2.54178">
        <ele>518.2</ele>
        <time>2011-05-18T16:13:09Z</time>
      </trkpt>
      <trkpt lat="44.34984" lon="2.5418">
        <ele>518.4</ele>
        <time>2011-05-18T16:13:10Z</time>
      </trkpt>
      <trkpt lat="44.3498" lon="2.54181">
        <ele>518.7</ele>
        <time>2011-05-18T16:13:11Z</time>
      </trkpt>
      <trkpt lat="44.34977" lon="2.54183">
        <ele>518.9</ele>
        <time>2011-05-18T16:13:12Z</time>
      </trkpt>
      <trkpt lat="44.34973" lon="2.54185">
        <ele>518.9</ele>
        <time>2011-05-18T16:13:13Z</time>
      </trkpt>
      <trkpt lat="44.3497" lon="2.54187">
        <ele>519.1</ele>
        <time>2011-05-18T16:13:14Z</time>
      </trkpt>
      <trkpt lat="44.34967" lon="2.54189">
        <ele>519.1</ele>
        <time>2011-05-18T16:13:15Z</time>
      </trkpt>
      <trkpt lat="44.34963" lon="2.54191">
        <ele>519.2</ele>
        <time>2011-05-18T16:13:16Z</time>
      </trkpt>
      <trkpt lat="44.3496" lon="2.54193">
        <ele>519.1</ele>
        <time>2011-05-18T16:13:17Z</time>
      </trkpt>
      <trkpt lat="44.34957" lon="2.54196">
        <ele>519</ele>
        <time>2011-05-18T16:13:18Z</time>
      </trkpt>
      <trkpt lat="44.34954" lon="2.54199">
        <ele>518.6</ele>
        <time>2011-05-18T16:13:19Z</time>
      </trkpt>
      <trkpt lat="44.34951" lon="2.54203">
        <ele>518.5</ele>
        <time>2011-05-18T16:13:20Z</time>
      </trkpt>
      <trkpt lat="44.34948" lon="2.54206">
        <ele>518</ele>
        <time>2011-05-18T16:13:21Z</time>
      </trkpt>
      <trkpt lat="44.34945" lon="2.54209">
        <ele>517.8</ele>
        <time>2011-05-18T16:13:22Z</time>
      </trkpt>
      <trkpt lat="44.34941" lon="2.54212">
        <ele>517.4</ele>
        <time>2011-05-18T16:13:23Z</time>
      </trkpt>
      <trkpt lat="44.34938" lon="2.54216">
        <ele>516.9</ele>
        <time>2011-05-18T16:13:24Z</time>
      </trkpt>
      <trkpt lat="44.34935" lon="2.5422">
        <ele>516.3</ele>
        <time>2011-05-18T16:13:25Z</time>
      </trkpt>
      <trkpt lat="44.34931" lon="2.54224">
        <ele>515.8</ele>
        <time>2011-05-18T16:13:26Z</time>
      </trkpt>
      <trkpt lat="44.34928" lon="2.54229">
        <ele>515.2</ele>
        <time>2011-05-18T16:13:27Z</time>
      </trkpt>
      <trkpt lat="44.34925" lon="2.54233">
        <ele>514.5</ele>
        <time>2011-05-18T16:13:28Z</time>
      </trkpt>
      <trkpt lat="44.34922" lon="2.54237">
        <ele>513.6</ele>
        <time>2011-05-18T16:13:29Z</time>
      </trkpt>
      <trkpt lat="44.34918" lon="2.54242">
        <ele>512.6</ele>
        <time>2011-05-18T16:13:30Z</time>
      </trkpt>
      <trkpt lat="44.34915" lon="2.54247">
        <ele>512.1</ele>
        <time>2011-05-18T16:13:31Z</time>
      </trkpt>
      <trkpt lat="44.34911" lon="2.54252">
        <ele>511.6</ele>
        <time>2011-05-18T16:13:32Z</time>
      </trkpt>
      <trkpt lat="44.34908" lon="2.54258">
        <ele>511.7</ele>
        <time>2011-05-18T16:13:33Z</time>
      </trkpt>
      <trkpt lat="44.34905" lon="2.54265">
        <ele>511.8</ele>
        <time>2011-05-18T16:13:34Z</time>
      </trkpt>
      <trkpt lat="44.34901" lon="2.54271">
        <ele>511.9</ele>
        <time>2011-05-18T16:13:35Z</time>
      </trkpt>
      <trkpt lat="44.34899" lon="2.54277">
        <ele>512</ele>
        <time>2011-05-18T16:13:36Z</time>
      </trkpt>
      <trkpt lat="44.34896" lon="2.54283">
        <ele>512</ele>
        <time>2011-05-18T16:13:37Z</time>
      </trkpt>
      <trkpt lat="44.34893" lon="2.54289">
        <ele>511.9</ele>
        <time>2011-05-18T16:13:38Z</time>
      </trkpt>
      <trkpt lat="44.34891" lon="2.54296">
        <ele>511.7</ele>
        <time>2011-05-18T16:13:39Z</time>
      </trkpt>
      <trkpt lat="44.34889" lon="2.54303">
        <ele>511.6</ele>
        <time>2011-05-18T16:13:40Z</time>
      </trkpt>
      <trkpt lat="44.34888" lon="2.54309">
        <ele>511.4</ele>
        <time>2011-05-18T16:13:41Z</time>
      </trkpt>
      <trkpt lat="44.34886" lon="2.54316">
        <ele>511.2</ele>
        <time>2011-05-18T16:13:42Z</time>
      </trkpt>
      <trkpt lat="44.34885" lon="2.54323">
        <ele>510.9</ele>
        <time>2011-05-18T16:13:43Z</time>
      </trkpt>
      <trkpt lat="44.34884" lon="2.5433">
        <ele>510.6</ele>
        <time>2011-05-18T16:13:44Z</time>
      </trkpt>
      <trkpt lat="44.34882" lon="2.54336">
        <ele>510.4</ele>
        <time>2011-05-18T16:13:45Z</time>
      </trkpt>
      <trkpt lat="44.34881" lon="2.54343">
        <ele>510.5</ele>
        <time>2011-05-18T16:13:46Z</time>
      </trkpt>
      <trkpt lat="44.34879" lon="2.54349">
        <ele>510.4</ele>
        <time>2011-05-18T16:13:47Z</time>
      </trkpt>
      <trkpt lat="44.34876" lon="2.54355">
        <ele>510.5</ele>
        <time>2011-05-18T16:13:48Z</time>
      </trkpt>
      <trkpt lat="44.34872" lon="2.54361">
        <ele>510.4</ele>
        <time>2011-05-18T16:13:49Z</time>
      </trkpt>
      <trkpt lat="44.34867" lon="2.54366">
        <ele>510.4</ele>
        <time>2011-05-18T16:13:50Z</time>
      </trkpt>
      <trkpt lat="44.34862" lon="2.54368">
        <ele>510.4</ele>
        <time>2011-05-18T16:13:51Z</time>
      </trkpt>
      <trkpt lat="44.34857" lon="2.54369">
        <ele>510.6</ele>
        <time>2011-05-18T16:13:52Z</time>
      </trkpt>
      <trkpt lat="44.34852" lon="2.5437">
        <ele>510.6</ele>
        <time>2011-05-18T16:13:53Z</time>
      </trkpt>
      <trkpt lat="44.34848" lon="2.54371">
        <ele>510.7</ele>
        <time>2011-05-18T16:13:54Z</time>
      </trkpt>
      <trkpt lat="44.34844" lon="2.54373">
        <ele>510.6</ele>
        <time>2011-05-18T16:13:55Z</time>
      </trkpt>
      <trkpt lat="44.3484" lon="2.54374">
        <ele>510.5</ele>
        <time>2011-05-18T16:13:56Z</time>
      </trkpt>
      <trkpt lat="44.34836" lon="2.54376">
        <ele>510.4</ele>
        <time>2011-05-18T16:13:57Z</time>
      </trkpt>
      <trkpt lat="44.34833" lon="2.54379">
        <ele>510.2</ele>
        <time>2011-05-18T16:13:58Z</time>
      </trkpt>
      <trkpt lat="44.34829" lon="2.54381">
        <ele>510.4</ele>
        <time>2011-05-18T16:13:59Z</time>
      </trkpt>
      <trkpt lat="44.34826" lon="2.54384">
        <ele>510.4</ele>
        <time>2011-05-18T16:14:00Z</time>
      </trkpt>
      <trkpt lat="44.34823" lon="2.54386">
        <ele>510.4</ele>
        <time>2011-05-18T16:14:01Z</time>
      </trkpt>
      <trkpt lat="44.34819" lon="2.54389">
        <ele>510.5</ele>
        <time>2011-05-18T16:14:02Z</time>
      </trkpt>
      <trkpt lat="44.34816" lon="2.54391">
        <ele>510.5</ele>
        <time>2011-05-18T16:14:03Z</time>
      </trkpt>
      <trkpt lat="44.34813" lon="2.54392">
        <ele>510.6</ele>
        <time>2011-05-18T16:14:04Z</time>
      </trkpt>
      <trkpt lat="44.3481" lon="2.54392">
        <ele>510.8</ele>
        <time>2011-05-18T16:14:05Z</time>
      </trkpt>
      <trkpt lat="44.34806" lon="2.54392">
        <ele>511.1</ele>
        <time>2011-05-18T16:14:06Z</time>
      </trkpt>
      <trkpt lat="44.34803" lon="2.54391">
        <ele>511.5</ele>
        <time>2011-05-18T16:14:07Z</time>
      </trkpt>
      <trkpt lat="44.348" lon="2.5439">
        <ele>511.8</ele>
        <time>2011-05-18T16:14:08Z</time>
      </trkpt>
      <trkpt lat="44.34797" lon="2.54389">
        <ele>512</ele>
        <time>2011-05-18T16:14:09Z</time>
      </trkpt>
      <trkpt lat="44.34794" lon="2.54389">
        <ele>512.4</ele>
        <time>2011-05-18T16:14:10Z</time>
      </trkpt>
      <trkpt lat="44.34791" lon="2.54389">
        <ele>512.6</ele>
        <time>2011-05-18T16:14:11Z</time>
      </trkpt>
      <trkpt lat="44.34788" lon="2.54388">
        <ele>512.9</ele>
        <time>2011-05-18T16:14:12Z</time>
      </trkpt>
      <trkpt lat="44.34785" lon="2.54387">
        <ele>513.2</ele>
        <time>2011-05-18T16:14:13Z</time>
      </trkpt>
      <trkpt lat="44.34781" lon="2.54386">
        <ele>513.6</ele>
        <time>2011-05-18T16:14:14Z</time>
      </trkpt>
      <trkpt lat="44.34778" lon="2.54385">
        <ele>514</ele>
        <time>2011-05-18T16:14:15Z</time>
      </trkpt>
      <trkpt lat="44.34775" lon="2.54383">
        <ele>514.3</ele>
        <time>2011-05-18T16:14:16Z</time>
      </trkpt>
      <trkpt lat="44.34772" lon="2.54382">
        <ele>514.7</ele>
        <time>2011-05-18T16:14:17Z</time>
      </trkpt>
      <trkpt lat="44.34769" lon="2.5438">
        <ele>515.2</ele>
        <time>2011-05-18T16:14:18Z</time>
      </trkpt>
      <trkpt lat="44.34766" lon="2.54378">
        <ele>515.5</ele>
        <time>2011-05-18T16:14:19Z</time>
      </trkpt>
      <trkpt lat="44.34762" lon="2.54376">
        <ele>516</ele>
        <time>2011-05-18T16:14:20Z</time>
      </trkpt>
      <trkpt lat="44.34759" lon="2.54374">
        <ele>516.4</ele>
        <time>2011-05-18T16:14:21Z</time>
      </trkpt>
      <trkpt lat="44.34756" lon="2.54372">
        <ele>516.9</ele>
        <time>2011-05-18T16:14:22Z</time>
      </trkpt>
      <trkpt lat="44.34753" lon="2.5437">
        <ele>517.3</ele>
        <time>2011-05-18T16:14:23Z</time>
      </trkpt>
      <trkpt lat="44.3475" lon="2.54369">
        <ele>517.6</ele>
        <time>2011-05-18T16:14:24Z</time>
      </trkpt>
      <trkpt lat="44.34747" lon="2.54367">
        <ele>517.6</ele>
        <time>2011-05-18T16:14:25Z</time>
      </trkpt>
      <trkpt lat="44.34745" lon="2.54366">
        <ele>517.7</ele>
        <time>2011-05-18T16:14:26Z</time>
      </trkpt>
      <trkpt lat="44.34742" lon="2.54364">
        <ele>517.7</ele>
        <time>2011-05-18T16:14:27Z</time>
      </trkpt>
      <trkpt lat="44.34739" lon="2.54362">
        <ele>517.7</ele>
        <time>2011-05-18T16:14:28Z</time>
      </trkpt>
      <trkpt lat="44.34735" lon="2.5436">
        <ele>517.8</ele>
        <time>2011-05-18T16:14:29Z</time>
      </trkpt>
      <trkpt lat="44.34732" lon="2.54359">
        <ele>517.8</ele>
        <time>2011-05-18T16:14:30Z</time>
      </trkpt>
      <trkpt lat="44.34729" lon="2.54357">
        <ele>517.8</ele>
        <time>2011-05-18T16:14:31Z</time>
      </trkpt>
      <trkpt lat="44.34726" lon="2.54355">
        <ele>517.8</ele>
        <time>2011-05-18T16:14:32Z</time>
      </trkpt>
      <trkpt lat="44.34722" lon="2.54353">
        <ele>517.8</ele>
        <time>2011-05-18T16:14:33Z</time>
      </trkpt>
      <trkpt lat="44.34719" lon="2.54351">
        <ele>517.9</ele>
        <time>2011-05-18T16:14:34Z</time>
      </trkpt>
      <trkpt lat="44.34716" lon="2.54349">
        <ele>517.9</ele>
        <time>2011-05-18T16:14:35Z</time>
      </trkpt>
      <trkpt lat="44.34713" lon="2.54347">
        <ele>518</ele>
        <time>2011-05-18T16:14:36Z</time>
      </trkpt>
      <trkpt lat="44.34709" lon="2.54345">
        <ele>517.9</ele>
        <time>2011-05-18T16:14:37Z</time>
      </trkpt>
      <trkpt lat="44.34706" lon="2.54343">
        <ele>518</ele>
        <time>2011-05-18T16:14:38Z</time>
      </trkpt>
      <trkpt lat="44.34703" lon="2.5434">
        <ele>518.1</ele>
        <time>2011-05-18T16:14:39Z</time>
      </trkpt>
      <trkpt lat="44.347" lon="2.54338">
        <ele>518.2</ele>
        <time>2011-05-18T16:14:40Z</time>
      </trkpt>
      <trkpt lat="44.34697" lon="2.54335">
        <ele>518.3</ele>
        <time>2011-05-18T16:14:41Z</time>
      </trkpt>
      <trkpt lat="44.34693" lon="2.54332">
        <ele>518.5</ele>
        <time>2011-05-18T16:14:42Z</time>
      </trkpt>
      <trkpt lat="44.3469" lon="2.5433">
        <ele>518.7</ele>
        <time>2011-05-18T16:14:43Z</time>
      </trkpt>
      <trkpt lat="44.34687" lon="2.54327">
        <ele>519</ele>
        <time>2011-05-18T16:14:44Z</time>
      </trkpt>
      <trkpt lat="44.34683" lon="2.54324">
        <ele>519.2</ele>
        <time>2011-05-18T16:14:45Z</time>
      </trkpt>
      <trkpt lat="44.3468" lon="2.54321">
        <ele>519.7</ele>
        <time>2011-05-18T16:14:46Z</time>
      </trkpt>
      <trkpt lat="44.34677" lon="2.54318">
        <ele>519.9</ele>
        <time>2011-05-18T16:14:47Z</time>
      </trkpt>
      <trkpt lat="44.34674" lon="2.54316">
        <ele>520.2</ele>
        <time>2011-05-18T16:14:48Z</time>
      </trkpt>
      <trkpt lat="44.3467" lon="2.54313">
        <ele>520.4</ele>
        <time>2011-05-18T16:14:49Z</time>
      </trkpt>
      <trkpt lat="44.34667" lon="2.5431">
        <ele>520.7</ele>
        <time>2011-05-18T16:14:50Z</time>
      </trkpt>
      <trkpt lat="44.34664" lon="2.54307">
        <ele>521.1</ele>
        <time>2011-05-18T16:14:51Z</time>
      </trkpt>
      <trkpt lat="44.3466" lon="2.54304">
        <ele>521.3</ele>
        <time>2011-05-18T16:14:52Z</time>
      </trkpt>
      <trkpt lat="44.34657" lon="2.54301">
        <ele>521.4</ele>
        <time>2011-05-18T16:14:53Z</time>
      </trkpt>
      <trkpt lat="44.34653" lon="2.54299">
        <ele>521.6</ele>
        <time>2011-05-18T16:14:54Z</time>
      </trkpt>
      <trkpt lat="44.3465" lon="2.54296">
        <ele>521.7</ele>
        <time>2011-05-18T16:14:55Z</time>
      </trkpt>
      <trkpt lat="44.34647" lon="2.54294">
        <ele>521.9</ele>
        <time>2011-05-18T16:14:56Z</time>
      </trkpt>
      <trkpt lat="44.34643" lon="2.54291">
        <ele>522</ele>
        <time>2011-05-18T16:14:57Z</time>
      </trkpt>
      <trkpt lat="44.3464" lon="2.54288">
        <ele>522.1</ele>
        <time>2011-05-18T16:14:58Z</time>
      </trkpt>
      <trkpt lat="44.34637" lon="2.54285">
        <ele>522.2</ele>
        <time>2011-05-18T16:14:59Z</time>
      </trkpt>
      <trkpt lat="44.34633" lon="2.54283">
        <ele>522.4</ele>
        <time>2011-05-18T16:15:00Z</time>
      </trkpt>
      <trkpt lat="44.3463" lon="2.5428">
        <ele>522.7</ele>
        <time>2011-05-18T16:15:01Z</time>
      </trkpt>
      <trkpt lat="44.34628" lon="2.54277">
        <ele>522.8</ele>
        <time>2011-05-18T16:15:02Z</time>
      </trkpt>
      <trkpt lat="44.34625" lon="2.54274">
        <ele>522.9</ele>
        <time>2011-05-18T16:15:03Z</time>
      </trkpt>
      <trkpt lat="44.34623" lon="2.54272">
        <ele>523.1</ele>
        <time>2011-05-18T16:15:04Z</time>
      </trkpt>
      <trkpt lat="44.3462" lon="2.54269">
        <ele>523.2</ele>
        <time>2011-05-18T16:15:05Z</time>
      </trkpt>
      <trkpt lat="44.34617" lon="2.54267">
        <ele>523.3</ele>
        <time>2011-05-18T16:15:06Z</time>
      </trkpt>
      <trkpt lat="44.34615" lon="2.54264">
        <ele>523.4</ele>
        <time>2011-05-18T16:15:07Z</time>
      </trkpt>
      <trkpt lat="44.34612" lon="2.54261">
        <ele>523.4</ele>
        <time>2011-05-18T16:15:08Z</time>
      </trkpt>
      <trkpt lat="44.34609" lon="2.54259">
        <ele>523.5</ele>
        <time>2011-05-18T16:15:09Z</time>
      </trkpt>
      <trkpt lat="44.34606" lon="2.54256">
        <ele>523.5</ele>
        <time>2011-05-18T16:15:10Z</time>
      </trkpt>
      <trkpt lat="44.34603" lon="2.54252">
        <ele>523.7</ele>
        <time>2011-05-18T16:15:11Z</time>
      </trkpt>
      <trkpt lat="44.346" lon="2.54249">
        <ele>523.7</ele>
        <time>2011-05-18T16:15:12Z</time>
      </trkpt>
      <trkpt lat="44.34597" lon="2.54246">
        <ele>523.9</ele>
        <time>2011-05-18T16:15:13Z</time>
      </trkpt>
      <trkpt lat="44.34595" lon="2.54242">
        <ele>524</ele>
        <time>2011-05-18T16:15:14Z</time>
      </trkpt>
      <trkpt lat="44.34592" lon="2.5424">
        <ele>524.1</ele>
        <time>2011-05-18T16:15:15Z</time>
      </trkpt>
      <trkpt lat="44.3459" lon="2.54237">
        <ele>524.3</ele>
        <time>2011-05-18T16:15:16Z</time>
      </trkpt>
      <trkpt lat="44.34587" lon="2.54234">
        <ele>524.4</ele>
        <time>2011-05-18T16:15:17Z</time>
      </trkpt>
      <trkpt lat="44.34585" lon="2.5423">
        <ele>524.5</ele>
        <time>2011-05-18T16:15:18Z</time>
      </trkpt>
      <trkpt lat="44.34582" lon="2.54227">
        <ele>524.7</ele>
        <time>2011-05-18T16:15:19Z</time>
      </trkpt>
      <trkpt lat="44.3458" lon="2.54223">
        <ele>524.8</ele>
        <time>2011-05-18T16:15:20Z</time>
      </trkpt>
      <trkpt lat="44.34577" lon="2.5422">
        <ele>524.9</ele>
        <time>2011-05-18T16:15:21Z</time>
      </trkpt>
      <trkpt lat="44.34575" lon="2.54217">
        <ele>525</ele>
        <time>2011-05-18T16:15:22Z</time>
      </trkpt>
      <trkpt lat="44.34572" lon="2.54214">
        <ele>524.9</ele>
        <time>2011-05-18T16:15:23Z</time>
      </trkpt>
      <trkpt lat="44.3457" lon="2.5421">
        <ele>525</ele>
        <time>2011-05-18T16:15:24Z</time>
      </trkpt>
      <trkpt lat="44.34567" lon="2.54207">
        <ele>525.1</ele>
        <time>2011-05-18T16:15:25Z</time>
      </trkpt>
      <trkpt lat="44.34564" lon="2.54203">
        <ele>525.2</ele>
        <time>2011-05-18T16:15:26Z</time>
      </trkpt>
      <trkpt lat="44.34562" lon="2.54199">
        <ele>525.1</ele>
        <time>2011-05-18T16:15:27Z</time>
      </trkpt>
      <trkpt lat="44.34559" lon="2.54195">
        <ele>525.2</ele>
        <time>2011-05-18T16:15:28Z</time>
      </trkpt>
      <trkpt lat="44.34557" lon="2.54192">
        <ele>525.2</ele>
        <time>2011-05-18T16:15:29Z</time>
      </trkpt>
      <trkpt lat="44.34554" lon="2.54188">
        <ele>525.3</ele>
        <time>2011-05-18T16:15:30Z</time>
      </trkpt>
      <trkpt lat="44.34551" lon="2.54185">
        <ele>525.2</ele>
        <time>2011-05-18T16:15:31Z</time>
      </trkpt>
      <trkpt lat="44.34548" lon="2.54181">
        <ele>525.1</ele>
        <time>2011-05-18T16:15:32Z</time>
      </trkpt>
      <trkpt lat="44.34546" lon="2.54178">
        <ele>525.1</ele>
        <time>2011-05-18T16:15:33Z</time>
      </trkpt>
      <trkpt lat="44.34543" lon="2.54175">
        <ele>524.9</ele>
        <time>2011-05-18T16:15:34Z</time>
      </trkpt>
      <trkpt lat="44.3454" lon="2.54172">
        <ele>524.9</ele>
        <time>2011-05-18T16:15:35Z</time>
      </trkpt>
      <trkpt lat="44.34538" lon="2.54169">
        <ele>524.8</ele>
        <time>2011-05-18T16:15:36Z</time>
      </trkpt>
      <trkpt lat="44.34535" lon="2.54166">
        <ele>524.7</ele>
        <time>2011-05-18T16:15:37Z</time>
      </trkpt>
      <trkpt lat="44.34533" lon="2.54163">
        <ele>524.8</ele>
        <time>2011-05-18T16:15:38Z</time>
      </trkpt>
      <trkpt lat="44.3453" lon="2.5416">
        <ele>524.7</ele>
        <time>2011-05-18T16:15:39Z</time>
      </trkpt>
      <trkpt lat="44.34528" lon="2.54157">
        <ele>525</ele>
        <time>2011-05-18T16:15:40Z</time>
      </trkpt>
      <trkpt lat="44.34525" lon="2.54154">
        <ele>525</ele>
        <time>2011-05-18T16:15:41Z</time>
      </trkpt>
      <trkpt lat="44.34522" lon="2.54152">
        <ele>525</ele>
        <time>2011-05-18T16:15:42Z</time>
      </trkpt>
      <trkpt lat="44.34519" lon="2.54149">
        <ele>525.1</ele>
        <time>2011-05-18T16:15:43Z</time>
      </trkpt>
      <trkpt lat="44.34517" lon="2.54146">
        <ele>525.1</ele>
        <time>2011-05-18T16:15:44Z</time>
      </trkpt>
      <trkpt lat="44.34514" lon="2.54143">
        <ele>525.3</ele>
        <time>2011-05-18T16:15:45Z</time>
      </trkpt>
      <trkpt lat="44.34511" lon="2.5414">
        <ele>525.3</ele>
        <time>2011-05-18T16:15:46Z</time>
      </trkpt>
      <trkpt lat="44.34509" lon="2.54138">
        <ele>525.3</ele>
        <time>2011-05-18T16:15:47Z</time>
      </trkpt>
      <trkpt lat="44.34506" lon="2.54135">
        <ele>525.4</ele>
        <time>2011-05-18T16:15:48Z</time>
      </trkpt>
      <trkpt lat="44.34504" lon="2.54132">
        <ele>525.4</ele>
        <time>2011-05-18T16:15:49Z</time>
      </trkpt>
      <trkpt lat="44.34501" lon="2.54129">
        <ele>525.5</ele>
        <time>2011-05-18T16:15:50Z</time>
      </trkpt>
      <trkpt lat="44.34499" lon="2.54127">
        <ele>525.6</ele>
        <time>2011-05-18T16:15:51Z</time>
      </trkpt>
      <trkpt lat="44.34497" lon="2.54124">
        <ele>525.8</ele>
        <time>2011-05-18T16:15:52Z</time>
      </trkpt>
      <trkpt lat="44.34495" lon="2.54121">
        <ele>526.2</ele>
        <time>2011-05-18T16:15:53Z</time>
      </trkpt>
      <trkpt lat="44.34492" lon="2.54118">
        <ele>526.4</ele>
        <time>2011-05-18T16:15:54Z</time>
      </trkpt>
      <trkpt lat="44.3449" lon="2.54115">
        <ele>526.5</ele>
        <time>2011-05-18T16:15:55Z</time>
      </trkpt>
      <trkpt lat="44.34488" lon="2.54113">
        <ele>526.7</ele>
        <time>2011-05-18T16:15:56Z</time>
      </trkpt>
      <trkpt lat="44.34485" lon="2.54111">
        <ele>526.6</ele>
        <time>2011-05-18T16:15:57Z</time>
      </trkpt>
      <trkpt lat="44.34483" lon="2.54108">
        <ele>526.7</ele>
        <time>2011-05-18T16:15:58Z</time>
      </trkpt>
      <trkpt lat="44.34481" lon="2.54106">
        <ele>526.8</ele>
        <time>2011-05-18T16:15:59Z</time>
      </trkpt>
      <trkpt lat="44.34478" lon="2.54103">
        <ele>527</ele>
        <time>2011-05-18T16:16:00Z</time>
      </trkpt>
      <trkpt lat="44.34476" lon="2.54101">
        <ele>527.1</ele>
        <time>2011-05-18T16:16:01Z</time>
      </trkpt>
      <trkpt lat="44.34473" lon="2.54098">
        <ele>527.2</ele>
        <time>2011-05-18T16:16:02Z</time>
      </trkpt>
      <trkpt lat="44.34471" lon="2.54096">
        <ele>527.3</ele>
        <time>2011-05-18T16:16:03Z</time>
      </trkpt>
      <trkpt lat="44.34469" lon="2.54093">
        <ele>527.4</ele>
        <time>2011-05-18T16:16:04Z</time>
      </trkpt>
      <trkpt lat="44.34467" lon="2.5409">
        <ele>527.5</ele>
        <time>2011-05-18T16:16:05Z</time>
      </trkpt>
      <trkpt lat="44.34464" lon="2.54087">
        <ele>527.7</ele>
        <time>2011-05-18T16:16:06Z</time>
      </trkpt>
      <trkpt lat="44.34462" lon="2.54084">
        <ele>528</ele>
        <time>2011-05-18T16:16:07Z</time>
      </trkpt>
      <trkpt lat="44.3446" lon="2.54082">
        <ele>528.4</ele>
        <time>2011-05-18T16:16:08Z</time>
      </trkpt>
      <trkpt lat="44.34458" lon="2.54079">
        <ele>528.8</ele>
        <time>2011-05-18T16:16:09Z</time>
      </trkpt>
      <trkpt lat="44.34455" lon="2.54077">
        <ele>529.2</ele>
        <time>2011-05-18T16:16:10Z</time>
      </trkpt>
      <trkpt lat="44.34453" lon="2.54073">
        <ele>529.6</ele>
        <time>2011-05-18T16:16:11Z</time>
      </trkpt>
      <trkpt lat="44.34451" lon="2.54071">
        <ele>530</ele>
        <time>2011-05-18T16:16:12Z</time>
      </trkpt>
      <trkpt lat="44.34448" lon="2.54068">
        <ele>530.4</ele>
        <time>2011-05-18T16:16:13Z</time>
      </trkpt>
      <trkpt lat="44.34446" lon="2.54066">
        <ele>530.7</ele>
        <time>2011-05-18T16:16:14Z</time>
      </trkpt>
      <trkpt lat="44.34443" lon="2.54064">
        <ele>531.1</ele>
        <time>2011-05-18T16:16:15Z</time>
      </trkpt>
      <trkpt lat="44.3444" lon="2.54061">
        <ele>531.1</ele>
        <time>2011-05-18T16:16:16Z</time>
      </trkpt>
      <trkpt lat="44.34438" lon="2.54059">
        <ele>531.4</ele>
        <time>2011-05-18T16:16:17Z</time>
      </trkpt>
      <trkpt lat="44.34435" lon="2.54057">
        <ele>531.7</ele>
        <time>2011-05-18T16:16:18Z</time>
      </trkpt>
      <trkpt lat="44.34432" lon="2.54055">
        <ele>531.6</ele>
        <time>2011-05-18T16:16:19Z</time>
      </trkpt>
      <trkpt lat="44.34429" lon="2.54053">
        <ele>531.9</ele>
        <time>2011-05-18T16:16:20Z</time>
      </trkpt>
      <trkpt lat="44.34426" lon="2.5405">
        <ele>532.2</ele>
        <time>2011-05-18T16:16:21Z</time>
      </trkpt>
      <trkpt lat="44.34423" lon="2.54048">
        <ele>532.1</ele>
        <time>2011-05-18T16:16:22Z</time>
      </trkpt>
      <trkpt lat="44.3442" lon="2.54046">
        <ele>532.4</ele>
        <time>2011-05-18T16:16:23Z</time>
      </trkpt>
      <trkpt lat="44.34417" lon="2.54044">
        <ele>532.7</ele>
        <time>2011-05-18T16:16:24Z</time>
      </trkpt>
      <trkpt lat="44.34413" lon="2.54042">
        <ele>532.4</ele>
        <time>2011-05-18T16:16:25Z</time>
      </trkpt>
      <trkpt lat="44.3441" lon="2.5404">
        <ele>532.6</ele>
        <time>2011-05-18T16:16:26Z</time>
      </trkpt>
      <trkpt lat="44.34407" lon="2.54038">
        <ele>532.7</ele>
        <time>2011-05-18T16:16:27Z</time>
      </trkpt>
      <trkpt lat="44.34404" lon="2.54035">
        <ele>532.4</ele>
        <time>2011-05-18T16:16:28Z</time>
      </trkpt>
      <trkpt lat="44.344" lon="2.54033">
        <ele>532.4</ele>
        <time>2011-05-18T16:16:29Z</time>
      </trkpt>
      <trkpt lat="44.34397" lon="2.54031">
        <ele>532.4</ele>
        <time>2011-05-18T16:16:30Z</time>
      </trkpt>
      <trkpt lat="44.34394" lon="2.54028">
        <ele>532.4</ele>
        <time>2011-05-18T16:16:31Z</time>
      </trkpt>
      <trkpt lat="44.3439" lon="2.54026">
        <ele>532</ele>
        <time>2011-05-18T16:16:32Z</time>
      </trkpt>
      <trkpt lat="44.34387" lon="2.54024">
        <ele>531.9</ele>
        <time>2011-05-18T16:16:33Z</time>
      </trkpt>
      <trkpt lat="44.34383" lon="2.54022">
        <ele>531.7</ele>
        <time>2011-05-18T16:16:34Z</time>
      </trkpt>
      <trkpt lat="44.3438" lon="2.54019">
        <ele>531.6</ele>
        <time>2011-05-18T16:16:35Z</time>
      </trkpt>
      <trkpt lat="44.34377" lon="2.54016">
        <ele>531.6</ele>
        <time>2011-05-18T16:16:36Z</time>
      </trkpt>
      <trkpt lat="44.34374" lon="2.54012">
        <ele>531.9</ele>
        <time>2011-05-18T16:16:37Z</time>
      </trkpt>
      <trkpt lat="44.34372" lon="2.54008">
        <ele>532.2</ele>
        <time>2011-05-18T16:16:38Z</time>
      </trkpt>
      <trkpt lat="44.3437" lon="2.54003">
        <ele>532.9</ele>
        <time>2011-05-18T16:16:39Z</time>
      </trkpt>
      <trkpt lat="44.34368" lon="2.53997">
        <ele>533.2</ele>
        <time>2011-05-18T16:16:40Z</time>
      </trkpt>
      <trkpt lat="44.34367" lon="2.53992">
        <ele>533.3</ele>
        <time>2011-05-18T16:16:41Z</time>
      </trkpt>
      <trkpt lat="44.34366" lon="2.53987">
        <ele>533.4</ele>
        <time>2011-05-18T16:16:42Z</time>
      </trkpt>
      <trkpt lat="44.34367" lon="2.53984">
        <ele>533.8</ele>
        <time>2011-05-18T16:16:43Z</time>
      </trkpt>
      <trkpt lat="44.34367" lon="2.5398">
        <ele>534.3</ele>
        <time>2011-05-18T16:16:44Z</time>
      </trkpt>
      <trkpt lat="44.34369" lon="2.53976">
        <ele>534.9</ele>
        <time>2011-05-18T16:16:45Z</time>
      </trkpt>
      <trkpt lat="44.3437" lon="2.53973">
        <ele>535.4</ele>
        <time>2011-05-18T16:16:46Z</time>
      </trkpt>
      <trkpt lat="44.34372" lon="2.53969">
        <ele>536.1</ele>
        <time>2011-05-18T16:16:47Z</time>
      </trkpt>
      <trkpt lat="44.34374" lon="2.53966">
        <ele>536.8</ele>
        <time>2011-05-18T16:16:48Z</time>
      </trkpt>
      <trkpt lat="44.34376" lon="2.53964">
        <ele>537.5</ele>
        <time>2011-05-18T16:16:49Z</time>
      </trkpt>
      <trkpt lat="44.34378" lon="2.53961">
        <ele>538.4</ele>
        <time>2011-05-18T16:16:50Z</time>
      </trkpt>
      <trkpt lat="44.3438" lon="2.53958">
        <ele>539</ele>
        <time>2011-05-18T16:16:51Z</time>
      </trkpt>
      <trkpt lat="44.34382" lon="2.53955">
        <ele>539.8</ele>
        <time>2011-05-18T16:16:52Z</time>
      </trkpt>
      <trkpt lat="44.34384" lon="2.53952">
        <ele>540.5</ele>
        <time>2011-05-18T16:16:53Z</time>
      </trkpt>
      <trkpt lat="44.34386" lon="2.5395">
        <ele>541.3</ele>
        <time>2011-05-18T16:16:54Z</time>
      </trkpt>
      <trkpt lat="44.34388" lon="2.53947">
        <ele>542</ele>
        <time>2011-05-18T16:16:55Z</time>
      </trkpt>
      <trkpt lat="44.3439" lon="2.53944">
        <ele>542.9</ele>
        <time>2011-05-18T16:16:56Z</time>
      </trkpt>
      <trkpt lat="44.34392" lon="2.53941">
        <ele>543.8</ele>
        <time>2011-05-18T16:16:57Z</time>
      </trkpt>
      <trkpt lat="44.34394" lon="2.53938">
        <ele>544.5</ele>
        <time>2011-05-18T16:16:58Z</time>
      </trkpt>
      <trkpt lat="44.34396" lon="2.53934">
        <ele>545.4</ele>
        <time>2011-05-18T16:16:59Z</time>
      </trkpt>
      <trkpt lat="44.34398" lon="2.53931">
        <ele>546.1</ele>
        <time>2011-05-18T16:17:00Z</time>
      </trkpt>
      <trkpt lat="44.344" lon="2.53928">
        <ele>547.1</ele>
        <time>2011-05-18T16:17:01Z</time>
      </trkpt>
      <trkpt lat="44.34402" lon="2.53924">
        <ele>547.9</ele>
        <time>2011-05-18T16:17:02Z</time>
      </trkpt>
      <trkpt lat="44.34404" lon="2.53921">
        <ele>548.9</ele>
        <time>2011-05-18T16:17:03Z</time>
      </trkpt>
      <trkpt lat="44.34405" lon="2.53918">
        <ele>549.6</ele>
        <time>2011-05-18T16:17:04Z</time>
      </trkpt>
      <trkpt lat="44.34407" lon="2.53915">
        <ele>550.2</ele>
        <time>2011-05-18T16:17:05Z</time>
      </trkpt>
      <trkpt lat="44.34409" lon="2.53911">
        <ele>550.6</ele>
        <time>2011-05-18T16:17:06Z</time>
      </trkpt>
      <trkpt lat="44.34411" lon="2.53908">
        <ele>551</ele>
        <time>2011-05-18T16:17:07Z</time>
      </trkpt>
      <trkpt lat="44.34412" lon="2.53904">
        <ele>551.4</ele>
        <time>2011-05-18T16:17:08Z</time>
      </trkpt>
      <trkpt lat="44.34414" lon="2.53901">
        <ele>551.6</ele>
        <time>2011-05-18T16:17:09Z</time>
      </trkpt>
      <trkpt lat="44.34415" lon="2.53897">
        <ele>551.9</ele>
        <time>2011-05-18T16:17:10Z</time>
      </trkpt>
      <trkpt lat="44.34417" lon="2.53893">
        <ele>552.1</ele>
        <time>2011-05-18T16:17:11Z</time>
      </trkpt>
      <trkpt lat="44.34418" lon="2.53889">
        <ele>552.2</ele>
        <time>2011-05-18T16:17:12Z</time>
      </trkpt>
      <trkpt lat="44.34419" lon="2.53885">
        <ele>552.4</ele>
        <time>2011-05-18T16:17:13Z</time>
      </trkpt>
      <trkpt lat="44.3442" lon="2.53881">
        <ele>552.5</ele>
        <time>2011-05-18T16:17:14Z</time>
      </trkpt>
      <trkpt lat="44.34421" lon="2.53877">
        <ele>552.6</ele>
        <time>2011-05-18T16:17:15Z</time>
      </trkpt>
      <trkpt lat="44.34421" lon="2.53873">
        <ele>552.8</ele>
        <time>2011-05-18T16:17:16Z</time>
      </trkpt>
      <trkpt lat="44.34422" lon="2.53869">
        <ele>552.8</ele>
        <time>2011-05-18T16:17:17Z</time>
      </trkpt>
      <trkpt lat="44.34423" lon="2.53865">
        <ele>553</ele>
        <time>2011-05-18T16:17:18Z</time>
      </trkpt>
      <trkpt lat="44.34424" lon="2.53861">
        <ele>553.3</ele>
        <time>2011-05-18T16:17:19Z</time>
      </trkpt>
      <trkpt lat="44.34425" lon="2.53857">
        <ele>553.5</ele>
        <time>2011-05-18T16:17:20Z</time>
      </trkpt>
      <trkpt lat="44.34427" lon="2.53853">
        <ele>553.7</ele>
        <time>2011-05-18T16:17:21Z</time>
      </trkpt>
      <trkpt lat="44.34427" lon="2.5385">
        <ele>553.8</ele>
        <time>2011-05-18T16:17:22Z</time>
      </trkpt>
      <trkpt lat="44.34428" lon="2.53846">
        <ele>554</ele>
        <time>2011-05-18T16:17:23Z</time>
      </trkpt>
      <trkpt lat="44.34429" lon="2.53842">
        <ele>554.2</ele>
        <time>2011-05-18T16:17:24Z</time>
      </trkpt>
      <trkpt lat="44.3443" lon="2.53839">
        <ele>554.4</ele>
        <time>2011-05-18T16:17:25Z</time>
      </trkpt>
      <trkpt lat="44.34431" lon="2.53836">
        <ele>554.8</ele>
        <time>2011-05-18T16:17:26Z</time>
      </trkpt>
      <trkpt lat="44.34432" lon="2.53832">
        <ele>555</ele>
        <time>2011-05-18T16:17:27Z</time>
      </trkpt>
      <trkpt lat="44.34434" lon="2.53829">
        <ele>555.2</ele>
        <time>2011-05-18T16:17:28Z</time>
      </trkpt>
      <trkpt lat="44.34435" lon="2.53826">
        <ele>555.5</ele>
        <time>2011-05-18T16:17:29Z</time>
      </trkpt>
      <trkpt lat="44.34436" lon="2.53822">
        <ele>555.6</ele>
        <time>2011-05-18T16:17:30Z</time>
      </trkpt>
      <trkpt lat="44.34437" lon="2.53819">
        <ele>555.6</ele>
        <time>2011-05-18T16:17:31Z</time>
      </trkpt>
      <trkpt lat="44.34438" lon="2.53816">
        <ele>555.8</ele>
        <time>2011-05-18T16:17:32Z</time>
      </trkpt>
      <trkpt lat="44.34439" lon="2.53812">
        <ele>555.8</ele>
        <time>2011-05-18T16:17:33Z</time>
      </trkpt>
      <trkpt lat="44.3444" lon="2.53809">
        <ele>556</ele>
        <time>2011-05-18T16:17:34Z</time>
      </trkpt>
      <trkpt lat="44.34441" lon="2.53805">
        <ele>555.9</ele>
        <time>2011-05-18T16:17:35Z</time>
      </trkpt>
      <trkpt lat="44.34441" lon="2.53802">
        <ele>555.7</ele>
        <time>2011-05-18T16:17:36Z</time>
      </trkpt>
      <trkpt lat="44.34441" lon="2.53798">
        <ele>555.5</ele>
        <time>2011-05-18T16:17:37Z</time>
      </trkpt>
      <trkpt lat="44.3444" lon="2.53795">
        <ele>554.9</ele>
        <time>2011-05-18T16:17:38Z</time>
      </trkpt>
      <trkpt lat="44.34438" lon="2.53792">
        <ele>554.3</ele>
        <time>2011-05-18T16:17:39Z</time>
      </trkpt>
      <trkpt lat="44.34435" lon="2.5379">
        <ele>553.1</ele>
        <time>2011-05-18T16:17:41Z</time>
      </trkpt>
      <trkpt lat="44.34431" lon="2.5379">
        <ele>551.8</ele>
        <time>2011-05-18T16:17:43Z</time>
      </trkpt>
      <trkpt lat="44.34429" lon="2.53794">
        <ele>551.2</ele>
        <time>2011-05-18T16:17:46Z</time>
      </trkpt>
      <trkpt lat="44.34426" lon="2.53798">
        <ele>550.4</ele>
        <time>2011-05-18T16:17:49Z</time>
      </trkpt>
      <trkpt lat="44.34423" lon="2.53803">
        <ele>550</ele>
        <time>2011-05-18T16:17:52Z</time>
      </trkpt>
      <trkpt lat="44.34421" lon="2.53806">
        <ele>549.4</ele>
        <time>2011-05-18T16:17:54Z</time>
      </trkpt>
      <trkpt lat="44.34418" lon="2.5381">
        <ele>548.8</ele>
        <time>2011-05-18T16:17:56Z</time>
      </trkpt>
      <trkpt lat="44.34416" lon="2.53813">
        <ele>548.4</ele>
        <time>2011-05-18T16:17:58Z</time>
      </trkpt>
      <trkpt lat="44.34413" lon="2.53817">
        <ele>548.3</ele>
        <time>2011-05-18T16:18:00Z</time>
      </trkpt>
      <trkpt lat="44.3441" lon="2.53821">
        <ele>548.2</ele>
        <time>2011-05-18T16:18:02Z</time>
      </trkpt>
      <trkpt lat="44.34407" lon="2.53824">
        <ele>548</ele>
        <time>2011-05-18T16:18:04Z</time>
      </trkpt>
      <trkpt lat="44.34405" lon="2.53828">
        <ele>547.8</ele>
        <time>2011-05-18T16:18:06Z</time>
      </trkpt>
      <trkpt lat="44.34402" lon="2.53833">
        <ele>547.7</ele>
        <time>2011-05-18T16:18:08Z</time>
      </trkpt>
      <trkpt lat="44.34399" lon="2.53837">
        <ele>547.3</ele>
        <time>2011-05-18T16:18:10Z</time>
      </trkpt>
      <trkpt lat="44.34397" lon="2.53841">
        <ele>546.9</ele>
        <time>2011-05-18T16:18:12Z</time>
      </trkpt>
      <trkpt lat="44.34393" lon="2.53845">
        <ele>546.3</ele>
        <time>2011-05-18T16:18:14Z</time>
      </trkpt>
      <trkpt lat="44.3439" lon="2.53848">
        <ele>545.8</ele>
        <time>2011-05-18T16:18:16Z</time>
      </trkpt>
      <trkpt lat="44.34387" lon="2.53852">
        <ele>545.1</ele>
        <time>2011-05-18T16:18:18Z</time>
      </trkpt>
      <trkpt lat="44.34383" lon="2.53855">
        <ele>544.4</ele>
        <time>2011-05-18T16:18:20Z</time>
      </trkpt>
      <trkpt lat="44.34381" lon="2.53857">
        <ele>544</ele>
        <time>2011-05-18T16:18:21Z</time>
      </trkpt>
      <trkpt lat="44.34375" lon="2.5386">
        <ele>542.8</ele>
        <time>2011-05-18T16:18:24Z</time>
      </trkpt>
      <trkpt lat="44.34372" lon="2.53862">
        <ele>542.1</ele>
        <time>2011-05-18T16:18:26Z</time>
      </trkpt>
      <trkpt lat="44.34369" lon="2.53864">
        <ele>541.3</ele>
        <time>2011-05-18T16:18:28Z</time>
      </trkpt>
      <trkpt lat="44.34365" lon="2.53867">
        <ele>540.4</ele>
        <time>2011-05-18T16:18:30Z</time>
      </trkpt>
      <trkpt lat="44.34361" lon="2.53869">
        <ele>539.4</ele>
        <time>2011-05-18T16:18:32Z</time>
      </trkpt>
      <trkpt lat="44.34358" lon="2.53871">
        <ele>538.9</ele>
        <time>2011-05-18T16:18:33Z</time>
      </trkpt>
      <trkpt lat="44.34356" lon="2.53872">
        <ele>538.2</ele>
        <time>2011-05-18T16:18:34Z</time>
      </trkpt>
      <trkpt lat="44.34354" lon="2.53874">
        <ele>537.7</ele>
        <time>2011-05-18T16:18:35Z</time>
      </trkpt>
      <trkpt lat="44.34352" lon="2.53875">
        <ele>537.2</ele>
        <time>2011-05-18T16:18:36Z</time>
      </trkpt>
      <trkpt lat="44.3435" lon="2.53877">
        <ele>536.6</ele>
        <time>2011-05-18T16:18:37Z</time>
      </trkpt>
      <trkpt lat="44.34348" lon="2.53878">
        <ele>536</ele>
        <time>2011-05-18T16:18:38Z</time>
      </trkpt>
      <trkpt lat="44.34344" lon="2.53879">
        <ele>535</ele>
        <time>2011-05-18T16:18:40Z</time>
      </trkpt>
      <trkpt lat="44.3434" lon="2.5388">
        <ele>533.9</ele>
        <time>2011-05-18T16:18:42Z</time>
      </trkpt>
      <trkpt lat="44.34335" lon="2.53881">
        <ele>532.9</ele>
        <time>2011-05-18T16:18:44Z</time>
      </trkpt>
      <trkpt lat="44.34331" lon="2.53881">
        <ele>532.6</ele>
        <time>2011-05-18T16:18:46Z</time>
      </trkpt>
      <trkpt lat="44.34327" lon="2.53881">
        <ele>532.8</ele>
        <time>2011-05-18T16:18:48Z</time>
      </trkpt>
      <trkpt lat="44.34323" lon="2.5388">
        <ele>533</ele>
        <time>2011-05-18T16:18:50Z</time>
      </trkpt>
      <trkpt lat="44.34319" lon="2.53879">
        <ele>533.3</ele>
        <time>2011-05-18T16:18:52Z</time>
      </trkpt>
      <trkpt lat="44.34314" lon="2.53878">
        <ele>533.7</ele>
        <time>2011-05-18T16:18:54Z</time>
      </trkpt>
      <trkpt lat="44.3431" lon="2.53876">
        <ele>534.1</ele>
        <time>2011-05-18T16:18:56Z</time>
      </trkpt>
      <trkpt lat="44.34306" lon="2.53875">
        <ele>534.6</ele>
        <time>2011-05-18T16:18:58Z</time>
      </trkpt>
      <trkpt lat="44.34304" lon="2.53872">
        <ele>534.9</ele>
        <time>2011-05-18T16:19:00Z</time>
      </trkpt>
      <trkpt lat="44.34301" lon="2.53867">
        <ele>535.8</ele>
        <time>2011-05-18T16:19:03Z</time>
      </trkpt>
      <trkpt lat="44.34298" lon="2.53863">
        <ele>536.7</ele>
        <time>2011-05-18T16:19:06Z</time>
      </trkpt>
      <trkpt lat="44.34296" lon="2.53857">
        <ele>537.7</ele>
        <time>2011-05-18T16:19:09Z</time>
      </trkpt>
      <trkpt lat="44.34294" lon="2.53854">
        <ele>538.2</ele>
        <time>2011-05-18T16:19:11Z</time>
      </trkpt>
      <trkpt lat="44.34292" lon="2.53849">
        <ele>539.2</ele>
        <time>2011-05-18T16:19:14Z</time>
      </trkpt>
      <trkpt lat="44.34295" lon="2.53845">
        <ele>539.6</ele>
        <time>2011-05-18T16:19:18Z</time>
      </trkpt>
      <trkpt lat="44.34299" lon="2.53843">
        <ele>539.5</ele>
        <time>2011-05-18T16:19:22Z</time>
      </trkpt>
      <trkpt lat="44.343" lon="2.53843">
        <ele>539.4</ele>
        <time>2011-05-18T16:19:23Z</time>
      </trkpt>
      <trkpt lat="44.34307" lon="2.5384">
        <ele>539</ele>
        <time>2011-05-18T16:19:29Z</time>
      </trkpt>
      <trkpt lat="44.34311" lon="2.53839">
        <ele>538.7</ele>
        <time>2011-05-18T16:19:32Z</time>
      </trkpt>
      <trkpt lat="44.34314" lon="2.53837">
        <ele>538.7</ele>
        <time>2011-05-18T16:19:34Z</time>
      </trkpt>
      <trkpt lat="44.34317" lon="2.53835">
        <ele>538.6</ele>
        <time>2011-05-18T16:19:36Z</time>
      </trkpt>
      <trkpt lat="44.3432" lon="2.53833">
        <ele>538.5</ele>
        <time>2011-05-18T16:19:38Z</time>
      </trkpt>
      <trkpt lat="44.34323" lon="2.5383">
        <ele>538.4</ele>
        <time>2011-05-18T16:19:40Z</time>
      </trkpt>
      <trkpt lat="44.34325" lon="2.53827">
        <ele>538.3</ele>
        <time>2011-05-18T16:19:42Z</time>
      </trkpt>
      <trkpt lat="44.34327" lon="2.53824">
        <ele>538.2</ele>
        <time>2011-05-18T16:19:44Z</time>
      </trkpt>
      <trkpt lat="44.3433" lon="2.53821">
        <ele>538.2</ele>
        <time>2011-05-18T16:19:46Z</time>
      </trkpt>
      <trkpt lat="44.34332" lon="2.53816">
        <ele>538.3</ele>
        <time>2011-05-18T16:19:49Z</time>
      </trkpt>
      <trkpt lat="44.34334" lon="2.53811">
        <ele>538.4</ele>
        <time>2011-05-18T16:19:52Z</time>
      </trkpt>
      <trkpt lat="44.34335" lon="2.53807">
        <ele>538.8</ele>
        <time>2011-05-18T16:19:54Z</time>
      </trkpt>
      <trkpt lat="44.34334" lon="2.53801">
        <ele>539</ele>
        <time>2011-05-18T16:19:57Z</time>
      </trkpt>
      <trkpt lat="44.34331" lon="2.53798">
        <ele>539.5</ele>
        <time>2011-05-18T16:20:00Z</time>
      </trkpt>
      <trkpt lat="44.34327" lon="2.53796">
        <ele>540.3</ele>
        <time>2011-05-18T16:20:03Z</time>
      </trkpt>
      <trkpt lat="44.34323" lon="2.53793">
        <ele>541</ele>
        <time>2011-05-18T16:20:06Z</time>
      </trkpt>
      <trkpt lat="44.3432" lon="2.5379">
        <ele>541.8</ele>
        <time>2011-05-18T16:20:09Z</time>
      </trkpt>
      <trkpt lat="44.34317" lon="2.53787">
        <ele>542.6</ele>
        <time>2011-05-18T16:20:12Z</time>
      </trkpt>
      <trkpt lat="44.34314" lon="2.53784">
        <ele>543.3</ele>
        <time>2011-05-18T16:20:15Z</time>
      </trkpt>
      <trkpt lat="44.3431" lon="2.53783">
        <ele>544.1</ele>
        <time>2011-05-18T16:20:18Z</time>
      </trkpt>
      <trkpt lat="44.34307" lon="2.5378">
        <ele>544.8</ele>
        <time>2011-05-18T16:20:21Z</time>
      </trkpt>
      <trkpt lat="44.34304" lon="2.53777">
        <ele>545.6</ele>
        <time>2011-05-18T16:20:23Z</time>
      </trkpt>
      <trkpt lat="44.34303" lon="2.53771">
        <ele>546.5</ele>
        <time>2011-05-18T16:20:27Z</time>
      </trkpt>
      <trkpt lat="44.34304" lon="2.5377">
        <ele>546.5</ele>
        <time>2011-05-18T16:20:28Z</time>
      </trkpt>
      <trkpt lat="44.34308" lon="2.53765">
        <ele>546.1</ele>
        <time>2011-05-18T16:20:32Z</time>
      </trkpt>
      <trkpt lat="44.34312" lon="2.53762">
        <ele>545.6</ele>
        <time>2011-05-18T16:20:35Z</time>
      </trkpt>
      <trkpt lat="44.34315" lon="2.5376">
        <ele>545.2</ele>
        <time>2011-05-18T16:20:38Z</time>
      </trkpt>
      <trkpt lat="44.34319" lon="2.53757">
        <ele>544.6</ele>
        <time>2011-05-18T16:20:41Z</time>
      </trkpt>
      <trkpt lat="44.34322" lon="2.53755">
        <ele>544.2</ele>
        <time>2011-05-18T16:20:44Z</time>
      </trkpt>
      <trkpt lat="44.34325" lon="2.53753">
        <ele>543.6</ele>
        <time>2011-05-18T16:20:46Z</time>
      </trkpt>
      <trkpt lat="44.34328" lon="2.53748">
        <ele>543.6</ele>
        <time>2011-05-18T16:20:49Z</time>
      </trkpt>
      <trkpt lat="44.3433" lon="2.53744">
        <ele>543.8</ele>
        <time>2011-05-18T16:20:52Z</time>
      </trkpt>
      <trkpt lat="44.34333" lon="2.5374">
        <ele>543.8</ele>
        <time>2011-05-18T16:20:55Z</time>
      </trkpt>
      <trkpt lat="44.34335" lon="2.53736">
        <ele>544.4</ele>
        <time>2011-05-18T16:20:57Z</time>
      </trkpt>
      <trkpt lat="44.34338" lon="2.53731">
        <ele>545.2</ele>
        <time>2011-05-18T16:21:00Z</time>
      </trkpt>
      <trkpt lat="44.3434" lon="2.53726">
        <ele>546</ele>
        <time>2011-05-18T16:21:03Z</time>
      </trkpt>
      <trkpt lat="44.34341" lon="2.53722">
        <ele>546.6</ele>
        <time>2011-05-18T16:21:05Z</time>
      </trkpt>
      <trkpt lat="44.34342" lon="2.53718">
        <ele>547.1</ele>
        <time>2011-05-18T16:21:07Z</time>
      </trkpt>
      <trkpt lat="44.34343" lon="2.53711">
        <ele>548.1</ele>
        <time>2011-05-18T16:21:10Z</time>
      </trkpt>
      <trkpt lat="44.34344" lon="2.53705">
        <ele>549</ele>
        <time>2011-05-18T16:21:13Z</time>
      </trkpt>
      <trkpt lat="44.34345" lon="2.53701">
        <ele>549.5</ele>
        <time>2011-05-18T16:21:15Z</time>
      </trkpt>
      <trkpt lat="44.34345" lon="2.53697">
        <ele>550.1</ele>
        <time>2011-05-18T16:21:17Z</time>
      </trkpt>
      <trkpt lat="44.34346" lon="2.53693">
        <ele>550.6</ele>
        <time>2011-05-18T16:21:19Z</time>
      </trkpt>
      <trkpt lat="44.34347" lon="2.53689">
        <ele>551.3</ele>
        <time>2011-05-18T16:21:21Z</time>
      </trkpt>
      <trkpt lat="44.34348" lon="2.53683">
        <ele>551.9</ele>
        <time>2011-05-18T16:21:24Z</time>
      </trkpt>
      <trkpt lat="44.3435" lon="2.53677">
        <ele>552.6</ele>
        <time>2011-05-18T16:21:27Z</time>
      </trkpt>
      <trkpt lat="44.34351" lon="2.53673">
        <ele>553</ele>
        <time>2011-05-18T16:21:29Z</time>
      </trkpt>
      <trkpt lat="44.34351" lon="2.53671">
        <ele>553.1</ele>
        <time>2011-05-18T16:21:30Z</time>
      </trkpt>
      <trkpt lat="44.3435" lon="2.53662">
        <ele>554.7</ele>
        <time>2011-05-18T16:21:35Z</time>
      </trkpt>
      <trkpt lat="44.34347" lon="2.53662">
        <ele>555.2</ele>
        <time>2011-05-18T16:21:38Z</time>
      </trkpt>
      <trkpt lat="44.34344" lon="2.53666">
        <ele>554.9</ele>
        <time>2011-05-18T16:21:41Z</time>
      </trkpt>
      <trkpt lat="44.34341" lon="2.5367">
        <ele>554.6</ele>
        <time>2011-05-18T16:21:44Z</time>
      </trkpt>
      <trkpt lat="44.34337" lon="2.53674">
        <ele>554.4</ele>
        <time>2011-05-18T16:21:47Z</time>
      </trkpt>
      <trkpt lat="44.34334" lon="2.53677">
        <ele>554.4</ele>
        <time>2011-05-18T16:21:50Z</time>
      </trkpt>
      <trkpt lat="44.3433" lon="2.53679">
        <ele>554.7</ele>
        <time>2011-05-18T16:21:53Z</time>
      </trkpt>
      <trkpt lat="44.34326" lon="2.53681">
        <ele>554.9</ele>
        <time>2011-05-18T16:21:56Z</time>
      </trkpt>
      <trkpt lat="44.34323" lon="2.53683">
        <ele>555.2</ele>
        <time>2011-05-18T16:21:58Z</time>
      </trkpt>
      <trkpt lat="44.3432" lon="2.53684">
        <ele>555.5</ele>
        <time>2011-05-18T16:22:00Z</time>
      </trkpt>
      <trkpt lat="44.34316" lon="2.53686">
        <ele>556.1</ele>
        <time>2011-05-18T16:22:03Z</time>
      </trkpt>
      <trkpt lat="44.34313" lon="2.53686">
        <ele>556.4</ele>
        <time>2011-05-18T16:22:05Z</time>
      </trkpt>
      <trkpt lat="44.3431" lon="2.53687">
        <ele>557</ele>
        <time>2011-05-18T16:22:07Z</time>
      </trkpt>
      <trkpt lat="44.34306" lon="2.53687">
        <ele>557.6</ele>
        <time>2011-05-18T16:22:09Z</time>
      </trkpt>
      <trkpt lat="44.34303" lon="2.53687">
        <ele>558.2</ele>
        <time>2011-05-18T16:22:11Z</time>
      </trkpt>
      <trkpt lat="44.34299" lon="2.53686">
        <ele>558.8</ele>
        <time>2011-05-18T16:22:13Z</time>
      </trkpt>
      <trkpt lat="44.34295" lon="2.53685">
        <ele>559.9</ele>
        <time>2011-05-18T16:22:16Z</time>
      </trkpt>
      <trkpt lat="44.34292" lon="2.53683">
        <ele>560.6</ele>
        <time>2011-05-18T16:22:18Z</time>
      </trkpt>
      <trkpt lat="44.34289" lon="2.53682">
        <ele>561.3</ele>
        <time>2011-05-18T16:22:20Z</time>
      </trkpt>
      <trkpt lat="44.34286" lon="2.53681">
        <ele>562.1</ele>
        <time>2011-05-18T16:22:22Z</time>
      </trkpt>
      <trkpt lat="44.34283" lon="2.53679">
        <ele>562.8</ele>
        <time>2011-05-18T16:22:24Z</time>
      </trkpt>
      <trkpt lat="44.34279" lon="2.53678">
        <ele>563.7</ele>
        <time>2011-05-18T16:22:26Z</time>
      </trkpt>
      <trkpt lat="44.34277" lon="2.53676">
        <ele>564.5</ele>
        <time>2011-05-18T16:22:28Z</time>
      </trkpt>
      <trkpt lat="44.34273" lon="2.53672">
        <ele>565.4</ele>
        <time>2011-05-18T16:22:31Z</time>
      </trkpt>
      <trkpt lat="44.34272" lon="2.53671">
        <ele>565.8</ele>
        <time>2011-05-18T16:22:32Z</time>
      </trkpt>
      <trkpt lat="44.34267" lon="2.53666">
        <ele>567.3</ele>
        <time>2011-05-18T16:22:37Z</time>
      </trkpt>
      <trkpt lat="44.34265" lon="2.53662">
        <ele>568.3</ele>
        <time>2011-05-18T16:22:40Z</time>
      </trkpt>
      <trkpt lat="44.34262" lon="2.53657">
        <ele>569.5</ele>
        <time>2011-05-18T16:22:58Z</time>
      </trkpt>
      <trkpt lat="44.34259" lon="2.53652">
        <ele>570.6</ele>
        <time>2011-05-18T16:23:20Z</time>
      </trkpt>
      <trkpt lat="44.34259" lon="2.53646">
        <ele>571.4</ele>
        <time>2011-05-18T16:23:26Z</time>
      </trkpt>
      <trkpt lat="44.34261" lon="2.53643">
        <ele>571.6</ele>
        <time>2011-05-18T16:23:29Z</time>
      </trkpt>
      <trkpt lat="44.34263" lon="2.53638">
        <ele>571.9</ele>
        <time>2011-05-18T16:23:32Z</time>
      </trkpt>
      <trkpt lat="44.34265" lon="2.53633">
        <ele>572.4</ele>
        <time>2011-05-18T16:23:35Z</time>
      </trkpt>
      <trkpt lat="44.34265" lon="2.53632">
        <ele>572.5</ele>
        <time>2011-05-18T16:23:36Z</time>
      </trkpt>
      <trkpt lat="44.34268" lon="2.53623">
        <ele>573.6</ele>
        <time>2011-05-18T16:23:42Z</time>
      </trkpt>
      <trkpt lat="44.34269" lon="2.53618">
        <ele>574.2</ele>
        <time>2011-05-18T16:23:46Z</time>
      </trkpt>
      <trkpt lat="44.3427" lon="2.53613">
        <ele>574.8</ele>
        <time>2011-05-18T16:23:50Z</time>
      </trkpt>
      <trkpt lat="44.34271" lon="2.53607">
        <ele>575.4</ele>
        <time>2011-05-18T16:23:54Z</time>
      </trkpt>
      <trkpt lat="44.34272" lon="2.53603">
        <ele>576.1</ele>
        <time>2011-05-18T16:23:57Z</time>
      </trkpt>
      <trkpt lat="44.34274" lon="2.53598">
        <ele>576.6</ele>
        <time>2011-05-18T16:24:00Z</time>
      </trkpt>
      <trkpt lat="44.34274" lon="2.53593">
        <ele>577.3</ele>
        <time>2011-05-18T16:24:03Z</time>
      </trkpt>
      <trkpt lat="44.34275" lon="2.53588">
        <ele>578</ele>
        <time>2011-05-18T16:24:06Z</time>
      </trkpt>
      <trkpt lat="44.34276" lon="2.53582">
        <ele>578.6</ele>
        <time>2011-05-18T16:24:09Z</time>
      </trkpt>
      <trkpt lat="44.34277" lon="2.53576">
        <ele>579.3</ele>
        <time>2011-05-18T16:24:12Z</time>
      </trkpt>
      <trkpt lat="44.34277" lon="2.53571">
        <ele>579.9</ele>
        <time>2011-05-18T16:24:15Z</time>
      </trkpt>
      <trkpt lat="44.34277" lon="2.53565">
        <ele>580.6</ele>
        <time>2011-05-18T16:24:18Z</time>
      </trkpt>
      <trkpt lat="44.34278" lon="2.53559">
        <ele>581.1</ele>
        <time>2011-05-18T16:24:21Z</time>
      </trkpt>
      <trkpt lat="44.34278" lon="2.53553">
        <ele>581.8</ele>
        <time>2011-05-18T16:24:24Z</time>
      </trkpt>
      <trkpt lat="44.34278" lon="2.53548">
        <ele>582.2</ele>
        <time>2011-05-18T16:24:27Z</time>
      </trkpt>
      <trkpt lat="44.34279" lon="2.53543">
        <ele>582.9</ele>
        <time>2011-05-18T16:24:30Z</time>
      </trkpt>
      <trkpt lat="44.34281" lon="2.53539">
        <ele>583.2</ele>
        <time>2011-05-18T16:24:32Z</time>
      </trkpt>
      <trkpt lat="44.34282" lon="2.53535">
        <ele>583.6</ele>
        <time>2011-05-18T16:24:34Z</time>
      </trkpt>
      <trkpt lat="44.34283" lon="2.53531">
        <ele>584</ele>
        <time>2011-05-18T16:24:36Z</time>
      </trkpt>
      <trkpt lat="44.34283" lon="2.53529">
        <ele>584.1</ele>
        <time>2011-05-18T16:24:37Z</time>
      </trkpt>
      <trkpt lat="44.34284" lon="2.5352">
        <ele>585.1</ele>
        <time>2011-05-18T16:24:42Z</time>
      </trkpt>
      <trkpt lat="44.34284" lon="2.53515">
        <ele>585.7</ele>
        <time>2011-05-18T16:24:45Z</time>
      </trkpt>
      <trkpt lat="44.34282" lon="2.53511">
        <ele>586.3</ele>
        <time>2011-05-18T16:24:47Z</time>
      </trkpt>
      <trkpt lat="44.34281" lon="2.53507">
        <ele>586.8</ele>
        <time>2011-05-18T16:24:49Z</time>
      </trkpt>
      <trkpt lat="44.34279" lon="2.53501">
        <ele>587.4</ele>
        <time>2011-05-18T16:24:52Z</time>
      </trkpt>
      <trkpt lat="44.34277" lon="2.53496">
        <ele>588</ele>
        <time>2011-05-18T16:24:55Z</time>
      </trkpt>
      <trkpt lat="44.34277" lon="2.53492">
        <ele>588.3</ele>
        <time>2011-05-18T16:24:57Z</time>
      </trkpt>
      <trkpt lat="44.34276" lon="2.53487">
        <ele>588.6</ele>
        <time>2011-05-18T16:24:59Z</time>
      </trkpt>
      <trkpt lat="44.34275" lon="2.53481">
        <ele>589.1</ele>
        <time>2011-05-18T16:25:02Z</time>
      </trkpt>
      <trkpt lat="44.34274" lon="2.53477">
        <ele>589.4</ele>
        <time>2011-05-18T16:25:04Z</time>
      </trkpt>
      <trkpt lat="44.34274" lon="2.53473">
        <ele>589.7</ele>
        <time>2011-05-18T16:25:06Z</time>
      </trkpt>
      <trkpt lat="44.34273" lon="2.53467">
        <ele>590.2</ele>
        <time>2011-05-18T16:25:09Z</time>
      </trkpt>
      <trkpt lat="44.34274" lon="2.53462">
        <ele>590.5</ele>
        <time>2011-05-18T16:25:12Z</time>
      </trkpt>
      <trkpt lat="44.34274" lon="2.53456">
        <ele>591</ele>
        <time>2011-05-18T16:25:15Z</time>
      </trkpt>
      <trkpt lat="44.34274" lon="2.53451">
        <ele>591.2</ele>
        <time>2011-05-18T16:25:17Z</time>
      </trkpt>
      <trkpt lat="44.34274" lon="2.53446">
        <ele>591.6</ele>
        <time>2011-05-18T16:25:20Z</time>
      </trkpt>
      <trkpt lat="44.34274" lon="2.5344">
        <ele>591.9</ele>
        <time>2011-05-18T16:25:23Z</time>
      </trkpt>
      <trkpt lat="44.34274" lon="2.53436">
        <ele>592.3</ele>
        <time>2011-05-18T16:25:25Z</time>
      </trkpt>
      <trkpt lat="44.34274" lon="2.53431">
        <ele>592.6</ele>
        <time>2011-05-18T16:25:27Z</time>
      </trkpt>
      <trkpt lat="44.34275" lon="2.53426">
        <ele>592.9</ele>
        <time>2011-05-18T16:25:30Z</time>
      </trkpt>
      <trkpt lat="44.34276" lon="2.53421">
        <ele>593.2</ele>
        <time>2011-05-18T16:25:32Z</time>
      </trkpt>
      <trkpt lat="44.34276" lon="2.53417">
        <ele>593.4</ele>
        <time>2011-05-18T16:25:34Z</time>
      </trkpt>
      <trkpt lat="44.34277" lon="2.53412">
        <ele>593.7</ele>
        <time>2011-05-18T16:25:36Z</time>
      </trkpt>
      <trkpt lat="44.34277" lon="2.53408">
        <ele>593.9</ele>
        <time>2011-05-18T16:25:38Z</time>
      </trkpt>
      <trkpt lat="44.34277" lon="2.53405">
        <ele>594.1</ele>
        <time>2011-05-18T16:25:39Z</time>
      </trkpt>
      <trkpt lat="44.34278" lon="2.53397">
        <ele>594.5</ele>
        <time>2011-05-18T16:25:43Z</time>
      </trkpt>
      <trkpt lat="44.34279" lon="2.53392">
        <ele>594.8</ele>
        <time>2011-05-18T16:25:45Z</time>
      </trkpt>
      <trkpt lat="44.34279" lon="2.53388">
        <ele>595</ele>
        <time>2011-05-18T16:25:47Z</time>
      </trkpt>
      <trkpt lat="44.3428" lon="2.53383">
        <ele>595.2</ele>
        <time>2011-05-18T16:25:49Z</time>
      </trkpt>
      <trkpt lat="44.34281" lon="2.53378">
        <ele>595.4</ele>
        <time>2011-05-18T16:25:51Z</time>
      </trkpt>
      <trkpt lat="44.34281" lon="2.53373">
        <ele>595.7</ele>
        <time>2011-05-18T16:25:53Z</time>
      </trkpt>
      <trkpt lat="44.34283" lon="2.53369">
        <ele>595.8</ele>
        <time>2011-05-18T16:25:55Z</time>
      </trkpt>
      <trkpt lat="44.34283" lon="2.53363">
        <ele>596.1</ele>
        <time>2011-05-18T16:25:57Z</time>
      </trkpt>
      <trkpt lat="44.34284" lon="2.53358">
        <ele>596.4</ele>
        <time>2011-05-18T16:25:59Z</time>
      </trkpt>
      <trkpt lat="44.34285" lon="2.53352">
        <ele>596.6</ele>
        <time>2011-05-18T16:26:01Z</time>
      </trkpt>
      <trkpt lat="44.34285" lon="2.53349">
        <ele>596.7</ele>
        <time>2011-05-18T16:26:02Z</time>
      </trkpt>
      <trkpt lat="44.34286" lon="2.53346">
        <ele>596.9</ele>
        <time>2011-05-18T16:26:03Z</time>
      </trkpt>
      <trkpt lat="44.34286" lon="2.53343">
        <ele>597</ele>
        <time>2011-05-18T16:26:04Z</time>
      </trkpt>
      <trkpt lat="44.34287" lon="2.53339">
        <ele>597.2</ele>
        <time>2011-05-18T16:26:05Z</time>
      </trkpt>
      <trkpt lat="44.34287" lon="2.53335">
        <ele>597.3</ele>
        <time>2011-05-18T16:26:06Z</time>
      </trkpt>
      <trkpt lat="44.34288" lon="2.53332">
        <ele>597.3</ele>
        <time>2011-05-18T16:26:07Z</time>
      </trkpt>
      <trkpt lat="44.34289" lon="2.53328">
        <ele>597.1</ele>
        <time>2011-05-18T16:26:08Z</time>
      </trkpt>
      <trkpt lat="44.34289" lon="2.53325">
        <ele>596.9</ele>
        <time>2011-05-18T16:26:09Z</time>
      </trkpt>
      <trkpt lat="44.3429" lon="2.53321">
        <ele>596.8</ele>
        <time>2011-05-18T16:26:10Z</time>
      </trkpt>
      <trkpt lat="44.3429" lon="2.53316">
        <ele>596.6</ele>
        <time>2011-05-18T16:26:11Z</time>
      </trkpt>
      <trkpt lat="44.3429" lon="2.53312">
        <ele>596.5</ele>
        <time>2011-05-18T16:26:12Z</time>
      </trkpt>
      <trkpt lat="44.34289" lon="2.53309">
        <ele>596.5</ele>
        <time>2011-05-18T16:26:13Z</time>
      </trkpt>
      <trkpt lat="44.34287" lon="2.53305">
        <ele>596.6</ele>
        <time>2011-05-18T16:26:14Z</time>
      </trkpt>
      <trkpt lat="44.34285" lon="2.53303">
        <ele>596.7</ele>
        <time>2011-05-18T16:26:15Z</time>
      </trkpt>
      <trkpt lat="44.34284" lon="2.53301">
        <ele>596.8</ele>
        <time>2011-05-18T16:26:16Z</time>
      </trkpt>
      <trkpt lat="44.34282" lon="2.53298">
        <ele>597</ele>
        <time>2011-05-18T16:26:17Z</time>
      </trkpt>
      <trkpt lat="44.34278" lon="2.53295">
        <ele>597.2</ele>
        <time>2011-05-18T16:26:19Z</time>
      </trkpt>
      <trkpt lat="44.34275" lon="2.53291">
        <ele>597.4</ele>
        <time>2011-05-18T16:26:21Z</time>
      </trkpt>
      <trkpt lat="44.34273" lon="2.53289">
        <ele>597.6</ele>
        <time>2011-05-18T16:26:22Z</time>
      </trkpt>
      <trkpt lat="44.34271" lon="2.53288">
        <ele>597.8</ele>
        <time>2011-05-18T16:26:23Z</time>
      </trkpt>
      <trkpt lat="44.34269" lon="2.53286">
        <ele>597.9</ele>
        <time>2011-05-18T16:26:24Z</time>
      </trkpt>
      <trkpt lat="44.34267" lon="2.53284">
        <ele>598</ele>
        <time>2011-05-18T16:26:25Z</time>
      </trkpt>
      <trkpt lat="44.34265" lon="2.53281">
        <ele>598.2</ele>
        <time>2011-05-18T16:26:26Z</time>
      </trkpt>
      <trkpt lat="44.34263" lon="2.53279">
        <ele>598.3</ele>
        <time>2011-05-18T16:26:27Z</time>
      </trkpt>
      <trkpt lat="44.34261" lon="2.53276">
        <ele>598.4</ele>
        <time>2011-05-18T16:26:28Z</time>
      </trkpt>
      <trkpt lat="44.3426" lon="2.53274">
        <ele>598.5</ele>
        <time>2011-05-18T16:26:29Z</time>
      </trkpt>
      <trkpt lat="44.34258" lon="2.53271">
        <ele>598.6</ele>
        <time>2011-05-18T16:26:30Z</time>
      </trkpt>
      <trkpt lat="44.34256" lon="2.53268">
        <ele>598.7</ele>
        <time>2011-05-18T16:26:31Z</time>
      </trkpt>
      <trkpt lat="44.34255" lon="2.53265">
        <ele>598.9</ele>
        <time>2011-05-18T16:26:32Z</time>
      </trkpt>
      <trkpt lat="44.34253" lon="2.53262">
        <ele>599</ele>
        <time>2011-05-18T16:26:33Z</time>
      </trkpt>
      <trkpt lat="44.34251" lon="2.53259">
        <ele>599.1</ele>
        <time>2011-05-18T16:26:34Z</time>
      </trkpt>
      <trkpt lat="44.34249" lon="2.53255">
        <ele>599.2</ele>
        <time>2011-05-18T16:26:35Z</time>
      </trkpt>
      <trkpt lat="44.34247" lon="2.53252">
        <ele>599.3</ele>
        <time>2011-05-18T16:26:36Z</time>
      </trkpt>
      <trkpt lat="44.34246" lon="2.53249">
        <ele>599.4</ele>
        <time>2011-05-18T16:26:37Z</time>
      </trkpt>
      <trkpt lat="44.34244" lon="2.53246">
        <ele>599.4</ele>
        <time>2011-05-18T16:26:38Z</time>
      </trkpt>
      <trkpt lat="44.34243" lon="2.53243">
        <ele>599.5</ele>
        <time>2011-05-18T16:26:39Z</time>
      </trkpt>
      <trkpt lat="44.34242" lon="2.53239">
        <ele>599.5</ele>
        <time>2011-05-18T16:26:40Z</time>
      </trkpt>
      <trkpt lat="44.3424" lon="2.53236">
        <ele>599.6</ele>
        <time>2011-05-18T16:26:41Z</time>
      </trkpt>
      <trkpt lat="44.34239" lon="2.53233">
        <ele>599.7</ele>
        <time>2011-05-18T16:26:42Z</time>
      </trkpt>
      <trkpt lat="44.34238" lon="2.5323">
        <ele>599.8</ele>
        <time>2011-05-18T16:26:43Z</time>
      </trkpt>
      <trkpt lat="44.34236" lon="2.53228">
        <ele>599.9</ele>
        <time>2011-05-18T16:26:44Z</time>
      </trkpt>
      <trkpt lat="44.34233" lon="2.53223">
        <ele>600</ele>
        <time>2011-05-18T16:26:46Z</time>
      </trkpt>
      <trkpt lat="44.34231" lon="2.53221">
        <ele>600.2</ele>
        <time>2011-05-18T16:26:47Z</time>
      </trkpt>
      <trkpt lat="44.34229" lon="2.53219">
        <ele>600.3</ele>
        <time>2011-05-18T16:26:48Z</time>
      </trkpt>
      <trkpt lat="44.34227" lon="2.53216">
        <ele>600.5</ele>
        <time>2011-05-18T16:26:49Z</time>
      </trkpt>
      <trkpt lat="44.34225" lon="2.53214">
        <ele>600.6</ele>
        <time>2011-05-18T16:26:50Z</time>
      </trkpt>
      <trkpt lat="44.34223" lon="2.53212">
        <ele>600.8</ele>
        <time>2011-05-18T16:26:51Z</time>
      </trkpt>
      <trkpt lat="44.34221" lon="2.53209">
        <ele>600.9</ele>
        <time>2011-05-18T16:26:52Z</time>
      </trkpt>
      <trkpt lat="44.34219" lon="2.53207">
        <ele>601.1</ele>
        <time>2011-05-18T16:26:53Z</time>
      </trkpt>
      <trkpt lat="44.34217" lon="2.53204">
        <ele>601.3</ele>
        <time>2011-05-18T16:26:54Z</time>
      </trkpt>
      <trkpt lat="44.34215" lon="2.53201">
        <ele>601.4</ele>
        <time>2011-05-18T16:26:55Z</time>
      </trkpt>
      <trkpt lat="44.34213" lon="2.53199">
        <ele>601.6</ele>
        <time>2011-05-18T16:26:56Z</time>
      </trkpt>
      <trkpt lat="44.3421" lon="2.53197">
        <ele>601.8</ele>
        <time>2011-05-18T16:26:57Z</time>
      </trkpt>
      <trkpt lat="44.34208" lon="2.53194">
        <ele>602</ele>
        <time>2011-05-18T16:26:58Z</time>
      </trkpt>
      <trkpt lat="44.34207" lon="2.53192">
        <ele>602.1</ele>
        <time>2011-05-18T16:26:59Z</time>
      </trkpt>
      <trkpt lat="44.34205" lon="2.5319">
        <ele>602.2</ele>
        <time>2011-05-18T16:27:00Z</time>
      </trkpt>
      <trkpt lat="44.34204" lon="2.53187">
        <ele>602.4</ele>
        <time>2011-05-18T16:27:01Z</time>
      </trkpt>
      <trkpt lat="44.34201" lon="2.53184">
        <ele>602.5</ele>
        <time>2011-05-18T16:27:02Z</time>
      </trkpt>
      <trkpt lat="44.34199" lon="2.53182">
        <ele>602.7</ele>
        <time>2011-05-18T16:27:03Z</time>
      </trkpt>
      <trkpt lat="44.34197" lon="2.53179">
        <ele>602.9</ele>
        <time>2011-05-18T16:27:04Z</time>
      </trkpt>
      <trkpt lat="44.34196" lon="2.53175">
        <ele>603</ele>
        <time>2011-05-18T16:27:05Z</time>
      </trkpt>
      <trkpt lat="44.34194" lon="2.53172">
        <ele>603.1</ele>
        <time>2011-05-18T16:27:06Z</time>
      </trkpt>
      <trkpt lat="44.34193" lon="2.53169">
        <ele>603.1</ele>
        <time>2011-05-18T16:27:07Z</time>
      </trkpt>
      <trkpt lat="44.34192" lon="2.53165">
        <ele>603.3</ele>
        <time>2011-05-18T16:27:08Z</time>
      </trkpt>
      <trkpt lat="44.34191" lon="2.53162">
        <ele>603.5</ele>
        <time>2011-05-18T16:27:09Z</time>
      </trkpt>
      <trkpt lat="44.3419" lon="2.53158">
        <ele>603.6</ele>
        <time>2011-05-18T16:27:10Z</time>
      </trkpt>
      <trkpt lat="44.34188" lon="2.53155">
        <ele>603.7</ele>
        <time>2011-05-18T16:27:11Z</time>
      </trkpt>
      <trkpt lat="44.34187" lon="2.53151">
        <ele>603.8</ele>
        <time>2011-05-18T16:27:12Z</time>
      </trkpt>
      <trkpt lat="44.34186" lon="2.53148">
        <ele>604</ele>
        <time>2011-05-18T16:27:13Z</time>
      </trkpt>
      <trkpt lat="44.34184" lon="2.53145">
        <ele>604.2</ele>
        <time>2011-05-18T16:27:14Z</time>
      </trkpt>
      <trkpt lat="44.34183" lon="2.53141">
        <ele>604.3</ele>
        <time>2011-05-18T16:27:15Z</time>
      </trkpt>
      <trkpt lat="44.34181" lon="2.53138">
        <ele>604.5</ele>
        <time>2011-05-18T16:27:16Z</time>
      </trkpt>
      <trkpt lat="44.3418" lon="2.53135">
        <ele>604.7</ele>
        <time>2011-05-18T16:27:17Z</time>
      </trkpt>
      <trkpt lat="44.34178" lon="2.53131">
        <ele>604.8</ele>
        <time>2011-05-18T16:27:18Z</time>
      </trkpt>
      <trkpt lat="44.34177" lon="2.53128">
        <ele>604.9</ele>
        <time>2011-05-18T16:27:19Z</time>
      </trkpt>
      <trkpt lat="44.34176" lon="2.53124">
        <ele>605.1</ele>
        <time>2011-05-18T16:27:20Z</time>
      </trkpt>
      <trkpt lat="44.34174" lon="2.5312">
        <ele>605.2</ele>
        <time>2011-05-18T16:27:21Z</time>
      </trkpt>
      <trkpt lat="44.34173" lon="2.53115">
        <ele>605.3</ele>
        <time>2011-05-18T16:27:22Z</time>
      </trkpt>
      <trkpt lat="44.34172" lon="2.53111">
        <ele>605.4</ele>
        <time>2011-05-18T16:27:23Z</time>
      </trkpt>
      <trkpt lat="44.34172" lon="2.53106">
        <ele>605.5</ele>
        <time>2011-05-18T16:27:24Z</time>
      </trkpt>
      <trkpt lat="44.34171" lon="2.53101">
        <ele>605.5</ele>
        <time>2011-05-18T16:27:25Z</time>
      </trkpt>
      <trkpt lat="44.34171" lon="2.53097">
        <ele>605.5</ele>
        <time>2011-05-18T16:27:26Z</time>
      </trkpt>
      <trkpt lat="44.34172" lon="2.53092">
        <ele>605.5</ele>
        <time>2011-05-18T16:27:27Z</time>
      </trkpt>
      <trkpt lat="44.34172" lon="2.53088">
        <ele>605.5</ele>
        <time>2011-05-18T16:27:28Z</time>
      </trkpt>
      <trkpt lat="44.34172" lon="2.53084">
        <ele>605.5</ele>
        <time>2011-05-18T16:27:29Z</time>
      </trkpt>
      <trkpt lat="44.34172" lon="2.53079">
        <ele>605.5</ele>
        <time>2011-05-18T16:27:30Z</time>
      </trkpt>
      <trkpt lat="44.34172" lon="2.53075">
        <ele>605.6</ele>
        <time>2011-05-18T16:27:31Z</time>
      </trkpt>
      <trkpt lat="44.34173" lon="2.5307">
        <ele>605.6</ele>
        <time>2011-05-18T16:27:32Z</time>
      </trkpt>
      <trkpt lat="44.34173" lon="2.53066">
        <ele>605.7</ele>
        <time>2011-05-18T16:27:33Z</time>
      </trkpt>
      <trkpt lat="44.34174" lon="2.53061">
        <ele>605.7</ele>
        <time>2011-05-18T16:27:34Z</time>
      </trkpt>
      <trkpt lat="44.34174" lon="2.53057">
        <ele>605.7</ele>
        <time>2011-05-18T16:27:35Z</time>
      </trkpt>
      <trkpt lat="44.34175" lon="2.53053">
        <ele>605.8</ele>
        <time>2011-05-18T16:27:36Z</time>
      </trkpt>
      <trkpt lat="44.34175" lon="2.53049">
        <ele>605.8</ele>
        <time>2011-05-18T16:27:37Z</time>
      </trkpt>
      <trkpt lat="44.34176" lon="2.53045">
        <ele>605.8</ele>
        <time>2011-05-18T16:27:38Z</time>
      </trkpt>
      <trkpt lat="44.34177" lon="2.53041">
        <ele>605.8</ele>
        <time>2011-05-18T16:27:39Z</time>
      </trkpt>
      <trkpt lat="44.34177" lon="2.53037">
        <ele>605.9</ele>
        <time>2011-05-18T16:27:40Z</time>
      </trkpt>
      <trkpt lat="44.34177" lon="2.53032">
        <ele>605.9</ele>
        <time>2011-05-18T16:27:41Z</time>
      </trkpt>
      <trkpt lat="44.34178" lon="2.53028">
        <ele>606</ele>
        <time>2011-05-18T16:27:42Z</time>
      </trkpt>
      <trkpt lat="44.34179" lon="2.53023">
        <ele>606</ele>
        <time>2011-05-18T16:27:43Z</time>
      </trkpt>
      <trkpt lat="44.34179" lon="2.53019">
        <ele>606</ele>
        <time>2011-05-18T16:27:44Z</time>
      </trkpt>
      <trkpt lat="44.3418" lon="2.53014">
        <ele>606.1</ele>
        <time>2011-05-18T16:27:45Z</time>
      </trkpt>
      <trkpt lat="44.3418" lon="2.5301">
        <ele>606.2</ele>
        <time>2011-05-18T16:27:46Z</time>
      </trkpt>
      <trkpt lat="44.3418" lon="2.53005">
        <ele>606.2</ele>
        <time>2011-05-18T16:27:47Z</time>
      </trkpt>
      <trkpt lat="44.34181" lon="2.53001">
        <ele>606.3</ele>
        <time>2011-05-18T16:27:48Z</time>
      </trkpt>
      <trkpt lat="44.34182" lon="2.52996">
        <ele>606.3</ele>
        <time>2011-05-18T16:27:49Z</time>
      </trkpt>
      <trkpt lat="44.34182" lon="2.52991">
        <ele>606.4</ele>
        <time>2011-05-18T16:27:50Z</time>
      </trkpt>
      <trkpt lat="44.34183" lon="2.52986">
        <ele>606.4</ele>
        <time>2011-05-18T16:27:51Z</time>
      </trkpt>
      <trkpt lat="44.34184" lon="2.52982">
        <ele>606.5</ele>
        <time>2011-05-18T16:27:52Z</time>
      </trkpt>
      <trkpt lat="44.34185" lon="2.52977">
        <ele>606.5</ele>
        <time>2011-05-18T16:27:53Z</time>
      </trkpt>
      <trkpt lat="44.34186" lon="2.52972">
        <ele>606.5</ele>
        <time>2011-05-18T16:27:54Z</time>
      </trkpt>
      <trkpt lat="44.34187" lon="2.52967">
        <ele>606.5</ele>
        <time>2011-05-18T16:27:55Z</time>
      </trkpt>
      <trkpt lat="44.34189" lon="2.52963">
        <ele>606.5</ele>
        <time>2011-05-18T16:27:56Z</time>
      </trkpt>
      <trkpt lat="44.34191" lon="2.52958">
        <ele>606.5</ele>
        <time>2011-05-18T16:27:57Z</time>
      </trkpt>
      <trkpt lat="44.34193" lon="2.52953">
        <ele>606.5</ele>
        <time>2011-05-18T16:27:58Z</time>
      </trkpt>
      <trkpt lat="44.34195" lon="2.52948">
        <ele>606.5</ele>
        <time>2011-05-18T16:27:59Z</time>
      </trkpt>
      <trkpt lat="44.34198" lon="2.52943">
        <ele>606.4</ele>
        <time>2011-05-18T16:28:00Z</time>
      </trkpt>
      <trkpt lat="44.34201" lon="2.52939">
        <ele>606.4</ele>
        <time>2011-05-18T16:28:01Z</time>
      </trkpt>
      <trkpt lat="44.34203" lon="2.52935">
        <ele>606.4</ele>
        <time>2011-05-18T16:28:02Z</time>
      </trkpt>
      <trkpt lat="44.34206" lon="2.5293">
        <ele>606.4</ele>
        <time>2011-05-18T16:28:03Z</time>
      </trkpt>
      <trkpt lat="44.34209" lon="2.52925">
        <ele>606.3</ele>
        <time>2011-05-18T16:28:04Z</time>
      </trkpt>
      <trkpt lat="44.34211" lon="2.52921">
        <ele>606.3</ele>
        <time>2011-05-18T16:28:05Z</time>
      </trkpt>
      <trkpt lat="44.34214" lon="2.52916">
        <ele>606.3</ele>
        <time>2011-05-18T16:28:06Z</time>
      </trkpt>
      <trkpt lat="44.34217" lon="2.52912">
        <ele>606.2</ele>
        <time>2011-05-18T16:28:07Z</time>
      </trkpt>
      <trkpt lat="44.3422" lon="2.52908">
        <ele>606.2</ele>
        <time>2011-05-18T16:28:08Z</time>
      </trkpt>
      <trkpt lat="44.34224" lon="2.52904">
        <ele>606.2</ele>
        <time>2011-05-18T16:28:09Z</time>
      </trkpt>
      <trkpt lat="44.34227" lon="2.529">
        <ele>606.2</ele>
        <time>2011-05-18T16:28:10Z</time>
      </trkpt>
      <trkpt lat="44.3423" lon="2.52895">
        <ele>606.3</ele>
        <time>2011-05-18T16:28:11Z</time>
      </trkpt>
      <trkpt lat="44.34233" lon="2.52891">
        <ele>606.4</ele>
        <time>2011-05-18T16:28:12Z</time>
      </trkpt>
      <trkpt lat="44.34236" lon="2.52887">
        <ele>606.5</ele>
        <time>2011-05-18T16:28:13Z</time>
      </trkpt>
      <trkpt lat="44.34239" lon="2.52882">
        <ele>606.6</ele>
        <time>2011-05-18T16:28:14Z</time>
      </trkpt>
      <trkpt lat="44.34242" lon="2.52878">
        <ele>606.8</ele>
        <time>2011-05-18T16:28:15Z</time>
      </trkpt>
      <trkpt lat="44.34246" lon="2.52873">
        <ele>607.1</ele>
        <time>2011-05-18T16:28:16Z</time>
      </trkpt>
      <trkpt lat="44.34249" lon="2.52868">
        <ele>607.3</ele>
        <time>2011-05-18T16:28:17Z</time>
      </trkpt>
      <trkpt lat="44.34252" lon="2.52864">
        <ele>607.6</ele>
        <time>2011-05-18T16:28:18Z</time>
      </trkpt>
      <trkpt lat="44.34255" lon="2.5286">
        <ele>607.9</ele>
        <time>2011-05-18T16:28:19Z</time>
      </trkpt>
      <trkpt lat="44.34258" lon="2.52856">
        <ele>608.1</ele>
        <time>2011-05-18T16:28:20Z</time>
      </trkpt>
      <trkpt lat="44.34262" lon="2.52852">
        <ele>608.4</ele>
        <time>2011-05-18T16:28:21Z</time>
      </trkpt>
      <trkpt lat="44.34265" lon="2.52848">
        <ele>608.6</ele>
        <time>2011-05-18T16:28:22Z</time>
      </trkpt>
      <trkpt lat="44.34269" lon="2.52844">
        <ele>608.9</ele>
        <time>2011-05-18T16:28:23Z</time>
      </trkpt>
      <trkpt lat="44.34272" lon="2.52841">
        <ele>609.2</ele>
        <time>2011-05-18T16:28:24Z</time>
      </trkpt>
      <trkpt lat="44.34276" lon="2.52837">
        <ele>609.4</ele>
        <time>2011-05-18T16:28:25Z</time>
      </trkpt>
      <trkpt lat="44.3428" lon="2.52835">
        <ele>609.6</ele>
        <time>2011-05-18T16:28:26Z</time>
      </trkpt>
      <trkpt lat="44.34283" lon="2.52832">
        <ele>609.8</ele>
        <time>2011-05-18T16:28:27Z</time>
      </trkpt>
      <trkpt lat="44.34287" lon="2.52828">
        <ele>609.9</ele>
        <time>2011-05-18T16:28:28Z</time>
      </trkpt>
      <trkpt lat="44.3429" lon="2.52825">
        <ele>610.1</ele>
        <time>2011-05-18T16:28:29Z</time>
      </trkpt>
      <trkpt lat="44.34293" lon="2.52822">
        <ele>610.2</ele>
        <time>2011-05-18T16:28:30Z</time>
      </trkpt>
      <trkpt lat="44.34296" lon="2.5282">
        <ele>610.3</ele>
        <time>2011-05-18T16:28:31Z</time>
      </trkpt>
      <trkpt lat="44.34299" lon="2.52816">
        <ele>610.4</ele>
        <time>2011-05-18T16:28:32Z</time>
      </trkpt>
      <trkpt lat="44.34302" lon="2.52813">
        <ele>610.6</ele>
        <time>2011-05-18T16:28:33Z</time>
      </trkpt>
      <trkpt lat="44.34304" lon="2.52809">
        <ele>610.7</ele>
        <time>2011-05-18T16:28:34Z</time>
      </trkpt>
      <trkpt lat="44.34306" lon="2.52805">
        <ele>610.8</ele>
        <time>2011-05-18T16:28:35Z</time>
      </trkpt>
      <trkpt lat="44.34307" lon="2.528">
        <ele>610.9</ele>
        <time>2011-05-18T16:28:36Z</time>
      </trkpt>
      <trkpt lat="44.34309" lon="2.52795">
        <ele>611.1</ele>
        <time>2011-05-18T16:28:37Z</time>
      </trkpt>
      <trkpt lat="44.3431" lon="2.5279">
        <ele>611.2</ele>
        <time>2011-05-18T16:28:38Z</time>
      </trkpt>
      <trkpt lat="44.34312" lon="2.52785">
        <ele>611.3</ele>
        <time>2011-05-18T16:28:39Z</time>
      </trkpt>
      <trkpt lat="44.34313" lon="2.5278">
        <ele>611.5</ele>
        <time>2011-05-18T16:28:40Z</time>
      </trkpt>
      <trkpt lat="44.34314" lon="2.52775">
        <ele>611.6</ele>
        <time>2011-05-18T16:28:41Z</time>
      </trkpt>
      <trkpt lat="44.34316" lon="2.5277">
        <ele>611.8</ele>
        <time>2011-05-18T16:28:42Z</time>
      </trkpt>
      <trkpt lat="44.34317" lon="2.52765">
        <ele>611.9</ele>
        <time>2011-05-18T16:28:43Z</time>
      </trkpt>
      <trkpt lat="44.34318" lon="2.5276">
        <ele>612.1</ele>
        <time>2011-05-18T16:28:44Z</time>
      </trkpt>
      <trkpt lat="44.3432" lon="2.52755">
        <ele>612.2</ele>
        <time>2011-05-18T16:28:45Z</time>
      </trkpt>
      <trkpt lat="44.34321" lon="2.5275">
        <ele>612.4</ele>
        <time>2011-05-18T16:28:46Z</time>
      </trkpt>
      <trkpt lat="44.34323" lon="2.52745">
        <ele>612.5</ele>
        <time>2011-05-18T16:28:47Z</time>
      </trkpt>
      <trkpt lat="44.34324" lon="2.5274">
        <ele>612.6</ele>
        <time>2011-05-18T16:28:48Z</time>
      </trkpt>
      <trkpt lat="44.34325" lon="2.52735">
        <ele>612.6</ele>
        <time>2011-05-18T16:28:49Z</time>
      </trkpt>
      <trkpt lat="44.34327" lon="2.5273">
        <ele>612.7</ele>
        <time>2011-05-18T16:28:50Z</time>
      </trkpt>
      <trkpt lat="44.34328" lon="2.52726">
        <ele>612.7</ele>
        <time>2011-05-18T16:28:51Z</time>
      </trkpt>
      <trkpt lat="44.34328" lon="2.52721">
        <ele>612.8</ele>
        <time>2011-05-18T16:28:52Z</time>
      </trkpt>
      <trkpt lat="44.34329" lon="2.52716">
        <ele>612.8</ele>
        <time>2011-05-18T16:28:53Z</time>
      </trkpt>
      <trkpt lat="44.3433" lon="2.52711">
        <ele>612.9</ele>
        <time>2011-05-18T16:28:54Z</time>
      </trkpt>
      <trkpt lat="44.34331" lon="2.52706">
        <ele>612.9</ele>
        <time>2011-05-18T16:28:55Z</time>
      </trkpt>
      <trkpt lat="44.34332" lon="2.52701">
        <ele>612.9</ele>
        <time>2011-05-18T16:28:56Z</time>
      </trkpt>
      <trkpt lat="44.34333" lon="2.52696">
        <ele>613</ele>
        <time>2011-05-18T16:28:57Z</time>
      </trkpt>
      <trkpt lat="44.34334" lon="2.52691">
        <ele>613</ele>
        <time>2011-05-18T16:28:58Z</time>
      </trkpt>
      <trkpt lat="44.34334" lon="2.52686">
        <ele>613</ele>
        <time>2011-05-18T16:28:59Z</time>
      </trkpt>
      <trkpt lat="44.34335" lon="2.5268">
        <ele>613</ele>
        <time>2011-05-18T16:29:00Z</time>
      </trkpt>
      <trkpt lat="44.34336" lon="2.52675">
        <ele>612.9</ele>
        <time>2011-05-18T16:29:01Z</time>
      </trkpt>
      <trkpt lat="44.34336" lon="2.52669">
        <ele>612.9</ele>
        <time>2011-05-18T16:29:02Z</time>
      </trkpt>
      <trkpt lat="44.34336" lon="2.52663">
        <ele>612.8</ele>
        <time>2011-05-18T16:29:03Z</time>
      </trkpt>
      <trkpt lat="44.34337" lon="2.52657">
        <ele>612.6</ele>
        <time>2011-05-18T16:29:04Z</time>
      </trkpt>
      <trkpt lat="44.34337" lon="2.52651">
        <ele>612.3</ele>
        <time>2011-05-18T16:29:05Z</time>
      </trkpt>
      <trkpt lat="44.34338" lon="2.52645">
        <ele>612.1</ele>
        <time>2011-05-18T16:29:06Z</time>
      </trkpt>
      <trkpt lat="44.34338" lon="2.52638">
        <ele>611.9</ele>
        <time>2011-05-18T16:29:07Z</time>
      </trkpt>
      <trkpt lat="44.34339" lon="2.52632">
        <ele>611.7</ele>
        <time>2011-05-18T16:29:08Z</time>
      </trkpt>
      <trkpt lat="44.3434" lon="2.52625">
        <ele>611.4</ele>
        <time>2011-05-18T16:29:09Z</time>
      </trkpt>
      <trkpt lat="44.34341" lon="2.52618">
        <ele>611.2</ele>
        <time>2011-05-18T16:29:10Z</time>
      </trkpt>
      <trkpt lat="44.34342" lon="2.52611">
        <ele>611</ele>
        <time>2011-05-18T16:29:11Z</time>
      </trkpt>
      <trkpt lat="44.34343" lon="2.52604">
        <ele>610.7</ele>
        <time>2011-05-18T16:29:12Z</time>
      </trkpt>
      <trkpt lat="44.34345" lon="2.52597">
        <ele>610.5</ele>
        <time>2011-05-18T16:29:13Z</time>
      </trkpt>
      <trkpt lat="44.34347" lon="2.5259">
        <ele>610.4</ele>
        <time>2011-05-18T16:29:14Z</time>
      </trkpt>
      <trkpt lat="44.34349" lon="2.52583">
        <ele>610.2</ele>
        <time>2011-05-18T16:29:15Z</time>
      </trkpt>
      <trkpt lat="44.34352" lon="2.52576">
        <ele>610.1</ele>
        <time>2011-05-18T16:29:16Z</time>
      </trkpt>
      <trkpt lat="44.34355" lon="2.52569">
        <ele>610.1</ele>
        <time>2011-05-18T16:29:17Z</time>
      </trkpt>
      <trkpt lat="44.34358" lon="2.52562">
        <ele>610</ele>
        <time>2011-05-18T16:29:18Z</time>
      </trkpt>
      <trkpt lat="44.34361" lon="2.52556">
        <ele>610</ele>
        <time>2011-05-18T16:29:19Z</time>
      </trkpt>
      <trkpt lat="44.34365" lon="2.52549">
        <ele>610</ele>
        <time>2011-05-18T16:29:20Z</time>
      </trkpt>
      <trkpt lat="44.34368" lon="2.52543">
        <ele>609.9</ele>
        <time>2011-05-18T16:29:21Z</time>
      </trkpt>
      <trkpt lat="44.34371" lon="2.52537">
        <ele>609.9</ele>
        <time>2011-05-18T16:29:22Z</time>
      </trkpt>
      <trkpt lat="44.34374" lon="2.52531">
        <ele>609.8</ele>
        <time>2011-05-18T16:29:23Z</time>
      </trkpt>
      <trkpt lat="44.34377" lon="2.52525">
        <ele>609.8</ele>
        <time>2011-05-18T16:29:24Z</time>
      </trkpt>
      <trkpt lat="44.3438" lon="2.52519">
        <ele>609.8</ele>
        <time>2011-05-18T16:29:25Z</time>
      </trkpt>
      <trkpt lat="44.34383" lon="2.52514">
        <ele>609.8</ele>
        <time>2011-05-18T16:29:26Z</time>
      </trkpt>
      <trkpt lat="44.34386" lon="2.52509">
        <ele>609.7</ele>
        <time>2011-05-18T16:29:27Z</time>
      </trkpt>
      <trkpt lat="44.34388" lon="2.52504">
        <ele>609.7</ele>
        <time>2011-05-18T16:29:28Z</time>
      </trkpt>
      <trkpt lat="44.34391" lon="2.52498">
        <ele>609.7</ele>
        <time>2011-05-18T16:29:29Z</time>
      </trkpt>
      <trkpt lat="44.34393" lon="2.52493">
        <ele>609.6</ele>
        <time>2011-05-18T16:29:30Z</time>
      </trkpt>
      <trkpt lat="44.34395" lon="2.52488">
        <ele>609.6</ele>
        <time>2011-05-18T16:29:31Z</time>
      </trkpt>
      <trkpt lat="44.34398" lon="2.52482">
        <ele>609.6</ele>
        <time>2011-05-18T16:29:32Z</time>
      </trkpt>
      <trkpt lat="44.34399" lon="2.52476">
        <ele>609.6</ele>
        <time>2011-05-18T16:29:33Z</time>
      </trkpt>
      <trkpt lat="44.34401" lon="2.5247">
        <ele>609.6</ele>
        <time>2011-05-18T16:29:34Z</time>
      </trkpt>
      <trkpt lat="44.34402" lon="2.52464">
        <ele>609.6</ele>
        <time>2011-05-18T16:29:35Z</time>
      </trkpt>
      <trkpt lat="44.34404" lon="2.52458">
        <ele>609.6</ele>
        <time>2011-05-18T16:29:36Z</time>
      </trkpt>
      <trkpt lat="44.34405" lon="2.52452">
        <ele>609.6</ele>
        <time>2011-05-18T16:29:37Z</time>
      </trkpt>
      <trkpt lat="44.34406" lon="2.52445">
        <ele>609.6</ele>
        <time>2011-05-18T16:29:38Z</time>
      </trkpt>
      <trkpt lat="44.34408" lon="2.52439">
        <ele>609.7</ele>
        <time>2011-05-18T16:29:39Z</time>
      </trkpt>
      <trkpt lat="44.34409" lon="2.52432">
        <ele>609.7</ele>
        <time>2011-05-18T16:29:40Z</time>
      </trkpt>
      <trkpt lat="44.3441" lon="2.52426">
        <ele>609.7</ele>
        <time>2011-05-18T16:29:41Z</time>
      </trkpt>
      <trkpt lat="44.34411" lon="2.52419">
        <ele>609.7</ele>
        <time>2011-05-18T16:29:42Z</time>
      </trkpt>
      <trkpt lat="44.34411" lon="2.52413">
        <ele>609.7</ele>
        <time>2011-05-18T16:29:43Z</time>
      </trkpt>
      <trkpt lat="44.34412" lon="2.52406">
        <ele>609.8</ele>
        <time>2011-05-18T16:29:44Z</time>
      </trkpt>
      <trkpt lat="44.34412" lon="2.524">
        <ele>609.8</ele>
        <time>2011-05-18T16:29:45Z</time>
      </trkpt>
      <trkpt lat="44.34413" lon="2.52394">
        <ele>609.8</ele>
        <time>2011-05-18T16:29:46Z</time>
      </trkpt>
      <trkpt lat="44.34413" lon="2.52387">
        <ele>609.8</ele>
        <time>2011-05-18T16:29:47Z</time>
      </trkpt>
      <trkpt lat="44.34413" lon="2.52381">
        <ele>609.8</ele>
        <time>2011-05-18T16:29:48Z</time>
      </trkpt>
      <trkpt lat="44.34414" lon="2.52375">
        <ele>609.8</ele>
        <time>2011-05-18T16:29:49Z</time>
      </trkpt>
      <trkpt lat="44.34414" lon="2.52369">
        <ele>609.8</ele>
        <time>2011-05-18T16:29:50Z</time>
      </trkpt>
      <trkpt lat="44.34414" lon="2.52363">
        <ele>609.8</ele>
        <time>2011-05-18T16:29:51Z</time>
      </trkpt>
      <trkpt lat="44.34414" lon="2.52357">
        <ele>609.8</ele>
        <time>2011-05-18T16:29:52Z</time>
      </trkpt>
      <trkpt lat="44.34414" lon="2.5235">
        <ele>609.9</ele>
        <time>2011-05-18T16:29:53Z</time>
      </trkpt>
      <trkpt lat="44.34415" lon="2.52343">
        <ele>609.9</ele>
        <time>2011-05-18T16:29:54Z</time>
      </trkpt>
      <trkpt lat="44.34416" lon="2.52337">
        <ele>609.9</ele>
        <time>2011-05-18T16:29:55Z</time>
      </trkpt>
      <trkpt lat="44.34416" lon="2.5233">
        <ele>609.9</ele>
        <time>2011-05-18T16:29:56Z</time>
      </trkpt>
      <trkpt lat="44.34417" lon="2.52324">
        <ele>609.9</ele>
        <time>2011-05-18T16:29:57Z</time>
      </trkpt>
      <trkpt lat="44.34418" lon="2.52317">
        <ele>609.7</ele>
        <time>2011-05-18T16:29:58Z</time>
      </trkpt>
      <trkpt lat="44.34418" lon="2.5231">
        <ele>609.6</ele>
        <time>2011-05-18T16:29:59Z</time>
      </trkpt>
      <trkpt lat="44.34419" lon="2.52304">
        <ele>609.5</ele>
        <time>2011-05-18T16:30:00Z</time>
      </trkpt>
      <trkpt lat="44.3442" lon="2.52297">
        <ele>609.4</ele>
        <time>2011-05-18T16:30:01Z</time>
      </trkpt>
      <trkpt lat="44.34421" lon="2.52291">
        <ele>609.3</ele>
        <time>2011-05-18T16:30:02Z</time>
      </trkpt>
      <trkpt lat="44.34421" lon="2.52285">
        <ele>609.2</ele>
        <time>2011-05-18T16:30:03Z</time>
      </trkpt>
      <trkpt lat="44.34422" lon="2.52278">
        <ele>609.1</ele>
        <time>2011-05-18T16:30:04Z</time>
      </trkpt>
      <trkpt lat="44.34422" lon="2.52272">
        <ele>609</ele>
        <time>2011-05-18T16:30:05Z</time>
      </trkpt>
      <trkpt lat="44.34423" lon="2.52266">
        <ele>608.9</ele>
        <time>2011-05-18T16:30:06Z</time>
      </trkpt>
      <trkpt lat="44.34423" lon="2.5226">
        <ele>608.9</ele>
        <time>2011-05-18T16:30:07Z</time>
      </trkpt>
      <trkpt lat="44.34424" lon="2.52254">
        <ele>608.8</ele>
        <time>2011-05-18T16:30:08Z</time>
      </trkpt>
      <trkpt lat="44.34424" lon="2.52249">
        <ele>608.8</ele>
        <time>2011-05-18T16:30:09Z</time>
      </trkpt>
      <trkpt lat="44.34424" lon="2.52243">
        <ele>608.8</ele>
        <time>2011-05-18T16:30:10Z</time>
      </trkpt>
      <trkpt lat="44.34423" lon="2.52238">
        <ele>608.9</ele>
        <time>2011-05-18T16:30:11Z</time>
      </trkpt>
      <trkpt lat="44.34423" lon="2.52233">
        <ele>609</ele>
        <time>2011-05-18T16:30:12Z</time>
      </trkpt>
      <trkpt lat="44.34423" lon="2.52228">
        <ele>609</ele>
        <time>2011-05-18T16:30:13Z</time>
      </trkpt>
      <trkpt lat="44.34423" lon="2.52223">
        <ele>609</ele>
        <time>2011-05-18T16:30:14Z</time>
      </trkpt>
      <trkpt lat="44.34423" lon="2.52218">
        <ele>609.1</ele>
        <time>2011-05-18T16:30:15Z</time>
      </trkpt>
      <trkpt lat="44.34423" lon="2.52213">
        <ele>609.2</ele>
        <time>2011-05-18T16:30:16Z</time>
      </trkpt>
      <trkpt lat="44.34423" lon="2.52208">
        <ele>609.2</ele>
        <time>2011-05-18T16:30:17Z</time>
      </trkpt>
      <trkpt lat="44.34422" lon="2.52203">
        <ele>609.3</ele>
        <time>2011-05-18T16:30:18Z</time>
      </trkpt>
      <trkpt lat="44.34422" lon="2.52198">
        <ele>609.3</ele>
        <time>2011-05-18T16:30:19Z</time>
      </trkpt>
      <trkpt lat="44.34422" lon="2.52194">
        <ele>609.4</ele>
        <time>2011-05-18T16:30:20Z</time>
      </trkpt>
      <trkpt lat="44.34421" lon="2.52189">
        <ele>609.5</ele>
        <time>2011-05-18T16:30:21Z</time>
      </trkpt>
      <trkpt lat="44.3442" lon="2.52184">
        <ele>609.6</ele>
        <time>2011-05-18T16:30:22Z</time>
      </trkpt>
      <trkpt lat="44.3442" lon="2.52179">
        <ele>609.7</ele>
        <time>2011-05-18T16:30:23Z</time>
      </trkpt>
      <trkpt lat="44.34419" lon="2.52174">
        <ele>609.8</ele>
        <time>2011-05-18T16:30:24Z</time>
      </trkpt>
      <trkpt lat="44.34418" lon="2.52169">
        <ele>609.9</ele>
        <time>2011-05-18T16:30:25Z</time>
      </trkpt>
      <trkpt lat="44.34417" lon="2.52164">
        <ele>610</ele>
        <time>2011-05-18T16:30:26Z</time>
      </trkpt>
      <trkpt lat="44.34417" lon="2.52158">
        <ele>610.1</ele>
        <time>2011-05-18T16:30:27Z</time>
      </trkpt>
      <trkpt lat="44.34416" lon="2.52153">
        <ele>610.2</ele>
        <time>2011-05-18T16:30:28Z</time>
      </trkpt>
      <trkpt lat="44.34416" lon="2.52148">
        <ele>610.2</ele>
        <time>2011-05-18T16:30:29Z</time>
      </trkpt>
      <trkpt lat="44.34415" lon="2.52143">
        <ele>610.3</ele>
        <time>2011-05-18T16:30:30Z</time>
      </trkpt>
      <trkpt lat="44.34414" lon="2.52137">
        <ele>610.4</ele>
        <time>2011-05-18T16:30:31Z</time>
      </trkpt>
      <trkpt lat="44.34413" lon="2.52132">
        <ele>610.5</ele>
        <time>2011-05-18T16:30:32Z</time>
      </trkpt>
      <trkpt lat="44.34413" lon="2.52127">
        <ele>610.5</ele>
        <time>2011-05-18T16:30:33Z</time>
      </trkpt>
      <trkpt lat="44.34412" lon="2.52121">
        <ele>610.6</ele>
        <time>2011-05-18T16:30:34Z</time>
      </trkpt>
      <trkpt lat="44.34411" lon="2.52116">
        <ele>610.7</ele>
        <time>2011-05-18T16:30:35Z</time>
      </trkpt>
      <trkpt lat="44.34411" lon="2.5211">
        <ele>610.8</ele>
        <time>2011-05-18T16:30:36Z</time>
      </trkpt>
      <trkpt lat="44.3441" lon="2.52105">
        <ele>610.9</ele>
        <time>2011-05-18T16:30:37Z</time>
      </trkpt>
      <trkpt lat="44.3441" lon="2.52099">
        <ele>611</ele>
        <time>2011-05-18T16:30:38Z</time>
      </trkpt>
      <trkpt lat="44.34409" lon="2.52094">
        <ele>611</ele>
        <time>2011-05-18T16:30:39Z</time>
      </trkpt>
      <trkpt lat="44.34409" lon="2.52089">
        <ele>611.1</ele>
        <time>2011-05-18T16:30:40Z</time>
      </trkpt>
      <trkpt lat="44.34408" lon="2.52083">
        <ele>611.2</ele>
        <time>2011-05-18T16:30:41Z</time>
      </trkpt>
      <trkpt lat="44.34408" lon="2.52078">
        <ele>611.1</ele>
        <time>2011-05-18T16:30:42Z</time>
      </trkpt>
      <trkpt lat="44.34408" lon="2.52073">
        <ele>611</ele>
        <time>2011-05-18T16:30:43Z</time>
      </trkpt>
      <trkpt lat="44.34407" lon="2.52068">
        <ele>610.9</ele>
        <time>2011-05-18T16:30:44Z</time>
      </trkpt>
      <trkpt lat="44.34407" lon="2.52063">
        <ele>610.8</ele>
        <time>2011-05-18T16:30:45Z</time>
      </trkpt>
      <trkpt lat="44.34406" lon="2.52058">
        <ele>610.8</ele>
        <time>2011-05-18T16:30:46Z</time>
      </trkpt>
      <trkpt lat="44.34406" lon="2.52053">
        <ele>610.7</ele>
        <time>2011-05-18T16:30:47Z</time>
      </trkpt>
      <trkpt lat="44.34405" lon="2.52049">
        <ele>610.6</ele>
        <time>2011-05-18T16:30:48Z</time>
      </trkpt>
      <trkpt lat="44.34404" lon="2.52045">
        <ele>610.6</ele>
        <time>2011-05-18T16:30:49Z</time>
      </trkpt>
      <trkpt lat="44.34403" lon="2.52042">
        <ele>610.6</ele>
        <time>2011-05-18T16:30:50Z</time>
      </trkpt>
      <trkpt lat="44.34401" lon="2.5204">
        <ele>610.6</ele>
        <time>2011-05-18T16:30:51Z</time>
      </trkpt>
      <trkpt lat="44.34398" lon="2.5204">
        <ele>610.7</ele>
        <time>2011-05-18T16:30:52Z</time>
      </trkpt>
      <trkpt lat="44.34396" lon="2.52041">
        <ele>610.8</ele>
        <time>2011-05-18T16:30:53Z</time>
      </trkpt>
      <trkpt lat="44.34394" lon="2.52041">
        <ele>611</ele>
        <time>2011-05-18T16:30:54Z</time>
      </trkpt>
      <trkpt lat="44.34391" lon="2.52041">
        <ele>611.1</ele>
        <time>2011-05-18T16:30:55Z</time>
      </trkpt>
      <trkpt lat="44.34388" lon="2.52042">
        <ele>611.2</ele>
        <time>2011-05-18T16:30:56Z</time>
      </trkpt>
      <trkpt lat="44.34385" lon="2.52042">
        <ele>611.3</ele>
        <time>2011-05-18T16:30:57Z</time>
      </trkpt>
      <trkpt lat="44.34383" lon="2.52042">
        <ele>611.4</ele>
        <time>2011-05-18T16:30:58Z</time>
      </trkpt>
      <trkpt lat="44.34379" lon="2.52042">
        <ele>611.6</ele>
        <time>2011-05-18T16:30:59Z</time>
      </trkpt>
      <trkpt lat="44.34376" lon="2.52041">
        <ele>611.7</ele>
        <time>2011-05-18T16:31:00Z</time>
      </trkpt>
      <trkpt lat="44.34373" lon="2.52042">
        <ele>611.8</ele>
        <time>2011-05-18T16:31:01Z</time>
      </trkpt>
      <trkpt lat="44.34369" lon="2.52042">
        <ele>612</ele>
        <time>2011-05-18T16:31:02Z</time>
      </trkpt>
      <trkpt lat="44.34365" lon="2.52042">
        <ele>612.2</ele>
        <time>2011-05-18T16:31:03Z</time>
      </trkpt>
      <trkpt lat="44.34361" lon="2.52042">
        <ele>612.3</ele>
        <time>2011-05-18T16:31:04Z</time>
      </trkpt>
      <trkpt lat="44.34357" lon="2.52043">
        <ele>612.5</ele>
        <time>2011-05-18T16:31:05Z</time>
      </trkpt>
      <trkpt lat="44.34353" lon="2.52043">
        <ele>612.7</ele>
        <time>2011-05-18T16:31:06Z</time>
      </trkpt>
      <trkpt lat="44.34349" lon="2.52043">
        <ele>612.9</ele>
        <time>2011-05-18T16:31:07Z</time>
      </trkpt>
      <trkpt lat="44.34345" lon="2.52043">
        <ele>613</ele>
        <time>2011-05-18T16:31:08Z</time>
      </trkpt>
      <trkpt lat="44.3434" lon="2.52043">
        <ele>613.2</ele>
        <time>2011-05-18T16:31:09Z</time>
      </trkpt>
      <trkpt lat="44.34335" lon="2.52043">
        <ele>613.4</ele>
        <time>2011-05-18T16:31:10Z</time>
      </trkpt>
      <trkpt lat="44.34331" lon="2.52043">
        <ele>613.3</ele>
        <time>2011-05-18T16:31:11Z</time>
      </trkpt>
      <trkpt lat="44.34326" lon="2.52041">
        <ele>613</ele>
        <time>2011-05-18T16:31:12Z</time>
      </trkpt>
      <trkpt lat="44.34321" lon="2.52039">
        <ele>612.8</ele>
        <time>2011-05-18T16:31:13Z</time>
      </trkpt>
      <trkpt lat="44.34318" lon="2.52035">
        <ele>612.7</ele>
        <time>2011-05-18T16:31:14Z</time>
      </trkpt>
      <trkpt lat="44.34314" lon="2.52031">
        <ele>612.5</ele>
        <time>2011-05-18T16:31:15Z</time>
      </trkpt>
      <trkpt lat="44.34312" lon="2.52026">
        <ele>612.5</ele>
        <time>2011-05-18T16:31:16Z</time>
      </trkpt>
      <trkpt lat="44.3431" lon="2.52021">
        <ele>612.6</ele>
        <time>2011-05-18T16:31:17Z</time>
      </trkpt>
      <trkpt lat="44.34308" lon="2.52017">
        <ele>612.6</ele>
        <time>2011-05-18T16:31:18Z</time>
      </trkpt>
      <trkpt lat="44.34306" lon="2.52014">
        <ele>612.6</ele>
        <time>2011-05-18T16:31:19Z</time>
      </trkpt>
      <trkpt lat="44.34304" lon="2.52013">
        <ele>612.5</ele>
        <time>2011-05-18T16:31:20Z</time>
      </trkpt>
      <trkpt lat="44.34301" lon="2.52012">
        <ele>612.4</ele>
        <time>2011-05-18T16:31:21Z</time>
      </trkpt>
      <trkpt lat="44.34297" lon="2.52013">
        <ele>612.2</ele>
        <time>2011-05-18T16:31:23Z</time>
      </trkpt>
      <trkpt lat="44.34294" lon="2.52017">
        <ele>611.9</ele>
        <time>2011-05-18T16:31:26Z</time>
      </trkpt>
      <trkpt lat="44.34292" lon="2.52021">
        <ele>611.6</ele>
        <time>2011-05-18T16:31:28Z</time>
      </trkpt>
      <trkpt lat="44.3429" lon="2.52026">
        <ele>611.4</ele>
        <time>2011-05-18T16:31:30Z</time>
      </trkpt>
      <trkpt lat="44.34288" lon="2.5203">
        <ele>611.1</ele>
        <time>2011-05-18T16:31:32Z</time>
      </trkpt>
      <trkpt lat="44.34285" lon="2.52034">
        <ele>610.7</ele>
        <time>2011-05-18T16:31:34Z</time>
      </trkpt>
      <trkpt lat="44.34283" lon="2.52038">
        <ele>610.3</ele>
        <time>2011-05-18T16:31:36Z</time>
      </trkpt>
      <trkpt lat="44.3428" lon="2.52042">
        <ele>610</ele>
        <time>2011-05-18T16:31:58Z</time>
      </trkpt>
      <trkpt lat="44.3428" lon="2.52043">
        <ele>610</ele>
        <time>2011-05-18T16:31:59Z</time>
      </trkpt>
      <trkpt lat="44.34271" lon="2.52042">
        <ele>609.4</ele>
        <time>2011-05-18T16:32:16Z</time>
      </trkpt>
      <trkpt lat="44.34269" lon="2.52041">
        <ele>609.3</ele>
        <time>2011-05-18T16:32:17Z</time>
      </trkpt>
      <trkpt lat="44.34267" lon="2.5204">
        <ele>609.3</ele>
        <time>2011-05-18T16:32:18Z</time>
      </trkpt>
      <trkpt lat="44.34264" lon="2.52039">
        <ele>609.1</ele>
        <time>2011-05-18T16:32:19Z</time>
      </trkpt>
      <trkpt lat="44.3426" lon="2.52037">
        <ele>609</ele>
        <time>2011-05-18T16:32:21Z</time>
      </trkpt>
      <trkpt lat="44.3426" lon="2.52042">
        <ele>608.6</ele>
        <time>2011-05-18T16:32:35Z</time>
      </trkpt>
      <trkpt lat="44.34257" lon="2.52045">
        <ele>608.3</ele>
        <time>2011-05-18T16:32:37Z</time>
      </trkpt>
      <trkpt lat="44.34253" lon="2.52045">
        <ele>608</ele>
        <time>2011-05-18T16:32:43Z</time>
      </trkpt>
      <trkpt lat="44.34249" lon="2.52044">
        <ele>607.8</ele>
        <time>2011-05-18T16:32:46Z</time>
      </trkpt>
      <trkpt lat="44.34246" lon="2.52043">
        <ele>607.3</ele>
        <time>2011-05-18T16:32:48Z</time>
      </trkpt>
      <trkpt lat="44.34242" lon="2.52041">
        <ele>606.9</ele>
        <time>2011-05-18T16:32:50Z</time>
      </trkpt>
      <trkpt lat="44.34239" lon="2.52039">
        <ele>606.7</ele>
        <time>2011-05-18T16:32:53Z</time>
      </trkpt>
      <trkpt lat="44.34236" lon="2.52036">
        <ele>606.6</ele>
        <time>2011-05-18T16:32:55Z</time>
      </trkpt>
      <trkpt lat="44.34233" lon="2.52034">
        <ele>606.3</ele>
        <time>2011-05-18T16:32:57Z</time>
      </trkpt>
      <trkpt lat="44.34229" lon="2.52032">
        <ele>606.1</ele>
        <time>2011-05-18T16:32:59Z</time>
      </trkpt>
      <trkpt lat="44.34227" lon="2.52032">
        <ele>605.8</ele>
        <time>2011-05-18T16:33:00Z</time>
      </trkpt>
      <trkpt lat="44.34224" lon="2.5203">
        <ele>605.6</ele>
        <time>2011-05-18T16:33:01Z</time>
      </trkpt>
      <trkpt lat="44.3422" lon="2.52029">
        <ele>605.3</ele>
        <time>2011-05-18T16:33:02Z</time>
      </trkpt>
      <trkpt lat="44.34217" lon="2.52028">
        <ele>605.1</ele>
        <time>2011-05-18T16:33:03Z</time>
      </trkpt>
      <trkpt lat="44.34214" lon="2.52026">
        <ele>605</ele>
        <time>2011-05-18T16:33:04Z</time>
      </trkpt>
      <trkpt lat="44.3421" lon="2.52025">
        <ele>604.7</ele>
        <time>2011-05-18T16:33:06Z</time>
      </trkpt>
      <trkpt lat="44.34206" lon="2.52025">
        <ele>604.3</ele>
        <time>2011-05-18T16:33:08Z</time>
      </trkpt>
      <trkpt lat="44.34202" lon="2.52024">
        <ele>604.1</ele>
        <time>2011-05-18T16:33:12Z</time>
      </trkpt>
      <trkpt lat="44.34199" lon="2.52024">
        <ele>603.7</ele>
        <time>2011-05-18T16:33:15Z</time>
      </trkpt>
      <trkpt lat="44.34195" lon="2.52023">
        <ele>603.4</ele>
        <time>2011-05-18T16:33:19Z</time>
      </trkpt>
      <trkpt lat="44.3419" lon="2.52023">
        <ele>603</ele>
        <time>2011-05-18T16:33:23Z</time>
      </trkpt>
      <trkpt lat="44.34186" lon="2.52023">
        <ele>602.2</ele>
        <time>2011-05-18T16:33:25Z</time>
      </trkpt>
      <trkpt lat="44.34182" lon="2.52022">
        <ele>602.1</ele>
        <time>2011-05-18T16:33:27Z</time>
      </trkpt>
      <trkpt lat="44.34179" lon="2.52021">
        <ele>602.3</ele>
        <time>2011-05-18T16:33:29Z</time>
      </trkpt>
      <trkpt lat="44.34176" lon="2.52019">
        <ele>602.3</ele>
        <time>2011-05-18T16:33:31Z</time>
      </trkpt>
      <trkpt lat="44.34171" lon="2.52019">
        <ele>601.9</ele>
        <time>2011-05-18T16:33:33Z</time>
      </trkpt>
      <trkpt lat="44.34168" lon="2.52019">
        <ele>601.5</ele>
        <time>2011-05-18T16:33:35Z</time>
      </trkpt>
      <trkpt lat="44.34165" lon="2.5202">
        <ele>600.7</ele>
        <time>2011-05-18T16:33:37Z</time>
      </trkpt>
      <trkpt lat="44.34161" lon="2.52022">
        <ele>599.5</ele>
        <time>2011-05-18T16:33:39Z</time>
      </trkpt>
      <trkpt lat="44.34157" lon="2.5202">
        <ele>598.9</ele>
        <time>2011-05-18T16:33:42Z</time>
      </trkpt>
      <trkpt lat="44.34154" lon="2.52017">
        <ele>599</ele>
        <time>2011-05-18T16:33:45Z</time>
      </trkpt>
      <trkpt lat="44.3415" lon="2.52017">
        <ele>598.7</ele>
        <time>2011-05-18T16:33:47Z</time>
      </trkpt>
      <trkpt lat="44.34146" lon="2.52018">
        <ele>597.6</ele>
        <time>2011-05-18T16:33:49Z</time>
      </trkpt>
      <trkpt lat="44.34142" lon="2.5202">
        <ele>595.9</ele>
        <time>2011-05-18T16:33:51Z</time>
      </trkpt>
      <trkpt lat="44.34138" lon="2.52022">
        <ele>594.7</ele>
        <time>2011-05-18T16:33:53Z</time>
      </trkpt>
      <trkpt lat="44.34135" lon="2.52023">
        <ele>593.6</ele>
        <time>2011-05-18T16:33:55Z</time>
      </trkpt>
      <trkpt lat="44.34131" lon="2.52025">
        <ele>592</ele>
        <time>2011-05-18T16:34:01Z</time>
      </trkpt>
      <trkpt lat="44.3413" lon="2.52025">
        <ele>591.8</ele>
        <time>2011-05-18T16:34:02Z</time>
      </trkpt>
      <trkpt lat="44.34125" lon="2.5203">
        <ele>588.9</ele>
        <time>2011-05-18T16:34:07Z</time>
      </trkpt>
      <trkpt lat="44.34121" lon="2.52032">
        <ele>587.5</ele>
        <time>2011-05-18T16:34:20Z</time>
      </trkpt>
      <trkpt lat="44.34116" lon="2.52033">
        <ele>586.1</ele>
        <time>2011-05-18T16:35:14Z</time>
      </trkpt>
      <trkpt lat="44.34116" lon="2.52033">
        <ele>586.1</ele>
        <time>2011-05-18T16:35:15Z</time>
      </trkpt>
      <trkpt lat="44.3411" lon="2.52029">
        <ele>586</ele>
        <time>2011-05-18T16:35:36Z</time>
      </trkpt>
      <trkpt lat="44.34108" lon="2.52028">
        <ele>586</ele>
        <time>2011-05-18T16:35:37Z</time>
      </trkpt>
      <trkpt lat="44.34106" lon="2.52025">
        <ele>586.4</ele>
        <time>2011-05-18T16:35:38Z</time>
      </trkpt>
      <trkpt lat="44.34103" lon="2.52023">
        <ele>586.8</ele>
        <time>2011-05-18T16:35:39Z</time>
      </trkpt>
      <trkpt lat="44.34101" lon="2.52021">
        <ele>586.7</ele>
        <time>2011-05-18T16:35:40Z</time>
      </trkpt>
      <trkpt lat="44.34097" lon="2.52019">
        <ele>586.9</ele>
        <time>2011-05-18T16:35:42Z</time>
      </trkpt>
      <trkpt lat="44.34095" lon="2.52019">
        <ele>586.4</ele>
        <time>2011-05-18T16:35:44Z</time>
      </trkpt>
      <trkpt lat="44.34093" lon="2.5202">
        <ele>585.4</ele>
        <time>2011-05-18T16:35:45Z</time>
      </trkpt>
      <trkpt lat="44.3409" lon="2.52021">
        <ele>584.5</ele>
        <time>2011-05-18T16:35:46Z</time>
      </trkpt>
      <trkpt lat="44.34086" lon="2.52023">
        <ele>583.1</ele>
        <time>2011-05-18T16:35:48Z</time>
      </trkpt>
      <trkpt lat="44.34082" lon="2.52024">
        <ele>581.9</ele>
        <time>2011-05-18T16:35:53Z</time>
      </trkpt>
      <trkpt lat="44.3408" lon="2.5202">
        <ele>583</ele>
        <time>2011-05-18T16:36:00Z</time>
      </trkpt>
      <trkpt lat="44.34078" lon="2.52015">
        <ele>584.7</ele>
        <time>2011-05-18T16:36:03Z</time>
      </trkpt>
      <trkpt lat="44.34075" lon="2.52011">
        <ele>585.9</ele>
        <time>2011-05-18T16:36:06Z</time>
      </trkpt>
      <trkpt lat="44.34073" lon="2.52006">
        <ele>587.7</ele>
        <time>2011-05-18T16:36:10Z</time>
      </trkpt>
      <trkpt lat="44.34069" lon="2.52005">
        <ele>587.2</ele>
        <time>2011-05-18T16:36:13Z</time>
      </trkpt>
      <trkpt lat="44.34066" lon="2.52008">
        <ele>585.8</ele>
        <time>2011-05-18T16:36:15Z</time>
      </trkpt>
      <trkpt lat="44.34065" lon="2.5201">
        <ele>585.1</ele>
        <time>2011-05-18T16:36:16Z</time>
      </trkpt>
      <trkpt lat="44.34061" lon="2.52015">
        <ele>582.4</ele>
        <time>2011-05-18T16:36:19Z</time>
      </trkpt>
      <trkpt lat="44.34059" lon="2.52017">
        <ele>581</ele>
        <time>2011-05-18T16:36:20Z</time>
      </trkpt>
      <trkpt lat="44.34056" lon="2.52022">
        <ele>578.4</ele>
        <time>2011-05-18T16:36:25Z</time>
      </trkpt>
      <trkpt lat="44.34053" lon="2.52027">
        <ele>576.3</ele>
        <time>2011-05-18T16:36:50Z</time>
      </trkpt>
      <trkpt lat="44.34053" lon="2.52033">
        <ele>573.6</ele>
        <time>2011-05-18T16:37:23Z</time>
      </trkpt>
      <trkpt lat="44.34053" lon="2.52033">
        <ele>573.6</ele>
        <time>2011-05-18T16:37:24Z</time>
      </trkpt>
      <trkpt lat="44.34048" lon="2.5204">
        <ele>569.9</ele>
        <time>2011-05-18T16:37:52Z</time>
      </trkpt>
      <trkpt lat="44.34044" lon="2.5204">
        <ele>569.3</ele>
        <time>2011-05-18T16:38:30Z</time>
      </trkpt>
      <trkpt lat="44.34043" lon="2.52039">
        <ele>569.2</ele>
        <time>2011-05-18T16:38:31Z</time>
      </trkpt>
      <trkpt lat="44.34037" lon="2.52041">
        <ele>567.4</ele>
        <time>2011-05-18T16:38:58Z</time>
      </trkpt>
      <trkpt lat="44.34032" lon="2.52042">
        <ele>566.1</ele>
        <time>2011-05-18T16:39:04Z</time>
      </trkpt>
      <trkpt lat="44.34028" lon="2.52043">
        <ele>565.4</ele>
        <time>2011-05-18T16:39:55Z</time>
      </trkpt>
      <trkpt lat="44.34027" lon="2.52042">
        <ele>565.3</ele>
        <time>2011-05-18T16:39:56Z</time>
      </trkpt>
      <trkpt lat="44.34021" lon="2.52041">
        <ele>564.8</ele>
        <time>2011-05-18T16:40:54Z</time>
      </trkpt>
      <trkpt lat="44.34018" lon="2.52041">
        <ele>564.3</ele>
        <time>2011-05-18T16:40:56Z</time>
      </trkpt>
      <trkpt lat="44.34017" lon="2.52041">
        <ele>564.1</ele>
        <time>2011-05-18T16:40:57Z</time>
      </trkpt>
      <trkpt lat="44.34011" lon="2.52044">
        <ele>561.7</ele>
        <time>2011-05-18T16:41:03Z</time>
      </trkpt>
      <trkpt lat="44.34008" lon="2.52046">
        <ele>560</ele>
        <time>2011-05-18T16:41:06Z</time>
      </trkpt>
      <trkpt lat="44.34004" lon="2.52048">
        <ele>558.1</ele>
        <time>2011-05-18T16:41:08Z</time>
      </trkpt>
      <trkpt lat="44.34" lon="2.52051">
        <ele>556.7</ele>
        <time>2011-05-18T16:41:10Z</time>
      </trkpt>
      <trkpt lat="44.33998" lon="2.52052">
        <ele>556</ele>
        <time>2011-05-18T16:41:11Z</time>
      </trkpt>
      <trkpt lat="44.33995" lon="2.52053">
        <ele>555.2</ele>
        <time>2011-05-18T16:41:12Z</time>
      </trkpt>
      <trkpt lat="44.33992" lon="2.52054">
        <ele>554.5</ele>
        <time>2011-05-18T16:41:13Z</time>
      </trkpt>
      <trkpt lat="44.33988" lon="2.52056">
        <ele>553.1</ele>
        <time>2011-05-18T16:41:14Z</time>
      </trkpt>
      <trkpt lat="44.33985" lon="2.52058">
        <ele>552.4</ele>
        <time>2011-05-18T16:41:15Z</time>
      </trkpt>
      <trkpt lat="44.33982" lon="2.52059">
        <ele>551.6</ele>
        <time>2011-05-18T16:41:16Z</time>
      </trkpt>
      <trkpt lat="44.33977" lon="2.52061">
        <ele>550.8</ele>
        <time>2011-05-18T16:41:17Z</time>
      </trkpt>
      <trkpt lat="44.33973" lon="2.52063">
        <ele>549.4</ele>
        <time>2011-05-18T16:41:18Z</time>
      </trkpt>
      <trkpt lat="44.3397" lon="2.52065">
        <ele>547.9</ele>
        <time>2011-05-18T16:41:19Z</time>
      </trkpt>
      <trkpt lat="44.33968" lon="2.52067">
        <ele>547.2</ele>
        <time>2011-05-18T16:41:20Z</time>
      </trkpt>
      <trkpt lat="44.33965" lon="2.52069">
        <ele>545.7</ele>
        <time>2011-05-18T16:41:21Z</time>
      </trkpt>
      <trkpt lat="44.33961" lon="2.52072">
        <ele>544.2</ele>
        <time>2011-05-18T16:41:22Z</time>
      </trkpt>
      <trkpt lat="44.33958" lon="2.52074">
        <ele>543.4</ele>
        <time>2011-05-18T16:41:23Z</time>
      </trkpt>
      <trkpt lat="44.33955" lon="2.52076">
        <ele>541.9</ele>
        <time>2011-05-18T16:41:24Z</time>
      </trkpt>
      <trkpt lat="44.33952" lon="2.52077">
        <ele>541.1</ele>
        <time>2011-05-18T16:41:25Z</time>
      </trkpt>
      <trkpt lat="44.3395" lon="2.52079">
        <ele>540.3</ele>
        <time>2011-05-18T16:41:26Z</time>
      </trkpt>
      <trkpt lat="44.33947" lon="2.5208">
        <ele>539.5</ele>
        <time>2011-05-18T16:41:27Z</time>
      </trkpt>
      <trkpt lat="44.33944" lon="2.52082">
        <ele>538</ele>
        <time>2011-05-18T16:41:28Z</time>
      </trkpt>
      <trkpt lat="44.33941" lon="2.52085">
        <ele>536.7</ele>
        <time>2011-05-18T16:41:29Z</time>
      </trkpt>
      <trkpt lat="44.33937" lon="2.52088">
        <ele>535.7</ele>
        <time>2011-05-18T16:41:30Z</time>
      </trkpt>
      <trkpt lat="44.33933" lon="2.5209">
        <ele>534.6</ele>
        <time>2011-05-18T16:41:31Z</time>
      </trkpt>
      <trkpt lat="44.33929" lon="2.52093">
        <ele>533.5</ele>
        <time>2011-05-18T16:41:32Z</time>
      </trkpt>
      <trkpt lat="44.33926" lon="2.52095">
        <ele>532.5</ele>
        <time>2011-05-18T16:41:33Z</time>
      </trkpt>
      <trkpt lat="44.33923" lon="2.52098">
        <ele>531.5</ele>
        <time>2011-05-18T16:41:34Z</time>
      </trkpt>
      <trkpt lat="44.3392" lon="2.521">
        <ele>530.5</ele>
        <time>2011-05-18T16:41:35Z</time>
      </trkpt>
      <trkpt lat="44.33916" lon="2.52103">
        <ele>529.4</ele>
        <time>2011-05-18T16:41:36Z</time>
      </trkpt>
      <trkpt lat="44.33913" lon="2.52105">
        <ele>528.8</ele>
        <time>2011-05-18T16:41:37Z</time>
      </trkpt>
      <trkpt lat="44.3391" lon="2.52106">
        <ele>528.3</ele>
        <time>2011-05-18T16:41:38Z</time>
      </trkpt>
      <trkpt lat="44.33908" lon="2.52107">
        <ele>527.7</ele>
        <time>2011-05-18T16:41:39Z</time>
      </trkpt>
      <trkpt lat="44.33905" lon="2.52108">
        <ele>527.6</ele>
        <time>2011-05-18T16:41:40Z</time>
      </trkpt>
      <trkpt lat="44.33902" lon="2.52108">
        <ele>527.1</ele>
        <time>2011-05-18T16:41:41Z</time>
      </trkpt>
      <trkpt lat="44.33899" lon="2.52109">
        <ele>526.9</ele>
        <time>2011-05-18T16:41:42Z</time>
      </trkpt>
      <trkpt lat="44.33897" lon="2.52109">
        <ele>526.8</ele>
        <time>2011-05-18T16:41:43Z</time>
      </trkpt>
      <trkpt lat="44.33895" lon="2.5211">
        <ele>526.3</ele>
        <time>2011-05-18T16:41:44Z</time>
      </trkpt>
      <trkpt lat="44.33892" lon="2.52111">
        <ele>525.7</ele>
        <time>2011-05-18T16:41:45Z</time>
      </trkpt>
      <trkpt lat="44.33889" lon="2.52111">
        <ele>525.6</ele>
        <time>2011-05-18T16:41:46Z</time>
      </trkpt>
      <trkpt lat="44.33887" lon="2.52113">
        <ele>525.1</ele>
        <time>2011-05-18T16:41:47Z</time>
      </trkpt>
      <trkpt lat="44.33883" lon="2.52114">
        <ele>524.5</ele>
        <time>2011-05-18T16:41:48Z</time>
      </trkpt>
      <trkpt lat="44.3388" lon="2.52116">
        <ele>523.5</ele>
        <time>2011-05-18T16:41:50Z</time>
      </trkpt>
      <trkpt lat="44.33876" lon="2.52118">
        <ele>522.9</ele>
        <time>2011-05-18T16:41:58Z</time>
      </trkpt>
      <trkpt lat="44.33876" lon="2.52118">
        <ele>522.9</ele>
        <time>2011-05-18T16:41:59Z</time>
      </trkpt>
      <trkpt lat="44.33867" lon="2.5212">
        <ele>522.1</ele>
        <time>2011-05-18T16:43:18Z</time>
      </trkpt>
      <trkpt lat="44.33867" lon="2.5212">
        <ele>521.6</ele>
        <time>2011-05-18T16:43:19Z</time>
      </trkpt>
      <trkpt lat="44.33859" lon="2.5212">
        <ele>521.3</ele>
        <time>2011-05-18T16:44:22Z</time>
      </trkpt>
      <trkpt lat="44.33858" lon="2.52119">
        <ele>521.7</ele>
        <time>2011-05-18T16:44:23Z</time>
      </trkpt>
      <trkpt lat="44.33852" lon="2.52117">
        <ele>522.3</ele>
        <time>2011-05-18T16:44:27Z</time>
      </trkpt>
      <trkpt lat="44.33848" lon="2.52115">
        <ele>522.5</ele>
        <time>2011-05-18T16:44:30Z</time>
      </trkpt>
      <trkpt lat="44.33845" lon="2.52113">
        <ele>523.2</ele>
        <time>2011-05-18T16:44:32Z</time>
      </trkpt>
      <trkpt lat="44.33842" lon="2.52111">
        <ele>523.5</ele>
        <time>2011-05-18T16:44:34Z</time>
      </trkpt>
      <trkpt lat="44.33839" lon="2.5211">
        <ele>523.8</ele>
        <time>2011-05-18T16:44:36Z</time>
      </trkpt>
      <trkpt lat="44.33835" lon="2.52108">
        <ele>524.5</ele>
        <time>2011-05-18T16:44:38Z</time>
      </trkpt>
      <trkpt lat="44.33832" lon="2.52104">
        <ele>525.1</ele>
        <time>2011-05-18T16:44:49Z</time>
      </trkpt>
      <trkpt lat="44.33829" lon="2.52102">
        <ele>525.6</ele>
        <time>2011-05-18T16:45:01Z</time>
      </trkpt>
      <trkpt lat="44.33826" lon="2.521">
        <ele>525.7</ele>
        <time>2011-05-18T16:45:04Z</time>
      </trkpt>
      <trkpt lat="44.33822" lon="2.52098">
        <ele>526</ele>
        <time>2011-05-18T16:45:07Z</time>
      </trkpt>
      <trkpt lat="44.33819" lon="2.52096">
        <ele>526.5</ele>
        <time>2011-05-18T16:45:09Z</time>
      </trkpt>
      <trkpt lat="44.33815" lon="2.52094">
        <ele>526.4</ele>
        <time>2011-05-18T16:45:11Z</time>
      </trkpt>
      <trkpt lat="44.33812" lon="2.52092">
        <ele>526.8</ele>
        <time>2011-05-18T16:45:13Z</time>
      </trkpt>
      <trkpt lat="44.33808" lon="2.5209">
        <ele>526.7</ele>
        <time>2011-05-18T16:45:15Z</time>
      </trkpt>
      <trkpt lat="44.33804" lon="2.52087">
        <ele>526.9</ele>
        <time>2011-05-18T16:45:17Z</time>
      </trkpt>
      <trkpt lat="44.33801" lon="2.52086">
        <ele>527</ele>
        <time>2011-05-18T16:45:18Z</time>
      </trkpt>
      <trkpt lat="44.33799" lon="2.52085">
        <ele>527.1</ele>
        <time>2011-05-18T16:45:19Z</time>
      </trkpt>
      <trkpt lat="44.33797" lon="2.52084">
        <ele>527.2</ele>
        <time>2011-05-18T16:45:20Z</time>
      </trkpt>
      <trkpt lat="44.33795" lon="2.52082">
        <ele>527.5</ele>
        <time>2011-05-18T16:45:21Z</time>
      </trkpt>
      <trkpt lat="44.33792" lon="2.52081">
        <ele>528.4</ele>
        <time>2011-05-18T16:45:22Z</time>
      </trkpt>
      <trkpt lat="44.33789" lon="2.52079">
        <ele>528.6</ele>
        <time>2011-05-18T16:45:23Z</time>
      </trkpt>
      <trkpt lat="44.33786" lon="2.52077">
        <ele>528.9</ele>
        <time>2011-05-18T16:45:24Z</time>
      </trkpt>
      <trkpt lat="44.33783" lon="2.52076">
        <ele>529.2</ele>
        <time>2011-05-18T16:45:25Z</time>
      </trkpt>
      <trkpt lat="44.3378" lon="2.52074">
        <ele>529.4</ele>
        <time>2011-05-18T16:45:26Z</time>
      </trkpt>
      <trkpt lat="44.33777" lon="2.52073">
        <ele>529.6</ele>
        <time>2011-05-18T16:45:27Z</time>
      </trkpt>
      <trkpt lat="44.33774" lon="2.52071">
        <ele>530.5</ele>
        <time>2011-05-18T16:45:28Z</time>
      </trkpt>
      <trkpt lat="44.33771" lon="2.5207">
        <ele>530.6</ele>
        <time>2011-05-18T16:45:29Z</time>
      </trkpt>
      <trkpt lat="44.33768" lon="2.52068">
        <ele>530.8</ele>
        <time>2011-05-18T16:45:30Z</time>
      </trkpt>
      <trkpt lat="44.33764" lon="2.52066">
        <ele>531.5</ele>
        <time>2011-05-18T16:45:31Z</time>
      </trkpt>
      <trkpt lat="44.3376" lon="2.52064">
        <ele>531.5</ele>
        <time>2011-05-18T16:45:32Z</time>
      </trkpt>
      <trkpt lat="44.33756" lon="2.52062">
        <ele>532.2</ele>
        <time>2011-05-18T16:45:33Z</time>
      </trkpt>
      <trkpt lat="44.33752" lon="2.52061">
        <ele>532.2</ele>
        <time>2011-05-18T16:45:34Z</time>
      </trkpt>
      <trkpt lat="44.33748" lon="2.52059">
        <ele>532.2</ele>
        <time>2011-05-18T16:45:35Z</time>
      </trkpt>
      <trkpt lat="44.33743" lon="2.52057">
        <ele>532.7</ele>
        <time>2011-05-18T16:45:36Z</time>
      </trkpt>
      <trkpt lat="44.33739" lon="2.52055">
        <ele>532.5</ele>
        <time>2011-05-18T16:45:37Z</time>
      </trkpt>
      <trkpt lat="44.33734" lon="2.52053">
        <ele>532.8</ele>
        <time>2011-05-18T16:45:38Z</time>
      </trkpt>
      <trkpt lat="44.33729" lon="2.52051">
        <ele>532.6</ele>
        <time>2011-05-18T16:45:39Z</time>
      </trkpt>
      <trkpt lat="44.33724" lon="2.52049">
        <ele>532.4</ele>
        <time>2011-05-18T16:45:40Z</time>
      </trkpt>
      <trkpt lat="44.3372" lon="2.52048">
        <ele>532.7</ele>
        <time>2011-05-18T16:45:41Z</time>
      </trkpt>
      <trkpt lat="44.33715" lon="2.52046">
        <ele>532.5</ele>
        <time>2011-05-18T16:45:42Z</time>
      </trkpt>
      <trkpt lat="44.33711" lon="2.52044">
        <ele>532.9</ele>
        <time>2011-05-18T16:45:43Z</time>
      </trkpt>
      <trkpt lat="44.33707" lon="2.52042">
        <ele>532.7</ele>
        <time>2011-05-18T16:45:44Z</time>
      </trkpt>
      <trkpt lat="44.33702" lon="2.52041">
        <ele>532.4</ele>
        <time>2011-05-18T16:45:45Z</time>
      </trkpt>
      <trkpt lat="44.33698" lon="2.52039">
        <ele>532.7</ele>
        <time>2011-05-18T16:45:46Z</time>
      </trkpt>
      <trkpt lat="44.33693" lon="2.52037">
        <ele>532.5</ele>
        <time>2011-05-18T16:45:47Z</time>
      </trkpt>
      <trkpt lat="44.33689" lon="2.52035">
        <ele>532.2</ele>
        <time>2011-05-18T16:45:48Z</time>
      </trkpt>
      <trkpt lat="44.33684" lon="2.52034">
        <ele>531.8</ele>
        <time>2011-05-18T16:45:49Z</time>
      </trkpt>
      <trkpt lat="44.33679" lon="2.52033">
        <ele>531.5</ele>
        <time>2011-05-18T16:45:50Z</time>
      </trkpt>
      <trkpt lat="44.33675" lon="2.52031">
        <ele>531.7</ele>
        <time>2011-05-18T16:45:51Z</time>
      </trkpt>
      <trkpt lat="44.33671" lon="2.52029">
        <ele>531.5</ele>
        <time>2011-05-18T16:45:52Z</time>
      </trkpt>
      <trkpt lat="44.33666" lon="2.52028">
        <ele>531.1</ele>
        <time>2011-05-18T16:45:53Z</time>
      </trkpt>
      <trkpt lat="44.33663" lon="2.52026">
        <ele>531.5</ele>
        <time>2011-05-18T16:45:54Z</time>
      </trkpt>
      <trkpt lat="44.33659" lon="2.52024">
        <ele>531.4</ele>
        <time>2011-05-18T16:45:55Z</time>
      </trkpt>
      <trkpt lat="44.33655" lon="2.52023">
        <ele>531.2</ele>
        <time>2011-05-18T16:45:56Z</time>
      </trkpt>
      <trkpt lat="44.33651" lon="2.52021">
        <ele>531.1</ele>
        <time>2011-05-18T16:45:57Z</time>
      </trkpt>
      <trkpt lat="44.33648" lon="2.5202">
        <ele>530.9</ele>
        <time>2011-05-18T16:45:58Z</time>
      </trkpt>
      <trkpt lat="44.33644" lon="2.52018">
        <ele>530.8</ele>
        <time>2011-05-18T16:45:59Z</time>
      </trkpt>
      <trkpt lat="44.33641" lon="2.52017">
        <ele>530.7</ele>
        <time>2011-05-18T16:46:00Z</time>
      </trkpt>
      <trkpt lat="44.33637" lon="2.52016">
        <ele>530.5</ele>
        <time>2011-05-18T16:46:01Z</time>
      </trkpt>
      <trkpt lat="44.33634" lon="2.52015">
        <ele>530.3</ele>
        <time>2011-05-18T16:46:02Z</time>
      </trkpt>
      <trkpt lat="44.33631" lon="2.52014">
        <ele>529.7</ele>
        <time>2011-05-18T16:46:03Z</time>
      </trkpt>
      <trkpt lat="44.33627" lon="2.52013">
        <ele>529.5</ele>
        <time>2011-05-18T16:46:04Z</time>
      </trkpt>
      <trkpt lat="44.33623" lon="2.52012">
        <ele>529.3</ele>
        <time>2011-05-18T16:46:05Z</time>
      </trkpt>
      <trkpt lat="44.33619" lon="2.52011">
        <ele>529</ele>
        <time>2011-05-18T16:46:06Z</time>
      </trkpt>
      <trkpt lat="44.33615" lon="2.5201">
        <ele>528.6</ele>
        <time>2011-05-18T16:46:07Z</time>
      </trkpt>
      <trkpt lat="44.33612" lon="2.52009">
        <ele>528.3</ele>
        <time>2011-05-18T16:46:08Z</time>
      </trkpt>
      <trkpt lat="44.33608" lon="2.52007">
        <ele>528</ele>
        <time>2011-05-18T16:46:09Z</time>
      </trkpt>
      <trkpt lat="44.33604" lon="2.52005">
        <ele>527.7</ele>
        <time>2011-05-18T16:46:10Z</time>
      </trkpt>
      <trkpt lat="44.33601" lon="2.52004">
        <ele>527.4</ele>
        <time>2011-05-18T16:46:11Z</time>
      </trkpt>
      <trkpt lat="44.33597" lon="2.52003">
        <ele>527.1</ele>
        <time>2011-05-18T16:46:12Z</time>
      </trkpt>
      <trkpt lat="44.33594" lon="2.52002">
        <ele>526.7</ele>
        <time>2011-05-18T16:46:13Z</time>
      </trkpt>
      <trkpt lat="44.3359" lon="2.52">
        <ele>526.4</ele>
        <time>2011-05-18T16:46:14Z</time>
      </trkpt>
      <trkpt lat="44.33587" lon="2.51999">
        <ele>526.2</ele>
        <time>2011-05-18T16:46:15Z</time>
      </trkpt>
      <trkpt lat="44.33584" lon="2.51998">
        <ele>526.1</ele>
        <time>2011-05-18T16:46:16Z</time>
      </trkpt>
      <trkpt lat="44.3358" lon="2.51995">
        <ele>526.4</ele>
        <time>2011-05-18T16:46:17Z</time>
      </trkpt>
      <trkpt lat="44.33578" lon="2.51994">
        <ele>526.4</ele>
        <time>2011-05-18T16:46:18Z</time>
      </trkpt>
      <trkpt lat="44.33575" lon="2.51993">
        <ele>526.4</ele>
        <time>2011-05-18T16:46:19Z</time>
      </trkpt>
      <trkpt lat="44.33572" lon="2.51991">
        <ele>526.3</ele>
        <time>2011-05-18T16:46:20Z</time>
      </trkpt>
      <trkpt lat="44.33569" lon="2.51989">
        <ele>526.7</ele>
        <time>2011-05-18T16:46:21Z</time>
      </trkpt>
      <trkpt lat="44.33566" lon="2.51986">
        <ele>527.1</ele>
        <time>2011-05-18T16:46:22Z</time>
      </trkpt>
      <trkpt lat="44.33563" lon="2.51984">
        <ele>527.4</ele>
        <time>2011-05-18T16:46:23Z</time>
      </trkpt>
      <trkpt lat="44.33561" lon="2.51981">
        <ele>527.7</ele>
        <time>2011-05-18T16:46:24Z</time>
      </trkpt>
      <trkpt lat="44.33558" lon="2.51979">
        <ele>527.6</ele>
        <time>2011-05-18T16:46:25Z</time>
      </trkpt>
      <trkpt lat="44.33555" lon="2.51976">
        <ele>528.4</ele>
        <time>2011-05-18T16:46:26Z</time>
      </trkpt>
      <trkpt lat="44.33553" lon="2.51974">
        <ele>528.4</ele>
        <time>2011-05-18T16:46:27Z</time>
      </trkpt>
      <trkpt lat="44.33551" lon="2.51972">
        <ele>528.7</ele>
        <time>2011-05-18T16:46:28Z</time>
      </trkpt>
      <trkpt lat="44.33548" lon="2.51969">
        <ele>529</ele>
        <time>2011-05-18T16:46:29Z</time>
      </trkpt>
      <trkpt lat="44.33546" lon="2.51966">
        <ele>529.4</ele>
        <time>2011-05-18T16:46:30Z</time>
      </trkpt>
      <trkpt lat="44.33543" lon="2.51963">
        <ele>530.1</ele>
        <time>2011-05-18T16:46:31Z</time>
      </trkpt>
      <trkpt lat="44.33541" lon="2.51961">
        <ele>530</ele>
        <time>2011-05-18T16:46:32Z</time>
      </trkpt>
      <trkpt lat="44.33539" lon="2.51958">
        <ele>530.3</ele>
        <time>2011-05-18T16:46:33Z</time>
      </trkpt>
      <trkpt lat="44.33537" lon="2.51956">
        <ele>530.6</ele>
        <time>2011-05-18T16:46:34Z</time>
      </trkpt>
      <trkpt lat="44.33535" lon="2.51954">
        <ele>531</ele>
        <time>2011-05-18T16:46:35Z</time>
      </trkpt>
      <trkpt lat="44.33533" lon="2.51951">
        <ele>531.4</ele>
        <time>2011-05-18T16:46:36Z</time>
      </trkpt>
      <trkpt lat="44.33531" lon="2.51949">
        <ele>531.7</ele>
        <time>2011-05-18T16:46:37Z</time>
      </trkpt>
      <trkpt lat="44.3353" lon="2.51946">
        <ele>532.2</ele>
        <time>2011-05-18T16:46:38Z</time>
      </trkpt>
      <trkpt lat="44.33528" lon="2.51943">
        <ele>532.6</ele>
        <time>2011-05-18T16:46:39Z</time>
      </trkpt>
      <trkpt lat="44.33527" lon="2.5194">
        <ele>533</ele>
        <time>2011-05-18T16:46:40Z</time>
      </trkpt>
      <trkpt lat="44.33525" lon="2.51938">
        <ele>533.3</ele>
        <time>2011-05-18T16:46:41Z</time>
      </trkpt>
      <trkpt lat="44.33524" lon="2.51935">
        <ele>534.2</ele>
        <time>2011-05-18T16:46:42Z</time>
      </trkpt>
      <trkpt lat="44.33523" lon="2.51932">
        <ele>534.6</ele>
        <time>2011-05-18T16:46:43Z</time>
      </trkpt>
      <trkpt lat="44.33521" lon="2.51929">
        <ele>535</ele>
        <time>2011-05-18T16:46:44Z</time>
      </trkpt>
      <trkpt lat="44.3352" lon="2.51926">
        <ele>535.5</ele>
        <time>2011-05-18T16:46:45Z</time>
      </trkpt>
      <trkpt lat="44.33518" lon="2.5192">
        <ele>536.9</ele>
        <time>2011-05-18T16:46:47Z</time>
      </trkpt>
      <trkpt lat="44.33517" lon="2.51915">
        <ele>537.5</ele>
        <time>2011-05-18T16:46:49Z</time>
      </trkpt>
      <trkpt lat="44.33517" lon="2.51909">
        <ele>537.7</ele>
        <time>2011-05-18T16:46:51Z</time>
      </trkpt>
      <trkpt lat="44.33517" lon="2.51905">
        <ele>538.1</ele>
        <time>2011-05-18T16:46:53Z</time>
      </trkpt>
      <trkpt lat="44.33517" lon="2.519">
        <ele>538.5</ele>
        <time>2011-05-18T16:46:55Z</time>
      </trkpt>
      <trkpt lat="44.33517" lon="2.51895">
        <ele>538.9</ele>
        <time>2011-05-18T16:46:57Z</time>
      </trkpt>
      <trkpt lat="44.33518" lon="2.5189">
        <ele>539.6</ele>
        <time>2011-05-18T16:47:00Z</time>
      </trkpt>
      <trkpt lat="44.33521" lon="2.51887">
        <ele>540.9</ele>
        <time>2011-05-18T16:47:05Z</time>
      </trkpt>
      <trkpt lat="44.33525" lon="2.51886">
        <ele>542.2</ele>
        <time>2011-05-18T16:47:07Z</time>
      </trkpt>
      <trkpt lat="44.33527" lon="2.51884">
        <ele>543.2</ele>
        <time>2011-05-18T16:47:09Z</time>
      </trkpt>
      <trkpt lat="44.3353" lon="2.51879">
        <ele>544.4</ele>
        <time>2011-05-18T16:47:15Z</time>
      </trkpt>
      <trkpt lat="44.33532" lon="2.51874">
        <ele>545.7</ele>
        <time>2011-05-18T16:47:28Z</time>
      </trkpt>
      <trkpt lat="44.33533" lon="2.51873">
        <ele>546.2</ele>
        <time>2011-05-18T16:47:29Z</time>
      </trkpt>
      <trkpt lat="44.33538" lon="2.51868">
        <ele>548.2</ele>
        <time>2011-05-18T16:47:34Z</time>
      </trkpt>
      <trkpt lat="44.3354" lon="2.51864">
        <ele>549.3</ele>
        <time>2011-05-18T16:47:37Z</time>
      </trkpt>
      <trkpt lat="44.33543" lon="2.5186">
        <ele>550.5</ele>
        <time>2011-05-18T16:47:40Z</time>
      </trkpt>
      <trkpt lat="44.33545" lon="2.51855">
        <ele>551.8</ele>
        <time>2011-05-18T16:47:43Z</time>
      </trkpt>
      <trkpt lat="44.33548" lon="2.51851">
        <ele>553.2</ele>
        <time>2011-05-18T16:47:46Z</time>
      </trkpt>
      <trkpt lat="44.3355" lon="2.51847">
        <ele>554.5</ele>
        <time>2011-05-18T16:47:49Z</time>
      </trkpt>
      <trkpt lat="44.33553" lon="2.51843">
        <ele>555.8</ele>
        <time>2011-05-18T16:47:52Z</time>
      </trkpt>
      <trkpt lat="44.33556" lon="2.51838">
        <ele>557.3</ele>
        <time>2011-05-18T16:47:55Z</time>
      </trkpt>
      <trkpt lat="44.33558" lon="2.51833">
        <ele>558.4</ele>
        <time>2011-05-18T16:47:58Z</time>
      </trkpt>
      <trkpt lat="44.3356" lon="2.51829">
        <ele>559</ele>
        <time>2011-05-18T16:48:01Z</time>
      </trkpt>
      <trkpt lat="44.33563" lon="2.51825">
        <ele>559.6</ele>
        <time>2011-05-18T16:48:04Z</time>
      </trkpt>
      <trkpt lat="44.33565" lon="2.51821">
        <ele>559.9</ele>
        <time>2011-05-18T16:48:06Z</time>
      </trkpt>
      <trkpt lat="44.33568" lon="2.51817">
        <ele>560.6</ele>
        <time>2011-05-18T16:48:09Z</time>
      </trkpt>
      <trkpt lat="44.3357" lon="2.51813">
        <ele>561</ele>
        <time>2011-05-18T16:48:11Z</time>
      </trkpt>
      <trkpt lat="44.33572" lon="2.51809">
        <ele>561.4</ele>
        <time>2011-05-18T16:48:13Z</time>
      </trkpt>
      <trkpt lat="44.33575" lon="2.51805">
        <ele>562.2</ele>
        <time>2011-05-18T16:48:16Z</time>
      </trkpt>
      <trkpt lat="44.33577" lon="2.51801">
        <ele>562.4</ele>
        <time>2011-05-18T16:48:18Z</time>
      </trkpt>
      <trkpt lat="44.33578" lon="2.51798">
        <ele>562.6</ele>
        <time>2011-05-18T16:48:20Z</time>
      </trkpt>
      <trkpt lat="44.3358" lon="2.51793">
        <ele>562.8</ele>
        <time>2011-05-18T16:48:22Z</time>
      </trkpt>
      <trkpt lat="44.33582" lon="2.5179">
        <ele>563.2</ele>
        <time>2011-05-18T16:48:24Z</time>
      </trkpt>
      <trkpt lat="44.33584" lon="2.51786">
        <ele>563.7</ele>
        <time>2011-05-18T16:48:26Z</time>
      </trkpt>
      <trkpt lat="44.33587" lon="2.51783">
        <ele>564.2</ele>
        <time>2011-05-18T16:48:28Z</time>
      </trkpt>
      <trkpt lat="44.33589" lon="2.51779">
        <ele>564.7</ele>
        <time>2011-05-18T16:48:30Z</time>
      </trkpt>
      <trkpt lat="44.33591" lon="2.51778">
        <ele>564.9</ele>
        <time>2011-05-18T16:48:31Z</time>
      </trkpt>
      <trkpt lat="44.33595" lon="2.51772">
        <ele>565.6</ele>
        <time>2011-05-18T16:48:34Z</time>
      </trkpt>
      <trkpt lat="44.33597" lon="2.51769">
        <ele>565.9</ele>
        <time>2011-05-18T16:48:36Z</time>
      </trkpt>
      <trkpt lat="44.33599" lon="2.51765">
        <ele>566.1</ele>
        <time>2011-05-18T16:48:38Z</time>
      </trkpt>
      <trkpt lat="44.33602" lon="2.51761">
        <ele>566.7</ele>
        <time>2011-05-18T16:48:41Z</time>
      </trkpt>
      <trkpt lat="44.33604" lon="2.51758">
        <ele>567.2</ele>
        <time>2011-05-18T16:48:43Z</time>
      </trkpt>
      <trkpt lat="44.33606" lon="2.51755">
        <ele>567.6</ele>
        <time>2011-05-18T16:48:45Z</time>
      </trkpt>
      <trkpt lat="44.33608" lon="2.51751">
        <ele>567.8</ele>
        <time>2011-05-18T16:48:47Z</time>
      </trkpt>
      <trkpt lat="44.33611" lon="2.51748">
        <ele>568.2</ele>
        <time>2011-05-18T16:48:49Z</time>
      </trkpt>
      <trkpt lat="44.33613" lon="2.51744">
        <ele>568.4</ele>
        <time>2011-05-18T16:48:51Z</time>
      </trkpt>
      <trkpt lat="44.33615" lon="2.51741">
        <ele>568.8</ele>
        <time>2011-05-18T16:48:53Z</time>
      </trkpt>
      <trkpt lat="44.33617" lon="2.51737">
        <ele>568.9</ele>
        <time>2011-05-18T16:48:55Z</time>
      </trkpt>
      <trkpt lat="44.33619" lon="2.51734">
        <ele>569.3</ele>
        <time>2011-05-18T16:48:57Z</time>
      </trkpt>
      <trkpt lat="44.33621" lon="2.51731">
        <ele>569.5</ele>
        <time>2011-05-18T16:48:59Z</time>
      </trkpt>
      <trkpt lat="44.33623" lon="2.51727">
        <ele>569.7</ele>
        <time>2011-05-18T16:49:01Z</time>
      </trkpt>
      <trkpt lat="44.33625" lon="2.51723">
        <ele>569.8</ele>
        <time>2011-05-18T16:49:03Z</time>
      </trkpt>
      <trkpt lat="44.33628" lon="2.51719">
        <ele>570.3</ele>
        <time>2011-05-18T16:49:06Z</time>
      </trkpt>
      <trkpt lat="44.3363" lon="2.51715">
        <ele>570.4</ele>
        <time>2011-05-18T16:49:08Z</time>
      </trkpt>
      <trkpt lat="44.33632" lon="2.51712">
        <ele>570.5</ele>
        <time>2011-05-18T16:49:10Z</time>
      </trkpt>
      <trkpt lat="44.33634" lon="2.51708">
        <ele>570.6</ele>
        <time>2011-05-18T16:49:12Z</time>
      </trkpt>
      <trkpt lat="44.33635" lon="2.51705">
        <ele>570.8</ele>
        <time>2011-05-18T16:49:14Z</time>
      </trkpt>
      <trkpt lat="44.33637" lon="2.517">
        <ele>570.7</ele>
        <time>2011-05-18T16:49:16Z</time>
      </trkpt>
      <trkpt lat="44.33639" lon="2.51697">
        <ele>571.1</ele>
        <time>2011-05-18T16:49:18Z</time>
      </trkpt>
      <trkpt lat="44.33641" lon="2.51693">
        <ele>571.2</ele>
        <time>2011-05-18T16:49:20Z</time>
      </trkpt>
      <trkpt lat="44.33644" lon="2.5169">
        <ele>571.4</ele>
        <time>2011-05-18T16:49:22Z</time>
      </trkpt>
      <trkpt lat="44.33645" lon="2.51686">
        <ele>571.6</ele>
        <time>2011-05-18T16:49:24Z</time>
      </trkpt>
      <trkpt lat="44.33647" lon="2.51682">
        <ele>571.5</ele>
        <time>2011-05-18T16:49:26Z</time>
      </trkpt>
      <trkpt lat="44.33649" lon="2.51679">
        <ele>572</ele>
        <time>2011-05-18T16:49:28Z</time>
      </trkpt>
      <trkpt lat="44.33651" lon="2.51676">
        <ele>572.2</ele>
        <time>2011-05-18T16:49:30Z</time>
      </trkpt>
      <trkpt lat="44.33653" lon="2.51672">
        <ele>572.5</ele>
        <time>2011-05-18T16:49:32Z</time>
      </trkpt>
      <trkpt lat="44.33654" lon="2.51671">
        <ele>572.6</ele>
        <time>2011-05-18T16:49:33Z</time>
      </trkpt>
      <trkpt lat="44.33659" lon="2.51665">
        <ele>573.2</ele>
        <time>2011-05-18T16:49:37Z</time>
      </trkpt>
      <trkpt lat="44.33661" lon="2.5166">
        <ele>573.4</ele>
        <time>2011-05-18T16:49:40Z</time>
      </trkpt>
      <trkpt lat="44.33663" lon="2.51657">
        <ele>573.5</ele>
        <time>2011-05-18T16:49:42Z</time>
      </trkpt>
      <trkpt lat="44.33667" lon="2.51653">
        <ele>573.9</ele>
        <time>2011-05-18T16:49:45Z</time>
      </trkpt>
      <trkpt lat="44.33669" lon="2.5165">
        <ele>574.1</ele>
        <time>2011-05-18T16:49:47Z</time>
      </trkpt>
      <trkpt lat="44.33671" lon="2.51647">
        <ele>574.3</ele>
        <time>2011-05-18T16:49:49Z</time>
      </trkpt>
      <trkpt lat="44.33674" lon="2.51644">
        <ele>574.2</ele>
        <time>2011-05-18T16:49:51Z</time>
      </trkpt>
      <trkpt lat="44.33676" lon="2.51641">
        <ele>574.5</ele>
        <time>2011-05-18T16:49:53Z</time>
      </trkpt>
      <trkpt lat="44.33679" lon="2.51638">
        <ele>574.7</ele>
        <time>2011-05-18T16:49:55Z</time>
      </trkpt>
      <trkpt lat="44.33681" lon="2.51634">
        <ele>574.6</ele>
        <time>2011-05-18T16:49:57Z</time>
      </trkpt>
      <trkpt lat="44.33683" lon="2.51632">
        <ele>574.8</ele>
        <time>2011-05-18T16:49:59Z</time>
      </trkpt>
      <trkpt lat="44.33685" lon="2.51628">
        <ele>574.7</ele>
        <time>2011-05-18T16:50:01Z</time>
      </trkpt>
      <trkpt lat="44.33689" lon="2.51625">
        <ele>575</ele>
        <time>2011-05-18T16:50:04Z</time>
      </trkpt>
      <trkpt lat="44.33691" lon="2.51622">
        <ele>575.2</ele>
        <time>2011-05-18T16:50:06Z</time>
      </trkpt>
      <trkpt lat="44.33694" lon="2.51619">
        <ele>575.4</ele>
        <time>2011-05-18T16:50:08Z</time>
      </trkpt>
      <trkpt lat="44.33696" lon="2.51616">
        <ele>575.6</ele>
        <time>2011-05-18T16:50:10Z</time>
      </trkpt>
      <trkpt lat="44.33699" lon="2.51614">
        <ele>575.8</ele>
        <time>2011-05-18T16:50:12Z</time>
      </trkpt>
      <trkpt lat="44.33701" lon="2.51611">
        <ele>575.9</ele>
        <time>2011-05-18T16:50:14Z</time>
      </trkpt>
      <trkpt lat="44.33704" lon="2.51609">
        <ele>576.2</ele>
        <time>2011-05-18T16:50:16Z</time>
      </trkpt>
      <trkpt lat="44.33707" lon="2.51605">
        <ele>576.5</ele>
        <time>2011-05-18T16:50:19Z</time>
      </trkpt>
      <trkpt lat="44.3371" lon="2.51603">
        <ele>576.7</ele>
        <time>2011-05-18T16:50:22Z</time>
      </trkpt>
      <trkpt lat="44.33713" lon="2.51599">
        <ele>577</ele>
        <time>2011-05-18T16:50:25Z</time>
      </trkpt>
      <trkpt lat="44.33717" lon="2.51596">
        <ele>577.3</ele>
        <time>2011-05-18T16:50:28Z</time>
      </trkpt>
      <trkpt lat="44.33721" lon="2.51592">
        <ele>577.5</ele>
        <time>2011-05-18T16:50:31Z</time>
      </trkpt>
      <trkpt lat="44.33723" lon="2.51588">
        <ele>577.4</ele>
        <time>2011-05-18T16:50:33Z</time>
      </trkpt>
      <trkpt lat="44.33724" lon="2.51587">
        <ele>577.5</ele>
        <time>2011-05-18T16:50:34Z</time>
      </trkpt>
      <trkpt lat="44.33728" lon="2.51584">
        <ele>578</ele>
        <time>2011-05-18T16:50:37Z</time>
      </trkpt>
      <trkpt lat="44.33732" lon="2.51582">
        <ele>578.8</ele>
        <time>2011-05-18T16:50:40Z</time>
      </trkpt>
      <trkpt lat="44.33735" lon="2.51581">
        <ele>579.3</ele>
        <time>2011-05-18T16:50:42Z</time>
      </trkpt>
      <trkpt lat="44.33738" lon="2.5158">
        <ele>579.9</ele>
        <time>2011-05-18T16:50:44Z</time>
      </trkpt>
      <trkpt lat="44.33742" lon="2.51578">
        <ele>580.4</ele>
        <time>2011-05-18T16:50:47Z</time>
      </trkpt>
      <trkpt lat="44.33746" lon="2.51577">
        <ele>581.3</ele>
        <time>2011-05-18T16:50:50Z</time>
      </trkpt>
      <trkpt lat="44.33749" lon="2.51575">
        <ele>581.8</ele>
        <time>2011-05-18T16:50:53Z</time>
      </trkpt>
      <trkpt lat="44.33753" lon="2.51573">
        <ele>582.4</ele>
        <time>2011-05-18T16:50:57Z</time>
      </trkpt>
      <trkpt lat="44.33757" lon="2.51572">
        <ele>583.1</ele>
        <time>2011-05-18T16:51:00Z</time>
      </trkpt>
      <trkpt lat="44.33761" lon="2.51571">
        <ele>583.7</ele>
        <time>2011-05-18T16:51:03Z</time>
      </trkpt>
      <trkpt lat="44.33765" lon="2.5157">
        <ele>584.6</ele>
        <time>2011-05-18T16:51:06Z</time>
      </trkpt>
      <trkpt lat="44.33769" lon="2.51569">
        <ele>585</ele>
        <time>2011-05-18T16:51:09Z</time>
      </trkpt>
      <trkpt lat="44.33773" lon="2.51567">
        <ele>585.6</ele>
        <time>2011-05-18T16:51:12Z</time>
      </trkpt>
      <trkpt lat="44.33776" lon="2.51566">
        <ele>586.2</ele>
        <time>2011-05-18T16:51:15Z</time>
      </trkpt>
      <trkpt lat="44.3378" lon="2.51564">
        <ele>586.8</ele>
        <time>2011-05-18T16:51:19Z</time>
      </trkpt>
      <trkpt lat="44.33784" lon="2.51563">
        <ele>587.5</ele>
        <time>2011-05-18T16:51:22Z</time>
      </trkpt>
      <trkpt lat="44.33788" lon="2.51562">
        <ele>588.1</ele>
        <time>2011-05-18T16:51:25Z</time>
      </trkpt>
      <trkpt lat="44.33792" lon="2.51562">
        <ele>588.9</ele>
        <time>2011-05-18T16:51:28Z</time>
      </trkpt>
      <trkpt lat="44.33796" lon="2.5156">
        <ele>589.6</ele>
        <time>2011-05-18T16:51:31Z</time>
      </trkpt>
      <trkpt lat="44.338" lon="2.51558">
        <ele>590</ele>
        <time>2011-05-18T16:51:34Z</time>
      </trkpt>
      <trkpt lat="44.33801" lon="2.51558">
        <ele>590.2</ele>
        <time>2011-05-18T16:51:35Z</time>
      </trkpt>
      <trkpt lat="44.33808" lon="2.51556">
        <ele>591.6</ele>
        <time>2011-05-18T16:51:42Z</time>
      </trkpt>
      <trkpt lat="44.33813" lon="2.51555">
        <ele>592.3</ele>
        <time>2011-05-18T16:51:46Z</time>
      </trkpt>
      <trkpt lat="44.33816" lon="2.51555">
        <ele>593.1</ele>
        <time>2011-05-18T16:51:49Z</time>
      </trkpt>
      <trkpt lat="44.3382" lon="2.51554">
        <ele>593.8</ele>
        <time>2011-05-18T16:51:53Z</time>
      </trkpt>
      <trkpt lat="44.33824" lon="2.51552">
        <ele>594.5</ele>
        <time>2011-05-18T16:51:56Z</time>
      </trkpt>
      <trkpt lat="44.33828" lon="2.5155">
        <ele>594.9</ele>
        <time>2011-05-18T16:51:59Z</time>
      </trkpt>
      <trkpt lat="44.33832" lon="2.51548">
        <ele>595.5</ele>
        <time>2011-05-18T16:52:02Z</time>
      </trkpt>
      <trkpt lat="44.33835" lon="2.51546">
        <ele>595.6</ele>
        <time>2011-05-18T16:52:05Z</time>
      </trkpt>
      <trkpt lat="44.33839" lon="2.51543">
        <ele>595.7</ele>
        <time>2011-05-18T16:52:08Z</time>
      </trkpt>
      <trkpt lat="44.33842" lon="2.51541">
        <ele>595.7</ele>
        <time>2011-05-18T16:52:11Z</time>
      </trkpt>
      <trkpt lat="44.33845" lon="2.51536">
        <ele>595.3</ele>
        <time>2011-05-18T16:52:15Z</time>
      </trkpt>
      <trkpt lat="44.33847" lon="2.51531">
        <ele>595</ele>
        <time>2011-05-18T16:52:19Z</time>
      </trkpt>
      <trkpt lat="44.33849" lon="2.51527">
        <ele>594.7</ele>
        <time>2011-05-18T16:52:23Z</time>
      </trkpt>
      <trkpt lat="44.33851" lon="2.51521">
        <ele>594.3</ele>
        <time>2011-05-18T16:52:28Z</time>
      </trkpt>
      <trkpt lat="44.33849" lon="2.51516">
        <ele>593.6</ele>
        <time>2011-05-18T16:52:33Z</time>
      </trkpt>
      <trkpt lat="44.33849" lon="2.51511">
        <ele>593</ele>
        <time>2011-05-18T16:52:37Z</time>
      </trkpt>
      <trkpt lat="44.33849" lon="2.51509">
        <ele>592.8</ele>
        <time>2011-05-18T16:52:38Z</time>
      </trkpt>
      <trkpt lat="44.33849" lon="2.51501">
        <ele>592</ele>
        <time>2011-05-18T16:52:43Z</time>
      </trkpt>
      <trkpt lat="44.3385" lon="2.51497">
        <ele>591.6</ele>
        <time>2011-05-18T16:52:46Z</time>
      </trkpt>
      <trkpt lat="44.33852" lon="2.51492">
        <ele>591.3</ele>
        <time>2011-05-18T16:52:49Z</time>
      </trkpt>
      <trkpt lat="44.33853" lon="2.51487">
        <ele>591</ele>
        <time>2011-05-18T16:52:52Z</time>
      </trkpt>
      <trkpt lat="44.33855" lon="2.51483">
        <ele>590.8</ele>
        <time>2011-05-18T16:52:55Z</time>
      </trkpt>
      <trkpt lat="44.33858" lon="2.51478">
        <ele>590.8</ele>
        <time>2011-05-18T16:52:58Z</time>
      </trkpt>
      <trkpt lat="44.3386" lon="2.51475">
        <ele>590.7</ele>
        <time>2011-05-18T16:53:01Z</time>
      </trkpt>
      <trkpt lat="44.33863" lon="2.51472">
        <ele>590.9</ele>
        <time>2011-05-18T16:53:04Z</time>
      </trkpt>
      <trkpt lat="44.33868" lon="2.51471">
        <ele>591.4</ele>
        <time>2011-05-18T16:53:08Z</time>
      </trkpt>
      <trkpt lat="44.33871" lon="2.51469">
        <ele>591.5</ele>
        <time>2011-05-18T16:53:11Z</time>
      </trkpt>
      <trkpt lat="44.33875" lon="2.51467">
        <ele>591.9</ele>
        <time>2011-05-18T16:53:14Z</time>
      </trkpt>
      <trkpt lat="44.33879" lon="2.51465">
        <ele>592.2</ele>
        <time>2011-05-18T16:53:17Z</time>
      </trkpt>
      <trkpt lat="44.33882" lon="2.51463">
        <ele>592.6</ele>
        <time>2011-05-18T16:53:20Z</time>
      </trkpt>
      <trkpt lat="44.33886" lon="2.51461">
        <ele>593</ele>
        <time>2011-05-18T16:53:23Z</time>
      </trkpt>
      <trkpt lat="44.33889" lon="2.51459">
        <ele>593.2</ele>
        <time>2011-05-18T16:53:26Z</time>
      </trkpt>
      <trkpt lat="44.33892" lon="2.51456">
        <ele>593.4</ele>
        <time>2011-05-18T16:53:29Z</time>
      </trkpt>
      <trkpt lat="44.33895" lon="2.51454">
        <ele>593.6</ele>
        <time>2011-05-18T16:53:32Z</time>
      </trkpt>
      <trkpt lat="44.33899" lon="2.51452">
        <ele>594</ele>
        <time>2011-05-18T16:53:35Z</time>
      </trkpt>
      <trkpt lat="44.33902" lon="2.51451">
        <ele>594.4</ele>
        <time>2011-05-18T16:53:38Z</time>
      </trkpt>
      <trkpt lat="44.33904" lon="2.51451">
        <ele>594.6</ele>
        <time>2011-05-18T16:53:39Z</time>
      </trkpt>
      <trkpt lat="44.3391" lon="2.51454">
        <ele>595.7</ele>
        <time>2011-05-18T16:53:44Z</time>
      </trkpt>
      <trkpt lat="44.33913" lon="2.51456">
        <ele>596.3</ele>
        <time>2011-05-18T16:53:47Z</time>
      </trkpt>
      <trkpt lat="44.33916" lon="2.51461">
        <ele>597</ele>
        <time>2011-05-18T16:53:51Z</time>
      </trkpt>
      <trkpt lat="44.33917" lon="2.51467">
        <ele>597.6</ele>
        <time>2011-05-18T16:53:55Z</time>
      </trkpt>
      <trkpt lat="44.33917" lon="2.51472">
        <ele>597.9</ele>
        <time>2011-05-18T16:53:58Z</time>
      </trkpt>
      <trkpt lat="44.33916" lon="2.51477">
        <ele>598.2</ele>
        <time>2011-05-18T16:54:01Z</time>
      </trkpt>
      <trkpt lat="44.33916" lon="2.51482">
        <ele>598.6</ele>
        <time>2011-05-18T16:54:04Z</time>
      </trkpt>
      <trkpt lat="44.33915" lon="2.51488">
        <ele>598.9</ele>
        <time>2011-05-18T16:54:07Z</time>
      </trkpt>
      <trkpt lat="44.33915" lon="2.51493">
        <ele>599.3</ele>
        <time>2011-05-18T16:54:10Z</time>
      </trkpt>
      <trkpt lat="44.33914" lon="2.51499">
        <ele>599.6</ele>
        <time>2011-05-18T16:54:13Z</time>
      </trkpt>
      <trkpt lat="44.33915" lon="2.51505">
        <ele>600</ele>
        <time>2011-05-18T16:54:16Z</time>
      </trkpt>
      <trkpt lat="44.33914" lon="2.51511">
        <ele>600.4</ele>
        <time>2011-05-18T16:54:19Z</time>
      </trkpt>
      <trkpt lat="44.33915" lon="2.51517">
        <ele>600.8</ele>
        <time>2011-05-18T16:54:22Z</time>
      </trkpt>
      <trkpt lat="44.33915" lon="2.51521">
        <ele>601.1</ele>
        <time>2011-05-18T16:54:24Z</time>
      </trkpt>
      <trkpt lat="44.33916" lon="2.51526">
        <ele>601.4</ele>
        <time>2011-05-18T16:54:26Z</time>
      </trkpt>
      <trkpt lat="44.33917" lon="2.5153">
        <ele>601.7</ele>
        <time>2011-05-18T16:54:28Z</time>
      </trkpt>
      <trkpt lat="44.33917" lon="2.51534">
        <ele>602.1</ele>
        <time>2011-05-18T16:54:30Z</time>
      </trkpt>
      <trkpt lat="44.33918" lon="2.51538">
        <ele>602.4</ele>
        <time>2011-05-18T16:54:32Z</time>
      </trkpt>
      <trkpt lat="44.3392" lon="2.51542">
        <ele>602.8</ele>
        <time>2011-05-18T16:54:34Z</time>
      </trkpt>
      <trkpt lat="44.33921" lon="2.51546">
        <ele>603.1</ele>
        <time>2011-05-18T16:54:36Z</time>
      </trkpt>
      <trkpt lat="44.33923" lon="2.51549">
        <ele>603.4</ele>
        <time>2011-05-18T16:54:38Z</time>
      </trkpt>
      <trkpt lat="44.33924" lon="2.51553">
        <ele>603.8</ele>
        <time>2011-05-18T16:54:40Z</time>
      </trkpt>
      <trkpt lat="44.33925" lon="2.51555">
        <ele>604.1</ele>
        <time>2011-05-18T16:54:41Z</time>
      </trkpt>
      <trkpt lat="44.33929" lon="2.51561">
        <ele>604.8</ele>
        <time>2011-05-18T16:54:45Z</time>
      </trkpt>
      <trkpt lat="44.33932" lon="2.51566">
        <ele>605.2</ele>
        <time>2011-05-18T16:54:48Z</time>
      </trkpt>
      <trkpt lat="44.33934" lon="2.5157">
        <ele>605.7</ele>
        <time>2011-05-18T16:54:51Z</time>
      </trkpt>
      <trkpt lat="44.33937" lon="2.51574">
        <ele>606.1</ele>
        <time>2011-05-18T16:54:54Z</time>
      </trkpt>
      <trkpt lat="44.33938" lon="2.51579">
        <ele>606.5</ele>
        <time>2011-05-18T16:54:57Z</time>
      </trkpt>
      <trkpt lat="44.3394" lon="2.51585">
        <ele>607</ele>
        <time>2011-05-18T16:55:00Z</time>
      </trkpt>
      <trkpt lat="44.33941" lon="2.5159">
        <ele>607.3</ele>
        <time>2011-05-18T16:55:03Z</time>
      </trkpt>
      <trkpt lat="44.33942" lon="2.51596">
        <ele>607.6</ele>
        <time>2011-05-18T16:55:06Z</time>
      </trkpt>
      <trkpt lat="44.33941" lon="2.51602">
        <ele>607.8</ele>
        <time>2011-05-18T16:55:09Z</time>
      </trkpt>
      <trkpt lat="44.33941" lon="2.51607">
        <ele>608</ele>
        <time>2011-05-18T16:55:12Z</time>
      </trkpt>
      <trkpt lat="44.33942" lon="2.51613">
        <ele>608.3</ele>
        <time>2011-05-18T16:55:16Z</time>
      </trkpt>
      <trkpt lat="44.33944" lon="2.51618">
        <ele>608.7</ele>
        <time>2011-05-18T16:55:19Z</time>
      </trkpt>
      <trkpt lat="44.33946" lon="2.51624">
        <ele>609</ele>
        <time>2011-05-18T16:55:22Z</time>
      </trkpt>
      <trkpt lat="44.33948" lon="2.51629">
        <ele>609.4</ele>
        <time>2011-05-18T16:55:25Z</time>
      </trkpt>
      <trkpt lat="44.3395" lon="2.51632">
        <ele>609.7</ele>
        <time>2011-05-18T16:55:27Z</time>
      </trkpt>
      <trkpt lat="44.33952" lon="2.51635">
        <ele>609.9</ele>
        <time>2011-05-18T16:55:29Z</time>
      </trkpt>
      <trkpt lat="44.33955" lon="2.51637">
        <ele>610.2</ele>
        <time>2011-05-18T16:55:31Z</time>
      </trkpt>
      <trkpt lat="44.33957" lon="2.5164">
        <ele>610.4</ele>
        <time>2011-05-18T16:55:33Z</time>
      </trkpt>
      <trkpt lat="44.3396" lon="2.51643">
        <ele>610.7</ele>
        <time>2011-05-18T16:55:35Z</time>
      </trkpt>
      <trkpt lat="44.33962" lon="2.51646">
        <ele>611</ele>
        <time>2011-05-18T16:55:37Z</time>
      </trkpt>
      <trkpt lat="44.33966" lon="2.51648">
        <ele>611.3</ele>
        <time>2011-05-18T16:55:39Z</time>
      </trkpt>
      <trkpt lat="44.33969" lon="2.5165">
        <ele>611.6</ele>
        <time>2011-05-18T16:55:41Z</time>
      </trkpt>
      <trkpt lat="44.33971" lon="2.5165">
        <ele>611.7</ele>
        <time>2011-05-18T16:55:42Z</time>
      </trkpt>
      <trkpt lat="44.33977" lon="2.51652">
        <ele>612.2</ele>
        <time>2011-05-18T16:55:45Z</time>
      </trkpt>
      <trkpt lat="44.33981" lon="2.51654">
        <ele>612.4</ele>
        <time>2011-05-18T16:55:47Z</time>
      </trkpt>
      <trkpt lat="44.33984" lon="2.51655">
        <ele>612.7</ele>
        <time>2011-05-18T16:55:49Z</time>
      </trkpt>
      <trkpt lat="44.33987" lon="2.51657">
        <ele>613</ele>
        <time>2011-05-18T16:55:51Z</time>
      </trkpt>
      <trkpt lat="44.33991" lon="2.51659">
        <ele>613.2</ele>
        <time>2011-05-18T16:55:53Z</time>
      </trkpt>
      <trkpt lat="44.33994" lon="2.51661">
        <ele>613.5</ele>
        <time>2011-05-18T16:55:55Z</time>
      </trkpt>
      <trkpt lat="44.33998" lon="2.51664">
        <ele>613.8</ele>
        <time>2011-05-18T16:55:57Z</time>
      </trkpt>
      <trkpt lat="44.34001" lon="2.51667">
        <ele>614</ele>
        <time>2011-05-18T16:55:59Z</time>
      </trkpt>
      <trkpt lat="44.34004" lon="2.51669">
        <ele>613.9</ele>
        <time>2011-05-18T16:56:01Z</time>
      </trkpt>
      <trkpt lat="44.34007" lon="2.51672">
        <ele>613.8</ele>
        <time>2011-05-18T16:56:03Z</time>
      </trkpt>
      <trkpt lat="44.3401" lon="2.51675">
        <ele>613.7</ele>
        <time>2011-05-18T16:56:05Z</time>
      </trkpt>
      <trkpt lat="44.34013" lon="2.51678">
        <ele>613.6</ele>
        <time>2011-05-18T16:56:07Z</time>
      </trkpt>
      <trkpt lat="44.34017" lon="2.5168">
        <ele>613.5</ele>
        <time>2011-05-18T16:56:09Z</time>
      </trkpt>
      <trkpt lat="44.3402" lon="2.51683">
        <ele>613.4</ele>
        <time>2011-05-18T16:56:11Z</time>
      </trkpt>
      <trkpt lat="44.34024" lon="2.51686">
        <ele>613.3</ele>
        <time>2011-05-18T16:56:13Z</time>
      </trkpt>
      <trkpt lat="44.34027" lon="2.51688">
        <ele>613.3</ele>
        <time>2011-05-18T16:56:15Z</time>
      </trkpt>
      <trkpt lat="44.34031" lon="2.51691">
        <ele>613.2</ele>
        <time>2011-05-18T16:56:17Z</time>
      </trkpt>
      <trkpt lat="44.34035" lon="2.51692">
        <ele>613.1</ele>
        <time>2011-05-18T16:56:19Z</time>
      </trkpt>
      <trkpt lat="44.34039" lon="2.51694">
        <ele>613</ele>
        <time>2011-05-18T16:56:21Z</time>
      </trkpt>
      <trkpt lat="44.34043" lon="2.51695">
        <ele>613</ele>
        <time>2011-05-18T16:56:23Z</time>
      </trkpt>
      <trkpt lat="44.34047" lon="2.51697">
        <ele>612.9</ele>
        <time>2011-05-18T16:56:25Z</time>
      </trkpt>
      <trkpt lat="44.34051" lon="2.51699">
        <ele>612.9</ele>
        <time>2011-05-18T16:56:27Z</time>
      </trkpt>
      <trkpt lat="44.34055" lon="2.51701">
        <ele>612.8</ele>
        <time>2011-05-18T16:56:29Z</time>
      </trkpt>
      <trkpt lat="44.34058" lon="2.51702">
        <ele>612.8</ele>
        <time>2011-05-18T16:56:31Z</time>
      </trkpt>
      <trkpt lat="44.34062" lon="2.51702">
        <ele>612.7</ele>
        <time>2011-05-18T16:56:33Z</time>
      </trkpt>
      <trkpt lat="44.34066" lon="2.51704">
        <ele>612.7</ele>
        <time>2011-05-18T16:56:35Z</time>
      </trkpt>
      <trkpt lat="44.3407" lon="2.51704">
        <ele>612.6</ele>
        <time>2011-05-18T16:56:37Z</time>
      </trkpt>
      <trkpt lat="44.34074" lon="2.51705">
        <ele>612.6</ele>
        <time>2011-05-18T16:56:39Z</time>
      </trkpt>
      <trkpt lat="44.34078" lon="2.51706">
        <ele>612.5</ele>
        <time>2011-05-18T16:56:41Z</time>
      </trkpt>
      <trkpt lat="44.34083" lon="2.51708">
        <ele>612.5</ele>
        <time>2011-05-18T16:56:43Z</time>
      </trkpt>
      <trkpt lat="44.34085" lon="2.51709">
        <ele>612.5</ele>
        <time>2011-05-18T16:56:44Z</time>
      </trkpt>
      <trkpt lat="44.3409" lon="2.51713">
        <ele>612.4</ele>
        <time>2011-05-18T16:56:47Z</time>
      </trkpt>
      <trkpt lat="44.34094" lon="2.51717">
        <ele>612.4</ele>
        <time>2011-05-18T16:56:49Z</time>
      </trkpt>
      <trkpt lat="44.34095" lon="2.51719">
        <ele>612.4</ele>
        <time>2011-05-18T16:56:50Z</time>
      </trkpt>
      <trkpt lat="44.34097" lon="2.51721">
        <ele>612.4</ele>
        <time>2011-05-18T16:56:51Z</time>
      </trkpt>
      <trkpt lat="44.34099" lon="2.51723">
        <ele>612.4</ele>
        <time>2011-05-18T16:56:52Z</time>
      </trkpt>
      <trkpt lat="44.341" lon="2.51726">
        <ele>612.4</ele>
        <time>2011-05-18T16:56:53Z</time>
      </trkpt>
      <trkpt lat="44.34102" lon="2.51729">
        <ele>612.4</ele>
        <time>2011-05-18T16:56:54Z</time>
      </trkpt>
      <trkpt lat="44.34103" lon="2.51731">
        <ele>612.4</ele>
        <time>2011-05-18T16:56:55Z</time>
      </trkpt>
      <trkpt lat="44.34104" lon="2.51734">
        <ele>612.5</ele>
        <time>2011-05-18T16:56:56Z</time>
      </trkpt>
      <trkpt lat="44.34106" lon="2.51737">
        <ele>612.5</ele>
        <time>2011-05-18T16:56:57Z</time>
      </trkpt>
      <trkpt lat="44.34107" lon="2.5174">
        <ele>612.5</ele>
        <time>2011-05-18T16:56:58Z</time>
      </trkpt>
      <trkpt lat="44.34109" lon="2.51743">
        <ele>612.5</ele>
        <time>2011-05-18T16:56:59Z</time>
      </trkpt>
      <trkpt lat="44.34111" lon="2.51746">
        <ele>612.6</ele>
        <time>2011-05-18T16:57:00Z</time>
      </trkpt>
      <trkpt lat="44.34112" lon="2.51748">
        <ele>612.6</ele>
        <time>2011-05-18T16:57:01Z</time>
      </trkpt>
      <trkpt lat="44.34114" lon="2.51751">
        <ele>612.6</ele>
        <time>2011-05-18T16:57:02Z</time>
      </trkpt>
      <trkpt lat="44.34115" lon="2.51754">
        <ele>612.6</ele>
        <time>2011-05-18T16:57:03Z</time>
      </trkpt>
      <trkpt lat="44.34117" lon="2.51758">
        <ele>612.6</ele>
        <time>2011-05-18T16:57:04Z</time>
      </trkpt>
      <trkpt lat="44.34119" lon="2.5176">
        <ele>612.6</ele>
        <time>2011-05-18T16:57:05Z</time>
      </trkpt>
      <trkpt lat="44.34122" lon="2.51763">
        <ele>612.5</ele>
        <time>2011-05-18T16:57:06Z</time>
      </trkpt>
      <trkpt lat="44.34125" lon="2.51765">
        <ele>612.5</ele>
        <time>2011-05-18T16:57:07Z</time>
      </trkpt>
      <trkpt lat="44.34128" lon="2.51768">
        <ele>612.5</ele>
        <time>2011-05-18T16:57:08Z</time>
      </trkpt>
      <trkpt lat="44.34131" lon="2.51771">
        <ele>612.4</ele>
        <time>2011-05-18T16:57:09Z</time>
      </trkpt>
      <trkpt lat="44.34135" lon="2.51775">
        <ele>612.4</ele>
        <time>2011-05-18T16:57:10Z</time>
      </trkpt>
      <trkpt lat="44.34138" lon="2.51778">
        <ele>612.3</ele>
        <time>2011-05-18T16:57:11Z</time>
      </trkpt>
      <trkpt lat="44.34141" lon="2.51782">
        <ele>612.3</ele>
        <time>2011-05-18T16:57:12Z</time>
      </trkpt>
      <trkpt lat="44.34145" lon="2.51785">
        <ele>612.3</ele>
        <time>2011-05-18T16:57:13Z</time>
      </trkpt>
      <trkpt lat="44.34148" lon="2.51789">
        <ele>612.2</ele>
        <time>2011-05-18T16:57:14Z</time>
      </trkpt>
      <trkpt lat="44.34151" lon="2.51792">
        <ele>612.2</ele>
        <time>2011-05-18T16:57:15Z</time>
      </trkpt>
      <trkpt lat="44.34155" lon="2.51796">
        <ele>612.1</ele>
        <time>2011-05-18T16:57:16Z</time>
      </trkpt>
      <trkpt lat="44.34158" lon="2.51799">
        <ele>612.1</ele>
        <time>2011-05-18T16:57:17Z</time>
      </trkpt>
      <trkpt lat="44.34161" lon="2.51802">
        <ele>612.1</ele>
        <time>2011-05-18T16:57:18Z</time>
      </trkpt>
      <trkpt lat="44.34165" lon="2.51805">
        <ele>612</ele>
        <time>2011-05-18T16:57:19Z</time>
      </trkpt>
      <trkpt lat="44.34168" lon="2.51808">
        <ele>612</ele>
        <time>2011-05-18T16:57:20Z</time>
      </trkpt>
      <trkpt lat="44.34172" lon="2.51811">
        <ele>612</ele>
        <time>2011-05-18T16:57:21Z</time>
      </trkpt>
      <trkpt lat="44.34175" lon="2.51815">
        <ele>611.9</ele>
        <time>2011-05-18T16:57:22Z</time>
      </trkpt>
      <trkpt lat="44.34178" lon="2.51818">
        <ele>611.9</ele>
        <time>2011-05-18T16:57:23Z</time>
      </trkpt>
      <trkpt lat="44.34182" lon="2.51821">
        <ele>611.9</ele>
        <time>2011-05-18T16:57:24Z</time>
      </trkpt>
      <trkpt lat="44.34186" lon="2.51824">
        <ele>611.9</ele>
        <time>2011-05-18T16:57:25Z</time>
      </trkpt>
      <trkpt lat="44.34189" lon="2.51827">
        <ele>611.9</ele>
        <time>2011-05-18T16:57:26Z</time>
      </trkpt>
      <trkpt lat="44.34193" lon="2.5183">
        <ele>612</ele>
        <time>2011-05-18T16:57:27Z</time>
      </trkpt>
      <trkpt lat="44.34196" lon="2.51833">
        <ele>612</ele>
        <time>2011-05-18T16:57:28Z</time>
      </trkpt>
      <trkpt lat="44.34199" lon="2.51836">
        <ele>612</ele>
        <time>2011-05-18T16:57:29Z</time>
      </trkpt>
      <trkpt lat="44.34203" lon="2.51839">
        <ele>612</ele>
        <time>2011-05-18T16:57:30Z</time>
      </trkpt>
      <trkpt lat="44.34206" lon="2.51842">
        <ele>612</ele>
        <time>2011-05-18T16:57:31Z</time>
      </trkpt>
      <trkpt lat="44.34209" lon="2.51845">
        <ele>612.1</ele>
        <time>2011-05-18T16:57:32Z</time>
      </trkpt>
      <trkpt lat="44.34212" lon="2.51848">
        <ele>612.1</ele>
        <time>2011-05-18T16:57:33Z</time>
      </trkpt>
      <trkpt lat="44.34215" lon="2.51851">
        <ele>612.1</ele>
        <time>2011-05-18T16:57:34Z</time>
      </trkpt>
      <trkpt lat="44.34219" lon="2.51854">
        <ele>612.1</ele>
        <time>2011-05-18T16:57:35Z</time>
      </trkpt>
      <trkpt lat="44.34222" lon="2.51857">
        <ele>612.1</ele>
        <time>2011-05-18T16:57:36Z</time>
      </trkpt>
      <trkpt lat="44.34225" lon="2.5186">
        <ele>612.1</ele>
        <time>2011-05-18T16:57:37Z</time>
      </trkpt>
      <trkpt lat="44.34229" lon="2.51862">
        <ele>612.1</ele>
        <time>2011-05-18T16:57:38Z</time>
      </trkpt>
      <trkpt lat="44.34232" lon="2.51865">
        <ele>612.1</ele>
        <time>2011-05-18T16:57:39Z</time>
      </trkpt>
      <trkpt lat="44.34235" lon="2.51868">
        <ele>612.1</ele>
        <time>2011-05-18T16:57:40Z</time>
      </trkpt>
      <trkpt lat="44.34239" lon="2.5187">
        <ele>612.1</ele>
        <time>2011-05-18T16:57:41Z</time>
      </trkpt>
      <trkpt lat="44.34243" lon="2.51872">
        <ele>612</ele>
        <time>2011-05-18T16:57:42Z</time>
      </trkpt>
      <trkpt lat="44.34247" lon="2.51874">
        <ele>612</ele>
        <time>2011-05-18T16:57:43Z</time>
      </trkpt>
      <trkpt lat="44.34251" lon="2.51876">
        <ele>612</ele>
        <time>2011-05-18T16:57:44Z</time>
      </trkpt>
      <trkpt lat="44.34255" lon="2.51878">
        <ele>611.9</ele>
        <time>2011-05-18T16:57:45Z</time>
      </trkpt>
      <trkpt lat="44.34259" lon="2.51879">
        <ele>611.8</ele>
        <time>2011-05-18T16:57:46Z</time>
      </trkpt>
      <trkpt lat="44.34263" lon="2.5188">
        <ele>611.8</ele>
        <time>2011-05-18T16:57:47Z</time>
      </trkpt>
      <trkpt lat="44.34268" lon="2.5188">
        <ele>611.7</ele>
        <time>2011-05-18T16:57:48Z</time>
      </trkpt>
      <trkpt lat="44.34272" lon="2.51879">
        <ele>611.6</ele>
        <time>2011-05-18T16:57:49Z</time>
      </trkpt>
      <trkpt lat="44.34276" lon="2.51879">
        <ele>611.6</ele>
        <time>2011-05-18T16:57:50Z</time>
      </trkpt>
      <trkpt lat="44.3428" lon="2.51879">
        <ele>611.5</ele>
        <time>2011-05-18T16:57:51Z</time>
      </trkpt>
      <trkpt lat="44.34283" lon="2.51879">
        <ele>611.4</ele>
        <time>2011-05-18T16:57:52Z</time>
      </trkpt>
      <trkpt lat="44.34287" lon="2.51878">
        <ele>611.3</ele>
        <time>2011-05-18T16:57:53Z</time>
      </trkpt>
      <trkpt lat="44.34291" lon="2.51877">
        <ele>611.3</ele>
        <time>2011-05-18T16:57:54Z</time>
      </trkpt>
      <trkpt lat="44.34295" lon="2.51877">
        <ele>611.2</ele>
        <time>2011-05-18T16:57:55Z</time>
      </trkpt>
      <trkpt lat="44.34298" lon="2.51876">
        <ele>611.1</ele>
        <time>2011-05-18T16:57:56Z</time>
      </trkpt>
      <trkpt lat="44.34302" lon="2.51876">
        <ele>611.1</ele>
        <time>2011-05-18T16:57:57Z</time>
      </trkpt>
      <trkpt lat="44.34306" lon="2.51875">
        <ele>611</ele>
        <time>2011-05-18T16:57:58Z</time>
      </trkpt>
      <trkpt lat="44.34309" lon="2.51875">
        <ele>610.9</ele>
        <time>2011-05-18T16:57:59Z</time>
      </trkpt>
      <trkpt lat="44.34313" lon="2.51874">
        <ele>610.9</ele>
        <time>2011-05-18T16:58:00Z</time>
      </trkpt>
      <trkpt lat="44.34316" lon="2.51874">
        <ele>610.8</ele>
        <time>2011-05-18T16:58:01Z</time>
      </trkpt>
      <trkpt lat="44.34319" lon="2.51873">
        <ele>610.7</ele>
        <time>2011-05-18T16:58:02Z</time>
      </trkpt>
      <trkpt lat="44.34323" lon="2.51872">
        <ele>610.6</ele>
        <time>2011-05-18T16:58:03Z</time>
      </trkpt>
      <trkpt lat="44.34326" lon="2.51872">
        <ele>610.6</ele>
        <time>2011-05-18T16:58:04Z</time>
      </trkpt>
      <trkpt lat="44.3433" lon="2.51872">
        <ele>610.5</ele>
        <time>2011-05-18T16:58:05Z</time>
      </trkpt>
      <trkpt lat="44.34333" lon="2.51871">
        <ele>610.5</ele>
        <time>2011-05-18T16:58:06Z</time>
      </trkpt>
      <trkpt lat="44.34336" lon="2.51871">
        <ele>610.3</ele>
        <time>2011-05-18T16:58:07Z</time>
      </trkpt>
      <trkpt lat="44.3434" lon="2.51871">
        <ele>610.2</ele>
        <time>2011-05-18T16:58:08Z</time>
      </trkpt>
      <trkpt lat="44.34343" lon="2.5187">
        <ele>610</ele>
        <time>2011-05-18T16:58:09Z</time>
      </trkpt>
      <trkpt lat="44.34346" lon="2.51869">
        <ele>609.9</ele>
        <time>2011-05-18T16:58:10Z</time>
      </trkpt>
      <trkpt lat="44.34349" lon="2.51868">
        <ele>609.7</ele>
        <time>2011-05-18T16:58:11Z</time>
      </trkpt>
      <trkpt lat="44.34352" lon="2.51868">
        <ele>609.6</ele>
        <time>2011-05-18T16:58:12Z</time>
      </trkpt>
      <trkpt lat="44.34355" lon="2.51867">
        <ele>609.5</ele>
        <time>2011-05-18T16:58:13Z</time>
      </trkpt>
      <trkpt lat="44.34358" lon="2.51867">
        <ele>609.3</ele>
        <time>2011-05-18T16:58:14Z</time>
      </trkpt>
      <trkpt lat="44.34361" lon="2.51866">
        <ele>609.2</ele>
        <time>2011-05-18T16:58:15Z</time>
      </trkpt>
      <trkpt lat="44.34363" lon="2.51865">
        <ele>609.1</ele>
        <time>2011-05-18T16:58:16Z</time>
      </trkpt>
      <trkpt lat="44.34366" lon="2.51864">
        <ele>608.9</ele>
        <time>2011-05-18T16:58:17Z</time>
      </trkpt>
      <trkpt lat="44.34369" lon="2.51863">
        <ele>608.8</ele>
        <time>2011-05-18T16:58:18Z</time>
      </trkpt>
      <trkpt lat="44.34372" lon="2.51862">
        <ele>608.6</ele>
        <time>2011-05-18T16:58:19Z</time>
      </trkpt>
      <trkpt lat="44.34375" lon="2.51861">
        <ele>608.5</ele>
        <time>2011-05-18T16:58:20Z</time>
      </trkpt>
      <trkpt lat="44.34379" lon="2.5186">
        <ele>608.3</ele>
        <time>2011-05-18T16:58:21Z</time>
      </trkpt>
      <trkpt lat="44.34382" lon="2.51858">
        <ele>608.1</ele>
        <time>2011-05-18T16:58:22Z</time>
      </trkpt>
      <trkpt lat="44.34386" lon="2.51857">
        <ele>607.9</ele>
        <time>2011-05-18T16:58:23Z</time>
      </trkpt>
      <trkpt lat="44.34389" lon="2.51855">
        <ele>607.7</ele>
        <time>2011-05-18T16:58:24Z</time>
      </trkpt>
      <trkpt lat="44.34393" lon="2.51854">
        <ele>607.5</ele>
        <time>2011-05-18T16:58:25Z</time>
      </trkpt>
      <trkpt lat="44.34397" lon="2.51853">
        <ele>607.4</ele>
        <time>2011-05-18T16:58:26Z</time>
      </trkpt>
      <trkpt lat="44.34401" lon="2.51852">
        <ele>607.2</ele>
        <time>2011-05-18T16:58:27Z</time>
      </trkpt>
      <trkpt lat="44.34404" lon="2.5185">
        <ele>607</ele>
        <time>2011-05-18T16:58:28Z</time>
      </trkpt>
      <trkpt lat="44.34407" lon="2.51848">
        <ele>606.8</ele>
        <time>2011-05-18T16:58:29Z</time>
      </trkpt>
      <trkpt lat="44.3441" lon="2.51844">
        <ele>606.6</ele>
        <time>2011-05-18T16:58:30Z</time>
      </trkpt>
      <trkpt lat="44.34413" lon="2.5184">
        <ele>606.3</ele>
        <time>2011-05-18T16:58:31Z</time>
      </trkpt>
      <trkpt lat="44.34415" lon="2.51835">
        <ele>606.1</ele>
        <time>2011-05-18T16:58:32Z</time>
      </trkpt>
      <trkpt lat="44.34419" lon="2.51829">
        <ele>606</ele>
        <time>2011-05-18T16:58:33Z</time>
      </trkpt>
      <trkpt lat="44.34423" lon="2.51823">
        <ele>605.9</ele>
        <time>2011-05-18T16:58:34Z</time>
      </trkpt>
      <trkpt lat="44.34428" lon="2.5182">
        <ele>605.8</ele>
        <time>2011-05-18T16:58:35Z</time>
      </trkpt>
      <trkpt lat="44.34433" lon="2.51817">
        <ele>605.6</ele>
        <time>2011-05-18T16:58:36Z</time>
      </trkpt>
      <trkpt lat="44.34436" lon="2.51813">
        <ele>605.5</ele>
        <time>2011-05-18T16:58:37Z</time>
      </trkpt>
      <trkpt lat="44.34441" lon="2.51809">
        <ele>605.4</ele>
        <time>2011-05-18T16:58:38Z</time>
      </trkpt>
      <trkpt lat="44.34445" lon="2.51805">
        <ele>605.3</ele>
        <time>2011-05-18T16:58:39Z</time>
      </trkpt>
      <trkpt lat="44.34449" lon="2.518">
        <ele>605.2</ele>
        <time>2011-05-18T16:58:40Z</time>
      </trkpt>
      <trkpt lat="44.34453" lon="2.51795">
        <ele>605.1</ele>
        <time>2011-05-18T16:58:41Z</time>
      </trkpt>
      <trkpt lat="44.34458" lon="2.51789">
        <ele>605.1</ele>
        <time>2011-05-18T16:58:42Z</time>
      </trkpt>
      <trkpt lat="44.34462" lon="2.51784">
        <ele>605</ele>
        <time>2011-05-18T16:58:43Z</time>
      </trkpt>
      <trkpt lat="44.34466" lon="2.51778">
        <ele>604.9</ele>
        <time>2011-05-18T16:58:44Z</time>
      </trkpt>
      <trkpt lat="44.3447" lon="2.51772">
        <ele>604.8</ele>
        <time>2011-05-18T16:58:45Z</time>
      </trkpt>
      <trkpt lat="44.34474" lon="2.51767">
        <ele>604.7</ele>
        <time>2011-05-18T16:58:46Z</time>
      </trkpt>
      <trkpt lat="44.34478" lon="2.51761">
        <ele>604.6</ele>
        <time>2011-05-18T16:58:47Z</time>
      </trkpt>
      <trkpt lat="44.34483" lon="2.51756">
        <ele>604.6</ele>
        <time>2011-05-18T16:58:48Z</time>
      </trkpt>
      <trkpt lat="44.34487" lon="2.5175">
        <ele>604.5</ele>
        <time>2011-05-18T16:58:49Z</time>
      </trkpt>
      <trkpt lat="44.34491" lon="2.51743">
        <ele>604.3</ele>
        <time>2011-05-18T16:58:50Z</time>
      </trkpt>
      <trkpt lat="44.34494" lon="2.51737">
        <ele>604.2</ele>
        <time>2011-05-18T16:58:51Z</time>
      </trkpt>
      <trkpt lat="44.34498" lon="2.51732">
        <ele>604.1</ele>
        <time>2011-05-18T16:58:52Z</time>
      </trkpt>
      <trkpt lat="44.34501" lon="2.51726">
        <ele>604</ele>
        <time>2011-05-18T16:58:53Z</time>
      </trkpt>
      <trkpt lat="44.34505" lon="2.5172">
        <ele>604</ele>
        <time>2011-05-18T16:58:54Z</time>
      </trkpt>
      <trkpt lat="44.34508" lon="2.51715">
        <ele>603.9</ele>
        <time>2011-05-18T16:58:55Z</time>
      </trkpt>
      <trkpt lat="44.34512" lon="2.5171">
        <ele>603.9</ele>
        <time>2011-05-18T16:58:56Z</time>
      </trkpt>
      <trkpt lat="44.34515" lon="2.51704">
        <ele>603.9</ele>
        <time>2011-05-18T16:58:57Z</time>
      </trkpt>
      <trkpt lat="44.34518" lon="2.517">
        <ele>603.9</ele>
        <time>2011-05-18T16:58:58Z</time>
      </trkpt>
      <trkpt lat="44.34522" lon="2.51696">
        <ele>603.9</ele>
        <time>2011-05-18T16:58:59Z</time>
      </trkpt>
      <trkpt lat="44.34525" lon="2.51691">
        <ele>603.9</ele>
        <time>2011-05-18T16:59:00Z</time>
      </trkpt>
      <trkpt lat="44.34528" lon="2.51687">
        <ele>603.9</ele>
        <time>2011-05-18T16:59:01Z</time>
      </trkpt>
      <trkpt lat="44.3453" lon="2.51683">
        <ele>603.9</ele>
        <time>2011-05-18T16:59:02Z</time>
      </trkpt>
      <trkpt lat="44.34533" lon="2.51679">
        <ele>603.9</ele>
        <time>2011-05-18T16:59:03Z</time>
      </trkpt>
      <trkpt lat="44.34536" lon="2.51675">
        <ele>604</ele>
        <time>2011-05-18T16:59:04Z</time>
      </trkpt>
      <trkpt lat="44.34539" lon="2.51672">
        <ele>604</ele>
        <time>2011-05-18T16:59:05Z</time>
      </trkpt>
      <trkpt lat="44.34541" lon="2.51668">
        <ele>604</ele>
        <time>2011-05-18T16:59:06Z</time>
      </trkpt>
      <trkpt lat="44.34544" lon="2.51666">
        <ele>604</ele>
        <time>2011-05-18T16:59:07Z</time>
      </trkpt>
      <trkpt lat="44.34546" lon="2.51664">
        <ele>604.1</ele>
        <time>2011-05-18T16:59:08Z</time>
      </trkpt>
      <trkpt lat="44.34549" lon="2.51661">
        <ele>604.1</ele>
        <time>2011-05-18T16:59:11Z</time>
      </trkpt>
      <trkpt lat="44.34552" lon="2.51656">
        <ele>604.2</ele>
        <time>2011-05-18T16:59:56Z</time>
      </trkpt>
      <trkpt lat="44.34552" lon="2.51656">
        <ele>604.2</ele>
        <time>2011-05-18T16:59:57Z</time>
      </trkpt>
      <trkpt lat="44.34559" lon="2.5166">
        <ele>604.1</ele>
        <time>2011-05-18T17:00:03Z</time>
      </trkpt>
      <trkpt lat="44.34562" lon="2.51662">
        <ele>604.1</ele>
        <time>2011-05-18T17:00:05Z</time>
      </trkpt>
      <trkpt lat="44.34565" lon="2.51664">
        <ele>604</ele>
        <time>2011-05-18T17:00:08Z</time>
      </trkpt>
      <trkpt lat="44.3457" lon="2.51664">
        <ele>604</ele>
        <time>2011-05-18T17:00:11Z</time>
      </trkpt>
      <trkpt lat="44.34572" lon="2.51663">
        <ele>604.1</ele>
        <time>2011-05-18T17:00:12Z</time>
      </trkpt>
      <trkpt lat="44.34574" lon="2.51662">
        <ele>604.1</ele>
        <time>2011-05-18T17:00:13Z</time>
      </trkpt>
      <trkpt lat="44.34576" lon="2.51661">
        <ele>604.1</ele>
        <time>2011-05-18T17:00:14Z</time>
      </trkpt>
      <trkpt lat="44.34578" lon="2.5166">
        <ele>604.1</ele>
        <time>2011-05-18T17:00:15Z</time>
      </trkpt>
      <trkpt lat="44.34581" lon="2.51659">
        <ele>604.1</ele>
        <time>2011-05-18T17:00:16Z</time>
      </trkpt>
      <trkpt lat="44.34583" lon="2.51658">
        <ele>604.1</ele>
        <time>2011-05-18T17:00:17Z</time>
      </trkpt>
      <trkpt lat="44.34585" lon="2.51657">
        <ele>604.1</ele>
        <time>2011-05-18T17:00:18Z</time>
      </trkpt>
      <trkpt lat="44.34588" lon="2.51656">
        <ele>604</ele>
        <time>2011-05-18T17:00:19Z</time>
      </trkpt>
      <trkpt lat="44.3459" lon="2.51655">
        <ele>603.9</ele>
        <time>2011-05-18T17:00:20Z</time>
      </trkpt>
      <trkpt lat="44.34593" lon="2.51653">
        <ele>603.8</ele>
        <time>2011-05-18T17:00:21Z</time>
      </trkpt>
      <trkpt lat="44.34596" lon="2.51652">
        <ele>603.7</ele>
        <time>2011-05-18T17:00:22Z</time>
      </trkpt>
      <trkpt lat="44.34599" lon="2.5165">
        <ele>603.6</ele>
        <time>2011-05-18T17:00:23Z</time>
      </trkpt>
      <trkpt lat="44.34602" lon="2.51649">
        <ele>603.5</ele>
        <time>2011-05-18T17:00:24Z</time>
      </trkpt>
      <trkpt lat="44.34605" lon="2.51648">
        <ele>603.4</ele>
        <time>2011-05-18T17:00:25Z</time>
      </trkpt>
      <trkpt lat="44.34608" lon="2.51646">
        <ele>603.3</ele>
        <time>2011-05-18T17:00:26Z</time>
      </trkpt>
      <trkpt lat="44.34611" lon="2.51644">
        <ele>603.2</ele>
        <time>2011-05-18T17:00:27Z</time>
      </trkpt>
      <trkpt lat="44.34614" lon="2.51643">
        <ele>603.1</ele>
        <time>2011-05-18T17:00:28Z</time>
      </trkpt>
      <trkpt lat="44.34618" lon="2.51641">
        <ele>603</ele>
        <time>2011-05-18T17:00:29Z</time>
      </trkpt>
      <trkpt lat="44.34621" lon="2.51639">
        <ele>602.8</ele>
        <time>2011-05-18T17:00:30Z</time>
      </trkpt>
      <trkpt lat="44.34624" lon="2.51637">
        <ele>602.7</ele>
        <time>2011-05-18T17:00:31Z</time>
      </trkpt>
      <trkpt lat="44.34628" lon="2.51636">
        <ele>602.6</ele>
        <time>2011-05-18T17:00:32Z</time>
      </trkpt>
      <trkpt lat="44.34631" lon="2.51634">
        <ele>602.4</ele>
        <time>2011-05-18T17:00:33Z</time>
      </trkpt>
      <trkpt lat="44.34635" lon="2.51633">
        <ele>602.3</ele>
        <time>2011-05-18T17:00:34Z</time>
      </trkpt>
      <trkpt lat="44.34638" lon="2.51631">
        <ele>602.2</ele>
        <time>2011-05-18T17:00:35Z</time>
      </trkpt>
      <trkpt lat="44.34642" lon="2.5163">
        <ele>602</ele>
        <time>2011-05-18T17:00:36Z</time>
      </trkpt>
      <trkpt lat="44.34646" lon="2.51629">
        <ele>601.8</ele>
        <time>2011-05-18T17:00:37Z</time>
      </trkpt>
      <trkpt lat="44.34651" lon="2.51628">
        <ele>601.7</ele>
        <time>2011-05-18T17:00:38Z</time>
      </trkpt>
      <trkpt lat="44.34656" lon="2.51628">
        <ele>601.4</ele>
        <time>2011-05-18T17:00:39Z</time>
      </trkpt>
      <trkpt lat="44.34661" lon="2.51628">
        <ele>601.3</ele>
        <time>2011-05-18T17:00:40Z</time>
      </trkpt>
      <trkpt lat="44.34666" lon="2.51628">
        <ele>601</ele>
        <time>2011-05-18T17:00:41Z</time>
      </trkpt>
      <trkpt lat="44.34671" lon="2.51627">
        <ele>600.8</ele>
        <time>2011-05-18T17:00:42Z</time>
      </trkpt>
      <trkpt lat="44.34675" lon="2.51628">
        <ele>600.6</ele>
        <time>2011-05-18T17:00:43Z</time>
      </trkpt>
      <trkpt lat="44.34681" lon="2.51628">
        <ele>600.3</ele>
        <time>2011-05-18T17:00:44Z</time>
      </trkpt>
      <trkpt lat="44.34686" lon="2.51629">
        <ele>600.1</ele>
        <time>2011-05-18T17:00:45Z</time>
      </trkpt>
      <trkpt lat="44.34691" lon="2.51629">
        <ele>599.9</ele>
        <time>2011-05-18T17:00:46Z</time>
      </trkpt>
      <trkpt lat="44.34697" lon="2.5163">
        <ele>599.6</ele>
        <time>2011-05-18T17:00:47Z</time>
      </trkpt>
      <trkpt lat="44.34702" lon="2.5163">
        <ele>599.3</ele>
        <time>2011-05-18T17:00:48Z</time>
      </trkpt>
      <trkpt lat="44.34708" lon="2.51631">
        <ele>599.1</ele>
        <time>2011-05-18T17:00:49Z</time>
      </trkpt>
      <trkpt lat="44.34714" lon="2.51632">
        <ele>598.8</ele>
        <time>2011-05-18T17:00:50Z</time>
      </trkpt>
      <trkpt lat="44.3472" lon="2.51633">
        <ele>598.6</ele>
        <time>2011-05-18T17:00:51Z</time>
      </trkpt>
      <trkpt lat="44.34726" lon="2.51633">
        <ele>598.3</ele>
        <time>2011-05-18T17:00:52Z</time>
      </trkpt>
      <trkpt lat="44.34732" lon="2.51633">
        <ele>598</ele>
        <time>2011-05-18T17:00:53Z</time>
      </trkpt>
      <trkpt lat="44.34738" lon="2.51634">
        <ele>597.8</ele>
        <time>2011-05-18T17:00:54Z</time>
      </trkpt>
      <trkpt lat="44.34744" lon="2.51635">
        <ele>597.5</ele>
        <time>2011-05-18T17:00:55Z</time>
      </trkpt>
      <trkpt lat="44.3475" lon="2.51636">
        <ele>597.2</ele>
        <time>2011-05-18T17:00:56Z</time>
      </trkpt>
      <trkpt lat="44.34757" lon="2.51637">
        <ele>596.7</ele>
        <time>2011-05-18T17:00:57Z</time>
      </trkpt>
      <trkpt lat="44.34763" lon="2.51638">
        <ele>596.2</ele>
        <time>2011-05-18T17:00:58Z</time>
      </trkpt>
      <trkpt lat="44.34769" lon="2.51639">
        <ele>595.6</ele>
        <time>2011-05-18T17:00:59Z</time>
      </trkpt>
      <trkpt lat="44.34775" lon="2.5164">
        <ele>595</ele>
        <time>2011-05-18T17:01:00Z</time>
      </trkpt>
      <trkpt lat="44.34782" lon="2.51641">
        <ele>594.4</ele>
        <time>2011-05-18T17:01:01Z</time>
      </trkpt>
      <trkpt lat="44.34788" lon="2.51642">
        <ele>593.8</ele>
        <time>2011-05-18T17:01:02Z</time>
      </trkpt>
      <trkpt lat="44.34794" lon="2.51643">
        <ele>593.3</ele>
        <time>2011-05-18T17:01:03Z</time>
      </trkpt>
      <trkpt lat="44.34801" lon="2.51644">
        <ele>592.6</ele>
        <time>2011-05-18T17:01:04Z</time>
      </trkpt>
      <trkpt lat="44.34808" lon="2.51644">
        <ele>592</ele>
        <time>2011-05-18T17:01:05Z</time>
      </trkpt>
      <trkpt lat="44.34815" lon="2.51645">
        <ele>591.3</ele>
        <time>2011-05-18T17:01:06Z</time>
      </trkpt>
      <trkpt lat="44.34822" lon="2.51645">
        <ele>590.6</ele>
        <time>2011-05-18T17:01:07Z</time>
      </trkpt>
      <trkpt lat="44.34829" lon="2.51646">
        <ele>590</ele>
        <time>2011-05-18T17:01:08Z</time>
      </trkpt>
      <trkpt lat="44.34836" lon="2.51646">
        <ele>589.4</ele>
        <time>2011-05-18T17:01:09Z</time>
      </trkpt>
      <trkpt lat="44.34844" lon="2.51647">
        <ele>589</ele>
        <time>2011-05-18T17:01:10Z</time>
      </trkpt>
      <trkpt lat="44.34851" lon="2.51647">
        <ele>588.6</ele>
        <time>2011-05-18T17:01:11Z</time>
      </trkpt>
      <trkpt lat="44.3486" lon="2.51648">
        <ele>588.2</ele>
        <time>2011-05-18T17:01:12Z</time>
      </trkpt>
      <trkpt lat="44.34868" lon="2.51648">
        <ele>587.8</ele>
        <time>2011-05-18T17:01:13Z</time>
      </trkpt>
      <trkpt lat="44.34876" lon="2.51648">
        <ele>587.4</ele>
        <time>2011-05-18T17:01:14Z</time>
      </trkpt>
      <trkpt lat="44.34885" lon="2.51648">
        <ele>587</ele>
        <time>2011-05-18T17:01:15Z</time>
      </trkpt>
      <trkpt lat="44.34894" lon="2.51648">
        <ele>586.6</ele>
        <time>2011-05-18T17:01:16Z</time>
      </trkpt>
      <trkpt lat="44.34902" lon="2.51649">
        <ele>586.2</ele>
        <time>2011-05-18T17:01:17Z</time>
      </trkpt>
      <trkpt lat="44.34911" lon="2.51649">
        <ele>585.8</ele>
        <time>2011-05-18T17:01:18Z</time>
      </trkpt>
      <trkpt lat="44.34921" lon="2.51648">
        <ele>585.4</ele>
        <time>2011-05-18T17:01:19Z</time>
      </trkpt>
      <trkpt lat="44.3493" lon="2.51648">
        <ele>585</ele>
        <time>2011-05-18T17:01:20Z</time>
      </trkpt>
      <trkpt lat="44.34939" lon="2.51647">
        <ele>584.6</ele>
        <time>2011-05-18T17:01:21Z</time>
      </trkpt>
      <trkpt lat="44.34949" lon="2.51646">
        <ele>584.1</ele>
        <time>2011-05-18T17:01:22Z</time>
      </trkpt>
      <trkpt lat="44.34959" lon="2.51642">
        <ele>583.6</ele>
        <time>2011-05-18T17:01:23Z</time>
      </trkpt>
      <trkpt lat="44.34969" lon="2.51638">
        <ele>583</ele>
        <time>2011-05-18T17:01:24Z</time>
      </trkpt>
      <trkpt lat="44.34979" lon="2.51634">
        <ele>582.3</ele>
        <time>2011-05-18T17:01:25Z</time>
      </trkpt>
      <trkpt lat="44.34989" lon="2.51629">
        <ele>581.7</ele>
        <time>2011-05-18T17:01:26Z</time>
      </trkpt>
      <trkpt lat="44.34999" lon="2.51625">
        <ele>581</ele>
        <time>2011-05-18T17:01:27Z</time>
      </trkpt>
      <trkpt lat="44.35009" lon="2.51618">
        <ele>580.3</ele>
        <time>2011-05-18T17:01:28Z</time>
      </trkpt>
      <trkpt lat="44.35017" lon="2.51609">
        <ele>579.6</ele>
        <time>2011-05-18T17:01:29Z</time>
      </trkpt>
      <trkpt lat="44.35023" lon="2.51598">
        <ele>578.7</ele>
        <time>2011-05-18T17:01:30Z</time>
      </trkpt>
      <trkpt lat="44.35029" lon="2.51587">
        <ele>577.8</ele>
        <time>2011-05-18T17:01:31Z</time>
      </trkpt>
      <trkpt lat="44.35036" lon="2.51577">
        <ele>577.5</ele>
        <time>2011-05-18T17:01:32Z</time>
      </trkpt>
      <trkpt lat="44.35045" lon="2.51569">
        <ele>577.3</ele>
        <time>2011-05-18T17:01:33Z</time>
      </trkpt>
      <trkpt lat="44.35054" lon="2.51565">
        <ele>576.7</ele>
        <time>2011-05-18T17:01:34Z</time>
      </trkpt>
      <trkpt lat="44.35064" lon="2.51565">
        <ele>576</ele>
        <time>2011-05-18T17:01:35Z</time>
      </trkpt>
      <trkpt lat="44.35075" lon="2.51567">
        <ele>575.4</ele>
        <time>2011-05-18T17:01:36Z</time>
      </trkpt>
      <trkpt lat="44.35085" lon="2.51571">
        <ele>574.8</ele>
        <time>2011-05-18T17:01:37Z</time>
      </trkpt>
      <trkpt lat="44.35096" lon="2.51572">
        <ele>574.5</ele>
        <time>2011-05-18T17:01:38Z</time>
      </trkpt>
      <trkpt lat="44.35105" lon="2.5157">
        <ele>574.2</ele>
        <time>2011-05-18T17:01:39Z</time>
      </trkpt>
      <trkpt lat="44.35113" lon="2.51564">
        <ele>573.7</ele>
        <time>2011-05-18T17:01:40Z</time>
      </trkpt>
      <trkpt lat="44.3512" lon="2.51557">
        <ele>573.1</ele>
        <time>2011-05-18T17:01:41Z</time>
      </trkpt>
      <trkpt lat="44.35127" lon="2.5155">
        <ele>572.4</ele>
        <time>2011-05-18T17:01:42Z</time>
      </trkpt>
      <trkpt lat="44.35135" lon="2.51542">
        <ele>571.4</ele>
        <time>2011-05-18T17:01:43Z</time>
      </trkpt>
      <trkpt lat="44.35143" lon="2.51536">
        <ele>570.4</ele>
        <time>2011-05-18T17:01:44Z</time>
      </trkpt>
      <trkpt lat="44.35151" lon="2.5153">
        <ele>569.4</ele>
        <time>2011-05-18T17:01:45Z</time>
      </trkpt>
      <trkpt lat="44.3516" lon="2.51524">
        <ele>568.1</ele>
        <time>2011-05-18T17:01:46Z</time>
      </trkpt>
      <trkpt lat="44.35168" lon="2.51519">
        <ele>566.8</ele>
        <time>2011-05-18T17:01:47Z</time>
      </trkpt>
      <trkpt lat="44.35178" lon="2.51515">
        <ele>565.7</ele>
        <time>2011-05-18T17:01:48Z</time>
      </trkpt>
      <trkpt lat="44.35187" lon="2.5151">
        <ele>564.6</ele>
        <time>2011-05-18T17:01:49Z</time>
      </trkpt>
      <trkpt lat="44.35196" lon="2.51503">
        <ele>563.4</ele>
        <time>2011-05-18T17:01:50Z</time>
      </trkpt>
      <trkpt lat="44.35204" lon="2.51494">
        <ele>562.9</ele>
        <time>2011-05-18T17:01:51Z</time>
      </trkpt>
      <trkpt lat="44.35209" lon="2.51484">
        <ele>563</ele>
        <time>2011-05-18T17:01:52Z</time>
      </trkpt>
      <trkpt lat="44.35213" lon="2.51475">
        <ele>563.4</ele>
        <time>2011-05-18T17:01:53Z</time>
      </trkpt>
      <trkpt lat="44.35213" lon="2.51467">
        <ele>563.8</ele>
        <time>2011-05-18T17:01:54Z</time>
      </trkpt>
      <trkpt lat="44.35212" lon="2.51459">
        <ele>564.1</ele>
        <time>2011-05-18T17:01:55Z</time>
      </trkpt>
      <trkpt lat="44.35212" lon="2.51451">
        <ele>564.4</ele>
        <time>2011-05-18T17:01:56Z</time>
      </trkpt>
      <trkpt lat="44.35209" lon="2.51445">
        <ele>564.6</ele>
        <time>2011-05-18T17:01:57Z</time>
      </trkpt>
      <trkpt lat="44.35208" lon="2.51441">
        <ele>564.6</ele>
        <time>2011-05-18T17:01:58Z</time>
      </trkpt>
      <trkpt lat="44.35207" lon="2.51438">
        <ele>564.7</ele>
        <time>2011-05-18T17:01:59Z</time>
      </trkpt>
      <trkpt lat="44.35206" lon="2.51429">
        <ele>564.9</ele>
        <time>2011-05-18T17:02:20Z</time>
      </trkpt>
      <trkpt lat="44.35205" lon="2.51423">
        <ele>564.9</ele>
        <time>2011-05-18T17:02:31Z</time>
      </trkpt>
      <trkpt lat="44.35203" lon="2.51418">
        <ele>564.9</ele>
        <time>2011-05-18T17:02:46Z</time>
      </trkpt>
      <trkpt lat="44.35207" lon="2.51415">
        <ele>565.5</ele>
        <time>2011-05-18T17:03:24Z</time>
      </trkpt>
      <trkpt lat="44.35207" lon="2.51415">
        <ele>565.7</ele>
        <time>2011-05-18T17:03:25Z</time>
      </trkpt>
      <trkpt lat="44.35212" lon="2.51421">
        <ele>565.8</ele>
        <time>2011-05-18T17:04:17Z</time>
      </trkpt>
      <trkpt lat="44.35215" lon="2.51423">
        <ele>566</ele>
        <time>2011-05-18T17:04:19Z</time>
      </trkpt>
      <trkpt lat="44.35218" lon="2.51424">
        <ele>566.1</ele>
        <time>2011-05-18T17:04:20Z</time>
      </trkpt>
      <trkpt lat="44.35222" lon="2.51427">
        <ele>566.4</ele>
        <time>2011-05-18T17:04:21Z</time>
      </trkpt>
      <trkpt lat="44.35227" lon="2.5143">
        <ele>566.6</ele>
        <time>2011-05-18T17:04:22Z</time>
      </trkpt>
      <trkpt lat="44.35232" lon="2.51433">
        <ele>566.8</ele>
        <time>2011-05-18T17:04:23Z</time>
      </trkpt>
      <trkpt lat="44.35238" lon="2.51437">
        <ele>566.9</ele>
        <time>2011-05-18T17:04:24Z</time>
      </trkpt>
      <trkpt lat="44.35244" lon="2.51442">
        <ele>566.7</ele>
        <time>2011-05-18T17:04:25Z</time>
      </trkpt>
      <trkpt lat="44.35252" lon="2.51446">
        <ele>566.8</ele>
        <time>2011-05-18T17:04:26Z</time>
      </trkpt>
      <trkpt lat="44.35259" lon="2.5145">
        <ele>567.3</ele>
        <time>2011-05-18T17:04:27Z</time>
      </trkpt>
      <trkpt lat="44.35266" lon="2.51452">
        <ele>567.8</ele>
        <time>2011-05-18T17:04:28Z</time>
      </trkpt>
      <trkpt lat="44.35271" lon="2.51451">
        <ele>568.7</ele>
        <time>2011-05-18T17:04:29Z</time>
      </trkpt>
      <trkpt lat="44.35274" lon="2.51447">
        <ele>569.6</ele>
        <time>2011-05-18T17:04:30Z</time>
      </trkpt>
      <trkpt lat="44.35276" lon="2.51443">
        <ele>570.5</ele>
        <time>2011-05-18T17:04:31Z</time>
      </trkpt>
      <trkpt lat="44.35276" lon="2.51438">
        <ele>571</ele>
        <time>2011-05-18T17:04:32Z</time>
      </trkpt>
      <trkpt lat="44.35275" lon="2.51434">
        <ele>571.4</ele>
        <time>2011-05-18T17:04:33Z</time>
      </trkpt>
      <trkpt lat="44.35274" lon="2.51431">
        <ele>571.6</ele>
        <time>2011-05-18T17:04:34Z</time>
      </trkpt>
      <trkpt lat="44.35273" lon="2.51427">
        <ele>571.9</ele>
        <time>2011-05-18T17:04:35Z</time>
      </trkpt>
      <trkpt lat="44.35272" lon="2.51423">
        <ele>572.3</ele>
        <time>2011-05-18T17:04:36Z</time>
      </trkpt>
      <trkpt lat="44.35271" lon="2.51419">
        <ele>572.7</ele>
        <time>2011-05-18T17:04:37Z</time>
      </trkpt>
      <trkpt lat="44.3527" lon="2.51416">
        <ele>573.1</ele>
        <time>2011-05-18T17:04:38Z</time>
      </trkpt>
      <trkpt lat="44.3527" lon="2.51412">
        <ele>573.5</ele>
        <time>2011-05-18T17:04:39Z</time>
      </trkpt>
      <trkpt lat="44.35269" lon="2.51409">
        <ele>573.9</ele>
        <time>2011-05-18T17:04:40Z</time>
      </trkpt>
      <trkpt lat="44.35268" lon="2.51405">
        <ele>574</ele>
        <time>2011-05-18T17:04:41Z</time>
      </trkpt>
      <trkpt lat="44.35268" lon="2.51401">
        <ele>574.6</ele>
        <time>2011-05-18T17:04:42Z</time>
      </trkpt>
      <trkpt lat="44.35267" lon="2.51397">
        <ele>575</ele>
        <time>2011-05-18T17:04:43Z</time>
      </trkpt>
      <trkpt lat="44.35266" lon="2.51393">
        <ele>575.3</ele>
        <time>2011-05-18T17:04:44Z</time>
      </trkpt>
      <trkpt lat="44.35264" lon="2.51389">
        <ele>575.4</ele>
        <time>2011-05-18T17:04:45Z</time>
      </trkpt>
      <trkpt lat="44.35262" lon="2.51386">
        <ele>575.7</ele>
        <time>2011-05-18T17:04:46Z</time>
      </trkpt>
      <trkpt lat="44.3526" lon="2.51382">
        <ele>575.9</ele>
        <time>2011-05-18T17:04:47Z</time>
      </trkpt>
      <trkpt lat="44.35258" lon="2.51379">
        <ele>576.1</ele>
        <time>2011-05-18T17:04:48Z</time>
      </trkpt>
      <trkpt lat="44.35256" lon="2.51376">
        <ele>576.2</ele>
        <time>2011-05-18T17:04:49Z</time>
      </trkpt>
      <trkpt lat="44.35253" lon="2.51373">
        <ele>576.2</ele>
        <time>2011-05-18T17:04:50Z</time>
      </trkpt>
      <trkpt lat="44.35249" lon="2.51369">
        <ele>576.2</ele>
        <time>2011-05-18T17:04:51Z</time>
      </trkpt>
      <trkpt lat="44.35245" lon="2.51367">
        <ele>576.3</ele>
        <time>2011-05-18T17:04:52Z</time>
      </trkpt>
      <trkpt lat="44.35241" lon="2.51365">
        <ele>576.1</ele>
        <time>2011-05-18T17:04:53Z</time>
      </trkpt>
      <trkpt lat="44.35237" lon="2.51363">
        <ele>576.1</ele>
        <time>2011-05-18T17:04:54Z</time>
      </trkpt>
      <trkpt lat="44.35233" lon="2.51361">
        <ele>575.9</ele>
        <time>2011-05-18T17:04:55Z</time>
      </trkpt>
      <trkpt lat="44.35227" lon="2.51358">
        <ele>575.9</ele>
        <time>2011-05-18T17:04:56Z</time>
      </trkpt>
      <trkpt lat="44.35221" lon="2.51356">
        <ele>575.7</ele>
        <time>2011-05-18T17:04:57Z</time>
      </trkpt>
      <trkpt lat="44.35214" lon="2.51354">
        <ele>575.3</ele>
        <time>2011-05-18T17:04:58Z</time>
      </trkpt>
      <trkpt lat="44.35207" lon="2.51352">
        <ele>575.2</ele>
        <time>2011-05-18T17:04:59Z</time>
      </trkpt>
      <trkpt lat="44.352" lon="2.5135">
        <ele>575</ele>
        <time>2011-05-18T17:05:00Z</time>
      </trkpt>
      <trkpt lat="44.35193" lon="2.51346">
        <ele>575.1</ele>
        <time>2011-05-18T17:05:01Z</time>
      </trkpt>
      <trkpt lat="44.35188" lon="2.5134">
        <ele>575.5</ele>
        <time>2011-05-18T17:05:02Z</time>
      </trkpt>
      <trkpt lat="44.35183" lon="2.51334">
        <ele>576.2</ele>
        <time>2011-05-18T17:05:03Z</time>
      </trkpt>
      <trkpt lat="44.35179" lon="2.51327">
        <ele>577.1</ele>
        <time>2011-05-18T17:05:04Z</time>
      </trkpt>
      <trkpt lat="44.35175" lon="2.5132">
        <ele>577.8</ele>
        <time>2011-05-18T17:05:05Z</time>
      </trkpt>
      <trkpt lat="44.35172" lon="2.51313">
        <ele>578.6</ele>
        <time>2011-05-18T17:05:06Z</time>
      </trkpt>
      <trkpt lat="44.35169" lon="2.51306">
        <ele>579.6</ele>
        <time>2011-05-18T17:05:07Z</time>
      </trkpt>
      <trkpt lat="44.35165" lon="2.513">
        <ele>580.1</ele>
        <time>2011-05-18T17:05:08Z</time>
      </trkpt>
      <trkpt lat="44.35162" lon="2.51294">
        <ele>580.7</ele>
        <time>2011-05-18T17:05:09Z</time>
      </trkpt>
      <trkpt lat="44.35159" lon="2.51288">
        <ele>581</ele>
        <time>2011-05-18T17:05:10Z</time>
      </trkpt>
      <trkpt lat="44.35156" lon="2.51282">
        <ele>581.4</ele>
        <time>2011-05-18T17:05:11Z</time>
      </trkpt>
      <trkpt lat="44.35152" lon="2.51276">
        <ele>581.5</ele>
        <time>2011-05-18T17:05:12Z</time>
      </trkpt>
      <trkpt lat="44.35148" lon="2.5127">
        <ele>581.8</ele>
        <time>2011-05-18T17:05:13Z</time>
      </trkpt>
      <trkpt lat="44.35144" lon="2.51265">
        <ele>581.7</ele>
        <time>2011-05-18T17:05:14Z</time>
      </trkpt>
      <trkpt lat="44.35139" lon="2.51259">
        <ele>581.5</ele>
        <time>2011-05-18T17:05:15Z</time>
      </trkpt>
      <trkpt lat="44.35133" lon="2.51254">
        <ele>581.1</ele>
        <time>2011-05-18T17:05:16Z</time>
      </trkpt>
      <trkpt lat="44.35127" lon="2.51249">
        <ele>580.6</ele>
        <time>2011-05-18T17:05:17Z</time>
      </trkpt>
      <trkpt lat="44.35121" lon="2.51242">
        <ele>580.3</ele>
        <time>2011-05-18T17:05:18Z</time>
      </trkpt>
      <trkpt lat="44.35116" lon="2.51235">
        <ele>580.3</ele>
        <time>2011-05-18T17:05:19Z</time>
      </trkpt>
      <trkpt lat="44.3511" lon="2.51228">
        <ele>580.1</ele>
        <time>2011-05-18T17:05:20Z</time>
      </trkpt>
      <trkpt lat="44.35103" lon="2.51222">
        <ele>579.9</ele>
        <time>2011-05-18T17:05:21Z</time>
      </trkpt>
      <trkpt lat="44.35098" lon="2.51215">
        <ele>580.1</ele>
        <time>2011-05-18T17:05:22Z</time>
      </trkpt>
      <trkpt lat="44.35093" lon="2.51206">
        <ele>580.5</ele>
        <time>2011-05-18T17:05:23Z</time>
      </trkpt>
      <trkpt lat="44.35089" lon="2.51199">
        <ele>581</ele>
        <time>2011-05-18T17:05:24Z</time>
      </trkpt>
      <trkpt lat="44.35085" lon="2.51192">
        <ele>581.4</ele>
        <time>2011-05-18T17:05:25Z</time>
      </trkpt>
      <trkpt lat="44.3508" lon="2.51187">
        <ele>581.6</ele>
        <time>2011-05-18T17:05:26Z</time>
      </trkpt>
      <trkpt lat="44.35075" lon="2.51183">
        <ele>581.7</ele>
        <time>2011-05-18T17:05:27Z</time>
      </trkpt>
      <trkpt lat="44.35069" lon="2.5118">
        <ele>581.4</ele>
        <time>2011-05-18T17:05:28Z</time>
      </trkpt>
      <trkpt lat="44.35063" lon="2.51179">
        <ele>580.9</ele>
        <time>2011-05-18T17:05:29Z</time>
      </trkpt>
      <trkpt lat="44.35059" lon="2.5118">
        <ele>580.2</ele>
        <time>2011-05-18T17:05:30Z</time>
      </trkpt>
      <trkpt lat="44.35054" lon="2.51181">
        <ele>579.6</ele>
        <time>2011-05-18T17:05:31Z</time>
      </trkpt>
      <trkpt lat="44.35048" lon="2.51181">
        <ele>578.9</ele>
        <time>2011-05-18T17:05:32Z</time>
      </trkpt>
      <trkpt lat="44.35043" lon="2.51182">
        <ele>578.1</ele>
        <time>2011-05-18T17:05:33Z</time>
      </trkpt>
      <trkpt lat="44.35038" lon="2.51183">
        <ele>577.5</ele>
        <time>2011-05-18T17:05:34Z</time>
      </trkpt>
      <trkpt lat="44.35032" lon="2.51184">
        <ele>576.7</ele>
        <time>2011-05-18T17:05:35Z</time>
      </trkpt>
      <trkpt lat="44.35026" lon="2.51184">
        <ele>576</ele>
        <time>2011-05-18T17:05:36Z</time>
      </trkpt>
      <trkpt lat="44.3502" lon="2.51181">
        <ele>575.7</ele>
        <time>2011-05-18T17:05:37Z</time>
      </trkpt>
      <trkpt lat="44.35015" lon="2.51176">
        <ele>575.8</ele>
        <time>2011-05-18T17:05:38Z</time>
      </trkpt>
      <trkpt lat="44.35011" lon="2.5117">
        <ele>576</ele>
        <time>2011-05-18T17:05:39Z</time>
      </trkpt>
      <trkpt lat="44.35007" lon="2.51164">
        <ele>576.5</ele>
        <time>2011-05-18T17:05:40Z</time>
      </trkpt>
      <trkpt lat="44.35003" lon="2.51158">
        <ele>577</ele>
        <time>2011-05-18T17:05:41Z</time>
      </trkpt>
      <trkpt lat="44.34999" lon="2.51151">
        <ele>577.9</ele>
        <time>2011-05-18T17:05:42Z</time>
      </trkpt>
      <trkpt lat="44.34996" lon="2.51144">
        <ele>578.7</ele>
        <time>2011-05-18T17:05:43Z</time>
      </trkpt>
      <trkpt lat="44.34992" lon="2.51138">
        <ele>579</ele>
        <time>2011-05-18T17:05:44Z</time>
      </trkpt>
      <trkpt lat="44.34988" lon="2.51132">
        <ele>579.5</ele>
        <time>2011-05-18T17:05:45Z</time>
      </trkpt>
      <trkpt lat="44.34983" lon="2.51126">
        <ele>579.9</ele>
        <time>2011-05-18T17:05:46Z</time>
      </trkpt>
      <trkpt lat="44.34979" lon="2.5112">
        <ele>580</ele>
        <time>2011-05-18T17:05:47Z</time>
      </trkpt>
      <trkpt lat="44.34974" lon="2.51114">
        <ele>580.3</ele>
        <time>2011-05-18T17:05:48Z</time>
      </trkpt>
      <trkpt lat="44.3497" lon="2.51109">
        <ele>580.4</ele>
        <time>2011-05-18T17:05:49Z</time>
      </trkpt>
      <trkpt lat="44.34965" lon="2.51104">
        <ele>580.4</ele>
        <time>2011-05-18T17:05:50Z</time>
      </trkpt>
      <trkpt lat="44.3496" lon="2.51099">
        <ele>580.4</ele>
        <time>2011-05-18T17:05:51Z</time>
      </trkpt>
      <trkpt lat="44.34956" lon="2.51093">
        <ele>580.4</ele>
        <time>2011-05-18T17:05:52Z</time>
      </trkpt>
      <trkpt lat="44.34951" lon="2.51088">
        <ele>580.3</ele>
        <time>2011-05-18T17:05:53Z</time>
      </trkpt>
      <trkpt lat="44.34946" lon="2.51084">
        <ele>580</ele>
        <time>2011-05-18T17:05:54Z</time>
      </trkpt>
      <trkpt lat="44.34942" lon="2.5108">
        <ele>579.9</ele>
        <time>2011-05-18T17:05:55Z</time>
      </trkpt>
      <trkpt lat="44.34939" lon="2.51077">
        <ele>579.6</ele>
        <time>2011-05-18T17:05:56Z</time>
      </trkpt>
      <trkpt lat="44.34935" lon="2.51074">
        <ele>579.6</ele>
        <time>2011-05-18T17:05:57Z</time>
      </trkpt>
      <trkpt lat="44.34933" lon="2.51072">
        <ele>579.4</ele>
        <time>2011-05-18T17:05:58Z</time>
      </trkpt>
      <trkpt lat="44.34931" lon="2.51069">
        <ele>579.5</ele>
        <time>2011-05-18T17:05:59Z</time>
      </trkpt>
      <trkpt lat="44.34929" lon="2.51067">
        <ele>579.7</ele>
        <time>2011-05-18T17:06:00Z</time>
      </trkpt>
      <trkpt lat="44.34927" lon="2.51066">
        <ele>579.5</ele>
        <time>2011-05-18T17:06:01Z</time>
      </trkpt>
      <trkpt lat="44.34925" lon="2.51064">
        <ele>579.4</ele>
        <time>2011-05-18T17:06:02Z</time>
      </trkpt>
      <trkpt lat="44.34922" lon="2.51063">
        <ele>579.2</ele>
        <time>2011-05-18T17:06:03Z</time>
      </trkpt>
      <trkpt lat="44.34919" lon="2.51061">
        <ele>579.2</ele>
        <time>2011-05-18T17:06:04Z</time>
      </trkpt>
      <trkpt lat="44.34916" lon="2.51059">
        <ele>579</ele>
        <time>2011-05-18T17:06:05Z</time>
      </trkpt>
      <trkpt lat="44.34913" lon="2.51056">
        <ele>579</ele>
        <time>2011-05-18T17:06:06Z</time>
      </trkpt>
      <trkpt lat="44.3491" lon="2.51054">
        <ele>579.2</ele>
        <time>2011-05-18T17:06:07Z</time>
      </trkpt>
      <trkpt lat="44.34894" lon="2.51034">
        <ele>580.4</ele>
        <time>2011-05-18T17:06:12Z</time>
      </trkpt>
      <trkpt lat="44.34889" lon="2.51028">
        <ele>580.8</ele>
        <time>2011-05-18T17:06:13Z</time>
      </trkpt>
      <trkpt lat="44.34885" lon="2.51023">
        <ele>581</ele>
        <time>2011-05-18T17:06:14Z</time>
      </trkpt>
      <trkpt lat="44.34882" lon="2.51015">
        <ele>581.8</ele>
        <time>2011-05-18T17:06:15Z</time>
      </trkpt>
      <trkpt lat="44.34878" lon="2.51007">
        <ele>582.5</ele>
        <time>2011-05-18T17:06:16Z</time>
      </trkpt>
      <trkpt lat="44.34874" lon="2.50999">
        <ele>583</ele>
        <time>2011-05-18T17:06:17Z</time>
      </trkpt>
      <trkpt lat="44.34871" lon="2.5099">
        <ele>583.1</ele>
        <time>2011-05-18T17:06:18Z</time>
      </trkpt>
      <trkpt lat="44.34868" lon="2.50981">
        <ele>583.4</ele>
        <time>2011-05-18T17:06:19Z</time>
      </trkpt>
      <trkpt lat="44.34866" lon="2.50971">
        <ele>584</ele>
        <time>2011-05-18T17:06:20Z</time>
      </trkpt>
      <trkpt lat="44.34865" lon="2.50961">
        <ele>584.5</ele>
        <time>2011-05-18T17:06:21Z</time>
      </trkpt>
      <trkpt lat="44.34864" lon="2.50951">
        <ele>585.1</ele>
        <time>2011-05-18T17:06:22Z</time>
      </trkpt>
      <trkpt lat="44.34862" lon="2.50941">
        <ele>585.7</ele>
        <time>2011-05-18T17:06:23Z</time>
      </trkpt>
      <trkpt lat="44.34859" lon="2.50932">
        <ele>586.1</ele>
        <time>2011-05-18T17:06:24Z</time>
      </trkpt>
      <trkpt lat="44.34858" lon="2.50921">
        <ele>586.8</ele>
        <time>2011-05-18T17:06:25Z</time>
      </trkpt>
      <trkpt lat="44.34857" lon="2.5091">
        <ele>587.2</ele>
        <time>2011-05-18T17:06:26Z</time>
      </trkpt>
      <trkpt lat="44.34855" lon="2.509">
        <ele>587.3</ele>
        <time>2011-05-18T17:06:27Z</time>
      </trkpt>
      <trkpt lat="44.34854" lon="2.5089">
        <ele>587.4</ele>
        <time>2011-05-18T17:06:28Z</time>
      </trkpt>
      <trkpt lat="44.34852" lon="2.50879">
        <ele>587.6</ele>
        <time>2011-05-18T17:06:29Z</time>
      </trkpt>
      <trkpt lat="44.34849" lon="2.50869">
        <ele>587.4</ele>
        <time>2011-05-18T17:06:30Z</time>
      </trkpt>
      <trkpt lat="44.34846" lon="2.50861">
        <ele>587.1</ele>
        <time>2011-05-18T17:06:31Z</time>
      </trkpt>
      <trkpt lat="44.34841" lon="2.50854">
        <ele>586.5</ele>
        <time>2011-05-18T17:06:32Z</time>
      </trkpt>
      <trkpt lat="44.34835" lon="2.5085">
        <ele>585.7</ele>
        <time>2011-05-18T17:06:33Z</time>
      </trkpt>
      <trkpt lat="44.34829" lon="2.50846">
        <ele>584.1</ele>
        <time>2011-05-18T17:06:34Z</time>
      </trkpt>
      <trkpt lat="44.34822" lon="2.50844">
        <ele>582.2</ele>
        <time>2011-05-18T17:06:35Z</time>
      </trkpt>
      <trkpt lat="44.34816" lon="2.50843">
        <ele>580.4</ele>
        <time>2011-05-18T17:06:36Z</time>
      </trkpt>
      <trkpt lat="44.34811" lon="2.50842">
        <ele>578.8</ele>
        <time>2011-05-18T17:06:37Z</time>
      </trkpt>
      <trkpt lat="44.34807" lon="2.50841">
        <ele>577.7</ele>
        <time>2011-05-18T17:06:38Z</time>
      </trkpt>
      <trkpt lat="44.34805" lon="2.5084">
        <ele>577</ele>
        <time>2011-05-18T17:06:39Z</time>
      </trkpt>
      <trkpt lat="44.34803" lon="2.50839">
        <ele>576.3</ele>
        <time>2011-05-18T17:06:40Z</time>
      </trkpt>
      <trkpt lat="44.34801" lon="2.50837">
        <ele>575.7</ele>
        <time>2011-05-18T17:06:41Z</time>
      </trkpt>
      <trkpt lat="44.34799" lon="2.50836">
        <ele>575.2</ele>
        <time>2011-05-18T17:06:42Z</time>
      </trkpt>
      <trkpt lat="44.34797" lon="2.50833">
        <ele>574.6</ele>
        <time>2011-05-18T17:06:43Z</time>
      </trkpt>
      <trkpt lat="44.34795" lon="2.50831">
        <ele>574.6</ele>
        <time>2011-05-18T17:06:44Z</time>
      </trkpt>
      <trkpt lat="44.34793" lon="2.50827">
        <ele>574.3</ele>
        <time>2011-05-18T17:06:45Z</time>
      </trkpt>
      <trkpt lat="44.34791" lon="2.50824">
        <ele>574.3</ele>
        <time>2011-05-18T17:06:46Z</time>
      </trkpt>
      <trkpt lat="44.34789" lon="2.50821">
        <ele>574.1</ele>
        <time>2011-05-18T17:06:47Z</time>
      </trkpt>
      <trkpt lat="44.34787" lon="2.50819">
        <ele>574.1</ele>
        <time>2011-05-18T17:06:48Z</time>
      </trkpt>
      <trkpt lat="44.34785" lon="2.50816">
        <ele>573.9</ele>
        <time>2011-05-18T17:06:49Z</time>
      </trkpt>
      <trkpt lat="44.34783" lon="2.50813">
        <ele>573.8</ele>
        <time>2011-05-18T17:06:50Z</time>
      </trkpt>
      <trkpt lat="44.34782" lon="2.5081">
        <ele>573.7</ele>
        <time>2011-05-18T17:06:51Z</time>
      </trkpt>
      <trkpt lat="44.3478" lon="2.50806">
        <ele>573.8</ele>
        <time>2011-05-18T17:06:52Z</time>
      </trkpt>
      <trkpt lat="44.34778" lon="2.50802">
        <ele>573.8</ele>
        <time>2011-05-18T17:06:53Z</time>
      </trkpt>
      <trkpt lat="44.34775" lon="2.50797">
        <ele>574</ele>
        <time>2011-05-18T17:06:54Z</time>
      </trkpt>
      <trkpt lat="44.34773" lon="2.50792">
        <ele>574.2</ele>
        <time>2011-05-18T17:06:55Z</time>
      </trkpt>
      <trkpt lat="44.34771" lon="2.50787">
        <ele>574.5</ele>
        <time>2011-05-18T17:06:56Z</time>
      </trkpt>
      <trkpt lat="44.34769" lon="2.50783">
        <ele>574.7</ele>
        <time>2011-05-18T17:06:57Z</time>
      </trkpt>
      <trkpt lat="44.34767" lon="2.50778">
        <ele>575.1</ele>
        <time>2011-05-18T17:06:58Z</time>
      </trkpt>
      <trkpt lat="44.34766" lon="2.50774">
        <ele>575.4</ele>
        <time>2011-05-18T17:06:59Z</time>
      </trkpt>
      <trkpt lat="44.34765" lon="2.50771">
        <ele>575.7</ele>
        <time>2011-05-18T17:07:00Z</time>
      </trkpt>
      <trkpt lat="44.34764" lon="2.50768">
        <ele>576.1</ele>
        <time>2011-05-18T17:07:01Z</time>
      </trkpt>
      <trkpt lat="44.34763" lon="2.50765">
        <ele>576.3</ele>
        <time>2011-05-18T17:07:02Z</time>
      </trkpt>
      <trkpt lat="44.34762" lon="2.50761">
        <ele>576.8</ele>
        <time>2011-05-18T17:07:03Z</time>
      </trkpt>
      <trkpt lat="44.3476" lon="2.50757">
        <ele>577</ele>
        <time>2011-05-18T17:07:05Z</time>
      </trkpt>
      <trkpt lat="44.34757" lon="2.50753">
        <ele>577.2</ele>
        <time>2011-05-18T17:07:10Z</time>
      </trkpt>
      <trkpt lat="44.34755" lon="2.50749">
        <ele>577.3</ele>
        <time>2011-05-18T17:07:13Z</time>
      </trkpt>
      <trkpt lat="44.34754" lon="2.50743">
        <ele>577.4</ele>
        <time>2011-05-18T17:07:20Z</time>
      </trkpt>
      <trkpt lat="44.34753" lon="2.50738">
        <ele>577.6</ele>
        <time>2011-05-18T17:07:25Z</time>
      </trkpt>
      <trkpt lat="44.34753" lon="2.50733">
        <ele>578</ele>
        <time>2011-05-18T17:07:27Z</time>
      </trkpt>
      <trkpt lat="44.34753" lon="2.50729">
        <ele>578.2</ele>
        <time>2011-05-18T17:07:28Z</time>
      </trkpt>
      <trkpt lat="44.34752" lon="2.50725">
        <ele>578.3</ele>
        <time>2011-05-18T17:07:29Z</time>
      </trkpt>
      <trkpt lat="44.34752" lon="2.50721">
        <ele>578.6</ele>
        <time>2011-05-18T17:07:30Z</time>
      </trkpt>
      <trkpt lat="44.34751" lon="2.50717">
        <ele>578.7</ele>
        <time>2011-05-18T17:07:31Z</time>
      </trkpt>
      <trkpt lat="44.34751" lon="2.50713">
        <ele>578.9</ele>
        <time>2011-05-18T17:07:32Z</time>
      </trkpt>
      <trkpt lat="44.3475" lon="2.50709">
        <ele>579</ele>
        <time>2011-05-18T17:07:33Z</time>
      </trkpt>
      <trkpt lat="44.34748" lon="2.50703">
        <ele>578.9</ele>
        <time>2011-05-18T17:07:35Z</time>
      </trkpt>
      <trkpt lat="44.34747" lon="2.50699">
        <ele>578.9</ele>
        <time>2011-05-18T17:07:37Z</time>
      </trkpt>
      <trkpt lat="44.34747" lon="2.50695">
        <ele>579</ele>
        <time>2011-05-18T17:07:39Z</time>
      </trkpt>
      <trkpt lat="44.34745" lon="2.5069">
        <ele>578.9</ele>
        <time>2011-05-18T17:07:41Z</time>
      </trkpt>
      <trkpt lat="44.34744" lon="2.50684">
        <ele>578.9</ele>
        <time>2011-05-18T17:07:43Z</time>
      </trkpt>
      <trkpt lat="44.34743" lon="2.5068">
        <ele>578.9</ele>
        <time>2011-05-18T17:07:44Z</time>
      </trkpt>
      <trkpt lat="44.34743" lon="2.50676">
        <ele>579.1</ele>
        <time>2011-05-18T17:07:45Z</time>
      </trkpt>
      <trkpt lat="44.34743" lon="2.50672">
        <ele>579.4</ele>
        <time>2011-05-18T17:07:46Z</time>
      </trkpt>
      <trkpt lat="44.34743" lon="2.50667">
        <ele>579.5</ele>
        <time>2011-05-18T17:07:47Z</time>
      </trkpt>
      <trkpt lat="44.34742" lon="2.50662">
        <ele>580</ele>
        <time>2011-05-18T17:07:48Z</time>
      </trkpt>
      <trkpt lat="44.34741" lon="2.50657">
        <ele>580.4</ele>
        <time>2011-05-18T17:07:49Z</time>
      </trkpt>
      <trkpt lat="44.34739" lon="2.50653">
        <ele>580.5</ele>
        <time>2011-05-18T17:07:50Z</time>
      </trkpt>
      <trkpt lat="44.34738" lon="2.50649">
        <ele>580.6</ele>
        <time>2011-05-18T17:07:51Z</time>
      </trkpt>
      <trkpt lat="44.34737" lon="2.50645">
        <ele>580.8</ele>
        <time>2011-05-18T17:07:52Z</time>
      </trkpt>
      <trkpt lat="44.34736" lon="2.50641">
        <ele>580.9</ele>
        <time>2011-05-18T17:07:53Z</time>
      </trkpt>
      <trkpt lat="44.34734" lon="2.50638">
        <ele>581.1</ele>
        <time>2011-05-18T17:07:54Z</time>
      </trkpt>
      <trkpt lat="44.34732" lon="2.50633">
        <ele>580.8</ele>
        <time>2011-05-18T17:07:56Z</time>
      </trkpt>
      <trkpt lat="44.3473" lon="2.5063">
        <ele>580.8</ele>
        <time>2011-05-18T17:07:57Z</time>
      </trkpt>
      <trkpt lat="44.34729" lon="2.50626">
        <ele>580.7</ele>
        <time>2011-05-18T17:07:58Z</time>
      </trkpt>
      <trkpt lat="44.34727" lon="2.50623">
        <ele>580.7</ele>
        <time>2011-05-18T17:07:59Z</time>
      </trkpt>
      <trkpt lat="44.34725" lon="2.50619">
        <ele>580.6</ele>
        <time>2011-05-18T17:08:00Z</time>
      </trkpt>
      <trkpt lat="44.34723" lon="2.50616">
        <ele>580.3</ele>
        <time>2011-05-18T17:08:01Z</time>
      </trkpt>
      <trkpt lat="44.34721" lon="2.50611">
        <ele>580.3</ele>
        <time>2011-05-18T17:08:03Z</time>
      </trkpt>
      <trkpt lat="44.34719" lon="2.50606">
        <ele>580.4</ele>
        <time>2011-05-18T17:08:06Z</time>
      </trkpt>
      <trkpt lat="44.34717" lon="2.50601">
        <ele>580.3</ele>
        <time>2011-05-18T17:08:11Z</time>
      </trkpt>
      <trkpt lat="44.34715" lon="2.50596">
        <ele>580.4</ele>
        <time>2011-05-18T17:08:16Z</time>
      </trkpt>
      <trkpt lat="44.34713" lon="2.50592">
        <ele>580.4</ele>
        <time>2011-05-18T17:08:19Z</time>
      </trkpt>
      <trkpt lat="44.34711" lon="2.50588">
        <ele>580.2</ele>
        <time>2011-05-18T17:08:21Z</time>
      </trkpt>
      <trkpt lat="44.34709" lon="2.50585">
        <ele>579.9</ele>
        <time>2011-05-18T17:08:22Z</time>
      </trkpt>
      <trkpt lat="44.34707" lon="2.50583">
        <ele>579.7</ele>
        <time>2011-05-18T17:08:23Z</time>
      </trkpt>
      <trkpt lat="44.34705" lon="2.50578">
        <ele>579.6</ele>
        <time>2011-05-18T17:08:26Z</time>
      </trkpt>
      <trkpt lat="44.34705" lon="2.50573">
        <ele>580.4</ele>
        <time>2011-05-18T17:08:29Z</time>
      </trkpt>
      <trkpt lat="44.34705" lon="2.50571">
        <ele>580.9</ele>
        <time>2011-05-18T17:08:30Z</time>
      </trkpt>
      <trkpt lat="44.34705" lon="2.50562">
        <ele>581.9</ele>
        <time>2011-05-18T17:08:35Z</time>
      </trkpt>
      <trkpt lat="44.34704" lon="2.50557">
        <ele>582.6</ele>
        <time>2011-05-18T17:08:38Z</time>
      </trkpt>
      <trkpt lat="44.34704" lon="2.5055">
        <ele>583.3</ele>
        <time>2011-05-18T17:08:41Z</time>
      </trkpt>
      <trkpt lat="44.34704" lon="2.50545">
        <ele>583.9</ele>
        <time>2011-05-18T17:08:44Z</time>
      </trkpt>
      <trkpt lat="44.34704" lon="2.5054">
        <ele>584.4</ele>
        <time>2011-05-18T17:08:46Z</time>
      </trkpt>
      <trkpt lat="44.34703" lon="2.50534">
        <ele>585.1</ele>
        <time>2011-05-18T17:08:49Z</time>
      </trkpt>
      <trkpt lat="44.34702" lon="2.50528">
        <ele>585.8</ele>
        <time>2011-05-18T17:08:52Z</time>
      </trkpt>
      <trkpt lat="44.34702" lon="2.50522">
        <ele>586.5</ele>
        <time>2011-05-18T17:08:55Z</time>
      </trkpt>
      <trkpt lat="44.34702" lon="2.50518">
        <ele>587.2</ele>
        <time>2011-05-18T17:08:57Z</time>
      </trkpt>
      <trkpt lat="44.34702" lon="2.50512">
        <ele>588</ele>
        <time>2011-05-18T17:09:00Z</time>
      </trkpt>
      <trkpt lat="44.34703" lon="2.50506">
        <ele>589.4</ele>
        <time>2011-05-18T17:09:03Z</time>
      </trkpt>
      <trkpt lat="44.34704" lon="2.50501">
        <ele>590.2</ele>
        <time>2011-05-18T17:09:05Z</time>
      </trkpt>
      <trkpt lat="44.34705" lon="2.50495">
        <ele>590.9</ele>
        <time>2011-05-18T17:09:08Z</time>
      </trkpt>
      <trkpt lat="44.34705" lon="2.5049">
        <ele>591.6</ele>
        <time>2011-05-18T17:09:11Z</time>
      </trkpt>
      <trkpt lat="44.34706" lon="2.50484">
        <ele>592.3</ele>
        <time>2011-05-18T17:09:14Z</time>
      </trkpt>
      <trkpt lat="44.34707" lon="2.50479">
        <ele>593.2</ele>
        <time>2011-05-18T17:09:17Z</time>
      </trkpt>
      <trkpt lat="44.34708" lon="2.50474">
        <ele>593.9</ele>
        <time>2011-05-18T17:09:20Z</time>
      </trkpt>
      <trkpt lat="44.34709" lon="2.50469">
        <ele>594.8</ele>
        <time>2011-05-18T17:09:23Z</time>
      </trkpt>
      <trkpt lat="44.3471" lon="2.50464">
        <ele>595.3</ele>
        <time>2011-05-18T17:09:26Z</time>
      </trkpt>
      <trkpt lat="44.34711" lon="2.50459">
        <ele>596.2</ele>
        <time>2011-05-18T17:09:29Z</time>
      </trkpt>
      <trkpt lat="44.34712" lon="2.50453">
        <ele>597</ele>
        <time>2011-05-18T17:09:33Z</time>
      </trkpt>
      <trkpt lat="44.34712" lon="2.50451">
        <ele>597.2</ele>
        <time>2011-05-18T17:09:34Z</time>
      </trkpt>
      <trkpt lat="44.34713" lon="2.50443">
        <ele>598.3</ele>
        <time>2011-05-18T17:09:39Z</time>
      </trkpt>
      <trkpt lat="44.34714" lon="2.50437">
        <ele>598.9</ele>
        <time>2011-05-18T17:09:43Z</time>
      </trkpt>
      <trkpt lat="44.34715" lon="2.50431">
        <ele>599.8</ele>
        <time>2011-05-18T17:09:47Z</time>
      </trkpt>
      <trkpt lat="44.34715" lon="2.50426">
        <ele>600.2</ele>
        <time>2011-05-18T17:09:50Z</time>
      </trkpt>
      <trkpt lat="44.34716" lon="2.50421">
        <ele>601.1</ele>
        <time>2011-05-18T17:09:54Z</time>
      </trkpt>
      <trkpt lat="44.34718" lon="2.50415">
        <ele>602.2</ele>
        <time>2011-05-18T17:09:58Z</time>
      </trkpt>
      <trkpt lat="44.34719" lon="2.50411">
        <ele>602.5</ele>
        <time>2011-05-18T17:10:01Z</time>
      </trkpt>
      <trkpt lat="44.34719" lon="2.50406">
        <ele>602.9</ele>
        <time>2011-05-18T17:10:04Z</time>
      </trkpt>
      <trkpt lat="44.34721" lon="2.50401">
        <ele>603.6</ele>
        <time>2011-05-18T17:10:07Z</time>
      </trkpt>
      <trkpt lat="44.34722" lon="2.50395">
        <ele>604.3</ele>
        <time>2011-05-18T17:10:11Z</time>
      </trkpt>
      <trkpt lat="44.34723" lon="2.50389">
        <ele>604.7</ele>
        <time>2011-05-18T17:10:15Z</time>
      </trkpt>
      <trkpt lat="44.34722" lon="2.50383">
        <ele>604.7</ele>
        <time>2011-05-18T17:10:19Z</time>
      </trkpt>
      <trkpt lat="44.34721" lon="2.50379">
        <ele>604.5</ele>
        <time>2011-05-18T17:10:22Z</time>
      </trkpt>
      <trkpt lat="44.34721" lon="2.50374">
        <ele>604.4</ele>
        <time>2011-05-18T17:10:25Z</time>
      </trkpt>
      <trkpt lat="44.3472" lon="2.50368">
        <ele>604.4</ele>
        <time>2011-05-18T17:10:29Z</time>
      </trkpt>
      <trkpt lat="44.3472" lon="2.50363">
        <ele>604.4</ele>
        <time>2011-05-18T17:10:32Z</time>
      </trkpt>
      <trkpt lat="44.34719" lon="2.50358">
        <ele>604.5</ele>
        <time>2011-05-18T17:10:36Z</time>
      </trkpt>
      <trkpt lat="44.34719" lon="2.50356">
        <ele>604.5</ele>
        <time>2011-05-18T17:10:37Z</time>
      </trkpt>
      <trkpt lat="44.34718" lon="2.50348">
        <ele>604.5</ele>
        <time>2011-05-18T17:10:42Z</time>
      </trkpt>
      <trkpt lat="44.34718" lon="2.50343">
        <ele>604.3</ele>
        <time>2011-05-18T17:10:45Z</time>
      </trkpt>
      <trkpt lat="44.34717" lon="2.50338">
        <ele>604.3</ele>
        <time>2011-05-18T17:10:48Z</time>
      </trkpt>
      <trkpt lat="44.34717" lon="2.50332">
        <ele>604.4</ele>
        <time>2011-05-18T17:10:52Z</time>
      </trkpt>
      <trkpt lat="44.34716" lon="2.50327">
        <ele>604.6</ele>
        <time>2011-05-18T17:10:55Z</time>
      </trkpt>
      <trkpt lat="44.34717" lon="2.50322">
        <ele>604.9</ele>
        <time>2011-05-18T17:10:58Z</time>
      </trkpt>
      <trkpt lat="44.34717" lon="2.50317">
        <ele>605.3</ele>
        <time>2011-05-18T17:11:01Z</time>
      </trkpt>
      <trkpt lat="44.34717" lon="2.50312">
        <ele>605.4</ele>
        <time>2011-05-18T17:11:04Z</time>
      </trkpt>
      <trkpt lat="44.34716" lon="2.50307">
        <ele>605.6</ele>
        <time>2011-05-18T17:11:07Z</time>
      </trkpt>
      <trkpt lat="44.34716" lon="2.50302">
        <ele>605.6</ele>
        <time>2011-05-18T17:11:10Z</time>
      </trkpt>
      <trkpt lat="44.34715" lon="2.50297">
        <ele>605.7</ele>
        <time>2011-05-18T17:11:13Z</time>
      </trkpt>
      <trkpt lat="44.34714" lon="2.50291">
        <ele>605.8</ele>
        <time>2011-05-18T17:11:16Z</time>
      </trkpt>
      <trkpt lat="44.34714" lon="2.50286">
        <ele>605.8</ele>
        <time>2011-05-18T17:11:19Z</time>
      </trkpt>
      <trkpt lat="44.34713" lon="2.50281">
        <ele>605.7</ele>
        <time>2011-05-18T17:11:22Z</time>
      </trkpt>
      <trkpt lat="44.34712" lon="2.50277">
        <ele>605.7</ele>
        <time>2011-05-18T17:11:25Z</time>
      </trkpt>
      <trkpt lat="44.34711" lon="2.50271">
        <ele>605.8</ele>
        <time>2011-05-18T17:11:29Z</time>
      </trkpt>
      <trkpt lat="44.34709" lon="2.50267">
        <ele>605.5</ele>
        <time>2011-05-18T17:11:32Z</time>
      </trkpt>
      <trkpt lat="44.34707" lon="2.50262">
        <ele>605.2</ele>
        <time>2011-05-18T17:11:35Z</time>
      </trkpt>
      <trkpt lat="44.34706" lon="2.50257">
        <ele>605</ele>
        <time>2011-05-18T17:11:38Z</time>
      </trkpt>
      <trkpt lat="44.34705" lon="2.50255">
        <ele>604.9</ele>
        <time>2011-05-18T17:11:39Z</time>
      </trkpt>
      <trkpt lat="44.34702" lon="2.50247">
        <ele>604.2</ele>
        <time>2011-05-18T17:11:44Z</time>
      </trkpt>
      <trkpt lat="44.347" lon="2.50242">
        <ele>603.8</ele>
        <time>2011-05-18T17:11:48Z</time>
      </trkpt>
      <trkpt lat="44.34698" lon="2.50237">
        <ele>603.4</ele>
        <time>2011-05-18T17:11:51Z</time>
      </trkpt>
      <trkpt lat="44.34697" lon="2.50231">
        <ele>603.2</ele>
        <time>2011-05-18T17:11:54Z</time>
      </trkpt>
      <trkpt lat="44.34697" lon="2.50225">
        <ele>603.1</ele>
        <time>2011-05-18T17:11:57Z</time>
      </trkpt>
      <trkpt lat="44.34697" lon="2.5022">
        <ele>603.2</ele>
        <time>2011-05-18T17:12:00Z</time>
      </trkpt>
      <trkpt lat="44.34697" lon="2.50214">
        <ele>603.2</ele>
        <time>2011-05-18T17:12:03Z</time>
      </trkpt>
      <trkpt lat="44.34697" lon="2.50208">
        <ele>603.3</ele>
        <time>2011-05-18T17:12:06Z</time>
      </trkpt>
      <trkpt lat="44.34698" lon="2.50202">
        <ele>603.4</ele>
        <time>2011-05-18T17:12:09Z</time>
      </trkpt>
      <trkpt lat="44.34698" lon="2.50197">
        <ele>603.6</ele>
        <time>2011-05-18T17:12:12Z</time>
      </trkpt>
      <trkpt lat="44.34699" lon="2.50191">
        <ele>603.8</ele>
        <time>2011-05-18T17:12:15Z</time>
      </trkpt>
      <trkpt lat="44.347" lon="2.50186">
        <ele>603.9</ele>
        <time>2011-05-18T17:12:18Z</time>
      </trkpt>
      <trkpt lat="44.34701" lon="2.50181">
        <ele>604.1</ele>
        <time>2011-05-18T17:12:21Z</time>
      </trkpt>
      <trkpt lat="44.34701" lon="2.50175">
        <ele>604.3</ele>
        <time>2011-05-18T17:12:24Z</time>
      </trkpt>
      <trkpt lat="44.34703" lon="2.5017">
        <ele>604.4</ele>
        <time>2011-05-18T17:12:27Z</time>
      </trkpt>
      <trkpt lat="44.34704" lon="2.50164">
        <ele>604.7</ele>
        <time>2011-05-18T17:12:30Z</time>
      </trkpt>
      <trkpt lat="44.34705" lon="2.50159">
        <ele>605</ele>
        <time>2011-05-18T17:12:33Z</time>
      </trkpt>
      <trkpt lat="44.34707" lon="2.50154">
        <ele>605.4</ele>
        <time>2011-05-18T17:12:36Z</time>
      </trkpt>
      <trkpt lat="44.34709" lon="2.50149">
        <ele>605.8</ele>
        <time>2011-05-18T17:12:40Z</time>
      </trkpt>
      <trkpt lat="44.3471" lon="2.50148">
        <ele>606</ele>
        <time>2011-05-18T17:12:41Z</time>
      </trkpt>
      <trkpt lat="44.34714" lon="2.50141">
        <ele>606.7</ele>
        <time>2011-05-18T17:12:46Z</time>
      </trkpt>
      <trkpt lat="44.34716" lon="2.50137">
        <ele>607.2</ele>
        <time>2011-05-18T17:12:49Z</time>
      </trkpt>
      <trkpt lat="44.34719" lon="2.50134">
        <ele>607.7</ele>
        <time>2011-05-18T17:12:52Z</time>
      </trkpt>
      <trkpt lat="44.34723" lon="2.50131">
        <ele>608.2</ele>
        <time>2011-05-18T17:12:55Z</time>
      </trkpt>
      <trkpt lat="44.34726" lon="2.50127">
        <ele>608.7</ele>
        <time>2011-05-18T17:12:58Z</time>
      </trkpt>
      <trkpt lat="44.34729" lon="2.50124">
        <ele>609.2</ele>
        <time>2011-05-18T17:13:02Z</time>
      </trkpt>
      <trkpt lat="44.34733" lon="2.50122">
        <ele>609.8</ele>
        <time>2011-05-18T17:14:31Z</time>
      </trkpt>
      <trkpt lat="44.34734" lon="2.50122">
        <ele>610</ele>
        <time>2011-05-18T17:14:32Z</time>
      </trkpt>
      <trkpt lat="44.34741" lon="2.50121">
        <ele>611</ele>
        <time>2011-05-18T17:14:39Z</time>
      </trkpt>
      <trkpt lat="44.34745" lon="2.5012">
        <ele>611.6</ele>
        <time>2011-05-18T17:14:42Z</time>
      </trkpt>
      <trkpt lat="44.34748" lon="2.5012">
        <ele>612.2</ele>
        <time>2011-05-18T17:14:45Z</time>
      </trkpt>
      <trkpt lat="44.34752" lon="2.50119">
        <ele>612.7</ele>
        <time>2011-05-18T17:14:48Z</time>
      </trkpt>
      <trkpt lat="44.34756" lon="2.50118">
        <ele>613.2</ele>
        <time>2011-05-18T17:14:51Z</time>
      </trkpt>
      <trkpt lat="44.3476" lon="2.50117">
        <ele>613.8</ele>
        <time>2011-05-18T17:14:54Z</time>
      </trkpt>
      <trkpt lat="44.34763" lon="2.50117">
        <ele>614.3</ele>
        <time>2011-05-18T17:14:56Z</time>
      </trkpt>
      <trkpt lat="44.34766" lon="2.50117">
        <ele>614.7</ele>
        <time>2011-05-18T17:14:58Z</time>
      </trkpt>
      <trkpt lat="44.34769" lon="2.50116">
        <ele>615.2</ele>
        <time>2011-05-18T17:15:00Z</time>
      </trkpt>
      <trkpt lat="44.34772" lon="2.50116">
        <ele>615.6</ele>
        <time>2011-05-18T17:15:02Z</time>
      </trkpt>
      <trkpt lat="44.34775" lon="2.50116">
        <ele>616</ele>
        <time>2011-05-18T17:15:04Z</time>
      </trkpt>
      <trkpt lat="44.34779" lon="2.50115">
        <ele>616.5</ele>
        <time>2011-05-18T17:15:06Z</time>
      </trkpt>
      <trkpt lat="44.34782" lon="2.50116">
        <ele>617</ele>
        <time>2011-05-18T17:15:08Z</time>
      </trkpt>
      <trkpt lat="44.34785" lon="2.50116">
        <ele>617.4</ele>
        <time>2011-05-18T17:15:10Z</time>
      </trkpt>
      <trkpt lat="44.34788" lon="2.50116">
        <ele>617.9</ele>
        <time>2011-05-18T17:15:12Z</time>
      </trkpt>
      <trkpt lat="44.34793" lon="2.50116">
        <ele>618.5</ele>
        <time>2011-05-18T17:15:15Z</time>
      </trkpt>
      <trkpt lat="44.34796" lon="2.50117">
        <ele>619</ele>
        <time>2011-05-18T17:15:17Z</time>
      </trkpt>
      <trkpt lat="44.34799" lon="2.50117">
        <ele>619.5</ele>
        <time>2011-05-18T17:15:19Z</time>
      </trkpt>
      <trkpt lat="44.34803" lon="2.50117">
        <ele>620</ele>
        <time>2011-05-18T17:15:21Z</time>
      </trkpt>
      <trkpt lat="44.34806" lon="2.50118">
        <ele>620.5</ele>
        <time>2011-05-18T17:15:23Z</time>
      </trkpt>
      <trkpt lat="44.3481" lon="2.50118">
        <ele>621</ele>
        <time>2011-05-18T17:15:25Z</time>
      </trkpt>
      <trkpt lat="44.34813" lon="2.50118">
        <ele>621.5</ele>
        <time>2011-05-18T17:15:27Z</time>
      </trkpt>
      <trkpt lat="44.34816" lon="2.50118">
        <ele>622</ele>
        <time>2011-05-18T17:15:29Z</time>
      </trkpt>
      <trkpt lat="44.3482" lon="2.50118">
        <ele>622.4</ele>
        <time>2011-05-18T17:15:31Z</time>
      </trkpt>
      <trkpt lat="44.34823" lon="2.50118">
        <ele>623</ele>
        <time>2011-05-18T17:15:33Z</time>
      </trkpt>
      <trkpt lat="44.34825" lon="2.50118">
        <ele>623.2</ele>
        <time>2011-05-18T17:15:34Z</time>
      </trkpt>
      <trkpt lat="44.3483" lon="2.50118">
        <ele>624</ele>
        <time>2011-05-18T17:15:37Z</time>
      </trkpt>
      <trkpt lat="44.34833" lon="2.50118">
        <ele>624.4</ele>
        <time>2011-05-18T17:15:39Z</time>
      </trkpt>
      <trkpt lat="44.34837" lon="2.50119">
        <ele>624.7</ele>
        <time>2011-05-18T17:15:41Z</time>
      </trkpt>
      <trkpt lat="44.3484" lon="2.50119">
        <ele>624.9</ele>
        <time>2011-05-18T17:15:43Z</time>
      </trkpt>
      <trkpt lat="44.34843" lon="2.50119">
        <ele>625.2</ele>
        <time>2011-05-18T17:15:45Z</time>
      </trkpt>
      <trkpt lat="44.34847" lon="2.5012">
        <ele>625.5</ele>
        <time>2011-05-18T17:15:47Z</time>
      </trkpt>
      <trkpt lat="44.3485" lon="2.5012">
        <ele>625.8</ele>
        <time>2011-05-18T17:15:49Z</time>
      </trkpt>
      <trkpt lat="44.34853" lon="2.5012">
        <ele>626.1</ele>
        <time>2011-05-18T17:15:51Z</time>
      </trkpt>
      <trkpt lat="44.34857" lon="2.5012">
        <ele>626.3</ele>
        <time>2011-05-18T17:15:53Z</time>
      </trkpt>
      <trkpt lat="44.3486" lon="2.5012">
        <ele>626.6</ele>
        <time>2011-05-18T17:15:55Z</time>
      </trkpt>
      <trkpt lat="44.34863" lon="2.50121">
        <ele>626.9</ele>
        <time>2011-05-18T17:15:57Z</time>
      </trkpt>
      <trkpt lat="44.34866" lon="2.50122">
        <ele>627.1</ele>
        <time>2011-05-18T17:15:59Z</time>
      </trkpt>
      <trkpt lat="44.3487" lon="2.50122">
        <ele>627.5</ele>
        <time>2011-05-18T17:16:01Z</time>
      </trkpt>
      <trkpt lat="44.34873" lon="2.50122">
        <ele>627.7</ele>
        <time>2011-05-18T17:16:03Z</time>
      </trkpt>
      <trkpt lat="44.34877" lon="2.50122">
        <ele>628</ele>
        <time>2011-05-18T17:16:06Z</time>
      </trkpt>
      <trkpt lat="44.34881" lon="2.50121">
        <ele>628.3</ele>
        <time>2011-05-18T17:16:11Z</time>
      </trkpt>
      <trkpt lat="44.34885" lon="2.50121">
        <ele>628.6</ele>
        <time>2011-05-18T17:17:16Z</time>
      </trkpt>
      <trkpt lat="44.34886" lon="2.50119">
        <ele>628.6</ele>
        <time>2011-05-18T17:17:17Z</time>
      </trkpt>
      <trkpt lat="44.3489" lon="2.50114">
        <ele>628.7</ele>
        <time>2011-05-18T17:17:20Z</time>
      </trkpt>
      <trkpt lat="44.34892" lon="2.5011">
        <ele>628.7</ele>
        <time>2011-05-18T17:17:22Z</time>
      </trkpt>
      <trkpt lat="44.34895" lon="2.50106">
        <ele>628.8</ele>
        <time>2011-05-18T17:17:24Z</time>
      </trkpt>
      <trkpt lat="44.34898" lon="2.50102">
        <ele>628.8</ele>
        <time>2011-05-18T17:17:26Z</time>
      </trkpt>
      <trkpt lat="44.34901" lon="2.50098">
        <ele>628.8</ele>
        <time>2011-05-18T17:17:28Z</time>
      </trkpt>
      <trkpt lat="44.34904" lon="2.50094">
        <ele>628.8</ele>
        <time>2011-05-18T17:17:30Z</time>
      </trkpt>
      <trkpt lat="44.34907" lon="2.5009">
        <ele>628.8</ele>
        <time>2011-05-18T17:17:32Z</time>
      </trkpt>
      <trkpt lat="44.34909" lon="2.50088">
        <ele>628.7</ele>
        <time>2011-05-18T17:17:33Z</time>
      </trkpt>
      <trkpt lat="44.3491" lon="2.50086">
        <ele>628.7</ele>
        <time>2011-05-18T17:17:34Z</time>
      </trkpt>
      <trkpt lat="44.34912" lon="2.50084">
        <ele>628.7</ele>
        <time>2011-05-18T17:17:35Z</time>
      </trkpt>
      <trkpt lat="44.34914" lon="2.50082">
        <ele>628.8</ele>
        <time>2011-05-18T17:17:36Z</time>
      </trkpt>
      <trkpt lat="44.34916" lon="2.5008">
        <ele>628.9</ele>
        <time>2011-05-18T17:17:37Z</time>
      </trkpt>
      <trkpt lat="44.3492" lon="2.50076">
        <ele>629</ele>
        <time>2011-05-18T17:17:39Z</time>
      </trkpt>
      <trkpt lat="44.34923" lon="2.50073">
        <ele>629.1</ele>
        <time>2011-05-18T17:17:41Z</time>
      </trkpt>
      <trkpt lat="44.34926" lon="2.50071">
        <ele>629.3</ele>
        <time>2011-05-18T17:17:43Z</time>
      </trkpt>
      <trkpt lat="44.3493" lon="2.50069">
        <ele>629.5</ele>
        <time>2011-05-18T17:17:45Z</time>
      </trkpt>
      <trkpt lat="44.34934" lon="2.50067">
        <ele>629.7</ele>
        <time>2011-05-18T17:17:47Z</time>
      </trkpt>
      <trkpt lat="44.34938" lon="2.50065">
        <ele>629.9</ele>
        <time>2011-05-18T17:17:49Z</time>
      </trkpt>
      <trkpt lat="44.34942" lon="2.50063">
        <ele>630.1</ele>
        <time>2011-05-18T17:17:51Z</time>
      </trkpt>
      <trkpt lat="44.34944" lon="2.50062">
        <ele>630.2</ele>
        <time>2011-05-18T17:17:52Z</time>
      </trkpt>
      <trkpt lat="44.34946" lon="2.50061">
        <ele>630.3</ele>
        <time>2011-05-18T17:17:53Z</time>
      </trkpt>
      <trkpt lat="44.3495" lon="2.50059">
        <ele>630.6</ele>
        <time>2011-05-18T17:17:55Z</time>
      </trkpt>
      <trkpt lat="44.34954" lon="2.50058">
        <ele>630.8</ele>
        <time>2011-05-18T17:17:57Z</time>
      </trkpt>
      <trkpt lat="44.34958" lon="2.50058">
        <ele>631</ele>
        <time>2011-05-18T17:17:59Z</time>
      </trkpt>
      <trkpt lat="44.34962" lon="2.50056">
        <ele>631.3</ele>
        <time>2011-05-18T17:18:01Z</time>
      </trkpt>
      <trkpt lat="44.34966" lon="2.50056">
        <ele>631.5</ele>
        <time>2011-05-18T17:18:03Z</time>
      </trkpt>
      <trkpt lat="44.3497" lon="2.50055">
        <ele>631.7</ele>
        <time>2011-05-18T17:18:05Z</time>
      </trkpt>
      <trkpt lat="44.34974" lon="2.50055">
        <ele>632</ele>
        <time>2011-05-18T17:18:07Z</time>
      </trkpt>
      <trkpt lat="44.34978" lon="2.50055">
        <ele>632.2</ele>
        <time>2011-05-18T17:18:09Z</time>
      </trkpt>
      <trkpt lat="44.34982" lon="2.50055">
        <ele>632.5</ele>
        <time>2011-05-18T17:18:11Z</time>
      </trkpt>
      <trkpt lat="44.34986" lon="2.50055">
        <ele>632.7</ele>
        <time>2011-05-18T17:18:13Z</time>
      </trkpt>
      <trkpt lat="44.3499" lon="2.50056">
        <ele>633</ele>
        <time>2011-05-18T17:18:15Z</time>
      </trkpt>
      <trkpt lat="44.34994" lon="2.50056">
        <ele>633.3</ele>
        <time>2011-05-18T17:18:17Z</time>
      </trkpt>
      <trkpt lat="44.34995" lon="2.50057">
        <ele>633.4</ele>
        <time>2011-05-18T17:18:18Z</time>
      </trkpt>
      <trkpt lat="44.35002" lon="2.50058">
        <ele>633.7</ele>
        <time>2011-05-18T17:18:21Z</time>
      </trkpt>
      <trkpt lat="44.35006" lon="2.50059">
        <ele>633.6</ele>
        <time>2011-05-18T17:18:23Z</time>
      </trkpt>
      <trkpt lat="44.3501" lon="2.5006">
        <ele>633.5</ele>
        <time>2011-05-18T17:18:25Z</time>
      </trkpt>
      <trkpt lat="44.35015" lon="2.50061">
        <ele>633.5</ele>
        <time>2011-05-18T17:18:27Z</time>
      </trkpt>
      <trkpt lat="44.35019" lon="2.50062">
        <ele>633.4</ele>
        <time>2011-05-18T17:18:29Z</time>
      </trkpt>
      <trkpt lat="44.35023" lon="2.50063">
        <ele>633.3</ele>
        <time>2011-05-18T17:18:31Z</time>
      </trkpt>
      <trkpt lat="44.35027" lon="2.50064">
        <ele>633.3</ele>
        <time>2011-05-18T17:18:33Z</time>
      </trkpt>
      <trkpt lat="44.3503" lon="2.50064">
        <ele>633.2</ele>
        <time>2011-05-18T17:18:34Z</time>
      </trkpt>
      <trkpt lat="44.35032" lon="2.50065">
        <ele>633.2</ele>
        <time>2011-05-18T17:18:35Z</time>
      </trkpt>
      <trkpt lat="44.35034" lon="2.50065">
        <ele>633.1</ele>
        <time>2011-05-18T17:18:36Z</time>
      </trkpt>
      <trkpt lat="44.35037" lon="2.50066">
        <ele>633.1</ele>
        <time>2011-05-18T17:18:37Z</time>
      </trkpt>
      <trkpt lat="44.35039" lon="2.50066">
        <ele>633.1</ele>
        <time>2011-05-18T17:18:38Z</time>
      </trkpt>
      <trkpt lat="44.35041" lon="2.50067">
        <ele>633</ele>
        <time>2011-05-18T17:18:39Z</time>
      </trkpt>
      <trkpt lat="44.35044" lon="2.50067">
        <ele>633</ele>
        <time>2011-05-18T17:18:40Z</time>
      </trkpt>
      <trkpt lat="44.35046" lon="2.50068">
        <ele>632.9</ele>
        <time>2011-05-18T17:18:41Z</time>
      </trkpt>
      <trkpt lat="44.35049" lon="2.50069">
        <ele>632.9</ele>
        <time>2011-05-18T17:18:42Z</time>
      </trkpt>
      <trkpt lat="44.35051" lon="2.5007">
        <ele>632.8</ele>
        <time>2011-05-18T17:18:43Z</time>
      </trkpt>
      <trkpt lat="44.35053" lon="2.50071">
        <ele>632.8</ele>
        <time>2011-05-18T17:18:44Z</time>
      </trkpt>
      <trkpt lat="44.35056" lon="2.50072">
        <ele>632.7</ele>
        <time>2011-05-18T17:18:45Z</time>
      </trkpt>
      <trkpt lat="44.35059" lon="2.50073">
        <ele>632.6</ele>
        <time>2011-05-18T17:18:46Z</time>
      </trkpt>
      <trkpt lat="44.35061" lon="2.50075">
        <ele>632.6</ele>
        <time>2011-05-18T17:18:47Z</time>
      </trkpt>
      <trkpt lat="44.35064" lon="2.50076">
        <ele>632.5</ele>
        <time>2011-05-18T17:18:48Z</time>
      </trkpt>
      <trkpt lat="44.35066" lon="2.50077">
        <ele>632.5</ele>
        <time>2011-05-18T17:18:49Z</time>
      </trkpt>
      <trkpt lat="44.35068" lon="2.50079">
        <ele>632.4</ele>
        <time>2011-05-18T17:18:50Z</time>
      </trkpt>
      <trkpt lat="44.35071" lon="2.5008">
        <ele>632.3</ele>
        <time>2011-05-18T17:18:51Z</time>
      </trkpt>
      <trkpt lat="44.35074" lon="2.50082">
        <ele>632.2</ele>
        <time>2011-05-18T17:18:52Z</time>
      </trkpt>
      <trkpt lat="44.35076" lon="2.50084">
        <ele>632.2</ele>
        <time>2011-05-18T17:18:53Z</time>
      </trkpt>
      <trkpt lat="44.35079" lon="2.50087">
        <ele>632.1</ele>
        <time>2011-05-18T17:18:54Z</time>
      </trkpt>
      <trkpt lat="44.35083" lon="2.50089">
        <ele>632</ele>
        <time>2011-05-18T17:18:55Z</time>
      </trkpt>
      <trkpt lat="44.35086" lon="2.5009">
        <ele>631.8</ele>
        <time>2011-05-18T17:18:56Z</time>
      </trkpt>
      <trkpt lat="44.35089" lon="2.50092">
        <ele>631.7</ele>
        <time>2011-05-18T17:18:57Z</time>
      </trkpt>
      <trkpt lat="44.35092" lon="2.50094">
        <ele>631.6</ele>
        <time>2011-05-18T17:18:58Z</time>
      </trkpt>
      <trkpt lat="44.35096" lon="2.50096">
        <ele>631.4</ele>
        <time>2011-05-18T17:18:59Z</time>
      </trkpt>
      <trkpt lat="44.35099" lon="2.50099">
        <ele>631.3</ele>
        <time>2011-05-18T17:19:00Z</time>
      </trkpt>
      <trkpt lat="44.35102" lon="2.50101">
        <ele>631.2</ele>
        <time>2011-05-18T17:19:01Z</time>
      </trkpt>
      <trkpt lat="44.35106" lon="2.50102">
        <ele>631</ele>
        <time>2011-05-18T17:19:02Z</time>
      </trkpt>
      <trkpt lat="44.3511" lon="2.50104">
        <ele>630.9</ele>
        <time>2011-05-18T17:19:03Z</time>
      </trkpt>
      <trkpt lat="44.35114" lon="2.50105">
        <ele>630.7</ele>
        <time>2011-05-18T17:19:04Z</time>
      </trkpt>
      <trkpt lat="44.35118" lon="2.50107">
        <ele>630.6</ele>
        <time>2011-05-18T17:19:05Z</time>
      </trkpt>
      <trkpt lat="44.35122" lon="2.50109">
        <ele>630.5</ele>
        <time>2011-05-18T17:19:06Z</time>
      </trkpt>
      <trkpt lat="44.35126" lon="2.50111">
        <ele>630.3</ele>
        <time>2011-05-18T17:19:07Z</time>
      </trkpt>
      <trkpt lat="44.3513" lon="2.50113">
        <ele>630.2</ele>
        <time>2011-05-18T17:19:08Z</time>
      </trkpt>
      <trkpt lat="44.35134" lon="2.50114">
        <ele>630</ele>
        <time>2011-05-18T17:19:09Z</time>
      </trkpt>
      <trkpt lat="44.35138" lon="2.50115">
        <ele>629.9</ele>
        <time>2011-05-18T17:19:10Z</time>
      </trkpt>
      <trkpt lat="44.35142" lon="2.50116">
        <ele>629.8</ele>
        <time>2011-05-18T17:19:20Z</time>
      </trkpt>
      <trkpt lat="44.35143" lon="2.50117">
        <ele>629.7</ele>
        <time>2011-05-18T17:19:21Z</time>
      </trkpt>
      <trkpt lat="44.35149" lon="2.5012">
        <ele>629.5</ele>
        <time>2011-05-18T17:19:26Z</time>
      </trkpt>
      <trkpt lat="44.35152" lon="2.50121">
        <ele>629.4</ele>
        <time>2011-05-18T17:19:28Z</time>
      </trkpt>
      <trkpt lat="44.35156" lon="2.50122">
        <ele>629.3</ele>
        <time>2011-05-18T17:19:30Z</time>
      </trkpt>
      <trkpt lat="44.35158" lon="2.50123">
        <ele>629.3</ele>
        <time>2011-05-18T17:19:31Z</time>
      </trkpt>
      <trkpt lat="44.3516" lon="2.50124">
        <ele>629.2</ele>
        <time>2011-05-18T17:19:32Z</time>
      </trkpt>
      <trkpt lat="44.35163" lon="2.50125">
        <ele>629.1</ele>
        <time>2011-05-18T17:19:33Z</time>
      </trkpt>
      <trkpt lat="44.35165" lon="2.50125">
        <ele>629</ele>
        <time>2011-05-18T17:19:34Z</time>
      </trkpt>
      <trkpt lat="44.35168" lon="2.50126">
        <ele>628.9</ele>
        <time>2011-05-18T17:19:35Z</time>
      </trkpt>
      <trkpt lat="44.35171" lon="2.50127">
        <ele>628.8</ele>
        <time>2011-05-18T17:19:36Z</time>
      </trkpt>
      <trkpt lat="44.35174" lon="2.50128">
        <ele>628.7</ele>
        <time>2011-05-18T17:19:37Z</time>
      </trkpt>
      <trkpt lat="44.35177" lon="2.50129">
        <ele>628.6</ele>
        <time>2011-05-18T17:19:38Z</time>
      </trkpt>
      <trkpt lat="44.3518" lon="2.50131">
        <ele>628.4</ele>
        <time>2011-05-18T17:19:39Z</time>
      </trkpt>
      <trkpt lat="44.35183" lon="2.50132">
        <ele>628.3</ele>
        <time>2011-05-18T17:19:40Z</time>
      </trkpt>
      <trkpt lat="44.35187" lon="2.50133">
        <ele>628.1</ele>
        <time>2011-05-18T17:19:41Z</time>
      </trkpt>
      <trkpt lat="44.3519" lon="2.50135">
        <ele>628</ele>
        <time>2011-05-18T17:19:42Z</time>
      </trkpt>
      <trkpt lat="44.35193" lon="2.50137">
        <ele>627.9</ele>
        <time>2011-05-18T17:19:43Z</time>
      </trkpt>
      <trkpt lat="44.35197" lon="2.50139">
        <ele>627.7</ele>
        <time>2011-05-18T17:19:44Z</time>
      </trkpt>
      <trkpt lat="44.352" lon="2.50141">
        <ele>627.5</ele>
        <time>2011-05-18T17:19:45Z</time>
      </trkpt>
      <trkpt lat="44.35204" lon="2.50143">
        <ele>627.4</ele>
        <time>2011-05-18T17:19:46Z</time>
      </trkpt>
      <trkpt lat="44.35207" lon="2.50145">
        <ele>627.2</ele>
        <time>2011-05-18T17:19:47Z</time>
      </trkpt>
      <trkpt lat="44.35211" lon="2.50147">
        <ele>627</ele>
        <time>2011-05-18T17:19:48Z</time>
      </trkpt>
      <trkpt lat="44.35215" lon="2.5015">
        <ele>626.8</ele>
        <time>2011-05-18T17:19:49Z</time>
      </trkpt>
      <trkpt lat="44.35219" lon="2.50152">
        <ele>626.6</ele>
        <time>2011-05-18T17:19:50Z</time>
      </trkpt>
      <trkpt lat="44.35223" lon="2.50155">
        <ele>626.4</ele>
        <time>2011-05-18T17:19:51Z</time>
      </trkpt>
      <trkpt lat="44.35227" lon="2.50158">
        <ele>626.2</ele>
        <time>2011-05-18T17:19:52Z</time>
      </trkpt>
      <trkpt lat="44.35231" lon="2.50161">
        <ele>626</ele>
        <time>2011-05-18T17:19:53Z</time>
      </trkpt>
      <trkpt lat="44.35236" lon="2.50164">
        <ele>625.7</ele>
        <time>2011-05-18T17:19:54Z</time>
      </trkpt>
      <trkpt lat="44.3524" lon="2.50167">
        <ele>625.5</ele>
        <time>2011-05-18T17:19:55Z</time>
      </trkpt>
      <trkpt lat="44.35245" lon="2.5017">
        <ele>625.2</ele>
        <time>2011-05-18T17:19:56Z</time>
      </trkpt>
      <trkpt lat="44.3525" lon="2.50174">
        <ele>624.9</ele>
        <time>2011-05-18T17:19:57Z</time>
      </trkpt>
      <trkpt lat="44.35255" lon="2.50177">
        <ele>624.8</ele>
        <time>2011-05-18T17:19:58Z</time>
      </trkpt>
      <trkpt lat="44.3526" lon="2.50181">
        <ele>624.6</ele>
        <time>2011-05-18T17:19:59Z</time>
      </trkpt>
      <trkpt lat="44.35265" lon="2.50184">
        <ele>624.4</ele>
        <time>2011-05-18T17:20:00Z</time>
      </trkpt>
      <trkpt lat="44.35271" lon="2.50188">
        <ele>624.2</ele>
        <time>2011-05-18T17:20:01Z</time>
      </trkpt>
      <trkpt lat="44.35276" lon="2.50191">
        <ele>624</ele>
        <time>2011-05-18T17:20:02Z</time>
      </trkpt>
      <trkpt lat="44.35282" lon="2.50194">
        <ele>623.8</ele>
        <time>2011-05-18T17:20:03Z</time>
      </trkpt>
      <trkpt lat="44.35288" lon="2.50198">
        <ele>623.6</ele>
        <time>2011-05-18T17:20:04Z</time>
      </trkpt>
      <trkpt lat="44.35294" lon="2.50201">
        <ele>623.3</ele>
        <time>2011-05-18T17:20:05Z</time>
      </trkpt>
      <trkpt lat="44.35301" lon="2.50204">
        <ele>623.1</ele>
        <time>2011-05-18T17:20:06Z</time>
      </trkpt>
      <trkpt lat="44.35307" lon="2.50208">
        <ele>622.8</ele>
        <time>2011-05-18T17:20:07Z</time>
      </trkpt>
      <trkpt lat="44.35314" lon="2.50211">
        <ele>622.5</ele>
        <time>2011-05-18T17:20:08Z</time>
      </trkpt>
      <trkpt lat="44.35321" lon="2.50215">
        <ele>622.3</ele>
        <time>2011-05-18T17:20:09Z</time>
      </trkpt>
      <trkpt lat="44.35328" lon="2.50218">
        <ele>621.9</ele>
        <time>2011-05-18T17:20:10Z</time>
      </trkpt>
      <trkpt lat="44.35335" lon="2.50221">
        <ele>621.8</ele>
        <time>2011-05-18T17:20:11Z</time>
      </trkpt>
      <trkpt lat="44.35342" lon="2.50225">
        <ele>622.1</ele>
        <time>2011-05-18T17:20:12Z</time>
      </trkpt>
      <trkpt lat="44.35349" lon="2.50228">
        <ele>622.4</ele>
        <time>2011-05-18T17:20:13Z</time>
      </trkpt>
      <trkpt lat="44.35356" lon="2.50232">
        <ele>622.7</ele>
        <time>2011-05-18T17:20:14Z</time>
      </trkpt>
      <trkpt lat="44.35363" lon="2.50235">
        <ele>622.9</ele>
        <time>2011-05-18T17:20:15Z</time>
      </trkpt>
      <trkpt lat="44.35369" lon="2.50238">
        <ele>623.1</ele>
        <time>2011-05-18T17:20:16Z</time>
      </trkpt>
      <trkpt lat="44.35376" lon="2.50242">
        <ele>623.4</ele>
        <time>2011-05-18T17:20:17Z</time>
      </trkpt>
      <trkpt lat="44.35382" lon="2.50245">
        <ele>623.5</ele>
        <time>2011-05-18T17:20:18Z</time>
      </trkpt>
      <trkpt lat="44.35388" lon="2.50248">
        <ele>623.7</ele>
        <time>2011-05-18T17:20:19Z</time>
      </trkpt>
      <trkpt lat="44.35393" lon="2.50251">
        <ele>623.9</ele>
        <time>2011-05-18T17:20:20Z</time>
      </trkpt>
      <trkpt lat="44.35399" lon="2.50253">
        <ele>623.9</ele>
        <time>2011-05-18T17:20:21Z</time>
      </trkpt>
      <trkpt lat="44.35403" lon="2.50256">
        <ele>624</ele>
        <time>2011-05-18T17:20:22Z</time>
      </trkpt>
      <trkpt lat="44.35407" lon="2.50258">
        <ele>623.9</ele>
        <time>2011-05-18T17:20:23Z</time>
      </trkpt>
      <trkpt lat="44.35411" lon="2.50259">
        <ele>624</ele>
        <time>2011-05-18T17:20:24Z</time>
      </trkpt>
      <trkpt lat="44.35415" lon="2.50261">
        <ele>624.1</ele>
        <time>2011-05-18T17:20:26Z</time>
      </trkpt>
      <trkpt lat="44.35419" lon="2.50258">
        <ele>624.3</ele>
        <time>2011-05-18T17:20:28Z</time>
      </trkpt>
      <trkpt lat="44.3542" lon="2.50256">
        <ele>624.5</ele>
        <time>2011-05-18T17:20:29Z</time>
      </trkpt>
      <trkpt lat="44.35421" lon="2.50252">
        <ele>624.8</ele>
        <time>2011-05-18T17:20:30Z</time>
      </trkpt>
      <trkpt lat="44.35421" lon="2.50249">
        <ele>625</ele>
        <time>2011-05-18T17:20:31Z</time>
      </trkpt>
      <trkpt lat="44.3542" lon="2.50243">
        <ele>625.3</ele>
        <time>2011-05-18T17:20:33Z</time>
      </trkpt>
      <trkpt lat="44.3542" lon="2.5024">
        <ele>625.5</ele>
        <time>2011-05-18T17:20:34Z</time>
      </trkpt>
      <trkpt lat="44.35419" lon="2.50236">
        <ele>625.7</ele>
        <time>2011-05-18T17:20:35Z</time>
      </trkpt>
      <trkpt lat="44.35419" lon="2.50232">
        <ele>625.8</ele>
        <time>2011-05-18T17:20:36Z</time>
      </trkpt>
      <trkpt lat="44.35418" lon="2.50228">
        <ele>626</ele>
        <time>2011-05-18T17:20:37Z</time>
      </trkpt>
      <trkpt lat="44.35417" lon="2.50224">
        <ele>626.3</ele>
        <time>2011-05-18T17:20:38Z</time>
      </trkpt>
      <trkpt lat="44.35417" lon="2.50219">
        <ele>626.5</ele>
        <time>2011-05-18T17:20:39Z</time>
      </trkpt>
      <trkpt lat="44.35416" lon="2.50215">
        <ele>626.6</ele>
        <time>2011-05-18T17:20:40Z</time>
      </trkpt>
      <trkpt lat="44.35415" lon="2.5021">
        <ele>626.9</ele>
        <time>2011-05-18T17:20:41Z</time>
      </trkpt>
      <trkpt lat="44.35415" lon="2.50206">
        <ele>627</ele>
        <time>2011-05-18T17:20:42Z</time>
      </trkpt>
      <trkpt lat="44.35415" lon="2.50201">
        <ele>627.3</ele>
        <time>2011-05-18T17:20:43Z</time>
      </trkpt>
      <trkpt lat="44.35414" lon="2.50196">
        <ele>627.4</ele>
        <time>2011-05-18T17:20:44Z</time>
      </trkpt>
      <trkpt lat="44.35413" lon="2.50191">
        <ele>627.6</ele>
        <time>2011-05-18T17:20:45Z</time>
      </trkpt>
      <trkpt lat="44.35413" lon="2.50186">
        <ele>627.8</ele>
        <time>2011-05-18T17:20:46Z</time>
      </trkpt>
      <trkpt lat="44.35412" lon="2.50181">
        <ele>628</ele>
        <time>2011-05-18T17:20:47Z</time>
      </trkpt>
      <trkpt lat="44.35411" lon="2.50176">
        <ele>628.2</ele>
        <time>2011-05-18T17:20:48Z</time>
      </trkpt>
      <trkpt lat="44.3541" lon="2.50172">
        <ele>628.4</ele>
        <time>2011-05-18T17:20:49Z</time>
      </trkpt>
      <trkpt lat="44.3541" lon="2.50167">
        <ele>628.5</ele>
        <time>2011-05-18T17:20:50Z</time>
      </trkpt>
      <trkpt lat="44.35409" lon="2.50162">
        <ele>628.2</ele>
        <time>2011-05-18T17:20:51Z</time>
      </trkpt>
      <trkpt lat="44.35408" lon="2.50157">
        <ele>627.9</ele>
        <time>2011-05-18T17:20:52Z</time>
      </trkpt>
      <trkpt lat="44.35407" lon="2.50152">
        <ele>627.6</ele>
        <time>2011-05-18T17:20:53Z</time>
      </trkpt>
      <trkpt lat="44.35407" lon="2.50147">
        <ele>627.4</ele>
        <time>2011-05-18T17:20:54Z</time>
      </trkpt>
      <trkpt lat="44.35406" lon="2.50141">
        <ele>627.1</ele>
        <time>2011-05-18T17:20:55Z</time>
      </trkpt>
      <trkpt lat="44.35405" lon="2.50136">
        <ele>626.8</ele>
        <time>2011-05-18T17:20:56Z</time>
      </trkpt>
      <trkpt lat="44.35404" lon="2.50131">
        <ele>626.6</ele>
        <time>2011-05-18T17:20:57Z</time>
      </trkpt>
      <trkpt lat="44.35404" lon="2.50126">
        <ele>626.3</ele>
        <time>2011-05-18T17:20:58Z</time>
      </trkpt>
      <trkpt lat="44.35403" lon="2.50121">
        <ele>626.1</ele>
        <time>2011-05-18T17:20:59Z</time>
      </trkpt>
      <trkpt lat="44.35402" lon="2.50116">
        <ele>625.8</ele>
        <time>2011-05-18T17:21:00Z</time>
      </trkpt>
      <trkpt lat="44.35401" lon="2.50111">
        <ele>625.6</ele>
        <time>2011-05-18T17:21:01Z</time>
      </trkpt>
      <trkpt lat="44.354" lon="2.50106">
        <ele>625.3</ele>
        <time>2011-05-18T17:21:02Z</time>
      </trkpt>
      <trkpt lat="44.35399" lon="2.50101">
        <ele>625.1</ele>
        <time>2011-05-18T17:21:03Z</time>
      </trkpt>
      <trkpt lat="44.35398" lon="2.50096">
        <ele>624.9</ele>
        <time>2011-05-18T17:21:04Z</time>
      </trkpt>
      <trkpt lat="44.35398" lon="2.50092">
        <ele>624.6</ele>
        <time>2011-05-18T17:21:05Z</time>
      </trkpt>
      <trkpt lat="44.35397" lon="2.50087">
        <ele>624.4</ele>
        <time>2011-05-18T17:21:06Z</time>
      </trkpt>
      <trkpt lat="44.35396" lon="2.50082">
        <ele>624.2</ele>
        <time>2011-05-18T17:21:07Z</time>
      </trkpt>
      <trkpt lat="44.35395" lon="2.50077">
        <ele>623.9</ele>
        <time>2011-05-18T17:21:08Z</time>
      </trkpt>
      <trkpt lat="44.35394" lon="2.50072">
        <ele>623.6</ele>
        <time>2011-05-18T17:21:09Z</time>
      </trkpt>
      <trkpt lat="44.35393" lon="2.50067">
        <ele>623.4</ele>
        <time>2011-05-18T17:21:10Z</time>
      </trkpt>
      <trkpt lat="44.35392" lon="2.50063">
        <ele>623.2</ele>
        <time>2011-05-18T17:21:11Z</time>
      </trkpt>
      <trkpt lat="44.35391" lon="2.50058">
        <ele>622.9</ele>
        <time>2011-05-18T17:21:12Z</time>
      </trkpt>
      <trkpt lat="44.35391" lon="2.50053">
        <ele>622.7</ele>
        <time>2011-05-18T17:21:13Z</time>
      </trkpt>
      <trkpt lat="44.3539" lon="2.50048">
        <ele>622.5</ele>
        <time>2011-05-18T17:21:14Z</time>
      </trkpt>
      <trkpt lat="44.35389" lon="2.50043">
        <ele>622.2</ele>
        <time>2011-05-18T17:21:15Z</time>
      </trkpt>
      <trkpt lat="44.35388" lon="2.50038">
        <ele>622</ele>
        <time>2011-05-18T17:21:16Z</time>
      </trkpt>
      <trkpt lat="44.35387" lon="2.50033">
        <ele>621.8</ele>
        <time>2011-05-18T17:21:17Z</time>
      </trkpt>
      <trkpt lat="44.35386" lon="2.50029">
        <ele>621.6</ele>
        <time>2011-05-18T17:21:18Z</time>
      </trkpt>
      <trkpt lat="44.35385" lon="2.50024">
        <ele>621.4</ele>
        <time>2011-05-18T17:21:19Z</time>
      </trkpt>
      <trkpt lat="44.35384" lon="2.50019">
        <ele>621.1</ele>
        <time>2011-05-18T17:21:20Z</time>
      </trkpt>
      <trkpt lat="44.35383" lon="2.50014">
        <ele>620.9</ele>
        <time>2011-05-18T17:21:21Z</time>
      </trkpt>
      <trkpt lat="44.35382" lon="2.50009">
        <ele>620.7</ele>
        <time>2011-05-18T17:21:22Z</time>
      </trkpt>
      <trkpt lat="44.35381" lon="2.50004">
        <ele>620.6</ele>
        <time>2011-05-18T17:21:23Z</time>
      </trkpt>
      <trkpt lat="44.3538" lon="2.49999">
        <ele>620.5</ele>
        <time>2011-05-18T17:21:24Z</time>
      </trkpt>
      <trkpt lat="44.35379" lon="2.49994">
        <ele>620.6</ele>
        <time>2011-05-18T17:21:25Z</time>
      </trkpt>
      <trkpt lat="44.35378" lon="2.49988">
        <ele>620.7</ele>
        <time>2011-05-18T17:21:26Z</time>
      </trkpt>
      <trkpt lat="44.35377" lon="2.49983">
        <ele>620.8</ele>
        <time>2011-05-18T17:21:27Z</time>
      </trkpt>
      <trkpt lat="44.35376" lon="2.49978">
        <ele>620.9</ele>
        <time>2011-05-18T17:21:28Z</time>
      </trkpt>
      <trkpt lat="44.35375" lon="2.49973">
        <ele>621</ele>
        <time>2011-05-18T17:21:29Z</time>
      </trkpt>
      <trkpt lat="44.35374" lon="2.49967">
        <ele>621.1</ele>
        <time>2011-05-18T17:21:30Z</time>
      </trkpt>
      <trkpt lat="44.35373" lon="2.49962">
        <ele>621.3</ele>
        <time>2011-05-18T17:21:31Z</time>
      </trkpt>
      <trkpt lat="44.35372" lon="2.49957">
        <ele>621.4</ele>
        <time>2011-05-18T17:21:32Z</time>
      </trkpt>
      <trkpt lat="44.35371" lon="2.49951">
        <ele>621.5</ele>
        <time>2011-05-18T17:21:33Z</time>
      </trkpt>
      <trkpt lat="44.3537" lon="2.49946">
        <ele>621.7</ele>
        <time>2011-05-18T17:21:34Z</time>
      </trkpt>
      <trkpt lat="44.35369" lon="2.49941">
        <ele>621.8</ele>
        <time>2011-05-18T17:21:35Z</time>
      </trkpt>
      <trkpt lat="44.35367" lon="2.49935">
        <ele>622</ele>
        <time>2011-05-18T17:21:36Z</time>
      </trkpt>
      <trkpt lat="44.35366" lon="2.4993">
        <ele>622.1</ele>
        <time>2011-05-18T17:21:37Z</time>
      </trkpt>
      <trkpt lat="44.35365" lon="2.49924">
        <ele>622.3</ele>
        <time>2011-05-18T17:21:38Z</time>
      </trkpt>
      <trkpt lat="44.35364" lon="2.49919">
        <ele>622.5</ele>
        <time>2011-05-18T17:21:39Z</time>
      </trkpt>
      <trkpt lat="44.35363" lon="2.49913">
        <ele>622.6</ele>
        <time>2011-05-18T17:21:40Z</time>
      </trkpt>
      <trkpt lat="44.35362" lon="2.49908">
        <ele>622.6</ele>
        <time>2011-05-18T17:21:41Z</time>
      </trkpt>
      <trkpt lat="44.35361" lon="2.49902">
        <ele>622.7</ele>
        <time>2011-05-18T17:21:42Z</time>
      </trkpt>
      <trkpt lat="44.3536" lon="2.49897">
        <ele>622.7</ele>
        <time>2011-05-18T17:21:43Z</time>
      </trkpt>
      <trkpt lat="44.35358" lon="2.49891">
        <ele>622.8</ele>
        <time>2011-05-18T17:21:44Z</time>
      </trkpt>
      <trkpt lat="44.35357" lon="2.49886">
        <ele>622.9</ele>
        <time>2011-05-18T17:21:45Z</time>
      </trkpt>
      <trkpt lat="44.35356" lon="2.49881">
        <ele>622.9</ele>
        <time>2011-05-18T17:21:46Z</time>
      </trkpt>
      <trkpt lat="44.35355" lon="2.49875">
        <ele>623</ele>
        <time>2011-05-18T17:21:47Z</time>
      </trkpt>
      <trkpt lat="44.35354" lon="2.49869">
        <ele>623</ele>
        <time>2011-05-18T17:21:48Z</time>
      </trkpt>
      <trkpt lat="44.35353" lon="2.49864">
        <ele>623.1</ele>
        <time>2011-05-18T17:21:49Z</time>
      </trkpt>
      <trkpt lat="44.35352" lon="2.49858">
        <ele>623.1</ele>
        <time>2011-05-18T17:21:50Z</time>
      </trkpt>
      <trkpt lat="44.35351" lon="2.49852">
        <ele>623.2</ele>
        <time>2011-05-18T17:21:51Z</time>
      </trkpt>
      <trkpt lat="44.3535" lon="2.49846">
        <ele>623.2</ele>
        <time>2011-05-18T17:21:52Z</time>
      </trkpt>
      <trkpt lat="44.35348" lon="2.4984">
        <ele>623.3</ele>
        <time>2011-05-18T17:21:53Z</time>
      </trkpt>
      <trkpt lat="44.35347" lon="2.49834">
        <ele>623.3</ele>
        <time>2011-05-18T17:21:54Z</time>
      </trkpt>
      <trkpt lat="44.35346" lon="2.49828">
        <ele>623.5</ele>
        <time>2011-05-18T17:21:55Z</time>
      </trkpt>
      <trkpt lat="44.35345" lon="2.49822">
        <ele>623.7</ele>
        <time>2011-05-18T17:21:56Z</time>
      </trkpt>
      <trkpt lat="44.35343" lon="2.49817">
        <ele>623.9</ele>
        <time>2011-05-18T17:21:57Z</time>
      </trkpt>
      <trkpt lat="44.35342" lon="2.49811">
        <ele>624.2</ele>
        <time>2011-05-18T17:21:58Z</time>
      </trkpt>
      <trkpt lat="44.35341" lon="2.49805">
        <ele>624.4</ele>
        <time>2011-05-18T17:21:59Z</time>
      </trkpt>
      <trkpt lat="44.3534" lon="2.49799">
        <ele>624.6</ele>
        <time>2011-05-18T17:22:00Z</time>
      </trkpt>
      <trkpt lat="44.35339" lon="2.49793">
        <ele>624.8</ele>
        <time>2011-05-18T17:22:01Z</time>
      </trkpt>
      <trkpt lat="44.35337" lon="2.49787">
        <ele>625</ele>
        <time>2011-05-18T17:22:02Z</time>
      </trkpt>
      <trkpt lat="44.35336" lon="2.49781">
        <ele>625.2</ele>
        <time>2011-05-18T17:22:03Z</time>
      </trkpt>
      <trkpt lat="44.35335" lon="2.49775">
        <ele>625.4</ele>
        <time>2011-05-18T17:22:04Z</time>
      </trkpt>
      <trkpt lat="44.35334" lon="2.49769">
        <ele>625.5</ele>
        <time>2011-05-18T17:22:05Z</time>
      </trkpt>
      <trkpt lat="44.35333" lon="2.49763">
        <ele>625.7</ele>
        <time>2011-05-18T17:22:06Z</time>
      </trkpt>
      <trkpt lat="44.35331" lon="2.49757">
        <ele>625.9</ele>
        <time>2011-05-18T17:22:07Z</time>
      </trkpt>
      <trkpt lat="44.3533" lon="2.4975">
        <ele>626.1</ele>
        <time>2011-05-18T17:22:08Z</time>
      </trkpt>
      <trkpt lat="44.35329" lon="2.49744">
        <ele>626.2</ele>
        <time>2011-05-18T17:22:09Z</time>
      </trkpt>
      <trkpt lat="44.35328" lon="2.49738">
        <ele>626.3</ele>
        <time>2011-05-18T17:22:10Z</time>
      </trkpt>
      <trkpt lat="44.35327" lon="2.49732">
        <ele>626.4</ele>
        <time>2011-05-18T17:22:11Z</time>
      </trkpt>
      <trkpt lat="44.35326" lon="2.49726">
        <ele>626.5</ele>
        <time>2011-05-18T17:22:12Z</time>
      </trkpt>
      <trkpt lat="44.35324" lon="2.49721">
        <ele>626.6</ele>
        <time>2011-05-18T17:22:13Z</time>
      </trkpt>
      <trkpt lat="44.35323" lon="2.49715">
        <ele>626.7</ele>
        <time>2011-05-18T17:22:14Z</time>
      </trkpt>
      <trkpt lat="44.35322" lon="2.49709">
        <ele>626.8</ele>
        <time>2011-05-18T17:22:15Z</time>
      </trkpt>
      <trkpt lat="44.35321" lon="2.49703">
        <ele>627</ele>
        <time>2011-05-18T17:22:16Z</time>
      </trkpt>
      <trkpt lat="44.3532" lon="2.49697">
        <ele>627.1</ele>
        <time>2011-05-18T17:22:17Z</time>
      </trkpt>
      <trkpt lat="44.35319" lon="2.49691">
        <ele>627.2</ele>
        <time>2011-05-18T17:22:18Z</time>
      </trkpt>
      <trkpt lat="44.35317" lon="2.49685">
        <ele>627.3</ele>
        <time>2011-05-18T17:22:19Z</time>
      </trkpt>
      <trkpt lat="44.35316" lon="2.49679">
        <ele>627.5</ele>
        <time>2011-05-18T17:22:20Z</time>
      </trkpt>
      <trkpt lat="44.35315" lon="2.49673">
        <ele>627.6</ele>
        <time>2011-05-18T17:22:21Z</time>
      </trkpt>
      <trkpt lat="44.35313" lon="2.49667">
        <ele>627.7</ele>
        <time>2011-05-18T17:22:22Z</time>
      </trkpt>
      <trkpt lat="44.35312" lon="2.49661">
        <ele>628</ele>
        <time>2011-05-18T17:22:23Z</time>
      </trkpt>
      <trkpt lat="44.35311" lon="2.49656">
        <ele>628.3</ele>
        <time>2011-05-18T17:22:24Z</time>
      </trkpt>
      <trkpt lat="44.3531" lon="2.4965">
        <ele>628.6</ele>
        <time>2011-05-18T17:22:25Z</time>
      </trkpt>
      <trkpt lat="44.35309" lon="2.49644">
        <ele>628.9</ele>
        <time>2011-05-18T17:22:26Z</time>
      </trkpt>
      <trkpt lat="44.35308" lon="2.49639">
        <ele>629.1</ele>
        <time>2011-05-18T17:22:27Z</time>
      </trkpt>
      <trkpt lat="44.35306" lon="2.49633">
        <ele>629.3</ele>
        <time>2011-05-18T17:22:28Z</time>
      </trkpt>
      <trkpt lat="44.35305" lon="2.49628">
        <ele>629.6</ele>
        <time>2011-05-18T17:22:29Z</time>
      </trkpt>
      <trkpt lat="44.35304" lon="2.49622">
        <ele>629.8</ele>
        <time>2011-05-18T17:22:30Z</time>
      </trkpt>
      <trkpt lat="44.35303" lon="2.49617">
        <ele>630</ele>
        <time>2011-05-18T17:22:31Z</time>
      </trkpt>
      <trkpt lat="44.35302" lon="2.49611">
        <ele>630.2</ele>
        <time>2011-05-18T17:22:32Z</time>
      </trkpt>
      <trkpt lat="44.35301" lon="2.49606">
        <ele>630.4</ele>
        <time>2011-05-18T17:22:33Z</time>
      </trkpt>
      <trkpt lat="44.353" lon="2.49601">
        <ele>630.6</ele>
        <time>2011-05-18T17:22:34Z</time>
      </trkpt>
      <trkpt lat="44.35299" lon="2.49595">
        <ele>630.8</ele>
        <time>2011-05-18T17:22:35Z</time>
      </trkpt>
      <trkpt lat="44.35298" lon="2.4959">
        <ele>630.9</ele>
        <time>2011-05-18T17:22:36Z</time>
      </trkpt>
      <trkpt lat="44.35297" lon="2.49585">
        <ele>631.1</ele>
        <time>2011-05-18T17:22:37Z</time>
      </trkpt>
      <trkpt lat="44.35295" lon="2.49579">
        <ele>631.3</ele>
        <time>2011-05-18T17:22:38Z</time>
      </trkpt>
      <trkpt lat="44.35294" lon="2.49574">
        <ele>631.5</ele>
        <time>2011-05-18T17:22:39Z</time>
      </trkpt>
      <trkpt lat="44.35293" lon="2.49569">
        <ele>631.8</ele>
        <time>2011-05-18T17:22:40Z</time>
      </trkpt>
      <trkpt lat="44.35292" lon="2.49563">
        <ele>632</ele>
        <time>2011-05-18T17:22:41Z</time>
      </trkpt>
      <trkpt lat="44.35291" lon="2.49558">
        <ele>632.2</ele>
        <time>2011-05-18T17:22:42Z</time>
      </trkpt>
      <trkpt lat="44.3529" lon="2.49553">
        <ele>632.5</ele>
        <time>2011-05-18T17:22:43Z</time>
      </trkpt>
      <trkpt lat="44.35289" lon="2.49548">
        <ele>632.7</ele>
        <time>2011-05-18T17:22:44Z</time>
      </trkpt>
      <trkpt lat="44.35287" lon="2.49542">
        <ele>633</ele>
        <time>2011-05-18T17:22:45Z</time>
      </trkpt>
      <trkpt lat="44.35287" lon="2.49537">
        <ele>633.3</ele>
        <time>2011-05-18T17:22:46Z</time>
      </trkpt>
      <trkpt lat="44.35286" lon="2.49532">
        <ele>633.5</ele>
        <time>2011-05-18T17:22:47Z</time>
      </trkpt>
      <trkpt lat="44.35285" lon="2.49527">
        <ele>633.8</ele>
        <time>2011-05-18T17:22:48Z</time>
      </trkpt>
      <trkpt lat="44.35284" lon="2.49522">
        <ele>634.1</ele>
        <time>2011-05-18T17:22:49Z</time>
      </trkpt>
      <trkpt lat="44.35283" lon="2.49517">
        <ele>634.4</ele>
        <time>2011-05-18T17:22:50Z</time>
      </trkpt>
      <trkpt lat="44.35282" lon="2.49512">
        <ele>634.7</ele>
        <time>2011-05-18T17:22:51Z</time>
      </trkpt>
      <trkpt lat="44.35281" lon="2.49506">
        <ele>635</ele>
        <time>2011-05-18T17:22:52Z</time>
      </trkpt>
      <trkpt lat="44.35279" lon="2.49501">
        <ele>635.3</ele>
        <time>2011-05-18T17:22:53Z</time>
      </trkpt>
      <trkpt lat="44.35278" lon="2.49496">
        <ele>635.4</ele>
        <time>2011-05-18T17:22:54Z</time>
      </trkpt>
      <trkpt lat="44.35277" lon="2.49491">
        <ele>635.6</ele>
        <time>2011-05-18T17:22:55Z</time>
      </trkpt>
      <trkpt lat="44.35276" lon="2.49485">
        <ele>635.7</ele>
        <time>2011-05-18T17:22:56Z</time>
      </trkpt>
      <trkpt lat="44.35275" lon="2.4948">
        <ele>635.8</ele>
        <time>2011-05-18T17:22:57Z</time>
      </trkpt>
      <trkpt lat="44.35274" lon="2.49475">
        <ele>636</ele>
        <time>2011-05-18T17:22:58Z</time>
      </trkpt>
      <trkpt lat="44.35273" lon="2.4947">
        <ele>636.1</ele>
        <time>2011-05-18T17:22:59Z</time>
      </trkpt>
      <trkpt lat="44.35272" lon="2.49466">
        <ele>636.3</ele>
        <time>2011-05-18T17:23:00Z</time>
      </trkpt>
      <trkpt lat="44.35271" lon="2.49461">
        <ele>636.4</ele>
        <time>2011-05-18T17:23:01Z</time>
      </trkpt>
      <trkpt lat="44.3527" lon="2.49457">
        <ele>636.6</ele>
        <time>2011-05-18T17:23:02Z</time>
      </trkpt>
      <trkpt lat="44.35269" lon="2.49452">
        <ele>636.8</ele>
        <time>2011-05-18T17:23:03Z</time>
      </trkpt>
      <trkpt lat="44.35268" lon="2.49447">
        <ele>636.9</ele>
        <time>2011-05-18T17:23:04Z</time>
      </trkpt>
      <trkpt lat="44.35267" lon="2.49443">
        <ele>637.1</ele>
        <time>2011-05-18T17:23:05Z</time>
      </trkpt>
      <trkpt lat="44.35266" lon="2.49438">
        <ele>637.3</ele>
        <time>2011-05-18T17:23:06Z</time>
      </trkpt>
      <trkpt lat="44.35265" lon="2.49433">
        <ele>637.5</ele>
        <time>2011-05-18T17:23:07Z</time>
      </trkpt>
      <trkpt lat="44.35264" lon="2.49428">
        <ele>637.6</ele>
        <time>2011-05-18T17:23:08Z</time>
      </trkpt>
      <trkpt lat="44.35263" lon="2.49424">
        <ele>637.9</ele>
        <time>2011-05-18T17:23:09Z</time>
      </trkpt>
      <trkpt lat="44.35263" lon="2.49419">
        <ele>638</ele>
        <time>2011-05-18T17:23:10Z</time>
      </trkpt>
      <trkpt lat="44.35262" lon="2.49413">
        <ele>638.3</ele>
        <time>2011-05-18T17:23:11Z</time>
      </trkpt>
      <trkpt lat="44.35261" lon="2.49408">
        <ele>638.5</ele>
        <time>2011-05-18T17:23:12Z</time>
      </trkpt>
      <trkpt lat="44.3526" lon="2.49403">
        <ele>638.8</ele>
        <time>2011-05-18T17:23:13Z</time>
      </trkpt>
      <trkpt lat="44.35259" lon="2.49398">
        <ele>639</ele>
        <time>2011-05-18T17:23:14Z</time>
      </trkpt>
      <trkpt lat="44.35258" lon="2.49393">
        <ele>639.3</ele>
        <time>2011-05-18T17:23:15Z</time>
      </trkpt>
      <trkpt lat="44.35256" lon="2.49388">
        <ele>639.5</ele>
        <time>2011-05-18T17:23:16Z</time>
      </trkpt>
      <trkpt lat="44.35255" lon="2.49383">
        <ele>639.8</ele>
        <time>2011-05-18T17:23:17Z</time>
      </trkpt>
      <trkpt lat="44.35254" lon="2.49378">
        <ele>640.1</ele>
        <time>2011-05-18T17:23:18Z</time>
      </trkpt>
      <trkpt lat="44.35253" lon="2.49374">
        <ele>640.3</ele>
        <time>2011-05-18T17:23:19Z</time>
      </trkpt>
      <trkpt lat="44.35252" lon="2.49369">
        <ele>640.6</ele>
        <time>2011-05-18T17:23:20Z</time>
      </trkpt>
      <trkpt lat="44.35251" lon="2.49364">
        <ele>640.8</ele>
        <time>2011-05-18T17:23:21Z</time>
      </trkpt>
      <trkpt lat="44.3525" lon="2.49359">
        <ele>641</ele>
        <time>2011-05-18T17:23:22Z</time>
      </trkpt>
      <trkpt lat="44.3525" lon="2.49355">
        <ele>641.2</ele>
        <time>2011-05-18T17:23:23Z</time>
      </trkpt>
      <trkpt lat="44.35249" lon="2.4935">
        <ele>641.4</ele>
        <time>2011-05-18T17:23:24Z</time>
      </trkpt>
      <trkpt lat="44.35248" lon="2.49346">
        <ele>641.6</ele>
        <time>2011-05-18T17:23:25Z</time>
      </trkpt>
      <trkpt lat="44.35247" lon="2.49341">
        <ele>641.8</ele>
        <time>2011-05-18T17:23:26Z</time>
      </trkpt>
      <trkpt lat="44.35246" lon="2.49336">
        <ele>641.9</ele>
        <time>2011-05-18T17:23:27Z</time>
      </trkpt>
      <trkpt lat="44.35245" lon="2.49332">
        <ele>642</ele>
        <time>2011-05-18T17:23:28Z</time>
      </trkpt>
      <trkpt lat="44.35244" lon="2.49327">
        <ele>642</ele>
        <time>2011-05-18T17:23:29Z</time>
      </trkpt>
      <trkpt lat="44.35243" lon="2.49322">
        <ele>642</ele>
        <time>2011-05-18T17:23:30Z</time>
      </trkpt>
      <trkpt lat="44.35242" lon="2.49318">
        <ele>642</ele>
        <time>2011-05-18T17:23:31Z</time>
      </trkpt>
      <trkpt lat="44.35241" lon="2.49313">
        <ele>642</ele>
        <time>2011-05-18T17:23:32Z</time>
      </trkpt>
      <trkpt lat="44.35241" lon="2.49308">
        <ele>642</ele>
        <time>2011-05-18T17:23:33Z</time>
      </trkpt>
      <trkpt lat="44.3524" lon="2.49304">
        <ele>642</ele>
        <time>2011-05-18T17:23:34Z</time>
      </trkpt>
      <trkpt lat="44.35239" lon="2.49299">
        <ele>642.1</ele>
        <time>2011-05-18T17:23:35Z</time>
      </trkpt>
      <trkpt lat="44.35238" lon="2.49295">
        <ele>642.1</ele>
        <time>2011-05-18T17:23:36Z</time>
      </trkpt>
      <trkpt lat="44.35237" lon="2.4929">
        <ele>642.1</ele>
        <time>2011-05-18T17:23:37Z</time>
      </trkpt>
      <trkpt lat="44.35236" lon="2.49285">
        <ele>642.1</ele>
        <time>2011-05-18T17:23:38Z</time>
      </trkpt>
      <trkpt lat="44.35235" lon="2.49281">
        <ele>642.1</ele>
        <time>2011-05-18T17:23:39Z</time>
      </trkpt>
      <trkpt lat="44.35234" lon="2.49276">
        <ele>642.1</ele>
        <time>2011-05-18T17:23:40Z</time>
      </trkpt>
      <trkpt lat="44.35233" lon="2.49272">
        <ele>642.1</ele>
        <time>2011-05-18T17:23:41Z</time>
      </trkpt>
      <trkpt lat="44.35233" lon="2.49268">
        <ele>642.2</ele>
        <time>2011-05-18T17:23:42Z</time>
      </trkpt>
      <trkpt lat="44.35232" lon="2.49263">
        <ele>642.2</ele>
        <time>2011-05-18T17:23:43Z</time>
      </trkpt>
      <trkpt lat="44.35231" lon="2.49259">
        <ele>642.2</ele>
        <time>2011-05-18T17:23:44Z</time>
      </trkpt>
      <trkpt lat="44.3523" lon="2.49254">
        <ele>642.2</ele>
        <time>2011-05-18T17:23:45Z</time>
      </trkpt>
      <trkpt lat="44.35229" lon="2.4925">
        <ele>642.2</ele>
        <time>2011-05-18T17:23:46Z</time>
      </trkpt>
      <trkpt lat="44.35229" lon="2.49245">
        <ele>642.2</ele>
        <time>2011-05-18T17:23:47Z</time>
      </trkpt>
      <trkpt lat="44.35228" lon="2.4924">
        <ele>642.1</ele>
        <time>2011-05-18T17:23:48Z</time>
      </trkpt>
      <trkpt lat="44.35226" lon="2.49235">
        <ele>642</ele>
        <time>2011-05-18T17:23:49Z</time>
      </trkpt>
      <trkpt lat="44.35225" lon="2.4923">
        <ele>642</ele>
        <time>2011-05-18T17:23:50Z</time>
      </trkpt>
      <trkpt lat="44.35225" lon="2.49226">
        <ele>641.9</ele>
        <time>2011-05-18T17:23:51Z</time>
      </trkpt>
      <trkpt lat="44.35224" lon="2.49221">
        <ele>641.8</ele>
        <time>2011-05-18T17:23:52Z</time>
      </trkpt>
      <trkpt lat="44.35223" lon="2.49217">
        <ele>641.8</ele>
        <time>2011-05-18T17:23:53Z</time>
      </trkpt>
      <trkpt lat="44.35222" lon="2.49212">
        <ele>641.7</ele>
        <time>2011-05-18T17:23:54Z</time>
      </trkpt>
      <trkpt lat="44.35221" lon="2.49207">
        <ele>641.7</ele>
        <time>2011-05-18T17:23:55Z</time>
      </trkpt>
      <trkpt lat="44.3522" lon="2.49203">
        <ele>641.6</ele>
        <time>2011-05-18T17:23:56Z</time>
      </trkpt>
      <trkpt lat="44.35219" lon="2.49198">
        <ele>641.6</ele>
        <time>2011-05-18T17:23:57Z</time>
      </trkpt>
      <trkpt lat="44.35218" lon="2.49193">
        <ele>641.5</ele>
        <time>2011-05-18T17:23:58Z</time>
      </trkpt>
      <trkpt lat="44.35217" lon="2.49188">
        <ele>641.5</ele>
        <time>2011-05-18T17:23:59Z</time>
      </trkpt>
      <trkpt lat="44.35216" lon="2.49183">
        <ele>641.4</ele>
        <time>2011-05-18T17:24:00Z</time>
      </trkpt>
      <trkpt lat="44.35215" lon="2.49178">
        <ele>641.4</ele>
        <time>2011-05-18T17:24:01Z</time>
      </trkpt>
      <trkpt lat="44.35215" lon="2.49173">
        <ele>641.4</ele>
        <time>2011-05-18T17:24:02Z</time>
      </trkpt>
      <trkpt lat="44.35214" lon="2.49168">
        <ele>641.3</ele>
        <time>2011-05-18T17:24:03Z</time>
      </trkpt>
      <trkpt lat="44.35213" lon="2.49164">
        <ele>641.4</ele>
        <time>2011-05-18T17:24:04Z</time>
      </trkpt>
      <trkpt lat="44.35212" lon="2.49159">
        <ele>641.4</ele>
        <time>2011-05-18T17:24:05Z</time>
      </trkpt>
      <trkpt lat="44.35212" lon="2.49154">
        <ele>641.5</ele>
        <time>2011-05-18T17:24:06Z</time>
      </trkpt>
      <trkpt lat="44.35211" lon="2.49149">
        <ele>641.5</ele>
        <time>2011-05-18T17:24:07Z</time>
      </trkpt>
      <trkpt lat="44.3521" lon="2.49144">
        <ele>641.6</ele>
        <time>2011-05-18T17:24:08Z</time>
      </trkpt>
      <trkpt lat="44.3521" lon="2.49139">
        <ele>641.6</ele>
        <time>2011-05-18T17:24:09Z</time>
      </trkpt>
      <trkpt lat="44.35209" lon="2.49134">
        <ele>641.7</ele>
        <time>2011-05-18T17:24:10Z</time>
      </trkpt>
      <trkpt lat="44.35209" lon="2.49129">
        <ele>641.7</ele>
        <time>2011-05-18T17:24:11Z</time>
      </trkpt>
      <trkpt lat="44.35209" lon="2.49124">
        <ele>641.7</ele>
        <time>2011-05-18T17:24:12Z</time>
      </trkpt>
      <trkpt lat="44.35208" lon="2.49119">
        <ele>641.8</ele>
        <time>2011-05-18T17:24:13Z</time>
      </trkpt>
      <trkpt lat="44.35208" lon="2.49114">
        <ele>641.8</ele>
        <time>2011-05-18T17:24:14Z</time>
      </trkpt>
      <trkpt lat="44.35208" lon="2.49109">
        <ele>641.9</ele>
        <time>2011-05-18T17:24:15Z</time>
      </trkpt>
      <trkpt lat="44.35208" lon="2.49103">
        <ele>641.9</ele>
        <time>2011-05-18T17:24:16Z</time>
      </trkpt>
      <trkpt lat="44.35208" lon="2.49098">
        <ele>641.9</ele>
        <time>2011-05-18T17:24:17Z</time>
      </trkpt>
      <trkpt lat="44.35208" lon="2.49093">
        <ele>642</ele>
        <time>2011-05-18T17:24:18Z</time>
      </trkpt>
      <trkpt lat="44.35208" lon="2.49088">
        <ele>642</ele>
        <time>2011-05-18T17:24:19Z</time>
      </trkpt>
      <trkpt lat="44.35208" lon="2.49082">
        <ele>642</ele>
        <time>2011-05-18T17:24:20Z</time>
      </trkpt>
      <trkpt lat="44.35208" lon="2.49077">
        <ele>642.2</ele>
        <time>2011-05-18T17:24:21Z</time>
      </trkpt>
      <trkpt lat="44.35208" lon="2.49071">
        <ele>642.3</ele>
        <time>2011-05-18T17:24:22Z</time>
      </trkpt>
      <trkpt lat="44.35208" lon="2.49066">
        <ele>642.5</ele>
        <time>2011-05-18T17:24:23Z</time>
      </trkpt>
      <trkpt lat="44.35208" lon="2.4906">
        <ele>642.6</ele>
        <time>2011-05-18T17:24:24Z</time>
      </trkpt>
      <trkpt lat="44.35208" lon="2.49055">
        <ele>642.7</ele>
        <time>2011-05-18T17:24:25Z</time>
      </trkpt>
      <trkpt lat="44.35208" lon="2.49049">
        <ele>642.8</ele>
        <time>2011-05-18T17:24:26Z</time>
      </trkpt>
      <trkpt lat="44.35208" lon="2.49044">
        <ele>643</ele>
        <time>2011-05-18T17:24:27Z</time>
      </trkpt>
      <trkpt lat="44.35208" lon="2.49038">
        <ele>643.1</ele>
        <time>2011-05-18T17:24:28Z</time>
      </trkpt>
      <trkpt lat="44.35209" lon="2.49033">
        <ele>643.2</ele>
        <time>2011-05-18T17:24:29Z</time>
      </trkpt>
      <trkpt lat="44.35209" lon="2.49027">
        <ele>643.3</ele>
        <time>2011-05-18T17:24:30Z</time>
      </trkpt>
      <trkpt lat="44.35209" lon="2.49022">
        <ele>643.5</ele>
        <time>2011-05-18T17:24:31Z</time>
      </trkpt>
      <trkpt lat="44.35209" lon="2.49016">
        <ele>643.6</ele>
        <time>2011-05-18T17:24:32Z</time>
      </trkpt>
      <trkpt lat="44.35209" lon="2.49011">
        <ele>643.7</ele>
        <time>2011-05-18T17:24:33Z</time>
      </trkpt>
      <trkpt lat="44.35209" lon="2.49005">
        <ele>643.9</ele>
        <time>2011-05-18T17:24:34Z</time>
      </trkpt>
      <trkpt lat="44.3521" lon="2.49">
        <ele>644</ele>
        <time>2011-05-18T17:24:35Z</time>
      </trkpt>
      <trkpt lat="44.3521" lon="2.48994">
        <ele>644</ele>
        <time>2011-05-18T17:24:36Z</time>
      </trkpt>
      <trkpt lat="44.3521" lon="2.48989">
        <ele>644</ele>
        <time>2011-05-18T17:24:37Z</time>
      </trkpt>
      <trkpt lat="44.3521" lon="2.48983">
        <ele>644</ele>
        <time>2011-05-18T17:24:38Z</time>
      </trkpt>
      <trkpt lat="44.35211" lon="2.48977">
        <ele>643.9</ele>
        <time>2011-05-18T17:24:39Z</time>
      </trkpt>
      <trkpt lat="44.35211" lon="2.48972">
        <ele>643.9</ele>
        <time>2011-05-18T17:24:40Z</time>
      </trkpt>
      <trkpt lat="44.35211" lon="2.48966">
        <ele>643.9</ele>
        <time>2011-05-18T17:24:41Z</time>
      </trkpt>
      <trkpt lat="44.35211" lon="2.4896">
        <ele>643.9</ele>
        <time>2011-05-18T17:24:42Z</time>
      </trkpt>
      <trkpt lat="44.35211" lon="2.48954">
        <ele>643.9</ele>
        <time>2011-05-18T17:24:43Z</time>
      </trkpt>
      <trkpt lat="44.35211" lon="2.48948">
        <ele>643.9</ele>
        <time>2011-05-18T17:24:44Z</time>
      </trkpt>
      <trkpt lat="44.35211" lon="2.48942">
        <ele>643.9</ele>
        <time>2011-05-18T17:24:45Z</time>
      </trkpt>
      <trkpt lat="44.35211" lon="2.48936">
        <ele>643.9</ele>
        <time>2011-05-18T17:24:46Z</time>
      </trkpt>
      <trkpt lat="44.35211" lon="2.4893">
        <ele>643.9</ele>
        <time>2011-05-18T17:24:47Z</time>
      </trkpt>
      <trkpt lat="44.35211" lon="2.48924">
        <ele>643.9</ele>
        <time>2011-05-18T17:24:48Z</time>
      </trkpt>
      <trkpt lat="44.35212" lon="2.48918">
        <ele>643.9</ele>
        <time>2011-05-18T17:24:49Z</time>
      </trkpt>
      <trkpt lat="44.35212" lon="2.48912">
        <ele>643.9</ele>
        <time>2011-05-18T17:24:50Z</time>
      </trkpt>
      <trkpt lat="44.35211" lon="2.48906">
        <ele>643.9</ele>
        <time>2011-05-18T17:24:51Z</time>
      </trkpt>
      <trkpt lat="44.35211" lon="2.489">
        <ele>643.8</ele>
        <time>2011-05-18T17:24:52Z</time>
      </trkpt>
      <trkpt lat="44.35211" lon="2.48894">
        <ele>643.8</ele>
        <time>2011-05-18T17:24:53Z</time>
      </trkpt>
      <trkpt lat="44.35211" lon="2.48888">
        <ele>643.8</ele>
        <time>2011-05-18T17:24:54Z</time>
      </trkpt>
      <trkpt lat="44.35211" lon="2.48882">
        <ele>643.7</ele>
        <time>2011-05-18T17:24:55Z</time>
      </trkpt>
      <trkpt lat="44.35211" lon="2.48876">
        <ele>643.7</ele>
        <time>2011-05-18T17:24:56Z</time>
      </trkpt>
      <trkpt lat="44.35211" lon="2.48869">
        <ele>643.7</ele>
        <time>2011-05-18T17:24:57Z</time>
      </trkpt>
      <trkpt lat="44.35211" lon="2.48863">
        <ele>643.6</ele>
        <time>2011-05-18T17:24:58Z</time>
      </trkpt>
      <trkpt lat="44.3521" lon="2.48857">
        <ele>643.6</ele>
        <time>2011-05-18T17:24:59Z</time>
      </trkpt>
      <trkpt lat="44.3521" lon="2.4885">
        <ele>643.6</ele>
        <time>2011-05-18T17:25:00Z</time>
      </trkpt>
      <trkpt lat="44.35209" lon="2.48843">
        <ele>643.5</ele>
        <time>2011-05-18T17:25:01Z</time>
      </trkpt>
      <trkpt lat="44.35209" lon="2.48837">
        <ele>643.5</ele>
        <time>2011-05-18T17:25:02Z</time>
      </trkpt>
      <trkpt lat="44.35208" lon="2.4883">
        <ele>643.6</ele>
        <time>2011-05-18T17:25:03Z</time>
      </trkpt>
      <trkpt lat="44.35208" lon="2.48825">
        <ele>643.7</ele>
        <time>2011-05-18T17:25:04Z</time>
      </trkpt>
      <trkpt lat="44.35207" lon="2.48819">
        <ele>643.9</ele>
        <time>2011-05-18T17:25:05Z</time>
      </trkpt>
      <trkpt lat="44.35206" lon="2.48814">
        <ele>644</ele>
        <time>2011-05-18T17:25:06Z</time>
      </trkpt>
      <trkpt lat="44.35205" lon="2.48808">
        <ele>644.2</ele>
        <time>2011-05-18T17:25:07Z</time>
      </trkpt>
      <trkpt lat="44.35204" lon="2.48803">
        <ele>644.3</ele>
        <time>2011-05-18T17:25:08Z</time>
      </trkpt>
      <trkpt lat="44.35204" lon="2.48797">
        <ele>644.4</ele>
        <time>2011-05-18T17:25:09Z</time>
      </trkpt>
      <trkpt lat="44.35203" lon="2.48792">
        <ele>644.6</ele>
        <time>2011-05-18T17:25:10Z</time>
      </trkpt>
      <trkpt lat="44.35201" lon="2.48787">
        <ele>644.7</ele>
        <time>2011-05-18T17:25:11Z</time>
      </trkpt>
      <trkpt lat="44.35201" lon="2.48782">
        <ele>644.8</ele>
        <time>2011-05-18T17:25:12Z</time>
      </trkpt>
      <trkpt lat="44.35199" lon="2.48777">
        <ele>644.9</ele>
        <time>2011-05-18T17:25:13Z</time>
      </trkpt>
      <trkpt lat="44.35198" lon="2.48773">
        <ele>645.1</ele>
        <time>2011-05-18T17:25:14Z</time>
      </trkpt>
      <trkpt lat="44.35197" lon="2.48768">
        <ele>645.2</ele>
        <time>2011-05-18T17:25:15Z</time>
      </trkpt>
      <trkpt lat="44.35196" lon="2.48763">
        <ele>645.3</ele>
        <time>2011-05-18T17:25:16Z</time>
      </trkpt>
      <trkpt lat="44.35195" lon="2.48758">
        <ele>645.5</ele>
        <time>2011-05-18T17:25:17Z</time>
      </trkpt>
      <trkpt lat="44.35193" lon="2.48753">
        <ele>645.6</ele>
        <time>2011-05-18T17:25:18Z</time>
      </trkpt>
      <trkpt lat="44.35192" lon="2.48748">
        <ele>645.8</ele>
        <time>2011-05-18T17:25:19Z</time>
      </trkpt>
      <trkpt lat="44.35191" lon="2.48743">
        <ele>646</ele>
        <time>2011-05-18T17:25:20Z</time>
      </trkpt>
      <trkpt lat="44.3519" lon="2.48738">
        <ele>646.2</ele>
        <time>2011-05-18T17:25:21Z</time>
      </trkpt>
      <trkpt lat="44.35188" lon="2.48733">
        <ele>646.3</ele>
        <time>2011-05-18T17:25:22Z</time>
      </trkpt>
      <trkpt lat="44.35187" lon="2.48727">
        <ele>646.5</ele>
        <time>2011-05-18T17:25:23Z</time>
      </trkpt>
      <trkpt lat="44.35186" lon="2.48722">
        <ele>646.7</ele>
        <time>2011-05-18T17:25:24Z</time>
      </trkpt>
      <trkpt lat="44.35184" lon="2.48716">
        <ele>646.9</ele>
        <time>2011-05-18T17:25:25Z</time>
      </trkpt>
      <trkpt lat="44.35183" lon="2.48711">
        <ele>647.1</ele>
        <time>2011-05-18T17:25:26Z</time>
      </trkpt>
      <trkpt lat="44.35182" lon="2.48705">
        <ele>647.4</ele>
        <time>2011-05-18T17:25:27Z</time>
      </trkpt>
      <trkpt lat="44.3518" lon="2.487">
        <ele>647.6</ele>
        <time>2011-05-18T17:25:28Z</time>
      </trkpt>
      <trkpt lat="44.35179" lon="2.48694">
        <ele>647.8</ele>
        <time>2011-05-18T17:25:29Z</time>
      </trkpt>
      <trkpt lat="44.35177" lon="2.48689">
        <ele>648</ele>
        <time>2011-05-18T17:25:30Z</time>
      </trkpt>
      <trkpt lat="44.35176" lon="2.48683">
        <ele>648.2</ele>
        <time>2011-05-18T17:25:31Z</time>
      </trkpt>
      <trkpt lat="44.35175" lon="2.48678">
        <ele>648.4</ele>
        <time>2011-05-18T17:25:32Z</time>
      </trkpt>
      <trkpt lat="44.35173" lon="2.48672">
        <ele>648.7</ele>
        <time>2011-05-18T17:25:33Z</time>
      </trkpt>
      <trkpt lat="44.35172" lon="2.48667">
        <ele>648.9</ele>
        <time>2011-05-18T17:25:34Z</time>
      </trkpt>
      <trkpt lat="44.3517" lon="2.48661">
        <ele>649.1</ele>
        <time>2011-05-18T17:25:35Z</time>
      </trkpt>
      <trkpt lat="44.35169" lon="2.48656">
        <ele>649.4</ele>
        <time>2011-05-18T17:25:36Z</time>
      </trkpt>
      <trkpt lat="44.35167" lon="2.4865">
        <ele>649.6</ele>
        <time>2011-05-18T17:25:37Z</time>
      </trkpt>
      <trkpt lat="44.35166" lon="2.48645">
        <ele>649.8</ele>
        <time>2011-05-18T17:25:38Z</time>
      </trkpt>
      <trkpt lat="44.35165" lon="2.48639">
        <ele>650</ele>
        <time>2011-05-18T17:25:39Z</time>
      </trkpt>
      <trkpt lat="44.35164" lon="2.48634">
        <ele>650.2</ele>
        <time>2011-05-18T17:25:40Z</time>
      </trkpt>
      <trkpt lat="44.35163" lon="2.48628">
        <ele>650.3</ele>
        <time>2011-05-18T17:25:41Z</time>
      </trkpt>
      <trkpt lat="44.35161" lon="2.48623">
        <ele>650.5</ele>
        <time>2011-05-18T17:25:42Z</time>
      </trkpt>
      <trkpt lat="44.3516" lon="2.48617">
        <ele>650.7</ele>
        <time>2011-05-18T17:25:43Z</time>
      </trkpt>
      <trkpt lat="44.35159" lon="2.48612">
        <ele>650.9</ele>
        <time>2011-05-18T17:25:44Z</time>
      </trkpt>
      <trkpt lat="44.35158" lon="2.48606">
        <ele>651</ele>
        <time>2011-05-18T17:25:45Z</time>
      </trkpt>
      <trkpt lat="44.35157" lon="2.48601">
        <ele>651.2</ele>
        <time>2011-05-18T17:25:46Z</time>
      </trkpt>
      <trkpt lat="44.35156" lon="2.48595">
        <ele>651.3</ele>
        <time>2011-05-18T17:25:47Z</time>
      </trkpt>
      <trkpt lat="44.35155" lon="2.4859">
        <ele>651.5</ele>
        <time>2011-05-18T17:25:48Z</time>
      </trkpt>
      <trkpt lat="44.35154" lon="2.48584">
        <ele>651.7</ele>
        <time>2011-05-18T17:25:49Z</time>
      </trkpt>
      <trkpt lat="44.35153" lon="2.48578">
        <ele>651.8</ele>
        <time>2011-05-18T17:25:50Z</time>
      </trkpt>
      <trkpt lat="44.35152" lon="2.48573">
        <ele>652</ele>
        <time>2011-05-18T17:25:51Z</time>
      </trkpt>
      <trkpt lat="44.35151" lon="2.48567">
        <ele>652.2</ele>
        <time>2011-05-18T17:25:52Z</time>
      </trkpt>
      <trkpt lat="44.3515" lon="2.48562">
        <ele>652.3</ele>
        <time>2011-05-18T17:25:53Z</time>
      </trkpt>
      <trkpt lat="44.3515" lon="2.48557">
        <ele>652.4</ele>
        <time>2011-05-18T17:25:54Z</time>
      </trkpt>
      <trkpt lat="44.35149" lon="2.48551">
        <ele>652.6</ele>
        <time>2011-05-18T17:25:55Z</time>
      </trkpt>
      <trkpt lat="44.35148" lon="2.48546">
        <ele>652.8</ele>
        <time>2011-05-18T17:25:56Z</time>
      </trkpt>
      <trkpt lat="44.35147" lon="2.48541">
        <ele>652.9</ele>
        <time>2011-05-18T17:25:57Z</time>
      </trkpt>
      <trkpt lat="44.35146" lon="2.48535">
        <ele>653.1</ele>
        <time>2011-05-18T17:25:58Z</time>
      </trkpt>
      <trkpt lat="44.35145" lon="2.4853">
        <ele>653.3</ele>
        <time>2011-05-18T17:25:59Z</time>
      </trkpt>
      <trkpt lat="44.35145" lon="2.48525">
        <ele>653.4</ele>
        <time>2011-05-18T17:26:00Z</time>
      </trkpt>
      <trkpt lat="44.35144" lon="2.4852">
        <ele>653.6</ele>
        <time>2011-05-18T17:26:01Z</time>
      </trkpt>
      <trkpt lat="44.35143" lon="2.48515">
        <ele>653.8</ele>
        <time>2011-05-18T17:26:02Z</time>
      </trkpt>
      <trkpt lat="44.35142" lon="2.4851">
        <ele>654</ele>
        <time>2011-05-18T17:26:03Z</time>
      </trkpt>
      <trkpt lat="44.35142" lon="2.48505">
        <ele>654.2</ele>
        <time>2011-05-18T17:26:04Z</time>
      </trkpt>
      <trkpt lat="44.35141" lon="2.485">
        <ele>654.3</ele>
        <time>2011-05-18T17:26:05Z</time>
      </trkpt>
      <trkpt lat="44.3514" lon="2.48495">
        <ele>654.4</ele>
        <time>2011-05-18T17:26:06Z</time>
      </trkpt>
      <trkpt lat="44.35139" lon="2.4849">
        <ele>654.4</ele>
        <time>2011-05-18T17:26:07Z</time>
      </trkpt>
      <trkpt lat="44.35138" lon="2.48485">
        <ele>654.5</ele>
        <time>2011-05-18T17:26:08Z</time>
      </trkpt>
      <trkpt lat="44.35138" lon="2.4848">
        <ele>654.5</ele>
        <time>2011-05-18T17:26:09Z</time>
      </trkpt>
      <trkpt lat="44.35137" lon="2.48475">
        <ele>654.6</ele>
        <time>2011-05-18T17:26:10Z</time>
      </trkpt>
      <trkpt lat="44.35136" lon="2.4847">
        <ele>654.6</ele>
        <time>2011-05-18T17:26:11Z</time>
      </trkpt>
      <trkpt lat="44.35136" lon="2.48465">
        <ele>654.7</ele>
        <time>2011-05-18T17:26:12Z</time>
      </trkpt>
      <trkpt lat="44.35135" lon="2.4846">
        <ele>654.8</ele>
        <time>2011-05-18T17:26:13Z</time>
      </trkpt>
      <trkpt lat="44.35134" lon="2.48456">
        <ele>654.8</ele>
        <time>2011-05-18T17:26:14Z</time>
      </trkpt>
      <trkpt lat="44.35133" lon="2.48451">
        <ele>654.9</ele>
        <time>2011-05-18T17:26:15Z</time>
      </trkpt>
      <trkpt lat="44.35133" lon="2.48446">
        <ele>654.9</ele>
        <time>2011-05-18T17:26:16Z</time>
      </trkpt>
      <trkpt lat="44.35132" lon="2.4844">
        <ele>655</ele>
        <time>2011-05-18T17:26:17Z</time>
      </trkpt>
      <trkpt lat="44.35131" lon="2.48435">
        <ele>655.1</ele>
        <time>2011-05-18T17:26:18Z</time>
      </trkpt>
      <trkpt lat="44.3513" lon="2.4843">
        <ele>655.2</ele>
        <time>2011-05-18T17:26:19Z</time>
      </trkpt>
      <trkpt lat="44.3513" lon="2.48425">
        <ele>655.2</ele>
        <time>2011-05-18T17:26:20Z</time>
      </trkpt>
      <trkpt lat="44.35129" lon="2.48419">
        <ele>655.3</ele>
        <time>2011-05-18T17:26:21Z</time>
      </trkpt>
      <trkpt lat="44.35128" lon="2.48414">
        <ele>655.4</ele>
        <time>2011-05-18T17:26:22Z</time>
      </trkpt>
      <trkpt lat="44.35127" lon="2.48409">
        <ele>655.3</ele>
        <time>2011-05-18T17:26:23Z</time>
      </trkpt>
      <trkpt lat="44.35126" lon="2.48404">
        <ele>655.3</ele>
        <time>2011-05-18T17:26:24Z</time>
      </trkpt>
      <trkpt lat="44.35126" lon="2.484">
        <ele>655.3</ele>
        <time>2011-05-18T17:26:25Z</time>
      </trkpt>
      <trkpt lat="44.35125" lon="2.48395">
        <ele>655.2</ele>
        <time>2011-05-18T17:26:26Z</time>
      </trkpt>
      <trkpt lat="44.35123" lon="2.4839">
        <ele>655.2</ele>
        <time>2011-05-18T17:26:27Z</time>
      </trkpt>
      <trkpt lat="44.35122" lon="2.48385">
        <ele>655.2</ele>
        <time>2011-05-18T17:26:28Z</time>
      </trkpt>
      <trkpt lat="44.35121" lon="2.4838">
        <ele>655.2</ele>
        <time>2011-05-18T17:26:29Z</time>
      </trkpt>
      <trkpt lat="44.3512" lon="2.48374">
        <ele>655.1</ele>
        <time>2011-05-18T17:26:30Z</time>
      </trkpt>
      <trkpt lat="44.35119" lon="2.48369">
        <ele>655.1</ele>
        <time>2011-05-18T17:26:31Z</time>
      </trkpt>
      <trkpt lat="44.35117" lon="2.48363">
        <ele>655</ele>
        <time>2011-05-18T17:26:32Z</time>
      </trkpt>
      <trkpt lat="44.35116" lon="2.48358">
        <ele>655</ele>
        <time>2011-05-18T17:26:33Z</time>
      </trkpt>
      <trkpt lat="44.35115" lon="2.48353">
        <ele>654.9</ele>
        <time>2011-05-18T17:26:34Z</time>
      </trkpt>
      <trkpt lat="44.35114" lon="2.48348">
        <ele>654.9</ele>
        <time>2011-05-18T17:26:35Z</time>
      </trkpt>
      <trkpt lat="44.35113" lon="2.48342">
        <ele>654.8</ele>
        <time>2011-05-18T17:26:36Z</time>
      </trkpt>
      <trkpt lat="44.35111" lon="2.48337">
        <ele>654.7</ele>
        <time>2011-05-18T17:26:37Z</time>
      </trkpt>
      <trkpt lat="44.3511" lon="2.48332">
        <ele>654.6</ele>
        <time>2011-05-18T17:26:38Z</time>
      </trkpt>
      <trkpt lat="44.35109" lon="2.48326">
        <ele>654.4</ele>
        <time>2011-05-18T17:26:39Z</time>
      </trkpt>
      <trkpt lat="44.35107" lon="2.4832">
        <ele>654.2</ele>
        <time>2011-05-18T17:26:40Z</time>
      </trkpt>
      <trkpt lat="44.35106" lon="2.48313">
        <ele>654</ele>
        <time>2011-05-18T17:26:41Z</time>
      </trkpt>
      <trkpt lat="44.35104" lon="2.48307">
        <ele>653.9</ele>
        <time>2011-05-18T17:26:42Z</time>
      </trkpt>
      <trkpt lat="44.35103" lon="2.48301">
        <ele>653.7</ele>
        <time>2011-05-18T17:26:43Z</time>
      </trkpt>
      <trkpt lat="44.35101" lon="2.48295">
        <ele>653.5</ele>
        <time>2011-05-18T17:26:44Z</time>
      </trkpt>
      <trkpt lat="44.351" lon="2.48288">
        <ele>653.3</ele>
        <time>2011-05-18T17:26:45Z</time>
      </trkpt>
      <trkpt lat="44.35098" lon="2.4828">
        <ele>653</ele>
        <time>2011-05-18T17:26:46Z</time>
      </trkpt>
      <trkpt lat="44.35096" lon="2.48273">
        <ele>652.8</ele>
        <time>2011-05-18T17:26:47Z</time>
      </trkpt>
      <trkpt lat="44.35094" lon="2.48265">
        <ele>652.5</ele>
        <time>2011-05-18T17:26:48Z</time>
      </trkpt>
      <trkpt lat="44.35093" lon="2.48257">
        <ele>652.2</ele>
        <time>2011-05-18T17:26:49Z</time>
      </trkpt>
      <trkpt lat="44.3509" lon="2.48249">
        <ele>651.8</ele>
        <time>2011-05-18T17:26:50Z</time>
      </trkpt>
      <trkpt lat="44.35089" lon="2.4824">
        <ele>651.4</ele>
        <time>2011-05-18T17:26:51Z</time>
      </trkpt>
      <trkpt lat="44.35087" lon="2.48232">
        <ele>650.9</ele>
        <time>2011-05-18T17:26:52Z</time>
      </trkpt>
      <trkpt lat="44.35085" lon="2.48223">
        <ele>650.4</ele>
        <time>2011-05-18T17:26:53Z</time>
      </trkpt>
      <trkpt lat="44.35083" lon="2.48215">
        <ele>649.8</ele>
        <time>2011-05-18T17:26:54Z</time>
      </trkpt>
      <trkpt lat="44.3508" lon="2.48206">
        <ele>649.4</ele>
        <time>2011-05-18T17:26:55Z</time>
      </trkpt>
      <trkpt lat="44.35078" lon="2.48198">
        <ele>648.9</ele>
        <time>2011-05-18T17:26:56Z</time>
      </trkpt>
      <trkpt lat="44.35076" lon="2.4819">
        <ele>648.5</ele>
        <time>2011-05-18T17:26:57Z</time>
      </trkpt>
      <trkpt lat="44.35073" lon="2.48181">
        <ele>648.2</ele>
        <time>2011-05-18T17:26:58Z</time>
      </trkpt>
      <trkpt lat="44.3507" lon="2.48173">
        <ele>647.8</ele>
        <time>2011-05-18T17:26:59Z</time>
      </trkpt>
      <trkpt lat="44.35067" lon="2.48165">
        <ele>647.5</ele>
        <time>2011-05-18T17:27:00Z</time>
      </trkpt>
      <trkpt lat="44.35063" lon="2.48157">
        <ele>647.2</ele>
        <time>2011-05-18T17:27:01Z</time>
      </trkpt>
      <trkpt lat="44.35059" lon="2.4815">
        <ele>647.1</ele>
        <time>2011-05-18T17:27:02Z</time>
      </trkpt>
      <trkpt lat="44.35054" lon="2.48143">
        <ele>646.9</ele>
        <time>2011-05-18T17:27:03Z</time>
      </trkpt>
      <trkpt lat="44.3505" lon="2.48136">
        <ele>646.7</ele>
        <time>2011-05-18T17:27:04Z</time>
      </trkpt>
      <trkpt lat="44.35045" lon="2.48129">
        <ele>646.5</ele>
        <time>2011-05-18T17:27:05Z</time>
      </trkpt>
      <trkpt lat="44.35041" lon="2.48122">
        <ele>646.3</ele>
        <time>2011-05-18T17:27:06Z</time>
      </trkpt>
      <trkpt lat="44.35036" lon="2.48115">
        <ele>646.2</ele>
        <time>2011-05-18T17:27:07Z</time>
      </trkpt>
      <trkpt lat="44.35032" lon="2.48107">
        <ele>646</ele>
        <time>2011-05-18T17:27:08Z</time>
      </trkpt>
      <trkpt lat="44.35028" lon="2.481">
        <ele>645.8</ele>
        <time>2011-05-18T17:27:09Z</time>
      </trkpt>
      <trkpt lat="44.35023" lon="2.48093">
        <ele>645.6</ele>
        <time>2011-05-18T17:27:10Z</time>
      </trkpt>
      <trkpt lat="44.35019" lon="2.48086">
        <ele>645.4</ele>
        <time>2011-05-18T17:27:11Z</time>
      </trkpt>
      <trkpt lat="44.35014" lon="2.48079">
        <ele>645.1</ele>
        <time>2011-05-18T17:27:12Z</time>
      </trkpt>
      <trkpt lat="44.3501" lon="2.48072">
        <ele>644.8</ele>
        <time>2011-05-18T17:27:13Z</time>
      </trkpt>
      <trkpt lat="44.35006" lon="2.48065">
        <ele>644.4</ele>
        <time>2011-05-18T17:27:14Z</time>
      </trkpt>
      <trkpt lat="44.35002" lon="2.48058">
        <ele>644.1</ele>
        <time>2011-05-18T17:27:15Z</time>
      </trkpt>
      <trkpt lat="44.34997" lon="2.4805">
        <ele>643.7</ele>
        <time>2011-05-18T17:27:16Z</time>
      </trkpt>
      <trkpt lat="44.34993" lon="2.48043">
        <ele>643.4</ele>
        <time>2011-05-18T17:27:17Z</time>
      </trkpt>
      <trkpt lat="44.3499" lon="2.48036">
        <ele>643</ele>
        <time>2011-05-18T17:27:18Z</time>
      </trkpt>
      <trkpt lat="44.34986" lon="2.48029">
        <ele>642.7</ele>
        <time>2011-05-18T17:27:19Z</time>
      </trkpt>
      <trkpt lat="44.34982" lon="2.48022">
        <ele>642.4</ele>
        <time>2011-05-18T17:27:20Z</time>
      </trkpt>
      <trkpt lat="44.34978" lon="2.48014">
        <ele>642.1</ele>
        <time>2011-05-18T17:27:42Z</time>
      </trkpt>
      <trkpt lat="44.34976" lon="2.48006">
        <ele>641.8</ele>
        <time>2011-05-18T17:28:02Z</time>
      </trkpt>
      <trkpt lat="44.34973" lon="2.47999">
        <ele>641.6</ele>
        <time>2011-05-18T17:28:22Z</time>
      </trkpt>
      <trkpt lat="44.3497" lon="2.47992">
        <ele>641.5</ele>
        <time>2011-05-18T17:28:42Z</time>
      </trkpt>
      <trkpt lat="44.34969" lon="2.47982">
        <ele>641.2</ele>
        <time>2011-05-18T17:29:06Z</time>
      </trkpt>
      <trkpt lat="44.34968" lon="2.47982">
        <ele>641.3</ele>
        <time>2011-05-18T17:29:11Z</time>
      </trkpt>
      <trkpt lat="44.34968" lon="2.47978">
        <ele>641.2</ele>
        <time>2011-05-18T17:29:12Z</time>
      </trkpt>
      <trkpt lat="44.34968" lon="2.47974">
        <ele>641</ele>
        <time>2011-05-18T17:29:13Z</time>
      </trkpt>
      <trkpt lat="44.34968" lon="2.47971">
        <ele>640.9</ele>
        <time>2011-05-18T17:29:14Z</time>
      </trkpt>
      <trkpt lat="44.34968" lon="2.47967">
        <ele>640.8</ele>
        <time>2011-05-18T17:29:15Z</time>
      </trkpt>
      <trkpt lat="44.34968" lon="2.47963">
        <ele>640.7</ele>
        <time>2011-05-18T17:29:16Z</time>
      </trkpt>
      <trkpt lat="44.34967" lon="2.47959">
        <ele>640.6</ele>
        <time>2011-05-18T17:29:17Z</time>
      </trkpt>
      <trkpt lat="44.34967" lon="2.47955">
        <ele>640.5</ele>
        <time>2011-05-18T17:29:18Z</time>
      </trkpt>
      <trkpt lat="44.34966" lon="2.4795">
        <ele>640.3</ele>
        <time>2011-05-18T17:29:19Z</time>
      </trkpt>
      <trkpt lat="44.34966" lon="2.47946">
        <ele>640.2</ele>
        <time>2011-05-18T17:29:20Z</time>
      </trkpt>
      <trkpt lat="44.34965" lon="2.47941">
        <ele>640.2</ele>
        <time>2011-05-18T17:29:21Z</time>
      </trkpt>
      <trkpt lat="44.34964" lon="2.47937">
        <ele>640.1</ele>
        <time>2011-05-18T17:29:22Z</time>
      </trkpt>
      <trkpt lat="44.34963" lon="2.47933">
        <ele>640.1</ele>
        <time>2011-05-18T17:29:23Z</time>
      </trkpt>
      <trkpt lat="44.34962" lon="2.47929">
        <ele>640</ele>
        <time>2011-05-18T17:29:24Z</time>
      </trkpt>
      <trkpt lat="44.34961" lon="2.47924">
        <ele>640</ele>
        <time>2011-05-18T17:29:25Z</time>
      </trkpt>
      <trkpt lat="44.3496" lon="2.4792">
        <ele>639.9</ele>
        <time>2011-05-18T17:29:26Z</time>
      </trkpt>
      <trkpt lat="44.3496" lon="2.47915">
        <ele>639.9</ele>
        <time>2011-05-18T17:29:27Z</time>
      </trkpt>
      <trkpt lat="44.34959" lon="2.4791">
        <ele>640</ele>
        <time>2011-05-18T17:29:28Z</time>
      </trkpt>
      <trkpt lat="44.34958" lon="2.47905">
        <ele>640.2</ele>
        <time>2011-05-18T17:29:29Z</time>
      </trkpt>
      <trkpt lat="44.34957" lon="2.479">
        <ele>640.3</ele>
        <time>2011-05-18T17:29:30Z</time>
      </trkpt>
      <trkpt lat="44.34957" lon="2.47895">
        <ele>640.4</ele>
        <time>2011-05-18T17:29:31Z</time>
      </trkpt>
      <trkpt lat="44.34956" lon="2.47891">
        <ele>640.5</ele>
        <time>2011-05-18T17:29:32Z</time>
      </trkpt>
      <trkpt lat="44.34956" lon="2.47886">
        <ele>640.6</ele>
        <time>2011-05-18T17:29:33Z</time>
      </trkpt>
      <trkpt lat="44.34956" lon="2.4788">
        <ele>640.6</ele>
        <time>2011-05-18T17:29:34Z</time>
      </trkpt>
      <trkpt lat="44.34956" lon="2.47875">
        <ele>640.7</ele>
        <time>2011-05-18T17:29:35Z</time>
      </trkpt>
      <trkpt lat="44.34956" lon="2.4787">
        <ele>640.7</ele>
        <time>2011-05-18T17:29:36Z</time>
      </trkpt>
      <trkpt lat="44.34956" lon="2.47865">
        <ele>640.8</ele>
        <time>2011-05-18T17:29:37Z</time>
      </trkpt>
      <trkpt lat="44.34957" lon="2.47859">
        <ele>640.8</ele>
        <time>2011-05-18T17:29:38Z</time>
      </trkpt>
      <trkpt lat="44.34957" lon="2.47853">
        <ele>640.8</ele>
        <time>2011-05-18T17:29:39Z</time>
      </trkpt>
      <trkpt lat="44.34958" lon="2.47846">
        <ele>640.9</ele>
        <time>2011-05-18T17:29:40Z</time>
      </trkpt>
      <trkpt lat="44.34959" lon="2.4784">
        <ele>640.9</ele>
        <time>2011-05-18T17:29:41Z</time>
      </trkpt>
      <trkpt lat="44.3496" lon="2.47833">
        <ele>640.8</ele>
        <time>2011-05-18T17:29:42Z</time>
      </trkpt>
      <trkpt lat="44.34961" lon="2.47825">
        <ele>640.5</ele>
        <time>2011-05-18T17:29:43Z</time>
      </trkpt>
      <trkpt lat="44.34962" lon="2.47817">
        <ele>640.2</ele>
        <time>2011-05-18T17:29:44Z</time>
      </trkpt>
      <trkpt lat="44.34963" lon="2.4781">
        <ele>640</ele>
        <time>2011-05-18T17:29:45Z</time>
      </trkpt>
      <trkpt lat="44.34964" lon="2.47802">
        <ele>639.7</ele>
        <time>2011-05-18T17:29:46Z</time>
      </trkpt>
      <trkpt lat="44.34966" lon="2.47794">
        <ele>639.4</ele>
        <time>2011-05-18T17:29:47Z</time>
      </trkpt>
      <trkpt lat="44.34967" lon="2.47784">
        <ele>639.1</ele>
        <time>2011-05-18T17:29:48Z</time>
      </trkpt>
      <trkpt lat="44.34968" lon="2.47775">
        <ele>638.8</ele>
        <time>2011-05-18T17:29:49Z</time>
      </trkpt>
      <trkpt lat="44.34968" lon="2.47765">
        <ele>638.5</ele>
        <time>2011-05-18T17:29:50Z</time>
      </trkpt>
      <trkpt lat="44.34969" lon="2.47754">
        <ele>638.2</ele>
        <time>2011-05-18T17:29:51Z</time>
      </trkpt>
      <trkpt lat="44.3497" lon="2.47743">
        <ele>637.8</ele>
        <time>2011-05-18T17:29:52Z</time>
      </trkpt>
      <trkpt lat="44.34971" lon="2.47732">
        <ele>637.3</ele>
        <time>2011-05-18T17:29:53Z</time>
      </trkpt>
      <trkpt lat="44.34972" lon="2.47721">
        <ele>636.8</ele>
        <time>2011-05-18T17:29:54Z</time>
      </trkpt>
      <trkpt lat="44.34973" lon="2.47709">
        <ele>636.3</ele>
        <time>2011-05-18T17:29:55Z</time>
      </trkpt>
      <trkpt lat="44.34973" lon="2.47698">
        <ele>635.8</ele>
        <time>2011-05-18T17:29:56Z</time>
      </trkpt>
      <trkpt lat="44.34974" lon="2.47686">
        <ele>635.4</ele>
        <time>2011-05-18T17:29:57Z</time>
      </trkpt>
      <trkpt lat="44.34974" lon="2.47673">
        <ele>634.9</ele>
        <time>2011-05-18T17:29:58Z</time>
      </trkpt>
      <trkpt lat="44.34975" lon="2.47661">
        <ele>634.3</ele>
        <time>2011-05-18T17:29:59Z</time>
      </trkpt>
      <trkpt lat="44.34975" lon="2.47648">
        <ele>633.7</ele>
        <time>2011-05-18T17:30:00Z</time>
      </trkpt>
      <trkpt lat="44.34976" lon="2.47635">
        <ele>633.1</ele>
        <time>2011-05-18T17:30:01Z</time>
      </trkpt>
      <trkpt lat="44.34976" lon="2.47622">
        <ele>632.5</ele>
        <time>2011-05-18T17:30:02Z</time>
      </trkpt>
      <trkpt lat="44.34976" lon="2.47609">
        <ele>632</ele>
        <time>2011-05-18T17:30:03Z</time>
      </trkpt>
      <trkpt lat="44.34977" lon="2.47595">
        <ele>631.3</ele>
        <time>2011-05-18T17:30:04Z</time>
      </trkpt>
      <trkpt lat="44.34977" lon="2.47581">
        <ele>630.7</ele>
        <time>2011-05-18T17:30:05Z</time>
      </trkpt>
      <trkpt lat="44.34977" lon="2.47567">
        <ele>630.2</ele>
        <time>2011-05-18T17:30:06Z</time>
      </trkpt>
      <trkpt lat="44.34977" lon="2.47554">
        <ele>629.7</ele>
        <time>2011-05-18T17:30:07Z</time>
      </trkpt>
      <trkpt lat="44.34977" lon="2.4754">
        <ele>629.1</ele>
        <time>2011-05-18T17:30:08Z</time>
      </trkpt>
      <trkpt lat="44.34978" lon="2.47526">
        <ele>628.6</ele>
        <time>2011-05-18T17:30:09Z</time>
      </trkpt>
      <trkpt lat="44.34978" lon="2.47513">
        <ele>628.1</ele>
        <time>2011-05-18T17:30:10Z</time>
      </trkpt>
      <trkpt lat="44.34977" lon="2.475">
        <ele>627.6</ele>
        <time>2011-05-18T17:30:11Z</time>
      </trkpt>
      <trkpt lat="44.34977" lon="2.47486">
        <ele>627.1</ele>
        <time>2011-05-18T17:30:12Z</time>
      </trkpt>
      <trkpt lat="44.34976" lon="2.47473">
        <ele>626.6</ele>
        <time>2011-05-18T17:30:13Z</time>
      </trkpt>
      <trkpt lat="44.34976" lon="2.47461">
        <ele>626.2</ele>
        <time>2011-05-18T17:30:14Z</time>
      </trkpt>
      <trkpt lat="44.34976" lon="2.4745">
        <ele>625.7</ele>
        <time>2011-05-18T17:30:15Z</time>
      </trkpt>
      <trkpt lat="44.34976" lon="2.47438">
        <ele>625.3</ele>
        <time>2011-05-18T17:30:16Z</time>
      </trkpt>
      <trkpt lat="44.34976" lon="2.47427">
        <ele>624.8</ele>
        <time>2011-05-18T17:30:17Z</time>
      </trkpt>
      <trkpt lat="44.34976" lon="2.47416">
        <ele>624.3</ele>
        <time>2011-05-18T17:30:18Z</time>
      </trkpt>
      <trkpt lat="44.34977" lon="2.47405">
        <ele>623.6</ele>
        <time>2011-05-18T17:30:19Z</time>
      </trkpt>
      <trkpt lat="44.34977" lon="2.47394">
        <ele>622.9</ele>
        <time>2011-05-18T17:30:20Z</time>
      </trkpt>
      <trkpt lat="44.34977" lon="2.47383">
        <ele>622.2</ele>
        <time>2011-05-18T17:30:21Z</time>
      </trkpt>
      <trkpt lat="44.34978" lon="2.47373">
        <ele>621.5</ele>
        <time>2011-05-18T17:30:22Z</time>
      </trkpt>
      <trkpt lat="44.34979" lon="2.47363">
        <ele>620.9</ele>
        <time>2011-05-18T17:30:23Z</time>
      </trkpt>
      <trkpt lat="44.34979" lon="2.47353">
        <ele>620.2</ele>
        <time>2011-05-18T17:30:24Z</time>
      </trkpt>
      <trkpt lat="44.3498" lon="2.47343">
        <ele>619.5</ele>
        <time>2011-05-18T17:30:25Z</time>
      </trkpt>
      <trkpt lat="44.34981" lon="2.47333">
        <ele>618.9</ele>
        <time>2011-05-18T17:30:26Z</time>
      </trkpt>
      <trkpt lat="44.34981" lon="2.47323">
        <ele>619.4</ele>
        <time>2011-05-18T17:30:27Z</time>
      </trkpt>
      <trkpt lat="44.34982" lon="2.47314">
        <ele>619.9</ele>
        <time>2011-05-18T17:30:28Z</time>
      </trkpt>
      <trkpt lat="44.34983" lon="2.47304">
        <ele>620.3</ele>
        <time>2011-05-18T17:30:29Z</time>
      </trkpt>
      <trkpt lat="44.34984" lon="2.47294">
        <ele>620.7</ele>
        <time>2011-05-18T17:30:30Z</time>
      </trkpt>
      <trkpt lat="44.34985" lon="2.47285">
        <ele>621.1</ele>
        <time>2011-05-18T17:30:31Z</time>
      </trkpt>
      <trkpt lat="44.34986" lon="2.47276">
        <ele>621.5</ele>
        <time>2011-05-18T17:30:32Z</time>
      </trkpt>
      <trkpt lat="44.34988" lon="2.47268">
        <ele>621.9</ele>
        <time>2011-05-18T17:30:33Z</time>
      </trkpt>
      <trkpt lat="44.3499" lon="2.4726">
        <ele>622.2</ele>
        <time>2011-05-18T17:30:34Z</time>
      </trkpt>
      <trkpt lat="44.34993" lon="2.47253">
        <ele>622.4</ele>
        <time>2011-05-18T17:30:35Z</time>
      </trkpt>
      <trkpt lat="44.34995" lon="2.47246">
        <ele>622.6</ele>
        <time>2011-05-18T17:30:36Z</time>
      </trkpt>
      <trkpt lat="44.34998" lon="2.47239">
        <ele>622.7</ele>
        <time>2011-05-18T17:30:37Z</time>
      </trkpt>
      <trkpt lat="44.35001" lon="2.47233">
        <ele>622.8</ele>
        <time>2011-05-18T17:30:38Z</time>
      </trkpt>
      <trkpt lat="44.35004" lon="2.47226">
        <ele>622.8</ele>
        <time>2011-05-18T17:30:39Z</time>
      </trkpt>
      <trkpt lat="44.35007" lon="2.4722">
        <ele>622.8</ele>
        <time>2011-05-18T17:30:40Z</time>
      </trkpt>
      <trkpt lat="44.3501" lon="2.47213">
        <ele>622.9</ele>
        <time>2011-05-18T17:30:41Z</time>
      </trkpt>
      <trkpt lat="44.35013" lon="2.47207">
        <ele>622.8</ele>
        <time>2011-05-18T17:30:42Z</time>
      </trkpt>
      <trkpt lat="44.35015" lon="2.47201">
        <ele>623</ele>
        <time>2011-05-18T17:30:43Z</time>
      </trkpt>
      <trkpt lat="44.35018" lon="2.47196">
        <ele>623</ele>
        <time>2011-05-18T17:30:44Z</time>
      </trkpt>
      <trkpt lat="44.3502" lon="2.4719">
        <ele>623.1</ele>
        <time>2011-05-18T17:30:45Z</time>
      </trkpt>
      <trkpt lat="44.35023" lon="2.47184">
        <ele>623.1</ele>
        <time>2011-05-18T17:30:46Z</time>
      </trkpt>
      <trkpt lat="44.35026" lon="2.47178">
        <ele>623.2</ele>
        <time>2011-05-18T17:30:47Z</time>
      </trkpt>
      <trkpt lat="44.35028" lon="2.47173">
        <ele>623.4</ele>
        <time>2011-05-18T17:30:48Z</time>
      </trkpt>
      <trkpt lat="44.35031" lon="2.47167">
        <ele>623.4</ele>
        <time>2011-05-18T17:30:49Z</time>
      </trkpt>
      <trkpt lat="44.35033" lon="2.47161">
        <ele>623.4</ele>
        <time>2011-05-18T17:30:50Z</time>
      </trkpt>
      <trkpt lat="44.35036" lon="2.47155">
        <ele>623.3</ele>
        <time>2011-05-18T17:30:51Z</time>
      </trkpt>
      <trkpt lat="44.35039" lon="2.47149">
        <ele>623.3</ele>
        <time>2011-05-18T17:30:52Z</time>
      </trkpt>
      <trkpt lat="44.35041" lon="2.47144">
        <ele>623.3</ele>
        <time>2011-05-18T17:30:53Z</time>
      </trkpt>
      <trkpt lat="44.35044" lon="2.47138">
        <ele>623.2</ele>
        <time>2011-05-18T17:30:54Z</time>
      </trkpt>
      <trkpt lat="44.35047" lon="2.47132">
        <ele>623.2</ele>
        <time>2011-05-18T17:30:55Z</time>
      </trkpt>
      <trkpt lat="44.35049" lon="2.47127">
        <ele>623.1</ele>
        <time>2011-05-18T17:30:56Z</time>
      </trkpt>
      <trkpt lat="44.35052" lon="2.47121">
        <ele>623.1</ele>
        <time>2011-05-18T17:30:57Z</time>
      </trkpt>
      <trkpt lat="44.35055" lon="2.47115">
        <ele>623.1</ele>
        <time>2011-05-18T17:30:58Z</time>
      </trkpt>
      <trkpt lat="44.35058" lon="2.4711">
        <ele>623</ele>
        <time>2011-05-18T17:30:59Z</time>
      </trkpt>
      <trkpt lat="44.3506" lon="2.47104">
        <ele>623</ele>
        <time>2011-05-18T17:31:00Z</time>
      </trkpt>
      <trkpt lat="44.35063" lon="2.47099">
        <ele>623</ele>
        <time>2011-05-18T17:31:01Z</time>
      </trkpt>
      <trkpt lat="44.35066" lon="2.47093">
        <ele>622.9</ele>
        <time>2011-05-18T17:31:02Z</time>
      </trkpt>
      <trkpt lat="44.35069" lon="2.47088">
        <ele>622.9</ele>
        <time>2011-05-18T17:31:03Z</time>
      </trkpt>
      <trkpt lat="44.35072" lon="2.47083">
        <ele>622.9</ele>
        <time>2011-05-18T17:31:04Z</time>
      </trkpt>
      <trkpt lat="44.35075" lon="2.47078">
        <ele>623</ele>
        <time>2011-05-18T17:31:05Z</time>
      </trkpt>
      <trkpt lat="44.35078" lon="2.47073">
        <ele>623.2</ele>
        <time>2011-05-18T17:31:06Z</time>
      </trkpt>
      <trkpt lat="44.35081" lon="2.47068">
        <ele>623.3</ele>
        <time>2011-05-18T17:31:07Z</time>
      </trkpt>
      <trkpt lat="44.35084" lon="2.47063">
        <ele>623.5</ele>
        <time>2011-05-18T17:31:08Z</time>
      </trkpt>
      <trkpt lat="44.35087" lon="2.47058">
        <ele>623.6</ele>
        <time>2011-05-18T17:31:09Z</time>
      </trkpt>
      <trkpt lat="44.35091" lon="2.47053">
        <ele>623.6</ele>
        <time>2011-05-18T17:31:10Z</time>
      </trkpt>
      <trkpt lat="44.35095" lon="2.47049">
        <ele>623.7</ele>
        <time>2011-05-18T17:31:11Z</time>
      </trkpt>
      <trkpt lat="44.35099" lon="2.47044">
        <ele>623.7</ele>
        <time>2011-05-18T17:31:12Z</time>
      </trkpt>
      <trkpt lat="44.35103" lon="2.47038">
        <ele>623.7</ele>
        <time>2011-05-18T17:31:13Z</time>
      </trkpt>
      <trkpt lat="44.35107" lon="2.47033">
        <ele>623.7</ele>
        <time>2011-05-18T17:31:14Z</time>
      </trkpt>
      <trkpt lat="44.35112" lon="2.47029">
        <ele>623.6</ele>
        <time>2011-05-18T17:31:15Z</time>
      </trkpt>
      <trkpt lat="44.35116" lon="2.47024">
        <ele>623.5</ele>
        <time>2011-05-18T17:31:16Z</time>
      </trkpt>
      <trkpt lat="44.35121" lon="2.47019">
        <ele>623.4</ele>
        <time>2011-05-18T17:31:17Z</time>
      </trkpt>
      <trkpt lat="44.35126" lon="2.47014">
        <ele>623.2</ele>
        <time>2011-05-18T17:31:18Z</time>
      </trkpt>
      <trkpt lat="44.3513" lon="2.47009">
        <ele>623.1</ele>
        <time>2011-05-18T17:31:19Z</time>
      </trkpt>
      <trkpt lat="44.35135" lon="2.47004">
        <ele>622.9</ele>
        <time>2011-05-18T17:31:20Z</time>
      </trkpt>
      <trkpt lat="44.3514" lon="2.46998">
        <ele>622.5</ele>
        <time>2011-05-18T17:31:21Z</time>
      </trkpt>
      <trkpt lat="44.35145" lon="2.46993">
        <ele>622</ele>
        <time>2011-05-18T17:31:22Z</time>
      </trkpt>
      <trkpt lat="44.35149" lon="2.46988">
        <ele>621.5</ele>
        <time>2011-05-18T17:31:23Z</time>
      </trkpt>
      <trkpt lat="44.35154" lon="2.46983">
        <ele>621</ele>
        <time>2011-05-18T17:31:24Z</time>
      </trkpt>
      <trkpt lat="44.35159" lon="2.46978">
        <ele>620.5</ele>
        <time>2011-05-18T17:31:25Z</time>
      </trkpt>
      <trkpt lat="44.35163" lon="2.46973">
        <ele>620</ele>
        <time>2011-05-18T17:31:26Z</time>
      </trkpt>
      <trkpt lat="44.35168" lon="2.46968">
        <ele>619.5</ele>
        <time>2011-05-18T17:31:27Z</time>
      </trkpt>
      <trkpt lat="44.35173" lon="2.46963">
        <ele>618.9</ele>
        <time>2011-05-18T17:31:28Z</time>
      </trkpt>
      <trkpt lat="44.35177" lon="2.46958">
        <ele>618.3</ele>
        <time>2011-05-18T17:31:29Z</time>
      </trkpt>
      <trkpt lat="44.35182" lon="2.46953">
        <ele>617.8</ele>
        <time>2011-05-18T17:31:30Z</time>
      </trkpt>
      <trkpt lat="44.35187" lon="2.46948">
        <ele>617.3</ele>
        <time>2011-05-18T17:31:31Z</time>
      </trkpt>
      <trkpt lat="44.35191" lon="2.46943">
        <ele>616.8</ele>
        <time>2011-05-18T17:31:32Z</time>
      </trkpt>
      <trkpt lat="44.35196" lon="2.46938">
        <ele>616.3</ele>
        <time>2011-05-18T17:31:33Z</time>
      </trkpt>
      <trkpt lat="44.35201" lon="2.46933">
        <ele>615.8</ele>
        <time>2011-05-18T17:31:34Z</time>
      </trkpt>
      <trkpt lat="44.35205" lon="2.46927">
        <ele>615.3</ele>
        <time>2011-05-18T17:31:35Z</time>
      </trkpt>
      <trkpt lat="44.3521" lon="2.46921">
        <ele>614.8</ele>
        <time>2011-05-18T17:31:36Z</time>
      </trkpt>
      <trkpt lat="44.35215" lon="2.46915">
        <ele>614.4</ele>
        <time>2011-05-18T17:31:37Z</time>
      </trkpt>
      <trkpt lat="44.35219" lon="2.46908">
        <ele>613.9</ele>
        <time>2011-05-18T17:31:38Z</time>
      </trkpt>
      <trkpt lat="44.35223" lon="2.46901">
        <ele>613.4</ele>
        <time>2011-05-18T17:31:39Z</time>
      </trkpt>
      <trkpt lat="44.35228" lon="2.46894">
        <ele>612.9</ele>
        <time>2011-05-18T17:31:40Z</time>
      </trkpt>
      <trkpt lat="44.35233" lon="2.46887">
        <ele>612.4</ele>
        <time>2011-05-18T17:31:41Z</time>
      </trkpt>
      <trkpt lat="44.35237" lon="2.46879">
        <ele>611.8</ele>
        <time>2011-05-18T17:31:42Z</time>
      </trkpt>
      <trkpt lat="44.35242" lon="2.46872">
        <ele>611.3</ele>
        <time>2011-05-18T17:31:43Z</time>
      </trkpt>
      <trkpt lat="44.35246" lon="2.46863">
        <ele>610.8</ele>
        <time>2011-05-18T17:31:44Z</time>
      </trkpt>
      <trkpt lat="44.3525" lon="2.46854">
        <ele>610.3</ele>
        <time>2011-05-18T17:31:45Z</time>
      </trkpt>
      <trkpt lat="44.35254" lon="2.46845">
        <ele>609.7</ele>
        <time>2011-05-18T17:31:46Z</time>
      </trkpt>
      <trkpt lat="44.35257" lon="2.46836">
        <ele>609.2</ele>
        <time>2011-05-18T17:31:47Z</time>
      </trkpt>
      <trkpt lat="44.35261" lon="2.46826">
        <ele>608.8</ele>
        <time>2011-05-18T17:31:48Z</time>
      </trkpt>
      <trkpt lat="44.35265" lon="2.46816">
        <ele>608.5</ele>
        <time>2011-05-18T17:31:49Z</time>
      </trkpt>
      <trkpt lat="44.35269" lon="2.46806">
        <ele>608.1</ele>
        <time>2011-05-18T17:31:50Z</time>
      </trkpt>
      <trkpt lat="44.35273" lon="2.46796">
        <ele>607.7</ele>
        <time>2011-05-18T17:31:51Z</time>
      </trkpt>
      <trkpt lat="44.35277" lon="2.46786">
        <ele>607.2</ele>
        <time>2011-05-18T17:31:52Z</time>
      </trkpt>
      <trkpt lat="44.35281" lon="2.46775">
        <ele>606.8</ele>
        <time>2011-05-18T17:31:53Z</time>
      </trkpt>
      <trkpt lat="44.35285" lon="2.46765">
        <ele>606.4</ele>
        <time>2011-05-18T17:31:54Z</time>
      </trkpt>
      <trkpt lat="44.35289" lon="2.46754">
        <ele>605.9</ele>
        <time>2011-05-18T17:31:55Z</time>
      </trkpt>
      <trkpt lat="44.35292" lon="2.46743">
        <ele>605.7</ele>
        <time>2011-05-18T17:31:56Z</time>
      </trkpt>
      <trkpt lat="44.35296" lon="2.46733">
        <ele>605.6</ele>
        <time>2011-05-18T17:31:57Z</time>
      </trkpt>
      <trkpt lat="44.35299" lon="2.46722">
        <ele>605.7</ele>
        <time>2011-05-18T17:31:58Z</time>
      </trkpt>
      <trkpt lat="44.35303" lon="2.46711">
        <ele>605.7</ele>
        <time>2011-05-18T17:31:59Z</time>
      </trkpt>
      <trkpt lat="44.35306" lon="2.467">
        <ele>605.8</ele>
        <time>2011-05-18T17:32:00Z</time>
      </trkpt>
      <trkpt lat="44.3531" lon="2.46689">
        <ele>605.9</ele>
        <time>2011-05-18T17:32:01Z</time>
      </trkpt>
      <trkpt lat="44.35314" lon="2.46679">
        <ele>606.1</ele>
        <time>2011-05-18T17:32:02Z</time>
      </trkpt>
      <trkpt lat="44.35318" lon="2.46668">
        <ele>606.2</ele>
        <time>2011-05-18T17:32:03Z</time>
      </trkpt>
      <trkpt lat="44.35322" lon="2.46658">
        <ele>606.3</ele>
        <time>2011-05-18T17:32:04Z</time>
      </trkpt>
      <trkpt lat="44.35326" lon="2.46648">
        <ele>606.4</ele>
        <time>2011-05-18T17:32:05Z</time>
      </trkpt>
      <trkpt lat="44.3533" lon="2.46639">
        <ele>606.6</ele>
        <time>2011-05-18T17:32:06Z</time>
      </trkpt>
      <trkpt lat="44.35334" lon="2.46629">
        <ele>606.7</ele>
        <time>2011-05-18T17:32:07Z</time>
      </trkpt>
      <trkpt lat="44.35339" lon="2.4662">
        <ele>606.1</ele>
        <time>2011-05-18T17:32:08Z</time>
      </trkpt>
      <trkpt lat="44.35344" lon="2.46612">
        <ele>605.6</ele>
        <time>2011-05-18T17:32:09Z</time>
      </trkpt>
      <trkpt lat="44.3535" lon="2.46603">
        <ele>604.9</ele>
        <time>2011-05-18T17:32:10Z</time>
      </trkpt>
      <trkpt lat="44.35356" lon="2.46596">
        <ele>604.3</ele>
        <time>2011-05-18T17:32:11Z</time>
      </trkpt>
      <trkpt lat="44.35363" lon="2.46589">
        <ele>603.6</ele>
        <time>2011-05-18T17:32:12Z</time>
      </trkpt>
      <trkpt lat="44.35369" lon="2.46582">
        <ele>603.1</ele>
        <time>2011-05-18T17:32:13Z</time>
      </trkpt>
      <trkpt lat="44.35375" lon="2.46574">
        <ele>602.2</ele>
        <time>2011-05-18T17:32:14Z</time>
      </trkpt>
      <trkpt lat="44.35382" lon="2.46567">
        <ele>601.5</ele>
        <time>2011-05-18T17:32:15Z</time>
      </trkpt>
      <trkpt lat="44.35389" lon="2.4656">
        <ele>600.9</ele>
        <time>2011-05-18T17:32:16Z</time>
      </trkpt>
      <trkpt lat="44.35395" lon="2.46553">
        <ele>600.5</ele>
        <time>2011-05-18T17:32:17Z</time>
      </trkpt>
      <trkpt lat="44.35402" lon="2.46546">
        <ele>600.2</ele>
        <time>2011-05-18T17:32:18Z</time>
      </trkpt>
      <trkpt lat="44.35408" lon="2.46538">
        <ele>600.2</ele>
        <time>2011-05-18T17:32:19Z</time>
      </trkpt>
      <trkpt lat="44.35415" lon="2.46531">
        <ele>600.3</ele>
        <time>2011-05-18T17:32:20Z</time>
      </trkpt>
      <trkpt lat="44.35421" lon="2.46523">
        <ele>599.1</ele>
        <time>2011-05-18T17:32:21Z</time>
      </trkpt>
      <trkpt lat="44.35427" lon="2.46516">
        <ele>597.7</ele>
        <time>2011-05-18T17:32:22Z</time>
      </trkpt>
      <trkpt lat="44.35433" lon="2.46508">
        <ele>596.2</ele>
        <time>2011-05-18T17:32:23Z</time>
      </trkpt>
      <trkpt lat="44.35439" lon="2.46501">
        <ele>595</ele>
        <time>2011-05-18T17:32:24Z</time>
      </trkpt>
      <trkpt lat="44.35444" lon="2.46494">
        <ele>593.5</ele>
        <time>2011-05-18T17:32:25Z</time>
      </trkpt>
      <trkpt lat="44.3545" lon="2.46487">
        <ele>592.2</ele>
        <time>2011-05-18T17:32:26Z</time>
      </trkpt>
      <trkpt lat="44.35455" lon="2.4648">
        <ele>591.1</ele>
        <time>2011-05-18T17:32:27Z</time>
      </trkpt>
      <trkpt lat="44.35461" lon="2.46473">
        <ele>590.1</ele>
        <time>2011-05-18T17:32:28Z</time>
      </trkpt>
      <trkpt lat="44.35466" lon="2.46466">
        <ele>589.2</ele>
        <time>2011-05-18T17:32:29Z</time>
      </trkpt>
      <trkpt lat="44.3547" lon="2.4646">
        <ele>588.7</ele>
        <time>2011-05-18T17:32:30Z</time>
      </trkpt>
      <trkpt lat="44.35475" lon="2.46453">
        <ele>588.3</ele>
        <time>2011-05-18T17:32:31Z</time>
      </trkpt>
      <trkpt lat="44.35479" lon="2.46447">
        <ele>588</ele>
        <time>2011-05-18T17:32:32Z</time>
      </trkpt>
      <trkpt lat="44.35483" lon="2.46441">
        <ele>587.9</ele>
        <time>2011-05-18T17:32:33Z</time>
      </trkpt>
      <trkpt lat="44.35487" lon="2.46435">
        <ele>587.7</ele>
        <time>2011-05-18T17:32:34Z</time>
      </trkpt>
      <trkpt lat="44.35491" lon="2.4643">
        <ele>587.6</ele>
        <time>2011-05-18T17:32:35Z</time>
      </trkpt>
      <trkpt lat="44.35496" lon="2.46423">
        <ele>587.7</ele>
        <time>2011-05-18T17:32:36Z</time>
      </trkpt>
      <trkpt lat="44.355" lon="2.46417">
        <ele>588.1</ele>
        <time>2011-05-18T17:32:37Z</time>
      </trkpt>
      <trkpt lat="44.35504" lon="2.46411">
        <ele>586.1</ele>
        <time>2011-05-18T17:32:38Z</time>
      </trkpt>
      <trkpt lat="44.35508" lon="2.46405">
        <ele>584</ele>
        <time>2011-05-18T17:32:39Z</time>
      </trkpt>
      <trkpt lat="44.35512" lon="2.46399">
        <ele>581.9</ele>
        <time>2011-05-18T17:32:40Z</time>
      </trkpt>
      <trkpt lat="44.35516" lon="2.46392">
        <ele>580.1</ele>
        <time>2011-05-18T17:32:41Z</time>
      </trkpt>
      <trkpt lat="44.35521" lon="2.46386">
        <ele>578</ele>
        <time>2011-05-18T17:32:42Z</time>
      </trkpt>
      <trkpt lat="44.35525" lon="2.46379">
        <ele>576</ele>
        <time>2011-05-18T17:32:43Z</time>
      </trkpt>
      <trkpt lat="44.35529" lon="2.46373">
        <ele>573.8</ele>
        <time>2011-05-18T17:32:44Z</time>
      </trkpt>
      <trkpt lat="44.35533" lon="2.46369">
        <ele>571.9</ele>
        <time>2011-05-18T17:32:45Z</time>
      </trkpt>
      <trkpt lat="44.35535" lon="2.46366">
        <ele>570.7</ele>
        <time>2011-05-18T17:32:46Z</time>
      </trkpt>
      <trkpt lat="44.35539" lon="2.46362">
        <ele>569.2</ele>
        <time>2011-05-18T17:32:57Z</time>
      </trkpt>
      <trkpt lat="44.35542" lon="2.4636">
        <ele>567.5</ele>
        <time>2011-05-18T17:33:00Z</time>
      </trkpt>
      <trkpt lat="44.35546" lon="2.46357">
        <ele>565.8</ele>
        <time>2011-05-18T17:33:05Z</time>
      </trkpt>
      <trkpt lat="44.35548" lon="2.46354">
        <ele>564.7</ele>
        <time>2011-05-18T17:33:07Z</time>
      </trkpt>
      <trkpt lat="44.35551" lon="2.46351">
        <ele>562.9</ele>
        <time>2011-05-18T17:33:09Z</time>
      </trkpt>
      <trkpt lat="44.35554" lon="2.46347">
        <ele>561.9</ele>
        <time>2011-05-18T17:33:11Z</time>
      </trkpt>
      <trkpt lat="44.35555" lon="2.46344">
        <ele>561.1</ele>
        <time>2011-05-18T17:33:12Z</time>
      </trkpt>
      <trkpt lat="44.35557" lon="2.46341">
        <ele>560.4</ele>
        <time>2011-05-18T17:33:13Z</time>
      </trkpt>
      <trkpt lat="44.35559" lon="2.46337">
        <ele>559.6</ele>
        <time>2011-05-18T17:33:14Z</time>
      </trkpt>
      <trkpt lat="44.35561" lon="2.46333">
        <ele>558.6</ele>
        <time>2011-05-18T17:33:15Z</time>
      </trkpt>
      <trkpt lat="44.35562" lon="2.46327">
        <ele>557.2</ele>
        <time>2011-05-18T17:33:16Z</time>
      </trkpt>
      <trkpt lat="44.35564" lon="2.46323">
        <ele>555.8</ele>
        <time>2011-05-18T17:33:17Z</time>
      </trkpt>
      <trkpt lat="44.35566" lon="2.46319">
        <ele>554.3</ele>
        <time>2011-05-18T17:33:18Z</time>
      </trkpt>
      <trkpt lat="44.35565" lon="2.46316">
        <ele>554.1</ele>
        <time>2011-05-18T17:33:19Z</time>
      </trkpt>
      <trkpt lat="44.35564" lon="2.4631">
        <ele>553.9</ele>
        <time>2011-05-18T17:33:22Z</time>
      </trkpt>
      <trkpt lat="44.35561" lon="2.46307">
        <ele>555.2</ele>
        <time>2011-05-18T17:33:24Z</time>
      </trkpt>
      <trkpt lat="44.35558" lon="2.46306">
        <ele>556.2</ele>
        <time>2011-05-18T17:33:25Z</time>
      </trkpt>
      <trkpt lat="44.35555" lon="2.46305">
        <ele>557.6</ele>
        <time>2011-05-18T17:33:26Z</time>
      </trkpt>
      <trkpt lat="44.35551" lon="2.46304">
        <ele>559.2</ele>
        <time>2011-05-18T17:33:27Z</time>
      </trkpt>
      <trkpt lat="44.35547" lon="2.46304">
        <ele>561.1</ele>
        <time>2011-05-18T17:33:28Z</time>
      </trkpt>
      <trkpt lat="44.35542" lon="2.46304">
        <ele>563.3</ele>
        <time>2011-05-18T17:33:29Z</time>
      </trkpt>
      <trkpt lat="44.35538" lon="2.46304">
        <ele>565.5</ele>
        <time>2011-05-18T17:33:30Z</time>
      </trkpt>
      <trkpt lat="44.35533" lon="2.46303">
        <ele>567.6</ele>
        <time>2011-05-18T17:33:31Z</time>
      </trkpt>
      <trkpt lat="44.35528" lon="2.46304">
        <ele>569.9</ele>
        <time>2011-05-18T17:33:32Z</time>
      </trkpt>
      <trkpt lat="44.35524" lon="2.46304">
        <ele>572.2</ele>
        <time>2011-05-18T17:33:33Z</time>
      </trkpt>
      <trkpt lat="44.35519" lon="2.46304">
        <ele>574.5</ele>
        <time>2011-05-18T17:33:34Z</time>
      </trkpt>
      <trkpt lat="44.35514" lon="2.46305">
        <ele>577</ele>
        <time>2011-05-18T17:33:35Z</time>
      </trkpt>
      <trkpt lat="44.35508" lon="2.46307">
        <ele>579.9</ele>
        <time>2011-05-18T17:33:36Z</time>
      </trkpt>
      <trkpt lat="44.35502" lon="2.46309">
        <ele>583.4</ele>
        <time>2011-05-18T17:33:37Z</time>
      </trkpt>
      <trkpt lat="44.35496" lon="2.46313">
        <ele>585.3</ele>
        <time>2011-05-18T17:33:38Z</time>
      </trkpt>
      <trkpt lat="44.35489" lon="2.46316">
        <ele>585.9</ele>
        <time>2011-05-18T17:33:39Z</time>
      </trkpt>
      <trkpt lat="44.35482" lon="2.46319">
        <ele>586.7</ele>
        <time>2011-05-18T17:33:40Z</time>
      </trkpt>
      <trkpt lat="44.35475" lon="2.46322">
        <ele>587.8</ele>
        <time>2011-05-18T17:33:41Z</time>
      </trkpt>
      <trkpt lat="44.35466" lon="2.46326">
        <ele>589.1</ele>
        <time>2011-05-18T17:33:42Z</time>
      </trkpt>
      <trkpt lat="44.35458" lon="2.4633">
        <ele>590.4</ele>
        <time>2011-05-18T17:33:43Z</time>
      </trkpt>
      <trkpt lat="44.35449" lon="2.46334">
        <ele>591.8</ele>
        <time>2011-05-18T17:33:44Z</time>
      </trkpt>
      <trkpt lat="44.35441" lon="2.46338">
        <ele>592.5</ele>
        <time>2011-05-18T17:33:45Z</time>
      </trkpt>
      <trkpt lat="44.35432" lon="2.46343">
        <ele>593.5</ele>
        <time>2011-05-18T17:33:46Z</time>
      </trkpt>
      <trkpt lat="44.35423" lon="2.46349">
        <ele>594.6</ele>
        <time>2011-05-18T17:33:47Z</time>
      </trkpt>
      <trkpt lat="44.35415" lon="2.46354">
        <ele>595.6</ele>
        <time>2011-05-18T17:33:48Z</time>
      </trkpt>
      <trkpt lat="44.35406" lon="2.46359">
        <ele>594.8</ele>
        <time>2011-05-18T17:33:49Z</time>
      </trkpt>
      <trkpt lat="44.35396" lon="2.46364">
        <ele>593.8</ele>
        <time>2011-05-18T17:33:50Z</time>
      </trkpt>
      <trkpt lat="44.35385" lon="2.46367">
        <ele>592.7</ele>
        <time>2011-05-18T17:33:51Z</time>
      </trkpt>
      <trkpt lat="44.35375" lon="2.46371">
        <ele>591.5</ele>
        <time>2011-05-18T17:33:52Z</time>
      </trkpt>
      <trkpt lat="44.35364" lon="2.46374">
        <ele>590.6</ele>
        <time>2011-05-18T17:33:53Z</time>
      </trkpt>
      <trkpt lat="44.35354" lon="2.46375">
        <ele>589.2</ele>
        <time>2011-05-18T17:33:54Z</time>
      </trkpt>
      <trkpt lat="44.35344" lon="2.46377">
        <ele>587.9</ele>
        <time>2011-05-18T17:33:55Z</time>
      </trkpt>
      <trkpt lat="44.35334" lon="2.46379">
        <ele>586.8</ele>
        <time>2011-05-18T17:33:56Z</time>
      </trkpt>
      <trkpt lat="44.35325" lon="2.46379">
        <ele>585.2</ele>
        <time>2011-05-18T17:33:57Z</time>
      </trkpt>
      <trkpt lat="44.35316" lon="2.46381">
        <ele>583.7</ele>
        <time>2011-05-18T17:33:58Z</time>
      </trkpt>
      <trkpt lat="44.35309" lon="2.46381">
        <ele>582.1</ele>
        <time>2011-05-18T17:33:59Z</time>
      </trkpt>
      <trkpt lat="44.35301" lon="2.46383">
        <ele>581.3</ele>
        <time>2011-05-18T17:34:00Z</time>
      </trkpt>
      <trkpt lat="44.35293" lon="2.46385">
        <ele>580</ele>
        <time>2011-05-18T17:34:01Z</time>
      </trkpt>
      <trkpt lat="44.35285" lon="2.46387">
        <ele>579.1</ele>
        <time>2011-05-18T17:34:02Z</time>
      </trkpt>
      <trkpt lat="44.35277" lon="2.4639">
        <ele>578.1</ele>
        <time>2011-05-18T17:34:03Z</time>
      </trkpt>
      <trkpt lat="44.35268" lon="2.46394">
        <ele>577.6</ele>
        <time>2011-05-18T17:34:04Z</time>
      </trkpt>
      <trkpt lat="44.35259" lon="2.46397">
        <ele>577.1</ele>
        <time>2011-05-18T17:34:05Z</time>
      </trkpt>
      <trkpt lat="44.3525" lon="2.46401">
        <ele>576.8</ele>
        <time>2011-05-18T17:34:06Z</time>
      </trkpt>
      <trkpt lat="44.35241" lon="2.46405">
        <ele>576</ele>
        <time>2011-05-18T17:34:07Z</time>
      </trkpt>
      <trkpt lat="44.35231" lon="2.46408">
        <ele>575.7</ele>
        <time>2011-05-18T17:34:08Z</time>
      </trkpt>
      <trkpt lat="44.35222" lon="2.46412">
        <ele>575.4</ele>
        <time>2011-05-18T17:34:09Z</time>
      </trkpt>
      <trkpt lat="44.35212" lon="2.46417">
        <ele>575.6</ele>
        <time>2011-05-18T17:34:10Z</time>
      </trkpt>
      <trkpt lat="44.35202" lon="2.46421">
        <ele>574.8</ele>
        <time>2011-05-18T17:34:11Z</time>
      </trkpt>
      <trkpt lat="44.35191" lon="2.46425">
        <ele>574</ele>
        <time>2011-05-18T17:34:12Z</time>
      </trkpt>
      <trkpt lat="44.35181" lon="2.46428">
        <ele>573.3</ele>
        <time>2011-05-18T17:34:13Z</time>
      </trkpt>
      <trkpt lat="44.35171" lon="2.46433">
        <ele>572.7</ele>
        <time>2011-05-18T17:34:14Z</time>
      </trkpt>
      <trkpt lat="44.35162" lon="2.46437">
        <ele>571.7</ele>
        <time>2011-05-18T17:34:15Z</time>
      </trkpt>
      <trkpt lat="44.35152" lon="2.46441">
        <ele>570.4</ele>
        <time>2011-05-18T17:34:16Z</time>
      </trkpt>
      <trkpt lat="44.35145" lon="2.46446">
        <ele>569.7</ele>
        <time>2011-05-18T17:34:17Z</time>
      </trkpt>
      <trkpt lat="44.35139" lon="2.46452">
        <ele>569.9</ele>
        <time>2011-05-18T17:34:18Z</time>
      </trkpt>
      <trkpt lat="44.35135" lon="2.46458">
        <ele>570.5</ele>
        <time>2011-05-18T17:34:19Z</time>
      </trkpt>
      <trkpt lat="44.35133" lon="2.46465">
        <ele>571.6</ele>
        <time>2011-05-18T17:34:20Z</time>
      </trkpt>
      <trkpt lat="44.35132" lon="2.46471">
        <ele>572.6</ele>
        <time>2011-05-18T17:34:21Z</time>
      </trkpt>
      <trkpt lat="44.35131" lon="2.46475">
        <ele>573.6</ele>
        <time>2011-05-18T17:34:22Z</time>
      </trkpt>
      <trkpt lat="44.3513" lon="2.46479">
        <ele>574</ele>
        <time>2011-05-18T17:34:23Z</time>
      </trkpt>
      <trkpt lat="44.35129" lon="2.46485">
        <ele>575.2</ele>
        <time>2011-05-18T17:34:25Z</time>
      </trkpt>
      <trkpt lat="44.35127" lon="2.46489">
        <ele>575.6</ele>
        <time>2011-05-18T17:34:27Z</time>
      </trkpt>
      <trkpt lat="44.35124" lon="2.46492">
        <ele>576</ele>
        <time>2011-05-18T17:34:29Z</time>
      </trkpt>
      <trkpt lat="44.35122" lon="2.46495">
        <ele>575.8</ele>
        <time>2011-05-18T17:34:31Z</time>
      </trkpt>
      <trkpt lat="44.35118" lon="2.46498">
        <ele>575.5</ele>
        <time>2011-05-18T17:34:33Z</time>
      </trkpt>
      <trkpt lat="44.35113" lon="2.46499">
        <ele>574.6</ele>
        <time>2011-05-18T17:34:35Z</time>
      </trkpt>
      <trkpt lat="44.35111" lon="2.46499">
        <ele>574</ele>
        <time>2011-05-18T17:34:36Z</time>
      </trkpt>
      <trkpt lat="44.35109" lon="2.465">
        <ele>573.4</ele>
        <time>2011-05-18T17:34:37Z</time>
      </trkpt>
      <trkpt lat="44.35106" lon="2.465">
        <ele>573.1</ele>
        <time>2011-05-18T17:34:38Z</time>
      </trkpt>
      <trkpt lat="44.35104" lon="2.46501">
        <ele>572.4</ele>
        <time>2011-05-18T17:34:39Z</time>
      </trkpt>
      <trkpt lat="44.35102" lon="2.46501">
        <ele>572.1</ele>
        <time>2011-05-18T17:34:40Z</time>
      </trkpt>
      <trkpt lat="44.35099" lon="2.46502">
        <ele>571.5</ele>
        <time>2011-05-18T17:34:41Z</time>
      </trkpt>
      <trkpt lat="44.35097" lon="2.46504">
        <ele>571.3</ele>
        <time>2011-05-18T17:34:42Z</time>
      </trkpt>
      <trkpt lat="44.35095" lon="2.46505">
        <ele>571.1</ele>
        <time>2011-05-18T17:34:43Z</time>
      </trkpt>
      <trkpt lat="44.35091" lon="2.46508">
        <ele>570.8</ele>
        <time>2011-05-18T17:34:45Z</time>
      </trkpt>
      <trkpt lat="44.35088" lon="2.46508">
        <ele>570.4</ele>
        <time>2011-05-18T17:34:46Z</time>
      </trkpt>
      <trkpt lat="44.35086" lon="2.4651">
        <ele>570.2</ele>
        <time>2011-05-18T17:34:47Z</time>
      </trkpt>
      <trkpt lat="44.35083" lon="2.46511">
        <ele>569.9</ele>
        <time>2011-05-18T17:34:48Z</time>
      </trkpt>
      <trkpt lat="44.35079" lon="2.46512">
        <ele>569.4</ele>
        <time>2011-05-18T17:34:50Z</time>
      </trkpt>
      <trkpt lat="44.35077" lon="2.46513">
        <ele>568.9</ele>
        <time>2011-05-18T17:34:51Z</time>
      </trkpt>
      <trkpt lat="44.35074" lon="2.46513">
        <ele>568.8</ele>
        <time>2011-05-18T17:34:52Z</time>
      </trkpt>
      <trkpt lat="44.35072" lon="2.46514">
        <ele>568.3</ele>
        <time>2011-05-18T17:34:53Z</time>
      </trkpt>
      <trkpt lat="44.3507" lon="2.46514">
        <ele>567.8</ele>
        <time>2011-05-18T17:34:54Z</time>
      </trkpt>
      <trkpt lat="44.35067" lon="2.46513">
        <ele>567.3</ele>
        <time>2011-05-18T17:34:55Z</time>
      </trkpt>
      <trkpt lat="44.35065" lon="2.46513">
        <ele>566.8</ele>
        <time>2011-05-18T17:34:56Z</time>
      </trkpt>
      <trkpt lat="44.35062" lon="2.46513">
        <ele>566.3</ele>
        <time>2011-05-18T17:34:57Z</time>
      </trkpt>
      <trkpt lat="44.35059" lon="2.46514">
        <ele>565.7</ele>
        <time>2011-05-18T17:34:58Z</time>
      </trkpt>
      <trkpt lat="44.35057" lon="2.46514">
        <ele>565.2</ele>
        <time>2011-05-18T17:34:59Z</time>
      </trkpt>
      <trkpt lat="44.35054" lon="2.46514">
        <ele>564.7</ele>
        <time>2011-05-18T17:35:00Z</time>
      </trkpt>
      <trkpt lat="44.35052" lon="2.46514">
        <ele>564.6</ele>
        <time>2011-05-18T17:35:01Z</time>
      </trkpt>
      <trkpt lat="44.35049" lon="2.46515">
        <ele>564.1</ele>
        <time>2011-05-18T17:35:02Z</time>
      </trkpt>
      <trkpt lat="44.35047" lon="2.46515">
        <ele>563.5</ele>
        <time>2011-05-18T17:35:03Z</time>
      </trkpt>
      <trkpt lat="44.35044" lon="2.46516">
        <ele>563.4</ele>
        <time>2011-05-18T17:35:04Z</time>
      </trkpt>
      <trkpt lat="44.35041" lon="2.46516">
        <ele>562.8</ele>
        <time>2011-05-18T17:35:05Z</time>
      </trkpt>
      <trkpt lat="44.35038" lon="2.46517">
        <ele>562.7</ele>
        <time>2011-05-18T17:35:06Z</time>
      </trkpt>
      <trkpt lat="44.35036" lon="2.46518">
        <ele>562.6</ele>
        <time>2011-05-18T17:35:07Z</time>
      </trkpt>
      <trkpt lat="44.35033" lon="2.46519">
        <ele>562.1</ele>
        <time>2011-05-18T17:35:08Z</time>
      </trkpt>
      <trkpt lat="44.3503" lon="2.46521">
        <ele>562.4</ele>
        <time>2011-05-18T17:35:09Z</time>
      </trkpt>
      <trkpt lat="44.35028" lon="2.46522">
        <ele>562.4</ele>
        <time>2011-05-18T17:35:10Z</time>
      </trkpt>
      <trkpt lat="44.35025" lon="2.46524">
        <ele>562.3</ele>
        <time>2011-05-18T17:35:11Z</time>
      </trkpt>
      <trkpt lat="44.35023" lon="2.46525">
        <ele>562.3</ele>
        <time>2011-05-18T17:35:12Z</time>
      </trkpt>
      <trkpt lat="44.35021" lon="2.46527">
        <ele>562.3</ele>
        <time>2011-05-18T17:35:13Z</time>
      </trkpt>
      <trkpt lat="44.35019" lon="2.46529">
        <ele>562.8</ele>
        <time>2011-05-18T17:35:14Z</time>
      </trkpt>
      <trkpt lat="44.35016" lon="2.4653">
        <ele>562.8</ele>
        <time>2011-05-18T17:35:15Z</time>
      </trkpt>
      <trkpt lat="44.35014" lon="2.46532">
        <ele>562.8</ele>
        <time>2011-05-18T17:35:16Z</time>
      </trkpt>
      <trkpt lat="44.35012" lon="2.46534">
        <ele>563.3</ele>
        <time>2011-05-18T17:35:17Z</time>
      </trkpt>
      <trkpt lat="44.3501" lon="2.46536">
        <ele>563.4</ele>
        <time>2011-05-18T17:35:18Z</time>
      </trkpt>
      <trkpt lat="44.35008" lon="2.46538">
        <ele>564</ele>
        <time>2011-05-18T17:35:19Z</time>
      </trkpt>
      <trkpt lat="44.35006" lon="2.4654">
        <ele>564</ele>
        <time>2011-05-18T17:35:20Z</time>
      </trkpt>
      <trkpt lat="44.35004" lon="2.46542">
        <ele>564.6</ele>
        <time>2011-05-18T17:35:21Z</time>
      </trkpt>
      <trkpt lat="44.35001" lon="2.46544">
        <ele>564.7</ele>
        <time>2011-05-18T17:35:22Z</time>
      </trkpt>
      <trkpt lat="44.34999" lon="2.46545">
        <ele>564.9</ele>
        <time>2011-05-18T17:35:23Z</time>
      </trkpt>
      <trkpt lat="44.34997" lon="2.46547">
        <ele>565.5</ele>
        <time>2011-05-18T17:35:24Z</time>
      </trkpt>
      <trkpt lat="44.34994" lon="2.4655">
        <ele>566</ele>
        <time>2011-05-18T17:35:26Z</time>
      </trkpt>
      <trkpt lat="44.3499" lon="2.46554">
        <ele>567</ele>
        <time>2011-05-18T17:35:28Z</time>
      </trkpt>
      <trkpt lat="44.34988" lon="2.46556">
        <ele>567.7</ele>
        <time>2011-05-18T17:35:29Z</time>
      </trkpt>
      <trkpt lat="44.34986" lon="2.46558">
        <ele>567.9</ele>
        <time>2011-05-18T17:35:30Z</time>
      </trkpt>
      <trkpt lat="44.34983" lon="2.46562">
        <ele>568.8</ele>
        <time>2011-05-18T17:35:32Z</time>
      </trkpt>
      <trkpt lat="44.34979" lon="2.46565">
        <ele>569.8</ele>
        <time>2011-05-18T17:35:34Z</time>
      </trkpt>
      <trkpt lat="44.34978" lon="2.46568">
        <ele>570.5</ele>
        <time>2011-05-18T17:35:35Z</time>
      </trkpt>
      <trkpt lat="44.34976" lon="2.4657">
        <ele>571.2</ele>
        <time>2011-05-18T17:35:36Z</time>
      </trkpt>
      <trkpt lat="44.34974" lon="2.46572">
        <ele>571.4</ele>
        <time>2011-05-18T17:35:37Z</time>
      </trkpt>
      <trkpt lat="44.34972" lon="2.46574">
        <ele>571.6</ele>
        <time>2011-05-18T17:35:38Z</time>
      </trkpt>
      <trkpt lat="44.34969" lon="2.46578">
        <ele>572.6</ele>
        <time>2011-05-18T17:35:40Z</time>
      </trkpt>
      <trkpt lat="44.34966" lon="2.46581">
        <ele>573.1</ele>
        <time>2011-05-18T17:35:42Z</time>
      </trkpt>
      <trkpt lat="44.34963" lon="2.46582">
        <ele>573.7</ele>
        <time>2011-05-18T17:35:43Z</time>
      </trkpt>
      <trkpt lat="44.34961" lon="2.46583">
        <ele>573.8</ele>
        <time>2011-05-18T17:35:44Z</time>
      </trkpt>
      <trkpt lat="44.34957" lon="2.46586">
        <ele>573.9</ele>
        <time>2011-05-18T17:35:46Z</time>
      </trkpt>
      <trkpt lat="44.34953" lon="2.46589">
        <ele>574</ele>
        <time>2011-05-18T17:35:48Z</time>
      </trkpt>
      <trkpt lat="44.3495" lon="2.46593">
        <ele>574.4</ele>
        <time>2011-05-18T17:35:50Z</time>
      </trkpt>
      <trkpt lat="44.34946" lon="2.46596">
        <ele>574.5</ele>
        <time>2011-05-18T17:35:52Z</time>
      </trkpt>
      <trkpt lat="44.34945" lon="2.46598">
        <ele>574.9</ele>
        <time>2011-05-18T17:35:53Z</time>
      </trkpt>
      <trkpt lat="44.34943" lon="2.466">
        <ele>574.9</ele>
        <time>2011-05-18T17:35:54Z</time>
      </trkpt>
      <trkpt lat="44.34941" lon="2.46602">
        <ele>575.3</ele>
        <time>2011-05-18T17:35:55Z</time>
      </trkpt>
      <trkpt lat="44.34938" lon="2.46607">
        <ele>575.8</ele>
        <time>2011-05-18T17:35:57Z</time>
      </trkpt>
      <trkpt lat="44.34936" lon="2.46609">
        <ele>576.1</ele>
        <time>2011-05-18T17:35:58Z</time>
      </trkpt>
      <trkpt lat="44.34934" lon="2.46611">
        <ele>576.5</ele>
        <time>2011-05-18T17:35:59Z</time>
      </trkpt>
      <trkpt lat="44.34933" lon="2.46613">
        <ele>576.6</ele>
        <time>2011-05-18T17:36:00Z</time>
      </trkpt>
      <trkpt lat="44.34931" lon="2.46615">
        <ele>576.9</ele>
        <time>2011-05-18T17:36:01Z</time>
      </trkpt>
      <trkpt lat="44.34929" lon="2.46617">
        <ele>577.3</ele>
        <time>2011-05-18T17:36:02Z</time>
      </trkpt>
      <trkpt lat="44.34927" lon="2.46619">
        <ele>577.3</ele>
        <time>2011-05-18T17:36:03Z</time>
      </trkpt>
      <trkpt lat="44.34925" lon="2.46621">
        <ele>577.6</ele>
        <time>2011-05-18T17:36:04Z</time>
      </trkpt>
      <trkpt lat="44.34923" lon="2.46623">
        <ele>577.7</ele>
        <time>2011-05-18T17:36:05Z</time>
      </trkpt>
      <trkpt lat="44.34921" lon="2.46626">
        <ele>578.1</ele>
        <time>2011-05-18T17:36:06Z</time>
      </trkpt>
      <trkpt lat="44.34919" lon="2.46628">
        <ele>578.4</ele>
        <time>2011-05-18T17:36:07Z</time>
      </trkpt>
      <trkpt lat="44.34917" lon="2.4663">
        <ele>578.4</ele>
        <time>2011-05-18T17:36:08Z</time>
      </trkpt>
      <trkpt lat="44.34914" lon="2.46632">
        <ele>578.6</ele>
        <time>2011-05-18T17:36:09Z</time>
      </trkpt>
      <trkpt lat="44.34912" lon="2.46634">
        <ele>578.6</ele>
        <time>2011-05-18T17:36:10Z</time>
      </trkpt>
      <trkpt lat="44.3491" lon="2.46635">
        <ele>578.8</ele>
        <time>2011-05-18T17:36:11Z</time>
      </trkpt>
      <trkpt lat="44.34908" lon="2.46637">
        <ele>578.8</ele>
        <time>2011-05-18T17:36:12Z</time>
      </trkpt>
      <trkpt lat="44.34905" lon="2.46639">
        <ele>578.7</ele>
        <time>2011-05-18T17:36:13Z</time>
      </trkpt>
      <trkpt lat="44.34903" lon="2.46641">
        <ele>579</ele>
        <time>2011-05-18T17:36:14Z</time>
      </trkpt>
      <trkpt lat="44.349" lon="2.46643">
        <ele>578.9</ele>
        <time>2011-05-18T17:36:15Z</time>
      </trkpt>
      <trkpt lat="44.34898" lon="2.46644">
        <ele>578.8</ele>
        <time>2011-05-18T17:36:16Z</time>
      </trkpt>
      <trkpt lat="44.34894" lon="2.46646">
        <ele>579</ele>
        <time>2011-05-18T17:36:17Z</time>
      </trkpt>
      <trkpt lat="44.34891" lon="2.46648">
        <ele>578.8</ele>
        <time>2011-05-18T17:36:18Z</time>
      </trkpt>
      <trkpt lat="44.34888" lon="2.4665">
        <ele>579</ele>
        <time>2011-05-18T17:36:19Z</time>
      </trkpt>
      <trkpt lat="44.34884" lon="2.46652">
        <ele>578.7</ele>
        <time>2011-05-18T17:36:20Z</time>
      </trkpt>
      <trkpt lat="44.3488" lon="2.46653">
        <ele>578.5</ele>
        <time>2011-05-18T17:36:21Z</time>
      </trkpt>
      <trkpt lat="44.34876" lon="2.46654">
        <ele>578.3</ele>
        <time>2011-05-18T17:36:22Z</time>
      </trkpt>
      <trkpt lat="44.34872" lon="2.46655">
        <ele>578.1</ele>
        <time>2011-05-18T17:36:23Z</time>
      </trkpt>
      <trkpt lat="44.34868" lon="2.46657">
        <ele>577.9</ele>
        <time>2011-05-18T17:36:24Z</time>
      </trkpt>
      <trkpt lat="44.34864" lon="2.46657">
        <ele>577.3</ele>
        <time>2011-05-18T17:36:25Z</time>
      </trkpt>
      <trkpt lat="44.3486" lon="2.46658">
        <ele>577</ele>
        <time>2011-05-18T17:36:26Z</time>
      </trkpt>
      <trkpt lat="44.34855" lon="2.46658">
        <ele>576.4</ele>
        <time>2011-05-18T17:36:27Z</time>
      </trkpt>
      <trkpt lat="44.34851" lon="2.46658">
        <ele>575.9</ele>
        <time>2011-05-18T17:36:28Z</time>
      </trkpt>
      <trkpt lat="44.34847" lon="2.46658">
        <ele>575.2</ele>
        <time>2011-05-18T17:36:29Z</time>
      </trkpt>
      <trkpt lat="44.34842" lon="2.46658">
        <ele>574.5</ele>
        <time>2011-05-18T17:36:30Z</time>
      </trkpt>
      <trkpt lat="44.34837" lon="2.46657">
        <ele>573.5</ele>
        <time>2011-05-18T17:36:31Z</time>
      </trkpt>
      <trkpt lat="44.34832" lon="2.46656">
        <ele>572.4</ele>
        <time>2011-05-18T17:36:32Z</time>
      </trkpt>
      <trkpt lat="44.34827" lon="2.46655">
        <ele>571.2</ele>
        <time>2011-05-18T17:36:33Z</time>
      </trkpt>
      <trkpt lat="44.34822" lon="2.46655">
        <ele>570.4</ele>
        <time>2011-05-18T17:36:34Z</time>
      </trkpt>
      <trkpt lat="44.34817" lon="2.46655">
        <ele>569.6</ele>
        <time>2011-05-18T17:36:35Z</time>
      </trkpt>
      <trkpt lat="44.34813" lon="2.46656">
        <ele>569.3</ele>
        <time>2011-05-18T17:36:36Z</time>
      </trkpt>
      <trkpt lat="44.34809" lon="2.46658">
        <ele>569.4</ele>
        <time>2011-05-18T17:36:37Z</time>
      </trkpt>
      <trkpt lat="44.34806" lon="2.46659">
        <ele>569.2</ele>
        <time>2011-05-18T17:36:38Z</time>
      </trkpt>
      <trkpt lat="44.34803" lon="2.46661">
        <ele>569.1</ele>
        <time>2011-05-18T17:36:39Z</time>
      </trkpt>
      <trkpt lat="44.348" lon="2.46662">
        <ele>568.9</ele>
        <time>2011-05-18T17:36:40Z</time>
      </trkpt>
      <trkpt lat="44.34797" lon="2.46663">
        <ele>568.8</ele>
        <time>2011-05-18T17:36:41Z</time>
      </trkpt>
      <trkpt lat="44.34795" lon="2.46664">
        <ele>568.8</ele>
        <time>2011-05-18T17:36:42Z</time>
      </trkpt>
      <trkpt lat="44.34792" lon="2.46666">
        <ele>568.6</ele>
        <time>2011-05-18T17:36:43Z</time>
      </trkpt>
      <trkpt lat="44.34789" lon="2.46667">
        <ele>568.6</ele>
        <time>2011-05-18T17:36:44Z</time>
      </trkpt>
      <trkpt lat="44.34787" lon="2.46668">
        <ele>568.4</ele>
        <time>2011-05-18T17:36:45Z</time>
      </trkpt>
      <trkpt lat="44.34784" lon="2.46669">
        <ele>568.3</ele>
        <time>2011-05-18T17:36:46Z</time>
      </trkpt>
      <trkpt lat="44.34781" lon="2.46671">
        <ele>568.1</ele>
        <time>2011-05-18T17:36:47Z</time>
      </trkpt>
      <trkpt lat="44.34779" lon="2.46673">
        <ele>568.2</ele>
        <time>2011-05-18T17:36:48Z</time>
      </trkpt>
      <trkpt lat="44.34776" lon="2.46675">
        <ele>567.9</ele>
        <time>2011-05-18T17:36:49Z</time>
      </trkpt>
      <trkpt lat="44.34773" lon="2.46676">
        <ele>567.7</ele>
        <time>2011-05-18T17:36:50Z</time>
      </trkpt>
      <trkpt lat="44.34769" lon="2.46678">
        <ele>567.5</ele>
        <time>2011-05-18T17:36:51Z</time>
      </trkpt>
      <trkpt lat="44.34767" lon="2.4668">
        <ele>567.5</ele>
        <time>2011-05-18T17:36:52Z</time>
      </trkpt>
      <trkpt lat="44.34764" lon="2.46682">
        <ele>567.4</ele>
        <time>2011-05-18T17:36:53Z</time>
      </trkpt>
      <trkpt lat="44.34762" lon="2.46685">
        <ele>567.8</ele>
        <time>2011-05-18T17:36:54Z</time>
      </trkpt>
      <trkpt lat="44.34759" lon="2.46687">
        <ele>567.6</ele>
        <time>2011-05-18T17:36:55Z</time>
      </trkpt>
      <trkpt lat="44.34756" lon="2.46689">
        <ele>567.8</ele>
        <time>2011-05-18T17:36:56Z</time>
      </trkpt>
      <trkpt lat="44.34754" lon="2.46691">
        <ele>567.9</ele>
        <time>2011-05-18T17:36:57Z</time>
      </trkpt>
      <trkpt lat="44.34751" lon="2.46694">
        <ele>568.1</ele>
        <time>2011-05-18T17:36:58Z</time>
      </trkpt>
      <trkpt lat="44.34749" lon="2.46697">
        <ele>568.3</ele>
        <time>2011-05-18T17:36:59Z</time>
      </trkpt>
      <trkpt lat="44.34746" lon="2.46701">
        <ele>568.8</ele>
        <time>2011-05-18T17:37:00Z</time>
      </trkpt>
      <trkpt lat="44.34744" lon="2.46704">
        <ele>568.9</ele>
        <time>2011-05-18T17:37:01Z</time>
      </trkpt>
      <trkpt lat="44.34741" lon="2.46707">
        <ele>569</ele>
        <time>2011-05-18T17:37:02Z</time>
      </trkpt>
      <trkpt lat="44.34738" lon="2.4671">
        <ele>569.4</ele>
        <time>2011-05-18T17:37:03Z</time>
      </trkpt>
      <trkpt lat="44.34735" lon="2.46713">
        <ele>569.5</ele>
        <time>2011-05-18T17:37:04Z</time>
      </trkpt>
      <trkpt lat="44.34731" lon="2.46718">
        <ele>570.1</ele>
        <time>2011-05-18T17:37:05Z</time>
      </trkpt>
      <trkpt lat="44.34728" lon="2.46722">
        <ele>570.4</ele>
        <time>2011-05-18T17:37:06Z</time>
      </trkpt>
      <trkpt lat="44.34724" lon="2.46727">
        <ele>570.9</ele>
        <time>2011-05-18T17:37:07Z</time>
      </trkpt>
      <trkpt lat="44.34721" lon="2.46733">
        <ele>571.5</ele>
        <time>2011-05-18T17:37:08Z</time>
      </trkpt>
      <trkpt lat="44.34717" lon="2.46737">
        <ele>572</ele>
        <time>2011-05-18T17:37:09Z</time>
      </trkpt>
      <trkpt lat="44.34712" lon="2.46743">
        <ele>572.7</ele>
        <time>2011-05-18T17:37:10Z</time>
      </trkpt>
      <trkpt lat="44.34708" lon="2.46749">
        <ele>573.2</ele>
        <time>2011-05-18T17:37:11Z</time>
      </trkpt>
      <trkpt lat="44.34703" lon="2.46756">
        <ele>573.9</ele>
        <time>2011-05-18T17:37:12Z</time>
      </trkpt>
      <trkpt lat="44.34697" lon="2.46763">
        <ele>574.4</ele>
        <time>2011-05-18T17:37:13Z</time>
      </trkpt>
      <trkpt lat="44.34692" lon="2.46771">
        <ele>575.5</ele>
        <time>2011-05-18T17:37:14Z</time>
      </trkpt>
      <trkpt lat="44.34686" lon="2.46779">
        <ele>576.2</ele>
        <time>2011-05-18T17:37:15Z</time>
      </trkpt>
      <trkpt lat="44.3468" lon="2.46787">
        <ele>576.9</ele>
        <time>2011-05-18T17:37:16Z</time>
      </trkpt>
      <trkpt lat="44.34674" lon="2.46796">
        <ele>577.6</ele>
        <time>2011-05-18T17:37:17Z</time>
      </trkpt>
      <trkpt lat="44.34668" lon="2.46805">
        <ele>578.5</ele>
        <time>2011-05-18T17:37:18Z</time>
      </trkpt>
      <trkpt lat="44.34664" lon="2.46814">
        <ele>579</ele>
        <time>2011-05-18T17:37:19Z</time>
      </trkpt>
      <trkpt lat="44.34661" lon="2.46824">
        <ele>579.8</ele>
        <time>2011-05-18T17:37:20Z</time>
      </trkpt>
      <trkpt lat="44.34658" lon="2.46832">
        <ele>580.9</ele>
        <time>2011-05-18T17:37:21Z</time>
      </trkpt>
      <trkpt lat="44.34657" lon="2.46841">
        <ele>581.6</ele>
        <time>2011-05-18T17:37:22Z</time>
      </trkpt>
      <trkpt lat="44.34655" lon="2.4685">
        <ele>582.1</ele>
        <time>2011-05-18T17:37:23Z</time>
      </trkpt>
      <trkpt lat="44.34654" lon="2.46858">
        <ele>582.8</ele>
        <time>2011-05-18T17:37:24Z</time>
      </trkpt>
      <trkpt lat="44.34653" lon="2.46866">
        <ele>583.5</ele>
        <time>2011-05-18T17:37:25Z</time>
      </trkpt>
      <trkpt lat="44.34652" lon="2.46873">
        <ele>584</ele>
        <time>2011-05-18T17:37:26Z</time>
      </trkpt>
      <trkpt lat="44.34651" lon="2.4688">
        <ele>584.6</ele>
        <time>2011-05-18T17:37:27Z</time>
      </trkpt>
      <trkpt lat="44.34651" lon="2.46885">
        <ele>585.2</ele>
        <time>2011-05-18T17:37:28Z</time>
      </trkpt>
      <trkpt lat="44.34652" lon="2.46891">
        <ele>586.4</ele>
        <time>2011-05-18T17:37:29Z</time>
      </trkpt>
      <trkpt lat="44.34653" lon="2.46895">
        <ele>587.4</ele>
        <time>2011-05-18T17:37:30Z</time>
      </trkpt>
      <trkpt lat="44.34654" lon="2.46899">
        <ele>588.2</ele>
        <time>2011-05-18T17:37:31Z</time>
      </trkpt>
      <trkpt lat="44.34655" lon="2.46902">
        <ele>588.8</ele>
        <time>2011-05-18T17:37:32Z</time>
      </trkpt>
      <trkpt lat="44.34656" lon="2.46908">
        <ele>590</ele>
        <time>2011-05-18T17:37:34Z</time>
      </trkpt>
      <trkpt lat="44.34656" lon="2.46913">
        <ele>590.7</ele>
        <time>2011-05-18T17:37:36Z</time>
      </trkpt>
      <trkpt lat="44.34657" lon="2.46918">
        <ele>591.7</ele>
        <time>2011-05-18T17:37:38Z</time>
      </trkpt>
      <trkpt lat="44.34659" lon="2.46922">
        <ele>592.5</ele>
        <time>2011-05-18T17:37:40Z</time>
      </trkpt>
      <trkpt lat="44.3466" lon="2.46926">
        <ele>593.1</ele>
        <time>2011-05-18T17:37:42Z</time>
      </trkpt>
      <trkpt lat="44.34661" lon="2.4693">
        <ele>593.6</ele>
        <time>2011-05-18T17:37:44Z</time>
      </trkpt>
      <trkpt lat="44.34662" lon="2.46936">
        <ele>594.5</ele>
        <time>2011-05-18T17:37:47Z</time>
      </trkpt>
      <trkpt lat="44.34663" lon="2.46937">
        <ele>594.9</ele>
        <time>2011-05-18T17:37:48Z</time>
      </trkpt>
      <trkpt lat="44.34666" lon="2.46945">
        <ele>596.3</ele>
        <time>2011-05-18T17:37:52Z</time>
      </trkpt>
      <trkpt lat="44.34667" lon="2.4695">
        <ele>597.1</ele>
        <time>2011-05-18T17:37:55Z</time>
      </trkpt>
      <trkpt lat="44.34669" lon="2.46955">
        <ele>597.9</ele>
        <time>2011-05-18T17:37:58Z</time>
      </trkpt>
      <trkpt lat="44.3467" lon="2.46961">
        <ele>598.5</ele>
        <time>2011-05-18T17:38:01Z</time>
      </trkpt>
      <trkpt lat="44.34672" lon="2.46966">
        <ele>599.4</ele>
        <time>2011-05-18T17:38:04Z</time>
      </trkpt>
      <trkpt lat="44.34673" lon="2.46971">
        <ele>600.2</ele>
        <time>2011-05-18T17:38:07Z</time>
      </trkpt>
      <trkpt lat="44.34675" lon="2.46977">
        <ele>600.9</ele>
        <time>2011-05-18T17:38:10Z</time>
      </trkpt>
      <trkpt lat="44.34675" lon="2.46982">
        <ele>601.3</ele>
        <time>2011-05-18T17:38:13Z</time>
      </trkpt>
      <trkpt lat="44.34675" lon="2.46988">
        <ele>601.8</ele>
        <time>2011-05-18T17:38:16Z</time>
      </trkpt>
      <trkpt lat="44.34675" lon="2.46992">
        <ele>602.1</ele>
        <time>2011-05-18T17:38:18Z</time>
      </trkpt>
      <trkpt lat="44.34675" lon="2.46996">
        <ele>602.4</ele>
        <time>2011-05-18T17:38:20Z</time>
      </trkpt>
      <trkpt lat="44.34675" lon="2.47001">
        <ele>602.4</ele>
        <time>2011-05-18T17:38:22Z</time>
      </trkpt>
      <trkpt lat="44.34675" lon="2.47006">
        <ele>601.8</ele>
        <time>2011-05-18T17:38:24Z</time>
      </trkpt>
      <trkpt lat="44.34675" lon="2.47011">
        <ele>601.2</ele>
        <time>2011-05-18T17:38:26Z</time>
      </trkpt>
      <trkpt lat="44.34677" lon="2.47015">
        <ele>601.3</ele>
        <time>2011-05-18T17:38:28Z</time>
      </trkpt>
      <trkpt lat="44.34679" lon="2.47019">
        <ele>601.4</ele>
        <time>2011-05-18T17:38:30Z</time>
      </trkpt>
      <trkpt lat="44.34681" lon="2.47023">
        <ele>601.5</ele>
        <time>2011-05-18T17:38:32Z</time>
      </trkpt>
      <trkpt lat="44.34682" lon="2.47027">
        <ele>601.6</ele>
        <time>2011-05-18T17:38:34Z</time>
      </trkpt>
      <trkpt lat="44.34685" lon="2.47031">
        <ele>601.9</ele>
        <time>2011-05-18T17:38:37Z</time>
      </trkpt>
      <trkpt lat="44.34687" lon="2.47037">
        <ele>602</ele>
        <time>2011-05-18T17:38:40Z</time>
      </trkpt>
      <trkpt lat="44.34688" lon="2.47042">
        <ele>601.7</ele>
        <time>2011-05-18T17:38:43Z</time>
      </trkpt>
      <trkpt lat="44.3469" lon="2.47048">
        <ele>601.7</ele>
        <time>2011-05-18T17:38:47Z</time>
      </trkpt>
      <trkpt lat="44.34691" lon="2.47051">
        <ele>601.7</ele>
        <time>2011-05-18T17:38:49Z</time>
      </trkpt>
      <trkpt lat="44.34692" lon="2.47053">
        <ele>601.6</ele>
        <time>2011-05-18T17:38:50Z</time>
      </trkpt>
      <trkpt lat="44.34695" lon="2.47061">
        <ele>601.9</ele>
        <time>2011-05-18T17:38:54Z</time>
      </trkpt>
      <trkpt lat="44.34696" lon="2.47064">
        <ele>602.1</ele>
        <time>2011-05-18T17:38:56Z</time>
      </trkpt>
      <trkpt lat="44.34699" lon="2.47068">
        <ele>602.7</ele>
        <time>2011-05-18T17:38:58Z</time>
      </trkpt>
      <trkpt lat="44.34701" lon="2.47072">
        <ele>603</ele>
        <time>2011-05-18T17:39:00Z</time>
      </trkpt>
      <trkpt lat="44.34704" lon="2.47077">
        <ele>603.6</ele>
        <time>2011-05-18T17:39:03Z</time>
      </trkpt>
      <trkpt lat="44.34706" lon="2.47081">
        <ele>604</ele>
        <time>2011-05-18T17:39:06Z</time>
      </trkpt>
      <trkpt lat="44.3471" lon="2.47085">
        <ele>604.9</ele>
        <time>2011-05-18T17:39:09Z</time>
      </trkpt>
      <trkpt lat="44.34712" lon="2.47088">
        <ele>605.6</ele>
        <time>2011-05-18T17:39:11Z</time>
      </trkpt>
      <trkpt lat="44.34714" lon="2.47092">
        <ele>606.4</ele>
        <time>2011-05-18T17:39:13Z</time>
      </trkpt>
      <trkpt lat="44.34717" lon="2.47096">
        <ele>607.2</ele>
        <time>2011-05-18T17:39:16Z</time>
      </trkpt>
      <trkpt lat="44.3472" lon="2.47101">
        <ele>607.9</ele>
        <time>2011-05-18T17:39:19Z</time>
      </trkpt>
      <trkpt lat="44.34722" lon="2.47104">
        <ele>608.5</ele>
        <time>2011-05-18T17:39:21Z</time>
      </trkpt>
      <trkpt lat="44.34724" lon="2.47107">
        <ele>609</ele>
        <time>2011-05-18T17:39:23Z</time>
      </trkpt>
      <trkpt lat="44.34727" lon="2.4711">
        <ele>609.7</ele>
        <time>2011-05-18T17:39:25Z</time>
      </trkpt>
      <trkpt lat="44.34729" lon="2.47115">
        <ele>610.3</ele>
        <time>2011-05-18T17:39:28Z</time>
      </trkpt>
      <trkpt lat="44.34731" lon="2.47118">
        <ele>610.8</ele>
        <time>2011-05-18T17:39:30Z</time>
      </trkpt>
      <trkpt lat="44.34734" lon="2.47123">
        <ele>611.3</ele>
        <time>2011-05-18T17:39:33Z</time>
      </trkpt>
      <trkpt lat="44.34737" lon="2.47128">
        <ele>611.8</ele>
        <time>2011-05-18T17:39:36Z</time>
      </trkpt>
      <trkpt lat="44.34739" lon="2.47132">
        <ele>612.4</ele>
        <time>2011-05-18T17:39:39Z</time>
      </trkpt>
      <trkpt lat="44.34742" lon="2.47137">
        <ele>613</ele>
        <time>2011-05-18T17:39:42Z</time>
      </trkpt>
      <trkpt lat="44.34744" lon="2.4714">
        <ele>613.3</ele>
        <time>2011-05-18T17:39:44Z</time>
      </trkpt>
      <trkpt lat="44.34746" lon="2.47143">
        <ele>613.8</ele>
        <time>2011-05-18T17:39:46Z</time>
      </trkpt>
      <trkpt lat="44.34749" lon="2.47148">
        <ele>614.4</ele>
        <time>2011-05-18T17:39:49Z</time>
      </trkpt>
      <trkpt lat="44.34752" lon="2.47152">
        <ele>614.5</ele>
        <time>2011-05-18T17:39:52Z</time>
      </trkpt>
      <trkpt lat="44.34753" lon="2.47154">
        <ele>614.6</ele>
        <time>2011-05-18T17:39:53Z</time>
      </trkpt>
      <trkpt lat="44.34756" lon="2.47162">
        <ele>614.7</ele>
        <time>2011-05-18T17:39:58Z</time>
      </trkpt>
      <trkpt lat="44.34758" lon="2.47166">
        <ele>614.8</ele>
        <time>2011-05-18T17:40:01Z</time>
      </trkpt>
      <trkpt lat="44.3476" lon="2.4717">
        <ele>615.1</ele>
        <time>2011-05-18T17:40:04Z</time>
      </trkpt>
      <trkpt lat="44.34763" lon="2.47175">
        <ele>615.5</ele>
        <time>2011-05-18T17:40:07Z</time>
      </trkpt>
      <trkpt lat="44.34765" lon="2.47179">
        <ele>615.8</ele>
        <time>2011-05-18T17:40:10Z</time>
      </trkpt>
      <trkpt lat="44.34766" lon="2.47184">
        <ele>615.9</ele>
        <time>2011-05-18T17:40:13Z</time>
      </trkpt>
      <trkpt lat="44.34767" lon="2.47189">
        <ele>616.2</ele>
        <time>2011-05-18T17:40:17Z</time>
      </trkpt>
      <trkpt lat="44.34768" lon="2.47195">
        <ele>616.3</ele>
        <time>2011-05-18T17:40:21Z</time>
      </trkpt>
      <trkpt lat="44.3477" lon="2.472">
        <ele>616.6</ele>
        <time>2011-05-18T17:40:24Z</time>
      </trkpt>
      <trkpt lat="44.34772" lon="2.47205">
        <ele>616.9</ele>
        <time>2011-05-18T17:40:27Z</time>
      </trkpt>
      <trkpt lat="44.34774" lon="2.4721">
        <ele>617.2</ele>
        <time>2011-05-18T17:40:30Z</time>
      </trkpt>
      <trkpt lat="44.34776" lon="2.47215">
        <ele>617.5</ele>
        <time>2011-05-18T17:40:42Z</time>
      </trkpt>
      <trkpt lat="44.34777" lon="2.47221">
        <ele>617.7</ele>
        <time>2011-05-18T17:40:47Z</time>
      </trkpt>
      <trkpt lat="44.34778" lon="2.47227">
        <ele>617.8</ele>
        <time>2011-05-18T17:41:11Z</time>
      </trkpt>
      <trkpt lat="44.34779" lon="2.47227">
        <ele>617.9</ele>
        <time>2011-05-18T17:41:12Z</time>
      </trkpt>
      <trkpt lat="44.34784" lon="2.47236">
        <ele>618.7</ele>
        <time>2011-05-18T17:41:48Z</time>
      </trkpt>
      <trkpt lat="44.34786" lon="2.4724">
        <ele>619.1</ele>
        <time>2011-05-18T17:41:58Z</time>
      </trkpt>
      <trkpt lat="44.34788" lon="2.47246">
        <ele>619.3</ele>
        <time>2011-05-18T17:42:10Z</time>
      </trkpt>
      <trkpt lat="44.34789" lon="2.47251">
        <ele>619.5</ele>
        <time>2011-05-18T17:42:24Z</time>
      </trkpt>
      <trkpt lat="44.3479" lon="2.47252">
        <ele>619.7</ele>
        <time>2011-05-18T17:42:25Z</time>
      </trkpt>
      <trkpt lat="44.34793" lon="2.47262">
        <ele>620.4</ele>
        <time>2011-05-18T17:42:42Z</time>
      </trkpt>
      <trkpt lat="44.34794" lon="2.47267">
        <ele>620.6</ele>
        <time>2011-05-18T17:42:56Z</time>
      </trkpt>
      <trkpt lat="44.34795" lon="2.47272">
        <ele>621</ele>
        <time>2011-05-18T17:43:00Z</time>
      </trkpt>
      <trkpt lat="44.34797" lon="2.47276">
        <ele>621.3</ele>
        <time>2011-05-18T17:43:03Z</time>
      </trkpt>
      <trkpt lat="44.34799" lon="2.47281">
        <ele>621.7</ele>
        <time>2011-05-18T17:43:06Z</time>
      </trkpt>
      <trkpt lat="44.348" lon="2.47286">
        <ele>621.9</ele>
        <time>2011-05-18T17:43:09Z</time>
      </trkpt>
      <trkpt lat="44.34802" lon="2.47291">
        <ele>622.3</ele>
        <time>2011-05-18T17:43:12Z</time>
      </trkpt>
      <trkpt lat="44.34803" lon="2.47295">
        <ele>622.4</ele>
        <time>2011-05-18T17:43:14Z</time>
      </trkpt>
      <trkpt lat="44.34804" lon="2.47299">
        <ele>622.7</ele>
        <time>2011-05-18T17:43:16Z</time>
      </trkpt>
      <trkpt lat="44.34806" lon="2.47304">
        <ele>622.9</ele>
        <time>2011-05-18T17:43:19Z</time>
      </trkpt>
      <trkpt lat="44.34808" lon="2.47309">
        <ele>623.2</ele>
        <time>2011-05-18T17:43:22Z</time>
      </trkpt>
      <trkpt lat="44.34809" lon="2.47315">
        <ele>623.4</ele>
        <time>2011-05-18T17:43:25Z</time>
      </trkpt>
      <trkpt lat="44.3481" lon="2.47316">
        <ele>623.5</ele>
        <time>2011-05-18T17:43:26Z</time>
      </trkpt>
      <trkpt lat="44.34812" lon="2.47324">
        <ele>623.8</ele>
        <time>2011-05-18T17:43:31Z</time>
      </trkpt>
      <trkpt lat="44.34814" lon="2.47329">
        <ele>623.9</ele>
        <time>2011-05-18T17:43:34Z</time>
      </trkpt>
      <trkpt lat="44.34816" lon="2.47333">
        <ele>624.1</ele>
        <time>2011-05-18T17:43:37Z</time>
      </trkpt>
      <trkpt lat="44.34818" lon="2.47339">
        <ele>624.4</ele>
        <time>2011-05-18T17:43:41Z</time>
      </trkpt>
      <trkpt lat="44.34819" lon="2.47343">
        <ele>624.6</ele>
        <time>2011-05-18T17:43:44Z</time>
      </trkpt>
      <trkpt lat="44.3482" lon="2.47348">
        <ele>624.7</ele>
        <time>2011-05-18T17:43:46Z</time>
      </trkpt>
      <trkpt lat="44.34822" lon="2.47353">
        <ele>625</ele>
        <time>2011-05-18T17:43:49Z</time>
      </trkpt>
      <trkpt lat="44.34825" lon="2.47357">
        <ele>625.4</ele>
        <time>2011-05-18T17:44:03Z</time>
      </trkpt>
      <trkpt lat="44.34829" lon="2.47361">
        <ele>625.8</ele>
        <time>2011-05-18T17:44:31Z</time>
      </trkpt>
      <trkpt lat="44.34829" lon="2.47362">
        <ele>625.9</ele>
        <time>2011-05-18T17:44:32Z</time>
      </trkpt>
      <trkpt lat="44.34832" lon="2.47369">
        <ele>626.3</ele>
        <time>2011-05-18T17:44:37Z</time>
      </trkpt>
      <trkpt lat="44.34834" lon="2.47374">
        <ele>626.5</ele>
        <time>2011-05-18T17:44:40Z</time>
      </trkpt>
      <trkpt lat="44.34836" lon="2.47378">
        <ele>626.5</ele>
        <time>2011-05-18T17:44:43Z</time>
      </trkpt>
      <trkpt lat="44.34839" lon="2.47383">
        <ele>626.6</ele>
        <time>2011-05-18T17:44:46Z</time>
      </trkpt>
      <trkpt lat="44.34841" lon="2.47388">
        <ele>626.7</ele>
        <time>2011-05-18T17:44:49Z</time>
      </trkpt>
      <trkpt lat="44.34844" lon="2.47392">
        <ele>626.8</ele>
        <time>2011-05-18T17:44:52Z</time>
      </trkpt>
      <trkpt lat="44.34846" lon="2.47397">
        <ele>626.8</ele>
        <time>2011-05-18T17:44:55Z</time>
      </trkpt>
      <trkpt lat="44.34849" lon="2.47401">
        <ele>626.9</ele>
        <time>2011-05-18T17:44:58Z</time>
      </trkpt>
      <trkpt lat="44.34852" lon="2.47406">
        <ele>627</ele>
        <time>2011-05-18T17:45:01Z</time>
      </trkpt>
      <trkpt lat="44.34855" lon="2.47411">
        <ele>627.1</ele>
        <time>2011-05-18T17:45:04Z</time>
      </trkpt>
      <trkpt lat="44.34857" lon="2.47416">
        <ele>627.3</ele>
        <time>2011-05-18T17:45:07Z</time>
      </trkpt>
      <trkpt lat="44.3486" lon="2.4742">
        <ele>627.4</ele>
        <time>2011-05-18T17:45:09Z</time>
      </trkpt>
      <trkpt lat="44.34862" lon="2.47424">
        <ele>627.6</ele>
        <time>2011-05-18T17:45:11Z</time>
      </trkpt>
      <trkpt lat="44.34864" lon="2.47427">
        <ele>627.7</ele>
        <time>2011-05-18T17:45:13Z</time>
      </trkpt>
      <trkpt lat="44.34867" lon="2.47432">
        <ele>627.9</ele>
        <time>2011-05-18T17:45:16Z</time>
      </trkpt>
      <trkpt lat="44.34869" lon="2.47436">
        <ele>628.1</ele>
        <time>2011-05-18T17:45:19Z</time>
      </trkpt>
      <trkpt lat="44.34872" lon="2.47441">
        <ele>628.3</ele>
        <time>2011-05-18T17:45:22Z</time>
      </trkpt>
      <trkpt lat="44.34874" lon="2.47445">
        <ele>628.5</ele>
        <time>2011-05-18T17:45:25Z</time>
      </trkpt>
      <trkpt lat="44.34876" lon="2.4745">
        <ele>628.7</ele>
        <time>2011-05-18T17:45:28Z</time>
      </trkpt>
      <trkpt lat="44.34878" lon="2.47456">
        <ele>629</ele>
        <time>2011-05-18T17:45:31Z</time>
      </trkpt>
      <trkpt lat="44.34879" lon="2.47461">
        <ele>629.2</ele>
        <time>2011-05-18T17:45:33Z</time>
      </trkpt>
      <trkpt lat="44.3488" lon="2.47463">
        <ele>629.3</ele>
        <time>2011-05-18T17:45:34Z</time>
      </trkpt>
      <trkpt lat="44.34883" lon="2.4747">
        <ele>629.6</ele>
        <time>2011-05-18T17:45:37Z</time>
      </trkpt>
      <trkpt lat="44.34884" lon="2.47475">
        <ele>629.8</ele>
        <time>2011-05-18T17:45:39Z</time>
      </trkpt>
      <trkpt lat="44.34885" lon="2.47479">
        <ele>630.1</ele>
        <time>2011-05-18T17:45:41Z</time>
      </trkpt>
      <trkpt lat="44.34886" lon="2.47484">
        <ele>630.2</ele>
        <time>2011-05-18T17:45:43Z</time>
      </trkpt>
      <trkpt lat="44.34887" lon="2.47489">
        <ele>630.5</ele>
        <time>2011-05-18T17:45:45Z</time>
      </trkpt>
      <trkpt lat="44.34887" lon="2.47494">
        <ele>630.7</ele>
        <time>2011-05-18T17:45:47Z</time>
      </trkpt>
      <trkpt lat="44.34887" lon="2.475">
        <ele>630.9</ele>
        <time>2011-05-18T17:45:49Z</time>
      </trkpt>
      <trkpt lat="44.34887" lon="2.47505">
        <ele>631</ele>
        <time>2011-05-18T17:45:51Z</time>
      </trkpt>
      <trkpt lat="44.34887" lon="2.4751">
        <ele>631.2</ele>
        <time>2011-05-18T17:45:53Z</time>
      </trkpt>
      <trkpt lat="44.34888" lon="2.47514">
        <ele>631.4</ele>
        <time>2011-05-18T17:45:55Z</time>
      </trkpt>
      <trkpt lat="44.34887" lon="2.4752">
        <ele>631.5</ele>
        <time>2011-05-18T17:45:57Z</time>
      </trkpt>
      <trkpt lat="44.34885" lon="2.47523">
        <ele>631.5</ele>
        <time>2011-05-18T17:45:58Z</time>
      </trkpt>
      <trkpt lat="44.34883" lon="2.47527">
        <ele>631.6</ele>
        <time>2011-05-18T17:46:00Z</time>
      </trkpt>
      <trkpt lat="44.3488" lon="2.47531">
        <ele>631.7</ele>
        <time>2011-05-18T17:46:03Z</time>
      </trkpt>
      <trkpt lat="44.34879" lon="2.47536">
        <ele>631.8</ele>
        <time>2011-05-18T17:46:05Z</time>
      </trkpt>
      <trkpt lat="44.34877" lon="2.4754">
        <ele>631.9</ele>
        <time>2011-05-18T17:46:07Z</time>
      </trkpt>
      <trkpt lat="44.34876" lon="2.47545">
        <ele>632.1</ele>
        <time>2011-05-18T17:46:09Z</time>
      </trkpt>
      <trkpt lat="44.34875" lon="2.47548">
        <ele>632.2</ele>
        <time>2011-05-18T17:46:10Z</time>
      </trkpt>
      <trkpt lat="44.34874" lon="2.47551">
        <ele>632.3</ele>
        <time>2011-05-18T17:46:11Z</time>
      </trkpt>
      <trkpt lat="44.34873" lon="2.47554">
        <ele>632.4</ele>
        <time>2011-05-18T17:46:12Z</time>
      </trkpt>
      <trkpt lat="44.34871" lon="2.47557">
        <ele>632.6</ele>
        <time>2011-05-18T17:46:13Z</time>
      </trkpt>
      <trkpt lat="44.3487" lon="2.4756">
        <ele>632.6</ele>
        <time>2011-05-18T17:46:14Z</time>
      </trkpt>
      <trkpt lat="44.34869" lon="2.47563">
        <ele>632.8</ele>
        <time>2011-05-18T17:46:15Z</time>
      </trkpt>
      <trkpt lat="44.34866" lon="2.47568">
        <ele>633</ele>
        <time>2011-05-18T17:46:17Z</time>
      </trkpt>
      <trkpt lat="44.34862" lon="2.47571">
        <ele>633.1</ele>
        <time>2011-05-18T17:46:19Z</time>
      </trkpt>
      <trkpt lat="44.34858" lon="2.47572">
        <ele>633.2</ele>
        <time>2011-05-18T17:46:21Z</time>
      </trkpt>
      <trkpt lat="44.34854" lon="2.4757">
        <ele>633.1</ele>
        <time>2011-05-18T17:46:23Z</time>
      </trkpt>
      <trkpt lat="44.34852" lon="2.47568">
        <ele>633</ele>
        <time>2011-05-18T17:46:24Z</time>
      </trkpt>
      <trkpt lat="44.3485" lon="2.47566">
        <ele>632.9</ele>
        <time>2011-05-18T17:46:25Z</time>
      </trkpt>
      <trkpt lat="44.34849" lon="2.47564">
        <ele>632.8</ele>
        <time>2011-05-18T17:46:26Z</time>
      </trkpt>
      <trkpt lat="44.34845" lon="2.4756">
        <ele>632.6</ele>
        <time>2011-05-18T17:46:28Z</time>
      </trkpt>
      <trkpt lat="44.34842" lon="2.47558">
        <ele>632.5</ele>
        <time>2011-05-18T17:46:31Z</time>
      </trkpt>
      <trkpt lat="44.34838" lon="2.47555">
        <ele>632.3</ele>
        <time>2011-05-18T17:46:34Z</time>
      </trkpt>
      <trkpt lat="44.34837" lon="2.47554">
        <ele>632.2</ele>
        <time>2011-05-18T17:46:35Z</time>
      </trkpt>
      <trkpt lat="44.34832" lon="2.4755">
        <ele>631.9</ele>
        <time>2011-05-18T17:46:38Z</time>
      </trkpt>
      <trkpt lat="44.34828" lon="2.47547">
        <ele>631.6</ele>
        <time>2011-05-18T17:46:40Z</time>
      </trkpt>
      <trkpt lat="44.34824" lon="2.47546">
        <ele>631.3</ele>
        <time>2011-05-18T17:46:42Z</time>
      </trkpt>
      <trkpt lat="44.3482" lon="2.47544">
        <ele>631</ele>
        <time>2011-05-18T17:46:44Z</time>
      </trkpt>
      <trkpt lat="44.34816" lon="2.47542">
        <ele>630.7</ele>
        <time>2011-05-18T17:46:46Z</time>
      </trkpt>
      <trkpt lat="44.34814" lon="2.47542">
        <ele>630.6</ele>
        <time>2011-05-18T17:46:47Z</time>
      </trkpt>
      <trkpt lat="44.34812" lon="2.47542">
        <ele>630.5</ele>
        <time>2011-05-18T17:46:48Z</time>
      </trkpt>
      <trkpt lat="44.3481" lon="2.47541">
        <ele>630.3</ele>
        <time>2011-05-18T17:46:49Z</time>
      </trkpt>
      <trkpt lat="44.34805" lon="2.4754">
        <ele>630</ele>
        <time>2011-05-18T17:46:51Z</time>
      </trkpt>
      <trkpt lat="44.34801" lon="2.47539">
        <ele>629.7</ele>
        <time>2011-05-18T17:46:53Z</time>
      </trkpt>
      <trkpt lat="44.34797" lon="2.47538">
        <ele>629.5</ele>
        <time>2011-05-18T17:46:55Z</time>
      </trkpt>
      <trkpt lat="44.34793" lon="2.47538">
        <ele>629.3</ele>
        <time>2011-05-18T17:46:57Z</time>
      </trkpt>
      <trkpt lat="44.34789" lon="2.47537">
        <ele>629</ele>
        <time>2011-05-18T17:46:59Z</time>
      </trkpt>
      <trkpt lat="44.34785" lon="2.47537">
        <ele>628.8</ele>
        <time>2011-05-18T17:47:01Z</time>
      </trkpt>
      <trkpt lat="44.34781" lon="2.47536">
        <ele>628.6</ele>
        <time>2011-05-18T17:47:03Z</time>
      </trkpt>
      <trkpt lat="44.34777" lon="2.47537">
        <ele>628.4</ele>
        <time>2011-05-18T17:47:05Z</time>
      </trkpt>
      <trkpt lat="44.34774" lon="2.47536">
        <ele>628.2</ele>
        <time>2011-05-18T17:47:07Z</time>
      </trkpt>
      <trkpt lat="44.3477" lon="2.47537">
        <ele>628.1</ele>
        <time>2011-05-18T17:47:09Z</time>
      </trkpt>
      <trkpt lat="44.34767" lon="2.47538">
        <ele>628</ele>
        <time>2011-05-18T17:47:11Z</time>
      </trkpt>
      <trkpt lat="44.34763" lon="2.47538">
        <ele>627.8</ele>
        <time>2011-05-18T17:47:13Z</time>
      </trkpt>
      <trkpt lat="44.34759" lon="2.47539">
        <ele>627.7</ele>
        <time>2011-05-18T17:47:15Z</time>
      </trkpt>
      <trkpt lat="44.34755" lon="2.47539">
        <ele>627.5</ele>
        <time>2011-05-18T17:47:17Z</time>
      </trkpt>
      <trkpt lat="44.34751" lon="2.4754">
        <ele>627.5</ele>
        <time>2011-05-18T17:47:19Z</time>
      </trkpt>
      <trkpt lat="44.34748" lon="2.47541">
        <ele>627.6</ele>
        <time>2011-05-18T17:47:21Z</time>
      </trkpt>
      <trkpt lat="44.34744" lon="2.47542">
        <ele>628</ele>
        <time>2011-05-18T17:47:23Z</time>
      </trkpt>
      <trkpt lat="44.3474" lon="2.47543">
        <ele>628.4</ele>
        <time>2011-05-18T17:47:25Z</time>
      </trkpt>
      <trkpt lat="44.34737" lon="2.47545">
        <ele>628.8</ele>
        <time>2011-05-18T17:47:27Z</time>
      </trkpt>
      <trkpt lat="44.34733" lon="2.47545">
        <ele>629.2</ele>
        <time>2011-05-18T17:47:29Z</time>
      </trkpt>
      <trkpt lat="44.34731" lon="2.47546">
        <ele>629.4</ele>
        <time>2011-05-18T17:47:30Z</time>
      </trkpt>
      <trkpt lat="44.34729" lon="2.47547">
        <ele>629.7</ele>
        <time>2011-05-18T17:47:31Z</time>
      </trkpt>
      <trkpt lat="44.34726" lon="2.47548">
        <ele>629.9</ele>
        <time>2011-05-18T17:47:32Z</time>
      </trkpt>
      <trkpt lat="44.34722" lon="2.4755">
        <ele>630.4</ele>
        <time>2011-05-18T17:47:34Z</time>
      </trkpt>
      <trkpt lat="44.34718" lon="2.47551">
        <ele>630.9</ele>
        <time>2011-05-18T17:47:36Z</time>
      </trkpt>
      <trkpt lat="44.34716" lon="2.47552">
        <ele>631.1</ele>
        <time>2011-05-18T17:47:37Z</time>
      </trkpt>
      <trkpt lat="44.34714" lon="2.47553">
        <ele>631.3</ele>
        <time>2011-05-18T17:47:38Z</time>
      </trkpt>
      <trkpt lat="44.34709" lon="2.47555">
        <ele>631.9</ele>
        <time>2011-05-18T17:47:40Z</time>
      </trkpt>
      <trkpt lat="44.34705" lon="2.47558">
        <ele>632.4</ele>
        <time>2011-05-18T17:47:42Z</time>
      </trkpt>
      <trkpt lat="44.34701" lon="2.4756">
        <ele>632.9</ele>
        <time>2011-05-18T17:47:44Z</time>
      </trkpt>
      <trkpt lat="44.34699" lon="2.47561">
        <ele>633.1</ele>
        <time>2011-05-18T17:47:45Z</time>
      </trkpt>
      <trkpt lat="44.34695" lon="2.47564">
        <ele>633.6</ele>
        <time>2011-05-18T17:47:47Z</time>
      </trkpt>
      <trkpt lat="44.34691" lon="2.47567">
        <ele>634.1</ele>
        <time>2011-05-18T17:47:49Z</time>
      </trkpt>
      <trkpt lat="44.34688" lon="2.47569">
        <ele>634.5</ele>
        <time>2011-05-18T17:47:51Z</time>
      </trkpt>
      <trkpt lat="44.34684" lon="2.47571">
        <ele>634.9</ele>
        <time>2011-05-18T17:47:53Z</time>
      </trkpt>
      <trkpt lat="44.3468" lon="2.47573">
        <ele>635.4</ele>
        <time>2011-05-18T17:47:57Z</time>
      </trkpt>
      <trkpt lat="44.34679" lon="2.47579">
        <ele>635.8</ele>
        <time>2011-05-18T17:48:01Z</time>
      </trkpt>
      <trkpt lat="44.34681" lon="2.47582">
        <ele>635.9</ele>
        <time>2011-05-18T17:48:03Z</time>
      </trkpt>
      <trkpt lat="44.34683" lon="2.47586">
        <ele>636</ele>
        <time>2011-05-18T17:48:05Z</time>
      </trkpt>
      <trkpt lat="44.34686" lon="2.4759">
        <ele>636</ele>
        <time>2011-05-18T17:48:07Z</time>
      </trkpt>
      <trkpt lat="44.34689" lon="2.47594">
        <ele>636</ele>
        <time>2011-05-18T17:48:09Z</time>
      </trkpt>
      <trkpt lat="44.34692" lon="2.47598">
        <ele>636.1</ele>
        <time>2011-05-18T17:48:11Z</time>
      </trkpt>
      <trkpt lat="44.34695" lon="2.47602">
        <ele>636.1</ele>
        <time>2011-05-18T17:48:13Z</time>
      </trkpt>
      <trkpt lat="44.34697" lon="2.47604">
        <ele>636.1</ele>
        <time>2011-05-18T17:48:14Z</time>
      </trkpt>
      <trkpt lat="44.34699" lon="2.47606">
        <ele>636.1</ele>
        <time>2011-05-18T17:48:15Z</time>
      </trkpt>
      <trkpt lat="44.34701" lon="2.47609">
        <ele>636.1</ele>
        <time>2011-05-18T17:48:16Z</time>
      </trkpt>
      <trkpt lat="44.34703" lon="2.47611">
        <ele>636.2</ele>
        <time>2011-05-18T17:48:17Z</time>
      </trkpt>
      <trkpt lat="44.34704" lon="2.47613">
        <ele>636.2</ele>
        <time>2011-05-18T17:48:18Z</time>
      </trkpt>
      <trkpt lat="44.34706" lon="2.47615">
        <ele>636.2</ele>
        <time>2011-05-18T17:48:19Z</time>
      </trkpt>
      <trkpt lat="44.34708" lon="2.47618">
        <ele>636.3</ele>
        <time>2011-05-18T17:48:20Z</time>
      </trkpt>
      <trkpt lat="44.34709" lon="2.4762">
        <ele>636.3</ele>
        <time>2011-05-18T17:48:21Z</time>
      </trkpt>
      <trkpt lat="44.34711" lon="2.47623">
        <ele>636.4</ele>
        <time>2011-05-18T17:48:22Z</time>
      </trkpt>
      <trkpt lat="44.34713" lon="2.47625">
        <ele>636.3</ele>
        <time>2011-05-18T17:48:23Z</time>
      </trkpt>
      <trkpt lat="44.34715" lon="2.47627">
        <ele>636.4</ele>
        <time>2011-05-18T17:48:24Z</time>
      </trkpt>
      <trkpt lat="44.34717" lon="2.47629">
        <ele>636.5</ele>
        <time>2011-05-18T17:48:25Z</time>
      </trkpt>
      <trkpt lat="44.34719" lon="2.47632">
        <ele>636.5</ele>
        <time>2011-05-18T17:48:26Z</time>
      </trkpt>
      <trkpt lat="44.34721" lon="2.47634">
        <ele>636.6</ele>
        <time>2011-05-18T17:48:27Z</time>
      </trkpt>
      <trkpt lat="44.34723" lon="2.47637">
        <ele>636.5</ele>
        <time>2011-05-18T17:48:28Z</time>
      </trkpt>
      <trkpt lat="44.34725" lon="2.47639">
        <ele>636.6</ele>
        <time>2011-05-18T17:48:29Z</time>
      </trkpt>
      <trkpt lat="44.34726" lon="2.47642">
        <ele>636.6</ele>
        <time>2011-05-18T17:48:30Z</time>
      </trkpt>
      <trkpt lat="44.34728" lon="2.47644">
        <ele>636.7</ele>
        <time>2011-05-18T17:48:31Z</time>
      </trkpt>
      <trkpt lat="44.3473" lon="2.47647">
        <ele>636.8</ele>
        <time>2011-05-18T17:48:32Z</time>
      </trkpt>
      <trkpt lat="44.34732" lon="2.4765">
        <ele>636.9</ele>
        <time>2011-05-18T17:48:33Z</time>
      </trkpt>
      <trkpt lat="44.34734" lon="2.47652">
        <ele>636.9</ele>
        <time>2011-05-18T17:48:34Z</time>
      </trkpt>
      <trkpt lat="44.34736" lon="2.47655">
        <ele>637</ele>
        <time>2011-05-18T17:48:35Z</time>
      </trkpt>
      <trkpt lat="44.34738" lon="2.47658">
        <ele>637.1</ele>
        <time>2011-05-18T17:48:36Z</time>
      </trkpt>
      <trkpt lat="44.34741" lon="2.47661">
        <ele>637.1</ele>
        <time>2011-05-18T17:48:37Z</time>
      </trkpt>
      <trkpt lat="44.34743" lon="2.47664">
        <ele>637.1</ele>
        <time>2011-05-18T17:48:38Z</time>
      </trkpt>
      <trkpt lat="44.34746" lon="2.47667">
        <ele>637.3</ele>
        <time>2011-05-18T17:48:39Z</time>
      </trkpt>
      <trkpt lat="44.34748" lon="2.4767">
        <ele>637.3</ele>
        <time>2011-05-18T17:48:40Z</time>
      </trkpt>
      <trkpt lat="44.3475" lon="2.47673">
        <ele>637.6</ele>
        <time>2011-05-18T17:48:41Z</time>
      </trkpt>
      <trkpt lat="44.34753" lon="2.47677">
        <ele>637.8</ele>
        <time>2011-05-18T17:48:42Z</time>
      </trkpt>
      <trkpt lat="44.34755" lon="2.4768">
        <ele>638.1</ele>
        <time>2011-05-18T17:48:43Z</time>
      </trkpt>
      <trkpt lat="44.34758" lon="2.47683">
        <ele>638.4</ele>
        <time>2011-05-18T17:48:44Z</time>
      </trkpt>
      <trkpt lat="44.3476" lon="2.47686">
        <ele>638.7</ele>
        <time>2011-05-18T17:48:45Z</time>
      </trkpt>
      <trkpt lat="44.34762" lon="2.47689">
        <ele>639</ele>
        <time>2011-05-18T17:48:46Z</time>
      </trkpt>
      <trkpt lat="44.34765" lon="2.47693">
        <ele>639.2</ele>
        <time>2011-05-18T17:48:47Z</time>
      </trkpt>
      <trkpt lat="44.34767" lon="2.47696">
        <ele>639.5</ele>
        <time>2011-05-18T17:48:48Z</time>
      </trkpt>
      <trkpt lat="44.3477" lon="2.47699">
        <ele>639.8</ele>
        <time>2011-05-18T17:48:49Z</time>
      </trkpt>
      <trkpt lat="44.34772" lon="2.47702">
        <ele>640.1</ele>
        <time>2011-05-18T17:48:50Z</time>
      </trkpt>
      <trkpt lat="44.34775" lon="2.47706">
        <ele>640.3</ele>
        <time>2011-05-18T17:48:51Z</time>
      </trkpt>
      <trkpt lat="44.34778" lon="2.47709">
        <ele>640.7</ele>
        <time>2011-05-18T17:48:52Z</time>
      </trkpt>
      <trkpt lat="44.3478" lon="2.47712">
        <ele>641</ele>
        <time>2011-05-18T17:48:53Z</time>
      </trkpt>
      <trkpt lat="44.34782" lon="2.47716">
        <ele>641.2</ele>
        <time>2011-05-18T17:48:54Z</time>
      </trkpt>
      <trkpt lat="44.34785" lon="2.47719">
        <ele>641.5</ele>
        <time>2011-05-18T17:48:55Z</time>
      </trkpt>
      <trkpt lat="44.34787" lon="2.47723">
        <ele>641.9</ele>
        <time>2011-05-18T17:48:56Z</time>
      </trkpt>
      <trkpt lat="44.3479" lon="2.47726">
        <ele>642.1</ele>
        <time>2011-05-18T17:48:57Z</time>
      </trkpt>
      <trkpt lat="44.34793" lon="2.47729">
        <ele>642.4</ele>
        <time>2011-05-18T17:48:58Z</time>
      </trkpt>
      <trkpt lat="44.34795" lon="2.47733">
        <ele>642.6</ele>
        <time>2011-05-18T17:48:59Z</time>
      </trkpt>
      <trkpt lat="44.34798" lon="2.47736">
        <ele>642.9</ele>
        <time>2011-05-18T17:49:00Z</time>
      </trkpt>
      <trkpt lat="44.348" lon="2.4774">
        <ele>643.2</ele>
        <time>2011-05-18T17:49:01Z</time>
      </trkpt>
      <trkpt lat="44.34803" lon="2.47744">
        <ele>643.5</ele>
        <time>2011-05-18T17:49:02Z</time>
      </trkpt>
      <trkpt lat="44.34805" lon="2.47747">
        <ele>643.8</ele>
        <time>2011-05-18T17:49:03Z</time>
      </trkpt>
      <trkpt lat="44.34808" lon="2.47751">
        <ele>644</ele>
        <time>2011-05-18T17:49:04Z</time>
      </trkpt>
      <trkpt lat="44.3481" lon="2.47755">
        <ele>644.1</ele>
        <time>2011-05-18T17:49:05Z</time>
      </trkpt>
      <trkpt lat="44.34813" lon="2.47758">
        <ele>644.3</ele>
        <time>2011-05-18T17:49:06Z</time>
      </trkpt>
      <trkpt lat="44.34815" lon="2.47762">
        <ele>644.4</ele>
        <time>2011-05-18T17:49:07Z</time>
      </trkpt>
      <trkpt lat="44.34817" lon="2.47766">
        <ele>644.6</ele>
        <time>2011-05-18T17:49:08Z</time>
      </trkpt>
      <trkpt lat="44.3482" lon="2.4777">
        <ele>644.7</ele>
        <time>2011-05-18T17:49:09Z</time>
      </trkpt>
      <trkpt lat="44.34822" lon="2.47773">
        <ele>644.8</ele>
        <time>2011-05-18T17:49:10Z</time>
      </trkpt>
      <trkpt lat="44.34825" lon="2.47777">
        <ele>645</ele>
        <time>2011-05-18T17:49:11Z</time>
      </trkpt>
      <trkpt lat="44.34827" lon="2.47781">
        <ele>645.1</ele>
        <time>2011-05-18T17:49:12Z</time>
      </trkpt>
      <trkpt lat="44.34829" lon="2.47785">
        <ele>645.3</ele>
        <time>2011-05-18T17:49:13Z</time>
      </trkpt>
      <trkpt lat="44.34831" lon="2.47789">
        <ele>645.4</ele>
        <time>2011-05-18T17:49:14Z</time>
      </trkpt>
      <trkpt lat="44.34833" lon="2.47793">
        <ele>645.5</ele>
        <time>2011-05-18T17:49:15Z</time>
      </trkpt>
      <trkpt lat="44.34836" lon="2.47797">
        <ele>645.6</ele>
        <time>2011-05-18T17:49:16Z</time>
      </trkpt>
      <trkpt lat="44.34838" lon="2.47801">
        <ele>645.6</ele>
        <time>2011-05-18T17:49:17Z</time>
      </trkpt>
      <trkpt lat="44.3484" lon="2.47804">
        <ele>645.7</ele>
        <time>2011-05-18T17:49:18Z</time>
      </trkpt>
      <trkpt lat="44.34842" lon="2.47808">
        <ele>645.7</ele>
        <time>2011-05-18T17:49:19Z</time>
      </trkpt>
      <trkpt lat="44.34844" lon="2.47812">
        <ele>645.8</ele>
        <time>2011-05-18T17:49:20Z</time>
      </trkpt>
      <trkpt lat="44.34846" lon="2.47815">
        <ele>645.9</ele>
        <time>2011-05-18T17:49:21Z</time>
      </trkpt>
      <trkpt lat="44.34848" lon="2.47819">
        <ele>645.9</ele>
        <time>2011-05-18T17:49:22Z</time>
      </trkpt>
      <trkpt lat="44.3485" lon="2.47823">
        <ele>646</ele>
        <time>2011-05-18T17:49:23Z</time>
      </trkpt>
      <trkpt lat="44.34852" lon="2.47827">
        <ele>646.1</ele>
        <time>2011-05-18T17:49:24Z</time>
      </trkpt>
      <trkpt lat="44.34854" lon="2.47831">
        <ele>646.1</ele>
        <time>2011-05-18T17:49:25Z</time>
      </trkpt>
      <trkpt lat="44.34856" lon="2.47835">
        <ele>646.2</ele>
        <time>2011-05-18T17:49:26Z</time>
      </trkpt>
      <trkpt lat="44.34858" lon="2.47839">
        <ele>646.1</ele>
        <time>2011-05-18T17:49:27Z</time>
      </trkpt>
      <trkpt lat="44.34861" lon="2.47842">
        <ele>646.1</ele>
        <time>2011-05-18T17:49:28Z</time>
      </trkpt>
      <trkpt lat="44.34863" lon="2.47846">
        <ele>646</ele>
        <time>2011-05-18T17:49:29Z</time>
      </trkpt>
      <trkpt lat="44.34865" lon="2.4785">
        <ele>646</ele>
        <time>2011-05-18T17:49:30Z</time>
      </trkpt>
      <trkpt lat="44.34867" lon="2.47853">
        <ele>645.9</ele>
        <time>2011-05-18T17:49:31Z</time>
      </trkpt>
      <trkpt lat="44.34869" lon="2.47857">
        <ele>645.9</ele>
        <time>2011-05-18T17:49:32Z</time>
      </trkpt>
      <trkpt lat="44.34871" lon="2.47861">
        <ele>645.8</ele>
        <time>2011-05-18T17:49:33Z</time>
      </trkpt>
      <trkpt lat="44.34873" lon="2.47864">
        <ele>645.8</ele>
        <time>2011-05-18T17:49:34Z</time>
      </trkpt>
      <trkpt lat="44.34875" lon="2.47867">
        <ele>645.7</ele>
        <time>2011-05-18T17:49:35Z</time>
      </trkpt>
      <trkpt lat="44.34877" lon="2.47871">
        <ele>645.6</ele>
        <time>2011-05-18T17:49:36Z</time>
      </trkpt>
      <trkpt lat="44.34879" lon="2.47874">
        <ele>645.6</ele>
        <time>2011-05-18T17:49:37Z</time>
      </trkpt>
      <trkpt lat="44.34881" lon="2.47878">
        <ele>645.5</ele>
        <time>2011-05-18T17:49:38Z</time>
      </trkpt>
      <trkpt lat="44.34883" lon="2.47882">
        <ele>645.4</ele>
        <time>2011-05-18T17:49:39Z</time>
      </trkpt>
      <trkpt lat="44.34885" lon="2.47886">
        <ele>645.4</ele>
        <time>2011-05-18T17:49:40Z</time>
      </trkpt>
      <trkpt lat="44.34887" lon="2.47889">
        <ele>645.3</ele>
        <time>2011-05-18T17:49:41Z</time>
      </trkpt>
      <trkpt lat="44.34889" lon="2.47892">
        <ele>645.2</ele>
        <time>2011-05-18T17:49:42Z</time>
      </trkpt>
      <trkpt lat="44.34892" lon="2.47896">
        <ele>645.1</ele>
        <time>2011-05-18T17:49:43Z</time>
      </trkpt>
      <trkpt lat="44.34894" lon="2.47899">
        <ele>645</ele>
        <time>2011-05-18T17:49:44Z</time>
      </trkpt>
      <trkpt lat="44.34897" lon="2.47903">
        <ele>644.9</ele>
        <time>2011-05-18T17:49:45Z</time>
      </trkpt>
      <trkpt lat="44.34899" lon="2.47906">
        <ele>644.8</ele>
        <time>2011-05-18T17:49:46Z</time>
      </trkpt>
      <trkpt lat="44.34902" lon="2.4791">
        <ele>644.7</ele>
        <time>2011-05-18T17:49:47Z</time>
      </trkpt>
      <trkpt lat="44.34904" lon="2.47913">
        <ele>644.6</ele>
        <time>2011-05-18T17:49:48Z</time>
      </trkpt>
      <trkpt lat="44.34907" lon="2.47917">
        <ele>644.5</ele>
        <time>2011-05-18T17:49:49Z</time>
      </trkpt>
      <trkpt lat="44.3491" lon="2.47921">
        <ele>644.3</ele>
        <time>2011-05-18T17:49:50Z</time>
      </trkpt>
      <trkpt lat="44.34913" lon="2.47925">
        <ele>644.3</ele>
        <time>2011-05-18T17:49:51Z</time>
      </trkpt>
      <trkpt lat="44.34915" lon="2.47929">
        <ele>644.2</ele>
        <time>2011-05-18T17:49:52Z</time>
      </trkpt>
      <trkpt lat="44.34918" lon="2.47932">
        <ele>644.1</ele>
        <time>2011-05-18T17:49:53Z</time>
      </trkpt>
      <trkpt lat="44.34921" lon="2.47936">
        <ele>643.8</ele>
        <time>2011-05-18T17:49:54Z</time>
      </trkpt>
      <trkpt lat="44.34924" lon="2.4794">
        <ele>643.6</ele>
        <time>2011-05-18T17:49:55Z</time>
      </trkpt>
      <trkpt lat="44.34927" lon="2.47943">
        <ele>643.5</ele>
        <time>2011-05-18T17:49:56Z</time>
      </trkpt>
      <trkpt lat="44.34929" lon="2.47947">
        <ele>643.3</ele>
        <time>2011-05-18T17:49:57Z</time>
      </trkpt>
      <trkpt lat="44.34932" lon="2.4795">
        <ele>643.1</ele>
        <time>2011-05-18T17:49:58Z</time>
      </trkpt>
      <trkpt lat="44.34935" lon="2.47954">
        <ele>643</ele>
        <time>2011-05-18T17:49:59Z</time>
      </trkpt>
      <trkpt lat="44.34937" lon="2.47958">
        <ele>642.8</ele>
        <time>2011-05-18T17:50:00Z</time>
      </trkpt>
      <trkpt lat="44.3494" lon="2.47962">
        <ele>642.7</ele>
        <time>2011-05-18T17:50:01Z</time>
      </trkpt>
      <trkpt lat="44.34943" lon="2.47966">
        <ele>642.6</ele>
        <time>2011-05-18T17:50:02Z</time>
      </trkpt>
      <trkpt lat="44.34946" lon="2.47971">
        <ele>642.5</ele>
        <time>2011-05-18T17:50:03Z</time>
      </trkpt>
      <trkpt lat="44.34948" lon="2.47975">
        <ele>642.5</ele>
        <time>2011-05-18T17:50:04Z</time>
      </trkpt>
      <trkpt lat="44.34951" lon="2.4798">
        <ele>642.4</ele>
        <time>2011-05-18T17:50:05Z</time>
      </trkpt>
      <trkpt lat="44.34954" lon="2.47984">
        <ele>642.3</ele>
        <time>2011-05-18T17:50:06Z</time>
      </trkpt>
      <trkpt lat="44.34957" lon="2.47989">
        <ele>642.2</ele>
        <time>2011-05-18T17:50:07Z</time>
      </trkpt>
      <trkpt lat="44.3496" lon="2.47994">
        <ele>642.2</ele>
        <time>2011-05-18T17:50:08Z</time>
      </trkpt>
      <trkpt lat="44.34963" lon="2.47999">
        <ele>642.2</ele>
        <time>2011-05-18T17:50:09Z</time>
      </trkpt>
      <trkpt lat="44.34965" lon="2.48003">
        <ele>642.2</ele>
        <time>2011-05-18T17:50:10Z</time>
      </trkpt>
      <trkpt lat="44.34968" lon="2.48008">
        <ele>642.3</ele>
        <time>2011-05-18T17:50:11Z</time>
      </trkpt>
      <trkpt lat="44.3497" lon="2.48012">
        <ele>642.5</ele>
        <time>2011-05-18T17:50:12Z</time>
      </trkpt>
      <trkpt lat="44.34972" lon="2.48016">
        <ele>642.6</ele>
        <time>2011-05-18T17:50:13Z</time>
      </trkpt>
      <trkpt lat="44.34975" lon="2.48019">
        <ele>642.6</ele>
        <time>2011-05-18T17:50:14Z</time>
      </trkpt>
      <trkpt lat="44.34976" lon="2.48023">
        <ele>642.8</ele>
        <time>2011-05-18T17:50:15Z</time>
      </trkpt>
      <trkpt lat="44.34977" lon="2.48027">
        <ele>643</ele>
        <time>2011-05-18T17:50:16Z</time>
      </trkpt>
      <trkpt lat="44.34976" lon="2.4803">
        <ele>643.3</ele>
        <time>2011-05-18T17:50:17Z</time>
      </trkpt>
      <trkpt lat="44.34975" lon="2.48033">
        <ele>643.5</ele>
        <time>2011-05-18T17:50:18Z</time>
      </trkpt>
      <trkpt lat="44.34972" lon="2.48035">
        <ele>643.8</ele>
        <time>2011-05-18T17:50:19Z</time>
      </trkpt>
      <trkpt lat="44.34968" lon="2.48037">
        <ele>644.1</ele>
        <time>2011-05-18T17:50:20Z</time>
      </trkpt>
      <trkpt lat="44.34963" lon="2.48039">
        <ele>644.3</ele>
        <time>2011-05-18T17:50:21Z</time>
      </trkpt>
      <trkpt lat="44.34958" lon="2.48041">
        <ele>644.7</ele>
        <time>2011-05-18T17:50:22Z</time>
      </trkpt>
      <trkpt lat="44.34953" lon="2.48043">
        <ele>645.1</ele>
        <time>2011-05-18T17:50:23Z</time>
      </trkpt>
      <trkpt lat="44.34946" lon="2.48046">
        <ele>645.4</ele>
        <time>2011-05-18T17:50:24Z</time>
      </trkpt>
      <trkpt lat="44.3494" lon="2.48049">
        <ele>645.8</ele>
        <time>2011-05-18T17:50:25Z</time>
      </trkpt>
      <trkpt lat="44.34933" lon="2.48051">
        <ele>646.2</ele>
        <time>2011-05-18T17:50:26Z</time>
      </trkpt>
      <trkpt lat="44.34926" lon="2.48056">
        <ele>646.6</ele>
        <time>2011-05-18T17:50:27Z</time>
      </trkpt>
      <trkpt lat="44.34918" lon="2.4806">
        <ele>647.1</ele>
        <time>2011-05-18T17:50:28Z</time>
      </trkpt>
      <trkpt lat="44.34911" lon="2.48064">
        <ele>646.9</ele>
        <time>2011-05-18T17:50:29Z</time>
      </trkpt>
      <trkpt lat="44.34903" lon="2.48068">
        <ele>646.5</ele>
        <time>2011-05-18T17:50:30Z</time>
      </trkpt>
      <trkpt lat="44.34895" lon="2.48072">
        <ele>646.1</ele>
        <time>2011-05-18T17:50:31Z</time>
      </trkpt>
      <trkpt lat="44.34888" lon="2.48075">
        <ele>645.5</ele>
        <time>2011-05-18T17:50:32Z</time>
      </trkpt>
      <trkpt lat="44.3488" lon="2.48078">
        <ele>645</ele>
        <time>2011-05-18T17:50:33Z</time>
      </trkpt>
      <trkpt lat="44.34873" lon="2.4808">
        <ele>644.4</ele>
        <time>2011-05-18T17:50:34Z</time>
      </trkpt>
      <trkpt lat="44.34866" lon="2.48083">
        <ele>643.8</ele>
        <time>2011-05-18T17:50:35Z</time>
      </trkpt>
      <trkpt lat="44.34859" lon="2.48085">
        <ele>643.2</ele>
        <time>2011-05-18T17:50:36Z</time>
      </trkpt>
      <trkpt lat="44.34852" lon="2.48087">
        <ele>642.7</ele>
        <time>2011-05-18T17:50:37Z</time>
      </trkpt>
      <trkpt lat="44.34846" lon="2.48089">
        <ele>642.2</ele>
        <time>2011-05-18T17:50:38Z</time>
      </trkpt>
      <trkpt lat="44.34839" lon="2.48091">
        <ele>641.6</ele>
        <time>2011-05-18T17:50:39Z</time>
      </trkpt>
      <trkpt lat="44.34833" lon="2.48093">
        <ele>641.1</ele>
        <time>2011-05-18T17:50:40Z</time>
      </trkpt>
      <trkpt lat="44.34827" lon="2.48095">
        <ele>641</ele>
        <time>2011-05-18T17:50:41Z</time>
      </trkpt>
      <trkpt lat="44.34821" lon="2.48097">
        <ele>640.8</ele>
        <time>2011-05-18T17:50:42Z</time>
      </trkpt>
      <trkpt lat="44.34815" lon="2.48099">
        <ele>640.6</ele>
        <time>2011-05-18T17:50:43Z</time>
      </trkpt>
      <trkpt lat="44.3481" lon="2.481">
        <ele>640.4</ele>
        <time>2011-05-18T17:50:44Z</time>
      </trkpt>
      <trkpt lat="44.34804" lon="2.48102">
        <ele>640.1</ele>
        <time>2011-05-18T17:50:45Z</time>
      </trkpt>
      <trkpt lat="44.34798" lon="2.48104">
        <ele>639.8</ele>
        <time>2011-05-18T17:50:46Z</time>
      </trkpt>
      <trkpt lat="44.34793" lon="2.48105">
        <ele>639.6</ele>
        <time>2011-05-18T17:50:47Z</time>
      </trkpt>
      <trkpt lat="44.34788" lon="2.48107">
        <ele>639.2</ele>
        <time>2011-05-18T17:50:48Z</time>
      </trkpt>
      <trkpt lat="44.34783" lon="2.48108">
        <ele>638.9</ele>
        <time>2011-05-18T17:50:49Z</time>
      </trkpt>
      <trkpt lat="44.34777" lon="2.48111">
        <ele>638.5</ele>
        <time>2011-05-18T17:50:50Z</time>
      </trkpt>
      <trkpt lat="44.34772" lon="2.48113">
        <ele>638</ele>
        <time>2011-05-18T17:50:51Z</time>
      </trkpt>
      <trkpt lat="44.34767" lon="2.48116">
        <ele>637.5</ele>
        <time>2011-05-18T17:50:52Z</time>
      </trkpt>
      <trkpt lat="44.34762" lon="2.48119">
        <ele>637</ele>
        <time>2011-05-18T17:50:53Z</time>
      </trkpt>
      <trkpt lat="44.34758" lon="2.48122">
        <ele>636.3</ele>
        <time>2011-05-18T17:50:54Z</time>
      </trkpt>
      <trkpt lat="44.34753" lon="2.48126">
        <ele>635.7</ele>
        <time>2011-05-18T17:50:55Z</time>
      </trkpt>
      <trkpt lat="44.34748" lon="2.4813">
        <ele>635</ele>
        <time>2011-05-18T17:50:56Z</time>
      </trkpt>
      <trkpt lat="44.34743" lon="2.48135">
        <ele>634.6</ele>
        <time>2011-05-18T17:50:57Z</time>
      </trkpt>
      <trkpt lat="44.34739" lon="2.4814">
        <ele>634.2</ele>
        <time>2011-05-18T17:50:58Z</time>
      </trkpt>
      <trkpt lat="44.34734" lon="2.48145">
        <ele>633.7</ele>
        <time>2011-05-18T17:50:59Z</time>
      </trkpt>
      <trkpt lat="44.3473" lon="2.4815">
        <ele>633.3</ele>
        <time>2011-05-18T17:51:00Z</time>
      </trkpt>
      <trkpt lat="44.34726" lon="2.48156">
        <ele>632.7</ele>
        <time>2011-05-18T17:51:01Z</time>
      </trkpt>
      <trkpt lat="44.34722" lon="2.48163">
        <ele>632.1</ele>
        <time>2011-05-18T17:51:02Z</time>
      </trkpt>
      <trkpt lat="44.34719" lon="2.48171">
        <ele>631.6</ele>
        <time>2011-05-18T17:51:03Z</time>
      </trkpt>
      <trkpt lat="44.34716" lon="2.48178">
        <ele>631.3</ele>
        <time>2011-05-18T17:51:04Z</time>
      </trkpt>
      <trkpt lat="44.34712" lon="2.48186">
        <ele>631</ele>
        <time>2011-05-18T17:51:05Z</time>
      </trkpt>
      <trkpt lat="44.34708" lon="2.48193">
        <ele>630.6</ele>
        <time>2011-05-18T17:51:06Z</time>
      </trkpt>
      <trkpt lat="44.34703" lon="2.482">
        <ele>630.2</ele>
        <time>2011-05-18T17:51:07Z</time>
      </trkpt>
      <trkpt lat="44.34699" lon="2.48207">
        <ele>629.9</ele>
        <time>2011-05-18T17:51:08Z</time>
      </trkpt>
      <trkpt lat="44.34694" lon="2.48214">
        <ele>629.3</ele>
        <time>2011-05-18T17:51:09Z</time>
      </trkpt>
      <trkpt lat="44.34689" lon="2.48221">
        <ele>628.8</ele>
        <time>2011-05-18T17:51:10Z</time>
      </trkpt>
      <trkpt lat="44.34685" lon="2.48228">
        <ele>628.2</ele>
        <time>2011-05-18T17:51:11Z</time>
      </trkpt>
      <trkpt lat="44.3468" lon="2.48236">
        <ele>627.6</ele>
        <time>2011-05-18T17:51:12Z</time>
      </trkpt>
      <trkpt lat="44.34676" lon="2.48243">
        <ele>626.9</ele>
        <time>2011-05-18T17:51:13Z</time>
      </trkpt>
      <trkpt lat="44.34671" lon="2.48251">
        <ele>626.2</ele>
        <time>2011-05-18T17:51:14Z</time>
      </trkpt>
      <trkpt lat="44.34665" lon="2.48257">
        <ele>625.4</ele>
        <time>2011-05-18T17:51:15Z</time>
      </trkpt>
      <trkpt lat="44.34659" lon="2.48263">
        <ele>625</ele>
        <time>2011-05-18T17:51:16Z</time>
      </trkpt>
      <trkpt lat="44.34653" lon="2.48268">
        <ele>624.9</ele>
        <time>2011-05-18T17:51:17Z</time>
      </trkpt>
      <trkpt lat="44.34646" lon="2.48271">
        <ele>624.9</ele>
        <time>2011-05-18T17:51:18Z</time>
      </trkpt>
      <trkpt lat="44.34639" lon="2.48275">
        <ele>624.8</ele>
        <time>2011-05-18T17:51:19Z</time>
      </trkpt>
      <trkpt lat="44.34633" lon="2.48279">
        <ele>624.8</ele>
        <time>2011-05-18T17:51:20Z</time>
      </trkpt>
      <trkpt lat="44.34627" lon="2.48284">
        <ele>624.8</ele>
        <time>2011-05-18T17:51:21Z</time>
      </trkpt>
      <trkpt lat="44.34622" lon="2.48289">
        <ele>624.4</ele>
        <time>2011-05-18T17:51:22Z</time>
      </trkpt>
      <trkpt lat="44.34618" lon="2.48295">
        <ele>624.2</ele>
        <time>2011-05-18T17:51:23Z</time>
      </trkpt>
      <trkpt lat="44.34619" lon="2.48302">
        <ele>623.4</ele>
        <time>2011-05-18T16:11:22Z</time>
      </trkpt>
      <trkpt lat="44.34621" lon="2.48309">
        <ele>622.6</ele>
        <time>2011-05-18T16:11:22Z</time>
      </trkpt>
      <trkpt lat="44.34623" lon="2.48315">
        <ele>622</ele>
        <time>2011-05-18T16:11:22Z</time>
      </trkpt>
      <trkpt lat="44.34623" lon="2.48314">
        <ele>622</ele>
        <time>2011-05-18T17:53:12Z</time>
      </trkpt>
      <trkpt lat="44.34626" lon="2.48318">
        <ele>621.4</ele>
        <time>2011-05-18T17:53:15Z</time>
      </trkpt>
      <trkpt lat="44.34629" lon="2.48323">
        <ele>620.7</ele>
        <time>2011-05-18T17:53:17Z</time>
      </trkpt>
      <trkpt lat="44.3463" lon="2.48327">
        <ele>620.2</ele>
        <time>2011-05-18T17:53:18Z</time>
      </trkpt>
      <trkpt lat="44.34631" lon="2.48332">
        <ele>619.8</ele>
        <time>2011-05-18T17:53:19Z</time>
      </trkpt>
      <trkpt lat="44.34632" lon="2.48337">
        <ele>619.4</ele>
        <time>2011-05-18T17:53:20Z</time>
      </trkpt>
      <trkpt lat="44.34631" lon="2.48343">
        <ele>619.1</ele>
        <time>2011-05-18T17:53:21Z</time>
      </trkpt>
      <trkpt lat="44.3463" lon="2.4835">
        <ele>618.8</ele>
        <time>2011-05-18T17:53:22Z</time>
      </trkpt>
      <trkpt lat="44.34629" lon="2.48356">
        <ele>618.5</ele>
        <time>2011-05-18T17:53:23Z</time>
      </trkpt>
      <trkpt lat="44.34628" lon="2.48364">
        <ele>618.1</ele>
        <time>2011-05-18T17:53:24Z</time>
      </trkpt>
      <trkpt lat="44.34625" lon="2.48371">
        <ele>617.8</ele>
        <time>2011-05-18T17:53:25Z</time>
      </trkpt>
      <trkpt lat="44.34623" lon="2.48378">
        <ele>617.4</ele>
        <time>2011-05-18T17:53:26Z</time>
      </trkpt>
      <trkpt lat="44.34621" lon="2.48385">
        <ele>617</ele>
        <time>2011-05-18T17:53:27Z</time>
      </trkpt>
      <trkpt lat="44.3462" lon="2.48391">
        <ele>616.6</ele>
        <time>2011-05-18T17:53:28Z</time>
      </trkpt>
      <trkpt lat="44.34618" lon="2.48398">
        <ele>616.2</ele>
        <time>2011-05-18T17:53:29Z</time>
      </trkpt>
      <trkpt lat="44.34617" lon="2.48405">
        <ele>615.6</ele>
        <time>2011-05-18T17:53:30Z</time>
      </trkpt>
      <trkpt lat="44.34618" lon="2.48412">
        <ele>615.2</ele>
        <time>2011-05-18T17:53:31Z</time>
      </trkpt>
      <trkpt lat="44.34618" lon="2.48419">
        <ele>614.8</ele>
        <time>2011-05-18T17:53:32Z</time>
      </trkpt>
      <trkpt lat="44.34618" lon="2.48425">
        <ele>614.5</ele>
        <time>2011-05-18T17:53:33Z</time>
      </trkpt>
      <trkpt lat="44.34618" lon="2.48432">
        <ele>614.2</ele>
        <time>2011-05-18T17:53:34Z</time>
      </trkpt>
      <trkpt lat="44.34617" lon="2.4844">
        <ele>613.9</ele>
        <time>2011-05-18T17:53:35Z</time>
      </trkpt>
      <trkpt lat="44.34616" lon="2.48448">
        <ele>613.5</ele>
        <time>2011-05-18T17:53:36Z</time>
      </trkpt>
      <trkpt lat="44.34614" lon="2.48456">
        <ele>612.9</ele>
        <time>2011-05-18T17:53:37Z</time>
      </trkpt>
      <trkpt lat="44.34611" lon="2.48464">
        <ele>612.2</ele>
        <time>2011-05-18T17:53:38Z</time>
      </trkpt>
      <trkpt lat="44.34608" lon="2.48472">
        <ele>611.5</ele>
        <time>2011-05-18T17:53:39Z</time>
      </trkpt>
      <trkpt lat="44.34606" lon="2.48483">
        <ele>610.5</ele>
        <time>2011-05-18T17:53:40Z</time>
      </trkpt>
      <trkpt lat="44.34603" lon="2.48494">
        <ele>609.3</ele>
        <time>2011-05-18T17:53:41Z</time>
      </trkpt>
      <trkpt lat="44.346" lon="2.48505">
        <ele>608.4</ele>
        <time>2011-05-18T17:53:42Z</time>
      </trkpt>
      <trkpt lat="44.34597" lon="2.48515">
        <ele>607.9</ele>
        <time>2011-05-18T17:53:43Z</time>
      </trkpt>
      <trkpt lat="44.34594" lon="2.48523">
        <ele>607.4</ele>
        <time>2011-05-18T17:53:44Z</time>
      </trkpt>
      <trkpt lat="44.34593" lon="2.48528">
        <ele>607.5</ele>
        <time>2011-05-18T17:53:45Z</time>
      </trkpt>
      <trkpt lat="44.34597" lon="2.4853">
        <ele>608.3</ele>
        <time>2011-05-18T17:53:47Z</time>
      </trkpt>
      <trkpt lat="44.34599" lon="2.48525">
        <ele>608.6</ele>
        <time>2011-05-18T17:53:49Z</time>
      </trkpt>
      <trkpt lat="44.34601" lon="2.4852">
        <ele>608.9</ele>
        <time>2011-05-18T17:53:51Z</time>
      </trkpt>
      <trkpt lat="44.34602" lon="2.48516">
        <ele>609</ele>
        <time>2011-05-18T17:53:52Z</time>
      </trkpt>
      <trkpt lat="44.34604" lon="2.48512">
        <ele>609.4</ele>
        <time>2011-05-18T17:53:53Z</time>
      </trkpt>
      <trkpt lat="44.34606" lon="2.48508">
        <ele>609.7</ele>
        <time>2011-05-18T17:53:54Z</time>
      </trkpt>
      <trkpt lat="44.34609" lon="2.48504">
        <ele>610.1</ele>
        <time>2011-05-18T17:53:55Z</time>
      </trkpt>
      <trkpt lat="44.34612" lon="2.485">
        <ele>610.6</ele>
        <time>2011-05-18T17:53:56Z</time>
      </trkpt>
      <trkpt lat="44.34615" lon="2.48497">
        <ele>611.2</ele>
        <time>2011-05-18T17:53:57Z</time>
      </trkpt>
      <trkpt lat="44.34617" lon="2.48493">
        <ele>611.8</ele>
        <time>2011-05-18T17:53:58Z</time>
      </trkpt>
      <trkpt lat="44.34619" lon="2.48488">
        <ele>612.3</ele>
        <time>2011-05-18T17:53:59Z</time>
      </trkpt>
      <trkpt lat="44.34621" lon="2.48482">
        <ele>612.8</ele>
        <time>2011-05-18T17:54:00Z</time>
      </trkpt>
      <trkpt lat="44.34622" lon="2.48477">
        <ele>613.1</ele>
        <time>2011-05-18T17:54:01Z</time>
      </trkpt>
      <trkpt lat="44.34624" lon="2.48475">
        <ele>613.4</ele>
        <time>2011-05-18T17:54:02Z</time>
      </trkpt>
      <trkpt lat="44.34626" lon="2.48476">
        <ele>613.8</ele>
        <time>2011-05-18T17:54:03Z</time>
      </trkpt>
      <trkpt lat="44.34627" lon="2.4848">
        <ele>613.8</ele>
        <time>2011-05-18T17:54:04Z</time>
      </trkpt>
      <trkpt lat="44.34627" lon="2.48483">
        <ele>613.7</ele>
        <time>2011-05-18T17:54:05Z</time>
      </trkpt>
      <trkpt lat="44.34626" lon="2.48487">
        <ele>613.5</ele>
        <time>2011-05-18T17:54:06Z</time>
      </trkpt>
      <trkpt lat="44.34624" lon="2.48492">
        <ele>613.1</ele>
        <time>2011-05-18T17:54:07Z</time>
      </trkpt>
      <trkpt lat="44.34623" lon="2.48497">
        <ele>612.7</ele>
        <time>2011-05-18T17:54:08Z</time>
      </trkpt>
      <trkpt lat="44.34621" lon="2.48502">
        <ele>612.4</ele>
        <time>2011-05-18T17:54:09Z</time>
      </trkpt>
      <trkpt lat="44.3462" lon="2.48508">
        <ele>612.3</ele>
        <time>2011-05-18T17:54:10Z</time>
      </trkpt>
      <trkpt lat="44.34619" lon="2.48515">
        <ele>612.4</ele>
        <time>2011-05-18T17:54:11Z</time>
      </trkpt>
      <trkpt lat="44.34619" lon="2.48522">
        <ele>612.6</ele>
        <time>2011-05-18T17:54:12Z</time>
      </trkpt>
      <trkpt lat="44.34616" lon="2.48529">
        <ele>612.4</ele>
        <time>2011-05-18T17:54:13Z</time>
      </trkpt>
      <trkpt lat="44.34614" lon="2.48538">
        <ele>612.1</ele>
        <time>2011-05-18T17:54:14Z</time>
      </trkpt>
      <trkpt lat="44.3461" lon="2.48546">
        <ele>611.6</ele>
        <time>2011-05-18T17:54:15Z</time>
      </trkpt>
      <trkpt lat="44.34609" lon="2.48555">
        <ele>611.6</ele>
        <time>2011-05-18T17:54:16Z</time>
      </trkpt>
      <trkpt lat="44.34606" lon="2.48561">
        <ele>611.2</ele>
        <time>2011-05-18T17:54:17Z</time>
      </trkpt>
      <trkpt lat="44.34604" lon="2.48566">
        <ele>610.8</ele>
        <time>2011-05-18T17:54:18Z</time>
      </trkpt>
      <trkpt lat="44.34603" lon="2.48571">
        <ele>610.7</ele>
        <time>2011-05-18T17:54:19Z</time>
      </trkpt>
      <trkpt lat="44.34604" lon="2.48577">
        <ele>611</ele>
        <time>2011-05-18T17:54:22Z</time>
      </trkpt>
      <trkpt lat="44.34605" lon="2.48581">
        <ele>611.4</ele>
        <time>2011-05-18T17:54:25Z</time>
      </trkpt>
      <trkpt lat="44.34607" lon="2.48587">
        <ele>612.1</ele>
        <time>2011-05-18T17:54:29Z</time>
      </trkpt>
      <trkpt lat="44.34609" lon="2.48592">
        <ele>612.7</ele>
        <time>2011-05-18T17:54:33Z</time>
      </trkpt>
      <trkpt lat="44.34606" lon="2.48598">
        <ele>612.4</ele>
        <time>2011-05-18T17:55:26Z</time>
      </trkpt>
      <trkpt lat="44.34603" lon="2.48603">
        <ele>611.9</ele>
        <time>2011-05-18T17:56:15Z</time>
      </trkpt>
      <trkpt lat="44.346" lon="2.48607">
        <ele>611.3</ele>
        <time>2011-05-18T17:57:05Z</time>
      </trkpt>
      <trkpt lat="44.34598" lon="2.48613">
        <ele>611.3</ele>
        <time>2011-05-18T17:57:56Z</time>
      </trkpt>
      <trkpt lat="44.34597" lon="2.48619">
        <ele>611.2</ele>
        <time>2011-05-18T17:58:41Z</time>
      </trkpt>
      <trkpt lat="44.34599" lon="2.48616">
        <ele>611.5</ele>
        <time>2011-05-18T17:58:42Z</time>
      </trkpt>
      <trkpt lat="44.34601" lon="2.48612">
        <ele>611.8</ele>
        <time>2011-05-18T17:58:44Z</time>
      </trkpt>
      <trkpt lat="44.34606" lon="2.48611">
        <ele>612.7</ele>
        <time>2011-05-18T17:58:47Z</time>
      </trkpt>
      <trkpt lat="44.34606" lon="2.48617">
        <ele>613.1</ele>
        <time>2011-05-18T17:58:55Z</time>
      </trkpt>
      <trkpt lat="44.34607" lon="2.48618">
        <ele>613.2</ele>
        <time>2011-05-18T17:58:56Z</time>
      </trkpt>
      <trkpt lat="44.34611" lon="2.48626">
        <ele>614.4</ele>
        <time>2011-05-18T17:59:02Z</time>
      </trkpt>
      <trkpt lat="44.34612" lon="2.48631">
        <ele>614.6</ele>
        <time>2011-05-18T17:59:04Z</time>
      </trkpt>
      <trkpt lat="44.34612" lon="2.48635">
        <ele>614.9</ele>
        <time>2011-05-18T17:59:06Z</time>
      </trkpt>
      <trkpt lat="44.34613" lon="2.4864">
        <ele>615.1</ele>
        <time>2011-05-18T17:59:08Z</time>
      </trkpt>
      <trkpt lat="44.34614" lon="2.48645">
        <ele>615.4</ele>
        <time>2011-05-18T17:59:10Z</time>
      </trkpt>
      <trkpt lat="44.34615" lon="2.4865">
        <ele>615.7</ele>
        <time>2011-05-18T17:59:12Z</time>
      </trkpt>
      <trkpt lat="44.34615" lon="2.48655">
        <ele>615.9</ele>
        <time>2011-05-18T17:59:14Z</time>
      </trkpt>
      <trkpt lat="44.34616" lon="2.48661">
        <ele>616.1</ele>
        <time>2011-05-18T17:59:16Z</time>
      </trkpt>
      <trkpt lat="44.34616" lon="2.48666">
        <ele>616.3</ele>
        <time>2011-05-18T17:59:18Z</time>
      </trkpt>
      <trkpt lat="44.34615" lon="2.48671">
        <ele>615.8</ele>
        <time>2011-05-18T17:59:20Z</time>
      </trkpt>
      <trkpt lat="44.34614" lon="2.48677">
        <ele>615.3</ele>
        <time>2011-05-18T17:59:22Z</time>
      </trkpt>
      <trkpt lat="44.34612" lon="2.48682">
        <ele>614.7</ele>
        <time>2011-05-18T17:59:24Z</time>
      </trkpt>
      <trkpt lat="44.3461" lon="2.48686">
        <ele>614.2</ele>
        <time>2011-05-18T17:59:26Z</time>
      </trkpt>
      <trkpt lat="44.34608" lon="2.4869">
        <ele>613.6</ele>
        <time>2011-05-18T17:59:28Z</time>
      </trkpt>
      <trkpt lat="44.34606" lon="2.48695">
        <ele>613.2</ele>
        <time>2011-05-18T17:59:30Z</time>
      </trkpt>
      <trkpt lat="44.34604" lon="2.487">
        <ele>612.7</ele>
        <time>2011-05-18T17:59:32Z</time>
      </trkpt>
      <trkpt lat="44.34603" lon="2.48705">
        <ele>612.3</ele>
        <time>2011-05-18T17:59:34Z</time>
      </trkpt>
      <trkpt lat="44.34601" lon="2.4871">
        <ele>611.9</ele>
        <time>2011-05-18T17:59:36Z</time>
      </trkpt>
      <trkpt lat="44.34599" lon="2.48715">
        <ele>611.5</ele>
        <time>2011-05-18T17:59:38Z</time>
      </trkpt>
      <trkpt lat="44.34597" lon="2.4872">
        <ele>611.2</ele>
        <time>2011-05-18T17:59:40Z</time>
      </trkpt>
      <trkpt lat="44.34596" lon="2.48725">
        <ele>610.9</ele>
        <time>2011-05-18T17:59:42Z</time>
      </trkpt>
      <trkpt lat="44.34594" lon="2.48729">
        <ele>610.7</ele>
        <time>2011-05-18T17:59:44Z</time>
      </trkpt>
      <trkpt lat="44.34593" lon="2.48734">
        <ele>610.5</ele>
        <time>2011-05-18T17:59:46Z</time>
      </trkpt>
      <trkpt lat="44.34591" lon="2.48739">
        <ele>610.3</ele>
        <time>2011-05-18T17:59:49Z</time>
      </trkpt>
      <trkpt lat="44.3459" lon="2.48744">
        <ele>610.1</ele>
        <time>2011-05-18T17:59:52Z</time>
      </trkpt>
      <trkpt lat="44.34589" lon="2.48748">
        <ele>609.9</ele>
        <time>2011-05-18T17:59:54Z</time>
      </trkpt>
      <trkpt lat="44.34588" lon="2.48752">
        <ele>609.6</ele>
        <time>2011-05-18T17:59:56Z</time>
      </trkpt>
      <trkpt lat="44.34587" lon="2.48754">
        <ele>609.2</ele>
        <time>2011-05-18T17:59:57Z</time>
      </trkpt>
      <trkpt lat="44.34585" lon="2.48761">
        <ele>608.1</ele>
        <time>2011-05-18T18:00:00Z</time>
      </trkpt>
      <trkpt lat="44.34584" lon="2.48765">
        <ele>607.4</ele>
        <time>2011-05-18T18:00:02Z</time>
      </trkpt>
      <trkpt lat="44.34582" lon="2.48769">
        <ele>606.5</ele>
        <time>2011-05-18T18:00:04Z</time>
      </trkpt>
      <trkpt lat="44.34581" lon="2.48774">
        <ele>605.5</ele>
        <time>2011-05-18T18:00:06Z</time>
      </trkpt>
      <trkpt lat="44.3458" lon="2.48779">
        <ele>604.4</ele>
        <time>2011-05-18T18:00:08Z</time>
      </trkpt>
      <trkpt lat="44.3458" lon="2.48784">
        <ele>603.4</ele>
        <time>2011-05-18T18:00:10Z</time>
      </trkpt>
      <trkpt lat="44.34579" lon="2.48789">
        <ele>602.6</ele>
        <time>2011-05-18T18:00:12Z</time>
      </trkpt>
      <trkpt lat="44.34578" lon="2.48794">
        <ele>601.6</ele>
        <time>2011-05-18T18:00:14Z</time>
      </trkpt>
      <trkpt lat="44.34577" lon="2.48798">
        <ele>600.7</ele>
        <time>2011-05-18T18:00:16Z</time>
      </trkpt>
      <trkpt lat="44.34577" lon="2.48804">
        <ele>599.8</ele>
        <time>2011-05-18T18:00:18Z</time>
      </trkpt>
      <trkpt lat="44.34577" lon="2.48809">
        <ele>599</ele>
        <time>2011-05-18T18:00:20Z</time>
      </trkpt>
      <trkpt lat="44.34577" lon="2.48813">
        <ele>598.3</ele>
        <time>2011-05-18T18:00:22Z</time>
      </trkpt>
      <trkpt lat="44.34577" lon="2.48818">
        <ele>597.4</ele>
        <time>2011-05-18T18:00:24Z</time>
      </trkpt>
      <trkpt lat="44.34577" lon="2.48823">
        <ele>596.5</ele>
        <time>2011-05-18T18:00:26Z</time>
      </trkpt>
      <trkpt lat="44.34576" lon="2.48828">
        <ele>595.7</ele>
        <time>2011-05-18T18:00:28Z</time>
      </trkpt>
      <trkpt lat="44.34575" lon="2.48833">
        <ele>595</ele>
        <time>2011-05-18T18:00:30Z</time>
      </trkpt>
      <trkpt lat="44.34574" lon="2.48838">
        <ele>593.9</ele>
        <time>2011-05-18T18:00:32Z</time>
      </trkpt>
      <trkpt lat="44.34573" lon="2.48843">
        <ele>592.6</ele>
        <time>2011-05-18T18:00:34Z</time>
      </trkpt>
      <trkpt lat="44.34572" lon="2.48848">
        <ele>591.4</ele>
        <time>2011-05-18T18:00:36Z</time>
      </trkpt>
      <trkpt lat="44.34572" lon="2.48852">
        <ele>590.5</ele>
        <time>2011-05-18T18:00:38Z</time>
      </trkpt>
      <trkpt lat="44.34571" lon="2.48857">
        <ele>589.3</ele>
        <time>2011-05-18T18:00:40Z</time>
      </trkpt>
      <trkpt lat="44.34571" lon="2.48862">
        <ele>588.3</ele>
        <time>2011-05-18T18:00:42Z</time>
      </trkpt>
      <trkpt lat="44.34571" lon="2.48866">
        <ele>587.1</ele>
        <time>2011-05-18T18:00:44Z</time>
      </trkpt>
      <trkpt lat="44.34571" lon="2.48871">
        <ele>585.9</ele>
        <time>2011-05-18T18:00:47Z</time>
      </trkpt>
      <trkpt lat="44.34572" lon="2.48877">
        <ele>584.7</ele>
        <time>2011-05-18T18:00:56Z</time>
      </trkpt>
      <trkpt lat="44.34572" lon="2.48882">
        <ele>583.5</ele>
        <time>2011-05-18T18:01:55Z</time>
      </trkpt>
      <trkpt lat="44.34571" lon="2.48883">
        <ele>583.2</ele>
        <time>2011-05-18T18:01:56Z</time>
      </trkpt>
      <trkpt lat="44.34567" lon="2.48889">
        <ele>582.2</ele>
        <time>2011-05-18T18:02:00Z</time>
      </trkpt>
      <trkpt lat="44.34565" lon="2.48894">
        <ele>581.2</ele>
        <time>2011-05-18T18:02:02Z</time>
      </trkpt>
      <trkpt lat="44.34562" lon="2.48898">
        <ele>580.6</ele>
        <time>2011-05-18T18:02:05Z</time>
      </trkpt>
      <trkpt lat="44.34559" lon="2.48901">
        <ele>580</ele>
        <time>2011-05-18T18:02:08Z</time>
      </trkpt>
      <trkpt lat="44.34556" lon="2.48905">
        <ele>579.4</ele>
        <time>2011-05-18T18:02:10Z</time>
      </trkpt>
      <trkpt lat="44.34555" lon="2.48909">
        <ele>578.7</ele>
        <time>2011-05-18T18:02:12Z</time>
      </trkpt>
      <trkpt lat="44.34553" lon="2.48913">
        <ele>578</ele>
        <time>2011-05-18T18:02:14Z</time>
      </trkpt>
      <trkpt lat="44.34552" lon="2.48916">
        <ele>577.6</ele>
        <time>2011-05-18T18:02:15Z</time>
      </trkpt>
      <trkpt lat="44.34551" lon="2.48919">
        <ele>577.3</ele>
        <time>2011-05-18T18:02:16Z</time>
      </trkpt>
      <trkpt lat="44.34547" lon="2.48921">
        <ele>577.2</ele>
        <time>2011-05-18T18:02:18Z</time>
      </trkpt>
      <trkpt lat="44.34547" lon="2.48927">
        <ele>576.1</ele>
        <time>2011-05-18T18:02:24Z</time>
      </trkpt>
      <trkpt lat="44.34548" lon="2.48933">
        <ele>575.1</ele>
        <time>2011-05-18T18:02:29Z</time>
      </trkpt>
      <trkpt lat="44.34545" lon="2.48935">
        <ele>574.8</ele>
        <time>2011-05-18T18:02:31Z</time>
      </trkpt>
      <trkpt lat="44.34541" lon="2.48938">
        <ele>574.5</ele>
        <time>2011-05-18T18:02:54Z</time>
      </trkpt>
      <trkpt lat="44.34537" lon="2.48939">
        <ele>574.5</ele>
        <time>2011-05-18T18:02:57Z</time>
      </trkpt>
      <trkpt lat="44.34535" lon="2.48939">
        <ele>574.6</ele>
        <time>2011-05-18T18:02:58Z</time>
      </trkpt>
      <trkpt lat="44.34531" lon="2.48939">
        <ele>574.8</ele>
        <time>2011-05-18T18:03:00Z</time>
      </trkpt>
      <trkpt lat="44.34529" lon="2.48944">
        <ele>574</ele>
        <time>2011-05-18T18:03:02Z</time>
      </trkpt>
      <trkpt lat="44.3453" lon="2.48947">
        <ele>573.1</ele>
        <time>2011-05-18T18:03:03Z</time>
      </trkpt>
      <trkpt lat="44.34532" lon="2.4895">
        <ele>572.5</ele>
        <time>2011-05-18T18:03:04Z</time>
      </trkpt>
      <trkpt lat="44.34535" lon="2.48953">
        <ele>571.9</ele>
        <time>2011-05-18T18:03:05Z</time>
      </trkpt>
      <trkpt lat="44.34537" lon="2.48958">
        <ele>570.8</ele>
        <time>2011-05-18T18:03:08Z</time>
      </trkpt>
      <trkpt lat="44.34534" lon="2.48961">
        <ele>570.2</ele>
        <time>2011-05-18T18:03:09Z</time>
      </trkpt>
      <trkpt lat="44.34531" lon="2.48962">
        <ele>569.6</ele>
        <time>2011-05-18T18:03:10Z</time>
      </trkpt>
      <trkpt lat="44.34527" lon="2.48963">
        <ele>569.6</ele>
        <time>2011-05-18T18:03:11Z</time>
      </trkpt>
      <trkpt lat="44.34522" lon="2.48963">
        <ele>569.6</ele>
        <time>2011-05-18T18:03:12Z</time>
      </trkpt>
      <trkpt lat="44.34518" lon="2.48961">
        <ele>569.8</ele>
        <time>2011-05-18T18:03:13Z</time>
      </trkpt>
      <trkpt lat="44.34516" lon="2.48966">
        <ele>568.5</ele>
        <time>2011-05-18T18:03:15Z</time>
      </trkpt>
      <trkpt lat="44.34518" lon="2.48971">
        <ele>567.2</ele>
        <time>2011-05-18T18:03:16Z</time>
      </trkpt>
      <trkpt lat="44.34521" lon="2.48976">
        <ele>566.4</ele>
        <time>2011-05-18T18:03:17Z</time>
      </trkpt>
      <trkpt lat="44.34525" lon="2.48979">
        <ele>565.9</ele>
        <time>2011-05-18T18:03:18Z</time>
      </trkpt>
      <trkpt lat="44.34525" lon="2.48984">
        <ele>564.4</ele>
        <time>2011-05-18T18:03:21Z</time>
      </trkpt>
      <trkpt lat="44.34521" lon="2.48986">
        <ele>563.8</ele>
        <time>2011-05-18T18:03:22Z</time>
      </trkpt>
      <trkpt lat="44.34515" lon="2.48987">
        <ele>563.4</ele>
        <time>2011-05-18T18:03:23Z</time>
      </trkpt>
      <trkpt lat="44.3451" lon="2.48986">
        <ele>563</ele>
        <time>2011-05-18T18:03:24Z</time>
      </trkpt>
      <trkpt lat="44.34506" lon="2.48985">
        <ele>563.1</ele>
        <time>2011-05-18T18:03:25Z</time>
      </trkpt>
      <trkpt lat="44.34502" lon="2.48986">
        <ele>562.4</ele>
        <time>2011-05-18T18:03:27Z</time>
      </trkpt>
      <trkpt lat="44.34503" lon="2.48989">
        <ele>561.7</ele>
        <time>2011-05-18T18:03:28Z</time>
      </trkpt>
      <trkpt lat="44.34505" lon="2.48994">
        <ele>560.4</ele>
        <time>2011-05-18T18:03:29Z</time>
      </trkpt>
      <trkpt lat="44.34508" lon="2.48998">
        <ele>559.6</ele>
        <time>2011-05-18T18:03:30Z</time>
      </trkpt>
      <trkpt lat="44.34511" lon="2.49001">
        <ele>559</ele>
        <time>2011-05-18T18:03:31Z</time>
      </trkpt>
      <trkpt lat="44.34511" lon="2.49006">
        <ele>558.5</ele>
        <time>2011-05-18T18:03:33Z</time>
      </trkpt>
      <trkpt lat="44.34508" lon="2.49008">
        <ele>557.8</ele>
        <time>2011-05-18T18:03:34Z</time>
      </trkpt>
      <trkpt lat="44.34504" lon="2.49008">
        <ele>557.3</ele>
        <time>2011-05-18T18:03:35Z</time>
      </trkpt>
      <trkpt lat="44.34499" lon="2.49008">
        <ele>556.9</ele>
        <time>2011-05-18T18:03:36Z</time>
      </trkpt>
      <trkpt lat="44.34495" lon="2.49007">
        <ele>556.7</ele>
        <time>2011-05-18T18:03:37Z</time>
      </trkpt>
      <trkpt lat="44.34492" lon="2.49007">
        <ele>556.5</ele>
        <time>2011-05-18T18:03:38Z</time>
      </trkpt>
      <trkpt lat="44.34492" lon="2.49013">
        <ele>555.6</ele>
        <time>2011-05-18T18:03:41Z</time>
      </trkpt>
      <trkpt lat="44.34494" lon="2.49018">
        <ele>554.8</ele>
        <time>2011-05-18T18:03:42Z</time>
      </trkpt>
      <trkpt lat="44.34495" lon="2.49023">
        <ele>554.2</ele>
        <time>2011-05-18T18:03:43Z</time>
      </trkpt>
      <trkpt lat="44.34495" lon="2.49027">
        <ele>553.5</ele>
        <time>2011-05-18T18:03:44Z</time>
      </trkpt>
      <trkpt lat="44.34493" lon="2.49028">
        <ele>553.1</ele>
        <time>2011-05-18T18:03:45Z</time>
      </trkpt>
      <trkpt lat="44.3449" lon="2.49028">
        <ele>552.8</ele>
        <time>2011-05-18T18:03:46Z</time>
      </trkpt>
      <trkpt lat="44.34486" lon="2.49026">
        <ele>552.7</ele>
        <time>2011-05-18T18:03:47Z</time>
      </trkpt>
      <trkpt lat="44.34484" lon="2.49024">
        <ele>552.9</ele>
        <time>2011-05-18T18:03:48Z</time>
      </trkpt>
      <trkpt lat="44.3448" lon="2.49024">
        <ele>552.6</ele>
        <time>2011-05-18T18:03:50Z</time>
      </trkpt>
      <trkpt lat="44.3448" lon="2.49028">
        <ele>551.9</ele>
        <time>2011-05-18T18:03:51Z</time>
      </trkpt>
      <trkpt lat="44.34481" lon="2.49032">
        <ele>551.2</ele>
        <time>2011-05-18T18:03:52Z</time>
      </trkpt>
      <trkpt lat="44.34482" lon="2.49038">
        <ele>550.2</ele>
        <time>2011-05-18T18:03:53Z</time>
      </trkpt>
      <trkpt lat="44.34483" lon="2.49042">
        <ele>549.6</ele>
        <time>2011-05-18T18:03:54Z</time>
      </trkpt>
      <trkpt lat="44.3448" lon="2.49046">
        <ele>548.7</ele>
        <time>2011-05-18T18:03:56Z</time>
      </trkpt>
      <trkpt lat="44.34478" lon="2.49048">
        <ele>548.2</ele>
        <time>2011-05-18T18:03:57Z</time>
      </trkpt>
      <trkpt lat="44.34475" lon="2.49052">
        <ele>547.1</ele>
        <time>2011-05-18T18:03:59Z</time>
      </trkpt>
      <trkpt lat="44.34473" lon="2.49051">
        <ele>546.9</ele>
        <time>2011-05-18T18:04:00Z</time>
      </trkpt>
      <trkpt lat="44.34471" lon="2.49048">
        <ele>547.4</ele>
        <time>2011-05-18T18:04:01Z</time>
      </trkpt>
      <trkpt lat="44.34468" lon="2.49045">
        <ele>547.6</ele>
        <time>2011-05-18T18:04:02Z</time>
      </trkpt>
      <trkpt lat="44.34466" lon="2.49049">
        <ele>546.6</ele>
        <time>2011-05-18T18:04:05Z</time>
      </trkpt>
      <trkpt lat="44.34467" lon="2.49052">
        <ele>545.9</ele>
        <time>2011-05-18T18:04:06Z</time>
      </trkpt>
      <trkpt lat="44.34467" lon="2.49056">
        <ele>545.2</ele>
        <time>2011-05-18T18:04:07Z</time>
      </trkpt>
      <trkpt lat="44.34469" lon="2.49063">
        <ele>544.1</ele>
        <time>2011-05-18T18:04:08Z</time>
      </trkpt>
      <trkpt lat="44.34472" lon="2.49068">
        <ele>543.5</ele>
        <time>2011-05-18T18:04:09Z</time>
      </trkpt>
      <trkpt lat="44.34474" lon="2.49072">
        <ele>543.2</ele>
        <time>2011-05-18T18:04:10Z</time>
      </trkpt>
      <trkpt lat="44.34476" lon="2.49076">
        <ele>542.6</ele>
        <time>2011-05-18T18:04:11Z</time>
      </trkpt>
      <trkpt lat="44.34472" lon="2.49079">
        <ele>541.6</ele>
        <time>2011-05-18T18:04:14Z</time>
      </trkpt>
      <trkpt lat="44.34469" lon="2.49079">
        <ele>541.2</ele>
        <time>2011-05-18T18:04:15Z</time>
      </trkpt>
      <trkpt lat="44.34466" lon="2.4908">
        <ele>540.5</ele>
        <time>2011-05-18T18:04:16Z</time>
      </trkpt>
      <trkpt lat="44.34467" lon="2.49086">
        <ele>539.9</ele>
        <time>2011-05-18T18:04:27Z</time>
      </trkpt>
      <trkpt lat="44.34468" lon="2.49092">
        <ele>540.2</ele>
        <time>2011-05-18T18:05:28Z</time>
      </trkpt>
      <trkpt lat="44.34468" lon="2.49092">
        <ele>540.2</ele>
        <time>2011-05-18T18:05:29Z</time>
      </trkpt>
      <trkpt lat="44.34473" lon="2.49093">
        <ele>541</ele>
        <time>2011-05-18T18:06:30Z</time>
      </trkpt>
      <trkpt lat="44.34479" lon="2.49095">
        <ele>542.2</ele>
        <time>2011-05-18T18:07:26Z</time>
      </trkpt>
      <trkpt lat="44.34481" lon="2.49099">
        <ele>542.5</ele>
        <time>2011-05-18T18:07:28Z</time>
      </trkpt>
      <trkpt lat="44.34481" lon="2.49104">
        <ele>542.8</ele>
        <time>2011-05-18T18:07:30Z</time>
      </trkpt>
      <trkpt lat="44.34481" lon="2.49106">
        <ele>542.8</ele>
        <time>2011-05-18T18:07:31Z</time>
      </trkpt>
      <trkpt lat="44.34478" lon="2.49113">
        <ele>542.5</ele>
        <time>2011-05-18T18:07:34Z</time>
      </trkpt>
      <trkpt lat="44.34476" lon="2.49117">
        <ele>542.3</ele>
        <time>2011-05-18T18:07:36Z</time>
      </trkpt>
      <trkpt lat="44.34473" lon="2.49122">
        <ele>541.8</ele>
        <time>2011-05-18T18:07:39Z</time>
      </trkpt>
      <trkpt lat="44.3447" lon="2.49125">
        <ele>541.3</ele>
        <time>2011-05-18T18:07:43Z</time>
      </trkpt>
      <trkpt lat="44.34467" lon="2.49128">
        <ele>540.7</ele>
        <time>2011-05-18T18:07:45Z</time>
      </trkpt>
      <trkpt lat="44.34466" lon="2.49131">
        <ele>540.3</ele>
        <time>2011-05-18T18:07:46Z</time>
      </trkpt>
      <trkpt lat="44.34464" lon="2.49133">
        <ele>540</ele>
        <time>2011-05-18T18:07:47Z</time>
      </trkpt>
      <trkpt lat="44.34463" lon="2.49136">
        <ele>539.8</ele>
        <time>2011-05-18T18:07:48Z</time>
      </trkpt>
      <trkpt lat="44.34461" lon="2.4914">
        <ele>539.5</ele>
        <time>2011-05-18T18:07:49Z</time>
      </trkpt>
      <trkpt lat="44.3446" lon="2.49144">
        <ele>539.3</ele>
        <time>2011-05-18T18:07:50Z</time>
      </trkpt>
      <trkpt lat="44.34459" lon="2.49148">
        <ele>539.1</ele>
        <time>2011-05-18T18:07:51Z</time>
      </trkpt>
      <trkpt lat="44.34458" lon="2.49153">
        <ele>538.9</ele>
        <time>2011-05-18T18:07:52Z</time>
      </trkpt>
      <trkpt lat="44.34458" lon="2.49158">
        <ele>538.8</ele>
        <time>2011-05-18T18:07:53Z</time>
      </trkpt>
      <trkpt lat="44.34457" lon="2.49163">
        <ele>538.6</ele>
        <time>2011-05-18T18:07:54Z</time>
      </trkpt>
      <trkpt lat="44.34455" lon="2.49168">
        <ele>538.2</ele>
        <time>2011-05-18T18:07:55Z</time>
      </trkpt>
      <trkpt lat="44.34454" lon="2.49172">
        <ele>538.2</ele>
        <time>2011-05-18T18:07:56Z</time>
      </trkpt>
      <trkpt lat="44.34453" lon="2.49177">
        <ele>538.1</ele>
        <time>2011-05-18T18:07:57Z</time>
      </trkpt>
      <trkpt lat="44.34452" lon="2.49182">
        <ele>537.8</ele>
        <time>2011-05-18T18:07:58Z</time>
      </trkpt>
      <trkpt lat="44.34451" lon="2.49186">
        <ele>537.6</ele>
        <time>2011-05-18T18:07:59Z</time>
      </trkpt>
      <trkpt lat="44.34449" lon="2.49191">
        <ele>537.4</ele>
        <time>2011-05-18T18:08:00Z</time>
      </trkpt>
      <trkpt lat="44.34448" lon="2.49196">
        <ele>537.3</ele>
        <time>2011-05-18T18:08:01Z</time>
      </trkpt>
      <trkpt lat="44.34447" lon="2.49201">
        <ele>537.1</ele>
        <time>2011-05-18T18:08:02Z</time>
      </trkpt>
      <trkpt lat="44.34445" lon="2.49206">
        <ele>537</ele>
        <time>2011-05-18T18:08:03Z</time>
      </trkpt>
      <trkpt lat="44.34445" lon="2.49211">
        <ele>536.9</ele>
        <time>2011-05-18T18:08:04Z</time>
      </trkpt>
      <trkpt lat="44.34444" lon="2.49215">
        <ele>537</ele>
        <time>2011-05-18T18:08:05Z</time>
      </trkpt>
      <trkpt lat="44.34443" lon="2.4922">
        <ele>536.9</ele>
        <time>2011-05-18T18:08:06Z</time>
      </trkpt>
      <trkpt lat="44.34443" lon="2.49224">
        <ele>536.9</ele>
        <time>2011-05-18T18:08:07Z</time>
      </trkpt>
      <trkpt lat="44.34442" lon="2.49229">
        <ele>536.9</ele>
        <time>2011-05-18T18:08:08Z</time>
      </trkpt>
      <trkpt lat="44.34441" lon="2.49234">
        <ele>536.8</ele>
        <time>2011-05-18T18:08:09Z</time>
      </trkpt>
      <trkpt lat="44.3444" lon="2.49238">
        <ele>536.6</ele>
        <time>2011-05-18T18:08:10Z</time>
      </trkpt>
      <trkpt lat="44.34439" lon="2.49242">
        <ele>536.5</ele>
        <time>2011-05-18T18:08:11Z</time>
      </trkpt>
      <trkpt lat="44.34437" lon="2.49246">
        <ele>536.3</ele>
        <time>2011-05-18T18:08:12Z</time>
      </trkpt>
      <trkpt lat="44.34436" lon="2.49249">
        <ele>536.1</ele>
        <time>2011-05-18T18:08:13Z</time>
      </trkpt>
      <trkpt lat="44.34435" lon="2.49252">
        <ele>535.9</ele>
        <time>2011-05-18T18:08:14Z</time>
      </trkpt>
      <trkpt lat="44.34434" lon="2.49256">
        <ele>535.8</ele>
        <time>2011-05-18T18:08:15Z</time>
      </trkpt>
      <trkpt lat="44.34432" lon="2.49259">
        <ele>535.7</ele>
        <time>2011-05-18T18:08:16Z</time>
      </trkpt>
      <trkpt lat="44.34431" lon="2.49262">
        <ele>535.6</ele>
        <time>2011-05-18T18:08:17Z</time>
      </trkpt>
      <trkpt lat="44.34431" lon="2.49266">
        <ele>535.8</ele>
        <time>2011-05-18T18:08:18Z</time>
      </trkpt>
      <trkpt lat="44.34432" lon="2.49269">
        <ele>536.1</ele>
        <time>2011-05-18T18:08:19Z</time>
      </trkpt>
      <trkpt lat="44.34433" lon="2.49272">
        <ele>536.6</ele>
        <time>2011-05-18T18:08:20Z</time>
      </trkpt>
      <trkpt lat="44.34434" lon="2.49275">
        <ele>537.1</ele>
        <time>2011-05-18T18:08:21Z</time>
      </trkpt>
      <trkpt lat="44.34436" lon="2.49278">
        <ele>537.7</ele>
        <time>2011-05-18T18:08:22Z</time>
      </trkpt>
      <trkpt lat="44.34437" lon="2.4928">
        <ele>538.2</ele>
        <time>2011-05-18T18:08:23Z</time>
      </trkpt>
      <trkpt lat="44.34439" lon="2.49283">
        <ele>538.7</ele>
        <time>2011-05-18T18:08:24Z</time>
      </trkpt>
      <trkpt lat="44.34441" lon="2.49286">
        <ele>539.2</ele>
        <time>2011-05-18T18:08:25Z</time>
      </trkpt>
      <trkpt lat="44.34442" lon="2.49288">
        <ele>539.7</ele>
        <time>2011-05-18T18:08:26Z</time>
      </trkpt>
      <trkpt lat="44.34444" lon="2.49291">
        <ele>540.3</ele>
        <time>2011-05-18T18:08:27Z</time>
      </trkpt>
      <trkpt lat="44.34445" lon="2.49294">
        <ele>540.7</ele>
        <time>2011-05-18T18:08:28Z</time>
      </trkpt>
      <trkpt lat="44.34447" lon="2.49296">
        <ele>541.3</ele>
        <time>2011-05-18T18:08:29Z</time>
      </trkpt>
      <trkpt lat="44.34449" lon="2.49301">
        <ele>542.1</ele>
        <time>2011-05-18T18:08:31Z</time>
      </trkpt>
      <trkpt lat="44.3445" lon="2.49303">
        <ele>542.3</ele>
        <time>2011-05-18T18:08:32Z</time>
      </trkpt>
      <trkpt lat="44.3445" lon="2.49311">
        <ele>542.7</ele>
        <time>2011-05-18T18:08:36Z</time>
      </trkpt>
      <trkpt lat="44.34448" lon="2.49316">
        <ele>542.5</ele>
        <time>2011-05-18T18:08:38Z</time>
      </trkpt>
      <trkpt lat="44.34446" lon="2.49318">
        <ele>542.3</ele>
        <time>2011-05-18T18:08:39Z</time>
      </trkpt>
      <trkpt lat="44.34445" lon="2.49321">
        <ele>542</ele>
        <time>2011-05-18T18:08:40Z</time>
      </trkpt>
      <trkpt lat="44.34443" lon="2.49324">
        <ele>541.9</ele>
        <time>2011-05-18T18:08:41Z</time>
      </trkpt>
      <trkpt lat="44.34442" lon="2.49327">
        <ele>541.8</ele>
        <time>2011-05-18T18:08:42Z</time>
      </trkpt>
      <trkpt lat="44.3444" lon="2.4933">
        <ele>541.6</ele>
        <time>2011-05-18T18:08:43Z</time>
      </trkpt>
      <trkpt lat="44.34439" lon="2.49333">
        <ele>541.4</ele>
        <time>2011-05-18T18:08:44Z</time>
      </trkpt>
      <trkpt lat="44.34437" lon="2.49335">
        <ele>541.2</ele>
        <time>2011-05-18T18:08:45Z</time>
      </trkpt>
      <trkpt lat="44.34435" lon="2.49338">
        <ele>541.1</ele>
        <time>2011-05-18T18:08:46Z</time>
      </trkpt>
      <trkpt lat="44.34434" lon="2.49341">
        <ele>541</ele>
        <time>2011-05-18T18:08:47Z</time>
      </trkpt>
      <trkpt lat="44.34432" lon="2.49343">
        <ele>540.9</ele>
        <time>2011-05-18T18:08:48Z</time>
      </trkpt>
      <trkpt lat="44.3443" lon="2.49346">
        <ele>540.9</ele>
        <time>2011-05-18T18:08:49Z</time>
      </trkpt>
      <trkpt lat="44.34429" lon="2.4935">
        <ele>540.9</ele>
        <time>2011-05-18T18:08:50Z</time>
      </trkpt>
      <trkpt lat="44.34427" lon="2.49354">
        <ele>540.7</ele>
        <time>2011-05-18T18:08:51Z</time>
      </trkpt>
      <trkpt lat="44.34425" lon="2.49358">
        <ele>540.5</ele>
        <time>2011-05-18T18:08:52Z</time>
      </trkpt>
      <trkpt lat="44.34422" lon="2.49361">
        <ele>540.2</ele>
        <time>2011-05-18T18:08:53Z</time>
      </trkpt>
      <trkpt lat="44.34419" lon="2.49363">
        <ele>539.7</ele>
        <time>2011-05-18T18:08:54Z</time>
      </trkpt>
      <trkpt lat="44.34417" lon="2.49365">
        <ele>539.2</ele>
        <time>2011-05-18T18:08:55Z</time>
      </trkpt>
      <trkpt lat="44.34415" lon="2.49368">
        <ele>539.1</ele>
        <time>2011-05-18T18:08:56Z</time>
      </trkpt>
      <trkpt lat="44.34413" lon="2.49371">
        <ele>539</ele>
        <time>2011-05-18T18:08:57Z</time>
      </trkpt>
      <trkpt lat="44.34411" lon="2.49373">
        <ele>538.8</ele>
        <time>2011-05-18T18:08:58Z</time>
      </trkpt>
      <trkpt lat="44.34407" lon="2.49377">
        <ele>538.6</ele>
        <time>2011-05-18T18:09:00Z</time>
      </trkpt>
      <trkpt lat="44.34404" lon="2.49378">
        <ele>538.1</ele>
        <time>2011-05-18T18:09:02Z</time>
      </trkpt>
      <trkpt lat="44.34402" lon="2.49382">
        <ele>538.1</ele>
        <time>2011-05-18T18:09:04Z</time>
      </trkpt>
      <trkpt lat="44.34401" lon="2.49386">
        <ele>538.2</ele>
        <time>2011-05-18T18:09:06Z</time>
      </trkpt>
      <trkpt lat="44.344" lon="2.4939">
        <ele>538.2</ele>
        <time>2011-05-18T18:09:08Z</time>
      </trkpt>
      <trkpt lat="44.34398" lon="2.49396">
        <ele>538.4</ele>
        <time>2011-05-18T18:09:12Z</time>
      </trkpt>
      <trkpt lat="44.34398" lon="2.49402">
        <ele>538.9</ele>
        <time>2011-05-18T18:09:15Z</time>
      </trkpt>
      <trkpt lat="44.34397" lon="2.49405">
        <ele>538.7</ele>
        <time>2011-05-18T18:09:16Z</time>
      </trkpt>
      <trkpt lat="44.34395" lon="2.49407">
        <ele>538.6</ele>
        <time>2011-05-18T18:09:17Z</time>
      </trkpt>
      <trkpt lat="44.34393" lon="2.4941">
        <ele>538.5</ele>
        <time>2011-05-18T18:09:18Z</time>
      </trkpt>
      <trkpt lat="44.34391" lon="2.49412">
        <ele>538.4</ele>
        <time>2011-05-18T18:09:19Z</time>
      </trkpt>
      <trkpt lat="44.3439" lon="2.49416">
        <ele>538.4</ele>
        <time>2011-05-18T18:09:20Z</time>
      </trkpt>
      <trkpt lat="44.34388" lon="2.49419">
        <ele>538.4</ele>
        <time>2011-05-18T18:09:21Z</time>
      </trkpt>
      <trkpt lat="44.34386" lon="2.49423">
        <ele>538.3</ele>
        <time>2011-05-18T18:09:22Z</time>
      </trkpt>
      <trkpt lat="44.34384" lon="2.49426">
        <ele>538.3</ele>
        <time>2011-05-18T18:09:23Z</time>
      </trkpt>
      <trkpt lat="44.34381" lon="2.49429">
        <ele>538</ele>
        <time>2011-05-18T18:09:24Z</time>
      </trkpt>
      <trkpt lat="44.34379" lon="2.49432">
        <ele>538</ele>
        <time>2011-05-18T18:09:25Z</time>
      </trkpt>
      <trkpt lat="44.34377" lon="2.49436">
        <ele>537.8</ele>
        <time>2011-05-18T18:09:26Z</time>
      </trkpt>
      <trkpt lat="44.34375" lon="2.49439">
        <ele>537.8</ele>
        <time>2011-05-18T18:09:27Z</time>
      </trkpt>
      <trkpt lat="44.34372" lon="2.49442">
        <ele>537.6</ele>
        <time>2011-05-18T18:09:28Z</time>
      </trkpt>
      <trkpt lat="44.3437" lon="2.49446">
        <ele>537.5</ele>
        <time>2011-05-18T18:09:29Z</time>
      </trkpt>
      <trkpt lat="44.34368" lon="2.49449">
        <ele>537.4</ele>
        <time>2011-05-18T18:09:30Z</time>
      </trkpt>
      <trkpt lat="44.34366" lon="2.49452">
        <ele>537.3</ele>
        <time>2011-05-18T18:09:31Z</time>
      </trkpt>
      <trkpt lat="44.34363" lon="2.49455">
        <ele>537</ele>
        <time>2011-05-18T18:09:32Z</time>
      </trkpt>
      <trkpt lat="44.3436" lon="2.49458">
        <ele>536.8</ele>
        <time>2011-05-18T18:09:33Z</time>
      </trkpt>
      <trkpt lat="44.34358" lon="2.49461">
        <ele>536.5</ele>
        <time>2011-05-18T18:09:34Z</time>
      </trkpt>
      <trkpt lat="44.34355" lon="2.49463">
        <ele>536.1</ele>
        <time>2011-05-18T18:09:35Z</time>
      </trkpt>
      <trkpt lat="44.34351" lon="2.49466">
        <ele>535.7</ele>
        <time>2011-05-18T18:09:36Z</time>
      </trkpt>
      <trkpt lat="44.34348" lon="2.49469">
        <ele>535.3</ele>
        <time>2011-05-18T18:09:37Z</time>
      </trkpt>
      <trkpt lat="44.34345" lon="2.49471">
        <ele>534.9</ele>
        <time>2011-05-18T18:09:38Z</time>
      </trkpt>
      <trkpt lat="44.34341" lon="2.49473">
        <ele>534.5</ele>
        <time>2011-05-18T18:09:39Z</time>
      </trkpt>
      <trkpt lat="44.34337" lon="2.49475">
        <ele>533.8</ele>
        <time>2011-05-18T18:09:40Z</time>
      </trkpt>
      <trkpt lat="44.34333" lon="2.49476">
        <ele>533.2</ele>
        <time>2011-05-18T18:09:41Z</time>
      </trkpt>
      <trkpt lat="44.34329" lon="2.49477">
        <ele>532.7</ele>
        <time>2011-05-18T18:09:42Z</time>
      </trkpt>
      <trkpt lat="44.34324" lon="2.49479">
        <ele>532.2</ele>
        <time>2011-05-18T18:09:43Z</time>
      </trkpt>
      <trkpt lat="44.3432" lon="2.4948">
        <ele>531.8</ele>
        <time>2011-05-18T18:09:44Z</time>
      </trkpt>
      <trkpt lat="44.34314" lon="2.4948">
        <ele>531.2</ele>
        <time>2011-05-18T18:09:45Z</time>
      </trkpt>
      <trkpt lat="44.34309" lon="2.4948">
        <ele>530.5</ele>
        <time>2011-05-18T18:09:46Z</time>
      </trkpt>
      <trkpt lat="44.34303" lon="2.4948">
        <ele>529.7</ele>
        <time>2011-05-18T18:09:47Z</time>
      </trkpt>
      <trkpt lat="44.34297" lon="2.49478">
        <ele>528.8</ele>
        <time>2011-05-18T18:09:48Z</time>
      </trkpt>
      <trkpt lat="44.34291" lon="2.49477">
        <ele>527.9</ele>
        <time>2011-05-18T18:09:49Z</time>
      </trkpt>
      <trkpt lat="44.34285" lon="2.49477">
        <ele>527.1</ele>
        <time>2011-05-18T18:09:50Z</time>
      </trkpt>
      <trkpt lat="44.34279" lon="2.49476">
        <ele>526.1</ele>
        <time>2011-05-18T18:09:51Z</time>
      </trkpt>
      <trkpt lat="44.34273" lon="2.49474">
        <ele>525.2</ele>
        <time>2011-05-18T18:09:52Z</time>
      </trkpt>
      <trkpt lat="44.34267" lon="2.49473">
        <ele>524.2</ele>
        <time>2011-05-18T18:09:53Z</time>
      </trkpt>
      <trkpt lat="44.3426" lon="2.49472">
        <ele>523.3</ele>
        <time>2011-05-18T18:09:54Z</time>
      </trkpt>
      <trkpt lat="44.34254" lon="2.49471">
        <ele>522.2</ele>
        <time>2011-05-18T18:09:55Z</time>
      </trkpt>
      <trkpt lat="44.34247" lon="2.4947">
        <ele>521.3</ele>
        <time>2011-05-18T18:09:56Z</time>
      </trkpt>
      <trkpt lat="44.3424" lon="2.49468">
        <ele>520.6</ele>
        <time>2011-05-18T18:09:57Z</time>
      </trkpt>
      <trkpt lat="44.34233" lon="2.49467">
        <ele>520.2</ele>
        <time>2011-05-18T18:09:58Z</time>
      </trkpt>
      <trkpt lat="44.34226" lon="2.49466">
        <ele>519.5</ele>
        <time>2011-05-18T18:09:59Z</time>
      </trkpt>
      <trkpt lat="44.34219" lon="2.49465">
        <ele>518.7</ele>
        <time>2011-05-18T18:10:00Z</time>
      </trkpt>
      <trkpt lat="44.34211" lon="2.49464">
        <ele>517.9</ele>
        <time>2011-05-18T18:10:01Z</time>
      </trkpt>
      <trkpt lat="44.34203" lon="2.49462">
        <ele>516.8</ele>
        <time>2011-05-18T18:10:02Z</time>
      </trkpt>
      <trkpt lat="44.34195" lon="2.49461">
        <ele>516.2</ele>
        <time>2011-05-18T18:10:03Z</time>
      </trkpt>
      <trkpt lat="44.34187" lon="2.49461">
        <ele>515.6</ele>
        <time>2011-05-18T18:10:04Z</time>
      </trkpt>
      <trkpt lat="44.34179" lon="2.49462">
        <ele>515.1</ele>
        <time>2011-05-18T18:10:05Z</time>
      </trkpt>
      <trkpt lat="44.34172" lon="2.49464">
        <ele>515.1</ele>
        <time>2011-05-18T18:10:06Z</time>
      </trkpt>
      <trkpt lat="44.34165" lon="2.49467">
        <ele>515.2</ele>
        <time>2011-05-18T18:10:07Z</time>
      </trkpt>
      <trkpt lat="44.34158" lon="2.4947">
        <ele>515.8</ele>
        <time>2011-05-18T18:10:08Z</time>
      </trkpt>
      <trkpt lat="44.34152" lon="2.49473">
        <ele>516.1</ele>
        <time>2011-05-18T18:10:09Z</time>
      </trkpt>
      <trkpt lat="44.34147" lon="2.49475">
        <ele>516.1</ele>
        <time>2011-05-18T18:10:10Z</time>
      </trkpt>
      <trkpt lat="44.3414" lon="2.49479">
        <ele>516.6</ele>
        <time>2011-05-18T18:10:11Z</time>
      </trkpt>
      <trkpt lat="44.34133" lon="2.49482">
        <ele>517.1</ele>
        <time>2011-05-18T18:10:12Z</time>
      </trkpt>
      <trkpt lat="44.34126" lon="2.49486">
        <ele>517.5</ele>
        <time>2011-05-18T18:10:13Z</time>
      </trkpt>
      <trkpt lat="44.34117" lon="2.4949">
        <ele>517.9</ele>
        <time>2011-05-18T18:10:14Z</time>
      </trkpt>
      <trkpt lat="44.34108" lon="2.49494">
        <ele>518.2</ele>
        <time>2011-05-18T18:10:15Z</time>
      </trkpt>
      <trkpt lat="44.34099" lon="2.49497">
        <ele>518.4</ele>
        <time>2011-05-18T18:10:16Z</time>
      </trkpt>
      <trkpt lat="44.34089" lon="2.49501">
        <ele>518.4</ele>
        <time>2011-05-18T18:10:17Z</time>
      </trkpt>
      <trkpt lat="44.3408" lon="2.49505">
        <ele>517.9</ele>
        <time>2011-05-18T18:10:18Z</time>
      </trkpt>
      <trkpt lat="44.34071" lon="2.4951">
        <ele>517.2</ele>
        <time>2011-05-18T18:10:19Z</time>
      </trkpt>
      <trkpt lat="44.34061" lon="2.49514">
        <ele>516.4</ele>
        <time>2011-05-18T18:10:20Z</time>
      </trkpt>
      <trkpt lat="44.34052" lon="2.49518">
        <ele>515.6</ele>
        <time>2011-05-18T18:10:21Z</time>
      </trkpt>
      <trkpt lat="44.34043" lon="2.49522">
        <ele>514.7</ele>
        <time>2011-05-18T18:10:22Z</time>
      </trkpt>
      <trkpt lat="44.34034" lon="2.49526">
        <ele>513.9</ele>
        <time>2011-05-18T18:10:23Z</time>
      </trkpt>
      <trkpt lat="44.34025" lon="2.4953">
        <ele>513.1</ele>
        <time>2011-05-18T18:10:24Z</time>
      </trkpt>
      <trkpt lat="44.34017" lon="2.49537">
        <ele>512.8</ele>
        <time>2011-05-18T18:10:25Z</time>
      </trkpt>
      <trkpt lat="44.3401" lon="2.49545">
        <ele>512.7</ele>
        <time>2011-05-18T18:10:26Z</time>
      </trkpt>
      <trkpt lat="44.34004" lon="2.49553">
        <ele>512.9</ele>
        <time>2011-05-18T18:10:27Z</time>
      </trkpt>
      <trkpt lat="44.33998" lon="2.49562">
        <ele>513</ele>
        <time>2011-05-18T18:10:28Z</time>
      </trkpt>
      <trkpt lat="44.33992" lon="2.49571">
        <ele>513.3</ele>
        <time>2011-05-18T18:10:29Z</time>
      </trkpt>
      <trkpt lat="44.33987" lon="2.4958">
        <ele>513.5</ele>
        <time>2011-05-18T18:10:30Z</time>
      </trkpt>
      <trkpt lat="44.33981" lon="2.4959">
        <ele>512.8</ele>
        <time>2011-05-18T18:10:31Z</time>
      </trkpt>
      <trkpt lat="44.33976" lon="2.49601">
        <ele>511.6</ele>
        <time>2011-05-18T18:10:32Z</time>
      </trkpt>
      <trkpt lat="44.33972" lon="2.49612">
        <ele>510.6</ele>
        <time>2011-05-18T18:10:33Z</time>
      </trkpt>
      <trkpt lat="44.33968" lon="2.49623">
        <ele>509.7</ele>
        <time>2011-05-18T18:10:34Z</time>
      </trkpt>
      <trkpt lat="44.33965" lon="2.49635">
        <ele>509</ele>
        <time>2011-05-18T18:10:35Z</time>
      </trkpt>
      <trkpt lat="44.33964" lon="2.49648">
        <ele>508.6</ele>
        <time>2011-05-18T18:10:36Z</time>
      </trkpt>
      <trkpt lat="44.33965" lon="2.49661">
        <ele>508.2</ele>
        <time>2011-05-18T18:10:37Z</time>
      </trkpt>
      <trkpt lat="44.33967" lon="2.49673">
        <ele>507.9</ele>
        <time>2011-05-18T18:10:38Z</time>
      </trkpt>
      <trkpt lat="44.33971" lon="2.49684">
        <ele>507.3</ele>
        <time>2011-05-18T18:10:39Z</time>
      </trkpt>
      <trkpt lat="44.33974" lon="2.49694">
        <ele>506.8</ele>
        <time>2011-05-18T18:10:40Z</time>
      </trkpt>
      <trkpt lat="44.33978" lon="2.49704">
        <ele>506.1</ele>
        <time>2011-05-18T18:10:41Z</time>
      </trkpt>
      <trkpt lat="44.33981" lon="2.49713">
        <ele>505.5</ele>
        <time>2011-05-18T18:10:42Z</time>
      </trkpt>
      <trkpt lat="44.33983" lon="2.49722">
        <ele>504.7</ele>
        <time>2011-05-18T18:10:43Z</time>
      </trkpt>
      <trkpt lat="44.33986" lon="2.4973">
        <ele>504</ele>
        <time>2011-05-18T18:10:44Z</time>
      </trkpt>
      <trkpt lat="44.33988" lon="2.49739">
        <ele>503.2</ele>
        <time>2011-05-18T18:10:45Z</time>
      </trkpt>
      <trkpt lat="44.33991" lon="2.49747">
        <ele>502.4</ele>
        <time>2011-05-18T18:10:46Z</time>
      </trkpt>
      <trkpt lat="44.33994" lon="2.49754">
        <ele>502.7</ele>
        <time>2011-05-18T18:10:47Z</time>
      </trkpt>
      <trkpt lat="44.33998" lon="2.4976">
        <ele>503.4</ele>
        <time>2011-05-18T18:10:48Z</time>
      </trkpt>
      <trkpt lat="44.34001" lon="2.49765">
        <ele>504.4</ele>
        <time>2011-05-18T18:10:49Z</time>
      </trkpt>
      <trkpt lat="44.34005" lon="2.4977">
        <ele>505.5</ele>
        <time>2011-05-18T18:10:50Z</time>
      </trkpt>
      <trkpt lat="44.34008" lon="2.49775">
        <ele>506.7</ele>
        <time>2011-05-18T18:10:51Z</time>
      </trkpt>
      <trkpt lat="44.34011" lon="2.4978">
        <ele>507.6</ele>
        <time>2011-05-18T18:10:52Z</time>
      </trkpt>
      <trkpt lat="44.34014" lon="2.49784">
        <ele>508.6</ele>
        <time>2011-05-18T18:10:53Z</time>
      </trkpt>
      <trkpt lat="44.34017" lon="2.49788">
        <ele>509.4</ele>
        <time>2011-05-18T18:10:54Z</time>
      </trkpt>
      <trkpt lat="44.34019" lon="2.49791">
        <ele>510</ele>
        <time>2011-05-18T18:10:55Z</time>
      </trkpt>
      <trkpt lat="44.34021" lon="2.49793">
        <ele>510.6</ele>
        <time>2011-05-18T18:10:56Z</time>
      </trkpt>
      <trkpt lat="44.34024" lon="2.49797">
        <ele>511.4</ele>
        <time>2011-05-18T18:10:58Z</time>
      </trkpt>
      <trkpt lat="44.34027" lon="2.498">
        <ele>512.1</ele>
        <time>2011-05-18T18:11:00Z</time>
      </trkpt>
      <trkpt lat="44.3403" lon="2.49805">
        <ele>513.1</ele>
        <time>2011-05-18T18:11:02Z</time>
      </trkpt>
      <trkpt lat="44.34033" lon="2.49808">
        <ele>513.7</ele>
        <time>2011-05-18T18:11:04Z</time>
      </trkpt>
      <trkpt lat="44.34037" lon="2.49808">
        <ele>514</ele>
        <time>2011-05-18T18:11:06Z</time>
      </trkpt>
      <trkpt lat="44.3404" lon="2.49806">
        <ele>514.1</ele>
        <time>2011-05-18T18:11:08Z</time>
      </trkpt>
      <trkpt lat="44.34043" lon="2.49805">
        <ele>514.1</ele>
        <time>2011-05-18T18:11:09Z</time>
      </trkpt>
      <trkpt lat="44.34045" lon="2.49803">
        <ele>514.2</ele>
        <time>2011-05-18T18:11:10Z</time>
      </trkpt>
      <trkpt lat="44.34049" lon="2.49801">
        <ele>514.2</ele>
        <time>2011-05-18T18:11:12Z</time>
      </trkpt>
      <trkpt lat="44.34053" lon="2.498">
        <ele>514.3</ele>
        <time>2011-05-18T18:11:14Z</time>
      </trkpt>
      <trkpt lat="44.34056" lon="2.49799">
        <ele>514.4</ele>
        <time>2011-05-18T18:11:16Z</time>
      </trkpt>
      <trkpt lat="44.34059" lon="2.49798">
        <ele>514.7</ele>
        <time>2011-05-18T18:11:18Z</time>
      </trkpt>
      <trkpt lat="44.34063" lon="2.49797">
        <ele>514.9</ele>
        <time>2011-05-18T18:11:23Z</time>
      </trkpt>
      <trkpt lat="44.34068" lon="2.49796">
        <ele>515.1</ele>
        <time>2011-05-18T18:11:29Z</time>
      </trkpt>
      <trkpt lat="44.34072" lon="2.49796">
        <ele>515.5</ele>
        <time>2011-05-18T18:11:34Z</time>
      </trkpt>
      <trkpt lat="44.34073" lon="2.49795">
        <ele>515.4</ele>
        <time>2011-05-18T18:11:35Z</time>
      </trkpt>
      <trkpt lat="44.3408" lon="2.49794">
        <ele>515.8</ele>
        <time>2011-05-18T18:11:43Z</time>
      </trkpt>
      <trkpt lat="44.34084" lon="2.49793">
        <ele>516.2</ele>
        <time>2011-05-18T18:11:46Z</time>
      </trkpt>
      <trkpt lat="44.34088" lon="2.49793">
        <ele>516.4</ele>
        <time>2011-05-18T18:11:50Z</time>
      </trkpt>
      <trkpt lat="44.34093" lon="2.49793">
        <ele>516.6</ele>
        <time>2011-05-18T18:11:54Z</time>
      </trkpt>
      <trkpt lat="44.34096" lon="2.49793">
        <ele>516.8</ele>
        <time>2011-05-18T18:11:57Z</time>
      </trkpt>
      <trkpt lat="44.341" lon="2.49793">
        <ele>516.9</ele>
        <time>2011-05-18T18:12:00Z</time>
      </trkpt>
      <trkpt lat="44.34103" lon="2.49797">
        <ele>517.4</ele>
        <time>2011-05-18T18:12:03Z</time>
      </trkpt>
      <trkpt lat="44.34099" lon="2.49799">
        <ele>517.3</ele>
        <time>2011-05-18T18:12:08Z</time>
      </trkpt>
      <trkpt lat="44.34095" lon="2.49799">
        <ele>517.2</ele>
        <time>2011-05-18T18:12:12Z</time>
      </trkpt>
      <trkpt lat="44.34092" lon="2.49802">
        <ele>517.4</ele>
        <time>2011-05-18T18:12:34Z</time>
      </trkpt>
      <trkpt lat="44.34089" lon="2.49805">
        <ele>517.6</ele>
        <time>2011-05-18T18:12:45Z</time>
      </trkpt>
      <trkpt lat="44.34088" lon="2.49805">
        <ele>517.6</ele>
        <time>2011-05-18T18:12:46Z</time>
      </trkpt>
      <trkpt lat="44.34082" lon="2.49809">
        <ele>517.9</ele>
        <time>2011-05-18T18:12:52Z</time>
      </trkpt>
      <trkpt lat="44.34079" lon="2.49812">
        <ele>518.1</ele>
        <time>2011-05-18T18:12:56Z</time>
      </trkpt>
      <trkpt lat="44.34076" lon="2.49816">
        <ele>518.2</ele>
        <time>2011-05-18T18:13:00Z</time>
      </trkpt>
      <trkpt lat="44.34073" lon="2.49819">
        <ele>518.3</ele>
        <time>2011-05-18T18:13:02Z</time>
      </trkpt>
      <trkpt lat="44.3407" lon="2.49822">
        <ele>518.6</ele>
        <time>2011-05-18T18:13:05Z</time>
      </trkpt>
      <trkpt lat="44.34068" lon="2.49827">
        <ele>519</ele>
        <time>2011-05-18T18:13:08Z</time>
      </trkpt>
      <trkpt lat="44.34065" lon="2.49831">
        <ele>519.4</ele>
        <time>2011-05-18T18:13:10Z</time>
      </trkpt>
      <trkpt lat="44.34062" lon="2.49833">
        <ele>519.4</ele>
        <time>2011-05-18T18:13:12Z</time>
      </trkpt>
      <trkpt lat="44.34059" lon="2.49837">
        <ele>519.9</ele>
        <time>2011-05-18T18:13:14Z</time>
      </trkpt>
      <trkpt lat="44.34055" lon="2.49841">
        <ele>520</ele>
        <time>2011-05-18T18:13:42Z</time>
      </trkpt>
      <trkpt lat="44.34056" lon="2.49846">
        <ele>521</ele>
        <time>2011-05-18T18:18:06Z</time>
      </trkpt>
      <trkpt lat="44.34056" lon="2.49847">
        <ele>521</ele>
        <time>2011-05-18T18:18:07Z</time>
      </trkpt>
      <trkpt lat="44.34057" lon="2.49856">
        <ele>522.5</ele>
        <time>2011-05-18T18:18:34Z</time>
      </trkpt>
      <trkpt lat="44.34058" lon="2.49862">
        <ele>523.4</ele>
        <time>2011-05-18T18:18:37Z</time>
      </trkpt>
      <trkpt lat="44.34058" lon="2.49868">
        <ele>524.4</ele>
        <time>2011-05-18T18:18:46Z</time>
      </trkpt>
      <trkpt lat="44.34061" lon="2.49864">
        <ele>524.2</ele>
        <time>2011-05-18T18:18:57Z</time>
      </trkpt>
      <trkpt lat="44.34062" lon="2.4986">
        <ele>523.7</ele>
        <time>2011-05-18T18:18:59Z</time>
      </trkpt>
      <trkpt lat="44.34065" lon="2.49857">
        <ele>523.5</ele>
        <time>2011-05-18T18:19:01Z</time>
      </trkpt>
      <trkpt lat="44.34068" lon="2.49853">
        <ele>523</ele>
        <time>2011-05-18T18:19:04Z</time>
      </trkpt>
      <trkpt lat="44.34072" lon="2.49851">
        <ele>523.2</ele>
        <time>2011-05-18T18:19:07Z</time>
      </trkpt>
      <trkpt lat="44.34073" lon="2.49851">
        <ele>523.3</ele>
        <time>2011-05-18T18:19:08Z</time>
      </trkpt>
      <trkpt lat="44.34078" lon="2.49856">
        <ele>524.7</ele>
        <time>2011-05-18T18:19:13Z</time>
      </trkpt>
      <trkpt lat="44.34076" lon="2.4986">
        <ele>525.2</ele>
        <time>2011-05-18T18:19:16Z</time>
      </trkpt>
      <trkpt lat="44.34076" lon="2.49864">
        <ele>525.9</ele>
        <time>2011-05-18T18:19:18Z</time>
      </trkpt>
      <trkpt lat="44.34076" lon="2.49869">
        <ele>526.8</ele>
        <time>2011-05-18T18:19:20Z</time>
      </trkpt>
      <trkpt lat="44.34075" lon="2.49875">
        <ele>527.6</ele>
        <time>2011-05-18T18:19:23Z</time>
      </trkpt>
      <trkpt lat="44.34075" lon="2.49879">
        <ele>528.6</ele>
        <time>2011-05-18T18:19:25Z</time>
      </trkpt>
      <trkpt lat="44.34076" lon="2.49884">
        <ele>529.7</ele>
        <time>2011-05-18T18:19:28Z</time>
      </trkpt>
      <trkpt lat="44.3408" lon="2.49884">
        <ele>530</ele>
        <time>2011-05-18T18:19:31Z</time>
      </trkpt>
      <trkpt lat="44.34083" lon="2.49879">
        <ele>529.7</ele>
        <time>2011-05-18T18:19:34Z</time>
      </trkpt>
      <trkpt lat="44.34085" lon="2.49875">
        <ele>528.7</ele>
        <time>2011-05-18T18:19:37Z</time>
      </trkpt>
      <trkpt lat="44.34089" lon="2.49872">
        <ele>527.5</ele>
        <time>2011-05-18T18:19:40Z</time>
      </trkpt>
      <trkpt lat="44.34092" lon="2.4987">
        <ele>526.8</ele>
        <time>2011-05-18T18:19:43Z</time>
      </trkpt>
      <trkpt lat="44.34095" lon="2.49868">
        <ele>525.8</ele>
        <time>2011-05-18T18:19:46Z</time>
      </trkpt>
      <trkpt lat="44.34098" lon="2.49868">
        <ele>525.7</ele>
        <time>2011-05-18T18:19:48Z</time>
      </trkpt>
      <trkpt lat="44.34101" lon="2.49869">
        <ele>525.2</ele>
        <time>2011-05-18T18:19:50Z</time>
      </trkpt>
      <trkpt lat="44.34104" lon="2.49873">
        <ele>525.4</ele>
        <time>2011-05-18T18:19:53Z</time>
      </trkpt>
      <trkpt lat="44.34103" lon="2.49879">
        <ele>526.2</ele>
        <time>2011-05-18T18:19:56Z</time>
      </trkpt>
      <trkpt lat="44.34104" lon="2.49884">
        <ele>527.1</ele>
        <time>2011-05-18T18:19:59Z</time>
      </trkpt>
      <trkpt lat="44.34104" lon="2.49889">
        <ele>527.7</ele>
        <time>2011-05-18T18:20:01Z</time>
      </trkpt>
      <trkpt lat="44.34106" lon="2.49893">
        <ele>528</ele>
        <time>2011-05-18T18:20:03Z</time>
      </trkpt>
      <trkpt lat="44.34107" lon="2.49899">
        <ele>528.7</ele>
        <time>2011-05-18T18:20:50Z</time>
      </trkpt>
      <trkpt lat="44.34107" lon="2.49899">
        <ele>528.7</ele>
        <time>2011-05-18T18:20:51Z</time>
      </trkpt>
      <trkpt lat="44.34113" lon="2.49906">
        <ele>528.3</ele>
        <time>2011-05-18T18:21:02Z</time>
      </trkpt>
      <trkpt lat="44.34116" lon="2.4991">
        <ele>528.3</ele>
        <time>2011-05-18T18:21:13Z</time>
      </trkpt>
      <trkpt lat="44.34118" lon="2.49915">
        <ele>528.4</ele>
        <time>2011-05-18T18:21:23Z</time>
      </trkpt>
      <trkpt lat="44.34119" lon="2.49919">
        <ele>528.6</ele>
        <time>2011-05-18T18:21:25Z</time>
      </trkpt>
      <trkpt lat="44.3412" lon="2.49924">
        <ele>529.3</ele>
        <time>2011-05-18T18:21:27Z</time>
      </trkpt>
      <trkpt lat="44.34121" lon="2.49929">
        <ele>530</ele>
        <time>2011-05-18T18:21:29Z</time>
      </trkpt>
      <trkpt lat="44.34122" lon="2.49933">
        <ele>530.4</ele>
        <time>2011-05-18T18:21:31Z</time>
      </trkpt>
      <trkpt lat="44.34123" lon="2.49937">
        <ele>530.9</ele>
        <time>2011-05-18T18:21:33Z</time>
      </trkpt>
      <trkpt lat="44.34124" lon="2.49943">
        <ele>531.4</ele>
        <time>2011-05-18T18:21:36Z</time>
      </trkpt>
      <trkpt lat="44.34125" lon="2.49947">
        <ele>532.1</ele>
        <time>2011-05-18T18:21:38Z</time>
      </trkpt>
      <trkpt lat="44.34126" lon="2.49952">
        <ele>532.9</ele>
        <time>2011-05-18T18:21:40Z</time>
      </trkpt>
      <trkpt lat="44.34127" lon="2.49957">
        <ele>533.7</ele>
        <time>2011-05-18T18:21:42Z</time>
      </trkpt>
      <trkpt lat="44.34128" lon="2.49962">
        <ele>534.1</ele>
        <time>2011-05-18T18:21:44Z</time>
      </trkpt>
      <trkpt lat="44.34129" lon="2.49966">
        <ele>534.8</ele>
        <time>2011-05-18T18:21:46Z</time>
      </trkpt>
      <trkpt lat="44.34131" lon="2.4997">
        <ele>535.2</ele>
        <time>2011-05-18T18:21:48Z</time>
      </trkpt>
      <trkpt lat="44.34132" lon="2.49974">
        <ele>535.6</ele>
        <time>2011-05-18T18:21:50Z</time>
      </trkpt>
      <trkpt lat="44.34134" lon="2.49978">
        <ele>536.1</ele>
        <time>2011-05-18T18:21:52Z</time>
      </trkpt>
      <trkpt lat="44.34135" lon="2.49981">
        <ele>536.4</ele>
        <time>2011-05-18T18:21:53Z</time>
      </trkpt>
      <trkpt lat="44.34138" lon="2.49988">
        <ele>537.1</ele>
        <time>2011-05-18T18:21:57Z</time>
      </trkpt>
      <trkpt lat="44.3414" lon="2.4999">
        <ele>537.2</ele>
        <time>2011-05-18T18:21:59Z</time>
      </trkpt>
      <trkpt lat="44.34143" lon="2.49992">
        <ele>537.2</ele>
        <time>2011-05-18T18:22:01Z</time>
      </trkpt>
      <trkpt lat="44.34145" lon="2.49995">
        <ele>537.3</ele>
        <time>2011-05-18T18:22:03Z</time>
      </trkpt>
      <trkpt lat="44.34148" lon="2.49998">
        <ele>537.4</ele>
        <time>2011-05-18T18:22:05Z</time>
      </trkpt>
      <trkpt lat="44.34151" lon="2.50002">
        <ele>537.5</ele>
        <time>2011-05-18T18:22:08Z</time>
      </trkpt>
      <trkpt lat="44.34154" lon="2.50005">
        <ele>537.5</ele>
        <time>2011-05-18T18:22:10Z</time>
      </trkpt>
      <trkpt lat="44.34156" lon="2.50008">
        <ele>537.5</ele>
        <time>2011-05-18T18:22:12Z</time>
      </trkpt>
      <trkpt lat="44.34159" lon="2.50011">
        <ele>537.5</ele>
        <time>2011-05-18T18:22:14Z</time>
      </trkpt>
      <trkpt lat="44.34162" lon="2.50016">
        <ele>537.8</ele>
        <time>2011-05-18T18:22:17Z</time>
      </trkpt>
      <trkpt lat="44.34165" lon="2.50019">
        <ele>537.8</ele>
        <time>2011-05-18T18:22:20Z</time>
      </trkpt>
      <trkpt lat="44.34169" lon="2.50023">
        <ele>537.7</ele>
        <time>2011-05-18T18:22:23Z</time>
      </trkpt>
      <trkpt lat="44.34172" lon="2.50026">
        <ele>537.5</ele>
        <time>2011-05-18T18:22:26Z</time>
      </trkpt>
      <trkpt lat="44.34175" lon="2.5003">
        <ele>537.3</ele>
        <time>2011-05-18T18:22:29Z</time>
      </trkpt>
      <trkpt lat="44.34178" lon="2.50035">
        <ele>537.2</ele>
        <time>2011-05-18T18:22:32Z</time>
      </trkpt>
      <trkpt lat="44.3418" lon="2.5004">
        <ele>537.1</ele>
        <time>2011-05-18T18:22:35Z</time>
      </trkpt>
      <trkpt lat="44.34183" lon="2.50042">
        <ele>536.7</ele>
        <time>2011-05-18T18:22:37Z</time>
      </trkpt>
      <trkpt lat="44.34186" lon="2.50044">
        <ele>536</ele>
        <time>2011-05-18T18:22:39Z</time>
      </trkpt>
      <trkpt lat="44.34189" lon="2.50044">
        <ele>535.3</ele>
        <time>2011-05-18T18:22:41Z</time>
      </trkpt>
      <trkpt lat="44.34194" lon="2.50044">
        <ele>534.2</ele>
        <time>2011-05-18T18:22:44Z</time>
      </trkpt>
      <trkpt lat="44.34198" lon="2.50043">
        <ele>532.9</ele>
        <time>2011-05-18T18:22:47Z</time>
      </trkpt>
      <trkpt lat="44.34201" lon="2.50043">
        <ele>531.9</ele>
        <time>2011-05-18T18:22:49Z</time>
      </trkpt>
      <trkpt lat="44.34204" lon="2.50042">
        <ele>531.1</ele>
        <time>2011-05-18T18:22:51Z</time>
      </trkpt>
      <trkpt lat="44.34207" lon="2.50043">
        <ele>530.3</ele>
        <time>2011-05-18T18:22:53Z</time>
      </trkpt>
      <trkpt lat="44.34209" lon="2.50044">
        <ele>530</ele>
        <time>2011-05-18T18:22:54Z</time>
      </trkpt>
      <trkpt lat="44.34213" lon="2.50047">
        <ele>529.1</ele>
        <time>2011-05-18T18:22:57Z</time>
      </trkpt>
      <trkpt lat="44.34216" lon="2.50049">
        <ele>528.6</ele>
        <time>2011-05-18T18:22:59Z</time>
      </trkpt>
      <trkpt lat="44.34219" lon="2.50053">
        <ele>528.1</ele>
        <time>2011-05-18T18:23:01Z</time>
      </trkpt>
      <trkpt lat="44.34221" lon="2.50056">
        <ele>527.8</ele>
        <time>2011-05-18T18:23:03Z</time>
      </trkpt>
      <trkpt lat="44.34223" lon="2.5006">
        <ele>527.7</ele>
        <time>2011-05-18T18:23:05Z</time>
      </trkpt>
      <trkpt lat="44.34224" lon="2.50065">
        <ele>527.5</ele>
        <time>2011-05-18T18:23:07Z</time>
      </trkpt>
      <trkpt lat="44.34226" lon="2.50069">
        <ele>527.4</ele>
        <time>2011-05-18T18:23:09Z</time>
      </trkpt>
      <trkpt lat="44.34227" lon="2.50073">
        <ele>527.3</ele>
        <time>2011-05-18T18:23:11Z</time>
      </trkpt>
      <trkpt lat="44.34228" lon="2.50077">
        <ele>527.2</ele>
        <time>2011-05-18T18:23:13Z</time>
      </trkpt>
      <trkpt lat="44.3423" lon="2.50081">
        <ele>527.2</ele>
        <time>2011-05-18T18:23:15Z</time>
      </trkpt>
      <trkpt lat="44.34231" lon="2.50086">
        <ele>527.2</ele>
        <time>2011-05-18T18:23:17Z</time>
      </trkpt>
      <trkpt lat="44.34233" lon="2.5009">
        <ele>528.6</ele>
        <time>2011-05-18T18:23:19Z</time>
      </trkpt>
      <trkpt lat="44.34234" lon="2.50094">
        <ele>529.3</ele>
        <time>2011-05-18T18:23:21Z</time>
      </trkpt>
      <trkpt lat="44.34235" lon="2.50098">
        <ele>530.4</ele>
        <time>2011-05-18T18:23:23Z</time>
      </trkpt>
      <trkpt lat="44.34236" lon="2.50102">
        <ele>531.3</ele>
        <time>2011-05-18T18:23:25Z</time>
      </trkpt>
      <trkpt lat="44.34237" lon="2.50107">
        <ele>532.9</ele>
        <time>2011-05-18T18:23:27Z</time>
      </trkpt>
      <trkpt lat="44.34239" lon="2.50111">
        <ele>533.8</ele>
        <time>2011-05-18T18:23:29Z</time>
      </trkpt>
      <trkpt lat="44.3424" lon="2.50117">
        <ele>535.2</ele>
        <time>2011-05-18T18:23:32Z</time>
      </trkpt>
      <trkpt lat="44.34241" lon="2.50123">
        <ele>537.2</ele>
        <time>2011-05-18T18:23:40Z</time>
      </trkpt>
      <trkpt lat="44.34245" lon="2.50127">
        <ele>537.9</ele>
        <time>2011-05-18T18:24:51Z</time>
      </trkpt>
      <trkpt lat="44.34245" lon="2.50127">
        <ele>537.9</ele>
        <time>2011-05-18T18:24:52Z</time>
      </trkpt>
      <trkpt lat="44.34247" lon="2.50134">
        <ele>540.3</ele>
        <time>2011-05-18T18:25:53Z</time>
      </trkpt>
      <trkpt lat="44.34247" lon="2.50141">
        <ele>542.8</ele>
        <time>2011-05-18T18:25:56Z</time>
      </trkpt>
      <trkpt lat="44.34247" lon="2.50146">
        <ele>544.7</ele>
        <time>2011-05-18T18:25:58Z</time>
      </trkpt>
      <trkpt lat="44.34247" lon="2.50151">
        <ele>546.6</ele>
        <time>2011-05-18T18:26:00Z</time>
      </trkpt>
      <trkpt lat="44.34247" lon="2.50156">
        <ele>548</ele>
        <time>2011-05-18T18:26:02Z</time>
      </trkpt>
      <trkpt lat="44.34247" lon="2.50161">
        <ele>549.8</ele>
        <time>2011-05-18T18:26:04Z</time>
      </trkpt>
      <trkpt lat="44.34247" lon="2.50166">
        <ele>551.7</ele>
        <time>2011-05-18T18:26:06Z</time>
      </trkpt>
      <trkpt lat="44.34248" lon="2.50172">
        <ele>553.6</ele>
        <time>2011-05-18T18:26:08Z</time>
      </trkpt>
      <trkpt lat="44.34249" lon="2.50177">
        <ele>555.1</ele>
        <time>2011-05-18T18:26:10Z</time>
      </trkpt>
      <trkpt lat="44.34251" lon="2.50182">
        <ele>556.2</ele>
        <time>2011-05-18T18:26:12Z</time>
      </trkpt>
      <trkpt lat="44.34252" lon="2.50186">
        <ele>557.5</ele>
        <time>2011-05-18T18:26:14Z</time>
      </trkpt>
      <trkpt lat="44.34253" lon="2.50191">
        <ele>558.4</ele>
        <time>2011-05-18T18:26:16Z</time>
      </trkpt>
      <trkpt lat="44.34255" lon="2.50195">
        <ele>559.2</ele>
        <time>2011-05-18T18:26:18Z</time>
      </trkpt>
      <trkpt lat="44.34256" lon="2.50199">
        <ele>560.5</ele>
        <time>2011-05-18T18:26:20Z</time>
      </trkpt>
      <trkpt lat="44.34258" lon="2.50203">
        <ele>561.3</ele>
        <time>2011-05-18T18:26:22Z</time>
      </trkpt>
      <trkpt lat="44.34261" lon="2.50208">
        <ele>561.9</ele>
        <time>2011-05-18T18:26:24Z</time>
      </trkpt>
      <trkpt lat="44.34263" lon="2.50212">
        <ele>562.7</ele>
        <time>2011-05-18T18:26:26Z</time>
      </trkpt>
      <trkpt lat="44.34266" lon="2.50216">
        <ele>563.6</ele>
        <time>2011-05-18T18:26:28Z</time>
      </trkpt>
      <trkpt lat="44.34269" lon="2.5022">
        <ele>564.2</ele>
        <time>2011-05-18T18:26:30Z</time>
      </trkpt>
      <trkpt lat="44.34272" lon="2.50224">
        <ele>564.7</ele>
        <time>2011-05-18T18:26:32Z</time>
      </trkpt>
      <trkpt lat="44.34274" lon="2.50229">
        <ele>565.4</ele>
        <time>2011-05-18T18:26:34Z</time>
      </trkpt>
      <trkpt lat="44.34277" lon="2.50233">
        <ele>566.4</ele>
        <time>2011-05-18T18:26:36Z</time>
      </trkpt>
      <trkpt lat="44.3428" lon="2.50238">
        <ele>567</ele>
        <time>2011-05-18T18:26:38Z</time>
      </trkpt>
      <trkpt lat="44.34282" lon="2.50243">
        <ele>568.1</ele>
        <time>2011-05-18T18:26:40Z</time>
      </trkpt>
      <trkpt lat="44.34285" lon="2.50248">
        <ele>569.1</ele>
        <time>2011-05-18T18:26:42Z</time>
      </trkpt>
      <trkpt lat="44.34287" lon="2.50252">
        <ele>569.5</ele>
        <time>2011-05-18T18:26:44Z</time>
      </trkpt>
      <trkpt lat="44.3429" lon="2.50257">
        <ele>569.5</ele>
        <time>2011-05-18T18:26:46Z</time>
      </trkpt>
      <trkpt lat="44.34292" lon="2.50262">
        <ele>569.4</ele>
        <time>2011-05-18T18:26:48Z</time>
      </trkpt>
      <trkpt lat="44.34294" lon="2.50266">
        <ele>569.6</ele>
        <time>2011-05-18T18:26:50Z</time>
      </trkpt>
      <trkpt lat="44.34296" lon="2.50271">
        <ele>569.8</ele>
        <time>2011-05-18T18:26:52Z</time>
      </trkpt>
      <trkpt lat="44.34298" lon="2.50276">
        <ele>570</ele>
        <time>2011-05-18T18:26:54Z</time>
      </trkpt>
      <trkpt lat="44.34299" lon="2.50279">
        <ele>570.2</ele>
        <time>2011-05-18T18:26:55Z</time>
      </trkpt>
      <trkpt lat="44.34302" lon="2.50287">
        <ele>570.7</ele>
        <time>2011-05-18T18:26:58Z</time>
      </trkpt>
      <trkpt lat="44.34303" lon="2.50293">
        <ele>571.3</ele>
        <time>2011-05-18T18:27:00Z</time>
      </trkpt>
      <trkpt lat="44.34305" lon="2.50299">
        <ele>571.7</ele>
        <time>2011-05-18T18:27:02Z</time>
      </trkpt>
      <trkpt lat="44.34306" lon="2.50304">
        <ele>572.2</ele>
        <time>2011-05-18T18:27:04Z</time>
      </trkpt>
      <trkpt lat="44.34308" lon="2.50309">
        <ele>572.7</ele>
        <time>2011-05-18T18:27:06Z</time>
      </trkpt>
      <trkpt lat="44.3431" lon="2.50314">
        <ele>573.2</ele>
        <time>2011-05-18T18:27:08Z</time>
      </trkpt>
      <trkpt lat="44.34313" lon="2.50318">
        <ele>573.5</ele>
        <time>2011-05-18T18:27:10Z</time>
      </trkpt>
      <trkpt lat="44.34316" lon="2.50323">
        <ele>574.1</ele>
        <time>2011-05-18T18:27:12Z</time>
      </trkpt>
      <trkpt lat="44.34318" lon="2.50328">
        <ele>574.6</ele>
        <time>2011-05-18T18:27:14Z</time>
      </trkpt>
      <trkpt lat="44.3432" lon="2.50333">
        <ele>575.3</ele>
        <time>2011-05-18T18:27:16Z</time>
      </trkpt>
      <trkpt lat="44.34323" lon="2.50337">
        <ele>575.9</ele>
        <time>2011-05-18T18:27:18Z</time>
      </trkpt>
      <trkpt lat="44.34325" lon="2.50342">
        <ele>576.3</ele>
        <time>2011-05-18T18:27:20Z</time>
      </trkpt>
      <trkpt lat="44.34327" lon="2.50346">
        <ele>576.8</ele>
        <time>2011-05-18T18:27:22Z</time>
      </trkpt>
      <trkpt lat="44.3433" lon="2.5035">
        <ele>577.4</ele>
        <time>2011-05-18T18:27:24Z</time>
      </trkpt>
      <trkpt lat="44.34333" lon="2.50353">
        <ele>578</ele>
        <time>2011-05-18T18:27:26Z</time>
      </trkpt>
      <trkpt lat="44.34336" lon="2.50357">
        <ele>577.8</ele>
        <time>2011-05-18T18:27:28Z</time>
      </trkpt>
      <trkpt lat="44.34339" lon="2.50361">
        <ele>577.5</ele>
        <time>2011-05-18T18:27:30Z</time>
      </trkpt>
      <trkpt lat="44.34342" lon="2.50365">
        <ele>577.4</ele>
        <time>2011-05-18T18:27:32Z</time>
      </trkpt>
      <trkpt lat="44.34345" lon="2.5037">
        <ele>577.6</ele>
        <time>2011-05-18T18:27:34Z</time>
      </trkpt>
      <trkpt lat="44.34347" lon="2.50375">
        <ele>578</ele>
        <time>2011-05-18T18:27:36Z</time>
      </trkpt>
      <trkpt lat="44.34349" lon="2.5038">
        <ele>578.4</ele>
        <time>2011-05-18T18:27:38Z</time>
      </trkpt>
      <trkpt lat="44.3435" lon="2.50386">
        <ele>579.1</ele>
        <time>2011-05-18T18:27:40Z</time>
      </trkpt>
      <trkpt lat="44.34351" lon="2.50392">
        <ele>580</ele>
        <time>2011-05-18T18:27:42Z</time>
      </trkpt>
      <trkpt lat="44.34352" lon="2.50398">
        <ele>580.8</ele>
        <time>2011-05-18T18:27:44Z</time>
      </trkpt>
      <trkpt lat="44.34352" lon="2.50401">
        <ele>581.5</ele>
        <time>2011-05-18T18:27:45Z</time>
      </trkpt>
      <trkpt lat="44.34353" lon="2.50404">
        <ele>581.9</ele>
        <time>2011-05-18T18:27:46Z</time>
      </trkpt>
      <trkpt lat="44.34353" lon="2.50407">
        <ele>582.3</ele>
        <time>2011-05-18T18:27:47Z</time>
      </trkpt>
      <trkpt lat="44.34354" lon="2.50411">
        <ele>583</ele>
        <time>2011-05-18T18:27:48Z</time>
      </trkpt>
      <trkpt lat="44.34354" lon="2.50414">
        <ele>583.7</ele>
        <time>2011-05-18T18:27:49Z</time>
      </trkpt>
      <trkpt lat="44.34355" lon="2.50417">
        <ele>584.2</ele>
        <time>2011-05-18T18:27:50Z</time>
      </trkpt>
      <trkpt lat="44.34355" lon="2.5042">
        <ele>584.5</ele>
        <time>2011-05-18T18:27:51Z</time>
      </trkpt>
      <trkpt lat="44.34355" lon="2.50424">
        <ele>585</ele>
        <time>2011-05-18T18:27:52Z</time>
      </trkpt>
      <trkpt lat="44.34355" lon="2.50427">
        <ele>585.3</ele>
        <time>2011-05-18T18:27:53Z</time>
      </trkpt>
      <trkpt lat="44.34355" lon="2.50431">
        <ele>585.8</ele>
        <time>2011-05-18T18:27:54Z</time>
      </trkpt>
      <trkpt lat="44.34355" lon="2.50434">
        <ele>586.3</ele>
        <time>2011-05-18T18:27:55Z</time>
      </trkpt>
      <trkpt lat="44.34355" lon="2.50438">
        <ele>586.8</ele>
        <time>2011-05-18T18:27:56Z</time>
      </trkpt>
      <trkpt lat="44.34356" lon="2.50441">
        <ele>587.2</ele>
        <time>2011-05-18T18:27:57Z</time>
      </trkpt>
      <trkpt lat="44.34356" lon="2.50445">
        <ele>587.7</ele>
        <time>2011-05-18T18:27:58Z</time>
      </trkpt>
      <trkpt lat="44.34356" lon="2.50449">
        <ele>588.2</ele>
        <time>2011-05-18T18:27:59Z</time>
      </trkpt>
      <trkpt lat="44.34356" lon="2.50453">
        <ele>588.8</ele>
        <time>2011-05-18T18:28:00Z</time>
      </trkpt>
      <trkpt lat="44.34356" lon="2.50457">
        <ele>589.3</ele>
        <time>2011-05-18T18:28:01Z</time>
      </trkpt>
      <trkpt lat="44.34356" lon="2.5046">
        <ele>589.8</ele>
        <time>2011-05-18T18:28:02Z</time>
      </trkpt>
      <trkpt lat="44.34356" lon="2.50464">
        <ele>590.3</ele>
        <time>2011-05-18T18:28:03Z</time>
      </trkpt>
      <trkpt lat="44.34356" lon="2.50468">
        <ele>590.9</ele>
        <time>2011-05-18T18:28:04Z</time>
      </trkpt>
      <trkpt lat="44.34356" lon="2.50472">
        <ele>591.4</ele>
        <time>2011-05-18T18:28:05Z</time>
      </trkpt>
      <trkpt lat="44.34355" lon="2.50476">
        <ele>591.9</ele>
        <time>2011-05-18T18:28:06Z</time>
      </trkpt>
      <trkpt lat="44.34355" lon="2.5048">
        <ele>592.5</ele>
        <time>2011-05-18T18:28:07Z</time>
      </trkpt>
      <trkpt lat="44.34355" lon="2.50484">
        <ele>593</ele>
        <time>2011-05-18T18:28:08Z</time>
      </trkpt>
      <trkpt lat="44.34355" lon="2.50488">
        <ele>593.7</ele>
        <time>2011-05-18T18:28:09Z</time>
      </trkpt>
      <trkpt lat="44.34355" lon="2.50492">
        <ele>594.2</ele>
        <time>2011-05-18T18:28:10Z</time>
      </trkpt>
      <trkpt lat="44.34355" lon="2.50496">
        <ele>594.7</ele>
        <time>2011-05-18T18:28:11Z</time>
      </trkpt>
      <trkpt lat="44.34354" lon="2.505">
        <ele>595.3</ele>
        <time>2011-05-18T18:28:12Z</time>
      </trkpt>
      <trkpt lat="44.34354" lon="2.50504">
        <ele>595.6</ele>
        <time>2011-05-18T18:28:13Z</time>
      </trkpt>
      <trkpt lat="44.34354" lon="2.50508">
        <ele>595.9</ele>
        <time>2011-05-18T18:28:14Z</time>
      </trkpt>
      <trkpt lat="44.34354" lon="2.50513">
        <ele>596.3</ele>
        <time>2011-05-18T18:28:15Z</time>
      </trkpt>
      <trkpt lat="44.34354" lon="2.50517">
        <ele>596.6</ele>
        <time>2011-05-18T18:28:16Z</time>
      </trkpt>
      <trkpt lat="44.34354" lon="2.50521">
        <ele>596.9</ele>
        <time>2011-05-18T18:28:17Z</time>
      </trkpt>
      <trkpt lat="44.34354" lon="2.50525">
        <ele>597.3</ele>
        <time>2011-05-18T18:28:18Z</time>
      </trkpt>
      <trkpt lat="44.34354" lon="2.50529">
        <ele>597.7</ele>
        <time>2011-05-18T18:28:19Z</time>
      </trkpt>
      <trkpt lat="44.34354" lon="2.50532">
        <ele>598</ele>
        <time>2011-05-18T18:28:20Z</time>
      </trkpt>
      <trkpt lat="44.34354" lon="2.50536">
        <ele>598.4</ele>
        <time>2011-05-18T18:28:21Z</time>
      </trkpt>
      <trkpt lat="44.34354" lon="2.50541">
        <ele>598.7</ele>
        <time>2011-05-18T18:28:22Z</time>
      </trkpt>
      <trkpt lat="44.34354" lon="2.50545">
        <ele>599.1</ele>
        <time>2011-05-18T18:28:23Z</time>
      </trkpt>
      <trkpt lat="44.34353" lon="2.50549">
        <ele>599.4</ele>
        <time>2011-05-18T18:28:24Z</time>
      </trkpt>
      <trkpt lat="44.34353" lon="2.50553">
        <ele>599.7</ele>
        <time>2011-05-18T18:28:25Z</time>
      </trkpt>
      <trkpt lat="44.34353" lon="2.50557">
        <ele>600.2</ele>
        <time>2011-05-18T18:28:26Z</time>
      </trkpt>
      <trkpt lat="44.34353" lon="2.50561">
        <ele>600.5</ele>
        <time>2011-05-18T18:28:27Z</time>
      </trkpt>
      <trkpt lat="44.34353" lon="2.50565">
        <ele>600.8</ele>
        <time>2011-05-18T18:28:28Z</time>
      </trkpt>
      <trkpt lat="44.34352" lon="2.50569">
        <ele>601.2</ele>
        <time>2011-05-18T18:28:29Z</time>
      </trkpt>
      <trkpt lat="44.34352" lon="2.50573">
        <ele>601.5</ele>
        <time>2011-05-18T18:28:30Z</time>
      </trkpt>
      <trkpt lat="44.34352" lon="2.50577">
        <ele>601.8</ele>
        <time>2011-05-18T18:28:31Z</time>
      </trkpt>
      <trkpt lat="44.34352" lon="2.50581">
        <ele>602</ele>
        <time>2011-05-18T18:28:32Z</time>
      </trkpt>
      <trkpt lat="44.34352" lon="2.50584">
        <ele>602.3</ele>
        <time>2011-05-18T18:28:33Z</time>
      </trkpt>
      <trkpt lat="44.34351" lon="2.50588">
        <ele>602.4</ele>
        <time>2011-05-18T18:28:34Z</time>
      </trkpt>
      <trkpt lat="44.34351" lon="2.50592">
        <ele>602.5</ele>
        <time>2011-05-18T18:28:35Z</time>
      </trkpt>
      <trkpt lat="44.3435" lon="2.50596">
        <ele>602.6</ele>
        <time>2011-05-18T18:28:36Z</time>
      </trkpt>
      <trkpt lat="44.3435" lon="2.506">
        <ele>602.7</ele>
        <time>2011-05-18T18:28:37Z</time>
      </trkpt>
      <trkpt lat="44.3435" lon="2.50603">
        <ele>602.8</ele>
        <time>2011-05-18T18:28:38Z</time>
      </trkpt>
      <trkpt lat="44.3435" lon="2.50607">
        <ele>602.9</ele>
        <time>2011-05-18T18:28:39Z</time>
      </trkpt>
      <trkpt lat="44.3435" lon="2.50611">
        <ele>603.1</ele>
        <time>2011-05-18T18:28:40Z</time>
      </trkpt>
      <trkpt lat="44.3435" lon="2.50615">
        <ele>603.2</ele>
        <time>2011-05-18T18:28:41Z</time>
      </trkpt>
      <trkpt lat="44.3435" lon="2.50618">
        <ele>603.3</ele>
        <time>2011-05-18T18:28:42Z</time>
      </trkpt>
      <trkpt lat="44.34351" lon="2.50622">
        <ele>603.4</ele>
        <time>2011-05-18T18:28:43Z</time>
      </trkpt>
      <trkpt lat="44.34351" lon="2.50625">
        <ele>603.5</ele>
        <time>2011-05-18T18:28:44Z</time>
      </trkpt>
      <trkpt lat="44.34351" lon="2.50629">
        <ele>603.6</ele>
        <time>2011-05-18T18:28:45Z</time>
      </trkpt>
      <trkpt lat="44.34351" lon="2.50632">
        <ele>603.8</ele>
        <time>2011-05-18T18:28:46Z</time>
      </trkpt>
      <trkpt lat="44.34351" lon="2.50638">
        <ele>604</ele>
        <time>2011-05-18T18:28:48Z</time>
      </trkpt>
      <trkpt lat="44.34351" lon="2.50644">
        <ele>604.1</ele>
        <time>2011-05-18T18:28:50Z</time>
      </trkpt>
      <trkpt lat="44.34351" lon="2.5065">
        <ele>604.3</ele>
        <time>2011-05-18T18:28:52Z</time>
      </trkpt>
      <trkpt lat="44.34352" lon="2.50653">
        <ele>604.4</ele>
        <time>2011-05-18T18:28:53Z</time>
      </trkpt>
      <trkpt lat="44.34352" lon="2.50656">
        <ele>604.5</ele>
        <time>2011-05-18T18:28:54Z</time>
      </trkpt>
      <trkpt lat="44.34352" lon="2.50659">
        <ele>604.7</ele>
        <time>2011-05-18T18:28:55Z</time>
      </trkpt>
      <trkpt lat="44.34352" lon="2.50662">
        <ele>604.7</ele>
        <time>2011-05-18T18:28:56Z</time>
      </trkpt>
      <trkpt lat="44.34353" lon="2.50666">
        <ele>604.9</ele>
        <time>2011-05-18T18:28:57Z</time>
      </trkpt>
      <trkpt lat="44.34353" lon="2.50669">
        <ele>605</ele>
        <time>2011-05-18T18:28:58Z</time>
      </trkpt>
      <trkpt lat="44.34353" lon="2.50672">
        <ele>605.1</ele>
        <time>2011-05-18T18:28:59Z</time>
      </trkpt>
      <trkpt lat="44.34353" lon="2.50678">
        <ele>605.3</ele>
        <time>2011-05-18T18:29:01Z</time>
      </trkpt>
      <trkpt lat="44.34354" lon="2.50684">
        <ele>605.4</ele>
        <time>2011-05-18T18:29:03Z</time>
      </trkpt>
      <trkpt lat="44.34354" lon="2.50689">
        <ele>605.6</ele>
        <time>2011-05-18T18:29:05Z</time>
      </trkpt>
      <trkpt lat="44.34354" lon="2.50694">
        <ele>605.8</ele>
        <time>2011-05-18T18:29:07Z</time>
      </trkpt>
      <trkpt lat="44.34355" lon="2.50699">
        <ele>605.9</ele>
        <time>2011-05-18T18:29:09Z</time>
      </trkpt>
      <trkpt lat="44.34354" lon="2.50704">
        <ele>606</ele>
        <time>2011-05-18T18:29:11Z</time>
      </trkpt>
      <trkpt lat="44.34354" lon="2.50709">
        <ele>606.1</ele>
        <time>2011-05-18T18:29:13Z</time>
      </trkpt>
      <trkpt lat="44.34353" lon="2.50714">
        <ele>606.2</ele>
        <time>2011-05-18T18:29:15Z</time>
      </trkpt>
      <trkpt lat="44.34353" lon="2.50719">
        <ele>606.4</ele>
        <time>2011-05-18T18:29:17Z</time>
      </trkpt>
      <trkpt lat="44.34352" lon="2.50724">
        <ele>606.5</ele>
        <time>2011-05-18T18:29:19Z</time>
      </trkpt>
      <trkpt lat="44.34352" lon="2.50729">
        <ele>606.6</ele>
        <time>2011-05-18T18:29:21Z</time>
      </trkpt>
      <trkpt lat="44.34351" lon="2.50735">
        <ele>606.8</ele>
        <time>2011-05-18T18:29:23Z</time>
      </trkpt>
      <trkpt lat="44.3435" lon="2.5074">
        <ele>606.9</ele>
        <time>2011-05-18T18:29:25Z</time>
      </trkpt>
      <trkpt lat="44.3435" lon="2.50745">
        <ele>607</ele>
        <time>2011-05-18T18:29:27Z</time>
      </trkpt>
      <trkpt lat="44.3435" lon="2.5075">
        <ele>607.2</ele>
        <time>2011-05-18T18:29:29Z</time>
      </trkpt>
      <trkpt lat="44.34349" lon="2.50755">
        <ele>607.3</ele>
        <time>2011-05-18T18:29:31Z</time>
      </trkpt>
      <trkpt lat="44.34349" lon="2.5076">
        <ele>607.5</ele>
        <time>2011-05-18T18:29:33Z</time>
      </trkpt>
      <trkpt lat="44.34349" lon="2.50765">
        <ele>607.7</ele>
        <time>2011-05-18T18:29:35Z</time>
      </trkpt>
      <trkpt lat="44.34348" lon="2.50771">
        <ele>608</ele>
        <time>2011-05-18T18:29:37Z</time>
      </trkpt>
      <trkpt lat="44.34348" lon="2.50777">
        <ele>608.2</ele>
        <time>2011-05-18T18:29:39Z</time>
      </trkpt>
      <trkpt lat="44.34349" lon="2.50782">
        <ele>608.4</ele>
        <time>2011-05-18T18:29:41Z</time>
      </trkpt>
      <trkpt lat="44.34349" lon="2.50787">
        <ele>608.6</ele>
        <time>2011-05-18T18:29:43Z</time>
      </trkpt>
      <trkpt lat="44.34349" lon="2.50792">
        <ele>608.8</ele>
        <time>2011-05-18T18:29:45Z</time>
      </trkpt>
      <trkpt lat="44.3435" lon="2.50797">
        <ele>609</ele>
        <time>2011-05-18T18:29:47Z</time>
      </trkpt>
      <trkpt lat="44.3435" lon="2.50802">
        <ele>609.2</ele>
        <time>2011-05-18T18:29:49Z</time>
      </trkpt>
      <trkpt lat="44.34351" lon="2.50808">
        <ele>609.4</ele>
        <time>2011-05-18T18:29:51Z</time>
      </trkpt>
      <trkpt lat="44.34351" lon="2.50813">
        <ele>609.6</ele>
        <time>2011-05-18T18:29:53Z</time>
      </trkpt>
      <trkpt lat="44.34351" lon="2.50819">
        <ele>609.8</ele>
        <time>2011-05-18T18:29:55Z</time>
      </trkpt>
      <trkpt lat="44.34352" lon="2.50824">
        <ele>610</ele>
        <time>2011-05-18T18:29:57Z</time>
      </trkpt>
      <trkpt lat="44.34352" lon="2.50827">
        <ele>610.1</ele>
        <time>2011-05-18T18:29:58Z</time>
      </trkpt>
      <trkpt lat="44.34353" lon="2.50836">
        <ele>610.3</ele>
        <time>2011-05-18T18:30:01Z</time>
      </trkpt>
      <trkpt lat="44.34355" lon="2.5084">
        <ele>610.3</ele>
        <time>2011-05-18T18:30:03Z</time>
      </trkpt>
      <trkpt lat="44.34357" lon="2.50844">
        <ele>610.2</ele>
        <time>2011-05-18T18:30:05Z</time>
      </trkpt>
      <trkpt lat="44.34358" lon="2.50849">
        <ele>610.2</ele>
        <time>2011-05-18T18:30:07Z</time>
      </trkpt>
      <trkpt lat="44.3436" lon="2.50854">
        <ele>610.2</ele>
        <time>2011-05-18T18:30:09Z</time>
      </trkpt>
      <trkpt lat="44.34361" lon="2.50858">
        <ele>610.2</ele>
        <time>2011-05-18T18:30:11Z</time>
      </trkpt>
      <trkpt lat="44.34363" lon="2.50863">
        <ele>610.2</ele>
        <time>2011-05-18T18:30:13Z</time>
      </trkpt>
      <trkpt lat="44.34365" lon="2.50867">
        <ele>610.2</ele>
        <time>2011-05-18T18:30:15Z</time>
      </trkpt>
      <trkpt lat="44.34366" lon="2.50872">
        <ele>610.2</ele>
        <time>2011-05-18T18:30:17Z</time>
      </trkpt>
      <trkpt lat="44.34368" lon="2.50877">
        <ele>610.2</ele>
        <time>2011-05-18T18:30:19Z</time>
      </trkpt>
      <trkpt lat="44.34371" lon="2.50882">
        <ele>610.2</ele>
        <time>2011-05-18T18:30:21Z</time>
      </trkpt>
      <trkpt lat="44.34373" lon="2.50888">
        <ele>610.2</ele>
        <time>2011-05-18T18:30:23Z</time>
      </trkpt>
      <trkpt lat="44.34374" lon="2.50891">
        <ele>610.2</ele>
        <time>2011-05-18T18:30:24Z</time>
      </trkpt>
      <trkpt lat="44.34377" lon="2.50896">
        <ele>610.2</ele>
        <time>2011-05-18T18:30:26Z</time>
      </trkpt>
      <trkpt lat="44.34379" lon="2.50901">
        <ele>610.2</ele>
        <time>2011-05-18T18:30:28Z</time>
      </trkpt>
      <trkpt lat="44.34381" lon="2.50907">
        <ele>610.3</ele>
        <time>2011-05-18T18:30:30Z</time>
      </trkpt>
      <trkpt lat="44.34382" lon="2.5091">
        <ele>610.3</ele>
        <time>2011-05-18T18:30:31Z</time>
      </trkpt>
      <trkpt lat="44.34383" lon="2.50913">
        <ele>610.3</ele>
        <time>2011-05-18T18:30:32Z</time>
      </trkpt>
      <trkpt lat="44.34384" lon="2.50915">
        <ele>610.4</ele>
        <time>2011-05-18T18:30:33Z</time>
      </trkpt>
      <trkpt lat="44.34385" lon="2.50918">
        <ele>610.3</ele>
        <time>2011-05-18T18:30:34Z</time>
      </trkpt>
      <trkpt lat="44.34386" lon="2.50921">
        <ele>610.3</ele>
        <time>2011-05-18T18:30:35Z</time>
      </trkpt>
      <trkpt lat="44.34388" lon="2.50924">
        <ele>610.2</ele>
        <time>2011-05-18T18:30:36Z</time>
      </trkpt>
      <trkpt lat="44.34389" lon="2.50927">
        <ele>610</ele>
        <time>2011-05-18T18:30:37Z</time>
      </trkpt>
      <trkpt lat="44.3439" lon="2.5093">
        <ele>610</ele>
        <time>2011-05-18T18:30:38Z</time>
      </trkpt>
      <trkpt lat="44.34391" lon="2.50933">
        <ele>609.9</ele>
        <time>2011-05-18T18:30:39Z</time>
      </trkpt>
      <trkpt lat="44.34392" lon="2.50936">
        <ele>609.8</ele>
        <time>2011-05-18T18:30:40Z</time>
      </trkpt>
      <trkpt lat="44.34394" lon="2.50938">
        <ele>609.7</ele>
        <time>2011-05-18T18:30:41Z</time>
      </trkpt>
      <trkpt lat="44.34395" lon="2.50941">
        <ele>609.6</ele>
        <time>2011-05-18T18:30:42Z</time>
      </trkpt>
      <trkpt lat="44.34396" lon="2.50944">
        <ele>609.4</ele>
        <time>2011-05-18T18:30:43Z</time>
      </trkpt>
      <trkpt lat="44.34398" lon="2.50949">
        <ele>609.2</ele>
        <time>2011-05-18T18:30:45Z</time>
      </trkpt>
      <trkpt lat="44.344" lon="2.50954">
        <ele>609.1</ele>
        <time>2011-05-18T18:30:47Z</time>
      </trkpt>
      <trkpt lat="44.34402" lon="2.50959">
        <ele>608.8</ele>
        <time>2011-05-18T18:30:49Z</time>
      </trkpt>
      <trkpt lat="44.34403" lon="2.50962">
        <ele>608.7</ele>
        <time>2011-05-18T18:30:50Z</time>
      </trkpt>
      <trkpt lat="44.34405" lon="2.50965">
        <ele>608.6</ele>
        <time>2011-05-18T18:30:51Z</time>
      </trkpt>
      <trkpt lat="44.34406" lon="2.50967">
        <ele>608.5</ele>
        <time>2011-05-18T18:30:52Z</time>
      </trkpt>
      <trkpt lat="44.34407" lon="2.5097">
        <ele>608.3</ele>
        <time>2011-05-18T18:30:53Z</time>
      </trkpt>
      <trkpt lat="44.34409" lon="2.50975">
        <ele>608.1</ele>
        <time>2011-05-18T18:30:55Z</time>
      </trkpt>
      <trkpt lat="44.34412" lon="2.5098">
        <ele>607.8</ele>
        <time>2011-05-18T18:30:57Z</time>
      </trkpt>
      <trkpt lat="44.34415" lon="2.50985">
        <ele>607.6</ele>
        <time>2011-05-18T18:30:59Z</time>
      </trkpt>
      <trkpt lat="44.34417" lon="2.50988">
        <ele>607.5</ele>
        <time>2011-05-18T18:31:00Z</time>
      </trkpt>
      <trkpt lat="44.34418" lon="2.5099">
        <ele>607.3</ele>
        <time>2011-05-18T18:31:01Z</time>
      </trkpt>
      <trkpt lat="44.34419" lon="2.50993">
        <ele>607.1</ele>
        <time>2011-05-18T18:31:02Z</time>
      </trkpt>
      <trkpt lat="44.34421" lon="2.50995">
        <ele>606.9</ele>
        <time>2011-05-18T18:31:03Z</time>
      </trkpt>
      <trkpt lat="44.34423" lon="2.51001">
        <ele>606.5</ele>
        <time>2011-05-18T18:31:05Z</time>
      </trkpt>
      <trkpt lat="44.34424" lon="2.51003">
        <ele>606.5</ele>
        <time>2011-05-18T18:31:06Z</time>
      </trkpt>
      <trkpt lat="44.34425" lon="2.51006">
        <ele>606.5</ele>
        <time>2011-05-18T18:31:07Z</time>
      </trkpt>
      <trkpt lat="44.34426" lon="2.51009">
        <ele>606.6</ele>
        <time>2011-05-18T18:31:08Z</time>
      </trkpt>
      <trkpt lat="44.34428" lon="2.51012">
        <ele>606.5</ele>
        <time>2011-05-18T18:31:09Z</time>
      </trkpt>
      <trkpt lat="44.34429" lon="2.51015">
        <ele>606.6</ele>
        <time>2011-05-18T18:31:10Z</time>
      </trkpt>
      <trkpt lat="44.3443" lon="2.51018">
        <ele>606.5</ele>
        <time>2011-05-18T18:31:11Z</time>
      </trkpt>
      <trkpt lat="44.34431" lon="2.51021">
        <ele>606.6</ele>
        <time>2011-05-18T18:31:12Z</time>
      </trkpt>
      <trkpt lat="44.34432" lon="2.51025">
        <ele>606.6</ele>
        <time>2011-05-18T18:31:13Z</time>
      </trkpt>
      <trkpt lat="44.34433" lon="2.51028">
        <ele>606.7</ele>
        <time>2011-05-18T18:31:14Z</time>
      </trkpt>
      <trkpt lat="44.34434" lon="2.51031">
        <ele>606.7</ele>
        <time>2011-05-18T18:31:15Z</time>
      </trkpt>
      <trkpt lat="44.34435" lon="2.51035">
        <ele>606.8</ele>
        <time>2011-05-18T18:31:16Z</time>
      </trkpt>
      <trkpt lat="44.34436" lon="2.51038">
        <ele>606.8</ele>
        <time>2011-05-18T18:31:17Z</time>
      </trkpt>
      <trkpt lat="44.34437" lon="2.51041">
        <ele>606.9</ele>
        <time>2011-05-18T18:31:18Z</time>
      </trkpt>
      <trkpt lat="44.34438" lon="2.51044">
        <ele>607</ele>
        <time>2011-05-18T18:31:19Z</time>
      </trkpt>
      <trkpt lat="44.34438" lon="2.51048">
        <ele>607</ele>
        <time>2011-05-18T18:31:20Z</time>
      </trkpt>
      <trkpt lat="44.34439" lon="2.51051">
        <ele>607.1</ele>
        <time>2011-05-18T18:31:21Z</time>
      </trkpt>
      <trkpt lat="44.3444" lon="2.51055">
        <ele>607.2</ele>
        <time>2011-05-18T18:31:22Z</time>
      </trkpt>
      <trkpt lat="44.34441" lon="2.51058">
        <ele>607.2</ele>
        <time>2011-05-18T18:31:23Z</time>
      </trkpt>
      <trkpt lat="44.34442" lon="2.51062">
        <ele>607.3</ele>
        <time>2011-05-18T18:31:24Z</time>
      </trkpt>
      <trkpt lat="44.34443" lon="2.51065">
        <ele>607.4</ele>
        <time>2011-05-18T18:31:25Z</time>
      </trkpt>
      <trkpt lat="44.34443" lon="2.51069">
        <ele>607.5</ele>
        <time>2011-05-18T18:31:26Z</time>
      </trkpt>
      <trkpt lat="44.34444" lon="2.51072">
        <ele>607.6</ele>
        <time>2011-05-18T18:31:27Z</time>
      </trkpt>
      <trkpt lat="44.34445" lon="2.51075">
        <ele>607.7</ele>
        <time>2011-05-18T18:31:28Z</time>
      </trkpt>
      <trkpt lat="44.34445" lon="2.51078">
        <ele>607.8</ele>
        <time>2011-05-18T18:31:29Z</time>
      </trkpt>
      <trkpt lat="44.34446" lon="2.51081">
        <ele>607.8</ele>
        <time>2011-05-18T18:31:30Z</time>
      </trkpt>
      <trkpt lat="44.34447" lon="2.51085">
        <ele>607.9</ele>
        <time>2011-05-18T18:31:31Z</time>
      </trkpt>
      <trkpt lat="44.34447" lon="2.51089">
        <ele>608</ele>
        <time>2011-05-18T18:31:32Z</time>
      </trkpt>
      <trkpt lat="44.34448" lon="2.51092">
        <ele>608.1</ele>
        <time>2011-05-18T18:31:33Z</time>
      </trkpt>
      <trkpt lat="44.34449" lon="2.51096">
        <ele>608.1</ele>
        <time>2011-05-18T18:31:34Z</time>
      </trkpt>
      <trkpt lat="44.3445" lon="2.511">
        <ele>608.2</ele>
        <time>2011-05-18T18:31:35Z</time>
      </trkpt>
      <trkpt lat="44.3445" lon="2.51104">
        <ele>608.2</ele>
        <time>2011-05-18T18:31:36Z</time>
      </trkpt>
      <trkpt lat="44.34451" lon="2.51108">
        <ele>608.3</ele>
        <time>2011-05-18T18:31:37Z</time>
      </trkpt>
      <trkpt lat="44.34452" lon="2.51111">
        <ele>608.3</ele>
        <time>2011-05-18T18:31:38Z</time>
      </trkpt>
      <trkpt lat="44.34452" lon="2.51115">
        <ele>608.4</ele>
        <time>2011-05-18T18:31:39Z</time>
      </trkpt>
      <trkpt lat="44.34453" lon="2.51119">
        <ele>608.5</ele>
        <time>2011-05-18T18:31:40Z</time>
      </trkpt>
      <trkpt lat="44.34454" lon="2.51123">
        <ele>608.6</ele>
        <time>2011-05-18T18:31:41Z</time>
      </trkpt>
      <trkpt lat="44.34454" lon="2.51127">
        <ele>608.6</ele>
        <time>2011-05-18T18:31:42Z</time>
      </trkpt>
      <trkpt lat="44.34455" lon="2.51132">
        <ele>608.7</ele>
        <time>2011-05-18T18:31:43Z</time>
      </trkpt>
      <trkpt lat="44.34455" lon="2.51136">
        <ele>608.8</ele>
        <time>2011-05-18T18:31:44Z</time>
      </trkpt>
      <trkpt lat="44.34456" lon="2.5114">
        <ele>608.9</ele>
        <time>2011-05-18T18:31:45Z</time>
      </trkpt>
      <trkpt lat="44.34456" lon="2.51144">
        <ele>609</ele>
        <time>2011-05-18T18:31:46Z</time>
      </trkpt>
      <trkpt lat="44.34457" lon="2.51148">
        <ele>609.1</ele>
        <time>2011-05-18T18:31:47Z</time>
      </trkpt>
      <trkpt lat="44.34457" lon="2.51152">
        <ele>609.2</ele>
        <time>2011-05-18T18:31:48Z</time>
      </trkpt>
      <trkpt lat="44.34458" lon="2.51156">
        <ele>609.3</ele>
        <time>2011-05-18T18:31:49Z</time>
      </trkpt>
      <trkpt lat="44.34458" lon="2.51161">
        <ele>609.3</ele>
        <time>2011-05-18T18:31:50Z</time>
      </trkpt>
      <trkpt lat="44.34459" lon="2.51165">
        <ele>609.4</ele>
        <time>2011-05-18T18:31:51Z</time>
      </trkpt>
      <trkpt lat="44.3446" lon="2.51169">
        <ele>609.5</ele>
        <time>2011-05-18T18:31:52Z</time>
      </trkpt>
      <trkpt lat="44.3446" lon="2.51173">
        <ele>609.4</ele>
        <time>2011-05-18T18:31:53Z</time>
      </trkpt>
      <trkpt lat="44.34461" lon="2.51178">
        <ele>609.4</ele>
        <time>2011-05-18T18:31:54Z</time>
      </trkpt>
      <trkpt lat="44.34461" lon="2.51182">
        <ele>609.4</ele>
        <time>2011-05-18T18:31:55Z</time>
      </trkpt>
      <trkpt lat="44.34461" lon="2.51187">
        <ele>609.3</ele>
        <time>2011-05-18T18:31:56Z</time>
      </trkpt>
      <trkpt lat="44.34462" lon="2.51191">
        <ele>609.3</ele>
        <time>2011-05-18T18:31:57Z</time>
      </trkpt>
      <trkpt lat="44.34462" lon="2.51196">
        <ele>609.3</ele>
        <time>2011-05-18T18:31:58Z</time>
      </trkpt>
      <trkpt lat="44.34463" lon="2.51201">
        <ele>609.2</ele>
        <time>2011-05-18T18:31:59Z</time>
      </trkpt>
      <trkpt lat="44.34463" lon="2.51205">
        <ele>609.2</ele>
        <time>2011-05-18T18:32:00Z</time>
      </trkpt>
      <trkpt lat="44.34463" lon="2.5121">
        <ele>609.1</ele>
        <time>2011-05-18T18:32:01Z</time>
      </trkpt>
      <trkpt lat="44.34464" lon="2.51215">
        <ele>609.1</ele>
        <time>2011-05-18T18:32:02Z</time>
      </trkpt>
      <trkpt lat="44.34464" lon="2.5122">
        <ele>609.1</ele>
        <time>2011-05-18T18:32:03Z</time>
      </trkpt>
      <trkpt lat="44.34465" lon="2.51225">
        <ele>609</ele>
        <time>2011-05-18T18:32:04Z</time>
      </trkpt>
      <trkpt lat="44.34466" lon="2.5123">
        <ele>609</ele>
        <time>2011-05-18T18:32:05Z</time>
      </trkpt>
      <trkpt lat="44.34466" lon="2.51235">
        <ele>608.9</ele>
        <time>2011-05-18T18:32:06Z</time>
      </trkpt>
      <trkpt lat="44.34467" lon="2.5124">
        <ele>608.9</ele>
        <time>2011-05-18T18:32:07Z</time>
      </trkpt>
      <trkpt lat="44.34468" lon="2.51244">
        <ele>608.8</ele>
        <time>2011-05-18T18:32:08Z</time>
      </trkpt>
      <trkpt lat="44.34469" lon="2.51248">
        <ele>608.8</ele>
        <time>2011-05-18T18:32:09Z</time>
      </trkpt>
      <trkpt lat="44.3447" lon="2.51253">
        <ele>608.7</ele>
        <time>2011-05-18T18:32:10Z</time>
      </trkpt>
      <trkpt lat="44.34471" lon="2.51258">
        <ele>608.7</ele>
        <time>2011-05-18T18:32:11Z</time>
      </trkpt>
      <trkpt lat="44.34472" lon="2.51262">
        <ele>608.7</ele>
        <time>2011-05-18T18:32:12Z</time>
      </trkpt>
      <trkpt lat="44.34473" lon="2.51267">
        <ele>608.7</ele>
        <time>2011-05-18T18:32:13Z</time>
      </trkpt>
      <trkpt lat="44.34474" lon="2.51272">
        <ele>608.7</ele>
        <time>2011-05-18T18:32:14Z</time>
      </trkpt>
      <trkpt lat="44.34475" lon="2.51277">
        <ele>608.7</ele>
        <time>2011-05-18T18:32:15Z</time>
      </trkpt>
      <trkpt lat="44.34476" lon="2.51281">
        <ele>608.7</ele>
        <time>2011-05-18T18:32:16Z</time>
      </trkpt>
      <trkpt lat="44.34477" lon="2.51286">
        <ele>608.7</ele>
        <time>2011-05-18T18:32:17Z</time>
      </trkpt>
      <trkpt lat="44.34479" lon="2.51291">
        <ele>608.6</ele>
        <time>2011-05-18T18:32:18Z</time>
      </trkpt>
      <trkpt lat="44.3448" lon="2.51295">
        <ele>608.6</ele>
        <time>2011-05-18T18:32:19Z</time>
      </trkpt>
      <trkpt lat="44.34481" lon="2.513">
        <ele>608.6</ele>
        <time>2011-05-18T18:32:20Z</time>
      </trkpt>
      <trkpt lat="44.34482" lon="2.51304">
        <ele>608.6</ele>
        <time>2011-05-18T18:32:21Z</time>
      </trkpt>
      <trkpt lat="44.34483" lon="2.51309">
        <ele>608.5</ele>
        <time>2011-05-18T18:32:22Z</time>
      </trkpt>
      <trkpt lat="44.34485" lon="2.51313">
        <ele>608.5</ele>
        <time>2011-05-18T18:32:23Z</time>
      </trkpt>
      <trkpt lat="44.34486" lon="2.51318">
        <ele>608.5</ele>
        <time>2011-05-18T18:32:24Z</time>
      </trkpt>
      <trkpt lat="44.34487" lon="2.51322">
        <ele>608.4</ele>
        <time>2011-05-18T18:32:25Z</time>
      </trkpt>
      <trkpt lat="44.34488" lon="2.51326">
        <ele>608.4</ele>
        <time>2011-05-18T18:32:26Z</time>
      </trkpt>
      <trkpt lat="44.3449" lon="2.51331">
        <ele>608.4</ele>
        <time>2011-05-18T18:32:27Z</time>
      </trkpt>
      <trkpt lat="44.34491" lon="2.51335">
        <ele>608.3</ele>
        <time>2011-05-18T18:32:28Z</time>
      </trkpt>
      <trkpt lat="44.34493" lon="2.51339">
        <ele>608.4</ele>
        <time>2011-05-18T18:32:29Z</time>
      </trkpt>
      <trkpt lat="44.34494" lon="2.51344">
        <ele>608.4</ele>
        <time>2011-05-18T18:32:30Z</time>
      </trkpt>
      <trkpt lat="44.34495" lon="2.51348">
        <ele>608.5</ele>
        <time>2011-05-18T18:32:31Z</time>
      </trkpt>
      <trkpt lat="44.34496" lon="2.51352">
        <ele>608.5</ele>
        <time>2011-05-18T18:32:32Z</time>
      </trkpt>
      <trkpt lat="44.34498" lon="2.51357">
        <ele>608.6</ele>
        <time>2011-05-18T18:32:33Z</time>
      </trkpt>
      <trkpt lat="44.34499" lon="2.51361">
        <ele>608.7</ele>
        <time>2011-05-18T18:32:34Z</time>
      </trkpt>
      <trkpt lat="44.345" lon="2.51365">
        <ele>608.7</ele>
        <time>2011-05-18T18:32:35Z</time>
      </trkpt>
      <trkpt lat="44.34502" lon="2.51369">
        <ele>608.7</ele>
        <time>2011-05-18T18:32:36Z</time>
      </trkpt>
      <trkpt lat="44.34503" lon="2.51373">
        <ele>608.8</ele>
        <time>2011-05-18T18:32:37Z</time>
      </trkpt>
      <trkpt lat="44.34504" lon="2.51378">
        <ele>608.8</ele>
        <time>2011-05-18T18:32:38Z</time>
      </trkpt>
      <trkpt lat="44.34505" lon="2.51382">
        <ele>608.9</ele>
        <time>2011-05-18T18:32:39Z</time>
      </trkpt>
      <trkpt lat="44.34506" lon="2.51386">
        <ele>608.9</ele>
        <time>2011-05-18T18:32:40Z</time>
      </trkpt>
      <trkpt lat="44.34507" lon="2.5139">
        <ele>608.9</ele>
        <time>2011-05-18T18:32:41Z</time>
      </trkpt>
      <trkpt lat="44.34508" lon="2.51395">
        <ele>609</ele>
        <time>2011-05-18T18:32:42Z</time>
      </trkpt>
      <trkpt lat="44.34509" lon="2.51399">
        <ele>609</ele>
        <time>2011-05-18T18:32:43Z</time>
      </trkpt>
      <trkpt lat="44.3451" lon="2.51403">
        <ele>609.1</ele>
        <time>2011-05-18T18:32:44Z</time>
      </trkpt>
      <trkpt lat="44.34511" lon="2.51408">
        <ele>609.1</ele>
        <time>2011-05-18T18:32:45Z</time>
      </trkpt>
      <trkpt lat="44.34512" lon="2.51413">
        <ele>609.2</ele>
        <time>2011-05-18T18:32:46Z</time>
      </trkpt>
      <trkpt lat="44.34513" lon="2.51417">
        <ele>609.2</ele>
        <time>2011-05-18T18:32:47Z</time>
      </trkpt>
      <trkpt lat="44.34514" lon="2.51422">
        <ele>609.1</ele>
        <time>2011-05-18T18:32:48Z</time>
      </trkpt>
      <trkpt lat="44.34515" lon="2.51427">
        <ele>609</ele>
        <time>2011-05-18T18:32:49Z</time>
      </trkpt>
      <trkpt lat="44.34517" lon="2.51432">
        <ele>608.9</ele>
        <time>2011-05-18T18:32:50Z</time>
      </trkpt>
      <trkpt lat="44.34518" lon="2.51436">
        <ele>608.7</ele>
        <time>2011-05-18T18:32:51Z</time>
      </trkpt>
      <trkpt lat="44.34519" lon="2.51441">
        <ele>608.7</ele>
        <time>2011-05-18T18:32:52Z</time>
      </trkpt>
      <trkpt lat="44.3452" lon="2.51446">
        <ele>608.6</ele>
        <time>2011-05-18T18:32:53Z</time>
      </trkpt>
      <trkpt lat="44.34521" lon="2.5145">
        <ele>608.5</ele>
        <time>2011-05-18T18:32:54Z</time>
      </trkpt>
      <trkpt lat="44.34522" lon="2.51455">
        <ele>608.4</ele>
        <time>2011-05-18T18:32:55Z</time>
      </trkpt>
      <trkpt lat="44.34523" lon="2.5146">
        <ele>608.3</ele>
        <time>2011-05-18T18:32:56Z</time>
      </trkpt>
      <trkpt lat="44.34524" lon="2.51465">
        <ele>608.2</ele>
        <time>2011-05-18T18:32:57Z</time>
      </trkpt>
      <trkpt lat="44.34525" lon="2.5147">
        <ele>608.1</ele>
        <time>2011-05-18T18:32:58Z</time>
      </trkpt>
      <trkpt lat="44.34526" lon="2.51475">
        <ele>608</ele>
        <time>2011-05-18T18:32:59Z</time>
      </trkpt>
      <trkpt lat="44.34526" lon="2.5148">
        <ele>607.9</ele>
        <time>2011-05-18T18:33:00Z</time>
      </trkpt>
      <trkpt lat="44.34527" lon="2.51485">
        <ele>607.8</ele>
        <time>2011-05-18T18:33:01Z</time>
      </trkpt>
      <trkpt lat="44.34528" lon="2.5149">
        <ele>607.7</ele>
        <time>2011-05-18T18:33:02Z</time>
      </trkpt>
      <trkpt lat="44.34529" lon="2.51495">
        <ele>607.7</ele>
        <time>2011-05-18T18:33:03Z</time>
      </trkpt>
      <trkpt lat="44.3453" lon="2.515">
        <ele>607.6</ele>
        <time>2011-05-18T18:33:04Z</time>
      </trkpt>
      <trkpt lat="44.3453" lon="2.51505">
        <ele>607.5</ele>
        <time>2011-05-18T18:33:05Z</time>
      </trkpt>
      <trkpt lat="44.34531" lon="2.5151">
        <ele>607.3</ele>
        <time>2011-05-18T18:33:06Z</time>
      </trkpt>
      <trkpt lat="44.34532" lon="2.51515">
        <ele>607.3</ele>
        <time>2011-05-18T18:33:07Z</time>
      </trkpt>
      <trkpt lat="44.34533" lon="2.51521">
        <ele>607.2</ele>
        <time>2011-05-18T18:33:08Z</time>
      </trkpt>
      <trkpt lat="44.34533" lon="2.51526">
        <ele>607</ele>
        <time>2011-05-18T18:33:09Z</time>
      </trkpt>
      <trkpt lat="44.34534" lon="2.51531">
        <ele>606.9</ele>
        <time>2011-05-18T18:33:10Z</time>
      </trkpt>
      <trkpt lat="44.34534" lon="2.51536">
        <ele>606.8</ele>
        <time>2011-05-18T18:33:11Z</time>
      </trkpt>
      <trkpt lat="44.34535" lon="2.51542">
        <ele>606.7</ele>
        <time>2011-05-18T18:33:12Z</time>
      </trkpt>
      <trkpt lat="44.34535" lon="2.51547">
        <ele>606.7</ele>
        <time>2011-05-18T18:33:13Z</time>
      </trkpt>
      <trkpt lat="44.34536" lon="2.51552">
        <ele>606.6</ele>
        <time>2011-05-18T18:33:14Z</time>
      </trkpt>
      <trkpt lat="44.34537" lon="2.51557">
        <ele>606.5</ele>
        <time>2011-05-18T18:33:15Z</time>
      </trkpt>
      <trkpt lat="44.34537" lon="2.51563">
        <ele>606.4</ele>
        <time>2011-05-18T18:33:16Z</time>
      </trkpt>
      <trkpt lat="44.34538" lon="2.51568">
        <ele>606.3</ele>
        <time>2011-05-18T18:33:17Z</time>
      </trkpt>
      <trkpt lat="44.34539" lon="2.51573">
        <ele>606.2</ele>
        <time>2011-05-18T18:33:18Z</time>
      </trkpt>
      <trkpt lat="44.34539" lon="2.51579">
        <ele>606.1</ele>
        <time>2011-05-18T18:33:19Z</time>
      </trkpt>
      <trkpt lat="44.3454" lon="2.51584">
        <ele>606</ele>
        <time>2011-05-18T18:33:20Z</time>
      </trkpt>
      <trkpt lat="44.34541" lon="2.5159">
        <ele>605.9</ele>
        <time>2011-05-18T18:33:21Z</time>
      </trkpt>
      <trkpt lat="44.34542" lon="2.51596">
        <ele>605.7</ele>
        <time>2011-05-18T18:33:22Z</time>
      </trkpt>
      <trkpt lat="44.34543" lon="2.51602">
        <ele>605.5</ele>
        <time>2011-05-18T18:33:23Z</time>
      </trkpt>
      <trkpt lat="44.34544" lon="2.51608">
        <ele>605.4</ele>
        <time>2011-05-18T18:33:24Z</time>
      </trkpt>
      <trkpt lat="44.34545" lon="2.51614">
        <ele>605.2</ele>
        <time>2011-05-18T18:33:25Z</time>
      </trkpt>
      <trkpt lat="44.34547" lon="2.51619">
        <ele>605.1</ele>
        <time>2011-05-18T18:33:26Z</time>
      </trkpt>
      <trkpt lat="44.34548" lon="2.51625">
        <ele>604.9</ele>
        <time>2011-05-18T18:33:27Z</time>
      </trkpt>
      <trkpt lat="44.34549" lon="2.51631">
        <ele>604.8</ele>
        <time>2011-05-18T18:33:28Z</time>
      </trkpt>
      <trkpt lat="44.3455" lon="2.51637">
        <ele>604.7</ele>
        <time>2011-05-18T18:33:29Z</time>
      </trkpt>
      <trkpt lat="44.3455" lon="2.51642">
        <ele>604.5</ele>
        <time>2011-05-18T18:33:30Z</time>
      </trkpt>
      <trkpt lat="44.34549" lon="2.51648">
        <ele>604.4</ele>
        <time>2011-05-18T18:33:31Z</time>
      </trkpt>
      <trkpt lat="44.34548" lon="2.51653">
        <ele>604.3</ele>
        <time>2011-05-18T18:33:32Z</time>
      </trkpt>
      <trkpt lat="44.34546" lon="2.51657">
        <ele>604.2</ele>
        <time>2011-05-18T18:33:33Z</time>
      </trkpt>
      <trkpt lat="44.34543" lon="2.5166">
        <ele>604.2</ele>
        <time>2011-05-18T18:33:34Z</time>
      </trkpt>
      <trkpt lat="44.34541" lon="2.51664">
        <ele>604.1</ele>
        <time>2011-05-18T18:33:35Z</time>
      </trkpt>
      <trkpt lat="44.34539" lon="2.51667">
        <ele>604</ele>
        <time>2011-05-18T18:33:36Z</time>
      </trkpt>
      <trkpt lat="44.34537" lon="2.51671">
        <ele>604</ele>
        <time>2011-05-18T18:33:37Z</time>
      </trkpt>
      <trkpt lat="44.34534" lon="2.51674">
        <ele>604</ele>
        <time>2011-05-18T18:33:38Z</time>
      </trkpt>
      <trkpt lat="44.34532" lon="2.51677">
        <ele>604</ele>
        <time>2011-05-18T18:33:39Z</time>
      </trkpt>
      <trkpt lat="44.3453" lon="2.5168">
        <ele>603.9</ele>
        <time>2011-05-18T18:33:40Z</time>
      </trkpt>
      <trkpt lat="44.34528" lon="2.51683">
        <ele>603.9</ele>
        <time>2011-05-18T18:33:41Z</time>
      </trkpt>
      <trkpt lat="44.34526" lon="2.51686">
        <ele>603.9</ele>
        <time>2011-05-18T18:33:42Z</time>
      </trkpt>
      <trkpt lat="44.34523" lon="2.51689">
        <ele>603.9</ele>
        <time>2011-05-18T18:33:43Z</time>
      </trkpt>
      <trkpt lat="44.34521" lon="2.51692">
        <ele>603.9</ele>
        <time>2011-05-18T18:33:44Z</time>
      </trkpt>
      <trkpt lat="44.34518" lon="2.51695">
        <ele>603.9</ele>
        <time>2011-05-18T18:33:45Z</time>
      </trkpt>
      <trkpt lat="44.34516" lon="2.51699">
        <ele>603.9</ele>
        <time>2011-05-18T18:33:46Z</time>
      </trkpt>
      <trkpt lat="44.34513" lon="2.51703">
        <ele>603.9</ele>
        <time>2011-05-18T18:33:47Z</time>
      </trkpt>
      <trkpt lat="44.34511" lon="2.51706">
        <ele>603.9</ele>
        <time>2011-05-18T18:33:48Z</time>
      </trkpt>
      <trkpt lat="44.34508" lon="2.5171">
        <ele>603.9</ele>
        <time>2011-05-18T18:33:49Z</time>
      </trkpt>
      <trkpt lat="44.34506" lon="2.51715">
        <ele>604</ele>
        <time>2011-05-18T18:33:50Z</time>
      </trkpt>
      <trkpt lat="44.34504" lon="2.51719">
        <ele>604</ele>
        <time>2011-05-18T18:33:51Z</time>
      </trkpt>
      <trkpt lat="44.34501" lon="2.51723">
        <ele>604</ele>
        <time>2011-05-18T18:33:52Z</time>
      </trkpt>
      <trkpt lat="44.34499" lon="2.51727">
        <ele>604</ele>
        <time>2011-05-18T18:33:53Z</time>
      </trkpt>
      <trkpt lat="44.34496" lon="2.51731">
        <ele>604.1</ele>
        <time>2011-05-18T18:33:54Z</time>
      </trkpt>
      <trkpt lat="44.34494" lon="2.51736">
        <ele>604.2</ele>
        <time>2011-05-18T18:33:55Z</time>
      </trkpt>
      <trkpt lat="44.34491" lon="2.5174">
        <ele>604.3</ele>
        <time>2011-05-18T18:33:56Z</time>
      </trkpt>
      <trkpt lat="44.34488" lon="2.51744">
        <ele>604.4</ele>
        <time>2011-05-18T18:33:57Z</time>
      </trkpt>
      <trkpt lat="44.34486" lon="2.51748">
        <ele>604.5</ele>
        <time>2011-05-18T18:33:58Z</time>
      </trkpt>
      <trkpt lat="44.34483" lon="2.51752">
        <ele>604.6</ele>
        <time>2011-05-18T18:33:59Z</time>
      </trkpt>
      <trkpt lat="44.3448" lon="2.51756">
        <ele>604.7</ele>
        <time>2011-05-18T18:34:00Z</time>
      </trkpt>
      <trkpt lat="44.34477" lon="2.5176">
        <ele>604.7</ele>
        <time>2011-05-18T18:34:01Z</time>
      </trkpt>
      <trkpt lat="44.34474" lon="2.51764">
        <ele>604.8</ele>
        <time>2011-05-18T18:34:02Z</time>
      </trkpt>
      <trkpt lat="44.34472" lon="2.51768">
        <ele>604.8</ele>
        <time>2011-05-18T18:34:03Z</time>
      </trkpt>
      <trkpt lat="44.34469" lon="2.51772">
        <ele>604.9</ele>
        <time>2011-05-18T18:34:04Z</time>
      </trkpt>
      <trkpt lat="44.34466" lon="2.51776">
        <ele>604.9</ele>
        <time>2011-05-18T18:34:05Z</time>
      </trkpt>
      <trkpt lat="44.34463" lon="2.51779">
        <ele>605</ele>
        <time>2011-05-18T18:34:06Z</time>
      </trkpt>
      <trkpt lat="44.34461" lon="2.51783">
        <ele>605</ele>
        <time>2011-05-18T18:34:07Z</time>
      </trkpt>
      <trkpt lat="44.34458" lon="2.51787">
        <ele>605.1</ele>
        <time>2011-05-18T18:34:08Z</time>
      </trkpt>
      <trkpt lat="44.34455" lon="2.5179">
        <ele>605.1</ele>
        <time>2011-05-18T18:34:09Z</time>
      </trkpt>
      <trkpt lat="44.34452" lon="2.51794">
        <ele>605.2</ele>
        <time>2011-05-18T18:34:10Z</time>
      </trkpt>
      <trkpt lat="44.34449" lon="2.51797">
        <ele>605.3</ele>
        <time>2011-05-18T18:34:11Z</time>
      </trkpt>
      <trkpt lat="44.34446" lon="2.518">
        <ele>605.3</ele>
        <time>2011-05-18T18:34:12Z</time>
      </trkpt>
      <trkpt lat="44.34444" lon="2.51802">
        <ele>605.4</ele>
        <time>2011-05-18T18:34:13Z</time>
      </trkpt>
      <trkpt lat="44.34441" lon="2.51805">
        <ele>605.5</ele>
        <time>2011-05-18T18:34:14Z</time>
      </trkpt>
      <trkpt lat="44.34437" lon="2.51807">
        <ele>605.6</ele>
        <time>2011-05-18T18:34:15Z</time>
      </trkpt>
      <trkpt lat="44.34434" lon="2.51809">
        <ele>605.7</ele>
        <time>2011-05-18T18:34:16Z</time>
      </trkpt>
      <trkpt lat="44.34431" lon="2.51811">
        <ele>605.8</ele>
        <time>2011-05-18T18:34:17Z</time>
      </trkpt>
      <trkpt lat="44.34428" lon="2.51814">
        <ele>605.8</ele>
        <time>2011-05-18T18:34:18Z</time>
      </trkpt>
      <trkpt lat="44.34425" lon="2.51817">
        <ele>605.9</ele>
        <time>2011-05-18T18:34:19Z</time>
      </trkpt>
      <trkpt lat="44.34422" lon="2.51821">
        <ele>606</ele>
        <time>2011-05-18T18:34:20Z</time>
      </trkpt>
      <trkpt lat="44.3442" lon="2.51824">
        <ele>606</ele>
        <time>2011-05-18T18:34:21Z</time>
      </trkpt>
      <trkpt lat="44.34418" lon="2.51828">
        <ele>606</ele>
        <time>2011-05-18T18:34:22Z</time>
      </trkpt>
      <trkpt lat="44.34416" lon="2.51832">
        <ele>606</ele>
        <time>2011-05-18T18:34:23Z</time>
      </trkpt>
      <trkpt lat="44.34415" lon="2.51836">
        <ele>606.1</ele>
        <time>2011-05-18T18:34:24Z</time>
      </trkpt>
      <trkpt lat="44.34413" lon="2.5184">
        <ele>606.3</ele>
        <time>2011-05-18T18:34:25Z</time>
      </trkpt>
      <trkpt lat="44.34412" lon="2.51844">
        <ele>606.5</ele>
        <time>2011-05-18T18:34:26Z</time>
      </trkpt>
      <trkpt lat="44.34411" lon="2.51848">
        <ele>606.6</ele>
        <time>2011-05-18T18:34:27Z</time>
      </trkpt>
      <trkpt lat="44.3441" lon="2.51853">
        <ele>606.8</ele>
        <time>2011-05-18T18:34:28Z</time>
      </trkpt>
      <trkpt lat="44.3441" lon="2.51857">
        <ele>606.9</ele>
        <time>2011-05-18T18:34:29Z</time>
      </trkpt>
      <trkpt lat="44.34411" lon="2.51862">
        <ele>607</ele>
        <time>2011-05-18T18:34:30Z</time>
      </trkpt>
      <trkpt lat="44.34411" lon="2.51866">
        <ele>607</ele>
        <time>2011-05-18T18:34:31Z</time>
      </trkpt>
      <trkpt lat="44.34412" lon="2.51871">
        <ele>607.1</ele>
        <time>2011-05-18T18:34:32Z</time>
      </trkpt>
      <trkpt lat="44.34413" lon="2.51875">
        <ele>607.2</ele>
        <time>2011-05-18T18:34:33Z</time>
      </trkpt>
      <trkpt lat="44.34414" lon="2.5188">
        <ele>607.2</ele>
        <time>2011-05-18T18:34:34Z</time>
      </trkpt>
      <trkpt lat="44.34415" lon="2.51884">
        <ele>607.3</ele>
        <time>2011-05-18T18:34:35Z</time>
      </trkpt>
      <trkpt lat="44.34416" lon="2.51889">
        <ele>607.3</ele>
        <time>2011-05-18T18:34:36Z</time>
      </trkpt>
      <trkpt lat="44.34417" lon="2.51893">
        <ele>607.4</ele>
        <time>2011-05-18T18:34:37Z</time>
      </trkpt>
      <trkpt lat="44.34418" lon="2.51898">
        <ele>607.5</ele>
        <time>2011-05-18T18:34:38Z</time>
      </trkpt>
      <trkpt lat="44.34419" lon="2.51903">
        <ele>607.5</ele>
        <time>2011-05-18T18:34:39Z</time>
      </trkpt>
      <trkpt lat="44.3442" lon="2.51907">
        <ele>607.6</ele>
        <time>2011-05-18T18:34:40Z</time>
      </trkpt>
      <trkpt lat="44.34421" lon="2.51912">
        <ele>607.6</ele>
        <time>2011-05-18T18:34:41Z</time>
      </trkpt>
      <trkpt lat="44.34422" lon="2.51917">
        <ele>607.7</ele>
        <time>2011-05-18T18:34:42Z</time>
      </trkpt>
      <trkpt lat="44.34423" lon="2.51921">
        <ele>607.7</ele>
        <time>2011-05-18T18:34:43Z</time>
      </trkpt>
      <trkpt lat="44.34424" lon="2.51926">
        <ele>607.7</ele>
        <time>2011-05-18T18:34:44Z</time>
      </trkpt>
      <trkpt lat="44.34425" lon="2.51931">
        <ele>607.7</ele>
        <time>2011-05-18T18:34:45Z</time>
      </trkpt>
      <trkpt lat="44.34425" lon="2.51936">
        <ele>607.7</ele>
        <time>2011-05-18T18:34:46Z</time>
      </trkpt>
      <trkpt lat="44.34426" lon="2.5194">
        <ele>607.7</ele>
        <time>2011-05-18T18:34:47Z</time>
      </trkpt>
      <trkpt lat="44.34427" lon="2.51945">
        <ele>607.7</ele>
        <time>2011-05-18T18:34:48Z</time>
      </trkpt>
      <trkpt lat="44.34428" lon="2.5195">
        <ele>607.7</ele>
        <time>2011-05-18T18:34:49Z</time>
      </trkpt>
      <trkpt lat="44.34428" lon="2.51954">
        <ele>607.7</ele>
        <time>2011-05-18T18:34:50Z</time>
      </trkpt>
      <trkpt lat="44.34429" lon="2.51959">
        <ele>607.7</ele>
        <time>2011-05-18T18:34:51Z</time>
      </trkpt>
      <trkpt lat="44.3443" lon="2.51964">
        <ele>607.8</ele>
        <time>2011-05-18T18:34:52Z</time>
      </trkpt>
      <trkpt lat="44.34431" lon="2.51969">
        <ele>607.8</ele>
        <time>2011-05-18T18:34:53Z</time>
      </trkpt>
      <trkpt lat="44.34432" lon="2.51974">
        <ele>607.8</ele>
        <time>2011-05-18T18:34:54Z</time>
      </trkpt>
      <trkpt lat="44.34433" lon="2.51979">
        <ele>607.8</ele>
        <time>2011-05-18T18:34:55Z</time>
      </trkpt>
      <trkpt lat="44.34433" lon="2.51984">
        <ele>607.8</ele>
        <time>2011-05-18T18:34:56Z</time>
      </trkpt>
      <trkpt lat="44.34434" lon="2.51989">
        <ele>607.8</ele>
        <time>2011-05-18T18:34:57Z</time>
      </trkpt>
      <trkpt lat="44.34435" lon="2.51993">
        <ele>607.8</ele>
        <time>2011-05-18T18:34:58Z</time>
      </trkpt>
      <trkpt lat="44.34435" lon="2.51998">
        <ele>607.8</ele>
        <time>2011-05-18T18:34:59Z</time>
      </trkpt>
      <trkpt lat="44.34436" lon="2.52003">
        <ele>607.9</ele>
        <time>2011-05-18T18:35:00Z</time>
      </trkpt>
      <trkpt lat="44.34437" lon="2.52009">
        <ele>607.9</ele>
        <time>2011-05-18T18:35:01Z</time>
      </trkpt>
      <trkpt lat="44.34438" lon="2.52014">
        <ele>608</ele>
        <time>2011-05-18T18:35:02Z</time>
      </trkpt>
      <trkpt lat="44.34438" lon="2.52018">
        <ele>608</ele>
        <time>2011-05-18T18:35:03Z</time>
      </trkpt>
      <trkpt lat="44.34439" lon="2.52023">
        <ele>608.1</ele>
        <time>2011-05-18T18:35:04Z</time>
      </trkpt>
      <trkpt lat="44.34439" lon="2.52027">
        <ele>608.2</ele>
        <time>2011-05-18T18:35:05Z</time>
      </trkpt>
      <trkpt lat="44.34437" lon="2.52032">
        <ele>608.3</ele>
        <time>2011-05-18T18:35:06Z</time>
      </trkpt>
      <trkpt lat="44.34435" lon="2.52036">
        <ele>608.5</ele>
        <time>2011-05-18T18:35:07Z</time>
      </trkpt>
      <trkpt lat="44.34432" lon="2.52038">
        <ele>608.8</ele>
        <time>2011-05-18T18:35:08Z</time>
      </trkpt>
      <trkpt lat="44.34429" lon="2.52039">
        <ele>609</ele>
        <time>2011-05-18T18:35:09Z</time>
      </trkpt>
      <trkpt lat="44.34426" lon="2.5204">
        <ele>609.3</ele>
        <time>2011-05-18T18:35:10Z</time>
      </trkpt>
      <trkpt lat="44.34423" lon="2.5204">
        <ele>609.5</ele>
        <time>2011-05-18T18:35:11Z</time>
      </trkpt>
      <trkpt lat="44.3442" lon="2.52041">
        <ele>609.8</ele>
        <time>2011-05-18T18:35:12Z</time>
      </trkpt>
      <trkpt lat="44.34416" lon="2.52042">
        <ele>610</ele>
        <time>2011-05-18T18:35:13Z</time>
      </trkpt>
      <trkpt lat="44.34413" lon="2.52044">
        <ele>610.2</ele>
        <time>2011-05-18T18:35:14Z</time>
      </trkpt>
      <trkpt lat="44.34411" lon="2.52047">
        <ele>610.3</ele>
        <time>2011-05-18T18:35:15Z</time>
      </trkpt>
      <trkpt lat="44.3441" lon="2.52052">
        <ele>610.5</ele>
        <time>2011-05-18T18:35:16Z</time>
      </trkpt>
      <trkpt lat="44.3441" lon="2.52056">
        <ele>610.6</ele>
        <time>2011-05-18T18:35:17Z</time>
      </trkpt>
      <trkpt lat="44.3441" lon="2.52061">
        <ele>610.7</ele>
        <time>2011-05-18T18:35:18Z</time>
      </trkpt>
      <trkpt lat="44.3441" lon="2.52065">
        <ele>610.8</ele>
        <time>2011-05-18T18:35:19Z</time>
      </trkpt>
      <trkpt lat="44.34411" lon="2.5207">
        <ele>610.8</ele>
        <time>2011-05-18T18:35:20Z</time>
      </trkpt>
      <trkpt lat="44.34411" lon="2.52075">
        <ele>610.9</ele>
        <time>2011-05-18T18:35:21Z</time>
      </trkpt>
      <trkpt lat="44.34411" lon="2.5208">
        <ele>611</ele>
        <time>2011-05-18T18:35:22Z</time>
      </trkpt>
      <trkpt lat="44.34412" lon="2.52085">
        <ele>611.1</ele>
        <time>2011-05-18T18:35:23Z</time>
      </trkpt>
      <trkpt lat="44.34412" lon="2.5209">
        <ele>611</ele>
        <time>2011-05-18T18:35:24Z</time>
      </trkpt>
      <trkpt lat="44.34412" lon="2.52095">
        <ele>611</ele>
        <time>2011-05-18T18:35:25Z</time>
      </trkpt>
      <trkpt lat="44.34412" lon="2.521">
        <ele>610.9</ele>
        <time>2011-05-18T18:35:26Z</time>
      </trkpt>
      <trkpt lat="44.34413" lon="2.52105">
        <ele>610.8</ele>
        <time>2011-05-18T18:35:27Z</time>
      </trkpt>
      <trkpt lat="44.34413" lon="2.5211">
        <ele>610.7</ele>
        <time>2011-05-18T18:35:28Z</time>
      </trkpt>
      <trkpt lat="44.34414" lon="2.52115">
        <ele>610.7</ele>
        <time>2011-05-18T18:35:29Z</time>
      </trkpt>
      <trkpt lat="44.34414" lon="2.5212">
        <ele>610.6</ele>
        <time>2011-05-18T18:35:30Z</time>
      </trkpt>
      <trkpt lat="44.34415" lon="2.52125">
        <ele>610.5</ele>
        <time>2011-05-18T18:35:31Z</time>
      </trkpt>
      <trkpt lat="44.34416" lon="2.5213">
        <ele>610.5</ele>
        <time>2011-05-18T18:35:32Z</time>
      </trkpt>
      <trkpt lat="44.34416" lon="2.52135">
        <ele>610.4</ele>
        <time>2011-05-18T18:35:33Z</time>
      </trkpt>
      <trkpt lat="44.34417" lon="2.5214">
        <ele>610.3</ele>
        <time>2011-05-18T18:35:34Z</time>
      </trkpt>
      <trkpt lat="44.34417" lon="2.52146">
        <ele>610.2</ele>
        <time>2011-05-18T18:35:35Z</time>
      </trkpt>
      <trkpt lat="44.34418" lon="2.52151">
        <ele>610.1</ele>
        <time>2011-05-18T18:35:36Z</time>
      </trkpt>
      <trkpt lat="44.34419" lon="2.52156">
        <ele>610</ele>
        <time>2011-05-18T18:35:37Z</time>
      </trkpt>
      <trkpt lat="44.3442" lon="2.52162">
        <ele>609.9</ele>
        <time>2011-05-18T18:35:38Z</time>
      </trkpt>
      <trkpt lat="44.3442" lon="2.52167">
        <ele>609.8</ele>
        <time>2011-05-18T18:35:39Z</time>
      </trkpt>
      <trkpt lat="44.34421" lon="2.52173">
        <ele>609.7</ele>
        <time>2011-05-18T18:35:40Z</time>
      </trkpt>
      <trkpt lat="44.34422" lon="2.52178">
        <ele>609.6</ele>
        <time>2011-05-18T18:35:41Z</time>
      </trkpt>
      <trkpt lat="44.34423" lon="2.52184">
        <ele>609.5</ele>
        <time>2011-05-18T18:35:42Z</time>
      </trkpt>
      <trkpt lat="44.34423" lon="2.52189">
        <ele>609.4</ele>
        <time>2011-05-18T18:35:43Z</time>
      </trkpt>
      <trkpt lat="44.34424" lon="2.52196">
        <ele>609.3</ele>
        <time>2011-05-18T18:35:44Z</time>
      </trkpt>
      <trkpt lat="44.34424" lon="2.52202">
        <ele>609.2</ele>
        <time>2011-05-18T18:35:45Z</time>
      </trkpt>
      <trkpt lat="44.34425" lon="2.52209">
        <ele>609.1</ele>
        <time>2011-05-18T18:35:46Z</time>
      </trkpt>
      <trkpt lat="44.34425" lon="2.52216">
        <ele>609</ele>
        <time>2011-05-18T18:35:47Z</time>
      </trkpt>
      <trkpt lat="44.34426" lon="2.52224">
        <ele>608.9</ele>
        <time>2011-05-18T18:35:48Z</time>
      </trkpt>
      <trkpt lat="44.34426" lon="2.52232">
        <ele>608.8</ele>
        <time>2011-05-18T18:35:49Z</time>
      </trkpt>
      <trkpt lat="44.34426" lon="2.52241">
        <ele>608.8</ele>
        <time>2011-05-18T18:35:50Z</time>
      </trkpt>
      <trkpt lat="44.34426" lon="2.5225">
        <ele>608.7</ele>
        <time>2011-05-18T18:35:51Z</time>
      </trkpt>
      <trkpt lat="44.34425" lon="2.5226">
        <ele>608.8</ele>
        <time>2011-05-18T18:35:52Z</time>
      </trkpt>
      <trkpt lat="44.34425" lon="2.52269">
        <ele>608.9</ele>
        <time>2011-05-18T18:35:53Z</time>
      </trkpt>
      <trkpt lat="44.34424" lon="2.52279">
        <ele>609</ele>
        <time>2011-05-18T18:35:54Z</time>
      </trkpt>
      <trkpt lat="44.34423" lon="2.52289">
        <ele>609.1</ele>
        <time>2011-05-18T18:35:55Z</time>
      </trkpt>
      <trkpt lat="44.34422" lon="2.52298">
        <ele>609.3</ele>
        <time>2011-05-18T18:35:56Z</time>
      </trkpt>
      <trkpt lat="44.34422" lon="2.52307">
        <ele>609.4</ele>
        <time>2011-05-18T18:35:57Z</time>
      </trkpt>
      <trkpt lat="44.3442" lon="2.52316">
        <ele>609.6</ele>
        <time>2011-05-18T18:35:58Z</time>
      </trkpt>
      <trkpt lat="44.34419" lon="2.52325">
        <ele>609.7</ele>
        <time>2011-05-18T18:35:59Z</time>
      </trkpt>
      <trkpt lat="44.34419" lon="2.52333">
        <ele>609.9</ele>
        <time>2011-05-18T18:36:00Z</time>
      </trkpt>
      <trkpt lat="44.34418" lon="2.52341">
        <ele>609.9</ele>
        <time>2011-05-18T18:36:01Z</time>
      </trkpt>
      <trkpt lat="44.34417" lon="2.52349">
        <ele>610</ele>
        <time>2011-05-18T18:36:02Z</time>
      </trkpt>
      <trkpt lat="44.34417" lon="2.52357">
        <ele>610</ele>
        <time>2011-05-18T18:36:03Z</time>
      </trkpt>
      <trkpt lat="44.34417" lon="2.52364">
        <ele>610</ele>
        <time>2011-05-18T18:36:04Z</time>
      </trkpt>
      <trkpt lat="44.34416" lon="2.52371">
        <ele>610</ele>
        <time>2011-05-18T18:36:05Z</time>
      </trkpt>
      <trkpt lat="44.34416" lon="2.52379">
        <ele>610</ele>
        <time>2011-05-18T18:36:06Z</time>
      </trkpt>
      <trkpt lat="44.34416" lon="2.52386">
        <ele>610</ele>
        <time>2011-05-18T18:36:07Z</time>
      </trkpt>
      <trkpt lat="44.34416" lon="2.52393">
        <ele>610</ele>
        <time>2011-05-18T18:36:08Z</time>
      </trkpt>
      <trkpt lat="44.34416" lon="2.524">
        <ele>610</ele>
        <time>2011-05-18T18:36:09Z</time>
      </trkpt>
      <trkpt lat="44.34415" lon="2.52408">
        <ele>609.9</ele>
        <time>2011-05-18T18:36:10Z</time>
      </trkpt>
      <trkpt lat="44.34414" lon="2.52415">
        <ele>609.9</ele>
        <time>2011-05-18T18:36:11Z</time>
      </trkpt>
      <trkpt lat="44.34413" lon="2.52422">
        <ele>609.8</ele>
        <time>2011-05-18T18:36:12Z</time>
      </trkpt>
      <trkpt lat="44.34412" lon="2.52429">
        <ele>609.8</ele>
        <time>2011-05-18T18:36:13Z</time>
      </trkpt>
      <trkpt lat="44.34411" lon="2.52436">
        <ele>609.8</ele>
        <time>2011-05-18T18:36:14Z</time>
      </trkpt>
      <trkpt lat="44.3441" lon="2.52443">
        <ele>609.7</ele>
        <time>2011-05-18T18:36:15Z</time>
      </trkpt>
      <trkpt lat="44.34409" lon="2.5245">
        <ele>609.7</ele>
        <time>2011-05-18T18:36:16Z</time>
      </trkpt>
      <trkpt lat="44.34407" lon="2.52457">
        <ele>609.7</ele>
        <time>2011-05-18T18:36:17Z</time>
      </trkpt>
      <trkpt lat="44.34406" lon="2.52464">
        <ele>609.7</ele>
        <time>2011-05-18T18:36:18Z</time>
      </trkpt>
      <trkpt lat="44.34404" lon="2.5247">
        <ele>609.7</ele>
        <time>2011-05-18T18:36:19Z</time>
      </trkpt>
      <trkpt lat="44.34403" lon="2.52477">
        <ele>609.7</ele>
        <time>2011-05-18T18:36:20Z</time>
      </trkpt>
      <trkpt lat="44.34401" lon="2.52483">
        <ele>609.7</ele>
        <time>2011-05-18T18:36:21Z</time>
      </trkpt>
      <trkpt lat="44.34399" lon="2.52489">
        <ele>609.7</ele>
        <time>2011-05-18T18:36:22Z</time>
      </trkpt>
      <trkpt lat="44.34396" lon="2.52494">
        <ele>609.7</ele>
        <time>2011-05-18T18:36:23Z</time>
      </trkpt>
      <trkpt lat="44.34394" lon="2.525">
        <ele>609.7</ele>
        <time>2011-05-18T18:36:24Z</time>
      </trkpt>
      <trkpt lat="44.34391" lon="2.52505">
        <ele>609.7</ele>
        <time>2011-05-18T18:36:25Z</time>
      </trkpt>
      <trkpt lat="44.34388" lon="2.5251">
        <ele>609.8</ele>
        <time>2011-05-18T18:36:26Z</time>
      </trkpt>
      <trkpt lat="44.34385" lon="2.52515">
        <ele>609.8</ele>
        <time>2011-05-18T18:36:27Z</time>
      </trkpt>
      <trkpt lat="44.34382" lon="2.5252">
        <ele>609.8</ele>
        <time>2011-05-18T18:36:28Z</time>
      </trkpt>
      <trkpt lat="44.34379" lon="2.52526">
        <ele>609.8</ele>
        <time>2011-05-18T18:36:29Z</time>
      </trkpt>
      <trkpt lat="44.34377" lon="2.52531">
        <ele>609.9</ele>
        <time>2011-05-18T18:36:30Z</time>
      </trkpt>
      <trkpt lat="44.34374" lon="2.52536">
        <ele>609.9</ele>
        <time>2011-05-18T18:36:31Z</time>
      </trkpt>
      <trkpt lat="44.34371" lon="2.52541">
        <ele>609.9</ele>
        <time>2011-05-18T18:36:32Z</time>
      </trkpt>
      <trkpt lat="44.34369" lon="2.52547">
        <ele>610</ele>
        <time>2011-05-18T18:36:33Z</time>
      </trkpt>
      <trkpt lat="44.34366" lon="2.52552">
        <ele>610</ele>
        <time>2011-05-18T18:36:34Z</time>
      </trkpt>
      <trkpt lat="44.34363" lon="2.52557">
        <ele>610</ele>
        <time>2011-05-18T18:36:35Z</time>
      </trkpt>
      <trkpt lat="44.34361" lon="2.52563">
        <ele>610.1</ele>
        <time>2011-05-18T18:36:36Z</time>
      </trkpt>
      <trkpt lat="44.34358" lon="2.52568">
        <ele>610.1</ele>
        <time>2011-05-18T18:36:37Z</time>
      </trkpt>
      <trkpt lat="44.34356" lon="2.52574">
        <ele>610.1</ele>
        <time>2011-05-18T18:36:38Z</time>
      </trkpt>
      <trkpt lat="44.34353" lon="2.52579">
        <ele>610.2</ele>
        <time>2011-05-18T18:36:39Z</time>
      </trkpt>
      <trkpt lat="44.34351" lon="2.52585">
        <ele>610.3</ele>
        <time>2011-05-18T18:36:40Z</time>
      </trkpt>
      <trkpt lat="44.34349" lon="2.52591">
        <ele>610.4</ele>
        <time>2011-05-18T18:36:41Z</time>
      </trkpt>
      <trkpt lat="44.34347" lon="2.52597">
        <ele>610.6</ele>
        <time>2011-05-18T18:36:42Z</time>
      </trkpt>
      <trkpt lat="44.34346" lon="2.52603">
        <ele>610.7</ele>
        <time>2011-05-18T18:36:43Z</time>
      </trkpt>
      <trkpt lat="44.34345" lon="2.52609">
        <ele>610.9</ele>
        <time>2011-05-18T18:36:44Z</time>
      </trkpt>
      <trkpt lat="44.34344" lon="2.52615">
        <ele>611.1</ele>
        <time>2011-05-18T18:36:45Z</time>
      </trkpt>
      <trkpt lat="44.34343" lon="2.52621">
        <ele>611.3</ele>
        <time>2011-05-18T18:36:46Z</time>
      </trkpt>
      <trkpt lat="44.34342" lon="2.52627">
        <ele>611.5</ele>
        <time>2011-05-18T18:36:47Z</time>
      </trkpt>
      <trkpt lat="44.34342" lon="2.52632">
        <ele>611.7</ele>
        <time>2011-05-18T18:36:48Z</time>
      </trkpt>
      <trkpt lat="44.34341" lon="2.52638">
        <ele>611.9</ele>
        <time>2011-05-18T18:36:49Z</time>
      </trkpt>
      <trkpt lat="44.34341" lon="2.52644">
        <ele>612.1</ele>
        <time>2011-05-18T18:36:50Z</time>
      </trkpt>
      <trkpt lat="44.3434" lon="2.5265">
        <ele>612.3</ele>
        <time>2011-05-18T18:36:51Z</time>
      </trkpt>
      <trkpt lat="44.34339" lon="2.52656">
        <ele>612.5</ele>
        <time>2011-05-18T18:36:52Z</time>
      </trkpt>
      <trkpt lat="44.34339" lon="2.52661">
        <ele>612.7</ele>
        <time>2011-05-18T18:36:53Z</time>
      </trkpt>
      <trkpt lat="44.34339" lon="2.52667">
        <ele>612.9</ele>
        <time>2011-05-18T18:36:54Z</time>
      </trkpt>
      <trkpt lat="44.34338" lon="2.52673">
        <ele>612.9</ele>
        <time>2011-05-18T18:36:55Z</time>
      </trkpt>
      <trkpt lat="44.34338" lon="2.52679">
        <ele>612.9</ele>
        <time>2011-05-18T18:36:56Z</time>
      </trkpt>
      <trkpt lat="44.34337" lon="2.52684">
        <ele>612.9</ele>
        <time>2011-05-18T18:36:57Z</time>
      </trkpt>
      <trkpt lat="44.34337" lon="2.5269">
        <ele>612.9</ele>
        <time>2011-05-18T18:36:58Z</time>
      </trkpt>
      <trkpt lat="44.34336" lon="2.52696">
        <ele>612.9</ele>
        <time>2011-05-18T18:36:59Z</time>
      </trkpt>
      <trkpt lat="44.34335" lon="2.52702">
        <ele>613</ele>
        <time>2011-05-18T18:37:00Z</time>
      </trkpt>
      <trkpt lat="44.34334" lon="2.52707">
        <ele>613</ele>
        <time>2011-05-18T18:37:01Z</time>
      </trkpt>
      <trkpt lat="44.34333" lon="2.52712">
        <ele>613</ele>
        <time>2011-05-18T18:37:02Z</time>
      </trkpt>
      <trkpt lat="44.34332" lon="2.52718">
        <ele>612.9</ele>
        <time>2011-05-18T18:37:03Z</time>
      </trkpt>
      <trkpt lat="44.34331" lon="2.52723">
        <ele>612.9</ele>
        <time>2011-05-18T18:37:04Z</time>
      </trkpt>
      <trkpt lat="44.3433" lon="2.52729">
        <ele>612.8</ele>
        <time>2011-05-18T18:37:05Z</time>
      </trkpt>
      <trkpt lat="44.34329" lon="2.52734">
        <ele>612.8</ele>
        <time>2011-05-18T18:37:06Z</time>
      </trkpt>
      <trkpt lat="44.34327" lon="2.5274">
        <ele>612.7</ele>
        <time>2011-05-18T18:37:07Z</time>
      </trkpt>
      <trkpt lat="44.34326" lon="2.52745">
        <ele>612.6</ele>
        <time>2011-05-18T18:37:08Z</time>
      </trkpt>
      <trkpt lat="44.34325" lon="2.5275">
        <ele>612.6</ele>
        <time>2011-05-18T18:37:09Z</time>
      </trkpt>
      <trkpt lat="44.34324" lon="2.52756">
        <ele>612.4</ele>
        <time>2011-05-18T18:37:10Z</time>
      </trkpt>
      <trkpt lat="44.34322" lon="2.52761">
        <ele>612.2</ele>
        <time>2011-05-18T18:37:11Z</time>
      </trkpt>
      <trkpt lat="44.34321" lon="2.52766">
        <ele>612.1</ele>
        <time>2011-05-18T18:37:12Z</time>
      </trkpt>
      <trkpt lat="44.34319" lon="2.52772">
        <ele>611.9</ele>
        <time>2011-05-18T18:37:13Z</time>
      </trkpt>
      <trkpt lat="44.34318" lon="2.52777">
        <ele>611.8</ele>
        <time>2011-05-18T18:37:14Z</time>
      </trkpt>
      <trkpt lat="44.34316" lon="2.52782">
        <ele>611.6</ele>
        <time>2011-05-18T18:37:15Z</time>
      </trkpt>
      <trkpt lat="44.34315" lon="2.52787">
        <ele>611.4</ele>
        <time>2011-05-18T18:37:16Z</time>
      </trkpt>
      <trkpt lat="44.34313" lon="2.52792">
        <ele>611.3</ele>
        <time>2011-05-18T18:37:17Z</time>
      </trkpt>
      <trkpt lat="44.34312" lon="2.52797">
        <ele>611.2</ele>
        <time>2011-05-18T18:37:18Z</time>
      </trkpt>
      <trkpt lat="44.34311" lon="2.52801">
        <ele>611</ele>
        <time>2011-05-18T18:37:19Z</time>
      </trkpt>
      <trkpt lat="44.34309" lon="2.52807">
        <ele>610.9</ele>
        <time>2011-05-18T18:37:20Z</time>
      </trkpt>
      <trkpt lat="44.34308" lon="2.52811">
        <ele>610.8</ele>
        <time>2011-05-18T18:37:21Z</time>
      </trkpt>
      <trkpt lat="44.34306" lon="2.52816">
        <ele>610.6</ele>
        <time>2011-05-18T18:37:22Z</time>
      </trkpt>
      <trkpt lat="44.34303" lon="2.5282">
        <ele>610.5</ele>
        <time>2011-05-18T18:37:23Z</time>
      </trkpt>
      <trkpt lat="44.343" lon="2.52824">
        <ele>610.3</ele>
        <time>2011-05-18T18:37:24Z</time>
      </trkpt>
      <trkpt lat="44.34296" lon="2.52826">
        <ele>610.2</ele>
        <time>2011-05-18T18:37:25Z</time>
      </trkpt>
      <trkpt lat="44.34292" lon="2.52829">
        <ele>610.1</ele>
        <time>2011-05-18T18:37:26Z</time>
      </trkpt>
      <trkpt lat="44.34288" lon="2.52832">
        <ele>609.9</ele>
        <time>2011-05-18T18:37:27Z</time>
      </trkpt>
      <trkpt lat="44.34284" lon="2.52836">
        <ele>609.7</ele>
        <time>2011-05-18T18:37:28Z</time>
      </trkpt>
      <trkpt lat="44.3428" lon="2.5284">
        <ele>609.4</ele>
        <time>2011-05-18T18:37:29Z</time>
      </trkpt>
      <trkpt lat="44.34276" lon="2.52844">
        <ele>609.1</ele>
        <time>2011-05-18T18:37:30Z</time>
      </trkpt>
      <trkpt lat="44.34272" lon="2.52848">
        <ele>608.8</ele>
        <time>2011-05-18T18:37:31Z</time>
      </trkpt>
      <trkpt lat="44.34268" lon="2.52852">
        <ele>608.5</ele>
        <time>2011-05-18T18:37:32Z</time>
      </trkpt>
      <trkpt lat="44.34264" lon="2.52856">
        <ele>608.2</ele>
        <time>2011-05-18T18:37:33Z</time>
      </trkpt>
      <trkpt lat="44.3426" lon="2.52861">
        <ele>607.9</ele>
        <time>2011-05-18T18:37:34Z</time>
      </trkpt>
      <trkpt lat="44.34256" lon="2.52866">
        <ele>607.6</ele>
        <time>2011-05-18T18:37:35Z</time>
      </trkpt>
      <trkpt lat="44.34253" lon="2.5287">
        <ele>607.3</ele>
        <time>2011-05-18T18:37:36Z</time>
      </trkpt>
      <trkpt lat="44.34249" lon="2.52875">
        <ele>607</ele>
        <time>2011-05-18T18:37:37Z</time>
      </trkpt>
      <trkpt lat="44.34246" lon="2.52879">
        <ele>606.8</ele>
        <time>2011-05-18T18:37:38Z</time>
      </trkpt>
      <trkpt lat="44.34242" lon="2.52884">
        <ele>606.6</ele>
        <time>2011-05-18T18:37:39Z</time>
      </trkpt>
      <trkpt lat="44.34239" lon="2.52888">
        <ele>606.4</ele>
        <time>2011-05-18T18:37:40Z</time>
      </trkpt>
      <trkpt lat="44.34235" lon="2.52893">
        <ele>606.3</ele>
        <time>2011-05-18T18:37:41Z</time>
      </trkpt>
      <trkpt lat="44.34232" lon="2.52898">
        <ele>606.2</ele>
        <time>2011-05-18T18:37:42Z</time>
      </trkpt>
      <trkpt lat="44.34228" lon="2.52903">
        <ele>606.1</ele>
        <time>2011-05-18T18:37:43Z</time>
      </trkpt>
      <trkpt lat="44.34225" lon="2.52907">
        <ele>606.1</ele>
        <time>2011-05-18T18:37:44Z</time>
      </trkpt>
      <trkpt lat="44.34221" lon="2.52912">
        <ele>606.1</ele>
        <time>2011-05-18T18:37:45Z</time>
      </trkpt>
      <trkpt lat="44.34217" lon="2.52917">
        <ele>606.2</ele>
        <time>2011-05-18T18:37:46Z</time>
      </trkpt>
      <trkpt lat="44.34214" lon="2.52921">
        <ele>606.2</ele>
        <time>2011-05-18T18:37:47Z</time>
      </trkpt>
      <trkpt lat="44.34211" lon="2.52926">
        <ele>606.3</ele>
        <time>2011-05-18T18:37:48Z</time>
      </trkpt>
      <trkpt lat="44.34207" lon="2.52931">
        <ele>606.3</ele>
        <time>2011-05-18T18:37:49Z</time>
      </trkpt>
      <trkpt lat="44.34204" lon="2.52936">
        <ele>606.3</ele>
        <time>2011-05-18T18:37:50Z</time>
      </trkpt>
      <trkpt lat="44.34201" lon="2.52941">
        <ele>606.4</ele>
        <time>2011-05-18T18:37:51Z</time>
      </trkpt>
      <trkpt lat="44.34199" lon="2.52946">
        <ele>606.4</ele>
        <time>2011-05-18T18:37:52Z</time>
      </trkpt>
      <trkpt lat="44.34196" lon="2.52951">
        <ele>606.4</ele>
        <time>2011-05-18T18:37:53Z</time>
      </trkpt>
      <trkpt lat="44.34194" lon="2.52957">
        <ele>606.4</ele>
        <time>2011-05-18T18:37:54Z</time>
      </trkpt>
      <trkpt lat="44.34192" lon="2.52962">
        <ele>606.4</ele>
        <time>2011-05-18T18:37:55Z</time>
      </trkpt>
      <trkpt lat="44.3419" lon="2.52968">
        <ele>606.4</ele>
        <time>2011-05-18T18:37:56Z</time>
      </trkpt>
      <trkpt lat="44.34188" lon="2.52974">
        <ele>606.4</ele>
        <time>2011-05-18T18:37:57Z</time>
      </trkpt>
      <trkpt lat="44.34186" lon="2.5298">
        <ele>606.4</ele>
        <time>2011-05-18T18:37:58Z</time>
      </trkpt>
      <trkpt lat="44.34185" lon="2.52986">
        <ele>606.3</ele>
        <time>2011-05-18T18:37:59Z</time>
      </trkpt>
      <trkpt lat="44.34184" lon="2.52992">
        <ele>606.3</ele>
        <time>2011-05-18T18:38:00Z</time>
      </trkpt>
      <trkpt lat="44.34184" lon="2.52998">
        <ele>606.2</ele>
        <time>2011-05-18T18:38:01Z</time>
      </trkpt>
      <trkpt lat="44.34183" lon="2.53004">
        <ele>606.2</ele>
        <time>2011-05-18T18:38:02Z</time>
      </trkpt>
      <trkpt lat="44.34182" lon="2.53009">
        <ele>606.1</ele>
        <time>2011-05-18T18:38:03Z</time>
      </trkpt>
      <trkpt lat="44.34181" lon="2.53015">
        <ele>606</ele>
        <time>2011-05-18T18:38:04Z</time>
      </trkpt>
      <trkpt lat="44.3418" lon="2.53021">
        <ele>605.9</ele>
        <time>2011-05-18T18:38:05Z</time>
      </trkpt>
      <trkpt lat="44.34179" lon="2.53027">
        <ele>605.9</ele>
        <time>2011-05-18T18:38:06Z</time>
      </trkpt>
      <trkpt lat="44.34178" lon="2.53033">
        <ele>605.8</ele>
        <time>2011-05-18T18:38:07Z</time>
      </trkpt>
      <trkpt lat="44.34177" lon="2.53038">
        <ele>605.8</ele>
        <time>2011-05-18T18:38:08Z</time>
      </trkpt>
      <trkpt lat="44.34176" lon="2.53044">
        <ele>605.8</ele>
        <time>2011-05-18T18:38:09Z</time>
      </trkpt>
      <trkpt lat="44.34175" lon="2.53049">
        <ele>605.8</ele>
        <time>2011-05-18T18:38:10Z</time>
      </trkpt>
      <trkpt lat="44.34174" lon="2.53055">
        <ele>605.8</ele>
        <time>2011-05-18T18:38:11Z</time>
      </trkpt>
      <trkpt lat="44.34173" lon="2.5306">
        <ele>605.7</ele>
        <time>2011-05-18T18:38:12Z</time>
      </trkpt>
      <trkpt lat="44.34172" lon="2.53066">
        <ele>605.7</ele>
        <time>2011-05-18T18:38:13Z</time>
      </trkpt>
      <trkpt lat="44.34171" lon="2.53072">
        <ele>605.7</ele>
        <time>2011-05-18T18:38:14Z</time>
      </trkpt>
      <trkpt lat="44.3417" lon="2.53078">
        <ele>605.7</ele>
        <time>2011-05-18T18:38:15Z</time>
      </trkpt>
      <trkpt lat="44.3417" lon="2.53084">
        <ele>605.7</ele>
        <time>2011-05-18T18:38:16Z</time>
      </trkpt>
      <trkpt lat="44.34169" lon="2.53091">
        <ele>605.8</ele>
        <time>2011-05-18T18:38:17Z</time>
      </trkpt>
      <trkpt lat="44.34169" lon="2.53097">
        <ele>605.8</ele>
        <time>2011-05-18T18:38:18Z</time>
      </trkpt>
      <trkpt lat="44.34169" lon="2.53104">
        <ele>605.7</ele>
        <time>2011-05-18T18:38:19Z</time>
      </trkpt>
      <trkpt lat="44.3417" lon="2.53111">
        <ele>605.6</ele>
        <time>2011-05-18T18:38:20Z</time>
      </trkpt>
      <trkpt lat="44.34171" lon="2.53117">
        <ele>605.5</ele>
        <time>2011-05-18T18:38:21Z</time>
      </trkpt>
      <trkpt lat="44.34173" lon="2.53123">
        <ele>605.4</ele>
        <time>2011-05-18T18:38:22Z</time>
      </trkpt>
      <trkpt lat="44.34175" lon="2.53128">
        <ele>605.2</ele>
        <time>2011-05-18T18:38:23Z</time>
      </trkpt>
      <trkpt lat="44.34176" lon="2.53134">
        <ele>605</ele>
        <time>2011-05-18T18:38:24Z</time>
      </trkpt>
      <trkpt lat="44.34178" lon="2.53139">
        <ele>604.8</ele>
        <time>2011-05-18T18:38:25Z</time>
      </trkpt>
      <trkpt lat="44.3418" lon="2.53145">
        <ele>604.6</ele>
        <time>2011-05-18T18:38:26Z</time>
      </trkpt>
      <trkpt lat="44.34182" lon="2.5315">
        <ele>604.4</ele>
        <time>2011-05-18T18:38:27Z</time>
      </trkpt>
      <trkpt lat="44.34184" lon="2.53155">
        <ele>604.1</ele>
        <time>2011-05-18T18:38:28Z</time>
      </trkpt>
      <trkpt lat="44.34186" lon="2.5316">
        <ele>603.9</ele>
        <time>2011-05-18T18:38:29Z</time>
      </trkpt>
      <trkpt lat="44.34188" lon="2.53164">
        <ele>603.8</ele>
        <time>2011-05-18T18:38:30Z</time>
      </trkpt>
      <trkpt lat="44.34189" lon="2.53168">
        <ele>603.6</ele>
        <time>2011-05-18T18:38:31Z</time>
      </trkpt>
      <trkpt lat="44.34191" lon="2.53173">
        <ele>603.5</ele>
        <time>2011-05-18T18:38:33Z</time>
      </trkpt>
      <trkpt lat="44.34193" lon="2.53177">
        <ele>603.3</ele>
        <time>2011-05-18T18:38:36Z</time>
      </trkpt>
      <trkpt lat="44.34195" lon="2.53181">
        <ele>603.1</ele>
        <time>2011-05-18T18:38:39Z</time>
      </trkpt>
      <trkpt lat="44.34197" lon="2.53184">
        <ele>603</ele>
        <time>2011-05-18T18:38:41Z</time>
      </trkpt>
      <trkpt lat="44.342" lon="2.53187">
        <ele>602.7</ele>
        <time>2011-05-18T18:38:43Z</time>
      </trkpt>
      <trkpt lat="44.34202" lon="2.53189">
        <ele>602.5</ele>
        <time>2011-05-18T18:38:44Z</time>
      </trkpt>
      <trkpt lat="44.34204" lon="2.53192">
        <ele>602.4</ele>
        <time>2011-05-18T18:38:45Z</time>
      </trkpt>
      <trkpt lat="44.34206" lon="2.53194">
        <ele>602.2</ele>
        <time>2011-05-18T18:38:46Z</time>
      </trkpt>
      <trkpt lat="44.34208" lon="2.53197">
        <ele>602</ele>
        <time>2011-05-18T18:38:47Z</time>
      </trkpt>
      <trkpt lat="44.34211" lon="2.53199">
        <ele>601.8</ele>
        <time>2011-05-18T18:38:48Z</time>
      </trkpt>
      <trkpt lat="44.34213" lon="2.53203">
        <ele>601.6</ele>
        <time>2011-05-18T18:38:49Z</time>
      </trkpt>
      <trkpt lat="44.34216" lon="2.53206">
        <ele>601.4</ele>
        <time>2011-05-18T18:38:50Z</time>
      </trkpt>
      <trkpt lat="44.34219" lon="2.53209">
        <ele>601.2</ele>
        <time>2011-05-18T18:38:51Z</time>
      </trkpt>
      <trkpt lat="44.34221" lon="2.53213">
        <ele>601</ele>
        <time>2011-05-18T18:38:52Z</time>
      </trkpt>
      <trkpt lat="44.34224" lon="2.53216">
        <ele>600.8</ele>
        <time>2011-05-18T18:38:53Z</time>
      </trkpt>
      <trkpt lat="44.34227" lon="2.5322">
        <ele>600.5</ele>
        <time>2011-05-18T18:38:54Z</time>
      </trkpt>
      <trkpt lat="44.3423" lon="2.53224">
        <ele>600.4</ele>
        <time>2011-05-18T18:38:55Z</time>
      </trkpt>
      <trkpt lat="44.34233" lon="2.53228">
        <ele>600.2</ele>
        <time>2011-05-18T18:38:56Z</time>
      </trkpt>
      <trkpt lat="44.34235" lon="2.53232">
        <ele>600</ele>
        <time>2011-05-18T18:38:57Z</time>
      </trkpt>
      <trkpt lat="44.34238" lon="2.53236">
        <ele>599.8</ele>
        <time>2011-05-18T18:38:58Z</time>
      </trkpt>
      <trkpt lat="44.3424" lon="2.53241">
        <ele>599.7</ele>
        <time>2011-05-18T18:38:59Z</time>
      </trkpt>
      <trkpt lat="44.34243" lon="2.53246">
        <ele>599.6</ele>
        <time>2011-05-18T18:39:00Z</time>
      </trkpt>
      <trkpt lat="44.34245" lon="2.53251">
        <ele>599.4</ele>
        <time>2011-05-18T18:39:01Z</time>
      </trkpt>
      <trkpt lat="44.34248" lon="2.53255">
        <ele>599.3</ele>
        <time>2011-05-18T18:39:02Z</time>
      </trkpt>
      <trkpt lat="44.34251" lon="2.5326">
        <ele>599.1</ele>
        <time>2011-05-18T18:39:03Z</time>
      </trkpt>
      <trkpt lat="44.34253" lon="2.53265">
        <ele>599</ele>
        <time>2011-05-18T18:39:04Z</time>
      </trkpt>
      <trkpt lat="44.34256" lon="2.5327">
        <ele>598.8</ele>
        <time>2011-05-18T18:39:05Z</time>
      </trkpt>
      <trkpt lat="44.34259" lon="2.53274">
        <ele>598.6</ele>
        <time>2011-05-18T18:39:06Z</time>
      </trkpt>
      <trkpt lat="44.34262" lon="2.53279">
        <ele>598.4</ele>
        <time>2011-05-18T18:39:07Z</time>
      </trkpt>
      <trkpt lat="44.34265" lon="2.53282">
        <ele>598.2</ele>
        <time>2011-05-18T18:39:08Z</time>
      </trkpt>
      <trkpt lat="44.34268" lon="2.53286">
        <ele>598</ele>
        <time>2011-05-18T18:39:09Z</time>
      </trkpt>
      <trkpt lat="44.34272" lon="2.53289">
        <ele>597.7</ele>
        <time>2011-05-18T18:39:10Z</time>
      </trkpt>
      <trkpt lat="44.34275" lon="2.53292">
        <ele>597.5</ele>
        <time>2011-05-18T18:39:11Z</time>
      </trkpt>
      <trkpt lat="44.34278" lon="2.53295">
        <ele>597.2</ele>
        <time>2011-05-18T18:39:12Z</time>
      </trkpt>
      <trkpt lat="44.34281" lon="2.53298">
        <ele>597</ele>
        <time>2011-05-18T18:39:13Z</time>
      </trkpt>
      <trkpt lat="44.34284" lon="2.53302">
        <ele>596.8</ele>
        <time>2011-05-18T18:39:14Z</time>
      </trkpt>
      <trkpt lat="44.34287" lon="2.53305">
        <ele>596.6</ele>
        <time>2011-05-18T18:39:15Z</time>
      </trkpt>
      <trkpt lat="44.3429" lon="2.5331">
        <ele>596.5</ele>
        <time>2011-05-18T18:39:16Z</time>
      </trkpt>
      <trkpt lat="44.34291" lon="2.53315">
        <ele>596.5</ele>
        <time>2011-05-18T18:39:17Z</time>
      </trkpt>
      <trkpt lat="44.34291" lon="2.53319">
        <ele>596.7</ele>
        <time>2011-05-18T18:39:18Z</time>
      </trkpt>
      <trkpt lat="44.3429" lon="2.53323">
        <ele>596.8</ele>
        <time>2011-05-18T18:39:19Z</time>
      </trkpt>
      <trkpt lat="44.3429" lon="2.53326">
        <ele>596.9</ele>
        <time>2011-05-18T18:39:20Z</time>
      </trkpt>
      <trkpt lat="44.3429" lon="2.5333">
        <ele>597.1</ele>
        <time>2011-05-18T18:39:21Z</time>
      </trkpt>
      <trkpt lat="44.34289" lon="2.53333">
        <ele>597.2</ele>
        <time>2011-05-18T18:39:22Z</time>
      </trkpt>
      <trkpt lat="44.34289" lon="2.53337">
        <ele>597.1</ele>
        <time>2011-05-18T18:39:23Z</time>
      </trkpt>
      <trkpt lat="44.34288" lon="2.5334">
        <ele>597</ele>
        <time>2011-05-18T18:39:24Z</time>
      </trkpt>
      <trkpt lat="44.34288" lon="2.53344">
        <ele>596.9</ele>
        <time>2011-05-18T18:39:25Z</time>
      </trkpt>
      <trkpt lat="44.34287" lon="2.53347">
        <ele>596.7</ele>
        <time>2011-05-18T18:39:26Z</time>
      </trkpt>
      <trkpt lat="44.34286" lon="2.53351">
        <ele>596.5</ele>
        <time>2011-05-18T18:39:27Z</time>
      </trkpt>
      <trkpt lat="44.34286" lon="2.53355">
        <ele>596.4</ele>
        <time>2011-05-18T18:39:28Z</time>
      </trkpt>
      <trkpt lat="44.34285" lon="2.5336">
        <ele>596.2</ele>
        <time>2011-05-18T18:39:29Z</time>
      </trkpt>
      <trkpt lat="44.34284" lon="2.53364">
        <ele>596</ele>
        <time>2011-05-18T18:39:30Z</time>
      </trkpt>
      <trkpt lat="44.34284" lon="2.53368">
        <ele>595.8</ele>
        <time>2011-05-18T18:39:31Z</time>
      </trkpt>
      <trkpt lat="44.34283" lon="2.53372">
        <ele>595.6</ele>
        <time>2011-05-18T18:39:32Z</time>
      </trkpt>
      <trkpt lat="44.34282" lon="2.53377">
        <ele>595.4</ele>
        <time>2011-05-18T18:39:33Z</time>
      </trkpt>
      <trkpt lat="44.34281" lon="2.53381">
        <ele>595.3</ele>
        <time>2011-05-18T18:39:34Z</time>
      </trkpt>
      <trkpt lat="44.34281" lon="2.53386">
        <ele>595</ele>
        <time>2011-05-18T18:39:35Z</time>
      </trkpt>
      <trkpt lat="44.3428" lon="2.53392">
        <ele>594.7</ele>
        <time>2011-05-18T18:39:36Z</time>
      </trkpt>
      <trkpt lat="44.34279" lon="2.53397">
        <ele>594.4</ele>
        <time>2011-05-18T18:39:37Z</time>
      </trkpt>
      <trkpt lat="44.34278" lon="2.53403">
        <ele>594.2</ele>
        <time>2011-05-18T18:39:38Z</time>
      </trkpt>
      <trkpt lat="44.34278" lon="2.53409">
        <ele>593.9</ele>
        <time>2011-05-18T18:39:39Z</time>
      </trkpt>
      <trkpt lat="44.34277" lon="2.53415">
        <ele>593.5</ele>
        <time>2011-05-18T18:39:40Z</time>
      </trkpt>
      <trkpt lat="44.34276" lon="2.53422">
        <ele>593.1</ele>
        <time>2011-05-18T18:39:41Z</time>
      </trkpt>
      <trkpt lat="44.34275" lon="2.53429">
        <ele>592.7</ele>
        <time>2011-05-18T18:39:42Z</time>
      </trkpt>
      <trkpt lat="44.34274" lon="2.53437">
        <ele>592.2</ele>
        <time>2011-05-18T18:39:43Z</time>
      </trkpt>
      <trkpt lat="44.34274" lon="2.53446">
        <ele>591.6</ele>
        <time>2011-05-18T18:39:44Z</time>
      </trkpt>
      <trkpt lat="44.34275" lon="2.53455">
        <ele>590.9</ele>
        <time>2011-05-18T18:39:45Z</time>
      </trkpt>
      <trkpt lat="44.34276" lon="2.53464">
        <ele>590.2</ele>
        <time>2011-05-18T18:39:46Z</time>
      </trkpt>
      <trkpt lat="44.34276" lon="2.53475">
        <ele>589.5</ele>
        <time>2011-05-18T18:39:47Z</time>
      </trkpt>
      <trkpt lat="44.34277" lon="2.53485">
        <ele>588.8</ele>
        <time>2011-05-18T18:39:48Z</time>
      </trkpt>
      <trkpt lat="44.34279" lon="2.53494">
        <ele>588.1</ele>
        <time>2011-05-18T18:39:49Z</time>
      </trkpt>
      <trkpt lat="44.34281" lon="2.53504">
        <ele>587.1</ele>
        <time>2011-05-18T18:39:50Z</time>
      </trkpt>
      <trkpt lat="44.34284" lon="2.53513">
        <ele>586</ele>
        <time>2011-05-18T18:39:51Z</time>
      </trkpt>
      <trkpt lat="44.34285" lon="2.5352">
        <ele>585.1</ele>
        <time>2011-05-18T18:39:52Z</time>
      </trkpt>
      <trkpt lat="44.34283" lon="2.53527">
        <ele>584.3</ele>
        <time>2011-05-18T18:39:53Z</time>
      </trkpt>
      <trkpt lat="44.34281" lon="2.53535">
        <ele>583.5</ele>
        <time>2011-05-18T18:39:54Z</time>
      </trkpt>
      <trkpt lat="44.3428" lon="2.53543">
        <ele>582.7</ele>
        <time>2011-05-18T18:39:55Z</time>
      </trkpt>
      <trkpt lat="44.34279" lon="2.53552">
        <ele>581.9</ele>
        <time>2011-05-18T18:39:56Z</time>
      </trkpt>
      <trkpt lat="44.34279" lon="2.5356">
        <ele>580.9</ele>
        <time>2011-05-18T18:39:57Z</time>
      </trkpt>
      <trkpt lat="44.34278" lon="2.53568">
        <ele>580</ele>
        <time>2011-05-18T18:39:58Z</time>
      </trkpt>
      <trkpt lat="44.34277" lon="2.53576">
        <ele>579.2</ele>
        <time>2011-05-18T18:39:59Z</time>
      </trkpt>
      <trkpt lat="44.34276" lon="2.53585">
        <ele>578.3</ele>
        <time>2011-05-18T18:40:00Z</time>
      </trkpt>
      <trkpt lat="44.34276" lon="2.53593">
        <ele>577.1</ele>
        <time>2011-05-18T18:40:01Z</time>
      </trkpt>
      <trkpt lat="44.34274" lon="2.53602">
        <ele>575.9</ele>
        <time>2011-05-18T18:40:02Z</time>
      </trkpt>
      <trkpt lat="44.34272" lon="2.53609">
        <ele>574.9</ele>
        <time>2011-05-18T18:40:03Z</time>
      </trkpt>
      <trkpt lat="44.34271" lon="2.53618">
        <ele>573.9</ele>
        <time>2011-05-18T18:40:04Z</time>
      </trkpt>
      <trkpt lat="44.34269" lon="2.53626">
        <ele>573</ele>
        <time>2011-05-18T18:40:05Z</time>
      </trkpt>
      <trkpt lat="44.34267" lon="2.53633">
        <ele>572.2</ele>
        <time>2011-05-18T18:40:06Z</time>
      </trkpt>
      <trkpt lat="44.34264" lon="2.53639">
        <ele>571.8</ele>
        <time>2011-05-18T18:40:07Z</time>
      </trkpt>
      <trkpt lat="44.34262" lon="2.53643">
        <ele>571.3</ele>
        <time>2011-05-18T18:40:08Z</time>
      </trkpt>
      <trkpt lat="44.34262" lon="2.53648">
        <ele>570.6</ele>
        <time>2011-05-18T18:40:09Z</time>
      </trkpt>
      <trkpt lat="44.34263" lon="2.53654">
        <ele>569.7</ele>
        <time>2011-05-18T18:40:10Z</time>
      </trkpt>
      <trkpt lat="44.34265" lon="2.5366">
        <ele>568.6</ele>
        <time>2011-05-18T18:40:11Z</time>
      </trkpt>
      <trkpt lat="44.34268" lon="2.53666">
        <ele>567.1</ele>
        <time>2011-05-18T18:40:12Z</time>
      </trkpt>
      <trkpt lat="44.34272" lon="2.5367">
        <ele>565.9</ele>
        <time>2011-05-18T18:40:13Z</time>
      </trkpt>
      <trkpt lat="44.34277" lon="2.53675">
        <ele>564.5</ele>
        <time>2011-05-18T18:40:14Z</time>
      </trkpt>
      <trkpt lat="44.34281" lon="2.53679">
        <ele>563.2</ele>
        <time>2011-05-18T18:40:15Z</time>
      </trkpt>
      <trkpt lat="44.34287" lon="2.53682">
        <ele>561.8</ele>
        <time>2011-05-18T18:40:16Z</time>
      </trkpt>
      <trkpt lat="44.34294" lon="2.53685">
        <ele>560.2</ele>
        <time>2011-05-18T18:40:17Z</time>
      </trkpt>
      <trkpt lat="44.34301" lon="2.53687">
        <ele>558.6</ele>
        <time>2011-05-18T18:40:18Z</time>
      </trkpt>
      <trkpt lat="44.34309" lon="2.53687">
        <ele>557.1</ele>
        <time>2011-05-18T18:40:19Z</time>
      </trkpt>
      <trkpt lat="44.34317" lon="2.53686">
        <ele>555.9</ele>
        <time>2011-05-18T18:40:20Z</time>
      </trkpt>
      <trkpt lat="44.34324" lon="2.53681">
        <ele>555.2</ele>
        <time>2011-05-18T18:40:21Z</time>
      </trkpt>
      <trkpt lat="44.34331" lon="2.53676">
        <ele>554.8</ele>
        <time>2011-05-18T18:40:22Z</time>
      </trkpt>
      <trkpt lat="44.34338" lon="2.53671">
        <ele>554.8</ele>
        <time>2011-05-18T18:40:23Z</time>
      </trkpt>
      <trkpt lat="44.34342" lon="2.53665">
        <ele>555.4</ele>
        <time>2011-05-18T18:40:24Z</time>
      </trkpt>
      <trkpt lat="44.34346" lon="2.5366">
        <ele>555.8</ele>
        <time>2011-05-18T18:40:25Z</time>
      </trkpt>
      <trkpt lat="44.34349" lon="2.5366">
        <ele>555.3</ele>
        <time>2011-05-18T18:40:26Z</time>
      </trkpt>
      <trkpt lat="44.3435" lon="2.53666">
        <ele>554</ele>
        <time>2011-05-18T18:40:28Z</time>
      </trkpt>
      <trkpt lat="44.34349" lon="2.53669">
        <ele>553.5</ele>
        <time>2011-05-18T18:40:29Z</time>
      </trkpt>
      <trkpt lat="44.34349" lon="2.53674">
        <ele>553</ele>
        <time>2011-05-18T18:40:30Z</time>
      </trkpt>
      <trkpt lat="44.34349" lon="2.53679">
        <ele>552.3</ele>
        <time>2011-05-18T18:40:31Z</time>
      </trkpt>
      <trkpt lat="44.34348" lon="2.53686">
        <ele>551.5</ele>
        <time>2011-05-18T18:40:32Z</time>
      </trkpt>
      <trkpt lat="44.34347" lon="2.53692">
        <ele>550.6</ele>
        <time>2011-05-18T18:40:33Z</time>
      </trkpt>
      <trkpt lat="44.34346" lon="2.53697">
        <ele>550</ele>
        <time>2011-05-18T18:40:34Z</time>
      </trkpt>
      <trkpt lat="44.34345" lon="2.53702">
        <ele>549.3</ele>
        <time>2011-05-18T18:40:35Z</time>
      </trkpt>
      <trkpt lat="44.34344" lon="2.53707">
        <ele>548.8</ele>
        <time>2011-05-18T18:40:36Z</time>
      </trkpt>
      <trkpt lat="44.34346" lon="2.53712">
        <ele>547.8</ele>
        <time>2011-05-18T18:40:39Z</time>
      </trkpt>
      <trkpt lat="44.34349" lon="2.53712">
        <ele>547.8</ele>
        <time>2011-05-18T18:41:33Z</time>
      </trkpt>
      <trkpt lat="44.34351" lon="2.53713">
        <ele>547.5</ele>
        <time>2011-05-18T18:41:34Z</time>
      </trkpt>
      <trkpt lat="44.34353" lon="2.53716">
        <ele>547.1</ele>
        <time>2011-05-18T18:41:35Z</time>
      </trkpt>
      <trkpt lat="44.34355" lon="2.53721">
        <ele>546.3</ele>
        <time>2011-05-18T18:41:36Z</time>
      </trkpt>
      <trkpt lat="44.34357" lon="2.53726">
        <ele>545.6</ele>
        <time>2011-05-18T18:41:37Z</time>
      </trkpt>
      <trkpt lat="44.34358" lon="2.53731">
        <ele>545</ele>
        <time>2011-05-18T18:41:38Z</time>
      </trkpt>
      <trkpt lat="44.34359" lon="2.53738">
        <ele>544.2</ele>
        <time>2011-05-18T18:41:39Z</time>
      </trkpt>
      <trkpt lat="44.34361" lon="2.53744">
        <ele>543.4</ele>
        <time>2011-05-18T18:41:40Z</time>
      </trkpt>
      <trkpt lat="44.34363" lon="2.5375">
        <ele>542.7</ele>
        <time>2011-05-18T18:41:41Z</time>
      </trkpt>
      <trkpt lat="44.34365" lon="2.53753">
        <ele>542.7</ele>
        <time>2011-05-18T18:41:42Z</time>
      </trkpt>
      <trkpt lat="44.34368" lon="2.53754">
        <ele>542.8</ele>
        <time>2011-05-18T18:41:43Z</time>
      </trkpt>
      <trkpt lat="44.34371" lon="2.53754">
        <ele>542.9</ele>
        <time>2011-05-18T18:41:44Z</time>
      </trkpt>
      <trkpt lat="44.34374" lon="2.53755">
        <ele>543</ele>
        <time>2011-05-18T18:41:45Z</time>
      </trkpt>
      <trkpt lat="44.34377" lon="2.53756">
        <ele>543.1</ele>
        <time>2011-05-18T18:41:46Z</time>
      </trkpt>
      <trkpt lat="44.34379" lon="2.53758">
        <ele>543.2</ele>
        <time>2011-05-18T18:41:47Z</time>
      </trkpt>
      <trkpt lat="44.34381" lon="2.53762">
        <ele>543.3</ele>
        <time>2011-05-18T18:41:48Z</time>
      </trkpt>
      <trkpt lat="44.34384" lon="2.53766">
        <ele>543.6</ele>
        <time>2011-05-18T18:41:49Z</time>
      </trkpt>
      <trkpt lat="44.34387" lon="2.5377">
        <ele>543.8</ele>
        <time>2011-05-18T18:41:50Z</time>
      </trkpt>
      <trkpt lat="44.3439" lon="2.53773">
        <ele>544</ele>
        <time>2011-05-18T18:41:51Z</time>
      </trkpt>
      <trkpt lat="44.34393" lon="2.53776">
        <ele>544.3</ele>
        <time>2011-05-18T18:41:52Z</time>
      </trkpt>
      <trkpt lat="44.34397" lon="2.53779">
        <ele>544.7</ele>
        <time>2011-05-18T18:41:53Z</time>
      </trkpt>
      <trkpt lat="44.344" lon="2.5378">
        <ele>544.9</ele>
        <time>2011-05-18T18:41:54Z</time>
      </trkpt>
      <trkpt lat="44.34403" lon="2.53781">
        <ele>545.2</ele>
        <time>2011-05-18T18:41:55Z</time>
      </trkpt>
      <trkpt lat="44.34409" lon="2.53782">
        <ele>545.7</ele>
        <time>2011-05-18T18:41:56Z</time>
      </trkpt>
      <trkpt lat="44.34414" lon="2.53784">
        <ele>546.3</ele>
        <time>2011-05-18T18:41:57Z</time>
      </trkpt>
      <trkpt lat="44.34423" lon="2.53784">
        <ele>548.4</ele>
        <time>2011-05-18T18:41:58Z</time>
      </trkpt>
      <trkpt lat="44.34429" lon="2.53784">
        <ele>550.7</ele>
        <time>2011-05-18T18:41:59Z</time>
      </trkpt>
      <trkpt lat="44.34432" lon="2.53787">
        <ele>551.8</ele>
        <time>2011-05-18T18:42:00Z</time>
      </trkpt>
      <trkpt lat="44.34432" lon="2.53792">
        <ele>552.1</ele>
        <time>2011-05-18T18:42:02Z</time>
      </trkpt>
      <trkpt lat="44.34432" lon="2.53796">
        <ele>552.3</ele>
        <time>2011-05-18T18:42:03Z</time>
      </trkpt>
      <trkpt lat="44.34431" lon="2.538">
        <ele>552.5</ele>
        <time>2011-05-18T18:42:04Z</time>
      </trkpt>
      <trkpt lat="44.34431" lon="2.53804">
        <ele>552.5</ele>
        <time>2011-05-18T18:42:05Z</time>
      </trkpt>
      <trkpt lat="44.3443" lon="2.53808">
        <ele>552.5</ele>
        <time>2011-05-18T18:42:06Z</time>
      </trkpt>
      <trkpt lat="44.34429" lon="2.53813">
        <ele>552.7</ele>
        <time>2011-05-18T18:42:07Z</time>
      </trkpt>
      <trkpt lat="44.34429" lon="2.53817">
        <ele>552.7</ele>
        <time>2011-05-18T18:42:08Z</time>
      </trkpt>
      <trkpt lat="44.34428" lon="2.53821">
        <ele>552.7</ele>
        <time>2011-05-18T18:42:09Z</time>
      </trkpt>
      <trkpt lat="44.34427" lon="2.53826">
        <ele>552.7</ele>
        <time>2011-05-18T18:42:10Z</time>
      </trkpt>
      <trkpt lat="44.34426" lon="2.53831">
        <ele>552.7</ele>
        <time>2011-05-18T18:42:11Z</time>
      </trkpt>
      <trkpt lat="44.34425" lon="2.53836">
        <ele>552.6</ele>
        <time>2011-05-18T18:42:12Z</time>
      </trkpt>
      <trkpt lat="44.34423" lon="2.53841">
        <ele>552.3</ele>
        <time>2011-05-18T18:42:13Z</time>
      </trkpt>
      <trkpt lat="44.34422" lon="2.53845">
        <ele>552.1</ele>
        <time>2011-05-18T18:42:14Z</time>
      </trkpt>
      <trkpt lat="44.34421" lon="2.53851">
        <ele>552</ele>
        <time>2011-05-18T18:42:15Z</time>
      </trkpt>
      <trkpt lat="44.3442" lon="2.53856">
        <ele>551.8</ele>
        <time>2011-05-18T18:42:16Z</time>
      </trkpt>
      <trkpt lat="44.34419" lon="2.53862">
        <ele>551.7</ele>
        <time>2011-05-18T18:42:17Z</time>
      </trkpt>
      <trkpt lat="44.34418" lon="2.53868">
        <ele>551.5</ele>
        <time>2011-05-18T18:42:18Z</time>
      </trkpt>
      <trkpt lat="44.34416" lon="2.53875">
        <ele>551.3</ele>
        <time>2011-05-18T18:42:19Z</time>
      </trkpt>
      <trkpt lat="44.34414" lon="2.53881">
        <ele>551.2</ele>
        <time>2011-05-18T18:42:20Z</time>
      </trkpt>
      <trkpt lat="44.34412" lon="2.53886">
        <ele>550.9</ele>
        <time>2011-05-18T18:42:21Z</time>
      </trkpt>
      <trkpt lat="44.3441" lon="2.53891">
        <ele>550.5</ele>
        <time>2011-05-18T18:42:22Z</time>
      </trkpt>
      <trkpt lat="44.34408" lon="2.53897">
        <ele>550</ele>
        <time>2011-05-18T18:42:23Z</time>
      </trkpt>
      <trkpt lat="44.34405" lon="2.53902">
        <ele>549.4</ele>
        <time>2011-05-18T18:42:24Z</time>
      </trkpt>
      <trkpt lat="44.34403" lon="2.53906">
        <ele>548.9</ele>
        <time>2011-05-18T18:42:25Z</time>
      </trkpt>
      <trkpt lat="44.344" lon="2.53911">
        <ele>548.2</ele>
        <time>2011-05-18T18:42:26Z</time>
      </trkpt>
      <trkpt lat="44.34397" lon="2.53915">
        <ele>547.5</ele>
        <time>2011-05-18T18:42:27Z</time>
      </trkpt>
      <trkpt lat="44.34395" lon="2.5392">
        <ele>546.5</ele>
        <time>2011-05-18T18:42:28Z</time>
      </trkpt>
      <trkpt lat="44.34392" lon="2.53925">
        <ele>545.3</ele>
        <time>2011-05-18T18:42:29Z</time>
      </trkpt>
      <trkpt lat="44.34389" lon="2.53929">
        <ele>544.1</ele>
        <time>2011-05-18T18:42:30Z</time>
      </trkpt>
      <trkpt lat="44.34386" lon="2.53934">
        <ele>542.8</ele>
        <time>2011-05-18T18:42:31Z</time>
      </trkpt>
      <trkpt lat="44.34384" lon="2.53938">
        <ele>541.7</ele>
        <time>2011-05-18T18:42:32Z</time>
      </trkpt>
      <trkpt lat="44.3438" lon="2.53943">
        <ele>540.6</ele>
        <time>2011-05-18T18:42:33Z</time>
      </trkpt>
      <trkpt lat="44.34377" lon="2.53947">
        <ele>539.3</ele>
        <time>2011-05-18T18:42:34Z</time>
      </trkpt>
      <trkpt lat="44.34374" lon="2.53953">
        <ele>538.1</ele>
        <time>2011-05-18T18:42:35Z</time>
      </trkpt>
      <trkpt lat="44.34372" lon="2.53959">
        <ele>536.9</ele>
        <time>2011-05-18T18:42:36Z</time>
      </trkpt>
      <trkpt lat="44.34369" lon="2.53965">
        <ele>535.9</ele>
        <time>2011-05-18T18:42:37Z</time>
      </trkpt>
      <trkpt lat="44.34368" lon="2.53971">
        <ele>535</ele>
        <time>2011-05-18T18:42:38Z</time>
      </trkpt>
      <trkpt lat="44.34368" lon="2.53978">
        <ele>534.6</ele>
        <time>2011-05-18T18:42:39Z</time>
      </trkpt>
      <trkpt lat="44.3437" lon="2.53985">
        <ele>534.5</ele>
        <time>2011-05-18T18:42:40Z</time>
      </trkpt>
      <trkpt lat="44.34372" lon="2.53991">
        <ele>534.4</ele>
        <time>2011-05-18T18:42:41Z</time>
      </trkpt>
      <trkpt lat="44.34374" lon="2.53996">
        <ele>534.5</ele>
        <time>2011-05-18T18:42:42Z</time>
      </trkpt>
      <trkpt lat="44.34375" lon="2.54001">
        <ele>534.6</ele>
        <time>2011-05-18T18:42:43Z</time>
      </trkpt>
      <trkpt lat="44.34377" lon="2.54005">
        <ele>534.2</ele>
        <time>2011-05-18T18:42:44Z</time>
      </trkpt>
      <trkpt lat="44.3438" lon="2.54008">
        <ele>533.9</ele>
        <time>2011-05-18T18:42:45Z</time>
      </trkpt>
      <trkpt lat="44.34383" lon="2.54011">
        <ele>533.9</ele>
        <time>2011-05-18T18:42:46Z</time>
      </trkpt>
      <trkpt lat="44.34386" lon="2.54014">
        <ele>534</ele>
        <time>2011-05-18T18:42:47Z</time>
      </trkpt>
      <trkpt lat="44.34389" lon="2.54016">
        <ele>534.1</ele>
        <time>2011-05-18T18:42:48Z</time>
      </trkpt>
      <trkpt lat="44.34392" lon="2.54019">
        <ele>534.1</ele>
        <time>2011-05-18T18:42:49Z</time>
      </trkpt>
      <trkpt lat="44.34395" lon="2.54021">
        <ele>534.2</ele>
        <time>2011-05-18T18:42:50Z</time>
      </trkpt>
      <trkpt lat="44.34399" lon="2.54024">
        <ele>534.3</ele>
        <time>2011-05-18T18:42:51Z</time>
      </trkpt>
      <trkpt lat="44.34402" lon="2.54027">
        <ele>534.3</ele>
        <time>2011-05-18T18:42:52Z</time>
      </trkpt>
      <trkpt lat="44.34406" lon="2.54029">
        <ele>534.4</ele>
        <time>2011-05-18T18:42:53Z</time>
      </trkpt>
      <trkpt lat="44.34409" lon="2.54032">
        <ele>534.3</ele>
        <time>2011-05-18T18:42:54Z</time>
      </trkpt>
      <trkpt lat="44.34413" lon="2.54035">
        <ele>534.3</ele>
        <time>2011-05-18T18:42:55Z</time>
      </trkpt>
      <trkpt lat="44.34416" lon="2.54037">
        <ele>534.3</ele>
        <time>2011-05-18T18:42:56Z</time>
      </trkpt>
      <trkpt lat="44.34419" lon="2.54039">
        <ele>534</ele>
        <time>2011-05-18T18:42:57Z</time>
      </trkpt>
      <trkpt lat="44.34422" lon="2.54042">
        <ele>533.8</ele>
        <time>2011-05-18T18:42:58Z</time>
      </trkpt>
      <trkpt lat="44.34426" lon="2.54045">
        <ele>533.6</ele>
        <time>2011-05-18T18:42:59Z</time>
      </trkpt>
      <trkpt lat="44.34429" lon="2.54047">
        <ele>533.4</ele>
        <time>2011-05-18T18:43:00Z</time>
      </trkpt>
      <trkpt lat="44.34433" lon="2.5405">
        <ele>533.1</ele>
        <time>2011-05-18T18:43:01Z</time>
      </trkpt>
      <trkpt lat="44.34436" lon="2.54053">
        <ele>532.9</ele>
        <time>2011-05-18T18:43:02Z</time>
      </trkpt>
      <trkpt lat="44.3444" lon="2.54056">
        <ele>532.3</ele>
        <time>2011-05-18T18:43:03Z</time>
      </trkpt>
      <trkpt lat="44.34443" lon="2.54059">
        <ele>532.1</ele>
        <time>2011-05-18T18:43:04Z</time>
      </trkpt>
      <trkpt lat="44.34446" lon="2.54062">
        <ele>531.8</ele>
        <time>2011-05-18T18:43:05Z</time>
      </trkpt>
      <trkpt lat="44.3445" lon="2.54065">
        <ele>531.3</ele>
        <time>2011-05-18T18:43:06Z</time>
      </trkpt>
      <trkpt lat="44.34453" lon="2.54069">
        <ele>530.7</ele>
        <time>2011-05-18T18:43:07Z</time>
      </trkpt>
      <trkpt lat="44.34457" lon="2.54073">
        <ele>530.1</ele>
        <time>2011-05-18T18:43:08Z</time>
      </trkpt>
      <trkpt lat="44.3446" lon="2.54077">
        <ele>529.5</ele>
        <time>2011-05-18T18:43:09Z</time>
      </trkpt>
      <trkpt lat="44.34464" lon="2.54082">
        <ele>528.9</ele>
        <time>2011-05-18T18:43:10Z</time>
      </trkpt>
      <trkpt lat="44.34468" lon="2.54086">
        <ele>528.3</ele>
        <time>2011-05-18T18:43:11Z</time>
      </trkpt>
      <trkpt lat="44.34472" lon="2.5409">
        <ele>528.2</ele>
        <time>2011-05-18T18:43:12Z</time>
      </trkpt>
      <trkpt lat="44.34475" lon="2.54095">
        <ele>528.1</ele>
        <time>2011-05-18T18:43:13Z</time>
      </trkpt>
      <trkpt lat="44.3448" lon="2.54099">
        <ele>527.8</ele>
        <time>2011-05-18T18:43:14Z</time>
      </trkpt>
      <trkpt lat="44.34484" lon="2.54104">
        <ele>527.7</ele>
        <time>2011-05-18T18:43:15Z</time>
      </trkpt>
      <trkpt lat="44.34489" lon="2.54109">
        <ele>527.5</ele>
        <time>2011-05-18T18:43:16Z</time>
      </trkpt>
      <trkpt lat="44.34493" lon="2.54114">
        <ele>527.2</ele>
        <time>2011-05-18T18:43:17Z</time>
      </trkpt>
      <trkpt lat="44.34498" lon="2.54119">
        <ele>526.9</ele>
        <time>2011-05-18T18:43:18Z</time>
      </trkpt>
      <trkpt lat="44.34503" lon="2.54125">
        <ele>526.5</ele>
        <time>2011-05-18T18:43:19Z</time>
      </trkpt>
      <trkpt lat="44.34508" lon="2.54131">
        <ele>526.4</ele>
        <time>2011-05-18T18:43:20Z</time>
      </trkpt>
      <trkpt lat="44.34514" lon="2.54136">
        <ele>526.3</ele>
        <time>2011-05-18T18:43:21Z</time>
      </trkpt>
      <trkpt lat="44.34519" lon="2.54142">
        <ele>526</ele>
        <time>2011-05-18T18:43:22Z</time>
      </trkpt>
      <trkpt lat="44.34524" lon="2.54147">
        <ele>525.9</ele>
        <time>2011-05-18T18:43:23Z</time>
      </trkpt>
      <trkpt lat="44.34528" lon="2.54153">
        <ele>525.8</ele>
        <time>2011-05-18T18:43:24Z</time>
      </trkpt>
      <trkpt lat="44.34533" lon="2.54158">
        <ele>525.6</ele>
        <time>2011-05-18T18:43:25Z</time>
      </trkpt>
      <trkpt lat="44.34537" lon="2.54163">
        <ele>525.5</ele>
        <time>2011-05-18T18:43:26Z</time>
      </trkpt>
      <trkpt lat="44.34542" lon="2.54168">
        <ele>525.5</ele>
        <time>2011-05-18T18:43:27Z</time>
      </trkpt>
      <trkpt lat="44.34546" lon="2.54173">
        <ele>525.6</ele>
        <time>2011-05-18T18:43:28Z</time>
      </trkpt>
      <trkpt lat="44.3455" lon="2.54178">
        <ele>525.8</ele>
        <time>2011-05-18T18:43:29Z</time>
      </trkpt>
      <trkpt lat="44.34554" lon="2.54183">
        <ele>525.9</ele>
        <time>2011-05-18T18:43:30Z</time>
      </trkpt>
      <trkpt lat="44.34558" lon="2.54188">
        <ele>525.8</ele>
        <time>2011-05-18T18:43:31Z</time>
      </trkpt>
      <trkpt lat="44.34562" lon="2.54193">
        <ele>525.9</ele>
        <time>2011-05-18T18:43:32Z</time>
      </trkpt>
      <trkpt lat="44.34566" lon="2.54198">
        <ele>525.8</ele>
        <time>2011-05-18T18:43:33Z</time>
      </trkpt>
      <trkpt lat="44.34569" lon="2.54203">
        <ele>525.7</ele>
        <time>2011-05-18T18:43:34Z</time>
      </trkpt>
      <trkpt lat="44.34573" lon="2.54208">
        <ele>525.6</ele>
        <time>2011-05-18T18:43:35Z</time>
      </trkpt>
      <trkpt lat="44.34577" lon="2.54214">
        <ele>525.5</ele>
        <time>2011-05-18T18:43:36Z</time>
      </trkpt>
      <trkpt lat="44.3458" lon="2.54219">
        <ele>525.5</ele>
        <time>2011-05-18T18:43:37Z</time>
      </trkpt>
      <trkpt lat="44.34584" lon="2.54224">
        <ele>525.3</ele>
        <time>2011-05-18T18:43:38Z</time>
      </trkpt>
      <trkpt lat="44.34587" lon="2.54228">
        <ele>525</ele>
        <time>2011-05-18T18:43:39Z</time>
      </trkpt>
      <trkpt lat="44.34591" lon="2.54233">
        <ele>524.7</ele>
        <time>2011-05-18T18:43:40Z</time>
      </trkpt>
      <trkpt lat="44.34594" lon="2.54238">
        <ele>524.6</ele>
        <time>2011-05-18T18:43:41Z</time>
      </trkpt>
      <trkpt lat="44.34598" lon="2.54242">
        <ele>524.3</ele>
        <time>2011-05-18T18:43:42Z</time>
      </trkpt>
      <trkpt lat="44.34601" lon="2.54247">
        <ele>524.2</ele>
        <time>2011-05-18T18:43:43Z</time>
      </trkpt>
      <trkpt lat="44.34605" lon="2.54251">
        <ele>524.1</ele>
        <time>2011-05-18T18:43:44Z</time>
      </trkpt>
      <trkpt lat="44.34608" lon="2.54255">
        <ele>523.9</ele>
        <time>2011-05-18T18:43:45Z</time>
      </trkpt>
      <trkpt lat="44.34612" lon="2.54258">
        <ele>523.7</ele>
        <time>2011-05-18T18:43:46Z</time>
      </trkpt>
      <trkpt lat="44.34615" lon="2.54262">
        <ele>523.7</ele>
        <time>2011-05-18T18:43:47Z</time>
      </trkpt>
      <trkpt lat="44.34618" lon="2.54265">
        <ele>523.5</ele>
        <time>2011-05-18T18:43:48Z</time>
      </trkpt>
      <trkpt lat="44.34621" lon="2.54268">
        <ele>523.5</ele>
        <time>2011-05-18T18:43:49Z</time>
      </trkpt>
      <trkpt lat="44.34624" lon="2.54271">
        <ele>523.2</ele>
        <time>2011-05-18T18:43:50Z</time>
      </trkpt>
      <trkpt lat="44.34628" lon="2.54273">
        <ele>523.1</ele>
        <time>2011-05-18T18:43:51Z</time>
      </trkpt>
      <trkpt lat="44.34631" lon="2.54276">
        <ele>523</ele>
        <time>2011-05-18T18:43:52Z</time>
      </trkpt>
      <trkpt lat="44.34633" lon="2.54279">
        <ele>522.9</ele>
        <time>2011-05-18T18:43:53Z</time>
      </trkpt>
      <trkpt lat="44.34636" lon="2.54281">
        <ele>522.7</ele>
        <time>2011-05-18T18:43:54Z</time>
      </trkpt>
      <trkpt lat="44.34639" lon="2.54283">
        <ele>522.8</ele>
        <time>2011-05-18T18:43:55Z</time>
      </trkpt>
      <trkpt lat="44.34641" lon="2.54286">
        <ele>522.6</ele>
        <time>2011-05-18T18:43:56Z</time>
      </trkpt>
      <trkpt lat="44.34644" lon="2.54288">
        <ele>522.4</ele>
        <time>2011-05-18T18:43:57Z</time>
      </trkpt>
      <trkpt lat="44.34647" lon="2.54291">
        <ele>522.3</ele>
        <time>2011-05-18T18:43:58Z</time>
      </trkpt>
      <trkpt lat="44.34649" lon="2.54293">
        <ele>522.1</ele>
        <time>2011-05-18T18:43:59Z</time>
      </trkpt>
      <trkpt lat="44.34652" lon="2.54295">
        <ele>522.1</ele>
        <time>2011-05-18T18:44:00Z</time>
      </trkpt>
      <trkpt lat="44.34655" lon="2.54297">
        <ele>521.9</ele>
        <time>2011-05-18T18:44:01Z</time>
      </trkpt>
      <trkpt lat="44.34658" lon="2.54299">
        <ele>521.9</ele>
        <time>2011-05-18T18:44:02Z</time>
      </trkpt>
      <trkpt lat="44.34661" lon="2.54301">
        <ele>521.7</ele>
        <time>2011-05-18T18:44:03Z</time>
      </trkpt>
      <trkpt lat="44.34663" lon="2.54304">
        <ele>521.5</ele>
        <time>2011-05-18T18:44:04Z</time>
      </trkpt>
      <trkpt lat="44.34666" lon="2.54306">
        <ele>521.2</ele>
        <time>2011-05-18T18:44:05Z</time>
      </trkpt>
      <trkpt lat="44.34669" lon="2.54309">
        <ele>521</ele>
        <time>2011-05-18T18:44:06Z</time>
      </trkpt>
      <trkpt lat="44.34671" lon="2.54311">
        <ele>520.9</ele>
        <time>2011-05-18T18:44:07Z</time>
      </trkpt>
      <trkpt lat="44.34674" lon="2.54313">
        <ele>520.6</ele>
        <time>2011-05-18T18:44:08Z</time>
      </trkpt>
      <trkpt lat="44.34677" lon="2.54316">
        <ele>520.4</ele>
        <time>2011-05-18T18:44:09Z</time>
      </trkpt>
      <trkpt lat="44.3468" lon="2.54318">
        <ele>520.1</ele>
        <time>2011-05-18T18:44:10Z</time>
      </trkpt>
      <trkpt lat="44.34683" lon="2.54321">
        <ele>519.8</ele>
        <time>2011-05-18T18:44:11Z</time>
      </trkpt>
      <trkpt lat="44.34686" lon="2.54324">
        <ele>519.6</ele>
        <time>2011-05-18T18:44:12Z</time>
      </trkpt>
      <trkpt lat="44.34689" lon="2.54326">
        <ele>519.3</ele>
        <time>2011-05-18T18:44:13Z</time>
      </trkpt>
      <trkpt lat="44.34692" lon="2.54329">
        <ele>519</ele>
        <time>2011-05-18T18:44:14Z</time>
      </trkpt>
      <trkpt lat="44.34695" lon="2.54331">
        <ele>518.8</ele>
        <time>2011-05-18T18:44:15Z</time>
      </trkpt>
      <trkpt lat="44.34698" lon="2.54333">
        <ele>518.7</ele>
        <time>2011-05-18T18:44:16Z</time>
      </trkpt>
      <trkpt lat="44.34701" lon="2.54336">
        <ele>518.5</ele>
        <time>2011-05-18T18:44:17Z</time>
      </trkpt>
      <trkpt lat="44.34704" lon="2.54338">
        <ele>518.4</ele>
        <time>2011-05-18T18:44:18Z</time>
      </trkpt>
      <trkpt lat="44.34707" lon="2.5434">
        <ele>518.3</ele>
        <time>2011-05-18T18:44:19Z</time>
      </trkpt>
      <trkpt lat="44.3471" lon="2.54343">
        <ele>518.2</ele>
        <time>2011-05-18T18:44:20Z</time>
      </trkpt>
      <trkpt lat="44.34712" lon="2.54345">
        <ele>518.1</ele>
        <time>2011-05-18T18:44:21Z</time>
      </trkpt>
      <trkpt lat="44.34716" lon="2.54347">
        <ele>518.1</ele>
        <time>2011-05-18T18:44:22Z</time>
      </trkpt>
      <trkpt lat="44.34719" lon="2.54349">
        <ele>518</ele>
        <time>2011-05-18T18:44:23Z</time>
      </trkpt>
      <trkpt lat="44.34722" lon="2.54351">
        <ele>518</ele>
        <time>2011-05-18T18:44:24Z</time>
      </trkpt>
      <trkpt lat="44.34725" lon="2.54353">
        <ele>517.9</ele>
        <time>2011-05-18T18:44:25Z</time>
      </trkpt>
      <trkpt lat="44.34729" lon="2.54355">
        <ele>518</ele>
        <time>2011-05-18T18:44:26Z</time>
      </trkpt>
      <trkpt lat="44.34732" lon="2.54356">
        <ele>518</ele>
        <time>2011-05-18T18:44:27Z</time>
      </trkpt>
      <trkpt lat="44.34735" lon="2.54358">
        <ele>517.9</ele>
        <time>2011-05-18T18:44:28Z</time>
      </trkpt>
      <trkpt lat="44.34738" lon="2.5436">
        <ele>517.9</ele>
        <time>2011-05-18T18:44:29Z</time>
      </trkpt>
      <trkpt lat="44.34742" lon="2.54362">
        <ele>517.9</ele>
        <time>2011-05-18T18:44:30Z</time>
      </trkpt>
      <trkpt lat="44.34745" lon="2.54364">
        <ele>517.9</ele>
        <time>2011-05-18T18:44:31Z</time>
      </trkpt>
      <trkpt lat="44.34749" lon="2.54366">
        <ele>517.8</ele>
        <time>2011-05-18T18:44:32Z</time>
      </trkpt>
      <trkpt lat="44.34752" lon="2.54368">
        <ele>517.6</ele>
        <time>2011-05-18T18:44:33Z</time>
      </trkpt>
      <trkpt lat="44.34756" lon="2.5437">
        <ele>517</ele>
        <time>2011-05-18T18:44:34Z</time>
      </trkpt>
      <trkpt lat="44.34759" lon="2.54373">
        <ele>516.5</ele>
        <time>2011-05-18T18:44:35Z</time>
      </trkpt>
      <trkpt lat="44.34763" lon="2.54375">
        <ele>516</ele>
        <time>2011-05-18T18:44:36Z</time>
      </trkpt>
      <trkpt lat="44.34766" lon="2.54377">
        <ele>515.6</ele>
        <time>2011-05-18T18:44:37Z</time>
      </trkpt>
      <trkpt lat="44.34769" lon="2.54379">
        <ele>515.1</ele>
        <time>2011-05-18T18:44:38Z</time>
      </trkpt>
      <trkpt lat="44.34773" lon="2.54381">
        <ele>514.7</ele>
        <time>2011-05-18T18:44:39Z</time>
      </trkpt>
      <trkpt lat="44.34776" lon="2.54383">
        <ele>514.2</ele>
        <time>2011-05-18T18:44:40Z</time>
      </trkpt>
      <trkpt lat="44.3478" lon="2.54385">
        <ele>513.9</ele>
        <time>2011-05-18T18:44:41Z</time>
      </trkpt>
      <trkpt lat="44.34783" lon="2.54386">
        <ele>513.4</ele>
        <time>2011-05-18T18:44:42Z</time>
      </trkpt>
      <trkpt lat="44.34787" lon="2.54388">
        <ele>513</ele>
        <time>2011-05-18T18:44:43Z</time>
      </trkpt>
      <trkpt lat="44.34791" lon="2.54389">
        <ele>512.6</ele>
        <time>2011-05-18T18:44:44Z</time>
      </trkpt>
      <trkpt lat="44.34795" lon="2.5439">
        <ele>512.2</ele>
        <time>2011-05-18T18:44:45Z</time>
      </trkpt>
      <trkpt lat="44.34799" lon="2.54391">
        <ele>511.8</ele>
        <time>2011-05-18T18:44:46Z</time>
      </trkpt>
      <trkpt lat="44.34804" lon="2.54392">
        <ele>511.3</ele>
        <time>2011-05-18T18:44:47Z</time>
      </trkpt>
      <trkpt lat="44.34808" lon="2.54393">
        <ele>511</ele>
        <time>2011-05-18T18:44:48Z</time>
      </trkpt>
      <trkpt lat="44.34812" lon="2.54392">
        <ele>510.7</ele>
        <time>2011-05-18T18:44:49Z</time>
      </trkpt>
      <trkpt lat="44.34816" lon="2.5439">
        <ele>510.6</ele>
        <time>2011-05-18T18:44:50Z</time>
      </trkpt>
      <trkpt lat="44.3482" lon="2.54387">
        <ele>510.5</ele>
        <time>2011-05-18T18:44:51Z</time>
      </trkpt>
      <trkpt lat="44.34824" lon="2.54384">
        <ele>510.4</ele>
        <time>2011-05-18T18:44:52Z</time>
      </trkpt>
      <trkpt lat="44.34828" lon="2.54381">
        <ele>510.4</ele>
        <time>2011-05-18T18:44:53Z</time>
      </trkpt>
      <trkpt lat="44.34833" lon="2.54379">
        <ele>510.3</ele>
        <time>2011-05-18T18:44:54Z</time>
      </trkpt>
      <trkpt lat="44.34837" lon="2.54376">
        <ele>510.4</ele>
        <time>2011-05-18T18:44:55Z</time>
      </trkpt>
      <trkpt lat="44.34841" lon="2.54374">
        <ele>510.5</ele>
        <time>2011-05-18T18:44:56Z</time>
      </trkpt>
      <trkpt lat="44.34846" lon="2.54373">
        <ele>510.5</ele>
        <time>2011-05-18T18:44:57Z</time>
      </trkpt>
      <trkpt lat="44.34851" lon="2.54371">
        <ele>510.5</ele>
        <time>2011-05-18T18:44:58Z</time>
      </trkpt>
      <trkpt lat="44.34857" lon="2.5437">
        <ele>510.5</ele>
        <time>2011-05-18T18:44:59Z</time>
      </trkpt>
      <trkpt lat="44.34863" lon="2.54369">
        <ele>510.4</ele>
        <time>2011-05-18T18:45:00Z</time>
      </trkpt>
      <trkpt lat="44.34869" lon="2.54366">
        <ele>510.4</ele>
        <time>2011-05-18T18:45:01Z</time>
      </trkpt>
      <trkpt lat="44.34873" lon="2.54362">
        <ele>510.4</ele>
        <time>2011-05-18T18:45:02Z</time>
      </trkpt>
      <trkpt lat="44.34877" lon="2.54356">
        <ele>510.4</ele>
        <time>2011-05-18T18:45:03Z</time>
      </trkpt>
      <trkpt lat="44.34879" lon="2.5435">
        <ele>510.4</ele>
        <time>2011-05-18T18:45:04Z</time>
      </trkpt>
      <trkpt lat="44.34881" lon="2.54345">
        <ele>510.4</ele>
        <time>2011-05-18T18:45:05Z</time>
      </trkpt>
      <trkpt lat="44.34883" lon="2.54339">
        <ele>510.4</ele>
        <time>2011-05-18T18:45:06Z</time>
      </trkpt>
      <trkpt lat="44.34884" lon="2.54334">
        <ele>510.4</ele>
        <time>2011-05-18T18:45:07Z</time>
      </trkpt>
      <trkpt lat="44.34885" lon="2.54328">
        <ele>510.6</ele>
        <time>2011-05-18T18:45:08Z</time>
      </trkpt>
      <trkpt lat="44.34886" lon="2.54323">
        <ele>510.9</ele>
        <time>2011-05-18T18:45:09Z</time>
      </trkpt>
      <trkpt lat="44.34887" lon="2.54317">
        <ele>511</ele>
        <time>2011-05-18T18:45:10Z</time>
      </trkpt>
      <trkpt lat="44.34889" lon="2.54312">
        <ele>511.2</ele>
        <time>2011-05-18T18:45:11Z</time>
      </trkpt>
      <trkpt lat="44.3489" lon="2.54306">
        <ele>511.3</ele>
        <time>2011-05-18T18:45:12Z</time>
      </trkpt>
      <trkpt lat="44.34891" lon="2.54301">
        <ele>511.5</ele>
        <time>2011-05-18T18:45:13Z</time>
      </trkpt>
      <trkpt lat="44.34893" lon="2.54296">
        <ele>511.6</ele>
        <time>2011-05-18T18:45:14Z</time>
      </trkpt>
      <trkpt lat="44.34895" lon="2.54291">
        <ele>511.7</ele>
        <time>2011-05-18T18:45:15Z</time>
      </trkpt>
      <trkpt lat="44.34897" lon="2.54286">
        <ele>511.7</ele>
        <time>2011-05-18T18:45:16Z</time>
      </trkpt>
      <trkpt lat="44.34899" lon="2.54281">
        <ele>511.8</ele>
        <time>2011-05-18T18:45:17Z</time>
      </trkpt>
      <trkpt lat="44.34901" lon="2.54276">
        <ele>511.7</ele>
        <time>2011-05-18T18:45:18Z</time>
      </trkpt>
      <trkpt lat="44.34903" lon="2.54272">
        <ele>511.7</ele>
        <time>2011-05-18T18:45:19Z</time>
      </trkpt>
      <trkpt lat="44.34906" lon="2.54267">
        <ele>511.6</ele>
        <time>2011-05-18T18:45:20Z</time>
      </trkpt>
      <trkpt lat="44.34908" lon="2.54263">
        <ele>511.5</ele>
        <time>2011-05-18T18:45:21Z</time>
      </trkpt>
      <trkpt lat="44.34911" lon="2.54258">
        <ele>511.4</ele>
        <time>2011-05-18T18:45:22Z</time>
      </trkpt>
      <trkpt lat="44.34913" lon="2.54254">
        <ele>511.2</ele>
        <time>2011-05-18T18:45:23Z</time>
      </trkpt>
      <trkpt lat="44.34916" lon="2.5425">
        <ele>511.1</ele>
        <time>2011-05-18T18:45:24Z</time>
      </trkpt>
      <trkpt lat="44.34918" lon="2.54246">
        <ele>511.8</ele>
        <time>2011-05-18T18:45:25Z</time>
      </trkpt>
      <trkpt lat="44.34921" lon="2.54242">
        <ele>512.5</ele>
        <time>2011-05-18T18:45:26Z</time>
      </trkpt>
      <trkpt lat="44.34924" lon="2.54239">
        <ele>513.3</ele>
        <time>2011-05-18T18:45:27Z</time>
      </trkpt>
      <trkpt lat="44.34926" lon="2.54236">
        <ele>513.7</ele>
        <time>2011-05-18T18:45:28Z</time>
      </trkpt>
      <trkpt lat="44.34929" lon="2.54232">
        <ele>514.3</ele>
        <time>2011-05-18T18:45:29Z</time>
      </trkpt>
      <trkpt lat="44.34932" lon="2.54229">
        <ele>515</ele>
        <time>2011-05-18T18:45:30Z</time>
      </trkpt>
      <trkpt lat="44.34935" lon="2.54225">
        <ele>515.3</ele>
        <time>2011-05-18T18:45:31Z</time>
      </trkpt>
      <trkpt lat="44.34937" lon="2.54222">
        <ele>515.9</ele>
        <time>2011-05-18T18:45:32Z</time>
      </trkpt>
      <trkpt lat="44.3494" lon="2.54218">
        <ele>516.5</ele>
        <time>2011-05-18T18:45:33Z</time>
      </trkpt>
      <trkpt lat="44.34943" lon="2.54215">
        <ele>516.7</ele>
        <time>2011-05-18T18:45:34Z</time>
      </trkpt>
      <trkpt lat="44.34946" lon="2.54211">
        <ele>517.2</ele>
        <time>2011-05-18T18:45:35Z</time>
      </trkpt>
      <trkpt lat="44.34949" lon="2.54208">
        <ele>517.7</ele>
        <time>2011-05-18T18:45:36Z</time>
      </trkpt>
      <trkpt lat="44.34952" lon="2.54205">
        <ele>517.9</ele>
        <time>2011-05-18T18:45:37Z</time>
      </trkpt>
      <trkpt lat="44.34955" lon="2.54202">
        <ele>518.1</ele>
        <time>2011-05-18T18:45:38Z</time>
      </trkpt>
      <trkpt lat="44.34958" lon="2.54199">
        <ele>518.4</ele>
        <time>2011-05-18T18:45:39Z</time>
      </trkpt>
      <trkpt lat="44.34962" lon="2.54197">
        <ele>518.3</ele>
        <time>2011-05-18T18:45:40Z</time>
      </trkpt>
      <trkpt lat="44.34965" lon="2.54194">
        <ele>518.4</ele>
        <time>2011-05-18T18:45:41Z</time>
      </trkpt>
      <trkpt lat="44.34968" lon="2.54193">
        <ele>518.5</ele>
        <time>2011-05-18T18:45:42Z</time>
      </trkpt>
      <trkpt lat="44.34971" lon="2.54191">
        <ele>518.4</ele>
        <time>2011-05-18T18:45:43Z</time>
      </trkpt>
      <trkpt lat="44.34974" lon="2.54189">
        <ele>518.3</ele>
        <time>2011-05-18T18:45:44Z</time>
      </trkpt>
      <trkpt lat="44.34978" lon="2.54188">
        <ele>518.1</ele>
        <time>2011-05-18T18:45:45Z</time>
      </trkpt>
      <trkpt lat="44.34981" lon="2.54186">
        <ele>518.1</ele>
        <time>2011-05-18T18:45:46Z</time>
      </trkpt>
      <trkpt lat="44.34984" lon="2.54184">
        <ele>517.9</ele>
        <time>2011-05-18T18:45:47Z</time>
      </trkpt>
      <trkpt lat="44.34988" lon="2.54182">
        <ele>517.8</ele>
        <time>2011-05-18T18:45:48Z</time>
      </trkpt>
      <trkpt lat="44.34992" lon="2.5418">
        <ele>517.5</ele>
        <time>2011-05-18T18:45:49Z</time>
      </trkpt>
      <trkpt lat="44.34996" lon="2.54178">
        <ele>517.3</ele>
        <time>2011-05-18T18:45:50Z</time>
      </trkpt>
      <trkpt lat="44.35001" lon="2.54175">
        <ele>517.1</ele>
        <time>2011-05-18T18:45:51Z</time>
      </trkpt>
      <trkpt lat="44.35006" lon="2.54172">
        <ele>516.9</ele>
        <time>2011-05-18T18:45:52Z</time>
      </trkpt>
      <trkpt lat="44.35011" lon="2.54169">
        <ele>516.5</ele>
        <time>2011-05-18T18:45:53Z</time>
      </trkpt>
      <trkpt lat="44.35017" lon="2.54166">
        <ele>516.6</ele>
        <time>2011-05-18T18:45:54Z</time>
      </trkpt>
      <trkpt lat="44.35023" lon="2.54163">
        <ele>516.7</ele>
        <time>2011-05-18T18:45:55Z</time>
      </trkpt>
      <trkpt lat="44.35029" lon="2.54159">
        <ele>517</ele>
        <time>2011-05-18T18:45:56Z</time>
      </trkpt>
      <trkpt lat="44.35035" lon="2.54155">
        <ele>517.6</ele>
        <time>2011-05-18T18:45:57Z</time>
      </trkpt>
      <trkpt lat="44.3504" lon="2.54151">
        <ele>517.5</ele>
        <time>2011-05-18T18:45:58Z</time>
      </trkpt>
      <trkpt lat="44.35046" lon="2.54148">
        <ele>517.7</ele>
        <time>2011-05-18T18:45:59Z</time>
      </trkpt>
      <trkpt lat="44.35051" lon="2.54144">
        <ele>517.8</ele>
        <time>2011-05-18T18:46:00Z</time>
      </trkpt>
      <trkpt lat="44.35056" lon="2.54141">
        <ele>517.6</ele>
        <time>2011-05-18T18:46:01Z</time>
      </trkpt>
      <trkpt lat="44.35061" lon="2.54138">
        <ele>517.3</ele>
        <time>2011-05-18T18:46:02Z</time>
      </trkpt>
      <trkpt lat="44.35065" lon="2.54135">
        <ele>517.3</ele>
        <time>2011-05-18T18:46:03Z</time>
      </trkpt>
      <trkpt lat="44.35069" lon="2.54132">
        <ele>517.1</ele>
        <time>2011-05-18T18:46:04Z</time>
      </trkpt>
      <trkpt lat="44.35073" lon="2.54129">
        <ele>516.8</ele>
        <time>2011-05-18T18:46:05Z</time>
      </trkpt>
      <trkpt lat="44.35077" lon="2.54127">
        <ele>516.5</ele>
        <time>2011-05-18T18:46:06Z</time>
      </trkpt>
      <trkpt lat="44.35081" lon="2.54124">
        <ele>516.2</ele>
        <time>2011-05-18T18:46:07Z</time>
      </trkpt>
      <trkpt lat="44.35085" lon="2.54121">
        <ele>516.3</ele>
        <time>2011-05-18T18:46:08Z</time>
      </trkpt>
      <trkpt lat="44.35089" lon="2.54118">
        <ele>516.5</ele>
        <time>2011-05-18T18:46:09Z</time>
      </trkpt>
      <trkpt lat="44.35093" lon="2.54115">
        <ele>516.7</ele>
        <time>2011-05-18T18:46:10Z</time>
      </trkpt>
      <trkpt lat="44.35098" lon="2.54111">
        <ele>517</ele>
        <time>2011-05-18T18:46:11Z</time>
      </trkpt>
      <trkpt lat="44.35102" lon="2.54108">
        <ele>517.1</ele>
        <time>2011-05-18T18:46:12Z</time>
      </trkpt>
      <trkpt lat="44.35106" lon="2.54105">
        <ele>517.3</ele>
        <time>2011-05-18T18:46:13Z</time>
      </trkpt>
      <trkpt lat="44.35109" lon="2.54101">
        <ele>517.4</ele>
        <time>2011-05-18T18:46:14Z</time>
      </trkpt>
      <trkpt lat="44.35113" lon="2.54097">
        <ele>517.5</ele>
        <time>2011-05-18T18:46:15Z</time>
      </trkpt>
      <trkpt lat="44.35118" lon="2.54093">
        <ele>517.5</ele>
        <time>2011-05-18T18:46:16Z</time>
      </trkpt>
      <trkpt lat="44.35122" lon="2.5409">
        <ele>517.3</ele>
        <time>2011-05-18T18:46:17Z</time>
      </trkpt>
      <trkpt lat="44.35126" lon="2.54086">
        <ele>517.2</ele>
        <time>2011-05-18T18:46:18Z</time>
      </trkpt>
      <trkpt lat="44.3513" lon="2.54083">
        <ele>517.2</ele>
        <time>2011-05-18T18:46:19Z</time>
      </trkpt>
      <trkpt lat="44.35133" lon="2.54079">
        <ele>517.1</ele>
        <time>2011-05-18T18:46:20Z</time>
      </trkpt>
      <trkpt lat="44.35137" lon="2.54075">
        <ele>517.1</ele>
        <time>2011-05-18T18:46:21Z</time>
      </trkpt>
      <trkpt lat="44.35142" lon="2.54072">
        <ele>516.8</ele>
        <time>2011-05-18T18:46:22Z</time>
      </trkpt>
      <trkpt lat="44.35146" lon="2.54069">
        <ele>516.4</ele>
        <time>2011-05-18T18:46:23Z</time>
      </trkpt>
      <trkpt lat="44.3515" lon="2.54066">
        <ele>516.1</ele>
        <time>2011-05-18T18:46:24Z</time>
      </trkpt>
      <trkpt lat="44.35154" lon="2.54063">
        <ele>515.6</ele>
        <time>2011-05-18T18:46:25Z</time>
      </trkpt>
      <trkpt lat="44.35159" lon="2.5406">
        <ele>515.1</ele>
        <time>2011-05-18T18:46:26Z</time>
      </trkpt>
      <trkpt lat="44.35163" lon="2.54057">
        <ele>514.5</ele>
        <time>2011-05-18T18:46:27Z</time>
      </trkpt>
      <trkpt lat="44.35168" lon="2.54054">
        <ele>514</ele>
        <time>2011-05-18T18:46:28Z</time>
      </trkpt>
      <trkpt lat="44.35172" lon="2.54051">
        <ele>513.9</ele>
        <time>2011-05-18T18:46:29Z</time>
      </trkpt>
      <trkpt lat="44.35176" lon="2.54047">
        <ele>513.8</ele>
        <time>2011-05-18T18:46:30Z</time>
      </trkpt>
      <trkpt lat="44.3518" lon="2.54042">
        <ele>513.7</ele>
        <time>2011-05-18T18:46:31Z</time>
      </trkpt>
      <trkpt lat="44.35184" lon="2.54038">
        <ele>513.6</ele>
        <time>2011-05-18T18:46:32Z</time>
      </trkpt>
      <trkpt lat="44.35187" lon="2.54034">
        <ele>513.4</ele>
        <time>2011-05-18T18:46:33Z</time>
      </trkpt>
      <trkpt lat="44.35191" lon="2.5403">
        <ele>513.2</ele>
        <time>2011-05-18T18:46:34Z</time>
      </trkpt>
      <trkpt lat="44.35195" lon="2.54026">
        <ele>513</ele>
        <time>2011-05-18T18:46:35Z</time>
      </trkpt>
      <trkpt lat="44.35199" lon="2.54022">
        <ele>512.8</ele>
        <time>2011-05-18T18:46:36Z</time>
      </trkpt>
      <trkpt lat="44.35202" lon="2.54018">
        <ele>512.5</ele>
        <time>2011-05-18T18:46:37Z</time>
      </trkpt>
      <trkpt lat="44.35206" lon="2.54013">
        <ele>512.2</ele>
        <time>2011-05-18T18:46:38Z</time>
      </trkpt>
      <trkpt lat="44.35209" lon="2.54008">
        <ele>511.9</ele>
        <time>2011-05-18T18:46:39Z</time>
      </trkpt>
      <trkpt lat="44.35213" lon="2.54003">
        <ele>511.6</ele>
        <time>2011-05-18T18:46:40Z</time>
      </trkpt>
      <trkpt lat="44.35216" lon="2.53998">
        <ele>511.5</ele>
        <time>2011-05-18T18:46:41Z</time>
      </trkpt>
      <trkpt lat="44.35219" lon="2.53994">
        <ele>511.6</ele>
        <time>2011-05-18T18:46:42Z</time>
      </trkpt>
      <trkpt lat="44.35223" lon="2.53989">
        <ele>511.8</ele>
        <time>2011-05-18T18:46:43Z</time>
      </trkpt>
      <trkpt lat="44.35226" lon="2.53984">
        <ele>511.9</ele>
        <time>2011-05-18T18:46:44Z</time>
      </trkpt>
      <trkpt lat="44.35229" lon="2.53979">
        <ele>511.9</ele>
        <time>2011-05-18T18:46:45Z</time>
      </trkpt>
      <trkpt lat="44.35232" lon="2.53974">
        <ele>511.7</ele>
        <time>2011-05-18T18:46:46Z</time>
      </trkpt>
      <trkpt lat="44.35235" lon="2.53969">
        <ele>511.6</ele>
        <time>2011-05-18T18:46:47Z</time>
      </trkpt>
      <trkpt lat="44.35238" lon="2.53964">
        <ele>511.4</ele>
        <time>2011-05-18T18:46:48Z</time>
      </trkpt>
      <trkpt lat="44.35241" lon="2.53959">
        <ele>511.2</ele>
        <time>2011-05-18T18:46:49Z</time>
      </trkpt>
      <trkpt lat="44.35244" lon="2.53954">
        <ele>510.8</ele>
        <time>2011-05-18T18:46:50Z</time>
      </trkpt>
      <trkpt lat="44.35248" lon="2.53949">
        <ele>510.4</ele>
        <time>2011-05-18T18:46:51Z</time>
      </trkpt>
      <trkpt lat="44.35251" lon="2.53943">
        <ele>510.1</ele>
        <time>2011-05-18T18:46:52Z</time>
      </trkpt>
      <trkpt lat="44.35254" lon="2.53938">
        <ele>510.3</ele>
        <time>2011-05-18T18:46:53Z</time>
      </trkpt>
      <trkpt lat="44.35257" lon="2.53934">
        <ele>510.5</ele>
        <time>2011-05-18T18:46:54Z</time>
      </trkpt>
      <trkpt lat="44.3526" lon="2.53929">
        <ele>510.7</ele>
        <time>2011-05-18T18:46:55Z</time>
      </trkpt>
      <trkpt lat="44.35263" lon="2.53924">
        <ele>510.8</ele>
        <time>2011-05-18T18:46:56Z</time>
      </trkpt>
      <trkpt lat="44.35267" lon="2.5392">
        <ele>510.9</ele>
        <time>2011-05-18T18:46:57Z</time>
      </trkpt>
      <trkpt lat="44.3527" lon="2.53915">
        <ele>511.2</ele>
        <time>2011-05-18T18:46:58Z</time>
      </trkpt>
      <trkpt lat="44.35274" lon="2.53911">
        <ele>512.2</ele>
        <time>2011-05-18T18:46:59Z</time>
      </trkpt>
      <trkpt lat="44.35277" lon="2.53907">
        <ele>512.8</ele>
        <time>2011-05-18T18:47:00Z</time>
      </trkpt>
      <trkpt lat="44.35281" lon="2.53902">
        <ele>513.4</ele>
        <time>2011-05-18T18:47:01Z</time>
      </trkpt>
      <trkpt lat="44.35285" lon="2.53898">
        <ele>514.1</ele>
        <time>2011-05-18T18:47:02Z</time>
      </trkpt>
      <trkpt lat="44.35289" lon="2.53894">
        <ele>514.6</ele>
        <time>2011-05-18T18:47:03Z</time>
      </trkpt>
      <trkpt lat="44.35293" lon="2.53891">
        <ele>514.9</ele>
        <time>2011-05-18T18:47:04Z</time>
      </trkpt>
      <trkpt lat="44.35297" lon="2.53887">
        <ele>515.2</ele>
        <time>2011-05-18T18:47:05Z</time>
      </trkpt>
      <trkpt lat="44.35301" lon="2.53884">
        <ele>515.6</ele>
        <time>2011-05-18T18:47:06Z</time>
      </trkpt>
      <trkpt lat="44.35305" lon="2.5388">
        <ele>515.9</ele>
        <time>2011-05-18T18:47:07Z</time>
      </trkpt>
      <trkpt lat="44.35309" lon="2.53876">
        <ele>515.9</ele>
        <time>2011-05-18T18:47:08Z</time>
      </trkpt>
      <trkpt lat="44.35313" lon="2.53873">
        <ele>516.1</ele>
        <time>2011-05-18T18:47:09Z</time>
      </trkpt>
      <trkpt lat="44.35317" lon="2.5387">
        <ele>516.1</ele>
        <time>2011-05-18T18:47:10Z</time>
      </trkpt>
      <trkpt lat="44.35322" lon="2.53867">
        <ele>516.2</ele>
        <time>2011-05-18T18:47:11Z</time>
      </trkpt>
      <trkpt lat="44.35326" lon="2.53864">
        <ele>516.1</ele>
        <time>2011-05-18T18:47:12Z</time>
      </trkpt>
      <trkpt lat="44.3533" lon="2.53861">
        <ele>516</ele>
        <time>2011-05-18T18:47:13Z</time>
      </trkpt>
      <trkpt lat="44.35334" lon="2.53858">
        <ele>515.9</ele>
        <time>2011-05-18T18:47:14Z</time>
      </trkpt>
      <trkpt lat="44.35338" lon="2.53855">
        <ele>516.2</ele>
        <time>2011-05-18T18:47:15Z</time>
      </trkpt>
      <trkpt lat="44.35343" lon="2.53852">
        <ele>516.5</ele>
        <time>2011-05-18T18:47:16Z</time>
      </trkpt>
      <trkpt lat="44.35347" lon="2.5385">
        <ele>516.6</ele>
        <time>2011-05-18T18:47:17Z</time>
      </trkpt>
      <trkpt lat="44.35351" lon="2.53847">
        <ele>516.8</ele>
        <time>2011-05-18T18:47:18Z</time>
      </trkpt>
      <trkpt lat="44.35355" lon="2.53844">
        <ele>517</ele>
        <time>2011-05-18T18:47:19Z</time>
      </trkpt>
      <trkpt lat="44.3536" lon="2.53841">
        <ele>517.2</ele>
        <time>2011-05-18T18:47:20Z</time>
      </trkpt>
      <trkpt lat="44.35364" lon="2.53838">
        <ele>517.4</ele>
        <time>2011-05-18T18:47:21Z</time>
      </trkpt>
      <trkpt lat="44.35368" lon="2.53835">
        <ele>517.5</ele>
        <time>2011-05-18T18:47:22Z</time>
      </trkpt>
      <trkpt lat="44.35373" lon="2.53832">
        <ele>518.3</ele>
        <time>2011-05-18T18:47:23Z</time>
      </trkpt>
      <trkpt lat="44.35377" lon="2.53829">
        <ele>518.9</ele>
        <time>2011-05-18T18:47:24Z</time>
      </trkpt>
      <trkpt lat="44.35381" lon="2.53826">
        <ele>519.6</ele>
        <time>2011-05-18T18:47:25Z</time>
      </trkpt>
      <trkpt lat="44.35386" lon="2.53823">
        <ele>520.3</ele>
        <time>2011-05-18T18:47:26Z</time>
      </trkpt>
      <trkpt lat="44.3539" lon="2.5382">
        <ele>520.9</ele>
        <time>2011-05-18T18:47:27Z</time>
      </trkpt>
      <trkpt lat="44.35394" lon="2.53817">
        <ele>521.9</ele>
        <time>2011-05-18T18:47:28Z</time>
      </trkpt>
      <trkpt lat="44.35399" lon="2.53815">
        <ele>522.5</ele>
        <time>2011-05-18T18:47:29Z</time>
      </trkpt>
      <trkpt lat="44.35403" lon="2.53812">
        <ele>523.1</ele>
        <time>2011-05-18T18:47:30Z</time>
      </trkpt>
      <trkpt lat="44.35407" lon="2.5381">
        <ele>523.7</ele>
        <time>2011-05-18T18:47:31Z</time>
      </trkpt>
      <trkpt lat="44.35411" lon="2.53807">
        <ele>524.4</ele>
        <time>2011-05-18T18:47:32Z</time>
      </trkpt>
      <trkpt lat="44.35415" lon="2.53804">
        <ele>524.9</ele>
        <time>2011-05-18T18:47:33Z</time>
      </trkpt>
      <trkpt lat="44.35419" lon="2.53802">
        <ele>525.7</ele>
        <time>2011-05-18T18:47:34Z</time>
      </trkpt>
      <trkpt lat="44.35423" lon="2.53799">
        <ele>526.7</ele>
        <time>2011-05-18T18:47:35Z</time>
      </trkpt>
      <trkpt lat="44.35427" lon="2.53797">
        <ele>527.3</ele>
        <time>2011-05-18T18:47:36Z</time>
      </trkpt>
      <trkpt lat="44.35431" lon="2.53794">
        <ele>528.2</ele>
        <time>2011-05-18T18:47:37Z</time>
      </trkpt>
      <trkpt lat="44.35435" lon="2.53792">
        <ele>529.2</ele>
        <time>2011-05-18T18:47:38Z</time>
      </trkpt>
      <trkpt lat="44.35439" lon="2.5379">
        <ele>530.3</ele>
        <time>2011-05-18T18:47:39Z</time>
      </trkpt>
      <trkpt lat="44.35444" lon="2.53787">
        <ele>531.3</ele>
        <time>2011-05-18T18:47:40Z</time>
      </trkpt>
      <trkpt lat="44.35448" lon="2.53785">
        <ele>532</ele>
        <time>2011-05-18T18:47:41Z</time>
      </trkpt>
      <trkpt lat="44.35452" lon="2.53783">
        <ele>533</ele>
        <time>2011-05-18T18:47:42Z</time>
      </trkpt>
      <trkpt lat="44.35456" lon="2.53781">
        <ele>534.1</ele>
        <time>2011-05-18T18:47:43Z</time>
      </trkpt>
      <trkpt lat="44.3546" lon="2.53779">
        <ele>534.9</ele>
        <time>2011-05-18T18:47:44Z</time>
      </trkpt>
      <trkpt lat="44.35464" lon="2.53777">
        <ele>536</ele>
        <time>2011-05-18T18:47:45Z</time>
      </trkpt>
      <trkpt lat="44.35468" lon="2.53776">
        <ele>536.7</ele>
        <time>2011-05-18T18:47:46Z</time>
      </trkpt>
      <trkpt lat="44.35472" lon="2.53775">
        <ele>537.1</ele>
        <time>2011-05-18T18:47:47Z</time>
      </trkpt>
      <trkpt lat="44.35477" lon="2.53774">
        <ele>537.9</ele>
        <time>2011-05-18T18:47:48Z</time>
      </trkpt>
      <trkpt lat="44.35482" lon="2.53774">
        <ele>538.3</ele>
        <time>2011-05-18T18:47:49Z</time>
      </trkpt>
      <trkpt lat="44.35486" lon="2.53774">
        <ele>538.7</ele>
        <time>2011-05-18T18:47:50Z</time>
      </trkpt>
      <trkpt lat="44.35491" lon="2.53774">
        <ele>539.1</ele>
        <time>2011-05-18T18:47:51Z</time>
      </trkpt>
      <trkpt lat="44.35496" lon="2.53775">
        <ele>539.5</ele>
        <time>2011-05-18T18:47:52Z</time>
      </trkpt>
      <trkpt lat="44.355" lon="2.53775">
        <ele>539.4</ele>
        <time>2011-05-18T18:47:53Z</time>
      </trkpt>
      <trkpt lat="44.35505" lon="2.53776">
        <ele>539.7</ele>
        <time>2011-05-18T18:47:54Z</time>
      </trkpt>
      <trkpt lat="44.3551" lon="2.53777">
        <ele>540.4</ele>
        <time>2011-05-18T18:47:55Z</time>
      </trkpt>
      <trkpt lat="44.35514" lon="2.53778">
        <ele>540.7</ele>
        <time>2011-05-18T18:47:56Z</time>
      </trkpt>
      <trkpt lat="44.35519" lon="2.53779">
        <ele>541</ele>
        <time>2011-05-18T18:47:57Z</time>
      </trkpt>
      <trkpt lat="44.35523" lon="2.5378">
        <ele>541.3</ele>
        <time>2011-05-18T18:47:58Z</time>
      </trkpt>
      <trkpt lat="44.35528" lon="2.53782">
        <ele>541.6</ele>
        <time>2011-05-18T18:47:59Z</time>
      </trkpt>
      <trkpt lat="44.35532" lon="2.53783">
        <ele>541.9</ele>
        <time>2011-05-18T18:48:00Z</time>
      </trkpt>
      <trkpt lat="44.35537" lon="2.53785">
        <ele>541.9</ele>
        <time>2011-05-18T18:48:01Z</time>
      </trkpt>
      <trkpt lat="44.35542" lon="2.53788">
        <ele>542.3</ele>
        <time>2011-05-18T18:48:02Z</time>
      </trkpt>
      <trkpt lat="44.35546" lon="2.5379">
        <ele>542.3</ele>
        <time>2011-05-18T18:48:03Z</time>
      </trkpt>
      <trkpt lat="44.3555" lon="2.53793">
        <ele>541.9</ele>
        <time>2011-05-18T18:48:04Z</time>
      </trkpt>
      <trkpt lat="44.35555" lon="2.53796">
        <ele>541.9</ele>
        <time>2011-05-18T18:48:05Z</time>
      </trkpt>
      <trkpt lat="44.35559" lon="2.53799">
        <ele>542</ele>
        <time>2011-05-18T18:48:06Z</time>
      </trkpt>
      <trkpt lat="44.35563" lon="2.53802">
        <ele>541.7</ele>
        <time>2011-05-18T18:48:07Z</time>
      </trkpt>
      <trkpt lat="44.35567" lon="2.53805">
        <ele>541.7</ele>
        <time>2011-05-18T18:48:08Z</time>
      </trkpt>
      <trkpt lat="44.35571" lon="2.53808">
        <ele>541.8</ele>
        <time>2011-05-18T18:48:09Z</time>
      </trkpt>
      <trkpt lat="44.35575" lon="2.53811">
        <ele>541.9</ele>
        <time>2011-05-18T18:48:10Z</time>
      </trkpt>
      <trkpt lat="44.35578" lon="2.53814">
        <ele>541.6</ele>
        <time>2011-05-18T18:48:11Z</time>
      </trkpt>
      <trkpt lat="44.35582" lon="2.53817">
        <ele>541.7</ele>
        <time>2011-05-18T18:48:12Z</time>
      </trkpt>
      <trkpt lat="44.35585" lon="2.5382">
        <ele>541.6</ele>
        <time>2011-05-18T18:48:13Z</time>
      </trkpt>
      <trkpt lat="44.35589" lon="2.53824">
        <ele>542</ele>
        <time>2011-05-18T18:48:14Z</time>
      </trkpt>
      <trkpt lat="44.35592" lon="2.53828">
        <ele>542</ele>
        <time>2011-05-18T18:48:15Z</time>
      </trkpt>
      <trkpt lat="44.35596" lon="2.53831">
        <ele>542.1</ele>
        <time>2011-05-18T18:48:16Z</time>
      </trkpt>
      <trkpt lat="44.35599" lon="2.53835">
        <ele>542.3</ele>
        <time>2011-05-18T18:48:17Z</time>
      </trkpt>
      <trkpt lat="44.35602" lon="2.53838">
        <ele>542.8</ele>
        <time>2011-05-18T18:48:18Z</time>
      </trkpt>
      <trkpt lat="44.35606" lon="2.53841">
        <ele>543</ele>
        <time>2011-05-18T18:48:19Z</time>
      </trkpt>
      <trkpt lat="44.35609" lon="2.53845">
        <ele>543.5</ele>
        <time>2011-05-18T18:48:20Z</time>
      </trkpt>
      <trkpt lat="44.35612" lon="2.53848">
        <ele>543.7</ele>
        <time>2011-05-18T18:48:21Z</time>
      </trkpt>
      <trkpt lat="44.35615" lon="2.53852">
        <ele>543.9</ele>
        <time>2011-05-18T18:48:22Z</time>
      </trkpt>
      <trkpt lat="44.35618" lon="2.53855">
        <ele>544.1</ele>
        <time>2011-05-18T18:48:23Z</time>
      </trkpt>
      <trkpt lat="44.35621" lon="2.53859">
        <ele>544.7</ele>
        <time>2011-05-18T18:48:24Z</time>
      </trkpt>
      <trkpt lat="44.35625" lon="2.53863">
        <ele>545</ele>
        <time>2011-05-18T18:48:25Z</time>
      </trkpt>
      <trkpt lat="44.35628" lon="2.53866">
        <ele>545.3</ele>
        <time>2011-05-18T18:48:26Z</time>
      </trkpt>
      <trkpt lat="44.35632" lon="2.53869">
        <ele>545.9</ele>
        <time>2011-05-18T18:48:27Z</time>
      </trkpt>
      <trkpt lat="44.35636" lon="2.53873">
        <ele>546.2</ele>
        <time>2011-05-18T18:48:28Z</time>
      </trkpt>
      <trkpt lat="44.35639" lon="2.53876">
        <ele>546.6</ele>
        <time>2011-05-18T18:48:29Z</time>
      </trkpt>
      <trkpt lat="44.35643" lon="2.5388">
        <ele>547.1</ele>
        <time>2011-05-18T18:48:30Z</time>
      </trkpt>
      <trkpt lat="44.35647" lon="2.53884">
        <ele>547.4</ele>
        <time>2011-05-18T18:48:31Z</time>
      </trkpt>
      <trkpt lat="44.3565" lon="2.53888">
        <ele>547.8</ele>
        <time>2011-05-18T18:48:32Z</time>
      </trkpt>
      <trkpt lat="44.35654" lon="2.53891">
        <ele>548</ele>
        <time>2011-05-18T18:48:33Z</time>
      </trkpt>
      <trkpt lat="44.35657" lon="2.53895">
        <ele>548.3</ele>
        <time>2011-05-18T18:48:34Z</time>
      </trkpt>
      <trkpt lat="44.35661" lon="2.53899">
        <ele>548.6</ele>
        <time>2011-05-18T18:48:35Z</time>
      </trkpt>
      <trkpt lat="44.35664" lon="2.53902">
        <ele>549.1</ele>
        <time>2011-05-18T18:48:36Z</time>
      </trkpt>
      <trkpt lat="44.35667" lon="2.53906">
        <ele>549.2</ele>
        <time>2011-05-18T18:48:37Z</time>
      </trkpt>
      <trkpt lat="44.35671" lon="2.53909">
        <ele>549.1</ele>
        <time>2011-05-18T18:48:38Z</time>
      </trkpt>
      <trkpt lat="44.35674" lon="2.53913">
        <ele>548.8</ele>
        <time>2011-05-18T18:48:39Z</time>
      </trkpt>
      <trkpt lat="44.35677" lon="2.53917">
        <ele>548.5</ele>
        <time>2011-05-18T18:48:40Z</time>
      </trkpt>
      <trkpt lat="44.35679" lon="2.53921">
        <ele>548.3</ele>
        <time>2011-05-18T18:48:41Z</time>
      </trkpt>
      <trkpt lat="44.35682" lon="2.53925">
        <ele>548.1</ele>
        <time>2011-05-18T18:48:42Z</time>
      </trkpt>
      <trkpt lat="44.35685" lon="2.53929">
        <ele>547.9</ele>
        <time>2011-05-18T18:48:43Z</time>
      </trkpt>
      <trkpt lat="44.35688" lon="2.53933">
        <ele>547.7</ele>
        <time>2011-05-18T18:48:44Z</time>
      </trkpt>
      <trkpt lat="44.3569" lon="2.53938">
        <ele>547.3</ele>
        <time>2011-05-18T18:48:45Z</time>
      </trkpt>
      <trkpt lat="44.35693" lon="2.53943">
        <ele>546.8</ele>
        <time>2011-05-18T18:48:46Z</time>
      </trkpt>
      <trkpt lat="44.35695" lon="2.53948">
        <ele>546.3</ele>
        <time>2011-05-18T18:48:47Z</time>
      </trkpt>
      <trkpt lat="44.35698" lon="2.53952">
        <ele>546.2</ele>
        <time>2011-05-18T18:48:48Z</time>
      </trkpt>
      <trkpt lat="44.35701" lon="2.53956">
        <ele>546</ele>
        <time>2011-05-18T18:48:49Z</time>
      </trkpt>
      <trkpt lat="44.35704" lon="2.5396">
        <ele>545.7</ele>
        <time>2011-05-18T18:48:50Z</time>
      </trkpt>
      <trkpt lat="44.35706" lon="2.53965">
        <ele>545.3</ele>
        <time>2011-05-18T18:48:51Z</time>
      </trkpt>
      <trkpt lat="44.35708" lon="2.53969">
        <ele>545.1</ele>
        <time>2011-05-18T18:48:52Z</time>
      </trkpt>
      <trkpt lat="44.35711" lon="2.53973">
        <ele>544.9</ele>
        <time>2011-05-18T18:48:53Z</time>
      </trkpt>
      <trkpt lat="44.35714" lon="2.53977">
        <ele>544.7</ele>
        <time>2011-05-18T18:48:54Z</time>
      </trkpt>
      <trkpt lat="44.35716" lon="2.53983">
        <ele>544.2</ele>
        <time>2011-05-18T18:48:55Z</time>
      </trkpt>
      <trkpt lat="44.35719" lon="2.53988">
        <ele>543.8</ele>
        <time>2011-05-18T18:48:56Z</time>
      </trkpt>
      <trkpt lat="44.35722" lon="2.53992">
        <ele>543.5</ele>
        <time>2011-05-18T18:48:57Z</time>
      </trkpt>
      <trkpt lat="44.35725" lon="2.53997">
        <ele>543.2</ele>
        <time>2011-05-18T18:48:58Z</time>
      </trkpt>
      <trkpt lat="44.35728" lon="2.54003">
        <ele>542.7</ele>
        <time>2011-05-18T18:48:59Z</time>
      </trkpt>
      <trkpt lat="44.35731" lon="2.54008">
        <ele>542</ele>
        <time>2011-05-18T18:49:00Z</time>
      </trkpt>
      <trkpt lat="44.35734" lon="2.54013">
        <ele>541.3</ele>
        <time>2011-05-18T18:49:01Z</time>
      </trkpt>
      <trkpt lat="44.35737" lon="2.54019">
        <ele>540.6</ele>
        <time>2011-05-18T18:49:02Z</time>
      </trkpt>
      <trkpt lat="44.3574" lon="2.54024">
        <ele>539.8</ele>
        <time>2011-05-18T18:49:03Z</time>
      </trkpt>
      <trkpt lat="44.35742" lon="2.5403">
        <ele>539</ele>
        <time>2011-05-18T18:49:04Z</time>
      </trkpt>
      <trkpt lat="44.35745" lon="2.54035">
        <ele>537.9</ele>
        <time>2011-05-18T18:49:05Z</time>
      </trkpt>
      <trkpt lat="44.35748" lon="2.54041">
        <ele>537</ele>
        <time>2011-05-18T18:49:06Z</time>
      </trkpt>
      <trkpt lat="44.35751" lon="2.54047">
        <ele>535.7</ele>
        <time>2011-05-18T18:49:07Z</time>
      </trkpt>
      <trkpt lat="44.35754" lon="2.54053">
        <ele>534.4</ele>
        <time>2011-05-18T18:49:08Z</time>
      </trkpt>
      <trkpt lat="44.35757" lon="2.54059">
        <ele>532.9</ele>
        <time>2011-05-18T18:49:09Z</time>
      </trkpt>
      <trkpt lat="44.3576" lon="2.54064">
        <ele>531.7</ele>
        <time>2011-05-18T18:49:10Z</time>
      </trkpt>
      <trkpt lat="44.35764" lon="2.5407">
        <ele>530.6</ele>
        <time>2011-05-18T18:49:11Z</time>
      </trkpt>
      <trkpt lat="44.35767" lon="2.54075">
        <ele>529.6</ele>
        <time>2011-05-18T18:49:12Z</time>
      </trkpt>
      <trkpt lat="44.3577" lon="2.5408">
        <ele>528.5</ele>
        <time>2011-05-18T18:49:13Z</time>
      </trkpt>
      <trkpt lat="44.35773" lon="2.54085">
        <ele>527.8</ele>
        <time>2011-05-18T18:49:14Z</time>
      </trkpt>
      <trkpt lat="44.35776" lon="2.5409">
        <ele>528</ele>
        <time>2011-05-18T18:49:15Z</time>
      </trkpt>
      <trkpt lat="44.35779" lon="2.54095">
        <ele>528.2</ele>
        <time>2011-05-18T18:49:16Z</time>
      </trkpt>
      <trkpt lat="44.35782" lon="2.541">
        <ele>528.5</ele>
        <time>2011-05-18T18:49:17Z</time>
      </trkpt>
      <trkpt lat="44.35785" lon="2.54105">
        <ele>528.9</ele>
        <time>2011-05-18T18:49:18Z</time>
      </trkpt>
      <trkpt lat="44.35787" lon="2.54111">
        <ele>529.4</ele>
        <time>2011-05-18T18:49:19Z</time>
      </trkpt>
      <trkpt lat="44.3579" lon="2.54117">
        <ele>529.8</ele>
        <time>2011-05-18T18:49:20Z</time>
      </trkpt>
      <trkpt lat="44.35792" lon="2.54122">
        <ele>530.4</ele>
        <time>2011-05-18T18:49:21Z</time>
      </trkpt>
      <trkpt lat="44.35793" lon="2.54128">
        <ele>530.9</ele>
        <time>2011-05-18T18:49:22Z</time>
      </trkpt>
      <trkpt lat="44.35795" lon="2.54134">
        <ele>531.4</ele>
        <time>2011-05-18T18:49:23Z</time>
      </trkpt>
      <trkpt lat="44.35795" lon="2.54141">
        <ele>531.9</ele>
        <time>2011-05-18T18:49:24Z</time>
      </trkpt>
      <trkpt lat="44.35796" lon="2.54148">
        <ele>532.4</ele>
        <time>2011-05-18T18:49:25Z</time>
      </trkpt>
      <trkpt lat="44.35796" lon="2.54154">
        <ele>532.9</ele>
        <time>2011-05-18T18:49:26Z</time>
      </trkpt>
      <trkpt lat="44.35797" lon="2.54161">
        <ele>533.4</ele>
        <time>2011-05-18T18:49:27Z</time>
      </trkpt>
      <trkpt lat="44.35797" lon="2.54168">
        <ele>533.9</ele>
        <time>2011-05-18T18:49:28Z</time>
      </trkpt>
      <trkpt lat="44.35798" lon="2.54175">
        <ele>534.4</ele>
        <time>2011-05-18T18:49:29Z</time>
      </trkpt>
      <trkpt lat="44.35799" lon="2.54182">
        <ele>534.9</ele>
        <time>2011-05-18T18:49:30Z</time>
      </trkpt>
      <trkpt lat="44.358" lon="2.54189">
        <ele>535.6</ele>
        <time>2011-05-18T18:49:31Z</time>
      </trkpt>
      <trkpt lat="44.35802" lon="2.54196">
        <ele>536.4</ele>
        <time>2011-05-18T18:49:32Z</time>
      </trkpt>
      <trkpt lat="44.35803" lon="2.54203">
        <ele>537.3</ele>
        <time>2011-05-18T18:49:33Z</time>
      </trkpt>
      <trkpt lat="44.35805" lon="2.5421">
        <ele>538.2</ele>
        <time>2011-05-18T18:49:34Z</time>
      </trkpt>
      <trkpt lat="44.35807" lon="2.54217">
        <ele>539</ele>
        <time>2011-05-18T18:49:35Z</time>
      </trkpt>
      <trkpt lat="44.35809" lon="2.54224">
        <ele>540</ele>
        <time>2011-05-18T18:49:36Z</time>
      </trkpt>
      <trkpt lat="44.35811" lon="2.54231">
        <ele>541</ele>
        <time>2011-05-18T18:49:37Z</time>
      </trkpt>
      <trkpt lat="44.35813" lon="2.54238">
        <ele>542.1</ele>
        <time>2011-05-18T18:49:38Z</time>
      </trkpt>
      <trkpt lat="44.35815" lon="2.54245">
        <ele>543.2</ele>
        <time>2011-05-18T18:49:39Z</time>
      </trkpt>
      <trkpt lat="44.35817" lon="2.54252">
        <ele>544.2</ele>
        <time>2011-05-18T18:49:40Z</time>
      </trkpt>
      <trkpt lat="44.35819" lon="2.54258">
        <ele>544.8</ele>
        <time>2011-05-18T18:49:41Z</time>
      </trkpt>
      <trkpt lat="44.35821" lon="2.54264">
        <ele>545.4</ele>
        <time>2011-05-18T18:49:42Z</time>
      </trkpt>
      <trkpt lat="44.35823" lon="2.5427">
        <ele>546.2</ele>
        <time>2011-05-18T18:49:43Z</time>
      </trkpt>
      <trkpt lat="44.35825" lon="2.54277">
        <ele>546.8</ele>
        <time>2011-05-18T18:49:44Z</time>
      </trkpt>
      <trkpt lat="44.35827" lon="2.54284">
        <ele>547.4</ele>
        <time>2011-05-18T18:49:45Z</time>
      </trkpt>
      <trkpt lat="44.35829" lon="2.5429">
        <ele>547.8</ele>
        <time>2011-05-18T18:49:46Z</time>
      </trkpt>
      <trkpt lat="44.3583" lon="2.54297">
        <ele>548.4</ele>
        <time>2011-05-18T18:49:47Z</time>
      </trkpt>
      <trkpt lat="44.35832" lon="2.54303">
        <ele>549</ele>
        <time>2011-05-18T18:49:48Z</time>
      </trkpt>
      <trkpt lat="44.35834" lon="2.5431">
        <ele>549.3</ele>
        <time>2011-05-18T18:49:49Z</time>
      </trkpt>
      <trkpt lat="44.35835" lon="2.54316">
        <ele>549.6</ele>
        <time>2011-05-18T18:49:50Z</time>
      </trkpt>
      <trkpt lat="44.35837" lon="2.54322">
        <ele>549.9</ele>
        <time>2011-05-18T18:49:51Z</time>
      </trkpt>
      <trkpt lat="44.35838" lon="2.54327">
        <ele>550.2</ele>
        <time>2011-05-18T18:49:52Z</time>
      </trkpt>
      <trkpt lat="44.3584" lon="2.54333">
        <ele>550.4</ele>
        <time>2011-05-18T18:49:53Z</time>
      </trkpt>
      <trkpt lat="44.35841" lon="2.54339">
        <ele>550.3</ele>
        <time>2011-05-18T18:49:54Z</time>
      </trkpt>
      <trkpt lat="44.35843" lon="2.54345">
        <ele>550.2</ele>
        <time>2011-05-18T18:49:55Z</time>
      </trkpt>
      <trkpt lat="44.35844" lon="2.54351">
        <ele>550.2</ele>
        <time>2011-05-18T18:49:56Z</time>
      </trkpt>
      <trkpt lat="44.35845" lon="2.54357">
        <ele>550.2</ele>
        <time>2011-05-18T18:49:57Z</time>
      </trkpt>
      <trkpt lat="44.35847" lon="2.54363">
        <ele>550.1</ele>
        <time>2011-05-18T18:49:58Z</time>
      </trkpt>
      <trkpt lat="44.35848" lon="2.54369">
        <ele>550.1</ele>
        <time>2011-05-18T18:49:59Z</time>
      </trkpt>
      <trkpt lat="44.35849" lon="2.54375">
        <ele>550.1</ele>
        <time>2011-05-18T18:50:00Z</time>
      </trkpt>
      <trkpt lat="44.35851" lon="2.54381">
        <ele>550.1</ele>
        <time>2011-05-18T18:50:01Z</time>
      </trkpt>
      <trkpt lat="44.35852" lon="2.54387">
        <ele>550.1</ele>
        <time>2011-05-18T18:50:02Z</time>
      </trkpt>
      <trkpt lat="44.35853" lon="2.54393">
        <ele>550.2</ele>
        <time>2011-05-18T18:50:03Z</time>
      </trkpt>
      <trkpt lat="44.35855" lon="2.54399">
        <ele>550.2</ele>
        <time>2011-05-18T18:50:04Z</time>
      </trkpt>
      <trkpt lat="44.35856" lon="2.54405">
        <ele>550.3</ele>
        <time>2011-05-18T18:50:05Z</time>
      </trkpt>
      <trkpt lat="44.35858" lon="2.54411">
        <ele>550.4</ele>
        <time>2011-05-18T18:50:06Z</time>
      </trkpt>
      <trkpt lat="44.35859" lon="2.54417">
        <ele>550.5</ele>
        <time>2011-05-18T18:50:07Z</time>
      </trkpt>
      <trkpt lat="44.35861" lon="2.54423">
        <ele>550.7</ele>
        <time>2011-05-18T18:50:08Z</time>
      </trkpt>
      <trkpt lat="44.35862" lon="2.54429">
        <ele>550.7</ele>
        <time>2011-05-18T18:50:09Z</time>
      </trkpt>
      <trkpt lat="44.35863" lon="2.54435">
        <ele>550.8</ele>
        <time>2011-05-18T18:50:10Z</time>
      </trkpt>
      <trkpt lat="44.35864" lon="2.54442">
        <ele>551</ele>
        <time>2011-05-18T18:50:11Z</time>
      </trkpt>
      <trkpt lat="44.35865" lon="2.54448">
        <ele>551</ele>
        <time>2011-05-18T18:50:12Z</time>
      </trkpt>
      <trkpt lat="44.35866" lon="2.54454">
        <ele>551.2</ele>
        <time>2011-05-18T18:50:13Z</time>
      </trkpt>
      <trkpt lat="44.35867" lon="2.5446">
        <ele>551.3</ele>
        <time>2011-05-18T18:50:14Z</time>
      </trkpt>
      <trkpt lat="44.35868" lon="2.54467">
        <ele>551.3</ele>
        <time>2011-05-18T18:50:15Z</time>
      </trkpt>
      <trkpt lat="44.35869" lon="2.54473">
        <ele>551.4</ele>
        <time>2011-05-18T18:50:16Z</time>
      </trkpt>
      <trkpt lat="44.3587" lon="2.54479">
        <ele>551.3</ele>
        <time>2011-05-18T18:50:17Z</time>
      </trkpt>
      <trkpt lat="44.3587" lon="2.54486">
        <ele>551.3</ele>
        <time>2011-05-18T18:50:18Z</time>
      </trkpt>
      <trkpt lat="44.35871" lon="2.54492">
        <ele>551.5</ele>
        <time>2011-05-18T18:50:19Z</time>
      </trkpt>
      <trkpt lat="44.35872" lon="2.54499">
        <ele>551.3</ele>
        <time>2011-05-18T18:50:20Z</time>
      </trkpt>
      <trkpt lat="44.35872" lon="2.54505">
        <ele>551.4</ele>
        <time>2011-05-18T18:50:21Z</time>
      </trkpt>
      <trkpt lat="44.35872" lon="2.54511">
        <ele>551.5</ele>
        <time>2011-05-18T18:50:22Z</time>
      </trkpt>
      <trkpt lat="44.35872" lon="2.54518">
        <ele>551.8</ele>
        <time>2011-05-18T18:50:23Z</time>
      </trkpt>
      <trkpt lat="44.35872" lon="2.54524">
        <ele>551.9</ele>
        <time>2011-05-18T18:50:24Z</time>
      </trkpt>
      <trkpt lat="44.35872" lon="2.5453">
        <ele>551.9</ele>
        <time>2011-05-18T18:50:25Z</time>
      </trkpt>
      <trkpt lat="44.35872" lon="2.54536">
        <ele>551.9</ele>
        <time>2011-05-18T18:50:26Z</time>
      </trkpt>
      <trkpt lat="44.35871" lon="2.54543">
        <ele>552</ele>
        <time>2011-05-18T18:50:27Z</time>
      </trkpt>
      <trkpt lat="44.35871" lon="2.54549">
        <ele>551.9</ele>
        <time>2011-05-18T18:50:28Z</time>
      </trkpt>
      <trkpt lat="44.3587" lon="2.54556">
        <ele>551.7</ele>
        <time>2011-05-18T18:50:29Z</time>
      </trkpt>
      <trkpt lat="44.35869" lon="2.54562">
        <ele>551.6</ele>
        <time>2011-05-18T18:50:30Z</time>
      </trkpt>
      <trkpt lat="44.35869" lon="2.54568">
        <ele>551.4</ele>
        <time>2011-05-18T18:50:31Z</time>
      </trkpt>
      <trkpt lat="44.35868" lon="2.54575">
        <ele>551.3</ele>
        <time>2011-05-18T18:50:32Z</time>
      </trkpt>
      <trkpt lat="44.35867" lon="2.54581">
        <ele>551</ele>
        <time>2011-05-18T18:50:33Z</time>
      </trkpt>
      <trkpt lat="44.35866" lon="2.54587">
        <ele>550.6</ele>
        <time>2011-05-18T18:50:34Z</time>
      </trkpt>
      <trkpt lat="44.35864" lon="2.54593">
        <ele>550</ele>
        <time>2011-05-18T18:50:35Z</time>
      </trkpt>
      <trkpt lat="44.35863" lon="2.54599">
        <ele>549.4</ele>
        <time>2011-05-18T18:50:36Z</time>
      </trkpt>
      <trkpt lat="44.35862" lon="2.54605">
        <ele>548.9</ele>
        <time>2011-05-18T18:50:37Z</time>
      </trkpt>
      <trkpt lat="44.3586" lon="2.54612">
        <ele>548.4</ele>
        <time>2011-05-18T18:50:38Z</time>
      </trkpt>
      <trkpt lat="44.35859" lon="2.54618">
        <ele>547.8</ele>
        <time>2011-05-18T18:50:39Z</time>
      </trkpt>
      <trkpt lat="44.35857" lon="2.54624">
        <ele>547.3</ele>
        <time>2011-05-18T18:50:40Z</time>
      </trkpt>
      <trkpt lat="44.35855" lon="2.5463">
        <ele>546.8</ele>
        <time>2011-05-18T18:50:41Z</time>
      </trkpt>
      <trkpt lat="44.35854" lon="2.54636">
        <ele>546.2</ele>
        <time>2011-05-18T18:50:42Z</time>
      </trkpt>
      <trkpt lat="44.35852" lon="2.54641">
        <ele>545.7</ele>
        <time>2011-05-18T18:50:43Z</time>
      </trkpt>
      <trkpt lat="44.3585" lon="2.54647">
        <ele>545.1</ele>
        <time>2011-05-18T18:50:44Z</time>
      </trkpt>
      <trkpt lat="44.35848" lon="2.54653">
        <ele>544.6</ele>
        <time>2011-05-18T18:50:45Z</time>
      </trkpt>
      <trkpt lat="44.35846" lon="2.54659">
        <ele>544.1</ele>
        <time>2011-05-18T18:50:46Z</time>
      </trkpt>
      <trkpt lat="44.35843" lon="2.54664">
        <ele>543.5</ele>
        <time>2011-05-18T18:50:47Z</time>
      </trkpt>
      <trkpt lat="44.35841" lon="2.5467">
        <ele>543</ele>
        <time>2011-05-18T18:50:48Z</time>
      </trkpt>
      <trkpt lat="44.35838" lon="2.54675">
        <ele>542.9</ele>
        <time>2011-05-18T18:50:49Z</time>
      </trkpt>
      <trkpt lat="44.35836" lon="2.54681">
        <ele>542.6</ele>
        <time>2011-05-18T18:50:50Z</time>
      </trkpt>
      <trkpt lat="44.35833" lon="2.54686">
        <ele>542.5</ele>
        <time>2011-05-18T18:50:51Z</time>
      </trkpt>
      <trkpt lat="44.35831" lon="2.54692">
        <ele>542.3</ele>
        <time>2011-05-18T18:50:52Z</time>
      </trkpt>
      <trkpt lat="44.35828" lon="2.54698">
        <ele>541.9</ele>
        <time>2011-05-18T18:50:53Z</time>
      </trkpt>
      <trkpt lat="44.35825" lon="2.54704">
        <ele>541.5</ele>
        <time>2011-05-18T18:50:54Z</time>
      </trkpt>
      <trkpt lat="44.35822" lon="2.5471">
        <ele>541.2</ele>
        <time>2011-05-18T18:50:55Z</time>
      </trkpt>
      <trkpt lat="44.35819" lon="2.54716">
        <ele>540.8</ele>
        <time>2011-05-18T18:50:56Z</time>
      </trkpt>
      <trkpt lat="44.35816" lon="2.54722">
        <ele>540.5</ele>
        <time>2011-05-18T18:50:57Z</time>
      </trkpt>
      <trkpt lat="44.35813" lon="2.54728">
        <ele>540</ele>
        <time>2011-05-18T18:50:58Z</time>
      </trkpt>
      <trkpt lat="44.3581" lon="2.54734">
        <ele>539.6</ele>
        <time>2011-05-18T18:50:59Z</time>
      </trkpt>
      <trkpt lat="44.35807" lon="2.5474">
        <ele>539.3</ele>
        <time>2011-05-18T18:51:00Z</time>
      </trkpt>
      <trkpt lat="44.35804" lon="2.54746">
        <ele>538.9</ele>
        <time>2011-05-18T18:51:01Z</time>
      </trkpt>
      <trkpt lat="44.35802" lon="2.54752">
        <ele>538.7</ele>
        <time>2011-05-18T18:51:02Z</time>
      </trkpt>
      <trkpt lat="44.35799" lon="2.54758">
        <ele>538.9</ele>
        <time>2011-05-18T18:51:03Z</time>
      </trkpt>
      <trkpt lat="44.35796" lon="2.54763">
        <ele>539.4</ele>
        <time>2011-05-18T18:51:04Z</time>
      </trkpt>
      <trkpt lat="44.35793" lon="2.54769">
        <ele>539.5</ele>
        <time>2011-05-18T18:51:05Z</time>
      </trkpt>
      <trkpt lat="44.3579" lon="2.54774">
        <ele>539.8</ele>
        <time>2011-05-18T18:51:06Z</time>
      </trkpt>
      <trkpt lat="44.35787" lon="2.5478">
        <ele>540.1</ele>
        <time>2011-05-18T18:51:07Z</time>
      </trkpt>
      <trkpt lat="44.35785" lon="2.54785">
        <ele>540.4</ele>
        <time>2011-05-18T18:51:08Z</time>
      </trkpt>
      <trkpt lat="44.35782" lon="2.5479">
        <ele>540.6</ele>
        <time>2011-05-18T18:51:09Z</time>
      </trkpt>
      <trkpt lat="44.35779" lon="2.54795">
        <ele>540.8</ele>
        <time>2011-05-18T18:51:10Z</time>
      </trkpt>
      <trkpt lat="44.35776" lon="2.548">
        <ele>541</ele>
        <time>2011-05-18T18:51:11Z</time>
      </trkpt>
      <trkpt lat="44.35774" lon="2.54805">
        <ele>541.3</ele>
        <time>2011-05-18T18:51:12Z</time>
      </trkpt>
      <trkpt lat="44.35771" lon="2.5481">
        <ele>541.5</ele>
        <time>2011-05-18T18:51:13Z</time>
      </trkpt>
      <trkpt lat="44.35768" lon="2.54815">
        <ele>541.5</ele>
        <time>2011-05-18T18:51:14Z</time>
      </trkpt>
      <trkpt lat="44.35766" lon="2.5482">
        <ele>541.8</ele>
        <time>2011-05-18T18:51:15Z</time>
      </trkpt>
      <trkpt lat="44.35763" lon="2.54825">
        <ele>541.9</ele>
        <time>2011-05-18T18:51:16Z</time>
      </trkpt>
      <trkpt lat="44.3576" lon="2.54829">
        <ele>542.2</ele>
        <time>2011-05-18T18:51:17Z</time>
      </trkpt>
      <trkpt lat="44.35758" lon="2.54834">
        <ele>542.2</ele>
        <time>2011-05-18T18:51:18Z</time>
      </trkpt>
      <trkpt lat="44.35755" lon="2.54839">
        <ele>542.6</ele>
        <time>2011-05-18T18:51:19Z</time>
      </trkpt>
      <trkpt lat="44.35753" lon="2.54843">
        <ele>542.6</ele>
        <time>2011-05-18T18:51:20Z</time>
      </trkpt>
      <trkpt lat="44.35751" lon="2.54848">
        <ele>542.9</ele>
        <time>2011-05-18T18:51:21Z</time>
      </trkpt>
      <trkpt lat="44.35749" lon="2.54853">
        <ele>543.5</ele>
        <time>2011-05-18T18:51:22Z</time>
      </trkpt>
      <trkpt lat="44.35746" lon="2.54858">
        <ele>543.7</ele>
        <time>2011-05-18T18:51:23Z</time>
      </trkpt>
      <trkpt lat="44.35744" lon="2.54864">
        <ele>543.9</ele>
        <time>2011-05-18T18:51:24Z</time>
      </trkpt>
      <trkpt lat="44.35742" lon="2.54869">
        <ele>544.2</ele>
        <time>2011-05-18T18:51:25Z</time>
      </trkpt>
      <trkpt lat="44.3574" lon="2.54874">
        <ele>544.4</ele>
        <time>2011-05-18T18:51:26Z</time>
      </trkpt>
      <trkpt lat="44.35737" lon="2.5488">
        <ele>544.6</ele>
        <time>2011-05-18T18:51:27Z</time>
      </trkpt>
      <trkpt lat="44.35735" lon="2.54886">
        <ele>545</ele>
        <time>2011-05-18T18:51:28Z</time>
      </trkpt>
      <trkpt lat="44.35733" lon="2.54891">
        <ele>545.3</ele>
        <time>2011-05-18T18:51:29Z</time>
      </trkpt>
      <trkpt lat="44.35733" lon="2.54898">
        <ele>546.2</ele>
        <time>2011-05-18T18:51:30Z</time>
      </trkpt>
      <trkpt lat="44.35732" lon="2.54904">
        <ele>547</ele>
        <time>2011-05-18T18:51:31Z</time>
      </trkpt>
      <trkpt lat="44.3573" lon="2.5491">
        <ele>547.3</ele>
        <time>2011-05-18T18:51:32Z</time>
      </trkpt>
      <trkpt lat="44.35728" lon="2.54915">
        <ele>547.8</ele>
        <time>2011-05-18T18:51:33Z</time>
      </trkpt>
      <trkpt lat="44.35727" lon="2.54921">
        <ele>547.8</ele>
        <time>2011-05-18T18:51:34Z</time>
      </trkpt>
      <trkpt lat="44.35724" lon="2.54927">
        <ele>547.9</ele>
        <time>2011-05-18T18:51:35Z</time>
      </trkpt>
      <trkpt lat="44.35722" lon="2.54933">
        <ele>547.7</ele>
        <time>2011-05-18T18:51:36Z</time>
      </trkpt>
      <trkpt lat="44.3572" lon="2.54938">
        <ele>547.7</ele>
        <time>2011-05-18T18:51:37Z</time>
      </trkpt>
      <trkpt lat="44.35718" lon="2.54944">
        <ele>547.5</ele>
        <time>2011-05-18T18:51:38Z</time>
      </trkpt>
      <trkpt lat="44.35716" lon="2.54949">
        <ele>547.7</ele>
        <time>2011-05-18T18:51:39Z</time>
      </trkpt>
      <trkpt lat="44.35714" lon="2.54955">
        <ele>547.6</ele>
        <time>2011-05-18T18:51:40Z</time>
      </trkpt>
      <trkpt lat="44.35712" lon="2.5496">
        <ele>547.4</ele>
        <time>2011-05-18T18:51:41Z</time>
      </trkpt>
      <trkpt lat="44.3571" lon="2.54966">
        <ele>547.4</ele>
        <time>2011-05-18T18:51:42Z</time>
      </trkpt>
      <trkpt lat="44.35707" lon="2.54971">
        <ele>547.3</ele>
        <time>2011-05-18T18:51:43Z</time>
      </trkpt>
      <trkpt lat="44.35703" lon="2.54982">
        <ele>546.9</ele>
        <time>2011-05-18T18:51:45Z</time>
      </trkpt>
      <trkpt lat="44.35701" lon="2.54988">
        <ele>546.7</ele>
        <time>2011-05-18T18:51:46Z</time>
      </trkpt>
      <trkpt lat="44.35698" lon="2.54993">
        <ele>546.5</ele>
        <time>2011-05-18T18:51:47Z</time>
      </trkpt>
      <trkpt lat="44.35695" lon="2.54999">
        <ele>546</ele>
        <time>2011-05-18T18:51:48Z</time>
      </trkpt>
      <trkpt lat="44.35693" lon="2.55005">
        <ele>545.9</ele>
        <time>2011-05-18T18:51:49Z</time>
      </trkpt>
      <trkpt lat="44.3569" lon="2.5501">
        <ele>545.6</ele>
        <time>2011-05-18T18:51:50Z</time>
      </trkpt>
      <trkpt lat="44.35687" lon="2.55015">
        <ele>545.3</ele>
        <time>2011-05-18T18:51:51Z</time>
      </trkpt>
      <trkpt lat="44.35684" lon="2.5502">
        <ele>544.9</ele>
        <time>2011-05-18T18:51:52Z</time>
      </trkpt>
      <trkpt lat="44.35682" lon="2.55025">
        <ele>544.8</ele>
        <time>2011-05-18T18:51:53Z</time>
      </trkpt>
      <trkpt lat="44.35679" lon="2.5503">
        <ele>544.4</ele>
        <time>2011-05-18T18:51:54Z</time>
      </trkpt>
      <trkpt lat="44.35676" lon="2.55035">
        <ele>544.3</ele>
        <time>2011-05-18T18:51:55Z</time>
      </trkpt>
      <trkpt lat="44.35674" lon="2.5504">
        <ele>544.2</ele>
        <time>2011-05-18T18:51:56Z</time>
      </trkpt>
      <trkpt lat="44.35671" lon="2.55045">
        <ele>544.1</ele>
        <time>2011-05-18T18:51:57Z</time>
      </trkpt>
      <trkpt lat="44.35668" lon="2.55049">
        <ele>543.7</ele>
        <time>2011-05-18T18:51:58Z</time>
      </trkpt>
      <trkpt lat="44.35666" lon="2.55054">
        <ele>543.7</ele>
        <time>2011-05-18T18:51:59Z</time>
      </trkpt>
      <trkpt lat="44.35663" lon="2.55059">
        <ele>543.5</ele>
        <time>2011-05-18T18:52:00Z</time>
      </trkpt>
      <trkpt lat="44.3566" lon="2.55064">
        <ele>543.6</ele>
        <time>2011-05-18T18:52:01Z</time>
      </trkpt>
      <trkpt lat="44.35657" lon="2.55069">
        <ele>543.6</ele>
        <time>2011-05-18T18:52:02Z</time>
      </trkpt>
      <trkpt lat="44.35654" lon="2.55075">
        <ele>543.5</ele>
        <time>2011-05-18T18:52:03Z</time>
      </trkpt>
      <trkpt lat="44.35652" lon="2.5508">
        <ele>543.5</ele>
        <time>2011-05-18T18:52:04Z</time>
      </trkpt>
      <trkpt lat="44.35649" lon="2.55085">
        <ele>543.4</ele>
        <time>2011-05-18T18:52:05Z</time>
      </trkpt>
      <trkpt lat="44.35646" lon="2.5509">
        <ele>542.9</ele>
        <time>2011-05-18T18:52:06Z</time>
      </trkpt>
      <trkpt lat="44.35643" lon="2.55095">
        <ele>542.7</ele>
        <time>2011-05-18T18:52:07Z</time>
      </trkpt>
      <trkpt lat="44.3564" lon="2.551">
        <ele>542.5</ele>
        <time>2011-05-18T18:52:08Z</time>
      </trkpt>
      <trkpt lat="44.35637" lon="2.55105">
        <ele>542.3</ele>
        <time>2011-05-18T18:52:09Z</time>
      </trkpt>
      <trkpt lat="44.35635" lon="2.5511">
        <ele>542.1</ele>
        <time>2011-05-18T18:52:10Z</time>
      </trkpt>
      <trkpt lat="44.35632" lon="2.55115">
        <ele>542</ele>
        <time>2011-05-18T18:52:11Z</time>
      </trkpt>
      <trkpt lat="44.35629" lon="2.5512">
        <ele>541.6</ele>
        <time>2011-05-18T18:52:12Z</time>
      </trkpt>
      <trkpt lat="44.35625" lon="2.55124">
        <ele>541.4</ele>
        <time>2011-05-18T18:52:13Z</time>
      </trkpt>
      <trkpt lat="44.35622" lon="2.55129">
        <ele>541.1</ele>
        <time>2011-05-18T18:52:14Z</time>
      </trkpt>
      <trkpt lat="44.35619" lon="2.55133">
        <ele>540.9</ele>
        <time>2011-05-18T18:52:15Z</time>
      </trkpt>
      <trkpt lat="44.35616" lon="2.55138">
        <ele>540.6</ele>
        <time>2011-05-18T18:52:16Z</time>
      </trkpt>
      <trkpt lat="44.35612" lon="2.55142">
        <ele>540.5</ele>
        <time>2011-05-18T18:52:17Z</time>
      </trkpt>
      <trkpt lat="44.35609" lon="2.55147">
        <ele>540.2</ele>
        <time>2011-05-18T18:52:18Z</time>
      </trkpt>
      <trkpt lat="44.35605" lon="2.55152">
        <ele>540.1</ele>
        <time>2011-05-18T18:52:19Z</time>
      </trkpt>
      <trkpt lat="44.35602" lon="2.55156">
        <ele>539.8</ele>
        <time>2011-05-18T18:52:20Z</time>
      </trkpt>
      <trkpt lat="44.35598" lon="2.55161">
        <ele>539.6</ele>
        <time>2011-05-18T18:52:21Z</time>
      </trkpt>
      <trkpt lat="44.35595" lon="2.55165">
        <ele>539.6</ele>
        <time>2011-05-18T18:52:22Z</time>
      </trkpt>
      <trkpt lat="44.35591" lon="2.55169">
        <ele>539.4</ele>
        <time>2011-05-18T18:52:23Z</time>
      </trkpt>
      <trkpt lat="44.35587" lon="2.55173">
        <ele>539.2</ele>
        <time>2011-05-18T18:52:24Z</time>
      </trkpt>
      <trkpt lat="44.35583" lon="2.55177">
        <ele>539.1</ele>
        <time>2011-05-18T18:52:25Z</time>
      </trkpt>
      <trkpt lat="44.3558" lon="2.55181">
        <ele>539.1</ele>
        <time>2011-05-18T18:52:26Z</time>
      </trkpt>
      <trkpt lat="44.35576" lon="2.55185">
        <ele>538.8</ele>
        <time>2011-05-18T18:52:27Z</time>
      </trkpt>
      <trkpt lat="44.35572" lon="2.55188">
        <ele>538.6</ele>
        <time>2011-05-18T18:52:28Z</time>
      </trkpt>
      <trkpt lat="44.35569" lon="2.55191">
        <ele>538.3</ele>
        <time>2011-05-18T18:52:29Z</time>
      </trkpt>
      <trkpt lat="44.35565" lon="2.55194">
        <ele>538.1</ele>
        <time>2011-05-18T18:52:30Z</time>
      </trkpt>
      <trkpt lat="44.35561" lon="2.55198">
        <ele>537.6</ele>
        <time>2011-05-18T18:52:31Z</time>
      </trkpt>
      <trkpt lat="44.35557" lon="2.55201">
        <ele>537.3</ele>
        <time>2011-05-18T18:52:32Z</time>
      </trkpt>
      <trkpt lat="44.35552" lon="2.55204">
        <ele>536.7</ele>
        <time>2011-05-18T18:52:33Z</time>
      </trkpt>
      <trkpt lat="44.35548" lon="2.55206">
        <ele>536.2</ele>
        <time>2011-05-18T18:52:34Z</time>
      </trkpt>
      <trkpt lat="44.35544" lon="2.55209">
        <ele>535.7</ele>
        <time>2011-05-18T18:52:35Z</time>
      </trkpt>
      <trkpt lat="44.3554" lon="2.55211">
        <ele>535.1</ele>
        <time>2011-05-18T18:52:36Z</time>
      </trkpt>
      <trkpt lat="44.35536" lon="2.55213">
        <ele>534.3</ele>
        <time>2011-05-18T18:52:37Z</time>
      </trkpt>
      <trkpt lat="44.35532" lon="2.55216">
        <ele>533.8</ele>
        <time>2011-05-18T18:52:38Z</time>
      </trkpt>
      <trkpt lat="44.35529" lon="2.55217">
        <ele>533.3</ele>
        <time>2011-05-18T18:52:39Z</time>
      </trkpt>
      <trkpt lat="44.35525" lon="2.55219">
        <ele>532.6</ele>
        <time>2011-05-18T18:52:40Z</time>
      </trkpt>
      <trkpt lat="44.35521" lon="2.55221">
        <ele>531.9</ele>
        <time>2011-05-18T18:52:41Z</time>
      </trkpt>
      <trkpt lat="44.35518" lon="2.55223">
        <ele>531.3</ele>
        <time>2011-05-18T18:52:42Z</time>
      </trkpt>
      <trkpt lat="44.35514" lon="2.55225">
        <ele>530.7</ele>
        <time>2011-05-18T18:52:43Z</time>
      </trkpt>
      <trkpt lat="44.3551" lon="2.55228">
        <ele>530</ele>
        <time>2011-05-18T18:52:44Z</time>
      </trkpt>
      <trkpt lat="44.35506" lon="2.5523">
        <ele>529.5</ele>
        <time>2011-05-18T18:52:45Z</time>
      </trkpt>
      <trkpt lat="44.35503" lon="2.55233">
        <ele>528.8</ele>
        <time>2011-05-18T18:52:46Z</time>
      </trkpt>
      <trkpt lat="44.35499" lon="2.55235">
        <ele>528.4</ele>
        <time>2011-05-18T18:52:47Z</time>
      </trkpt>
      <trkpt lat="44.35495" lon="2.55237">
        <ele>528.3</ele>
        <time>2011-05-18T18:52:48Z</time>
      </trkpt>
      <trkpt lat="44.35492" lon="2.5524">
        <ele>528.1</ele>
        <time>2011-05-18T18:52:49Z</time>
      </trkpt>
      <trkpt lat="44.35488" lon="2.55242">
        <ele>527.9</ele>
        <time>2011-05-18T18:52:50Z</time>
      </trkpt>
      <trkpt lat="44.35485" lon="2.55244">
        <ele>527.5</ele>
        <time>2011-05-18T18:52:51Z</time>
      </trkpt>
      <trkpt lat="44.35481" lon="2.55247">
        <ele>527.2</ele>
        <time>2011-05-18T18:52:52Z</time>
      </trkpt>
      <trkpt lat="44.35476" lon="2.5525">
        <ele>527</ele>
        <time>2011-05-18T18:52:53Z</time>
      </trkpt>
      <trkpt lat="44.35472" lon="2.55253">
        <ele>526.6</ele>
        <time>2011-05-18T18:52:54Z</time>
      </trkpt>
      <trkpt lat="44.35468" lon="2.55255">
        <ele>526.4</ele>
        <time>2011-05-18T18:52:55Z</time>
      </trkpt>
      <trkpt lat="44.35464" lon="2.55258">
        <ele>526</ele>
        <time>2011-05-18T18:52:56Z</time>
      </trkpt>
      <trkpt lat="44.35461" lon="2.5526">
        <ele>525.8</ele>
        <time>2011-05-18T18:52:57Z</time>
      </trkpt>
      <trkpt lat="44.35458" lon="2.55262">
        <ele>525.6</ele>
        <time>2011-05-18T18:52:58Z</time>
      </trkpt>
      <trkpt lat="44.35454" lon="2.55264">
        <ele>525.3</ele>
        <time>2011-05-18T18:52:59Z</time>
      </trkpt>
      <trkpt lat="44.35452" lon="2.55266">
        <ele>525.1</ele>
        <time>2011-05-18T18:53:00Z</time>
      </trkpt>
      <trkpt lat="44.35449" lon="2.55269">
        <ele>525</ele>
        <time>2011-05-18T18:53:01Z</time>
      </trkpt>
      <trkpt lat="44.35445" lon="2.55272">
        <ele>524.7</ele>
        <time>2011-05-18T18:53:02Z</time>
      </trkpt>
      <trkpt lat="44.3544" lon="2.55275">
        <ele>524.5</ele>
        <time>2011-05-18T18:53:03Z</time>
      </trkpt>
      <trkpt lat="44.35437" lon="2.55279">
        <ele>524.4</ele>
        <time>2011-05-18T18:53:04Z</time>
      </trkpt>
      <trkpt lat="44.35433" lon="2.55282">
        <ele>524.1</ele>
        <time>2011-05-18T18:53:05Z</time>
      </trkpt>
      <trkpt lat="44.3543" lon="2.55285">
        <ele>523.9</ele>
        <time>2011-05-18T18:53:06Z</time>
      </trkpt>
      <trkpt lat="44.35427" lon="2.55288">
        <ele>523.7</ele>
        <time>2011-05-18T18:53:07Z</time>
      </trkpt>
      <trkpt lat="44.35424" lon="2.5529">
        <ele>523.5</ele>
        <time>2011-05-18T18:53:08Z</time>
      </trkpt>
      <trkpt lat="44.35421" lon="2.55292">
        <ele>523.2</ele>
        <time>2011-05-18T18:53:09Z</time>
      </trkpt>
      <trkpt lat="44.35417" lon="2.55295">
        <ele>523</ele>
        <time>2011-05-18T18:53:10Z</time>
      </trkpt>
      <trkpt lat="44.35415" lon="2.55297">
        <ele>523.1</ele>
        <time>2011-05-18T18:53:11Z</time>
      </trkpt>
      <trkpt lat="44.35412" lon="2.553">
        <ele>523.2</ele>
        <time>2011-05-18T18:53:12Z</time>
      </trkpt>
      <trkpt lat="44.35409" lon="2.55302">
        <ele>523.4</ele>
        <time>2011-05-18T18:53:13Z</time>
      </trkpt>
      <trkpt lat="44.35406" lon="2.55304">
        <ele>523.4</ele>
        <time>2011-05-18T18:53:14Z</time>
      </trkpt>
      <trkpt lat="44.35404" lon="2.55307">
        <ele>523.5</ele>
        <time>2011-05-18T18:53:15Z</time>
      </trkpt>
      <trkpt lat="44.35401" lon="2.5531">
        <ele>523.6</ele>
        <time>2011-05-18T18:53:16Z</time>
      </trkpt>
      <trkpt lat="44.35397" lon="2.55313">
        <ele>523.9</ele>
        <time>2011-05-18T18:53:17Z</time>
      </trkpt>
      <trkpt lat="44.35394" lon="2.55316">
        <ele>524</ele>
        <time>2011-05-18T18:53:18Z</time>
      </trkpt>
      <trkpt lat="44.35391" lon="2.55319">
        <ele>524</ele>
        <time>2011-05-18T18:53:19Z</time>
      </trkpt>
      <trkpt lat="44.35388" lon="2.55321">
        <ele>524.1</ele>
        <time>2011-05-18T18:53:20Z</time>
      </trkpt>
      <trkpt lat="44.35384" lon="2.55324">
        <ele>524.1</ele>
        <time>2011-05-18T18:53:21Z</time>
      </trkpt>
      <trkpt lat="44.35381" lon="2.55327">
        <ele>524.3</ele>
        <time>2011-05-18T18:53:22Z</time>
      </trkpt>
      <trkpt lat="44.35379" lon="2.5533">
        <ele>524.4</ele>
        <time>2011-05-18T18:53:23Z</time>
      </trkpt>
      <trkpt lat="44.35377" lon="2.55334">
        <ele>524.6</ele>
        <time>2011-05-18T18:53:24Z</time>
      </trkpt>
      <trkpt lat="44.35374" lon="2.55337">
        <ele>524.7</ele>
        <time>2011-05-18T18:53:25Z</time>
      </trkpt>
      <trkpt lat="44.35372" lon="2.5534">
        <ele>524.9</ele>
        <time>2011-05-18T18:53:26Z</time>
      </trkpt>
      <trkpt lat="44.35369" lon="2.55344">
        <ele>524.9</ele>
        <time>2011-05-18T18:53:27Z</time>
      </trkpt>
      <trkpt lat="44.35365" lon="2.55347">
        <ele>525</ele>
        <time>2011-05-18T18:53:28Z</time>
      </trkpt>
      <trkpt lat="44.35363" lon="2.55351">
        <ele>525.2</ele>
        <time>2011-05-18T18:53:29Z</time>
      </trkpt>
      <trkpt lat="44.3536" lon="2.55354">
        <ele>525.3</ele>
        <time>2011-05-18T18:53:30Z</time>
      </trkpt>
      <trkpt lat="44.35357" lon="2.55356">
        <ele>525.2</ele>
        <time>2011-05-18T18:53:31Z</time>
      </trkpt>
      <trkpt lat="44.35354" lon="2.55358">
        <ele>525.1</ele>
        <time>2011-05-18T18:53:32Z</time>
      </trkpt>
      <trkpt lat="44.35351" lon="2.5536">
        <ele>525</ele>
        <time>2011-05-18T18:53:34Z</time>
      </trkpt>
      <trkpt lat="44.35349" lon="2.55362">
        <ele>525.1</ele>
        <time>2011-05-18T18:53:35Z</time>
      </trkpt>
      <trkpt lat="44.35348" lon="2.55366">
        <ele>525.4</ele>
        <time>2011-05-18T18:53:36Z</time>
      </trkpt>
      <trkpt lat="44.35347" lon="2.5537">
        <ele>525.7</ele>
        <time>2011-05-18T18:53:37Z</time>
      </trkpt>
      <trkpt lat="44.35348" lon="2.55374">
        <ele>526.2</ele>
        <time>2011-05-18T18:53:38Z</time>
      </trkpt>
      <trkpt lat="44.3535" lon="2.55376">
        <ele>526.7</ele>
        <time>2011-05-18T18:53:39Z</time>
      </trkpt>
      <trkpt lat="44.35353" lon="2.55379">
        <ele>527</ele>
        <time>2011-05-18T18:53:40Z</time>
      </trkpt>
      <trkpt lat="44.35355" lon="2.55382">
        <ele>527.6</ele>
        <time>2011-05-18T18:53:41Z</time>
      </trkpt>
      <trkpt lat="44.35357" lon="2.55385">
        <ele>528</ele>
        <time>2011-05-18T18:53:42Z</time>
      </trkpt>
      <trkpt lat="44.35358" lon="2.55389">
        <ele>528.5</ele>
        <time>2011-05-18T18:53:43Z</time>
      </trkpt>
      <trkpt lat="44.35358" lon="2.55393">
        <ele>528.9</ele>
        <time>2011-05-18T18:53:44Z</time>
      </trkpt>
      <trkpt lat="44.35359" lon="2.55397">
        <ele>529.4</ele>
        <time>2011-05-18T18:53:45Z</time>
      </trkpt>
      <trkpt lat="44.35358" lon="2.55401">
        <ele>529.7</ele>
        <time>2011-05-18T18:53:46Z</time>
      </trkpt>
      <trkpt lat="44.35358" lon="2.55405">
        <ele>530</ele>
        <time>2011-05-18T18:53:47Z</time>
      </trkpt>
      <trkpt lat="44.35357" lon="2.55408">
        <ele>530.3</ele>
        <time>2011-05-18T18:53:48Z</time>
      </trkpt>
      <trkpt lat="44.35355" lon="2.55412">
        <ele>530.6</ele>
        <time>2011-05-18T18:53:49Z</time>
      </trkpt>
      <trkpt lat="44.35353" lon="2.55417">
        <ele>530.9</ele>
        <time>2011-05-18T18:53:51Z</time>
      </trkpt>
      <trkpt lat="44.35351" lon="2.55422">
        <ele>531.3</ele>
        <time>2011-05-18T18:53:53Z</time>
      </trkpt>
      <trkpt lat="44.35348" lon="2.55426">
        <ele>531.9</ele>
        <time>2011-05-18T18:53:55Z</time>
      </trkpt>
      <trkpt lat="44.35345" lon="2.55429">
        <ele>531.9</ele>
        <time>2011-05-18T18:53:57Z</time>
      </trkpt>
      <trkpt lat="44.35341" lon="2.55431">
        <ele>531.8</ele>
        <time>2011-05-18T18:53:59Z</time>
      </trkpt>
      <trkpt lat="44.35339" lon="2.55431">
        <ele>531.7</ele>
        <time>2011-05-18T18:54:00Z</time>
      </trkpt>
      <trkpt lat="44.35335" lon="2.55435">
        <ele>532</ele>
        <time>2011-05-18T18:54:02Z</time>
      </trkpt>
      <trkpt lat="44.35332" lon="2.55439">
        <ele>532.4</ele>
        <time>2011-05-18T18:54:04Z</time>
      </trkpt>
      <trkpt lat="44.35329" lon="2.55443">
        <ele>532.7</ele>
        <time>2011-05-18T18:54:06Z</time>
      </trkpt>
      <trkpt lat="44.35326" lon="2.55447">
        <ele>533</ele>
        <time>2011-05-18T18:54:08Z</time>
      </trkpt>
      <trkpt lat="44.35323" lon="2.5545">
        <ele>533.1</ele>
        <time>2011-05-18T18:54:10Z</time>
      </trkpt>
      <trkpt lat="44.3532" lon="2.55454">
        <ele>533.4</ele>
        <time>2011-05-18T18:54:12Z</time>
      </trkpt>
      <trkpt lat="44.35317" lon="2.55458">
        <ele>533.7</ele>
        <time>2011-05-18T18:54:14Z</time>
      </trkpt>
      <trkpt lat="44.35315" lon="2.55462">
        <ele>533.9</ele>
        <time>2011-05-18T18:54:16Z</time>
      </trkpt>
      <trkpt lat="44.35312" lon="2.55466">
        <ele>534.4</ele>
        <time>2011-05-18T18:54:18Z</time>
      </trkpt>
      <trkpt lat="44.3531" lon="2.55471">
        <ele>535</ele>
        <time>2011-05-18T18:54:20Z</time>
      </trkpt>
      <trkpt lat="44.35308" lon="2.55477">
        <ele>535.5</ele>
        <time>2011-05-18T18:54:22Z</time>
      </trkpt>
      <trkpt lat="44.35308" lon="2.55483">
        <ele>536.1</ele>
        <time>2011-05-18T18:54:24Z</time>
      </trkpt>
      <trkpt lat="44.35307" lon="2.55486">
        <ele>536.6</ele>
        <time>2011-05-18T18:54:25Z</time>
      </trkpt>
      <trkpt lat="44.35307" lon="2.55489">
        <ele>536.9</ele>
        <time>2011-05-18T18:54:26Z</time>
      </trkpt>
      <trkpt lat="44.35307" lon="2.55492">
        <ele>537.4</ele>
        <time>2011-05-18T18:54:27Z</time>
      </trkpt>
      <trkpt lat="44.35307" lon="2.55495">
        <ele>537.8</ele>
        <time>2011-05-18T18:54:28Z</time>
      </trkpt>
      <trkpt lat="44.35307" lon="2.55502">
        <ele>538.6</ele>
        <time>2011-05-18T18:54:30Z</time>
      </trkpt>
      <trkpt lat="44.35307" lon="2.55508">
        <ele>539.2</ele>
        <time>2011-05-18T18:54:32Z</time>
      </trkpt>
      <trkpt lat="44.35308" lon="2.55513">
        <ele>539.8</ele>
        <time>2011-05-18T18:54:34Z</time>
      </trkpt>
      <trkpt lat="44.35309" lon="2.55519">
        <ele>540.4</ele>
        <time>2011-05-18T18:54:36Z</time>
      </trkpt>
      <trkpt lat="44.35311" lon="2.55524">
        <ele>541.3</ele>
        <time>2011-05-18T18:54:38Z</time>
      </trkpt>
      <trkpt lat="44.35314" lon="2.55528">
        <ele>542.1</ele>
        <time>2011-05-18T18:54:40Z</time>
      </trkpt>
      <trkpt lat="44.35317" lon="2.55532">
        <ele>543</ele>
        <time>2011-05-18T18:54:42Z</time>
      </trkpt>
      <trkpt lat="44.35321" lon="2.55536">
        <ele>544.1</ele>
        <time>2011-05-18T18:54:44Z</time>
      </trkpt>
      <trkpt lat="44.35324" lon="2.55539">
        <ele>545.2</ele>
        <time>2011-05-18T18:54:46Z</time>
      </trkpt>
      <trkpt lat="44.35328" lon="2.55541">
        <ele>546.2</ele>
        <time>2011-05-18T18:54:48Z</time>
      </trkpt>
      <trkpt lat="44.3533" lon="2.55541">
        <ele>546.6</ele>
        <time>2011-05-18T18:54:49Z</time>
      </trkpt>
      <trkpt lat="44.35335" lon="2.55544">
        <ele>547.9</ele>
        <time>2011-05-18T18:54:52Z</time>
      </trkpt>
      <trkpt lat="44.35339" lon="2.55545">
        <ele>548.5</ele>
        <time>2011-05-18T18:54:54Z</time>
      </trkpt>
      <trkpt lat="44.35343" lon="2.55547">
        <ele>549</ele>
        <time>2011-05-18T18:54:56Z</time>
      </trkpt>
      <trkpt lat="44.35347" lon="2.55548">
        <ele>549.8</ele>
        <time>2011-05-18T18:54:58Z</time>
      </trkpt>
      <trkpt lat="44.3535" lon="2.55548">
        <ele>550</ele>
        <time>2011-05-18T18:55:00Z</time>
      </trkpt>
      <trkpt lat="44.35354" lon="2.55547">
        <ele>550.4</ele>
        <time>2011-05-18T18:55:02Z</time>
      </trkpt>
      <trkpt lat="44.35357" lon="2.55546">
        <ele>550.6</ele>
        <time>2011-05-18T18:55:04Z</time>
      </trkpt>
      <trkpt lat="44.35361" lon="2.55546">
        <ele>551</ele>
        <time>2011-05-18T18:55:06Z</time>
      </trkpt>
      <trkpt lat="44.35365" lon="2.55547">
        <ele>551.5</ele>
        <time>2011-05-18T18:55:08Z</time>
      </trkpt>
      <trkpt lat="44.35369" lon="2.55548">
        <ele>552.1</ele>
        <time>2011-05-18T18:55:10Z</time>
      </trkpt>
      <trkpt lat="44.35373" lon="2.55547">
        <ele>552.5</ele>
        <time>2011-05-18T18:55:12Z</time>
      </trkpt>
      <trkpt lat="44.35376" lon="2.55547">
        <ele>552.9</ele>
        <time>2011-05-18T18:55:14Z</time>
      </trkpt>
      <trkpt lat="44.3538" lon="2.55548">
        <ele>553.3</ele>
        <time>2011-05-18T18:55:16Z</time>
      </trkpt>
      <trkpt lat="44.35384" lon="2.55548">
        <ele>554</ele>
        <time>2011-05-18T18:55:18Z</time>
      </trkpt>
      <trkpt lat="44.35389" lon="2.55548">
        <ele>554.4</ele>
        <time>2011-05-18T18:55:20Z</time>
      </trkpt>
      <trkpt lat="44.35393" lon="2.55548">
        <ele>554.9</ele>
        <time>2011-05-18T18:55:22Z</time>
      </trkpt>
      <trkpt lat="44.35397" lon="2.55548">
        <ele>555.3</ele>
        <time>2011-05-18T18:55:24Z</time>
      </trkpt>
      <trkpt lat="44.35401" lon="2.55548">
        <ele>555.6</ele>
        <time>2011-05-18T18:55:26Z</time>
      </trkpt>
      <trkpt lat="44.35405" lon="2.55547">
        <ele>556.1</ele>
        <time>2011-05-18T18:55:28Z</time>
      </trkpt>
      <trkpt lat="44.3541" lon="2.55546">
        <ele>556.4</ele>
        <time>2011-05-18T18:55:30Z</time>
      </trkpt>
      <trkpt lat="44.35414" lon="2.55545">
        <ele>556.6</ele>
        <time>2011-05-18T18:55:32Z</time>
      </trkpt>
      <trkpt lat="44.35418" lon="2.55543">
        <ele>556.8</ele>
        <time>2011-05-18T18:55:34Z</time>
      </trkpt>
      <trkpt lat="44.35423" lon="2.55542">
        <ele>556.9</ele>
        <time>2011-05-18T18:55:36Z</time>
      </trkpt>
      <trkpt lat="44.35427" lon="2.55541">
        <ele>557</ele>
        <time>2011-05-18T18:55:38Z</time>
      </trkpt>
      <trkpt lat="44.35431" lon="2.55539">
        <ele>557.1</ele>
        <time>2011-05-18T18:55:40Z</time>
      </trkpt>
      <trkpt lat="44.35435" lon="2.55538">
        <ele>557.1</ele>
        <time>2011-05-18T18:55:42Z</time>
      </trkpt>
      <trkpt lat="44.35439" lon="2.55536">
        <ele>557</ele>
        <time>2011-05-18T18:55:44Z</time>
      </trkpt>
      <trkpt lat="44.35444" lon="2.55536">
        <ele>557.3</ele>
        <time>2011-05-18T18:55:46Z</time>
      </trkpt>
      <trkpt lat="44.35448" lon="2.55535">
        <ele>557.4</ele>
        <time>2011-05-18T18:55:48Z</time>
      </trkpt>
      <trkpt lat="44.35452" lon="2.55533">
        <ele>557.5</ele>
        <time>2011-05-18T18:55:50Z</time>
      </trkpt>
      <trkpt lat="44.35454" lon="2.55533">
        <ele>557.7</ele>
        <time>2011-05-18T18:55:51Z</time>
      </trkpt>
      <trkpt lat="44.35461" lon="2.55533">
        <ele>558.2</ele>
        <time>2011-05-18T18:55:54Z</time>
      </trkpt>
      <trkpt lat="44.35465" lon="2.55532">
        <ele>558.3</ele>
        <time>2011-05-18T18:55:56Z</time>
      </trkpt>
      <trkpt lat="44.35469" lon="2.55532">
        <ele>558.6</ele>
        <time>2011-05-18T18:55:58Z</time>
      </trkpt>
      <trkpt lat="44.35471" lon="2.55532">
        <ele>558.7</ele>
        <time>2011-05-18T18:55:59Z</time>
      </trkpt>
      <trkpt lat="44.35474" lon="2.55532">
        <ele>558.9</ele>
        <time>2011-05-18T18:56:00Z</time>
      </trkpt>
      <trkpt lat="44.35478" lon="2.55532">
        <ele>559.2</ele>
        <time>2011-05-18T18:56:02Z</time>
      </trkpt>
      <trkpt lat="44.35482" lon="2.55533">
        <ele>559.6</ele>
        <time>2011-05-18T18:56:04Z</time>
      </trkpt>
      <trkpt lat="44.35486" lon="2.55533">
        <ele>559.9</ele>
        <time>2011-05-18T18:56:06Z</time>
      </trkpt>
      <trkpt lat="44.3549" lon="2.55534">
        <ele>560.4</ele>
        <time>2011-05-18T18:56:08Z</time>
      </trkpt>
      <trkpt lat="44.35494" lon="2.55535">
        <ele>560.8</ele>
        <time>2011-05-18T18:56:10Z</time>
      </trkpt>
      <trkpt lat="44.35497" lon="2.55537">
        <ele>561.2</ele>
        <time>2011-05-18T18:56:12Z</time>
      </trkpt>
      <trkpt lat="44.35501" lon="2.55538">
        <ele>561.7</ele>
        <time>2011-05-18T18:56:14Z</time>
      </trkpt>
      <trkpt lat="44.35505" lon="2.5554">
        <ele>562.6</ele>
        <time>2011-05-18T18:56:16Z</time>
      </trkpt>
      <trkpt lat="44.35509" lon="2.55543">
        <ele>563.3</ele>
        <time>2011-05-18T18:56:18Z</time>
      </trkpt>
      <trkpt lat="44.35513" lon="2.55545">
        <ele>564.2</ele>
        <time>2011-05-18T18:56:20Z</time>
      </trkpt>
      <trkpt lat="44.35516" lon="2.55548">
        <ele>565.1</ele>
        <time>2011-05-18T18:56:22Z</time>
      </trkpt>
      <trkpt lat="44.3552" lon="2.5555">
        <ele>565.9</ele>
        <time>2011-05-18T18:56:24Z</time>
      </trkpt>
      <trkpt lat="44.35524" lon="2.55553">
        <ele>566.8</ele>
        <time>2011-05-18T18:56:26Z</time>
      </trkpt>
      <trkpt lat="44.35528" lon="2.55556">
        <ele>567.8</ele>
        <time>2011-05-18T18:56:28Z</time>
      </trkpt>
      <trkpt lat="44.35531" lon="2.55559">
        <ele>568.6</ele>
        <time>2011-05-18T18:56:30Z</time>
      </trkpt>
      <trkpt lat="44.35535" lon="2.55562">
        <ele>569.5</ele>
        <time>2011-05-18T18:56:32Z</time>
      </trkpt>
      <trkpt lat="44.35539" lon="2.55565">
        <ele>570.3</ele>
        <time>2011-05-18T18:56:34Z</time>
      </trkpt>
      <trkpt lat="44.35542" lon="2.55569">
        <ele>571.2</ele>
        <time>2011-05-18T18:56:36Z</time>
      </trkpt>
      <trkpt lat="44.35544" lon="2.55573">
        <ele>572.1</ele>
        <time>2011-05-18T18:56:38Z</time>
      </trkpt>
      <trkpt lat="44.35545" lon="2.55578">
        <ele>572.9</ele>
        <time>2011-05-18T18:56:40Z</time>
      </trkpt>
      <trkpt lat="44.35547" lon="2.55584">
        <ele>573.8</ele>
        <time>2011-05-18T18:56:42Z</time>
      </trkpt>
      <trkpt lat="44.3555" lon="2.55588">
        <ele>574</ele>
        <time>2011-05-18T18:56:44Z</time>
      </trkpt>
      <trkpt lat="44.35554" lon="2.55589">
        <ele>574.6</ele>
        <time>2011-05-18T18:56:46Z</time>
      </trkpt>
      <trkpt lat="44.35558" lon="2.55589">
        <ele>575.1</ele>
        <time>2011-05-18T18:56:48Z</time>
      </trkpt>
      <trkpt lat="44.35562" lon="2.55588">
        <ele>575.7</ele>
        <time>2011-05-18T18:56:50Z</time>
      </trkpt>
      <trkpt lat="44.35566" lon="2.55588">
        <ele>576.3</ele>
        <time>2011-05-18T18:56:52Z</time>
      </trkpt>
      <trkpt lat="44.35568" lon="2.55589">
        <ele>576.5</ele>
        <time>2011-05-18T18:56:53Z</time>
      </trkpt>
      <trkpt lat="44.35573" lon="2.55594">
        <ele>576.9</ele>
        <time>2011-05-18T18:56:56Z</time>
      </trkpt>
      <trkpt lat="44.35576" lon="2.55598">
        <ele>577</ele>
        <time>2011-05-18T18:56:58Z</time>
      </trkpt>
      <trkpt lat="44.35579" lon="2.55602">
        <ele>577.2</ele>
        <time>2011-05-18T18:57:00Z</time>
      </trkpt>
      <trkpt lat="44.35583" lon="2.55604">
        <ele>577.5</ele>
        <time>2011-05-18T18:57:02Z</time>
      </trkpt>
      <trkpt lat="44.35586" lon="2.55608">
        <ele>577.4</ele>
        <time>2011-05-18T18:57:04Z</time>
      </trkpt>
      <trkpt lat="44.3559" lon="2.55611">
        <ele>577.3</ele>
        <time>2011-05-18T18:57:06Z</time>
      </trkpt>
      <trkpt lat="44.35593" lon="2.55614">
        <ele>577.2</ele>
        <time>2011-05-18T18:57:08Z</time>
      </trkpt>
      <trkpt lat="44.35597" lon="2.55617">
        <ele>577.2</ele>
        <time>2011-05-18T18:57:10Z</time>
      </trkpt>
      <trkpt lat="44.35601" lon="2.5562">
        <ele>577</ele>
        <time>2011-05-18T18:57:12Z</time>
      </trkpt>
      <trkpt lat="44.35603" lon="2.55622">
        <ele>576.9</ele>
        <time>2011-05-18T18:57:13Z</time>
      </trkpt>
      <trkpt lat="44.35605" lon="2.55623">
        <ele>576.9</ele>
        <time>2011-05-18T18:57:14Z</time>
      </trkpt>
      <trkpt lat="44.35607" lon="2.55625">
        <ele>576.7</ele>
        <time>2011-05-18T18:57:15Z</time>
      </trkpt>
      <trkpt lat="44.35609" lon="2.55627">
        <ele>576.7</ele>
        <time>2011-05-18T18:57:16Z</time>
      </trkpt>
      <trkpt lat="44.35611" lon="2.55629">
        <ele>576.6</ele>
        <time>2011-05-18T18:57:17Z</time>
      </trkpt>
      <trkpt lat="44.35613" lon="2.55631">
        <ele>576.4</ele>
        <time>2011-05-18T18:57:18Z</time>
      </trkpt>
      <trkpt lat="44.35615" lon="2.55633">
        <ele>576.2</ele>
        <time>2011-05-18T18:57:19Z</time>
      </trkpt>
      <trkpt lat="44.35617" lon="2.55634">
        <ele>576.1</ele>
        <time>2011-05-18T18:57:20Z</time>
      </trkpt>
      <trkpt lat="44.35619" lon="2.55636">
        <ele>576.1</ele>
        <time>2011-05-18T18:57:21Z</time>
      </trkpt>
      <trkpt lat="44.35622" lon="2.55638">
        <ele>576</ele>
        <time>2011-05-18T18:57:22Z</time>
      </trkpt>
      <trkpt lat="44.35624" lon="2.55639">
        <ele>575.8</ele>
        <time>2011-05-18T18:57:23Z</time>
      </trkpt>
      <trkpt lat="44.35626" lon="2.55641">
        <ele>575.7</ele>
        <time>2011-05-18T18:57:24Z</time>
      </trkpt>
      <trkpt lat="44.35628" lon="2.55642">
        <ele>575.6</ele>
        <time>2011-05-18T18:57:25Z</time>
      </trkpt>
      <trkpt lat="44.35632" lon="2.55645">
        <ele>575.4</ele>
        <time>2011-05-18T18:57:27Z</time>
      </trkpt>
      <trkpt lat="44.35636" lon="2.55649">
        <ele>575</ele>
        <time>2011-05-18T18:57:29Z</time>
      </trkpt>
      <trkpt lat="44.3564" lon="2.55651">
        <ele>574.8</ele>
        <time>2011-05-18T18:57:31Z</time>
      </trkpt>
      <trkpt lat="44.35643" lon="2.55653">
        <ele>574.6</ele>
        <time>2011-05-18T18:57:33Z</time>
      </trkpt>
      <trkpt lat="44.35647" lon="2.55654">
        <ele>574.5</ele>
        <time>2011-05-18T18:57:35Z</time>
      </trkpt>
      <trkpt lat="44.35651" lon="2.55657">
        <ele>574.3</ele>
        <time>2011-05-18T18:57:37Z</time>
      </trkpt>
      <trkpt lat="44.35654" lon="2.55658">
        <ele>574.1</ele>
        <time>2011-05-18T18:57:38Z</time>
      </trkpt>
      <trkpt lat="44.35656" lon="2.55659">
        <ele>574.1</ele>
        <time>2011-05-18T18:57:39Z</time>
      </trkpt>
      <trkpt lat="44.35659" lon="2.5566">
        <ele>574</ele>
        <time>2011-05-18T18:57:40Z</time>
      </trkpt>
      <trkpt lat="44.35661" lon="2.55661">
        <ele>573.8</ele>
        <time>2011-05-18T18:57:41Z</time>
      </trkpt>
      <trkpt lat="44.35664" lon="2.55661">
        <ele>573.8</ele>
        <time>2011-05-18T18:57:42Z</time>
      </trkpt>
      <trkpt lat="44.35667" lon="2.55662">
        <ele>573.7</ele>
        <time>2011-05-18T18:57:43Z</time>
      </trkpt>
      <trkpt lat="44.3567" lon="2.55664">
        <ele>573.7</ele>
        <time>2011-05-18T18:57:44Z</time>
      </trkpt>
      <trkpt lat="44.35673" lon="2.55666">
        <ele>573.5</ele>
        <time>2011-05-18T18:57:45Z</time>
      </trkpt>
      <trkpt lat="44.35676" lon="2.55668">
        <ele>573.5</ele>
        <time>2011-05-18T18:57:46Z</time>
      </trkpt>
      <trkpt lat="44.35679" lon="2.55669">
        <ele>573.7</ele>
        <time>2011-05-18T18:57:47Z</time>
      </trkpt>
      <trkpt lat="44.35682" lon="2.55671">
        <ele>573.8</ele>
        <time>2011-05-18T18:57:48Z</time>
      </trkpt>
      <trkpt lat="44.35685" lon="2.55677">
        <ele>573.9</ele>
        <time>2011-05-18T18:57:49Z</time>
      </trkpt>
      <trkpt lat="44.35688" lon="2.55682">
        <ele>574</ele>
        <time>2011-05-18T18:57:50Z</time>
      </trkpt>
    </trkseg>
  </trk>
</gpx>